<?xml version="1.0" encoding="UTF-8" standalone="no" ?>
<gpx xmlns="http://www.topografix.com/GPX/1/1" xmlns:xsi="http://www.w3.org/2001/XMLSchema-instance" xsi:schemaLocation="http://www.topografix.com/GPX/1/1 http://www.topografix.com/GPX/1/1/gpx.xsd" version="1.1" creator="VisuGPX - https://www.visugpx.com">
  <metadata>
    <name>lundi 2015 12 - 2015 10</name>
    <desc><![CDATA[cumul 3 mois]]></desc>
  </metadata>
  <trk>
    <name><![CDATA[lundi 2015 12 28]]></name>
    <extensions>
      <line xmlns="http://www.topografix.com/GPX/gpx_style/0/2">
        <color>000000</color>
      </line>
    </extensions>
    <trkseg>
      <trkpt lat="48.85739" lon="2.34731">
        <ele>40.400001525879</ele>
        <time>2015-12-28T19:20:28Z</time>
      </trkpt>
      <trkpt lat="48.85742" lon="2.3474">
        <ele>40.400001525879</ele>
        <time>2015-12-28T19:20:44Z</time>
      </trkpt>
      <trkpt lat="48.85759" lon="2.34752">
        <ele>40</ele>
        <time>2015-12-28T19:20:55Z</time>
      </trkpt>
      <trkpt lat="48.85774" lon="2.34768">
        <ele>39.599998474121</ele>
        <time>2015-12-28T19:21:06Z</time>
      </trkpt>
      <trkpt lat="48.85787" lon="2.34786">
        <ele>40.79999923706</ele>
        <time>2015-12-28T19:21:14Z</time>
      </trkpt>
      <trkpt lat="48.85804" lon="2.34797">
        <ele>42.599998474121</ele>
        <time>2015-12-28T19:21:18Z</time>
      </trkpt>
      <trkpt lat="48.85821" lon="2.34806">
        <ele>44.400001525879</ele>
        <time>2015-12-28T19:21:23Z</time>
      </trkpt>
      <trkpt lat="48.85838" lon="2.34816">
        <ele>46.20000076294</ele>
        <time>2015-12-28T19:21:30Z</time>
      </trkpt>
      <trkpt lat="48.85838" lon="2.34827">
        <ele>46</ele>
        <time>2015-12-28T19:21:48Z</time>
      </trkpt>
      <trkpt lat="48.85859" lon="2.34834">
        <ele>48</ele>
        <time>2015-12-28T19:22:08Z</time>
      </trkpt>
      <trkpt lat="48.8588" lon="2.34843">
        <ele>48</ele>
        <time>2015-12-28T19:22:14Z</time>
      </trkpt>
      <trkpt lat="48.859" lon="2.3485">
        <ele>48</ele>
        <time>2015-12-28T19:22:19Z</time>
      </trkpt>
      <trkpt lat="48.85921" lon="2.34859">
        <ele>48</ele>
        <time>2015-12-28T19:22:24Z</time>
      </trkpt>
      <trkpt lat="48.85938" lon="2.34867">
        <ele>48</ele>
        <time>2015-12-28T19:22:29Z</time>
      </trkpt>
      <trkpt lat="48.8596" lon="2.34877">
        <ele>48.20000076294</ele>
        <time>2015-12-28T19:22:34Z</time>
      </trkpt>
      <trkpt lat="48.85978" lon="2.34888">
        <ele>48.400001525879</ele>
        <time>2015-12-28T19:22:38Z</time>
      </trkpt>
      <trkpt lat="48.85998" lon="2.34901">
        <ele>48.79999923706</ele>
        <time>2015-12-28T19:22:43Z</time>
      </trkpt>
      <trkpt lat="48.86016" lon="2.34911">
        <ele>49</ele>
        <time>2015-12-28T19:22:47Z</time>
      </trkpt>
      <trkpt lat="48.86034" lon="2.34918">
        <ele>48.599998474121</ele>
        <time>2015-12-28T19:22:51Z</time>
      </trkpt>
      <trkpt lat="48.86039" lon="2.3492">
        <ele>48.599998474121</ele>
        <time>2015-12-28T19:22:52Z</time>
      </trkpt>
      <trkpt lat="48.86056" lon="2.3493">
        <ele>48</ele>
        <time>2015-12-28T19:22:56Z</time>
      </trkpt>
      <trkpt lat="48.86075" lon="2.3494">
        <ele>47.400001525879</ele>
        <time>2015-12-28T19:23:00Z</time>
      </trkpt>
      <trkpt lat="48.86096" lon="2.3495">
        <ele>46.79999923706</ele>
        <time>2015-12-28T19:23:04Z</time>
      </trkpt>
      <trkpt lat="48.86117" lon="2.34959">
        <ele>46.599998474121</ele>
        <time>2015-12-28T19:23:08Z</time>
      </trkpt>
      <trkpt lat="48.86137" lon="2.34972">
        <ele>46.599998474121</ele>
        <time>2015-12-28T19:23:12Z</time>
      </trkpt>
      <trkpt lat="48.86157" lon="2.34984">
        <ele>46.79999923706</ele>
        <time>2015-12-28T19:23:16Z</time>
      </trkpt>
      <trkpt lat="48.86176" lon="2.34994">
        <ele>46.79999923706</ele>
        <time>2015-12-28T19:23:20Z</time>
      </trkpt>
      <trkpt lat="48.86184" lon="2.34997">
        <ele>47</ele>
        <time>2015-12-28T19:23:22Z</time>
      </trkpt>
      <trkpt lat="48.86202" lon="2.35008">
        <ele>47.20000076294</ele>
        <time>2015-12-28T19:23:26Z</time>
      </trkpt>
      <trkpt lat="48.86221" lon="2.35017">
        <ele>47.599998474121</ele>
        <time>2015-12-28T19:23:30Z</time>
      </trkpt>
      <trkpt lat="48.86241" lon="2.35024">
        <ele>48</ele>
        <time>2015-12-28T19:23:35Z</time>
      </trkpt>
      <trkpt lat="48.86245" lon="2.35025">
        <ele>48</ele>
        <time>2015-12-28T19:23:36Z</time>
      </trkpt>
      <trkpt lat="48.86263" lon="2.35033">
        <ele>48.400001525879</ele>
        <time>2015-12-28T19:23:41Z</time>
      </trkpt>
      <trkpt lat="48.86269" lon="2.35036">
        <ele>48.400001525879</ele>
        <time>2015-12-28T19:23:43Z</time>
      </trkpt>
      <trkpt lat="48.86277" lon="2.3504">
        <ele>48.400001525879</ele>
        <time>2015-12-28T19:23:45Z</time>
      </trkpt>
      <trkpt lat="48.86295" lon="2.35056">
        <ele>48.400001525879</ele>
        <time>2015-12-28T19:23:50Z</time>
      </trkpt>
      <trkpt lat="48.86314" lon="2.35066">
        <ele>48.400001525879</ele>
        <time>2015-12-28T19:23:55Z</time>
      </trkpt>
      <trkpt lat="48.86321" lon="2.35068">
        <ele>48.20000076294</ele>
        <time>2015-12-28T19:23:57Z</time>
      </trkpt>
      <trkpt lat="48.86338" lon="2.35083">
        <ele>48.20000076294</ele>
        <time>2015-12-28T19:24:02Z</time>
      </trkpt>
      <trkpt lat="48.86356" lon="2.35092">
        <ele>47.79999923706</ele>
        <time>2015-12-28T19:24:06Z</time>
      </trkpt>
      <trkpt lat="48.86375" lon="2.35103">
        <ele>47.79999923706</ele>
        <time>2015-12-28T19:24:10Z</time>
      </trkpt>
      <trkpt lat="48.86394" lon="2.35114">
        <ele>47.400001525879</ele>
        <time>2015-12-28T19:24:14Z</time>
      </trkpt>
      <trkpt lat="48.86406" lon="2.35119">
        <ele>47.20000076294</ele>
        <time>2015-12-28T19:24:17Z</time>
      </trkpt>
      <trkpt lat="48.86426" lon="2.35134">
        <ele>47</ele>
        <time>2015-12-28T19:24:22Z</time>
      </trkpt>
      <trkpt lat="48.86428" lon="2.35136">
        <ele>47</ele>
        <time>2015-12-28T19:24:23Z</time>
      </trkpt>
      <trkpt lat="48.86432" lon="2.3514">
        <ele>46.79999923706</ele>
        <time>2015-12-28T19:24:25Z</time>
      </trkpt>
      <trkpt lat="48.86443" lon="2.35152">
        <ele>46.79999923706</ele>
        <time>2015-12-28T19:24:30Z</time>
      </trkpt>
      <trkpt lat="48.86446" lon="2.35154">
        <ele>46.79999923706</ele>
        <time>2015-12-28T19:24:31Z</time>
      </trkpt>
      <trkpt lat="48.86465" lon="2.35168">
        <ele>46.599998474121</ele>
        <time>2015-12-28T19:24:36Z</time>
      </trkpt>
      <trkpt lat="48.86482" lon="2.35178">
        <ele>46.400001525879</ele>
        <time>2015-12-28T19:24:41Z</time>
      </trkpt>
      <trkpt lat="48.86503" lon="2.35187">
        <ele>46.20000076294</ele>
        <time>2015-12-28T19:24:46Z</time>
      </trkpt>
      <trkpt lat="48.8652" lon="2.35199">
        <ele>46.400001525879</ele>
        <time>2015-12-28T19:24:50Z</time>
      </trkpt>
      <trkpt lat="48.86537" lon="2.35209">
        <ele>46.79999923706</ele>
        <time>2015-12-28T19:24:54Z</time>
      </trkpt>
      <trkpt lat="48.86557" lon="2.35218">
        <ele>47.400001525879</ele>
        <time>2015-12-28T19:24:58Z</time>
      </trkpt>
      <trkpt lat="48.86576" lon="2.35229">
        <ele>48</ele>
        <time>2015-12-28T19:25:02Z</time>
      </trkpt>
      <trkpt lat="48.86594" lon="2.35239">
        <ele>48.599998474121</ele>
        <time>2015-12-28T19:25:06Z</time>
      </trkpt>
      <trkpt lat="48.86598" lon="2.35242">
        <ele>48.79999923706</ele>
        <time>2015-12-28T19:25:07Z</time>
      </trkpt>
      <trkpt lat="48.86603" lon="2.3527">
        <ele>48.599998474121</ele>
        <time>2015-12-28T19:25:12Z</time>
      </trkpt>
      <trkpt lat="48.86602" lon="2.35277">
        <ele>48.599998474121</ele>
        <time>2015-12-28T19:25:13Z</time>
      </trkpt>
      <trkpt lat="48.86599" lon="2.35298">
        <ele>48.400001525879</ele>
        <time>2015-12-28T19:25:16Z</time>
      </trkpt>
      <trkpt lat="48.86592" lon="2.35327">
        <ele>47.599998474121</ele>
        <time>2015-12-28T19:25:20Z</time>
      </trkpt>
      <trkpt lat="48.86595" lon="2.35359">
        <ele>47.599998474121</ele>
        <time>2015-12-28T19:25:24Z</time>
      </trkpt>
      <trkpt lat="48.86597" lon="2.35364">
        <ele>47.599998474121</ele>
        <time>2015-12-28T19:25:25Z</time>
      </trkpt>
      <trkpt lat="48.86598" lon="2.35371">
        <ele>47.79999923706</ele>
        <time>2015-12-28T19:25:27Z</time>
      </trkpt>
      <trkpt lat="48.86593" lon="2.35399">
        <ele>47.599998474121</ele>
        <time>2015-12-28T19:25:33Z</time>
      </trkpt>
      <trkpt lat="48.86588" lon="2.35418">
        <ele>48.20000076294</ele>
        <time>2015-12-28T19:25:36Z</time>
      </trkpt>
      <trkpt lat="48.86584" lon="2.35446">
        <ele>47.400001525879</ele>
        <time>2015-12-28T19:25:40Z</time>
      </trkpt>
      <trkpt lat="48.86581" lon="2.35461">
        <ele>47.20000076294</ele>
        <time>2015-12-28T19:25:42Z</time>
      </trkpt>
      <trkpt lat="48.86577" lon="2.35492">
        <ele>47</ele>
        <time>2015-12-28T19:25:46Z</time>
      </trkpt>
      <trkpt lat="48.86571" lon="2.35524">
        <ele>45.599998474121</ele>
        <time>2015-12-28T19:25:50Z</time>
      </trkpt>
      <trkpt lat="48.86566" lon="2.35556">
        <ele>44.400001525879</ele>
        <time>2015-12-28T19:25:54Z</time>
      </trkpt>
      <trkpt lat="48.86564" lon="2.35564">
        <ele>44.20000076294</ele>
        <time>2015-12-28T19:25:55Z</time>
      </trkpt>
      <trkpt lat="48.86559" lon="2.35587">
        <ele>44</ele>
        <time>2015-12-28T19:25:58Z</time>
      </trkpt>
      <trkpt lat="48.8655" lon="2.35619">
        <ele>45</ele>
        <time>2015-12-28T19:26:02Z</time>
      </trkpt>
      <trkpt lat="48.86549" lon="2.35627">
        <ele>45</ele>
        <time>2015-12-28T19:26:03Z</time>
      </trkpt>
      <trkpt lat="48.86542" lon="2.3566">
        <ele>45.400001525879</ele>
        <time>2015-12-28T19:26:07Z</time>
      </trkpt>
      <trkpt lat="48.86536" lon="2.35686">
        <ele>45.79999923706</ele>
        <time>2015-12-28T19:26:10Z</time>
      </trkpt>
      <trkpt lat="48.86529" lon="2.3572">
        <ele>45.400001525879</ele>
        <time>2015-12-28T19:26:14Z</time>
      </trkpt>
      <trkpt lat="48.86523" lon="2.35746">
        <ele>45</ele>
        <time>2015-12-28T19:26:17Z</time>
      </trkpt>
      <trkpt lat="48.86517" lon="2.35775">
        <ele>45.400001525879</ele>
        <time>2015-12-28T19:26:20Z</time>
      </trkpt>
      <trkpt lat="48.8651" lon="2.35803">
        <ele>45.599998474121</ele>
        <time>2015-12-28T19:26:23Z</time>
      </trkpt>
      <trkpt lat="48.86502" lon="2.35831">
        <ele>46</ele>
        <time>2015-12-28T19:26:26Z</time>
      </trkpt>
      <trkpt lat="48.86497" lon="2.3586">
        <ele>45.400001525879</ele>
        <time>2015-12-28T19:26:29Z</time>
      </trkpt>
      <trkpt lat="48.8649" lon="2.35888">
        <ele>44.79999923706</ele>
        <time>2015-12-28T19:26:32Z</time>
      </trkpt>
      <trkpt lat="48.86483" lon="2.35914">
        <ele>45</ele>
        <time>2015-12-28T19:26:35Z</time>
      </trkpt>
      <trkpt lat="48.86478" lon="2.35936">
        <ele>45.400001525879</ele>
        <time>2015-12-28T19:26:38Z</time>
      </trkpt>
      <trkpt lat="48.86474" lon="2.35962">
        <ele>45.20000076294</ele>
        <time>2015-12-28T19:26:42Z</time>
      </trkpt>
      <trkpt lat="48.86473" lon="2.35975">
        <ele>45</ele>
        <time>2015-12-28T19:26:45Z</time>
      </trkpt>
      <trkpt lat="48.86477" lon="2.35982">
        <ele>44.79999923706</ele>
        <time>2015-12-28T19:27:05Z</time>
      </trkpt>
      <trkpt lat="48.86494" lon="2.35997">
        <ele>44.599998474121</ele>
        <time>2015-12-28T19:27:15Z</time>
      </trkpt>
      <trkpt lat="48.86512" lon="2.36015">
        <ele>44.599998474121</ele>
        <time>2015-12-28T19:27:19Z</time>
      </trkpt>
      <trkpt lat="48.86529" lon="2.36029">
        <ele>44.599998474121</ele>
        <time>2015-12-28T19:27:22Z</time>
      </trkpt>
      <trkpt lat="48.86548" lon="2.36047">
        <ele>44.20000076294</ele>
        <time>2015-12-28T19:27:26Z</time>
      </trkpt>
      <trkpt lat="48.86567" lon="2.36067">
        <ele>43.599998474121</ele>
        <time>2015-12-28T19:27:30Z</time>
      </trkpt>
      <trkpt lat="48.86586" lon="2.36085">
        <ele>43.20000076294</ele>
        <time>2015-12-28T19:27:34Z</time>
      </trkpt>
      <trkpt lat="48.86602" lon="2.36099">
        <ele>43.20000076294</ele>
        <time>2015-12-28T19:27:37Z</time>
      </trkpt>
      <trkpt lat="48.86617" lon="2.36114">
        <ele>43.599998474121</ele>
        <time>2015-12-28T19:27:40Z</time>
      </trkpt>
      <trkpt lat="48.86636" lon="2.36134">
        <ele>44.400001525879</ele>
        <time>2015-12-28T19:27:44Z</time>
      </trkpt>
      <trkpt lat="48.86653" lon="2.36155">
        <ele>45</ele>
        <time>2015-12-28T19:27:48Z</time>
      </trkpt>
      <trkpt lat="48.86664" lon="2.36177">
        <ele>45.599998474121</ele>
        <time>2015-12-28T19:27:51Z</time>
      </trkpt>
      <trkpt lat="48.86673" lon="2.36201">
        <ele>46</ele>
        <time>2015-12-28T19:27:54Z</time>
      </trkpt>
      <trkpt lat="48.86681" lon="2.3623">
        <ele>46.599998474121</ele>
        <time>2015-12-28T19:27:58Z</time>
      </trkpt>
      <trkpt lat="48.86684" lon="2.36237">
        <ele>46.79999923706</ele>
        <time>2015-12-28T19:27:59Z</time>
      </trkpt>
      <trkpt lat="48.86692" lon="2.36257">
        <ele>47</ele>
        <time>2015-12-28T19:28:02Z</time>
      </trkpt>
      <trkpt lat="48.867" lon="2.36282">
        <ele>46.79999923706</ele>
        <time>2015-12-28T19:28:06Z</time>
      </trkpt>
      <trkpt lat="48.86702" lon="2.36287">
        <ele>46.79999923706</ele>
        <time>2015-12-28T19:28:07Z</time>
      </trkpt>
      <trkpt lat="48.86712" lon="2.3631">
        <ele>46.400001525879</ele>
        <time>2015-12-28T19:28:13Z</time>
      </trkpt>
      <trkpt lat="48.86715" lon="2.36315">
        <ele>46.20000076294</ele>
        <time>2015-12-28T19:28:15Z</time>
      </trkpt>
      <trkpt lat="48.86717" lon="2.36324">
        <ele>46.20000076294</ele>
        <time>2015-12-28T19:28:19Z</time>
      </trkpt>
      <trkpt lat="48.86719" lon="2.36349">
        <ele>45.79999923706</ele>
        <time>2015-12-28T19:28:55Z</time>
      </trkpt>
      <trkpt lat="48.86708" lon="2.36371">
        <ele>45.20000076294</ele>
        <time>2015-12-28T19:29:00Z</time>
      </trkpt>
      <trkpt lat="48.86696" lon="2.36394">
        <ele>44.20000076294</ele>
        <time>2015-12-28T19:29:04Z</time>
      </trkpt>
      <trkpt lat="48.86684" lon="2.36417">
        <ele>43.400001525879</ele>
        <time>2015-12-28T19:29:08Z</time>
      </trkpt>
      <trkpt lat="48.86671" lon="2.36441">
        <ele>43.599998474121</ele>
        <time>2015-12-28T19:29:12Z</time>
      </trkpt>
      <trkpt lat="48.86657" lon="2.36467">
        <ele>43.79999923706</ele>
        <time>2015-12-28T19:29:16Z</time>
      </trkpt>
      <trkpt lat="48.86653" lon="2.36481">
        <ele>44</ele>
        <time>2015-12-28T19:29:18Z</time>
      </trkpt>
      <trkpt lat="48.86654" lon="2.3651">
        <ele>44</ele>
        <time>2015-12-28T19:29:22Z</time>
      </trkpt>
      <trkpt lat="48.86656" lon="2.36525">
        <ele>44.599998474121</ele>
        <time>2015-12-28T19:29:24Z</time>
      </trkpt>
      <trkpt lat="48.86648" lon="2.36554">
        <ele>45.79999923706</ele>
        <time>2015-12-28T19:29:28Z</time>
      </trkpt>
      <trkpt lat="48.86634" lon="2.36579">
        <ele>46</ele>
        <time>2015-12-28T19:29:33Z</time>
      </trkpt>
      <trkpt lat="48.86619" lon="2.36603">
        <ele>46.599998474121</ele>
        <time>2015-12-28T19:29:38Z</time>
      </trkpt>
      <trkpt lat="48.86605" lon="2.36626">
        <ele>46.400001525879</ele>
        <time>2015-12-28T19:29:43Z</time>
      </trkpt>
      <trkpt lat="48.86598" lon="2.36644">
        <ele>46.20000076294</ele>
        <time>2015-12-28T19:29:46Z</time>
      </trkpt>
      <trkpt lat="48.86585" lon="2.36664">
        <ele>45.79999923706</ele>
        <time>2015-12-28T19:29:50Z</time>
      </trkpt>
      <trkpt lat="48.86571" lon="2.36685">
        <ele>45.79999923706</ele>
        <time>2015-12-28T19:29:54Z</time>
      </trkpt>
      <trkpt lat="48.86561" lon="2.3671">
        <ele>46</ele>
        <time>2015-12-28T19:29:58Z</time>
      </trkpt>
      <trkpt lat="48.86549" lon="2.36731">
        <ele>46.20000076294</ele>
        <time>2015-12-28T19:30:02Z</time>
      </trkpt>
      <trkpt lat="48.86535" lon="2.36756">
        <ele>46.20000076294</ele>
        <time>2015-12-28T19:30:07Z</time>
      </trkpt>
      <trkpt lat="48.86529" lon="2.36767">
        <ele>46.400001525879</ele>
        <time>2015-12-28T19:30:10Z</time>
      </trkpt>
      <trkpt lat="48.86515" lon="2.3679">
        <ele>47</ele>
        <time>2015-12-28T19:30:16Z</time>
      </trkpt>
      <trkpt lat="48.86501" lon="2.36815">
        <ele>47.400001525879</ele>
        <time>2015-12-28T19:30:21Z</time>
      </trkpt>
      <trkpt lat="48.86486" lon="2.3684">
        <ele>47</ele>
        <time>2015-12-28T19:30:26Z</time>
      </trkpt>
      <trkpt lat="48.8647" lon="2.36864">
        <ele>46.400001525879</ele>
        <time>2015-12-28T19:30:31Z</time>
      </trkpt>
      <trkpt lat="48.86464" lon="2.36875">
        <ele>46.20000076294</ele>
        <time>2015-12-28T19:30:33Z</time>
      </trkpt>
      <trkpt lat="48.8645" lon="2.36896">
        <ele>46.20000076294</ele>
        <time>2015-12-28T19:30:37Z</time>
      </trkpt>
      <trkpt lat="48.86436" lon="2.36921">
        <ele>45.79999923706</ele>
        <time>2015-12-28T19:30:41Z</time>
      </trkpt>
      <trkpt lat="48.86425" lon="2.36939">
        <ele>45.20000076294</ele>
        <time>2015-12-28T19:30:44Z</time>
      </trkpt>
      <trkpt lat="48.86411" lon="2.36962">
        <ele>44.599998474121</ele>
        <time>2015-12-28T19:30:48Z</time>
      </trkpt>
      <trkpt lat="48.864" lon="2.36984">
        <ele>44.79999923706</ele>
        <time>2015-12-28T19:30:52Z</time>
      </trkpt>
      <trkpt lat="48.86389" lon="2.36999">
        <ele>45.20000076294</ele>
        <time>2015-12-28T19:30:56Z</time>
      </trkpt>
      <trkpt lat="48.86383" lon="2.37004">
        <ele>45.20000076294</ele>
        <time>2015-12-28T19:30:59Z</time>
      </trkpt>
      <trkpt lat="48.86369" lon="2.37026">
        <ele>44.79999923706</ele>
        <time>2015-12-28T19:31:05Z</time>
      </trkpt>
      <trkpt lat="48.86366" lon="2.3703">
        <ele>44.79999923706</ele>
        <time>2015-12-28T19:31:06Z</time>
      </trkpt>
      <trkpt lat="48.86356" lon="2.37048">
        <ele>44.79999923706</ele>
        <time>2015-12-28T19:31:10Z</time>
      </trkpt>
      <trkpt lat="48.8635" lon="2.37062">
        <ele>44.20000076294</ele>
        <time>2015-12-28T19:31:14Z</time>
      </trkpt>
      <trkpt lat="48.86338" lon="2.37084">
        <ele>43.79999923706</ele>
        <time>2015-12-28T19:31:19Z</time>
      </trkpt>
      <trkpt lat="48.86324" lon="2.37113">
        <ele>43.599998474121</ele>
        <time>2015-12-28T19:31:24Z</time>
      </trkpt>
      <trkpt lat="48.86317" lon="2.37124">
        <ele>43.599998474121</ele>
        <time>2015-12-28T19:31:26Z</time>
      </trkpt>
      <trkpt lat="48.8631" lon="2.37135">
        <ele>43.599998474121</ele>
        <time>2015-12-28T19:31:28Z</time>
      </trkpt>
      <trkpt lat="48.86294" lon="2.37159">
        <ele>44</ele>
        <time>2015-12-28T19:31:32Z</time>
      </trkpt>
      <trkpt lat="48.86279" lon="2.37182">
        <ele>44.20000076294</ele>
        <time>2015-12-28T19:31:36Z</time>
      </trkpt>
      <trkpt lat="48.86263" lon="2.37207">
        <ele>44.599998474121</ele>
        <time>2015-12-28T19:31:40Z</time>
      </trkpt>
      <trkpt lat="48.86246" lon="2.37231">
        <ele>44.79999923706</ele>
        <time>2015-12-28T19:31:44Z</time>
      </trkpt>
      <trkpt lat="48.86238" lon="2.37242">
        <ele>45</ele>
        <time>2015-12-28T19:31:46Z</time>
      </trkpt>
      <trkpt lat="48.86229" lon="2.37266">
        <ele>45.20000076294</ele>
        <time>2015-12-28T19:31:50Z</time>
      </trkpt>
      <trkpt lat="48.86224" lon="2.37276">
        <ele>45.400001525879</ele>
        <time>2015-12-28T19:31:52Z</time>
      </trkpt>
      <trkpt lat="48.86211" lon="2.37301">
        <ele>46</ele>
        <time>2015-12-28T19:31:57Z</time>
      </trkpt>
      <trkpt lat="48.86208" lon="2.37306">
        <ele>46.20000076294</ele>
        <time>2015-12-28T19:31:58Z</time>
      </trkpt>
      <trkpt lat="48.86198" lon="2.37322">
        <ele>46.599998474121</ele>
        <time>2015-12-28T19:32:01Z</time>
      </trkpt>
      <trkpt lat="48.86192" lon="2.37333">
        <ele>47</ele>
        <time>2015-12-28T19:32:03Z</time>
      </trkpt>
      <trkpt lat="48.86178" lon="2.37358">
        <ele>46</ele>
        <time>2015-12-28T19:32:08Z</time>
      </trkpt>
      <trkpt lat="48.86166" lon="2.37381">
        <ele>45.20000076294</ele>
        <time>2015-12-28T19:32:12Z</time>
      </trkpt>
      <trkpt lat="48.86157" lon="2.37397">
        <ele>44.79999923706</ele>
        <time>2015-12-28T19:32:15Z</time>
      </trkpt>
      <trkpt lat="48.86144" lon="2.37419">
        <ele>44.400001525879</ele>
        <time>2015-12-28T19:32:19Z</time>
      </trkpt>
      <trkpt lat="48.8613" lon="2.37441">
        <ele>44.20000076294</ele>
        <time>2015-12-28T19:32:23Z</time>
      </trkpt>
      <trkpt lat="48.86115" lon="2.37462">
        <ele>43.20000076294</ele>
        <time>2015-12-28T19:32:27Z</time>
      </trkpt>
      <trkpt lat="48.86101" lon="2.37478">
        <ele>42.400001525879</ele>
        <time>2015-12-28T19:32:31Z</time>
      </trkpt>
      <trkpt lat="48.86086" lon="2.37498">
        <ele>42.400001525879</ele>
        <time>2015-12-28T19:32:35Z</time>
      </trkpt>
      <trkpt lat="48.86073" lon="2.37519">
        <ele>43</ele>
        <time>2015-12-28T19:32:39Z</time>
      </trkpt>
      <trkpt lat="48.86058" lon="2.37538">
        <ele>43.79999923706</ele>
        <time>2015-12-28T19:32:43Z</time>
      </trkpt>
      <trkpt lat="48.86046" lon="2.37553">
        <ele>44.79999923706</ele>
        <time>2015-12-28T19:32:46Z</time>
      </trkpt>
      <trkpt lat="48.86032" lon="2.37575">
        <ele>46.400001525879</ele>
        <time>2015-12-28T19:32:50Z</time>
      </trkpt>
      <trkpt lat="48.86018" lon="2.37599">
        <ele>47</ele>
        <time>2015-12-28T19:32:54Z</time>
      </trkpt>
      <trkpt lat="48.86004" lon="2.37621">
        <ele>46.400001525879</ele>
        <time>2015-12-28T19:32:58Z</time>
      </trkpt>
      <trkpt lat="48.85992" lon="2.37646">
        <ele>46</ele>
        <time>2015-12-28T19:33:02Z</time>
      </trkpt>
      <trkpt lat="48.85983" lon="2.37671">
        <ele>46.20000076294</ele>
        <time>2015-12-28T19:33:06Z</time>
      </trkpt>
      <trkpt lat="48.85969" lon="2.37693">
        <ele>46</ele>
        <time>2015-12-28T19:33:10Z</time>
      </trkpt>
      <trkpt lat="48.85957" lon="2.37719">
        <ele>46.599998474121</ele>
        <time>2015-12-28T19:33:14Z</time>
      </trkpt>
      <trkpt lat="48.85945" lon="2.37746">
        <ele>47.20000076294</ele>
        <time>2015-12-28T19:33:18Z</time>
      </trkpt>
      <trkpt lat="48.85943" lon="2.37754">
        <ele>47.20000076294</ele>
        <time>2015-12-28T19:33:19Z</time>
      </trkpt>
      <trkpt lat="48.85929" lon="2.3778">
        <ele>46.79999923706</ele>
        <time>2015-12-28T19:33:23Z</time>
      </trkpt>
      <trkpt lat="48.85916" lon="2.37805">
        <ele>46.400001525879</ele>
        <time>2015-12-28T19:33:27Z</time>
      </trkpt>
      <trkpt lat="48.85903" lon="2.37826">
        <ele>46.599998474121</ele>
        <time>2015-12-28T19:33:31Z</time>
      </trkpt>
      <trkpt lat="48.85889" lon="2.37845">
        <ele>46.599998474121</ele>
        <time>2015-12-28T19:33:35Z</time>
      </trkpt>
      <trkpt lat="48.85874" lon="2.37863">
        <ele>46.400001525879</ele>
        <time>2015-12-28T19:33:39Z</time>
      </trkpt>
      <trkpt lat="48.85859" lon="2.37887">
        <ele>46</ele>
        <time>2015-12-28T19:33:44Z</time>
      </trkpt>
      <trkpt lat="48.85851" lon="2.37902">
        <ele>45.79999923706</ele>
        <time>2015-12-28T19:33:47Z</time>
      </trkpt>
      <trkpt lat="48.85839" lon="2.37923">
        <ele>45.20000076294</ele>
        <time>2015-12-28T19:33:51Z</time>
      </trkpt>
      <trkpt lat="48.85826" lon="2.37943">
        <ele>44.20000076294</ele>
        <time>2015-12-28T19:33:56Z</time>
      </trkpt>
      <trkpt lat="48.85814" lon="2.37967">
        <ele>43.599998474121</ele>
        <time>2015-12-28T19:34:03Z</time>
      </trkpt>
      <trkpt lat="48.85801" lon="2.37991">
        <ele>44</ele>
        <time>2015-12-28T19:34:09Z</time>
      </trkpt>
      <trkpt lat="48.85799" lon="2.37996">
        <ele>44</ele>
        <time>2015-12-28T19:34:10Z</time>
      </trkpt>
      <trkpt lat="48.85781" lon="2.38012">
        <ele>44.400001525879</ele>
        <time>2015-12-28T19:34:15Z</time>
      </trkpt>
      <trkpt lat="48.85771" lon="2.38017">
        <ele>44.79999923706</ele>
        <time>2015-12-28T19:34:22Z</time>
      </trkpt>
      <trkpt lat="48.85771" lon="2.38017">
        <ele>44.599998474121</ele>
        <time>2015-12-28T19:34:23Z</time>
      </trkpt>
      <trkpt lat="48.85761" lon="2.38039">
        <ele>45.599998474121</ele>
        <time>2015-12-28T19:34:36Z</time>
      </trkpt>
      <trkpt lat="48.85747" lon="2.38064">
        <ele>46.400001525879</ele>
        <time>2015-12-28T19:34:42Z</time>
      </trkpt>
      <trkpt lat="48.85732" lon="2.38085">
        <ele>46.599998474121</ele>
        <time>2015-12-28T19:34:47Z</time>
      </trkpt>
      <trkpt lat="48.85715" lon="2.38105">
        <ele>46.599998474121</ele>
        <time>2015-12-28T19:34:51Z</time>
      </trkpt>
      <trkpt lat="48.85699" lon="2.38128">
        <ele>47.20000076294</ele>
        <time>2015-12-28T19:34:55Z</time>
      </trkpt>
      <trkpt lat="48.85685" lon="2.38152">
        <ele>47.599998474121</ele>
        <time>2015-12-28T19:34:59Z</time>
      </trkpt>
      <trkpt lat="48.85671" lon="2.38174">
        <ele>48</ele>
        <time>2015-12-28T19:35:03Z</time>
      </trkpt>
      <trkpt lat="48.85656" lon="2.38199">
        <ele>48</ele>
        <time>2015-12-28T19:35:07Z</time>
      </trkpt>
      <trkpt lat="48.8565" lon="2.38213">
        <ele>47.79999923706</ele>
        <time>2015-12-28T19:35:09Z</time>
      </trkpt>
      <trkpt lat="48.85635" lon="2.38238">
        <ele>47</ele>
        <time>2015-12-28T19:35:13Z</time>
      </trkpt>
      <trkpt lat="48.8562" lon="2.38262">
        <ele>46.400001525879</ele>
        <time>2015-12-28T19:35:17Z</time>
      </trkpt>
      <trkpt lat="48.8561" lon="2.38283">
        <ele>45.400001525879</ele>
        <time>2015-12-28T19:35:20Z</time>
      </trkpt>
      <trkpt lat="48.856" lon="2.38304">
        <ele>44.599998474121</ele>
        <time>2015-12-28T19:35:23Z</time>
      </trkpt>
      <trkpt lat="48.85587" lon="2.38333">
        <ele>45</ele>
        <time>2015-12-28T19:35:27Z</time>
      </trkpt>
      <trkpt lat="48.85572" lon="2.38361">
        <ele>45.599998474121</ele>
        <time>2015-12-28T19:35:31Z</time>
      </trkpt>
      <trkpt lat="48.85558" lon="2.38383">
        <ele>46.20000076294</ele>
        <time>2015-12-28T19:35:34Z</time>
      </trkpt>
      <trkpt lat="48.85545" lon="2.38403">
        <ele>47</ele>
        <time>2015-12-28T19:35:37Z</time>
      </trkpt>
      <trkpt lat="48.85528" lon="2.38428">
        <ele>48</ele>
        <time>2015-12-28T19:35:41Z</time>
      </trkpt>
      <trkpt lat="48.8552" lon="2.3844">
        <ele>48.20000076294</ele>
        <time>2015-12-28T19:35:43Z</time>
      </trkpt>
      <trkpt lat="48.85507" lon="2.38465">
        <ele>48.20000076294</ele>
        <time>2015-12-28T19:35:47Z</time>
      </trkpt>
      <trkpt lat="48.85491" lon="2.38487">
        <ele>47.79999923706</ele>
        <time>2015-12-28T19:35:52Z</time>
      </trkpt>
      <trkpt lat="48.85476" lon="2.38506">
        <ele>47.400001525879</ele>
        <time>2015-12-28T19:35:57Z</time>
      </trkpt>
      <trkpt lat="48.85472" lon="2.38512">
        <ele>47.20000076294</ele>
        <time>2015-12-28T19:35:59Z</time>
      </trkpt>
      <trkpt lat="48.85472" lon="2.38529">
        <ele>47.20000076294</ele>
        <time>2015-12-28T19:36:03Z</time>
      </trkpt>
      <trkpt lat="48.85471" lon="2.38532">
        <ele>47.20000076294</ele>
        <time>2015-12-28T19:36:04Z</time>
      </trkpt>
      <trkpt lat="48.85472" lon="2.38536">
        <ele>47.20000076294</ele>
        <time>2015-12-28T19:36:06Z</time>
      </trkpt>
      <trkpt lat="48.85476" lon="2.38544">
        <ele>47.400001525879</ele>
        <time>2015-12-28T19:36:10Z</time>
      </trkpt>
      <trkpt lat="48.85476" lon="2.38546">
        <ele>47.400001525879</ele>
        <time>2015-12-28T19:36:11Z</time>
      </trkpt>
      <trkpt lat="48.85483" lon="2.38566">
        <ele>47.79999923706</ele>
        <time>2015-12-28T19:36:15Z</time>
      </trkpt>
      <trkpt lat="48.85489" lon="2.3859">
        <ele>48.20000076294</ele>
        <time>2015-12-28T19:36:19Z</time>
      </trkpt>
      <trkpt lat="48.85494" lon="2.38616">
        <ele>48.400001525879</ele>
        <time>2015-12-28T19:36:23Z</time>
      </trkpt>
      <trkpt lat="48.855" lon="2.38642">
        <ele>48.400001525879</ele>
        <time>2015-12-28T19:36:27Z</time>
      </trkpt>
      <trkpt lat="48.85505" lon="2.38673">
        <ele>48.599998474121</ele>
        <time>2015-12-28T19:36:32Z</time>
      </trkpt>
      <trkpt lat="48.85512" lon="2.38705">
        <ele>49.20000076294</ele>
        <time>2015-12-28T19:36:37Z</time>
      </trkpt>
      <trkpt lat="48.85513" lon="2.38737">
        <ele>49.599998474121</ele>
        <time>2015-12-28T19:36:42Z</time>
      </trkpt>
      <trkpt lat="48.85514" lon="2.38763">
        <ele>50</ele>
        <time>2015-12-28T19:36:46Z</time>
      </trkpt>
      <trkpt lat="48.85518" lon="2.38787">
        <ele>51.20000076294</ele>
        <time>2015-12-28T19:36:50Z</time>
      </trkpt>
      <trkpt lat="48.8552" lon="2.38798">
        <ele>51.599998474121</ele>
        <time>2015-12-28T19:36:52Z</time>
      </trkpt>
      <trkpt lat="48.85526" lon="2.38828">
        <ele>52.79999923706</ele>
        <time>2015-12-28T19:36:57Z</time>
      </trkpt>
      <trkpt lat="48.8553" lon="2.3886">
        <ele>53.400001525879</ele>
        <time>2015-12-28T19:37:02Z</time>
      </trkpt>
      <trkpt lat="48.85533" lon="2.38871">
        <ele>53.400001525879</ele>
        <time>2015-12-28T19:37:04Z</time>
      </trkpt>
      <trkpt lat="48.8554" lon="2.38898">
        <ele>53.79999923706</ele>
        <time>2015-12-28T19:37:09Z</time>
      </trkpt>
      <trkpt lat="48.85541" lon="2.38904">
        <ele>53.79999923706</ele>
        <time>2015-12-28T19:37:10Z</time>
      </trkpt>
      <trkpt lat="48.85548" lon="2.38932">
        <ele>54</ele>
        <time>2015-12-28T19:37:15Z</time>
      </trkpt>
      <trkpt lat="48.85555" lon="2.38959">
        <ele>54.599998474121</ele>
        <time>2015-12-28T19:37:20Z</time>
      </trkpt>
      <trkpt lat="48.85559" lon="2.38988">
        <ele>55.79999923706</ele>
        <time>2015-12-28T19:37:25Z</time>
      </trkpt>
      <trkpt lat="48.85564" lon="2.39015">
        <ele>56.20000076294</ele>
        <time>2015-12-28T19:37:30Z</time>
      </trkpt>
      <trkpt lat="48.85569" lon="2.39043">
        <ele>56.400001525879</ele>
        <time>2015-12-28T19:37:35Z</time>
      </trkpt>
      <trkpt lat="48.85576" lon="2.39074">
        <ele>55.79999923706</ele>
        <time>2015-12-28T19:37:41Z</time>
      </trkpt>
      <trkpt lat="48.8558" lon="2.39102">
        <ele>56.400001525879</ele>
        <time>2015-12-28T19:37:49Z</time>
      </trkpt>
      <trkpt lat="48.85582" lon="2.3911">
        <ele>56.599998474121</ele>
        <time>2015-12-28T19:37:53Z</time>
      </trkpt>
      <trkpt lat="48.85573" lon="2.39134">
        <ele>57.599998474121</ele>
        <time>2015-12-28T19:38:34Z</time>
      </trkpt>
      <trkpt lat="48.85559" lon="2.39154">
        <ele>58.400001525879</ele>
        <time>2015-12-28T19:38:43Z</time>
      </trkpt>
      <trkpt lat="48.85541" lon="2.3917">
        <ele>58.79999923706</ele>
        <time>2015-12-28T19:38:50Z</time>
      </trkpt>
      <trkpt lat="48.85524" lon="2.39187">
        <ele>60</ele>
        <time>2015-12-28T19:38:56Z</time>
      </trkpt>
      <trkpt lat="48.85507" lon="2.39202">
        <ele>60.400001525879</ele>
        <time>2015-12-28T19:39:01Z</time>
      </trkpt>
      <trkpt lat="48.85489" lon="2.39213">
        <ele>60.400001525879</ele>
        <time>2015-12-28T19:39:05Z</time>
      </trkpt>
      <trkpt lat="48.85469" lon="2.39219">
        <ele>60.79999923706</ele>
        <time>2015-12-28T19:39:09Z</time>
      </trkpt>
      <trkpt lat="48.8545" lon="2.39229">
        <ele>61.599998474121</ele>
        <time>2015-12-28T19:39:13Z</time>
      </trkpt>
      <trkpt lat="48.85432" lon="2.39238">
        <ele>62.400001525879</ele>
        <time>2015-12-28T19:39:16Z</time>
      </trkpt>
      <trkpt lat="48.85407" lon="2.39239">
        <ele>61</ele>
        <time>2015-12-28T19:39:19Z</time>
      </trkpt>
      <trkpt lat="48.85389" lon="2.39251">
        <ele>59.79999923706</ele>
        <time>2015-12-28T19:39:22Z</time>
      </trkpt>
      <trkpt lat="48.85369" lon="2.39261">
        <ele>58.400001525879</ele>
        <time>2015-12-28T19:39:25Z</time>
      </trkpt>
      <trkpt lat="48.85357" lon="2.3927">
        <ele>57.20000076294</ele>
        <time>2015-12-28T19:39:27Z</time>
      </trkpt>
      <trkpt lat="48.85339" lon="2.39282">
        <ele>56.400001525879</ele>
        <time>2015-12-28T19:39:30Z</time>
      </trkpt>
      <trkpt lat="48.85321" lon="2.39295">
        <ele>55.400001525879</ele>
        <time>2015-12-28T19:39:33Z</time>
      </trkpt>
      <trkpt lat="48.85303" lon="2.39307">
        <ele>56</ele>
        <time>2015-12-28T19:39:36Z</time>
      </trkpt>
      <trkpt lat="48.85297" lon="2.39311">
        <ele>56.20000076294</ele>
        <time>2015-12-28T19:39:37Z</time>
      </trkpt>
      <trkpt lat="48.8528" lon="2.39324">
        <ele>56.79999923706</ele>
        <time>2015-12-28T19:39:40Z</time>
      </trkpt>
      <trkpt lat="48.85262" lon="2.39337">
        <ele>56.79999923706</ele>
        <time>2015-12-28T19:39:43Z</time>
      </trkpt>
      <trkpt lat="48.85245" lon="2.39352">
        <ele>56.79999923706</ele>
        <time>2015-12-28T19:39:46Z</time>
      </trkpt>
      <trkpt lat="48.8523" lon="2.3937">
        <ele>56.79999923706</ele>
        <time>2015-12-28T19:39:49Z</time>
      </trkpt>
      <trkpt lat="48.8522" lon="2.39381">
        <ele>57</ele>
        <time>2015-12-28T19:39:51Z</time>
      </trkpt>
      <trkpt lat="48.85205" lon="2.394">
        <ele>57</ele>
        <time>2015-12-28T19:39:54Z</time>
      </trkpt>
      <trkpt lat="48.852" lon="2.39407">
        <ele>57</ele>
        <time>2015-12-28T19:39:55Z</time>
      </trkpt>
      <trkpt lat="48.85187" lon="2.39419">
        <ele>57</ele>
        <time>2015-12-28T19:39:57Z</time>
      </trkpt>
      <trkpt lat="48.8517" lon="2.39434">
        <ele>56.599998474121</ele>
        <time>2015-12-28T19:40:00Z</time>
      </trkpt>
      <trkpt lat="48.8515" lon="2.39443">
        <ele>56</ele>
        <time>2015-12-28T19:40:03Z</time>
      </trkpt>
      <trkpt lat="48.85131" lon="2.39453">
        <ele>55.79999923706</ele>
        <time>2015-12-28T19:40:06Z</time>
      </trkpt>
      <trkpt lat="48.85115" lon="2.39453">
        <ele>55.79999923706</ele>
        <time>2015-12-28T19:40:08Z</time>
      </trkpt>
      <trkpt lat="48.85096" lon="2.3946">
        <ele>56.20000076294</ele>
        <time>2015-12-28T19:40:11Z</time>
      </trkpt>
      <trkpt lat="48.85076" lon="2.39474">
        <ele>56.79999923706</ele>
        <time>2015-12-28T19:40:15Z</time>
      </trkpt>
      <trkpt lat="48.85067" lon="2.3948">
        <ele>56.79999923706</ele>
        <time>2015-12-28T19:40:17Z</time>
      </trkpt>
      <trkpt lat="48.85049" lon="2.39492">
        <ele>57</ele>
        <time>2015-12-28T19:40:22Z</time>
      </trkpt>
      <trkpt lat="48.8503" lon="2.39503">
        <ele>57</ele>
        <time>2015-12-28T19:40:28Z</time>
      </trkpt>
      <trkpt lat="48.85011" lon="2.39517">
        <ele>56</ele>
        <time>2015-12-28T19:40:34Z</time>
      </trkpt>
      <trkpt lat="48.84992" lon="2.39528">
        <ele>54.79999923706</ele>
        <time>2015-12-28T19:40:39Z</time>
      </trkpt>
      <trkpt lat="48.84976" lon="2.39536">
        <ele>54</ele>
        <time>2015-12-28T19:40:43Z</time>
      </trkpt>
      <trkpt lat="48.8497" lon="2.39541">
        <ele>53.79999923706</ele>
        <time>2015-12-28T19:40:45Z</time>
      </trkpt>
      <trkpt lat="48.84964" lon="2.39546">
        <ele>53.79999923706</ele>
        <time>2015-12-28T19:40:47Z</time>
      </trkpt>
      <trkpt lat="48.84945" lon="2.39547">
        <ele>53.599998474121</ele>
        <time>2015-12-28T19:40:53Z</time>
      </trkpt>
      <trkpt lat="48.84943" lon="2.39546">
        <ele>53.599998474121</ele>
        <time>2015-12-28T19:40:57Z</time>
      </trkpt>
      <trkpt lat="48.8493" lon="2.39536">
        <ele>53.20000076294</ele>
        <time>2015-12-28T19:42:31Z</time>
      </trkpt>
      <trkpt lat="48.84918" lon="2.39554">
        <ele>53.20000076294</ele>
        <time>2015-12-28T19:43:14Z</time>
      </trkpt>
      <trkpt lat="48.849" lon="2.39561">
        <ele>52.599998474121</ele>
        <time>2015-12-28T19:43:26Z</time>
      </trkpt>
      <trkpt lat="48.84899" lon="2.39561">
        <ele>52.599998474121</ele>
        <time>2015-12-28T19:43:27Z</time>
      </trkpt>
      <trkpt lat="48.84886" lon="2.39543">
        <ele>52</ele>
        <time>2015-12-28T19:43:36Z</time>
      </trkpt>
      <trkpt lat="48.8487" lon="2.39527">
        <ele>51.400001525879</ele>
        <time>2015-12-28T19:43:43Z</time>
      </trkpt>
      <trkpt lat="48.84848" lon="2.39525">
        <ele>51.599998474121</ele>
        <time>2015-12-28T19:43:49Z</time>
      </trkpt>
      <trkpt lat="48.84828" lon="2.39528">
        <ele>53.400001525879</ele>
        <time>2015-12-28T19:43:54Z</time>
      </trkpt>
      <trkpt lat="48.8481" lon="2.3954">
        <ele>54.79999923706</ele>
        <time>2015-12-28T19:43:59Z</time>
      </trkpt>
      <trkpt lat="48.84796" lon="2.39563">
        <ele>55.599998474121</ele>
        <time>2015-12-28T19:44:04Z</time>
      </trkpt>
      <trkpt lat="48.84791" lon="2.39594">
        <ele>55.79999923706</ele>
        <time>2015-12-28T19:44:09Z</time>
      </trkpt>
      <trkpt lat="48.84795" lon="2.39626">
        <ele>55.400001525879</ele>
        <time>2015-12-28T19:44:14Z</time>
      </trkpt>
      <trkpt lat="48.84805" lon="2.39649">
        <ele>54.599998474121</ele>
        <time>2015-12-28T19:44:18Z</time>
      </trkpt>
      <trkpt lat="48.84821" lon="2.39663">
        <ele>53.599998474121</ele>
        <time>2015-12-28T19:44:22Z</time>
      </trkpt>
      <trkpt lat="48.84831" lon="2.39666">
        <ele>53.20000076294</ele>
        <time>2015-12-28T19:44:24Z</time>
      </trkpt>
      <trkpt lat="48.84852" lon="2.39661">
        <ele>52.20000076294</ele>
        <time>2015-12-28T19:44:28Z</time>
      </trkpt>
      <trkpt lat="48.84857" lon="2.39658">
        <ele>52</ele>
        <time>2015-12-28T19:44:29Z</time>
      </trkpt>
      <trkpt lat="48.84862" lon="2.39654">
        <ele>52.400001525879</ele>
        <time>2015-12-28T19:44:30Z</time>
      </trkpt>
      <trkpt lat="48.84875" lon="2.39631">
        <ele>53</ele>
        <time>2015-12-28T19:44:34Z</time>
      </trkpt>
      <trkpt lat="48.8488" lon="2.39617">
        <ele>53.20000076294</ele>
        <time>2015-12-28T19:44:36Z</time>
      </trkpt>
      <trkpt lat="48.84883" lon="2.39589">
        <ele>52.20000076294</ele>
        <time>2015-12-28T19:44:40Z</time>
      </trkpt>
      <trkpt lat="48.84881" lon="2.39575">
        <ele>52</ele>
        <time>2015-12-28T19:44:42Z</time>
      </trkpt>
      <trkpt lat="48.8488" lon="2.39569">
        <ele>51.79999923706</ele>
        <time>2015-12-28T19:44:43Z</time>
      </trkpt>
      <trkpt lat="48.84872" lon="2.39551">
        <ele>51.599998474121</ele>
        <time>2015-12-28T19:44:47Z</time>
      </trkpt>
      <trkpt lat="48.8487" lon="2.39547">
        <ele>51.599998474121</ele>
        <time>2015-12-28T19:44:48Z</time>
      </trkpt>
      <trkpt lat="48.84854" lon="2.39532">
        <ele>51.20000076294</ele>
        <time>2015-12-28T19:44:52Z</time>
      </trkpt>
      <trkpt lat="48.84837" lon="2.39528">
        <ele>52.599998474121</ele>
        <time>2015-12-28T19:44:56Z</time>
      </trkpt>
      <trkpt lat="48.84817" lon="2.39535">
        <ele>54.20000076294</ele>
        <time>2015-12-28T19:45:00Z</time>
      </trkpt>
      <trkpt lat="48.84804" lon="2.39554">
        <ele>55</ele>
        <time>2015-12-28T19:45:04Z</time>
      </trkpt>
      <trkpt lat="48.84801" lon="2.3956">
        <ele>55.20000076294</ele>
        <time>2015-12-28T19:45:05Z</time>
      </trkpt>
      <trkpt lat="48.848" lon="2.39566">
        <ele>55.20000076294</ele>
        <time>2015-12-28T19:45:06Z</time>
      </trkpt>
      <trkpt lat="48.84797" lon="2.39595">
        <ele>55.400001525879</ele>
        <time>2015-12-28T19:45:10Z</time>
      </trkpt>
      <trkpt lat="48.84797" lon="2.39603">
        <ele>55.599998474121</ele>
        <time>2015-12-28T19:45:11Z</time>
      </trkpt>
      <trkpt lat="48.84802" lon="2.39633">
        <ele>55</ele>
        <time>2015-12-28T19:45:15Z</time>
      </trkpt>
      <trkpt lat="48.8481" lon="2.39661">
        <ele>54.20000076294</ele>
        <time>2015-12-28T19:45:19Z</time>
      </trkpt>
      <trkpt lat="48.84812" lon="2.39668">
        <ele>54.20000076294</ele>
        <time>2015-12-28T19:45:20Z</time>
      </trkpt>
      <trkpt lat="48.84816" lon="2.39701">
        <ele>55.599998474121</ele>
        <time>2015-12-28T19:45:24Z</time>
      </trkpt>
      <trkpt lat="48.84816" lon="2.39733">
        <ele>56.599998474121</ele>
        <time>2015-12-28T19:45:28Z</time>
      </trkpt>
      <trkpt lat="48.84815" lon="2.39763">
        <ele>57.400001525879</ele>
        <time>2015-12-28T19:45:32Z</time>
      </trkpt>
      <trkpt lat="48.84813" lon="2.39794">
        <ele>58.20000076294</ele>
        <time>2015-12-28T19:45:36Z</time>
      </trkpt>
      <trkpt lat="48.84812" lon="2.39825">
        <ele>59</ele>
        <time>2015-12-28T19:45:40Z</time>
      </trkpt>
      <trkpt lat="48.8481" lon="2.39853">
        <ele>58</ele>
        <time>2015-12-28T19:45:44Z</time>
      </trkpt>
      <trkpt lat="48.84809" lon="2.39885">
        <ele>56</ele>
        <time>2015-12-28T19:45:49Z</time>
      </trkpt>
      <trkpt lat="48.84809" lon="2.39897">
        <ele>55</ele>
        <time>2015-12-28T19:45:51Z</time>
      </trkpt>
      <trkpt lat="48.84807" lon="2.39927">
        <ele>53.599998474121</ele>
        <time>2015-12-28T19:45:56Z</time>
      </trkpt>
      <trkpt lat="48.84804" lon="2.39955">
        <ele>54</ele>
        <time>2015-12-28T19:46:00Z</time>
      </trkpt>
      <trkpt lat="48.84802" lon="2.39986">
        <ele>54.599998474121</ele>
        <time>2015-12-28T19:46:04Z</time>
      </trkpt>
      <trkpt lat="48.84799" lon="2.40018">
        <ele>55.400001525879</ele>
        <time>2015-12-28T19:46:08Z</time>
      </trkpt>
      <trkpt lat="48.84797" lon="2.40052">
        <ele>57</ele>
        <time>2015-12-28T19:46:12Z</time>
      </trkpt>
      <trkpt lat="48.84794" lon="2.40086">
        <ele>58.400001525879</ele>
        <time>2015-12-28T19:46:16Z</time>
      </trkpt>
      <trkpt lat="48.84793" lon="2.4012">
        <ele>58.20000076294</ele>
        <time>2015-12-28T19:46:20Z</time>
      </trkpt>
      <trkpt lat="48.8479" lon="2.40154">
        <ele>58</ele>
        <time>2015-12-28T19:46:24Z</time>
      </trkpt>
      <trkpt lat="48.84788" lon="2.40189">
        <ele>57.400001525879</ele>
        <time>2015-12-28T19:46:28Z</time>
      </trkpt>
      <trkpt lat="48.84785" lon="2.40225">
        <ele>57.599998474121</ele>
        <time>2015-12-28T19:46:32Z</time>
      </trkpt>
      <trkpt lat="48.84782" lon="2.4026">
        <ele>58</ele>
        <time>2015-12-28T19:46:36Z</time>
      </trkpt>
      <trkpt lat="48.84779" lon="2.40295">
        <ele>59.400001525879</ele>
        <time>2015-12-28T19:46:40Z</time>
      </trkpt>
      <trkpt lat="48.84776" lon="2.40329">
        <ele>60.79999923706</ele>
        <time>2015-12-28T19:46:44Z</time>
      </trkpt>
      <trkpt lat="48.84775" lon="2.40356">
        <ele>60</ele>
        <time>2015-12-28T19:46:47Z</time>
      </trkpt>
      <trkpt lat="48.84772" lon="2.40385">
        <ele>59</ele>
        <time>2015-12-28T19:46:50Z</time>
      </trkpt>
      <trkpt lat="48.84769" lon="2.40414">
        <ele>58</ele>
        <time>2015-12-28T19:46:53Z</time>
      </trkpt>
      <trkpt lat="48.84766" lon="2.40443">
        <ele>56.400001525879</ele>
        <time>2015-12-28T19:46:56Z</time>
      </trkpt>
      <trkpt lat="48.84762" lon="2.40473">
        <ele>54.599998474121</ele>
        <time>2015-12-28T19:46:59Z</time>
      </trkpt>
      <trkpt lat="48.84758" lon="2.40502">
        <ele>53.79999923706</ele>
        <time>2015-12-28T19:47:02Z</time>
      </trkpt>
      <trkpt lat="48.84754" lon="2.40535">
        <ele>54.400001525879</ele>
        <time>2015-12-28T19:47:06Z</time>
      </trkpt>
      <trkpt lat="48.84751" lon="2.40563">
        <ele>54.79999923706</ele>
        <time>2015-12-28T19:47:10Z</time>
      </trkpt>
      <trkpt lat="48.84744" lon="2.40587">
        <ele>54.599998474121</ele>
        <time>2015-12-28T19:47:14Z</time>
      </trkpt>
      <trkpt lat="48.84742" lon="2.40599">
        <ele>54.400001525879</ele>
        <time>2015-12-28T19:47:16Z</time>
      </trkpt>
      <trkpt lat="48.84738" lon="2.40633">
        <ele>53.599998474121</ele>
        <time>2015-12-28T19:47:21Z</time>
      </trkpt>
      <trkpt lat="48.84733" lon="2.40665">
        <ele>53.400001525879</ele>
        <time>2015-12-28T19:47:26Z</time>
      </trkpt>
      <trkpt lat="48.84733" lon="2.40671">
        <ele>53.599998474121</ele>
        <time>2015-12-28T19:47:27Z</time>
      </trkpt>
      <trkpt lat="48.84731" lon="2.40692">
        <ele>53.79999923706</ele>
        <time>2015-12-28T19:47:30Z</time>
      </trkpt>
      <trkpt lat="48.8473" lon="2.40707">
        <ele>54</ele>
        <time>2015-12-28T19:47:32Z</time>
      </trkpt>
      <trkpt lat="48.84727" lon="2.40739">
        <ele>53.20000076294</ele>
        <time>2015-12-28T19:47:36Z</time>
      </trkpt>
      <trkpt lat="48.84725" lon="2.40772">
        <ele>53</ele>
        <time>2015-12-28T19:47:40Z</time>
      </trkpt>
      <trkpt lat="48.84721" lon="2.40806">
        <ele>52.599998474121</ele>
        <time>2015-12-28T19:47:44Z</time>
      </trkpt>
      <trkpt lat="48.84719" lon="2.40841">
        <ele>52.599998474121</ele>
        <time>2015-12-28T19:47:48Z</time>
      </trkpt>
      <trkpt lat="48.84716" lon="2.40875">
        <ele>54.20000076294</ele>
        <time>2015-12-28T19:47:52Z</time>
      </trkpt>
      <trkpt lat="48.84713" lon="2.40909">
        <ele>56.400001525879</ele>
        <time>2015-12-28T19:47:56Z</time>
      </trkpt>
      <trkpt lat="48.84709" lon="2.40942">
        <ele>55.79999923706</ele>
        <time>2015-12-28T19:48:00Z</time>
      </trkpt>
      <trkpt lat="48.84708" lon="2.40975">
        <ele>55.20000076294</ele>
        <time>2015-12-28T19:48:04Z</time>
      </trkpt>
      <trkpt lat="48.84705" lon="2.41009">
        <ele>54.79999923706</ele>
        <time>2015-12-28T19:48:08Z</time>
      </trkpt>
      <trkpt lat="48.84703" lon="2.41041">
        <ele>54.599998474121</ele>
        <time>2015-12-28T19:48:12Z</time>
      </trkpt>
      <trkpt lat="48.84704" lon="2.41069">
        <ele>54.400001525879</ele>
        <time>2015-12-28T19:48:16Z</time>
      </trkpt>
      <trkpt lat="48.84704" lon="2.41075">
        <ele>54.20000076294</ele>
        <time>2015-12-28T19:48:17Z</time>
      </trkpt>
      <trkpt lat="48.84704" lon="2.41088">
        <ele>54.400001525879</ele>
        <time>2015-12-28T19:48:20Z</time>
      </trkpt>
      <trkpt lat="48.84698" lon="2.41112">
        <ele>54.400001525879</ele>
        <time>2015-12-28T19:48:26Z</time>
      </trkpt>
      <trkpt lat="48.84697" lon="2.41116">
        <ele>54.20000076294</ele>
        <time>2015-12-28T19:48:27Z</time>
      </trkpt>
      <trkpt lat="48.84695" lon="2.41126">
        <ele>54.20000076294</ele>
        <time>2015-12-28T19:48:29Z</time>
      </trkpt>
      <trkpt lat="48.84706" lon="2.41141">
        <ele>54.599998474121</ele>
        <time>2015-12-28T19:48:35Z</time>
      </trkpt>
      <trkpt lat="48.84709" lon="2.4114">
        <ele>54.79999923706</ele>
        <time>2015-12-28T19:48:36Z</time>
      </trkpt>
      <trkpt lat="48.84729" lon="2.41137">
        <ele>55.400001525879</ele>
        <time>2015-12-28T19:48:41Z</time>
      </trkpt>
      <trkpt lat="48.8475" lon="2.41135">
        <ele>56</ele>
        <time>2015-12-28T19:48:46Z</time>
      </trkpt>
      <trkpt lat="48.84768" lon="2.41136">
        <ele>56.20000076294</ele>
        <time>2015-12-28T19:48:50Z</time>
      </trkpt>
      <trkpt lat="48.84783" lon="2.41135">
        <ele>56.400001525879</ele>
        <time>2015-12-28T19:48:53Z</time>
      </trkpt>
      <trkpt lat="48.84803" lon="2.41134">
        <ele>56.599998474121</ele>
        <time>2015-12-28T19:48:57Z</time>
      </trkpt>
      <trkpt lat="48.84825" lon="2.41136">
        <ele>57</ele>
        <time>2015-12-28T19:49:01Z</time>
      </trkpt>
      <trkpt lat="48.84845" lon="2.41134">
        <ele>57.599998474121</ele>
        <time>2015-12-28T19:49:05Z</time>
      </trkpt>
      <trkpt lat="48.84866" lon="2.4113">
        <ele>57.79999923706</ele>
        <time>2015-12-28T19:49:10Z</time>
      </trkpt>
      <trkpt lat="48.8487" lon="2.4113">
        <ele>57.599998474121</ele>
        <time>2015-12-28T19:49:11Z</time>
      </trkpt>
      <trkpt lat="48.84885" lon="2.41125">
        <ele>57.400001525879</ele>
        <time>2015-12-28T19:49:15Z</time>
      </trkpt>
      <trkpt lat="48.84891" lon="2.41123">
        <ele>57.20000076294</ele>
        <time>2015-12-28T19:49:17Z</time>
      </trkpt>
      <trkpt lat="48.84897" lon="2.41121">
        <ele>57.20000076294</ele>
        <time>2015-12-28T19:49:19Z</time>
      </trkpt>
      <trkpt lat="48.84907" lon="2.41103">
        <ele>58.20000076294</ele>
        <time>2015-12-28T19:49:28Z</time>
      </trkpt>
      <trkpt lat="48.84906" lon="2.41098">
        <ele>58.400001525879</ele>
        <time>2015-12-28T19:49:30Z</time>
      </trkpt>
      <trkpt lat="48.84908" lon="2.41071">
        <ele>59.20000076294</ele>
        <time>2015-12-28T19:49:49Z</time>
      </trkpt>
      <trkpt lat="48.84907" lon="2.41048">
        <ele>58.79999923706</ele>
        <time>2015-12-28T19:50:15Z</time>
      </trkpt>
      <trkpt lat="48.84905" lon="2.41018">
        <ele>59.20000076294</ele>
        <time>2015-12-28T19:50:21Z</time>
      </trkpt>
      <trkpt lat="48.849" lon="2.40991">
        <ele>58.79999923706</ele>
        <time>2015-12-28T19:50:26Z</time>
      </trkpt>
      <trkpt lat="48.84898" lon="2.4096">
        <ele>57.20000076294</ele>
        <time>2015-12-28T19:50:31Z</time>
      </trkpt>
      <trkpt lat="48.84898" lon="2.40945">
        <ele>56.400001525879</ele>
        <time>2015-12-28T19:50:36Z</time>
      </trkpt>
      <trkpt lat="48.849" lon="2.40937">
        <ele>56</ele>
        <time>2015-12-28T19:50:40Z</time>
      </trkpt>
      <trkpt lat="48.84891" lon="2.40931">
        <ele>55.20000076294</ele>
        <time>2015-12-28T19:52:04Z</time>
      </trkpt>
      <trkpt lat="48.84888" lon="2.4093">
        <ele>55</ele>
        <time>2015-12-28T19:52:06Z</time>
      </trkpt>
      <trkpt lat="48.84869" lon="2.40927">
        <ele>54.20000076294</ele>
        <time>2015-12-28T19:52:17Z</time>
      </trkpt>
      <trkpt lat="48.84851" lon="2.40925">
        <ele>53.599998474121</ele>
        <time>2015-12-28T19:52:24Z</time>
      </trkpt>
      <trkpt lat="48.84831" lon="2.40927">
        <ele>54.400001525879</ele>
        <time>2015-12-28T19:52:32Z</time>
      </trkpt>
      <trkpt lat="48.84811" lon="2.40927">
        <ele>55.20000076294</ele>
        <time>2015-12-28T19:52:38Z</time>
      </trkpt>
      <trkpt lat="48.84793" lon="2.40924">
        <ele>55.79999923706</ele>
        <time>2015-12-28T19:52:43Z</time>
      </trkpt>
      <trkpt lat="48.84774" lon="2.40924">
        <ele>55.79999923706</ele>
        <time>2015-12-28T19:52:49Z</time>
      </trkpt>
      <trkpt lat="48.84761" lon="2.40925">
        <ele>55.79999923706</ele>
        <time>2015-12-28T19:52:55Z</time>
      </trkpt>
      <trkpt lat="48.84745" lon="2.40914">
        <ele>56.20000076294</ele>
        <time>2015-12-28T19:53:03Z</time>
      </trkpt>
      <trkpt lat="48.84736" lon="2.40899">
        <ele>55.400001525879</ele>
        <time>2015-12-28T19:53:21Z</time>
      </trkpt>
      <trkpt lat="48.84723" lon="2.40896">
        <ele>55.400001525879</ele>
        <time>2015-12-28T19:53:39Z</time>
      </trkpt>
      <trkpt lat="48.84717" lon="2.40921">
        <ele>56.400001525879</ele>
        <time>2015-12-28T19:53:45Z</time>
      </trkpt>
      <trkpt lat="48.84717" lon="2.40927">
        <ele>56.20000076294</ele>
        <time>2015-12-28T19:53:46Z</time>
      </trkpt>
      <trkpt lat="48.84714" lon="2.40958">
        <ele>55.400001525879</ele>
        <time>2015-12-28T19:53:51Z</time>
      </trkpt>
      <trkpt lat="48.84712" lon="2.40992">
        <ele>54.599998474121</ele>
        <time>2015-12-28T19:53:56Z</time>
      </trkpt>
      <trkpt lat="48.8471" lon="2.41024">
        <ele>55</ele>
        <time>2015-12-28T19:54:01Z</time>
      </trkpt>
      <trkpt lat="48.84708" lon="2.41055">
        <ele>54.599998474121</ele>
        <time>2015-12-28T19:54:06Z</time>
      </trkpt>
      <trkpt lat="48.84706" lon="2.41086">
        <ele>54.400001525879</ele>
        <time>2015-12-28T19:54:12Z</time>
      </trkpt>
      <trkpt lat="48.84699" lon="2.41114">
        <ele>54.400001525879</ele>
        <time>2015-12-28T19:54:21Z</time>
      </trkpt>
      <trkpt lat="48.84697" lon="2.41142">
        <ele>54.20000076294</ele>
        <time>2015-12-28T19:54:28Z</time>
      </trkpt>
      <trkpt lat="48.84695" lon="2.41171">
        <ele>54</ele>
        <time>2015-12-28T19:54:34Z</time>
      </trkpt>
      <trkpt lat="48.84693" lon="2.41202">
        <ele>54</ele>
        <time>2015-12-28T19:54:39Z</time>
      </trkpt>
      <trkpt lat="48.84692" lon="2.41229">
        <ele>54</ele>
        <time>2015-12-28T19:54:43Z</time>
      </trkpt>
      <trkpt lat="48.84691" lon="2.41258">
        <ele>53.79999923706</ele>
        <time>2015-12-28T19:54:47Z</time>
      </trkpt>
      <trkpt lat="48.84687" lon="2.41286">
        <ele>53.20000076294</ele>
        <time>2015-12-28T19:54:51Z</time>
      </trkpt>
      <trkpt lat="48.84684" lon="2.41314">
        <ele>52.599998474121</ele>
        <time>2015-12-28T19:54:55Z</time>
      </trkpt>
      <trkpt lat="48.8468" lon="2.41346">
        <ele>51</ele>
        <time>2015-12-28T19:55:00Z</time>
      </trkpt>
      <trkpt lat="48.84679" lon="2.41352">
        <ele>50.599998474121</ele>
        <time>2015-12-28T19:55:01Z</time>
      </trkpt>
      <trkpt lat="48.84676" lon="2.41363">
        <ele>50</ele>
        <time>2015-12-28T19:55:03Z</time>
      </trkpt>
      <trkpt lat="48.84665" lon="2.41391">
        <ele>48.20000076294</ele>
        <time>2015-12-28T19:55:08Z</time>
      </trkpt>
      <trkpt lat="48.84663" lon="2.41396">
        <ele>48.20000076294</ele>
        <time>2015-12-28T19:55:09Z</time>
      </trkpt>
      <trkpt lat="48.84652" lon="2.41419">
        <ele>48.400001525879</ele>
        <time>2015-12-28T19:55:13Z</time>
      </trkpt>
      <trkpt lat="48.8465" lon="2.41425">
        <ele>48.79999923706</ele>
        <time>2015-12-28T19:55:14Z</time>
      </trkpt>
      <trkpt lat="48.84646" lon="2.41437">
        <ele>49.400001525879</ele>
        <time>2015-12-28T19:55:16Z</time>
      </trkpt>
      <trkpt lat="48.84644" lon="2.41449">
        <ele>49.79999923706</ele>
        <time>2015-12-28T19:55:18Z</time>
      </trkpt>
      <trkpt lat="48.84643" lon="2.4148">
        <ele>51.599998474121</ele>
        <time>2015-12-28T19:55:24Z</time>
      </trkpt>
      <trkpt lat="48.84648" lon="2.41504">
        <ele>52.599998474121</ele>
        <time>2015-12-28T19:55:48Z</time>
      </trkpt>
      <trkpt lat="48.84657" lon="2.4153">
        <ele>53</ele>
        <time>2015-12-28T19:55:54Z</time>
      </trkpt>
      <trkpt lat="48.84659" lon="2.41549">
        <ele>53.599998474121</ele>
        <time>2015-12-28T19:55:57Z</time>
      </trkpt>
      <trkpt lat="48.84658" lon="2.41577">
        <ele>56.400001525879</ele>
        <time>2015-12-28T19:56:01Z</time>
      </trkpt>
      <trkpt lat="48.84656" lon="2.41607">
        <ele>56</ele>
        <time>2015-12-28T19:56:05Z</time>
      </trkpt>
      <trkpt lat="48.84655" lon="2.41639">
        <ele>55.400001525879</ele>
        <time>2015-12-28T19:56:09Z</time>
      </trkpt>
      <trkpt lat="48.84652" lon="2.41668">
        <ele>55.79999923706</ele>
        <time>2015-12-28T19:56:13Z</time>
      </trkpt>
      <trkpt lat="48.8465" lon="2.41699">
        <ele>57.599998474121</ele>
        <time>2015-12-28T19:56:18Z</time>
      </trkpt>
      <trkpt lat="48.8465" lon="2.41711">
        <ele>58.20000076294</ele>
        <time>2015-12-28T19:56:20Z</time>
      </trkpt>
      <trkpt lat="48.84647" lon="2.41727">
        <ele>57.400001525879</ele>
        <time>2015-12-28T19:56:24Z</time>
      </trkpt>
      <trkpt lat="48.84647" lon="2.4173">
        <ele>57.20000076294</ele>
        <time>2015-12-28T19:56:25Z</time>
      </trkpt>
      <trkpt lat="48.84638" lon="2.41752">
        <ele>56.599998474121</ele>
        <time>2015-12-28T19:56:34Z</time>
      </trkpt>
      <trkpt lat="48.84631" lon="2.41751">
        <ele>57</ele>
        <time>2015-12-28T19:56:39Z</time>
      </trkpt>
      <trkpt lat="48.84626" lon="2.4175">
        <ele>57</ele>
        <time>2015-12-28T19:58:20Z</time>
      </trkpt>
      <trkpt lat="48.84607" lon="2.41755">
        <ele>58</ele>
        <time>2015-12-28T19:58:36Z</time>
      </trkpt>
      <trkpt lat="48.84586" lon="2.41757">
        <ele>58</ele>
        <time>2015-12-28T19:58:42Z</time>
      </trkpt>
      <trkpt lat="48.84568" lon="2.41758">
        <ele>58.20000076294</ele>
        <time>2015-12-28T19:58:47Z</time>
      </trkpt>
      <trkpt lat="48.84547" lon="2.4176">
        <ele>58.20000076294</ele>
        <time>2015-12-28T19:58:52Z</time>
      </trkpt>
      <trkpt lat="48.84525" lon="2.41763">
        <ele>58.400001525879</ele>
        <time>2015-12-28T19:58:57Z</time>
      </trkpt>
      <trkpt lat="48.84505" lon="2.41764">
        <ele>57.599998474121</ele>
        <time>2015-12-28T19:59:01Z</time>
      </trkpt>
      <trkpt lat="48.84483" lon="2.41768">
        <ele>56.599998474121</ele>
        <time>2015-12-28T19:59:06Z</time>
      </trkpt>
      <trkpt lat="48.84463" lon="2.41769">
        <ele>55.599998474121</ele>
        <time>2015-12-28T19:59:10Z</time>
      </trkpt>
      <trkpt lat="48.84443" lon="2.41771">
        <ele>54.79999923706</ele>
        <time>2015-12-28T19:59:14Z</time>
      </trkpt>
      <trkpt lat="48.84432" lon="2.41772">
        <ele>54.20000076294</ele>
        <time>2015-12-28T19:59:16Z</time>
      </trkpt>
      <trkpt lat="48.84412" lon="2.41772">
        <ele>53.599998474121</ele>
        <time>2015-12-28T19:59:20Z</time>
      </trkpt>
      <trkpt lat="48.84393" lon="2.41779">
        <ele>53</ele>
        <time>2015-12-28T19:59:24Z</time>
      </trkpt>
      <trkpt lat="48.84379" lon="2.41785">
        <ele>52.79999923706</ele>
        <time>2015-12-28T19:59:27Z</time>
      </trkpt>
      <trkpt lat="48.84358" lon="2.41788">
        <ele>52</ele>
        <time>2015-12-28T19:59:32Z</time>
      </trkpt>
      <trkpt lat="48.84345" lon="2.4179">
        <ele>52.20000076294</ele>
        <time>2015-12-28T19:59:35Z</time>
      </trkpt>
      <trkpt lat="48.84325" lon="2.41789">
        <ele>52.400001525879</ele>
        <time>2015-12-28T19:59:39Z</time>
      </trkpt>
      <trkpt lat="48.84308" lon="2.41783">
        <ele>52.400001525879</ele>
        <time>2015-12-28T19:59:43Z</time>
      </trkpt>
      <trkpt lat="48.84287" lon="2.4178">
        <ele>52.400001525879</ele>
        <time>2015-12-28T19:59:47Z</time>
      </trkpt>
      <trkpt lat="48.84264" lon="2.41779">
        <ele>52.20000076294</ele>
        <time>2015-12-28T19:59:51Z</time>
      </trkpt>
      <trkpt lat="48.84246" lon="2.41779">
        <ele>51.79999923706</ele>
        <time>2015-12-28T19:59:54Z</time>
      </trkpt>
      <trkpt lat="48.84227" lon="2.41779">
        <ele>51.20000076294</ele>
        <time>2015-12-28T19:59:57Z</time>
      </trkpt>
      <trkpt lat="48.84208" lon="2.41779">
        <ele>50.599998474121</ele>
        <time>2015-12-28T20:00:00Z</time>
      </trkpt>
      <trkpt lat="48.84185" lon="2.41782">
        <ele>50.20000076294</ele>
        <time>2015-12-28T20:00:04Z</time>
      </trkpt>
      <trkpt lat="48.84164" lon="2.41783">
        <ele>51.20000076294</ele>
        <time>2015-12-28T20:00:08Z</time>
      </trkpt>
      <trkpt lat="48.84141" lon="2.41781">
        <ele>52.400001525879</ele>
        <time>2015-12-28T20:00:12Z</time>
      </trkpt>
      <trkpt lat="48.8412" lon="2.41776">
        <ele>53.20000076294</ele>
        <time>2015-12-28T20:00:16Z</time>
      </trkpt>
      <trkpt lat="48.84101" lon="2.41774">
        <ele>53.599998474121</ele>
        <time>2015-12-28T20:00:19Z</time>
      </trkpt>
      <trkpt lat="48.84085" lon="2.41777">
        <ele>53.599998474121</ele>
        <time>2015-12-28T20:00:22Z</time>
      </trkpt>
      <trkpt lat="48.84062" lon="2.41778">
        <ele>53.599998474121</ele>
        <time>2015-12-28T20:00:26Z</time>
      </trkpt>
      <trkpt lat="48.8404" lon="2.41783">
        <ele>54</ele>
        <time>2015-12-28T20:00:30Z</time>
      </trkpt>
      <trkpt lat="48.84021" lon="2.41779">
        <ele>54.400001525879</ele>
        <time>2015-12-28T20:00:33Z</time>
      </trkpt>
      <trkpt lat="48.84002" lon="2.41776">
        <ele>54.599998474121</ele>
        <time>2015-12-28T20:00:36Z</time>
      </trkpt>
      <trkpt lat="48.83996" lon="2.41775">
        <ele>54.599998474121</ele>
        <time>2015-12-28T20:00:37Z</time>
      </trkpt>
      <trkpt lat="48.83978" lon="2.4177">
        <ele>54.79999923706</ele>
        <time>2015-12-28T20:00:40Z</time>
      </trkpt>
      <trkpt lat="48.83957" lon="2.41768">
        <ele>55</ele>
        <time>2015-12-28T20:00:44Z</time>
      </trkpt>
      <trkpt lat="48.83942" lon="2.41763">
        <ele>55</ele>
        <time>2015-12-28T20:00:47Z</time>
      </trkpt>
      <trkpt lat="48.83928" lon="2.4176">
        <ele>55.20000076294</ele>
        <time>2015-12-28T20:00:50Z</time>
      </trkpt>
      <trkpt lat="48.83918" lon="2.41759">
        <ele>55.599998474121</ele>
        <time>2015-12-28T20:00:52Z</time>
      </trkpt>
      <trkpt lat="48.83902" lon="2.41757">
        <ele>55.79999923706</ele>
        <time>2015-12-28T20:00:56Z</time>
      </trkpt>
      <trkpt lat="48.83893" lon="2.41756">
        <ele>56</ele>
        <time>2015-12-28T20:00:59Z</time>
      </trkpt>
      <trkpt lat="48.83878" lon="2.41761">
        <ele>56.400001525879</ele>
        <time>2015-12-28T20:01:03Z</time>
      </trkpt>
      <trkpt lat="48.83859" lon="2.4177">
        <ele>57</ele>
        <time>2015-12-28T20:01:08Z</time>
      </trkpt>
      <trkpt lat="48.83837" lon="2.41777">
        <ele>56.79999923706</ele>
        <time>2015-12-28T20:01:13Z</time>
      </trkpt>
      <trkpt lat="48.83815" lon="2.41785">
        <ele>56.599998474121</ele>
        <time>2015-12-28T20:01:18Z</time>
      </trkpt>
      <trkpt lat="48.83795" lon="2.41793">
        <ele>56.599998474121</ele>
        <time>2015-12-28T20:01:22Z</time>
      </trkpt>
      <trkpt lat="48.83792" lon="2.41795">
        <ele>56.599998474121</ele>
        <time>2015-12-28T20:01:23Z</time>
      </trkpt>
      <trkpt lat="48.83773" lon="2.41808">
        <ele>56.79999923706</ele>
        <time>2015-12-28T20:01:28Z</time>
      </trkpt>
      <trkpt lat="48.83753" lon="2.41816">
        <ele>56.79999923706</ele>
        <time>2015-12-28T20:01:33Z</time>
      </trkpt>
      <trkpt lat="48.83736" lon="2.41827">
        <ele>57.400001525879</ele>
        <time>2015-12-28T20:01:37Z</time>
      </trkpt>
      <trkpt lat="48.83717" lon="2.41836">
        <ele>57.599998474121</ele>
        <time>2015-12-28T20:01:41Z</time>
      </trkpt>
      <trkpt lat="48.83712" lon="2.41839">
        <ele>57.79999923706</ele>
        <time>2015-12-28T20:01:42Z</time>
      </trkpt>
      <trkpt lat="48.83693" lon="2.41852">
        <ele>58</ele>
        <time>2015-12-28T20:01:46Z</time>
      </trkpt>
      <trkpt lat="48.83679" lon="2.41863">
        <ele>57.79999923706</ele>
        <time>2015-12-28T20:01:49Z</time>
      </trkpt>
      <trkpt lat="48.83662" lon="2.41876">
        <ele>57.599998474121</ele>
        <time>2015-12-28T20:01:53Z</time>
      </trkpt>
      <trkpt lat="48.83647" lon="2.41885">
        <ele>57.599998474121</ele>
        <time>2015-12-28T20:01:56Z</time>
      </trkpt>
      <trkpt lat="48.83628" lon="2.41896">
        <ele>57.20000076294</ele>
        <time>2015-12-28T20:02:00Z</time>
      </trkpt>
      <trkpt lat="48.83606" lon="2.4191">
        <ele>57</ele>
        <time>2015-12-28T20:02:04Z</time>
      </trkpt>
      <trkpt lat="48.83585" lon="2.41923">
        <ele>56.20000076294</ele>
        <time>2015-12-28T20:02:08Z</time>
      </trkpt>
      <trkpt lat="48.83565" lon="2.41937">
        <ele>55.599998474121</ele>
        <time>2015-12-28T20:02:12Z</time>
      </trkpt>
      <trkpt lat="48.83546" lon="2.41949">
        <ele>55</ele>
        <time>2015-12-28T20:02:16Z</time>
      </trkpt>
      <trkpt lat="48.83527" lon="2.4196">
        <ele>54.599998474121</ele>
        <time>2015-12-28T20:02:20Z</time>
      </trkpt>
      <trkpt lat="48.83507" lon="2.41971">
        <ele>54.599998474121</ele>
        <time>2015-12-28T20:02:25Z</time>
      </trkpt>
      <trkpt lat="48.83493" lon="2.41976">
        <ele>54.79999923706</ele>
        <time>2015-12-28T20:02:29Z</time>
      </trkpt>
      <trkpt lat="48.83481" lon="2.41992">
        <ele>55</ele>
        <time>2015-12-28T20:02:52Z</time>
      </trkpt>
      <trkpt lat="48.83465" lon="2.42004">
        <ele>55</ele>
        <time>2015-12-28T20:02:59Z</time>
      </trkpt>
      <trkpt lat="48.83448" lon="2.42015">
        <ele>54.599998474121</ele>
        <time>2015-12-28T20:03:05Z</time>
      </trkpt>
      <trkpt lat="48.83428" lon="2.42027">
        <ele>53.79999923706</ele>
        <time>2015-12-28T20:03:11Z</time>
      </trkpt>
      <trkpt lat="48.83408" lon="2.42036">
        <ele>53.20000076294</ele>
        <time>2015-12-28T20:03:16Z</time>
      </trkpt>
      <trkpt lat="48.83389" lon="2.4204">
        <ele>53.20000076294</ele>
        <time>2015-12-28T20:03:20Z</time>
      </trkpt>
      <trkpt lat="48.83368" lon="2.42042">
        <ele>53.400001525879</ele>
        <time>2015-12-28T20:03:24Z</time>
      </trkpt>
      <trkpt lat="48.8335" lon="2.42042">
        <ele>53.400001525879</ele>
        <time>2015-12-28T20:03:27Z</time>
      </trkpt>
      <trkpt lat="48.83331" lon="2.42041">
        <ele>53</ele>
        <time>2015-12-28T20:03:30Z</time>
      </trkpt>
      <trkpt lat="48.83312" lon="2.4204">
        <ele>52.400001525879</ele>
        <time>2015-12-28T20:03:33Z</time>
      </trkpt>
      <trkpt lat="48.8329" lon="2.42041">
        <ele>52.20000076294</ele>
        <time>2015-12-28T20:03:36Z</time>
      </trkpt>
      <trkpt lat="48.8327" lon="2.42042">
        <ele>52</ele>
        <time>2015-12-28T20:03:39Z</time>
      </trkpt>
      <trkpt lat="48.83247" lon="2.42046">
        <ele>52.400001525879</ele>
        <time>2015-12-28T20:03:43Z</time>
      </trkpt>
      <trkpt lat="48.83229" lon="2.42051">
        <ele>53</ele>
        <time>2015-12-28T20:03:46Z</time>
      </trkpt>
      <trkpt lat="48.83209" lon="2.42056">
        <ele>54</ele>
        <time>2015-12-28T20:03:49Z</time>
      </trkpt>
      <trkpt lat="48.83195" lon="2.42059">
        <ele>54.79999923706</ele>
        <time>2015-12-28T20:03:51Z</time>
      </trkpt>
      <trkpt lat="48.83173" lon="2.42062">
        <ele>55.20000076294</ele>
        <time>2015-12-28T20:03:54Z</time>
      </trkpt>
      <trkpt lat="48.8315" lon="2.42063">
        <ele>55</ele>
        <time>2015-12-28T20:03:57Z</time>
      </trkpt>
      <trkpt lat="48.83126" lon="2.42065">
        <ele>54.79999923706</ele>
        <time>2015-12-28T20:04:00Z</time>
      </trkpt>
      <trkpt lat="48.83104" lon="2.42065">
        <ele>54.599998474121</ele>
        <time>2015-12-28T20:04:03Z</time>
      </trkpt>
      <trkpt lat="48.83081" lon="2.42064">
        <ele>54.400001525879</ele>
        <time>2015-12-28T20:04:06Z</time>
      </trkpt>
      <trkpt lat="48.83058" lon="2.42061">
        <ele>54.20000076294</ele>
        <time>2015-12-28T20:04:09Z</time>
      </trkpt>
      <trkpt lat="48.83034" lon="2.42057">
        <ele>53.79999923706</ele>
        <time>2015-12-28T20:04:12Z</time>
      </trkpt>
      <trkpt lat="48.83011" lon="2.42051">
        <ele>53.599998474121</ele>
        <time>2015-12-28T20:04:15Z</time>
      </trkpt>
      <trkpt lat="48.82987" lon="2.42041">
        <ele>53.599998474121</ele>
        <time>2015-12-28T20:04:18Z</time>
      </trkpt>
      <trkpt lat="48.82963" lon="2.4203">
        <ele>53.400001525879</ele>
        <time>2015-12-28T20:04:21Z</time>
      </trkpt>
      <trkpt lat="48.8294" lon="2.42016">
        <ele>53.20000076294</ele>
        <time>2015-12-28T20:04:24Z</time>
      </trkpt>
      <trkpt lat="48.82918" lon="2.42002">
        <ele>53.20000076294</ele>
        <time>2015-12-28T20:04:27Z</time>
      </trkpt>
      <trkpt lat="48.82899" lon="2.41991">
        <ele>53.20000076294</ele>
        <time>2015-12-28T20:04:30Z</time>
      </trkpt>
      <trkpt lat="48.82877" lon="2.4198">
        <ele>53.20000076294</ele>
        <time>2015-12-28T20:04:34Z</time>
      </trkpt>
      <trkpt lat="48.82869" lon="2.41974">
        <ele>53.20000076294</ele>
        <time>2015-12-28T20:04:36Z</time>
      </trkpt>
      <trkpt lat="48.8286" lon="2.41956">
        <ele>53</ele>
        <time>2015-12-28T20:04:40Z</time>
      </trkpt>
      <trkpt lat="48.82858" lon="2.41952">
        <ele>52.79999923706</ele>
        <time>2015-12-28T20:04:41Z</time>
      </trkpt>
      <trkpt lat="48.82844" lon="2.41946">
        <ele>52.79999923706</ele>
        <time>2015-12-28T20:04:46Z</time>
      </trkpt>
      <trkpt lat="48.8283" lon="2.41945">
        <ele>53</ele>
        <time>2015-12-28T20:04:52Z</time>
      </trkpt>
      <trkpt lat="48.82822" lon="2.41943">
        <ele>53</ele>
        <time>2015-12-28T20:04:57Z</time>
      </trkpt>
      <trkpt lat="48.82819" lon="2.41943">
        <ele>53.20000076294</ele>
        <time>2015-12-28T20:05:00Z</time>
      </trkpt>
      <trkpt lat="48.82808" lon="2.41932">
        <ele>53</ele>
        <time>2015-12-28T20:05:38Z</time>
      </trkpt>
      <trkpt lat="48.82789" lon="2.41937">
        <ele>53.400001525879</ele>
        <time>2015-12-28T20:05:43Z</time>
      </trkpt>
      <trkpt lat="48.82779" lon="2.41937">
        <ele>53.400001525879</ele>
        <time>2015-12-28T20:05:45Z</time>
      </trkpt>
      <trkpt lat="48.82757" lon="2.41939">
        <ele>53</ele>
        <time>2015-12-28T20:05:49Z</time>
      </trkpt>
      <trkpt lat="48.82752" lon="2.41939">
        <ele>52.79999923706</ele>
        <time>2015-12-28T20:05:50Z</time>
      </trkpt>
      <trkpt lat="48.82729" lon="2.41946">
        <ele>52.20000076294</ele>
        <time>2015-12-28T20:05:54Z</time>
      </trkpt>
      <trkpt lat="48.82711" lon="2.41952">
        <ele>51.599998474121</ele>
        <time>2015-12-28T20:05:57Z</time>
      </trkpt>
      <trkpt lat="48.82692" lon="2.4196">
        <ele>51.20000076294</ele>
        <time>2015-12-28T20:06:00Z</time>
      </trkpt>
      <trkpt lat="48.82673" lon="2.41965">
        <ele>51.599998474121</ele>
        <time>2015-12-28T20:06:03Z</time>
      </trkpt>
      <trkpt lat="48.82652" lon="2.4197">
        <ele>52.20000076294</ele>
        <time>2015-12-28T20:06:06Z</time>
      </trkpt>
      <trkpt lat="48.82629" lon="2.41976">
        <ele>52.400001525879</ele>
        <time>2015-12-28T20:06:09Z</time>
      </trkpt>
      <trkpt lat="48.82606" lon="2.41982">
        <ele>52.79999923706</ele>
        <time>2015-12-28T20:06:12Z</time>
      </trkpt>
      <trkpt lat="48.82583" lon="2.41985">
        <ele>53.400001525879</ele>
        <time>2015-12-28T20:06:15Z</time>
      </trkpt>
      <trkpt lat="48.82563" lon="2.41988">
        <ele>53.599998474121</ele>
        <time>2015-12-28T20:06:18Z</time>
      </trkpt>
      <trkpt lat="48.82539" lon="2.4199">
        <ele>54</ele>
        <time>2015-12-28T20:06:22Z</time>
      </trkpt>
      <trkpt lat="48.82517" lon="2.41993">
        <ele>54.20000076294</ele>
        <time>2015-12-28T20:06:26Z</time>
      </trkpt>
      <trkpt lat="48.82496" lon="2.41997">
        <ele>54.599998474121</ele>
        <time>2015-12-28T20:06:30Z</time>
      </trkpt>
      <trkpt lat="48.82476" lon="2.41999">
        <ele>55.20000076294</ele>
        <time>2015-12-28T20:06:34Z</time>
      </trkpt>
      <trkpt lat="48.82458" lon="2.41999">
        <ele>55.599998474121</ele>
        <time>2015-12-28T20:06:38Z</time>
      </trkpt>
      <trkpt lat="48.82437" lon="2.41999">
        <ele>56</ele>
        <time>2015-12-28T20:06:43Z</time>
      </trkpt>
      <trkpt lat="48.82423" lon="2.42">
        <ele>56.599998474121</ele>
        <time>2015-12-28T20:06:47Z</time>
      </trkpt>
      <trkpt lat="48.82412" lon="2.41997">
        <ele>57</ele>
        <time>2015-12-28T20:06:51Z</time>
      </trkpt>
      <trkpt lat="48.82407" lon="2.41997">
        <ele>57.20000076294</ele>
        <time>2015-12-28T20:06:54Z</time>
      </trkpt>
      <trkpt lat="48.82407" lon="2.41989">
        <ele>57</ele>
        <time>2015-12-28T20:06:59Z</time>
      </trkpt>
      <trkpt lat="48.824" lon="2.41988">
        <ele>57.20000076294</ele>
        <time>2015-12-28T20:07:20Z</time>
      </trkpt>
      <trkpt lat="48.8238" lon="2.41989">
        <ele>58</ele>
        <time>2015-12-28T20:07:26Z</time>
      </trkpt>
      <trkpt lat="48.8236" lon="2.41993">
        <ele>58.79999923706</ele>
        <time>2015-12-28T20:07:31Z</time>
      </trkpt>
      <trkpt lat="48.8234" lon="2.41998">
        <ele>58.79999923706</ele>
        <time>2015-12-28T20:07:37Z</time>
      </trkpt>
      <trkpt lat="48.82321" lon="2.42001">
        <ele>58.599998474121</ele>
        <time>2015-12-28T20:07:42Z</time>
      </trkpt>
      <trkpt lat="48.82301" lon="2.42">
        <ele>58.400001525879</ele>
        <time>2015-12-28T20:07:48Z</time>
      </trkpt>
      <trkpt lat="48.82282" lon="2.42">
        <ele>58.20000076294</ele>
        <time>2015-12-28T20:07:54Z</time>
      </trkpt>
      <trkpt lat="48.82264" lon="2.42002">
        <ele>57.79999923706</ele>
        <time>2015-12-28T20:07:59Z</time>
      </trkpt>
      <trkpt lat="48.82244" lon="2.42008">
        <ele>57.400001525879</ele>
        <time>2015-12-28T20:08:03Z</time>
      </trkpt>
      <trkpt lat="48.82225" lon="2.42006">
        <ele>56.79999923706</ele>
        <time>2015-12-28T20:08:06Z</time>
      </trkpt>
      <trkpt lat="48.82204" lon="2.42002">
        <ele>56.400001525879</ele>
        <time>2015-12-28T20:08:10Z</time>
      </trkpt>
      <trkpt lat="48.82194" lon="2.42">
        <ele>56.20000076294</ele>
        <time>2015-12-28T20:08:12Z</time>
      </trkpt>
      <trkpt lat="48.82176" lon="2.41997">
        <ele>55.79999923706</ele>
        <time>2015-12-28T20:08:16Z</time>
      </trkpt>
      <trkpt lat="48.82165" lon="2.41996">
        <ele>55.79999923706</ele>
        <time>2015-12-28T20:08:19Z</time>
      </trkpt>
      <trkpt lat="48.82144" lon="2.41995">
        <ele>55.599998474121</ele>
        <time>2015-12-28T20:08:25Z</time>
      </trkpt>
      <trkpt lat="48.82124" lon="2.4199">
        <ele>55.400001525879</ele>
        <time>2015-12-28T20:08:31Z</time>
      </trkpt>
      <trkpt lat="48.82119" lon="2.41989">
        <ele>55.20000076294</ele>
        <time>2015-12-28T20:08:33Z</time>
      </trkpt>
      <trkpt lat="48.82101" lon="2.41986">
        <ele>55.20000076294</ele>
        <time>2015-12-28T20:08:39Z</time>
      </trkpt>
      <trkpt lat="48.82083" lon="2.41987">
        <ele>55.20000076294</ele>
        <time>2015-12-28T20:08:45Z</time>
      </trkpt>
      <trkpt lat="48.82064" lon="2.41998">
        <ele>55</ele>
        <time>2015-12-28T20:08:51Z</time>
      </trkpt>
      <trkpt lat="48.82042" lon="2.41996">
        <ele>55</ele>
        <time>2015-12-28T20:08:57Z</time>
      </trkpt>
      <trkpt lat="48.82022" lon="2.41998">
        <ele>55</ele>
        <time>2015-12-28T20:09:02Z</time>
      </trkpt>
      <trkpt lat="48.82004" lon="2.42009">
        <ele>54.400001525879</ele>
        <time>2015-12-28T20:09:08Z</time>
      </trkpt>
      <trkpt lat="48.82003" lon="2.42038">
        <ele>55</ele>
        <time>2015-12-28T20:09:13Z</time>
      </trkpt>
      <trkpt lat="48.82003" lon="2.42068">
        <ele>55.79999923706</ele>
        <time>2015-12-28T20:09:18Z</time>
      </trkpt>
      <trkpt lat="48.82005" lon="2.42097">
        <ele>56.400001525879</ele>
        <time>2015-12-28T20:09:23Z</time>
      </trkpt>
      <trkpt lat="48.82007" lon="2.4213">
        <ele>56.400001525879</ele>
        <time>2015-12-28T20:09:29Z</time>
      </trkpt>
      <trkpt lat="48.82009" lon="2.42157">
        <ele>56.599998474121</ele>
        <time>2015-12-28T20:09:35Z</time>
      </trkpt>
      <trkpt lat="48.82005" lon="2.42163">
        <ele>56.400001525879</ele>
        <time>2015-12-28T20:09:38Z</time>
      </trkpt>
      <trkpt lat="48.81991" lon="2.42168">
        <ele>55.79999923706</ele>
        <time>2015-12-28T20:09:42Z</time>
      </trkpt>
      <trkpt lat="48.8197" lon="2.42171">
        <ele>55</ele>
        <time>2015-12-28T20:09:47Z</time>
      </trkpt>
      <trkpt lat="48.81949" lon="2.42176">
        <ele>54.20000076294</ele>
        <time>2015-12-28T20:09:53Z</time>
      </trkpt>
      <trkpt lat="48.81934" lon="2.42179">
        <ele>53.20000076294</ele>
        <time>2015-12-28T20:09:59Z</time>
      </trkpt>
      <trkpt lat="48.81929" lon="2.42178">
        <ele>52.599998474121</ele>
        <time>2015-12-28T20:10:03Z</time>
      </trkpt>
      <trkpt lat="48.81934" lon="2.42205">
        <ele>52.20000076294</ele>
        <time>2015-12-28T20:10:27Z</time>
      </trkpt>
      <trkpt lat="48.81937" lon="2.42234">
        <ele>51.400001525879</ele>
        <time>2015-12-28T20:10:32Z</time>
      </trkpt>
      <trkpt lat="48.81942" lon="2.42262">
        <ele>51.20000076294</ele>
        <time>2015-12-28T20:10:38Z</time>
      </trkpt>
      <trkpt lat="48.8196" lon="2.4227">
        <ele>52.79999923706</ele>
        <time>2015-12-28T20:10:47Z</time>
      </trkpt>
      <trkpt lat="48.81978" lon="2.4227">
        <ele>53.79999923706</ele>
        <time>2015-12-28T20:10:55Z</time>
      </trkpt>
      <trkpt lat="48.81986" lon="2.42271">
        <ele>54.400001525879</ele>
        <time>2015-12-28T20:10:58Z</time>
      </trkpt>
      <trkpt lat="48.82003" lon="2.42275">
        <ele>55.400001525879</ele>
        <time>2015-12-28T20:11:06Z</time>
      </trkpt>
      <trkpt lat="48.82005" lon="2.4228">
        <ele>55.79999923706</ele>
        <time>2015-12-28T20:11:08Z</time>
      </trkpt>
      <trkpt lat="48.82009" lon="2.42309">
        <ele>56.599998474121</ele>
        <time>2015-12-28T20:11:16Z</time>
      </trkpt>
      <trkpt lat="48.82011" lon="2.42315">
        <ele>57</ele>
        <time>2015-12-28T20:11:20Z</time>
      </trkpt>
      <trkpt lat="48.82003" lon="2.42323">
        <ele>56.20000076294</ele>
        <time>2015-12-28T20:11:33Z</time>
      </trkpt>
      <trkpt lat="48.81982" lon="2.42323">
        <ele>54.400001525879</ele>
        <time>2015-12-28T20:11:41Z</time>
      </trkpt>
      <trkpt lat="48.81964" lon="2.42318">
        <ele>52.599998474121</ele>
        <time>2015-12-28T20:11:45Z</time>
      </trkpt>
      <trkpt lat="48.81955" lon="2.42319">
        <ele>51.79999923706</ele>
        <time>2015-12-28T20:11:47Z</time>
      </trkpt>
      <trkpt lat="48.81936" lon="2.42327">
        <ele>49.79999923706</ele>
        <time>2015-12-28T20:11:52Z</time>
      </trkpt>
      <trkpt lat="48.81929" lon="2.42355">
        <ele>48.599998474121</ele>
        <time>2015-12-28T20:11:56Z</time>
      </trkpt>
      <trkpt lat="48.8192" lon="2.42382">
        <ele>47.400001525879</ele>
        <time>2015-12-28T20:12:00Z</time>
      </trkpt>
      <trkpt lat="48.81909" lon="2.42406">
        <ele>46</ele>
        <time>2015-12-28T20:12:04Z</time>
      </trkpt>
      <trkpt lat="48.81896" lon="2.42429">
        <ele>44.79999923706</ele>
        <time>2015-12-28T20:12:09Z</time>
      </trkpt>
      <trkpt lat="48.81891" lon="2.42439">
        <ele>44.599998474121</ele>
        <time>2015-12-28T20:12:11Z</time>
      </trkpt>
      <trkpt lat="48.81884" lon="2.42444">
        <ele>43.79999923706</ele>
        <time>2015-12-28T20:12:13Z</time>
      </trkpt>
      <trkpt lat="48.81865" lon="2.42442">
        <ele>41.79999923706</ele>
        <time>2015-12-28T20:12:18Z</time>
      </trkpt>
      <trkpt lat="48.81858" lon="2.42443">
        <ele>41.20000076294</ele>
        <time>2015-12-28T20:12:20Z</time>
      </trkpt>
      <trkpt lat="48.81837" lon="2.42445">
        <ele>39.599998474121</ele>
        <time>2015-12-28T20:12:26Z</time>
      </trkpt>
      <trkpt lat="48.81834" lon="2.42445">
        <ele>39.400001525879</ele>
        <time>2015-12-28T20:12:27Z</time>
      </trkpt>
      <trkpt lat="48.81816" lon="2.42442">
        <ele>37.599998474121</ele>
        <time>2015-12-28T20:12:32Z</time>
      </trkpt>
      <trkpt lat="48.81798" lon="2.42433">
        <ele>35.400001525879</ele>
        <time>2015-12-28T20:12:40Z</time>
      </trkpt>
      <trkpt lat="48.818" lon="2.42435">
        <ele>35.79999923706</ele>
        <time>2015-12-28T20:13:32Z</time>
      </trkpt>
      <trkpt lat="48.81801" lon="2.42443">
        <ele>36.400001525879</ele>
        <time>2015-12-28T20:13:36Z</time>
      </trkpt>
      <trkpt lat="48.81805" lon="2.42434">
        <ele>36.20000076294</ele>
        <time>2015-12-28T20:14:38Z</time>
      </trkpt>
      <trkpt lat="48.81799" lon="2.42419">
        <ele>34.599998474121</ele>
        <time>2015-12-28T20:15:19Z</time>
      </trkpt>
      <trkpt lat="48.81803" lon="2.42428">
        <ele>35.599998474121</ele>
        <time>2015-12-28T20:15:37Z</time>
      </trkpt>
      <trkpt lat="48.81797" lon="2.42412">
        <ele>34.20000076294</ele>
        <time>2015-12-28T20:16:10Z</time>
      </trkpt>
      <trkpt lat="48.81803" lon="2.42399">
        <ele>34.79999923706</ele>
        <time>2015-12-28T20:17:01Z</time>
      </trkpt>
      <trkpt lat="48.81799" lon="2.42418">
        <ele>34.400001525879</ele>
        <time>2015-12-28T20:18:05Z</time>
      </trkpt>
      <trkpt lat="48.81796" lon="2.4245">
        <ele>36</ele>
        <time>2015-12-28T20:18:12Z</time>
      </trkpt>
      <trkpt lat="48.81796" lon="2.4247">
        <ele>36</ele>
        <time>2015-12-28T20:18:15Z</time>
      </trkpt>
      <trkpt lat="48.81794" lon="2.42498">
        <ele>36.20000076294</ele>
        <time>2015-12-28T20:18:19Z</time>
      </trkpt>
      <trkpt lat="48.81792" lon="2.42525">
        <ele>35</ele>
        <time>2015-12-28T20:18:23Z</time>
      </trkpt>
      <trkpt lat="48.8179" lon="2.42558">
        <ele>35.20000076294</ele>
        <time>2015-12-28T20:18:28Z</time>
      </trkpt>
      <trkpt lat="48.81793" lon="2.42591">
        <ele>35.599998474121</ele>
        <time>2015-12-28T20:18:33Z</time>
      </trkpt>
      <trkpt lat="48.81797" lon="2.42622">
        <ele>36.20000076294</ele>
        <time>2015-12-28T20:18:38Z</time>
      </trkpt>
      <trkpt lat="48.81801" lon="2.42656">
        <ele>37.20000076294</ele>
        <time>2015-12-28T20:18:43Z</time>
      </trkpt>
      <trkpt lat="48.81802" lon="2.42684">
        <ele>38</ele>
        <time>2015-12-28T20:18:46Z</time>
      </trkpt>
      <trkpt lat="48.81802" lon="2.42719">
        <ele>37.599998474121</ele>
        <time>2015-12-28T20:18:50Z</time>
      </trkpt>
      <trkpt lat="48.81803" lon="2.42727">
        <ele>37.400001525879</ele>
        <time>2015-12-28T20:18:51Z</time>
      </trkpt>
      <trkpt lat="48.81803" lon="2.4276">
        <ele>36.599998474121</ele>
        <time>2015-12-28T20:18:55Z</time>
      </trkpt>
      <trkpt lat="48.81803" lon="2.42794">
        <ele>36.400001525879</ele>
        <time>2015-12-28T20:18:59Z</time>
      </trkpt>
      <trkpt lat="48.81801" lon="2.42821">
        <ele>36.599998474121</ele>
        <time>2015-12-28T20:19:02Z</time>
      </trkpt>
      <trkpt lat="48.81799" lon="2.42849">
        <ele>36.599998474121</ele>
        <time>2015-12-28T20:19:05Z</time>
      </trkpt>
      <trkpt lat="48.81798" lon="2.42879">
        <ele>36.400001525879</ele>
        <time>2015-12-28T20:19:08Z</time>
      </trkpt>
      <trkpt lat="48.81798" lon="2.4291">
        <ele>36.599998474121</ele>
        <time>2015-12-28T20:19:11Z</time>
      </trkpt>
      <trkpt lat="48.81799" lon="2.42942">
        <ele>36.20000076294</ele>
        <time>2015-12-28T20:19:14Z</time>
      </trkpt>
      <trkpt lat="48.81799" lon="2.42972">
        <ele>36.20000076294</ele>
        <time>2015-12-28T20:19:17Z</time>
      </trkpt>
      <trkpt lat="48.81799" lon="2.43003">
        <ele>36.20000076294</ele>
        <time>2015-12-28T20:19:20Z</time>
      </trkpt>
      <trkpt lat="48.818" lon="2.43036">
        <ele>36.400001525879</ele>
        <time>2015-12-28T20:19:23Z</time>
      </trkpt>
      <trkpt lat="48.81802" lon="2.43067">
        <ele>37</ele>
        <time>2015-12-28T20:19:26Z</time>
      </trkpt>
      <trkpt lat="48.81804" lon="2.43099">
        <ele>37.20000076294</ele>
        <time>2015-12-28T20:19:29Z</time>
      </trkpt>
      <trkpt lat="48.81807" lon="2.43132">
        <ele>37.20000076294</ele>
        <time>2015-12-28T20:19:32Z</time>
      </trkpt>
      <trkpt lat="48.81809" lon="2.43165">
        <ele>37.20000076294</ele>
        <time>2015-12-28T20:19:35Z</time>
      </trkpt>
      <trkpt lat="48.81811" lon="2.43197">
        <ele>37.79999923706</ele>
        <time>2015-12-28T20:19:38Z</time>
      </trkpt>
      <trkpt lat="48.81812" lon="2.43228">
        <ele>38.20000076294</ele>
        <time>2015-12-28T20:19:41Z</time>
      </trkpt>
      <trkpt lat="48.81813" lon="2.43258">
        <ele>38.599998474121</ele>
        <time>2015-12-28T20:19:44Z</time>
      </trkpt>
      <trkpt lat="48.81814" lon="2.43291">
        <ele>39.599998474121</ele>
        <time>2015-12-28T20:19:47Z</time>
      </trkpt>
      <trkpt lat="48.81816" lon="2.43323">
        <ele>39.20000076294</ele>
        <time>2015-12-28T20:19:50Z</time>
      </trkpt>
      <trkpt lat="48.81818" lon="2.43356">
        <ele>39.20000076294</ele>
        <time>2015-12-28T20:19:53Z</time>
      </trkpt>
      <trkpt lat="48.81819" lon="2.43389">
        <ele>39</ele>
        <time>2015-12-28T20:19:56Z</time>
      </trkpt>
      <trkpt lat="48.8182" lon="2.43421">
        <ele>39.20000076294</ele>
        <time>2015-12-28T20:19:59Z</time>
      </trkpt>
      <trkpt lat="48.8182" lon="2.43453">
        <ele>38.599998474121</ele>
        <time>2015-12-28T20:20:02Z</time>
      </trkpt>
      <trkpt lat="48.81821" lon="2.43485">
        <ele>38.20000076294</ele>
        <time>2015-12-28T20:20:05Z</time>
      </trkpt>
      <trkpt lat="48.81822" lon="2.43518">
        <ele>38.400001525879</ele>
        <time>2015-12-28T20:20:08Z</time>
      </trkpt>
      <trkpt lat="48.81823" lon="2.4355">
        <ele>39.400001525879</ele>
        <time>2015-12-28T20:20:11Z</time>
      </trkpt>
      <trkpt lat="48.81822" lon="2.43581">
        <ele>38.79999923706</ele>
        <time>2015-12-28T20:20:14Z</time>
      </trkpt>
      <trkpt lat="48.81821" lon="2.43612">
        <ele>38</ele>
        <time>2015-12-28T20:20:17Z</time>
      </trkpt>
      <trkpt lat="48.81819" lon="2.43645">
        <ele>37</ele>
        <time>2015-12-28T20:20:20Z</time>
      </trkpt>
      <trkpt lat="48.8182" lon="2.43677">
        <ele>36.79999923706</ele>
        <time>2015-12-28T20:20:23Z</time>
      </trkpt>
      <trkpt lat="48.8182" lon="2.43707">
        <ele>37.599998474121</ele>
        <time>2015-12-28T20:20:26Z</time>
      </trkpt>
      <trkpt lat="48.81819" lon="2.43737">
        <ele>37.79999923706</ele>
        <time>2015-12-28T20:20:29Z</time>
      </trkpt>
      <trkpt lat="48.81819" lon="2.43746">
        <ele>38</ele>
        <time>2015-12-28T20:20:30Z</time>
      </trkpt>
      <trkpt lat="48.8182" lon="2.43777">
        <ele>39.20000076294</ele>
        <time>2015-12-28T20:20:33Z</time>
      </trkpt>
      <trkpt lat="48.81821" lon="2.43786">
        <ele>39.599998474121</ele>
        <time>2015-12-28T20:20:34Z</time>
      </trkpt>
      <trkpt lat="48.81821" lon="2.43814">
        <ele>40.20000076294</ele>
        <time>2015-12-28T20:20:37Z</time>
      </trkpt>
      <trkpt lat="48.81823" lon="2.43849">
        <ele>41</ele>
        <time>2015-12-28T20:20:41Z</time>
      </trkpt>
      <trkpt lat="48.81826" lon="2.43884">
        <ele>41.79999923706</ele>
        <time>2015-12-28T20:20:45Z</time>
      </trkpt>
      <trkpt lat="48.81829" lon="2.43917">
        <ele>42.400001525879</ele>
        <time>2015-12-28T20:20:49Z</time>
      </trkpt>
      <trkpt lat="48.81829" lon="2.43949">
        <ele>43</ele>
        <time>2015-12-28T20:20:53Z</time>
      </trkpt>
      <trkpt lat="48.8183" lon="2.43983">
        <ele>43.400001525879</ele>
        <time>2015-12-28T20:20:57Z</time>
      </trkpt>
      <trkpt lat="48.81829" lon="2.44008">
        <ele>43.79999923706</ele>
        <time>2015-12-28T20:21:00Z</time>
      </trkpt>
      <trkpt lat="48.81825" lon="2.44035">
        <ele>43.79999923706</ele>
        <time>2015-12-28T20:21:03Z</time>
      </trkpt>
      <trkpt lat="48.8182" lon="2.44064">
        <ele>43</ele>
        <time>2015-12-28T20:21:06Z</time>
      </trkpt>
      <trkpt lat="48.81814" lon="2.44094">
        <ele>41.599998474121</ele>
        <time>2015-12-28T20:21:09Z</time>
      </trkpt>
      <trkpt lat="48.81807" lon="2.44122">
        <ele>41</ele>
        <time>2015-12-28T20:21:12Z</time>
      </trkpt>
      <trkpt lat="48.81801" lon="2.44151">
        <ele>40.599998474121</ele>
        <time>2015-12-28T20:21:15Z</time>
      </trkpt>
      <trkpt lat="48.81795" lon="2.44181">
        <ele>39.79999923706</ele>
        <time>2015-12-28T20:21:18Z</time>
      </trkpt>
      <trkpt lat="48.81791" lon="2.44213">
        <ele>39.20000076294</ele>
        <time>2015-12-28T20:21:21Z</time>
      </trkpt>
      <trkpt lat="48.81789" lon="2.44246">
        <ele>38.79999923706</ele>
        <time>2015-12-28T20:21:24Z</time>
      </trkpt>
      <trkpt lat="48.81788" lon="2.44279">
        <ele>39</ele>
        <time>2015-12-28T20:21:27Z</time>
      </trkpt>
      <trkpt lat="48.81786" lon="2.44313">
        <ele>39.20000076294</ele>
        <time>2015-12-28T20:21:30Z</time>
      </trkpt>
      <trkpt lat="48.81785" lon="2.44347">
        <ele>39.20000076294</ele>
        <time>2015-12-28T20:21:33Z</time>
      </trkpt>
      <trkpt lat="48.81785" lon="2.44378">
        <ele>38.400001525879</ele>
        <time>2015-12-28T20:21:36Z</time>
      </trkpt>
      <trkpt lat="48.81785" lon="2.44388">
        <ele>38.20000076294</ele>
        <time>2015-12-28T20:21:37Z</time>
      </trkpt>
      <trkpt lat="48.81783" lon="2.44418">
        <ele>37.20000076294</ele>
        <time>2015-12-28T20:21:40Z</time>
      </trkpt>
      <trkpt lat="48.81783" lon="2.44448">
        <ele>37.79999923706</ele>
        <time>2015-12-28T20:21:43Z</time>
      </trkpt>
      <trkpt lat="48.81783" lon="2.44478">
        <ele>39</ele>
        <time>2015-12-28T20:21:46Z</time>
      </trkpt>
      <trkpt lat="48.81785" lon="2.44506">
        <ele>39.79999923706</ele>
        <time>2015-12-28T20:21:49Z</time>
      </trkpt>
      <trkpt lat="48.81788" lon="2.44536">
        <ele>39.599998474121</ele>
        <time>2015-12-28T20:21:52Z</time>
      </trkpt>
      <trkpt lat="48.81788" lon="2.44546">
        <ele>39.599998474121</ele>
        <time>2015-12-28T20:21:53Z</time>
      </trkpt>
      <trkpt lat="48.81789" lon="2.44574">
        <ele>39.400001525879</ele>
        <time>2015-12-28T20:21:56Z</time>
      </trkpt>
      <trkpt lat="48.81789" lon="2.44602">
        <ele>39.20000076294</ele>
        <time>2015-12-28T20:21:59Z</time>
      </trkpt>
      <trkpt lat="48.81791" lon="2.44638">
        <ele>38.599998474121</ele>
        <time>2015-12-28T20:22:03Z</time>
      </trkpt>
      <trkpt lat="48.81791" lon="2.44657">
        <ele>38.20000076294</ele>
        <time>2015-12-28T20:22:05Z</time>
      </trkpt>
      <trkpt lat="48.81792" lon="2.44686">
        <ele>38.400001525879</ele>
        <time>2015-12-28T20:22:08Z</time>
      </trkpt>
      <trkpt lat="48.81793" lon="2.44717">
        <ele>39.400001525879</ele>
        <time>2015-12-28T20:22:11Z</time>
      </trkpt>
      <trkpt lat="48.81795" lon="2.44749">
        <ele>40.20000076294</ele>
        <time>2015-12-28T20:22:14Z</time>
      </trkpt>
      <trkpt lat="48.81795" lon="2.4478">
        <ele>40.599998474121</ele>
        <time>2015-12-28T20:22:17Z</time>
      </trkpt>
      <trkpt lat="48.81795" lon="2.44813">
        <ele>40.599998474121</ele>
        <time>2015-12-28T20:22:20Z</time>
      </trkpt>
      <trkpt lat="48.81796" lon="2.44846">
        <ele>40.599998474121</ele>
        <time>2015-12-28T20:22:23Z</time>
      </trkpt>
      <trkpt lat="48.81795" lon="2.44879">
        <ele>40</ele>
        <time>2015-12-28T20:22:26Z</time>
      </trkpt>
      <trkpt lat="48.81794" lon="2.44908">
        <ele>39.20000076294</ele>
        <time>2015-12-28T20:22:29Z</time>
      </trkpt>
      <trkpt lat="48.81793" lon="2.44941">
        <ele>39.400001525879</ele>
        <time>2015-12-28T20:22:32Z</time>
      </trkpt>
      <trkpt lat="48.81791" lon="2.44974">
        <ele>38.79999923706</ele>
        <time>2015-12-28T20:22:35Z</time>
      </trkpt>
      <trkpt lat="48.81787" lon="2.45006">
        <ele>37.599998474121</ele>
        <time>2015-12-28T20:22:38Z</time>
      </trkpt>
      <trkpt lat="48.81782" lon="2.45039">
        <ele>37.20000076294</ele>
        <time>2015-12-28T20:22:41Z</time>
      </trkpt>
      <trkpt lat="48.81776" lon="2.45073">
        <ele>36.79999923706</ele>
        <time>2015-12-28T20:22:44Z</time>
      </trkpt>
      <trkpt lat="48.81771" lon="2.45102">
        <ele>36.599998474121</ele>
        <time>2015-12-28T20:22:47Z</time>
      </trkpt>
      <trkpt lat="48.81765" lon="2.45128">
        <ele>37.400001525879</ele>
        <time>2015-12-28T20:22:50Z</time>
      </trkpt>
      <trkpt lat="48.81757" lon="2.45159">
        <ele>38.20000076294</ele>
        <time>2015-12-28T20:22:54Z</time>
      </trkpt>
      <trkpt lat="48.81748" lon="2.45188">
        <ele>39.599998474121</ele>
        <time>2015-12-28T20:22:58Z</time>
      </trkpt>
      <trkpt lat="48.8174" lon="2.45215">
        <ele>40.599998474121</ele>
        <time>2015-12-28T20:23:02Z</time>
      </trkpt>
      <trkpt lat="48.81732" lon="2.45241">
        <ele>43.20000076294</ele>
        <time>2015-12-28T20:23:07Z</time>
      </trkpt>
      <trkpt lat="48.81731" lon="2.45246">
        <ele>43.599998474121</ele>
        <time>2015-12-28T20:23:08Z</time>
      </trkpt>
      <trkpt lat="48.81729" lon="2.45263">
        <ele>44.79999923706</ele>
        <time>2015-12-28T20:23:14Z</time>
      </trkpt>
      <trkpt lat="48.81728" lon="2.45266">
        <ele>45</ele>
        <time>2015-12-28T20:24:37Z</time>
      </trkpt>
      <trkpt lat="48.81721" lon="2.45287">
        <ele>46.20000076294</ele>
        <time>2015-12-28T20:25:16Z</time>
      </trkpt>
      <trkpt lat="48.81721" lon="2.45293">
        <ele>46</ele>
        <time>2015-12-28T20:25:21Z</time>
      </trkpt>
      <trkpt lat="48.81729" lon="2.45314">
        <ele>46.20000076294</ele>
        <time>2015-12-28T20:25:59Z</time>
      </trkpt>
      <trkpt lat="48.8172" lon="2.4534">
        <ele>45.79999923706</ele>
        <time>2015-12-28T20:26:12Z</time>
      </trkpt>
      <trkpt lat="48.81721" lon="2.45372">
        <ele>46.400001525879</ele>
        <time>2015-12-28T20:26:16Z</time>
      </trkpt>
      <trkpt lat="48.81719" lon="2.45404">
        <ele>45</ele>
        <time>2015-12-28T20:26:21Z</time>
      </trkpt>
      <trkpt lat="48.81716" lon="2.45434">
        <ele>44.599998474121</ele>
        <time>2015-12-28T20:26:27Z</time>
      </trkpt>
      <trkpt lat="48.81699" lon="2.45481">
        <ele>41</ele>
        <time>2015-12-28T20:26:33Z</time>
      </trkpt>
      <trkpt lat="48.81701" lon="2.45515">
        <ele>41.20000076294</ele>
        <time>2015-12-28T20:26:36Z</time>
      </trkpt>
      <trkpt lat="48.81695" lon="2.45542">
        <ele>40.599998474121</ele>
        <time>2015-12-28T20:26:40Z</time>
      </trkpt>
      <trkpt lat="48.81689" lon="2.45568">
        <ele>40</ele>
        <time>2015-12-28T20:26:44Z</time>
      </trkpt>
      <trkpt lat="48.81682" lon="2.45593">
        <ele>40</ele>
        <time>2015-12-28T20:26:48Z</time>
      </trkpt>
      <trkpt lat="48.81674" lon="2.45619">
        <ele>39.79999923706</ele>
        <time>2015-12-28T20:26:51Z</time>
      </trkpt>
      <trkpt lat="48.81668" lon="2.45651">
        <ele>39.599998474121</ele>
        <time>2015-12-28T20:26:56Z</time>
      </trkpt>
      <trkpt lat="48.81666" lon="2.4566">
        <ele>39.400001525879</ele>
        <time>2015-12-28T20:26:57Z</time>
      </trkpt>
      <trkpt lat="48.81659" lon="2.45688">
        <ele>39.20000076294</ele>
        <time>2015-12-28T20:27:01Z</time>
      </trkpt>
      <trkpt lat="48.81656" lon="2.45701">
        <ele>39.20000076294</ele>
        <time>2015-12-28T20:27:03Z</time>
      </trkpt>
      <trkpt lat="48.81647" lon="2.4573">
        <ele>38.79999923706</ele>
        <time>2015-12-28T20:27:07Z</time>
      </trkpt>
      <trkpt lat="48.81641" lon="2.45752">
        <ele>38.400001525879</ele>
        <time>2015-12-28T20:27:10Z</time>
      </trkpt>
      <trkpt lat="48.81634" lon="2.45782">
        <ele>39.79999923706</ele>
        <time>2015-12-28T20:27:14Z</time>
      </trkpt>
      <trkpt lat="48.81629" lon="2.4581">
        <ele>40</ele>
        <time>2015-12-28T20:27:18Z</time>
      </trkpt>
      <trkpt lat="48.81626" lon="2.45841">
        <ele>41.20000076294</ele>
        <time>2015-12-28T20:27:23Z</time>
      </trkpt>
      <trkpt lat="48.81624" lon="2.45856">
        <ele>42.400001525879</ele>
        <time>2015-12-28T20:27:26Z</time>
      </trkpt>
      <trkpt lat="48.81618" lon="2.45874">
        <ele>43</ele>
        <time>2015-12-28T20:27:34Z</time>
      </trkpt>
      <trkpt lat="48.81614" lon="2.45887">
        <ele>43.599998474121</ele>
        <time>2015-12-28T20:27:41Z</time>
      </trkpt>
      <trkpt lat="48.81617" lon="2.45873">
        <ele>43</ele>
        <time>2015-12-28T20:27:48Z</time>
      </trkpt>
      <trkpt lat="48.81613" lon="2.45863">
        <ele>41.599998474121</ele>
        <time>2015-12-28T20:28:24Z</time>
      </trkpt>
      <trkpt lat="48.81629" lon="2.45866">
        <ele>44</ele>
        <time>2015-12-28T20:29:09Z</time>
      </trkpt>
      <trkpt lat="48.8164" lon="2.4589">
        <ele>47.400001525879</ele>
        <time>2015-12-28T20:29:41Z</time>
      </trkpt>
      <trkpt lat="48.81653" lon="2.45907">
        <ele>50.599998474121</ele>
        <time>2015-12-28T20:30:20Z</time>
      </trkpt>
      <trkpt lat="48.81666" lon="2.45925">
        <ele>53.599998474121</ele>
        <time>2015-12-28T20:30:49Z</time>
      </trkpt>
      <trkpt lat="48.81683" lon="2.45933">
        <ele>56.400001525879</ele>
        <time>2015-12-28T20:31:47Z</time>
      </trkpt>
      <trkpt lat="48.81687" lon="2.45939">
        <ele>57.400001525879</ele>
        <time>2015-12-28T20:33:17Z</time>
      </trkpt>
      <trkpt lat="48.81695" lon="2.45943">
        <ele>58</ele>
        <time>2015-12-28T20:33:22Z</time>
      </trkpt>
      <trkpt lat="48.81711" lon="2.45926">
        <ele>57.79999923706</ele>
        <time>2015-12-28T20:33:31Z</time>
      </trkpt>
      <trkpt lat="48.81725" lon="2.45926">
        <ele>58.79999923706</ele>
        <time>2015-12-28T20:33:35Z</time>
      </trkpt>
      <trkpt lat="48.81738" lon="2.4595">
        <ele>60.400001525879</ele>
        <time>2015-12-28T20:33:41Z</time>
      </trkpt>
      <trkpt lat="48.8175" lon="2.45972">
        <ele>61.79999923706</ele>
        <time>2015-12-28T20:33:46Z</time>
      </trkpt>
      <trkpt lat="48.81763" lon="2.45994">
        <ele>63.400001525879</ele>
        <time>2015-12-28T20:33:51Z</time>
      </trkpt>
      <trkpt lat="48.81773" lon="2.46023">
        <ele>65.400001525879</ele>
        <time>2015-12-28T20:33:56Z</time>
      </trkpt>
      <trkpt lat="48.81784" lon="2.46048">
        <ele>65.800003051758</ele>
        <time>2015-12-28T20:34:00Z</time>
      </trkpt>
      <trkpt lat="48.81794" lon="2.46075">
        <ele>66.400001525879</ele>
        <time>2015-12-28T20:34:04Z</time>
      </trkpt>
      <trkpt lat="48.81804" lon="2.46102">
        <ele>65.400001525879</ele>
        <time>2015-12-28T20:34:08Z</time>
      </trkpt>
      <trkpt lat="48.81815" lon="2.46126">
        <ele>63.79999923706</ele>
        <time>2015-12-28T20:34:12Z</time>
      </trkpt>
      <trkpt lat="48.81817" lon="2.46131">
        <ele>63.599998474121</ele>
        <time>2015-12-28T20:34:13Z</time>
      </trkpt>
      <trkpt lat="48.81821" lon="2.46138">
        <ele>63.20000076294</ele>
        <time>2015-12-28T20:34:15Z</time>
      </trkpt>
      <trkpt lat="48.81824" lon="2.46148">
        <ele>62.79999923706</ele>
        <time>2015-12-28T20:34:23Z</time>
      </trkpt>
      <trkpt lat="48.81824" lon="2.46154">
        <ele>63</ele>
        <time>2015-12-28T20:34:49Z</time>
      </trkpt>
      <trkpt lat="48.81829" lon="2.46165">
        <ele>62.400001525879</ele>
        <time>2015-12-28T20:34:53Z</time>
      </trkpt>
      <trkpt lat="48.81839" lon="2.46189">
        <ele>62.20000076294</ele>
        <time>2015-12-28T20:34:59Z</time>
      </trkpt>
      <trkpt lat="48.8185" lon="2.46211">
        <ele>61.79999923706</ele>
        <time>2015-12-28T20:35:04Z</time>
      </trkpt>
      <trkpt lat="48.81863" lon="2.46233">
        <ele>61.400001525879</ele>
        <time>2015-12-28T20:35:09Z</time>
      </trkpt>
      <trkpt lat="48.81873" lon="2.46258">
        <ele>61</ele>
        <time>2015-12-28T20:35:17Z</time>
      </trkpt>
      <trkpt lat="48.81875" lon="2.46261">
        <ele>60.79999923706</ele>
        <time>2015-12-28T20:35:18Z</time>
      </trkpt>
      <trkpt lat="48.81887" lon="2.46281">
        <ele>59.20000076294</ele>
        <time>2015-12-28T20:35:26Z</time>
      </trkpt>
      <trkpt lat="48.81898" lon="2.46302">
        <ele>57.599998474121</ele>
        <time>2015-12-28T20:35:32Z</time>
      </trkpt>
      <trkpt lat="48.8191" lon="2.46326">
        <ele>56</ele>
        <time>2015-12-28T20:35:40Z</time>
      </trkpt>
      <trkpt lat="48.81911" lon="2.46341">
        <ele>55.599998474121</ele>
        <time>2015-12-28T20:36:02Z</time>
      </trkpt>
      <trkpt lat="48.81926" lon="2.46331">
        <ele>54.20000076294</ele>
        <time>2015-12-28T20:36:34Z</time>
      </trkpt>
      <trkpt lat="48.81946" lon="2.46332">
        <ele>53</ele>
        <time>2015-12-28T20:37:15Z</time>
      </trkpt>
      <trkpt lat="48.81964" lon="2.46335">
        <ele>52.79999923706</ele>
        <time>2015-12-28T20:37:42Z</time>
      </trkpt>
      <trkpt lat="48.81982" lon="2.46337">
        <ele>52.599998474121</ele>
        <time>2015-12-28T20:38:01Z</time>
      </trkpt>
      <trkpt lat="48.82003" lon="2.46338">
        <ele>52.400001525879</ele>
        <time>2015-12-28T20:38:06Z</time>
      </trkpt>
      <trkpt lat="48.82023" lon="2.46339">
        <ele>52.20000076294</ele>
        <time>2015-12-28T20:38:11Z</time>
      </trkpt>
      <trkpt lat="48.82031" lon="2.46338">
        <ele>52.400001525879</ele>
        <time>2015-12-28T20:38:16Z</time>
      </trkpt>
      <trkpt lat="48.82032" lon="2.46325">
        <ele>52.599998474121</ele>
        <time>2015-12-28T20:38:28Z</time>
      </trkpt>
      <trkpt lat="48.82035" lon="2.46317">
        <ele>52.599998474121</ele>
        <time>2015-12-28T20:38:33Z</time>
      </trkpt>
      <trkpt lat="48.82042" lon="2.46293">
        <ele>53</ele>
        <time>2015-12-28T20:38:54Z</time>
      </trkpt>
      <trkpt lat="48.81991" lon="2.46462">
        <ele>54.79999923706</ele>
        <time>2015-12-28T20:39:55Z</time>
      </trkpt>
      <trkpt lat="48.81991" lon="2.46461">
        <ele>54.79999923706</ele>
        <time>2015-12-28T20:40:01Z</time>
      </trkpt>
      <trkpt lat="48.81993" lon="2.46457">
        <ele>54.599998474121</ele>
        <time>2015-12-28T20:40:08Z</time>
      </trkpt>
      <trkpt lat="48.82" lon="2.46457">
        <ele>54.79999923706</ele>
        <time>2015-12-28T20:40:13Z</time>
      </trkpt>
      <trkpt lat="48.8202" lon="2.46449">
        <ele>54.79999923706</ele>
        <time>2015-12-28T20:40:22Z</time>
      </trkpt>
      <trkpt lat="48.82038" lon="2.46441">
        <ele>54.20000076294</ele>
        <time>2015-12-28T20:40:27Z</time>
      </trkpt>
      <trkpt lat="48.82056" lon="2.46445">
        <ele>54.20000076294</ele>
        <time>2015-12-28T20:40:32Z</time>
      </trkpt>
      <trkpt lat="48.82075" lon="2.46442">
        <ele>54.599998474121</ele>
        <time>2015-12-28T20:40:37Z</time>
      </trkpt>
      <trkpt lat="48.82097" lon="2.4644">
        <ele>55.20000076294</ele>
        <time>2015-12-28T20:40:42Z</time>
      </trkpt>
      <trkpt lat="48.82118" lon="2.4644">
        <ele>55.20000076294</ele>
        <time>2015-12-28T20:40:47Z</time>
      </trkpt>
      <trkpt lat="48.82138" lon="2.46441">
        <ele>55</ele>
        <time>2015-12-28T20:40:52Z</time>
      </trkpt>
      <trkpt lat="48.8216" lon="2.46451">
        <ele>54.79999923706</ele>
        <time>2015-12-28T20:40:57Z</time>
      </trkpt>
      <trkpt lat="48.82176" lon="2.46464">
        <ele>54.20000076294</ele>
        <time>2015-12-28T20:41:00Z</time>
      </trkpt>
      <trkpt lat="48.82198" lon="2.46471">
        <ele>53.79999923706</ele>
        <time>2015-12-28T20:41:05Z</time>
      </trkpt>
      <trkpt lat="48.82212" lon="2.46478">
        <ele>53.20000076294</ele>
        <time>2015-12-28T20:41:08Z</time>
      </trkpt>
      <trkpt lat="48.8223" lon="2.46491">
        <ele>52.400001525879</ele>
        <time>2015-12-28T20:41:12Z</time>
      </trkpt>
      <trkpt lat="48.82248" lon="2.46504">
        <ele>51.400001525879</ele>
        <time>2015-12-28T20:41:16Z</time>
      </trkpt>
      <trkpt lat="48.82258" lon="2.46509">
        <ele>51.20000076294</ele>
        <time>2015-12-28T20:41:18Z</time>
      </trkpt>
      <trkpt lat="48.82278" lon="2.46515">
        <ele>50.400001525879</ele>
        <time>2015-12-28T20:41:22Z</time>
      </trkpt>
      <trkpt lat="48.82298" lon="2.46517">
        <ele>50.20000076294</ele>
        <time>2015-12-28T20:41:26Z</time>
      </trkpt>
      <trkpt lat="48.82317" lon="2.46516">
        <ele>50.599998474121</ele>
        <time>2015-12-28T20:41:30Z</time>
      </trkpt>
      <trkpt lat="48.82327" lon="2.46516">
        <ele>51</ele>
        <time>2015-12-28T20:41:32Z</time>
      </trkpt>
      <trkpt lat="48.82351" lon="2.46518">
        <ele>51.400001525879</ele>
        <time>2015-12-28T20:41:36Z</time>
      </trkpt>
      <trkpt lat="48.8237" lon="2.46517">
        <ele>51</ele>
        <time>2015-12-28T20:41:39Z</time>
      </trkpt>
      <trkpt lat="48.8239" lon="2.4652">
        <ele>50</ele>
        <time>2015-12-28T20:41:43Z</time>
      </trkpt>
      <trkpt lat="48.82411" lon="2.46518">
        <ele>49.400001525879</ele>
        <time>2015-12-28T20:41:47Z</time>
      </trkpt>
      <trkpt lat="48.82435" lon="2.46514">
        <ele>49</ele>
        <time>2015-12-28T20:41:50Z</time>
      </trkpt>
      <trkpt lat="48.8244" lon="2.46513">
        <ele>48.79999923706</ele>
        <time>2015-12-28T20:41:51Z</time>
      </trkpt>
      <trkpt lat="48.8246" lon="2.46508">
        <ele>49.20000076294</ele>
        <time>2015-12-28T20:41:55Z</time>
      </trkpt>
      <trkpt lat="48.82481" lon="2.46504">
        <ele>49.20000076294</ele>
        <time>2015-12-28T20:41:59Z</time>
      </trkpt>
      <trkpt lat="48.82502" lon="2.46501">
        <ele>49.20000076294</ele>
        <time>2015-12-28T20:42:03Z</time>
      </trkpt>
      <trkpt lat="48.82522" lon="2.46494">
        <ele>49</ele>
        <time>2015-12-28T20:42:07Z</time>
      </trkpt>
      <trkpt lat="48.82542" lon="2.46485">
        <ele>49.20000076294</ele>
        <time>2015-12-28T20:42:11Z</time>
      </trkpt>
      <trkpt lat="48.82563" lon="2.46479">
        <ele>49.400001525879</ele>
        <time>2015-12-28T20:42:15Z</time>
      </trkpt>
      <trkpt lat="48.82583" lon="2.46474">
        <ele>49.79999923706</ele>
        <time>2015-12-28T20:42:19Z</time>
      </trkpt>
      <trkpt lat="48.82602" lon="2.4647">
        <ele>50.20000076294</ele>
        <time>2015-12-28T20:42:23Z</time>
      </trkpt>
      <trkpt lat="48.82619" lon="2.46465">
        <ele>51.599998474121</ele>
        <time>2015-12-28T20:42:27Z</time>
      </trkpt>
      <trkpt lat="48.8264" lon="2.46461">
        <ele>53.400001525879</ele>
        <time>2015-12-28T20:42:32Z</time>
      </trkpt>
      <trkpt lat="48.82646" lon="2.46459">
        <ele>54</ele>
        <time>2015-12-28T20:42:34Z</time>
      </trkpt>
      <trkpt lat="48.82665" lon="2.46457">
        <ele>55.400001525879</ele>
        <time>2015-12-28T20:42:39Z</time>
      </trkpt>
      <trkpt lat="48.82685" lon="2.46454">
        <ele>57.20000076294</ele>
        <time>2015-12-28T20:42:45Z</time>
      </trkpt>
      <trkpt lat="48.82688" lon="2.46455">
        <ele>57.400001525879</ele>
        <time>2015-12-28T20:42:46Z</time>
      </trkpt>
      <trkpt lat="48.82695" lon="2.46455">
        <ele>58</ele>
        <time>2015-12-28T20:42:50Z</time>
      </trkpt>
      <trkpt lat="48.82696" lon="2.46454">
        <ele>58</ele>
        <time>2015-12-28T20:42:51Z</time>
      </trkpt>
      <trkpt lat="48.82701" lon="2.46451">
        <ele>58.400001525879</ele>
        <time>2015-12-28T20:42:57Z</time>
      </trkpt>
      <trkpt lat="48.82714" lon="2.46458">
        <ele>59</ele>
        <time>2015-12-28T20:44:08Z</time>
      </trkpt>
      <trkpt lat="48.82735" lon="2.46462">
        <ele>60.20000076294</ele>
        <time>2015-12-28T20:44:14Z</time>
      </trkpt>
      <trkpt lat="48.82753" lon="2.4647">
        <ele>60.79999923706</ele>
        <time>2015-12-28T20:44:19Z</time>
      </trkpt>
      <trkpt lat="48.82772" lon="2.46464">
        <ele>61.20000076294</ele>
        <time>2015-12-28T20:44:24Z</time>
      </trkpt>
      <trkpt lat="48.82794" lon="2.46455">
        <ele>60.599998474121</ele>
        <time>2015-12-28T20:44:29Z</time>
      </trkpt>
      <trkpt lat="48.82815" lon="2.46449">
        <ele>60.400001525879</ele>
        <time>2015-12-28T20:44:33Z</time>
      </trkpt>
      <trkpt lat="48.82833" lon="2.46447">
        <ele>60.400001525879</ele>
        <time>2015-12-28T20:44:36Z</time>
      </trkpt>
      <trkpt lat="48.82853" lon="2.4645">
        <ele>60.400001525879</ele>
        <time>2015-12-28T20:44:39Z</time>
      </trkpt>
      <trkpt lat="48.82875" lon="2.46456">
        <ele>60.20000076294</ele>
        <time>2015-12-28T20:44:43Z</time>
      </trkpt>
      <trkpt lat="48.82895" lon="2.46459">
        <ele>60</ele>
        <time>2015-12-28T20:44:47Z</time>
      </trkpt>
      <trkpt lat="48.8291" lon="2.46459">
        <ele>59.79999923706</ele>
        <time>2015-12-28T20:44:50Z</time>
      </trkpt>
      <trkpt lat="48.82931" lon="2.46463">
        <ele>59.400001525879</ele>
        <time>2015-12-28T20:44:54Z</time>
      </trkpt>
      <trkpt lat="48.82952" lon="2.46465">
        <ele>59.400001525879</ele>
        <time>2015-12-28T20:44:58Z</time>
      </trkpt>
      <trkpt lat="48.82972" lon="2.46465">
        <ele>60</ele>
        <time>2015-12-28T20:45:02Z</time>
      </trkpt>
      <trkpt lat="48.82984" lon="2.46467">
        <ele>60.20000076294</ele>
        <time>2015-12-28T20:45:04Z</time>
      </trkpt>
      <trkpt lat="48.83004" lon="2.46472">
        <ele>60.79999923706</ele>
        <time>2015-12-28T20:45:08Z</time>
      </trkpt>
      <trkpt lat="48.83025" lon="2.46475">
        <ele>61.20000076294</ele>
        <time>2015-12-28T20:45:12Z</time>
      </trkpt>
      <trkpt lat="48.83045" lon="2.46481">
        <ele>61.400001525879</ele>
        <time>2015-12-28T20:45:16Z</time>
      </trkpt>
      <trkpt lat="48.83068" lon="2.46488">
        <ele>61.599998474121</ele>
        <time>2015-12-28T20:45:20Z</time>
      </trkpt>
      <trkpt lat="48.83088" lon="2.46499">
        <ele>62</ele>
        <time>2015-12-28T20:45:24Z</time>
      </trkpt>
      <trkpt lat="48.83108" lon="2.46509">
        <ele>62</ele>
        <time>2015-12-28T20:45:28Z</time>
      </trkpt>
      <trkpt lat="48.83118" lon="2.46513">
        <ele>61.79999923706</ele>
        <time>2015-12-28T20:45:30Z</time>
      </trkpt>
      <trkpt lat="48.83133" lon="2.46524">
        <ele>61.599998474121</ele>
        <time>2015-12-28T20:45:33Z</time>
      </trkpt>
      <trkpt lat="48.8315" lon="2.46539">
        <ele>61.400001525879</ele>
        <time>2015-12-28T20:45:36Z</time>
      </trkpt>
      <trkpt lat="48.83171" lon="2.46556">
        <ele>61.20000076294</ele>
        <time>2015-12-28T20:45:40Z</time>
      </trkpt>
      <trkpt lat="48.83186" lon="2.46572">
        <ele>61</ele>
        <time>2015-12-28T20:45:43Z</time>
      </trkpt>
      <trkpt lat="48.83203" lon="2.46587">
        <ele>60.79999923706</ele>
        <time>2015-12-28T20:45:46Z</time>
      </trkpt>
      <trkpt lat="48.83208" lon="2.46594">
        <ele>60.79999923706</ele>
        <time>2015-12-28T20:45:47Z</time>
      </trkpt>
      <trkpt lat="48.83223" lon="2.46614">
        <ele>60.599998474121</ele>
        <time>2015-12-28T20:45:50Z</time>
      </trkpt>
      <trkpt lat="48.83238" lon="2.46635">
        <ele>60.400001525879</ele>
        <time>2015-12-28T20:45:53Z</time>
      </trkpt>
      <trkpt lat="48.83253" lon="2.46656">
        <ele>60.400001525879</ele>
        <time>2015-12-28T20:45:56Z</time>
      </trkpt>
      <trkpt lat="48.83266" lon="2.46678">
        <ele>60.20000076294</ele>
        <time>2015-12-28T20:45:59Z</time>
      </trkpt>
      <trkpt lat="48.83279" lon="2.46699">
        <ele>60.400001525879</ele>
        <time>2015-12-28T20:46:02Z</time>
      </trkpt>
      <trkpt lat="48.83292" lon="2.46725">
        <ele>60.79999923706</ele>
        <time>2015-12-28T20:46:05Z</time>
      </trkpt>
      <trkpt lat="48.83306" lon="2.46753">
        <ele>61</ele>
        <time>2015-12-28T20:46:09Z</time>
      </trkpt>
      <trkpt lat="48.83315" lon="2.46776">
        <ele>61</ele>
        <time>2015-12-28T20:46:13Z</time>
      </trkpt>
      <trkpt lat="48.83318" lon="2.46781">
        <ele>61</ele>
        <time>2015-12-28T20:46:14Z</time>
      </trkpt>
      <trkpt lat="48.83331" lon="2.46809">
        <ele>61</ele>
        <time>2015-12-28T20:46:19Z</time>
      </trkpt>
      <trkpt lat="48.83338" lon="2.46826">
        <ele>61.20000076294</ele>
        <time>2015-12-28T20:46:22Z</time>
      </trkpt>
      <trkpt lat="48.83351" lon="2.46847">
        <ele>61</ele>
        <time>2015-12-28T20:46:26Z</time>
      </trkpt>
      <trkpt lat="48.83364" lon="2.46866">
        <ele>61</ele>
        <time>2015-12-28T20:46:30Z</time>
      </trkpt>
      <trkpt lat="48.83374" lon="2.4688">
        <ele>61</ele>
        <time>2015-12-28T20:46:33Z</time>
      </trkpt>
      <trkpt lat="48.83391" lon="2.46894">
        <ele>61</ele>
        <time>2015-12-28T20:46:37Z</time>
      </trkpt>
      <trkpt lat="48.83409" lon="2.46907">
        <ele>61</ele>
        <time>2015-12-28T20:46:41Z</time>
      </trkpt>
      <trkpt lat="48.83429" lon="2.46919">
        <ele>61</ele>
        <time>2015-12-28T20:46:45Z</time>
      </trkpt>
      <trkpt lat="48.83447" lon="2.46932">
        <ele>61.400001525879</ele>
        <time>2015-12-28T20:46:49Z</time>
      </trkpt>
      <trkpt lat="48.83469" lon="2.46938">
        <ele>62.400001525879</ele>
        <time>2015-12-28T20:46:53Z</time>
      </trkpt>
      <trkpt lat="48.83487" lon="2.46944">
        <ele>63</ele>
        <time>2015-12-28T20:46:56Z</time>
      </trkpt>
      <trkpt lat="48.83506" lon="2.46948">
        <ele>63.79999923706</ele>
        <time>2015-12-28T20:46:59Z</time>
      </trkpt>
      <trkpt lat="48.83511" lon="2.4695">
        <ele>64</ele>
        <time>2015-12-28T20:47:00Z</time>
      </trkpt>
      <trkpt lat="48.83532" lon="2.46958">
        <ele>64.599998474121</ele>
        <time>2015-12-28T20:47:04Z</time>
      </trkpt>
      <trkpt lat="48.83554" lon="2.46963">
        <ele>64.599998474121</ele>
        <time>2015-12-28T20:47:08Z</time>
      </trkpt>
      <trkpt lat="48.83559" lon="2.46963">
        <ele>64.599998474121</ele>
        <time>2015-12-28T20:47:09Z</time>
      </trkpt>
      <trkpt lat="48.83579" lon="2.46965">
        <ele>64.599998474121</ele>
        <time>2015-12-28T20:47:14Z</time>
      </trkpt>
      <trkpt lat="48.83583" lon="2.46965">
        <ele>64.599998474121</ele>
        <time>2015-12-28T20:47:15Z</time>
      </trkpt>
      <trkpt lat="48.8359" lon="2.46965">
        <ele>64.599998474121</ele>
        <time>2015-12-28T20:47:17Z</time>
      </trkpt>
      <trkpt lat="48.83599" lon="2.46966">
        <ele>64.599998474121</ele>
        <time>2015-12-28T20:47:20Z</time>
      </trkpt>
      <trkpt lat="48.83609" lon="2.46968">
        <ele>64.599998474121</ele>
        <time>2015-12-28T20:47:26Z</time>
      </trkpt>
      <trkpt lat="48.83616" lon="2.46966">
        <ele>64.199996948242</ele>
        <time>2015-12-28T20:47:35Z</time>
      </trkpt>
      <trkpt lat="48.83628" lon="2.46982">
        <ele>64</ele>
        <time>2015-12-28T20:47:44Z</time>
      </trkpt>
      <trkpt lat="48.83634" lon="2.46996">
        <ele>64</ele>
        <time>2015-12-28T20:49:02Z</time>
      </trkpt>
      <trkpt lat="48.83653" lon="2.46983">
        <ele>63.20000076294</ele>
        <time>2015-12-28T20:49:12Z</time>
      </trkpt>
      <trkpt lat="48.8367" lon="2.4697">
        <ele>62.599998474121</ele>
        <time>2015-12-28T20:49:17Z</time>
      </trkpt>
      <trkpt lat="48.83689" lon="2.46959">
        <ele>62.400001525879</ele>
        <time>2015-12-28T20:49:22Z</time>
      </trkpt>
      <trkpt lat="48.83706" lon="2.46942">
        <ele>62.599998474121</ele>
        <time>2015-12-28T20:49:27Z</time>
      </trkpt>
      <trkpt lat="48.83722" lon="2.46924">
        <ele>63</ele>
        <time>2015-12-28T20:49:33Z</time>
      </trkpt>
      <trkpt lat="48.83739" lon="2.46905">
        <ele>62.79999923706</ele>
        <time>2015-12-28T20:49:38Z</time>
      </trkpt>
      <trkpt lat="48.83757" lon="2.46884">
        <ele>62.20000076294</ele>
        <time>2015-12-28T20:49:43Z</time>
      </trkpt>
      <trkpt lat="48.83773" lon="2.46867">
        <ele>61.79999923706</ele>
        <time>2015-12-28T20:49:48Z</time>
      </trkpt>
      <trkpt lat="48.8379" lon="2.46849">
        <ele>61.20000076294</ele>
        <time>2015-12-28T20:49:53Z</time>
      </trkpt>
      <trkpt lat="48.83805" lon="2.46833">
        <ele>61.400001525879</ele>
        <time>2015-12-28T20:49:58Z</time>
      </trkpt>
      <trkpt lat="48.83821" lon="2.46814">
        <ele>61.400001525879</ele>
        <time>2015-12-28T20:50:03Z</time>
      </trkpt>
      <trkpt lat="48.83836" lon="2.46796">
        <ele>61.599998474121</ele>
        <time>2015-12-28T20:50:08Z</time>
      </trkpt>
      <trkpt lat="48.83852" lon="2.46779">
        <ele>62</ele>
        <time>2015-12-28T20:50:12Z</time>
      </trkpt>
      <trkpt lat="48.83869" lon="2.46764">
        <ele>62.20000076294</ele>
        <time>2015-12-28T20:50:16Z</time>
      </trkpt>
      <trkpt lat="48.83886" lon="2.46746">
        <ele>61.599998474121</ele>
        <time>2015-12-28T20:50:21Z</time>
      </trkpt>
      <trkpt lat="48.83901" lon="2.4673">
        <ele>60.79999923706</ele>
        <time>2015-12-28T20:50:25Z</time>
      </trkpt>
      <trkpt lat="48.83911" lon="2.46719">
        <ele>60.20000076294</ele>
        <time>2015-12-28T20:50:28Z</time>
      </trkpt>
      <trkpt lat="48.83924" lon="2.46709">
        <ele>60</ele>
        <time>2015-12-28T20:50:32Z</time>
      </trkpt>
      <trkpt lat="48.83943" lon="2.46693">
        <ele>59.599998474121</ele>
        <time>2015-12-28T20:50:37Z</time>
      </trkpt>
      <trkpt lat="48.83962" lon="2.46678">
        <ele>59.79999923706</ele>
        <time>2015-12-28T20:50:42Z</time>
      </trkpt>
      <trkpt lat="48.83983" lon="2.46663">
        <ele>60.20000076294</ele>
        <time>2015-12-28T20:50:47Z</time>
      </trkpt>
      <trkpt lat="48.83999" lon="2.46649">
        <ele>60.79999923706</ele>
        <time>2015-12-28T20:50:51Z</time>
      </trkpt>
      <trkpt lat="48.84006" lon="2.46643">
        <ele>61.20000076294</ele>
        <time>2015-12-28T20:50:53Z</time>
      </trkpt>
      <trkpt lat="48.84012" lon="2.46636">
        <ele>61.400001525879</ele>
        <time>2015-12-28T20:50:55Z</time>
      </trkpt>
      <trkpt lat="48.8402" lon="2.46629">
        <ele>61.79999923706</ele>
        <time>2015-12-28T20:50:57Z</time>
      </trkpt>
      <trkpt lat="48.84034" lon="2.46614">
        <ele>62.599998474121</ele>
        <time>2015-12-28T20:51:01Z</time>
      </trkpt>
      <trkpt lat="48.8405" lon="2.46595">
        <ele>63</ele>
        <time>2015-12-28T20:51:05Z</time>
      </trkpt>
      <trkpt lat="48.84064" lon="2.46575">
        <ele>63</ele>
        <time>2015-12-28T20:51:09Z</time>
      </trkpt>
      <trkpt lat="48.84078" lon="2.46554">
        <ele>62.599998474121</ele>
        <time>2015-12-28T20:51:13Z</time>
      </trkpt>
      <trkpt lat="48.84093" lon="2.46533">
        <ele>62.79999923706</ele>
        <time>2015-12-28T20:51:17Z</time>
      </trkpt>
      <trkpt lat="48.84109" lon="2.46512">
        <ele>63</ele>
        <time>2015-12-28T20:51:21Z</time>
      </trkpt>
      <trkpt lat="48.84119" lon="2.46497">
        <ele>63</ele>
        <time>2015-12-28T20:51:24Z</time>
      </trkpt>
      <trkpt lat="48.84132" lon="2.46476">
        <ele>62.79999923706</ele>
        <time>2015-12-28T20:51:28Z</time>
      </trkpt>
      <trkpt lat="48.84144" lon="2.46452">
        <ele>62.400001525879</ele>
        <time>2015-12-28T20:51:32Z</time>
      </trkpt>
      <trkpt lat="48.84157" lon="2.46427">
        <ele>63.20000076294</ele>
        <time>2015-12-28T20:51:36Z</time>
      </trkpt>
      <trkpt lat="48.84171" lon="2.46402">
        <ele>62.79999923706</ele>
        <time>2015-12-28T20:51:40Z</time>
      </trkpt>
      <trkpt lat="48.84183" lon="2.46379">
        <ele>62.79999923706</ele>
        <time>2015-12-28T20:51:44Z</time>
      </trkpt>
      <trkpt lat="48.84194" lon="2.46357">
        <ele>62.599998474121</ele>
        <time>2015-12-28T20:51:48Z</time>
      </trkpt>
      <trkpt lat="48.84208" lon="2.46334">
        <ele>62</ele>
        <time>2015-12-28T20:51:53Z</time>
      </trkpt>
      <trkpt lat="48.84214" lon="2.46322">
        <ele>61.599998474121</ele>
        <time>2015-12-28T20:51:56Z</time>
      </trkpt>
      <trkpt lat="48.84214" lon="2.46312">
        <ele>61</ele>
        <time>2015-12-28T20:51:59Z</time>
      </trkpt>
      <trkpt lat="48.84221" lon="2.46308">
        <ele>60.79999923706</ele>
        <time>2015-12-28T20:52:05Z</time>
      </trkpt>
      <trkpt lat="48.84236" lon="2.46288">
        <ele>59.79999923706</ele>
        <time>2015-12-28T20:52:44Z</time>
      </trkpt>
      <trkpt lat="48.84245" lon="2.46261">
        <ele>58.599998474121</ele>
        <time>2015-12-28T20:52:50Z</time>
      </trkpt>
      <trkpt lat="48.84254" lon="2.46233">
        <ele>57.79999923706</ele>
        <time>2015-12-28T20:52:55Z</time>
      </trkpt>
      <trkpt lat="48.84261" lon="2.46204">
        <ele>58.20000076294</ele>
        <time>2015-12-28T20:52:59Z</time>
      </trkpt>
      <trkpt lat="48.84268" lon="2.46177">
        <ele>58.79999923706</ele>
        <time>2015-12-28T20:53:03Z</time>
      </trkpt>
      <trkpt lat="48.84275" lon="2.46145">
        <ele>59.599998474121</ele>
        <time>2015-12-28T20:53:08Z</time>
      </trkpt>
      <trkpt lat="48.84282" lon="2.46116">
        <ele>60.400001525879</ele>
        <time>2015-12-28T20:53:12Z</time>
      </trkpt>
      <trkpt lat="48.8429" lon="2.46084">
        <ele>60.20000076294</ele>
        <time>2015-12-28T20:53:16Z</time>
      </trkpt>
      <trkpt lat="48.84298" lon="2.46055">
        <ele>58.79999923706</ele>
        <time>2015-12-28T20:53:20Z</time>
      </trkpt>
      <trkpt lat="48.84305" lon="2.46028">
        <ele>57.599998474121</ele>
        <time>2015-12-28T20:53:24Z</time>
      </trkpt>
      <trkpt lat="48.8431" lon="2.46001">
        <ele>57.599998474121</ele>
        <time>2015-12-28T20:53:28Z</time>
      </trkpt>
      <trkpt lat="48.84317" lon="2.45972">
        <ele>57.400001525879</ele>
        <time>2015-12-28T20:53:32Z</time>
      </trkpt>
      <trkpt lat="48.84324" lon="2.45946">
        <ele>57.599998474121</ele>
        <time>2015-12-28T20:53:35Z</time>
      </trkpt>
      <trkpt lat="48.84332" lon="2.45914">
        <ele>58</ele>
        <time>2015-12-28T20:53:39Z</time>
      </trkpt>
      <trkpt lat="48.84338" lon="2.45882">
        <ele>58</ele>
        <time>2015-12-28T20:53:43Z</time>
      </trkpt>
      <trkpt lat="48.84339" lon="2.45875">
        <ele>58</ele>
        <time>2015-12-28T20:53:44Z</time>
      </trkpt>
      <trkpt lat="48.84345" lon="2.45843">
        <ele>57.400001525879</ele>
        <time>2015-12-28T20:53:48Z</time>
      </trkpt>
      <trkpt lat="48.8435" lon="2.4581">
        <ele>57.400001525879</ele>
        <time>2015-12-28T20:53:52Z</time>
      </trkpt>
      <trkpt lat="48.84355" lon="2.45778">
        <ele>57.599998474121</ele>
        <time>2015-12-28T20:53:56Z</time>
      </trkpt>
      <trkpt lat="48.8436" lon="2.45749">
        <ele>57.79999923706</ele>
        <time>2015-12-28T20:54:00Z</time>
      </trkpt>
      <trkpt lat="48.84365" lon="2.45718">
        <ele>57.79999923706</ele>
        <time>2015-12-28T20:54:04Z</time>
      </trkpt>
      <trkpt lat="48.8437" lon="2.45689">
        <ele>57.599998474121</ele>
        <time>2015-12-28T20:54:08Z</time>
      </trkpt>
      <trkpt lat="48.84371" lon="2.45682">
        <ele>57.599998474121</ele>
        <time>2015-12-28T20:54:09Z</time>
      </trkpt>
      <trkpt lat="48.84376" lon="2.45652">
        <ele>57.599998474121</ele>
        <time>2015-12-28T20:54:13Z</time>
      </trkpt>
      <trkpt lat="48.8438" lon="2.45624">
        <ele>57.400001525879</ele>
        <time>2015-12-28T20:54:17Z</time>
      </trkpt>
      <trkpt lat="48.84381" lon="2.45616">
        <ele>57.400001525879</ele>
        <time>2015-12-28T20:54:18Z</time>
      </trkpt>
      <trkpt lat="48.84383" lon="2.45586">
        <ele>57.599998474121</ele>
        <time>2015-12-28T20:54:22Z</time>
      </trkpt>
      <trkpt lat="48.84385" lon="2.45571">
        <ele>57.599998474121</ele>
        <time>2015-12-28T20:54:24Z</time>
      </trkpt>
      <trkpt lat="48.84387" lon="2.45537">
        <ele>57</ele>
        <time>2015-12-28T20:54:28Z</time>
      </trkpt>
      <trkpt lat="48.84392" lon="2.45504">
        <ele>56.20000076294</ele>
        <time>2015-12-28T20:54:32Z</time>
      </trkpt>
      <trkpt lat="48.84395" lon="2.45472">
        <ele>55.400001525879</ele>
        <time>2015-12-28T20:54:36Z</time>
      </trkpt>
      <trkpt lat="48.84398" lon="2.45441">
        <ele>54.79999923706</ele>
        <time>2015-12-28T20:54:40Z</time>
      </trkpt>
      <trkpt lat="48.84404" lon="2.45411">
        <ele>54.400001525879</ele>
        <time>2015-12-28T20:54:44Z</time>
      </trkpt>
      <trkpt lat="48.84408" lon="2.45382">
        <ele>54.400001525879</ele>
        <time>2015-12-28T20:54:48Z</time>
      </trkpt>
      <trkpt lat="48.84408" lon="2.45375">
        <ele>54.400001525879</ele>
        <time>2015-12-28T20:54:49Z</time>
      </trkpt>
      <trkpt lat="48.84412" lon="2.45346">
        <ele>54.400001525879</ele>
        <time>2015-12-28T20:54:53Z</time>
      </trkpt>
      <trkpt lat="48.84415" lon="2.45315">
        <ele>54</ele>
        <time>2015-12-28T20:54:57Z</time>
      </trkpt>
      <trkpt lat="48.84419" lon="2.45286">
        <ele>54.400001525879</ele>
        <time>2015-12-28T20:55:01Z</time>
      </trkpt>
      <trkpt lat="48.84424" lon="2.45251">
        <ele>54.79999923706</ele>
        <time>2015-12-28T20:55:06Z</time>
      </trkpt>
      <trkpt lat="48.84429" lon="2.45221">
        <ele>55</ele>
        <time>2015-12-28T20:55:10Z</time>
      </trkpt>
      <trkpt lat="48.84433" lon="2.45191">
        <ele>55</ele>
        <time>2015-12-28T20:55:14Z</time>
      </trkpt>
      <trkpt lat="48.84435" lon="2.45184">
        <ele>55</ele>
        <time>2015-12-28T20:55:15Z</time>
      </trkpt>
      <trkpt lat="48.84439" lon="2.45155">
        <ele>54.79999923706</ele>
        <time>2015-12-28T20:55:19Z</time>
      </trkpt>
      <trkpt lat="48.84445" lon="2.45129">
        <ele>54.599998474121</ele>
        <time>2015-12-28T20:55:23Z</time>
      </trkpt>
      <trkpt lat="48.84449" lon="2.45112">
        <ele>54.599998474121</ele>
        <time>2015-12-28T20:55:26Z</time>
      </trkpt>
      <trkpt lat="48.84453" lon="2.45092">
        <ele>54.400001525879</ele>
        <time>2015-12-28T20:55:31Z</time>
      </trkpt>
      <trkpt lat="48.84453" lon="2.45082">
        <ele>54.599998474121</ele>
        <time>2015-12-28T20:55:33Z</time>
      </trkpt>
      <trkpt lat="48.84455" lon="2.45068">
        <ele>54.400001525879</ele>
        <time>2015-12-28T20:55:36Z</time>
      </trkpt>
      <trkpt lat="48.84457" lon="2.4505">
        <ele>54.20000076294</ele>
        <time>2015-12-28T20:55:40Z</time>
      </trkpt>
      <trkpt lat="48.84458" lon="2.4504">
        <ele>54.20000076294</ele>
        <time>2015-12-28T20:55:42Z</time>
      </trkpt>
      <trkpt lat="48.84463" lon="2.45011">
        <ele>54.20000076294</ele>
        <time>2015-12-28T20:55:47Z</time>
      </trkpt>
      <trkpt lat="48.84465" lon="2.44991">
        <ele>54.400001525879</ele>
        <time>2015-12-28T20:55:50Z</time>
      </trkpt>
      <trkpt lat="48.84465" lon="2.4497">
        <ele>55</ele>
        <time>2015-12-28T20:55:54Z</time>
      </trkpt>
      <trkpt lat="48.84468" lon="2.4494">
        <ele>55.599998474121</ele>
        <time>2015-12-28T20:55:59Z</time>
      </trkpt>
      <trkpt lat="48.8447" lon="2.44914">
        <ele>55.400001525879</ele>
        <time>2015-12-28T20:56:03Z</time>
      </trkpt>
      <trkpt lat="48.84471" lon="2.44884">
        <ele>55.79999923706</ele>
        <time>2015-12-28T20:56:07Z</time>
      </trkpt>
      <trkpt lat="48.84474" lon="2.44852">
        <ele>55.599998474121</ele>
        <time>2015-12-28T20:56:11Z</time>
      </trkpt>
      <trkpt lat="48.84478" lon="2.44818">
        <ele>54.79999923706</ele>
        <time>2015-12-28T20:56:15Z</time>
      </trkpt>
      <trkpt lat="48.84481" lon="2.44791">
        <ele>54</ele>
        <time>2015-12-28T20:56:18Z</time>
      </trkpt>
      <trkpt lat="48.84487" lon="2.44762">
        <ele>53.599998474121</ele>
        <time>2015-12-28T20:56:21Z</time>
      </trkpt>
      <trkpt lat="48.84491" lon="2.44729">
        <ele>53.599998474121</ele>
        <time>2015-12-28T20:56:25Z</time>
      </trkpt>
      <trkpt lat="48.84492" lon="2.44722">
        <ele>53.599998474121</ele>
        <time>2015-12-28T20:56:26Z</time>
      </trkpt>
      <trkpt lat="48.84494" lon="2.44706">
        <ele>53.79999923706</ele>
        <time>2015-12-28T20:56:28Z</time>
      </trkpt>
      <trkpt lat="48.84496" lon="2.44678">
        <ele>54.20000076294</ele>
        <time>2015-12-28T20:56:32Z</time>
      </trkpt>
      <trkpt lat="48.845" lon="2.44658">
        <ele>54</ele>
        <time>2015-12-28T20:56:36Z</time>
      </trkpt>
      <trkpt lat="48.845" lon="2.44653">
        <ele>54</ele>
        <time>2015-12-28T20:56:38Z</time>
      </trkpt>
      <trkpt lat="48.84518" lon="2.44651">
        <ele>54</ele>
        <time>2015-12-28T20:57:02Z</time>
      </trkpt>
      <trkpt lat="48.84536" lon="2.44644">
        <ele>53.599998474121</ele>
        <time>2015-12-28T20:57:08Z</time>
      </trkpt>
      <trkpt lat="48.84555" lon="2.44639">
        <ele>53.20000076294</ele>
        <time>2015-12-28T20:57:15Z</time>
      </trkpt>
      <trkpt lat="48.84568" lon="2.44636">
        <ele>52.79999923706</ele>
        <time>2015-12-28T20:57:20Z</time>
      </trkpt>
      <trkpt lat="48.8457" lon="2.44625">
        <ele>53</ele>
        <time>2015-12-28T20:57:24Z</time>
      </trkpt>
      <trkpt lat="48.84572" lon="2.44595">
        <ele>53.599998474121</ele>
        <time>2015-12-28T20:57:31Z</time>
      </trkpt>
      <trkpt lat="48.84577" lon="2.44569">
        <ele>54.20000076294</ele>
        <time>2015-12-28T20:57:37Z</time>
      </trkpt>
      <trkpt lat="48.84577" lon="2.4454">
        <ele>54.79999923706</ele>
        <time>2015-12-28T20:57:42Z</time>
      </trkpt>
      <trkpt lat="48.84579" lon="2.44508">
        <ele>56</ele>
        <time>2015-12-28T20:57:48Z</time>
      </trkpt>
      <trkpt lat="48.84582" lon="2.44478">
        <ele>56.20000076294</ele>
        <time>2015-12-28T20:57:53Z</time>
      </trkpt>
      <trkpt lat="48.84585" lon="2.44448">
        <ele>55.599998474121</ele>
        <time>2015-12-28T20:57:57Z</time>
      </trkpt>
      <trkpt lat="48.84586" lon="2.44419">
        <ele>54.79999923706</ele>
        <time>2015-12-28T20:58:01Z</time>
      </trkpt>
      <trkpt lat="48.84586" lon="2.44388">
        <ele>54.20000076294</ele>
        <time>2015-12-28T20:58:05Z</time>
      </trkpt>
      <trkpt lat="48.84588" lon="2.44356">
        <ele>53.79999923706</ele>
        <time>2015-12-28T20:58:09Z</time>
      </trkpt>
      <trkpt lat="48.84591" lon="2.44328">
        <ele>53.599998474121</ele>
        <time>2015-12-28T20:58:13Z</time>
      </trkpt>
      <trkpt lat="48.84592" lon="2.44299">
        <ele>53.79999923706</ele>
        <time>2015-12-28T20:58:17Z</time>
      </trkpt>
      <trkpt lat="48.84592" lon="2.44271">
        <ele>54</ele>
        <time>2015-12-28T20:58:21Z</time>
      </trkpt>
      <trkpt lat="48.84593" lon="2.44265">
        <ele>54.20000076294</ele>
        <time>2015-12-28T20:58:22Z</time>
      </trkpt>
      <trkpt lat="48.8459" lon="2.44232">
        <ele>54.400001525879</ele>
        <time>2015-12-28T20:58:27Z</time>
      </trkpt>
      <trkpt lat="48.84591" lon="2.44205">
        <ele>54.400001525879</ele>
        <time>2015-12-28T20:58:30Z</time>
      </trkpt>
      <trkpt lat="48.8459" lon="2.44176">
        <ele>54.400001525879</ele>
        <time>2015-12-28T20:58:34Z</time>
      </trkpt>
      <trkpt lat="48.84592" lon="2.44146">
        <ele>54.79999923706</ele>
        <time>2015-12-28T20:58:38Z</time>
      </trkpt>
      <trkpt lat="48.84592" lon="2.44113">
        <ele>54</ele>
        <time>2015-12-28T20:58:43Z</time>
      </trkpt>
      <trkpt lat="48.84594" lon="2.44084">
        <ele>53.400001525879</ele>
        <time>2015-12-28T20:58:48Z</time>
      </trkpt>
      <trkpt lat="48.84595" lon="2.44061">
        <ele>53.20000076294</ele>
        <time>2015-12-28T20:58:51Z</time>
      </trkpt>
      <trkpt lat="48.84596" lon="2.44045">
        <ele>53.20000076294</ele>
        <time>2015-12-28T20:58:54Z</time>
      </trkpt>
      <trkpt lat="48.84601" lon="2.44018">
        <ele>53</ele>
        <time>2015-12-28T20:58:59Z</time>
      </trkpt>
      <trkpt lat="48.84603" lon="2.43989">
        <ele>53.20000076294</ele>
        <time>2015-12-28T20:59:11Z</time>
      </trkpt>
      <trkpt lat="48.84601" lon="2.43974">
        <ele>53.400001525879</ele>
        <time>2015-12-28T20:59:21Z</time>
      </trkpt>
      <trkpt lat="48.84597" lon="2.43965">
        <ele>53.599998474121</ele>
        <time>2015-12-28T20:59:29Z</time>
      </trkpt>
      <trkpt lat="48.84596" lon="2.43953">
        <ele>53.599998474121</ele>
        <time>2015-12-28T20:59:38Z</time>
      </trkpt>
      <trkpt lat="48.84593" lon="2.43935">
        <ele>54</ele>
        <time>2015-12-28T20:59:46Z</time>
      </trkpt>
      <trkpt lat="48.84591" lon="2.43929">
        <ele>54</ele>
        <time>2015-12-28T20:59:48Z</time>
      </trkpt>
      <trkpt lat="48.8459" lon="2.43925">
        <ele>54</ele>
        <time>2015-12-28T20:59:50Z</time>
      </trkpt>
      <trkpt lat="48.84593" lon="2.43907">
        <ele>54.20000076294</ele>
        <time>2015-12-28T21:00:02Z</time>
      </trkpt>
      <trkpt lat="48.84593" lon="2.43882">
        <ele>55.599998474121</ele>
        <time>2015-12-28T21:00:10Z</time>
      </trkpt>
      <trkpt lat="48.84594" lon="2.43877">
        <ele>56</ele>
        <time>2015-12-28T21:00:11Z</time>
      </trkpt>
      <trkpt lat="48.84598" lon="2.43849">
        <ele>57.79999923706</ele>
        <time>2015-12-28T21:00:18Z</time>
      </trkpt>
      <trkpt lat="48.84606" lon="2.43824">
        <ele>59</ele>
        <time>2015-12-28T21:00:24Z</time>
      </trkpt>
      <trkpt lat="48.84607" lon="2.43796">
        <ele>58.599998474121</ele>
        <time>2015-12-28T21:00:30Z</time>
      </trkpt>
      <trkpt lat="48.84613" lon="2.43769">
        <ele>58</ele>
        <time>2015-12-28T21:00:34Z</time>
      </trkpt>
      <trkpt lat="48.8462" lon="2.43733">
        <ele>57.599998474121</ele>
        <time>2015-12-28T21:00:39Z</time>
      </trkpt>
      <trkpt lat="48.84624" lon="2.43702">
        <ele>57.20000076294</ele>
        <time>2015-12-28T21:00:44Z</time>
      </trkpt>
      <trkpt lat="48.84628" lon="2.43687">
        <ele>57</ele>
        <time>2015-12-28T21:00:47Z</time>
      </trkpt>
      <trkpt lat="48.84634" lon="2.43657">
        <ele>56.20000076294</ele>
        <time>2015-12-28T21:00:53Z</time>
      </trkpt>
      <trkpt lat="48.84639" lon="2.4363">
        <ele>55.79999923706</ele>
        <time>2015-12-28T21:00:58Z</time>
      </trkpt>
      <trkpt lat="48.84642" lon="2.43603">
        <ele>55.599998474121</ele>
        <time>2015-12-28T21:01:03Z</time>
      </trkpt>
      <trkpt lat="48.84644" lon="2.43573">
        <ele>56</ele>
        <time>2015-12-28T21:01:09Z</time>
      </trkpt>
      <trkpt lat="48.84647" lon="2.43549">
        <ele>57.20000076294</ele>
        <time>2015-12-28T21:01:14Z</time>
      </trkpt>
      <trkpt lat="48.84653" lon="2.4353">
        <ele>58</ele>
        <time>2015-12-28T21:01:21Z</time>
      </trkpt>
      <trkpt lat="48.84672" lon="2.4352">
        <ele>58.20000076294</ele>
        <time>2015-12-28T21:01:28Z</time>
      </trkpt>
      <trkpt lat="48.84693" lon="2.43521">
        <ele>58</ele>
        <time>2015-12-28T21:01:34Z</time>
      </trkpt>
      <trkpt lat="48.84711" lon="2.43515">
        <ele>58.79999923706</ele>
        <time>2015-12-28T21:01:42Z</time>
      </trkpt>
      <trkpt lat="48.8472" lon="2.43488">
        <ele>58.599998474121</ele>
        <time>2015-12-28T21:01:48Z</time>
      </trkpt>
      <trkpt lat="48.84727" lon="2.43461">
        <ele>58.599998474121</ele>
        <time>2015-12-28T21:01:55Z</time>
      </trkpt>
      <trkpt lat="48.84739" lon="2.43445">
        <ele>58.599998474121</ele>
        <time>2015-12-28T21:02:02Z</time>
      </trkpt>
      <trkpt lat="48.84742" lon="2.43417">
        <ele>59</ele>
        <time>2015-12-28T21:02:09Z</time>
      </trkpt>
      <trkpt lat="48.8474" lon="2.43388">
        <ele>58.599998474121</ele>
        <time>2015-12-28T21:02:16Z</time>
      </trkpt>
      <trkpt lat="48.84739" lon="2.43357">
        <ele>58.400001525879</ele>
        <time>2015-12-28T21:02:23Z</time>
      </trkpt>
      <trkpt lat="48.84741" lon="2.43328">
        <ele>57.79999923706</ele>
        <time>2015-12-28T21:02:33Z</time>
      </trkpt>
      <trkpt lat="48.84742" lon="2.43297">
        <ele>56.79999923706</ele>
        <time>2015-12-28T21:02:42Z</time>
      </trkpt>
      <trkpt lat="48.84741" lon="2.43268">
        <ele>55.79999923706</ele>
        <time>2015-12-28T21:02:47Z</time>
      </trkpt>
      <trkpt lat="48.84742" lon="2.43236">
        <ele>54.599998474121</ele>
        <time>2015-12-28T21:02:52Z</time>
      </trkpt>
      <trkpt lat="48.84741" lon="2.43208">
        <ele>54.20000076294</ele>
        <time>2015-12-28T21:02:56Z</time>
      </trkpt>
      <trkpt lat="48.84744" lon="2.43177">
        <ele>53.79999923706</ele>
        <time>2015-12-28T21:03:00Z</time>
      </trkpt>
      <trkpt lat="48.84745" lon="2.43149">
        <ele>53.79999923706</ele>
        <time>2015-12-28T21:03:04Z</time>
      </trkpt>
      <trkpt lat="48.84746" lon="2.4312">
        <ele>53.79999923706</ele>
        <time>2015-12-28T21:03:08Z</time>
      </trkpt>
      <trkpt lat="48.84747" lon="2.43088">
        <ele>53.400001525879</ele>
        <time>2015-12-28T21:03:13Z</time>
      </trkpt>
      <trkpt lat="48.84747" lon="2.43058">
        <ele>53.599998474121</ele>
        <time>2015-12-28T21:03:18Z</time>
      </trkpt>
      <trkpt lat="48.84746" lon="2.43028">
        <ele>54</ele>
        <time>2015-12-28T21:03:22Z</time>
      </trkpt>
      <trkpt lat="48.84745" lon="2.42998">
        <ele>54.400001525879</ele>
        <time>2015-12-28T21:03:26Z</time>
      </trkpt>
      <trkpt lat="48.84743" lon="2.42964">
        <ele>53.599998474121</ele>
        <time>2015-12-28T21:03:30Z</time>
      </trkpt>
      <trkpt lat="48.8474" lon="2.42929">
        <ele>53.20000076294</ele>
        <time>2015-12-28T21:03:34Z</time>
      </trkpt>
      <trkpt lat="48.84735" lon="2.42897">
        <ele>52.79999923706</ele>
        <time>2015-12-28T21:03:38Z</time>
      </trkpt>
      <trkpt lat="48.84729" lon="2.42865">
        <ele>52.20000076294</ele>
        <time>2015-12-28T21:03:42Z</time>
      </trkpt>
      <trkpt lat="48.84727" lon="2.42833">
        <ele>51.599998474121</ele>
        <time>2015-12-28T21:03:46Z</time>
      </trkpt>
      <trkpt lat="48.84723" lon="2.42803">
        <ele>51.599998474121</ele>
        <time>2015-12-28T21:03:50Z</time>
      </trkpt>
      <trkpt lat="48.84723" lon="2.42795">
        <ele>51.599998474121</ele>
        <time>2015-12-28T21:03:51Z</time>
      </trkpt>
      <trkpt lat="48.84723" lon="2.42772">
        <ele>51.79999923706</ele>
        <time>2015-12-28T21:03:54Z</time>
      </trkpt>
      <trkpt lat="48.84719" lon="2.42744">
        <ele>52.400001525879</ele>
        <time>2015-12-28T21:03:59Z</time>
      </trkpt>
      <trkpt lat="48.84718" lon="2.42737">
        <ele>52.400001525879</ele>
        <time>2015-12-28T21:04:00Z</time>
      </trkpt>
      <trkpt lat="48.84716" lon="2.42712">
        <ele>52.79999923706</ele>
        <time>2015-12-28T21:04:04Z</time>
      </trkpt>
      <trkpt lat="48.84711" lon="2.42683">
        <ele>53.20000076294</ele>
        <time>2015-12-28T21:04:09Z</time>
      </trkpt>
      <trkpt lat="48.8471" lon="2.42679">
        <ele>53.20000076294</ele>
        <time>2015-12-28T21:04:10Z</time>
      </trkpt>
      <trkpt lat="48.84705" lon="2.42652">
        <ele>53.400001525879</ele>
        <time>2015-12-28T21:04:16Z</time>
      </trkpt>
      <trkpt lat="48.84703" lon="2.42642">
        <ele>53.400001525879</ele>
        <time>2015-12-28T21:04:18Z</time>
      </trkpt>
      <trkpt lat="48.84701" lon="2.42626">
        <ele>53.20000076294</ele>
        <time>2015-12-28T21:04:21Z</time>
      </trkpt>
      <trkpt lat="48.84694" lon="2.42597">
        <ele>53.20000076294</ele>
        <time>2015-12-28T21:04:26Z</time>
      </trkpt>
      <trkpt lat="48.84691" lon="2.42585">
        <ele>53</ele>
        <time>2015-12-28T21:04:28Z</time>
      </trkpt>
      <trkpt lat="48.84683" lon="2.42558">
        <ele>52.79999923706</ele>
        <time>2015-12-28T21:04:32Z</time>
      </trkpt>
      <trkpt lat="48.84678" lon="2.42545">
        <ele>52.599998474121</ele>
        <time>2015-12-28T21:04:34Z</time>
      </trkpt>
      <trkpt lat="48.84671" lon="2.42519">
        <ele>52.400001525879</ele>
        <time>2015-12-28T21:04:38Z</time>
      </trkpt>
      <trkpt lat="48.84669" lon="2.42513">
        <ele>52.400001525879</ele>
        <time>2015-12-28T21:04:39Z</time>
      </trkpt>
      <trkpt lat="48.84659" lon="2.42483">
        <ele>52.400001525879</ele>
        <time>2015-12-28T21:04:44Z</time>
      </trkpt>
      <trkpt lat="48.84649" lon="2.42454">
        <ele>52.599998474121</ele>
        <time>2015-12-28T21:04:49Z</time>
      </trkpt>
      <trkpt lat="48.84639" lon="2.42429">
        <ele>52.79999923706</ele>
        <time>2015-12-28T21:04:54Z</time>
      </trkpt>
      <trkpt lat="48.84627" lon="2.42406">
        <ele>53.20000076294</ele>
        <time>2015-12-28T21:04:59Z</time>
      </trkpt>
      <trkpt lat="48.84624" lon="2.42403">
        <ele>53.20000076294</ele>
        <time>2015-12-28T21:05:00Z</time>
      </trkpt>
      <trkpt lat="48.8462" lon="2.42397">
        <ele>53.20000076294</ele>
        <time>2015-12-28T21:05:02Z</time>
      </trkpt>
      <trkpt lat="48.84604" lon="2.42379">
        <ele>53.599998474121</ele>
        <time>2015-12-28T21:05:09Z</time>
      </trkpt>
      <trkpt lat="48.84599" lon="2.42371">
        <ele>53.79999923706</ele>
        <time>2015-12-28T21:05:14Z</time>
      </trkpt>
      <trkpt lat="48.84594" lon="2.42355">
        <ele>54.20000076294</ele>
        <time>2015-12-28T21:06:03Z</time>
      </trkpt>
      <trkpt lat="48.84586" lon="2.4233">
        <ele>55</ele>
        <time>2015-12-28T21:06:13Z</time>
      </trkpt>
      <trkpt lat="48.84572" lon="2.4231">
        <ele>55</ele>
        <time>2015-12-28T21:06:23Z</time>
      </trkpt>
      <trkpt lat="48.84558" lon="2.42289">
        <ele>55.20000076294</ele>
        <time>2015-12-28T21:06:30Z</time>
      </trkpt>
      <trkpt lat="48.84546" lon="2.42267">
        <ele>55.400001525879</ele>
        <time>2015-12-28T21:06:36Z</time>
      </trkpt>
      <trkpt lat="48.84533" lon="2.42241">
        <ele>55.599998474121</ele>
        <time>2015-12-28T21:06:41Z</time>
      </trkpt>
      <trkpt lat="48.8452" lon="2.42219">
        <ele>55.400001525879</ele>
        <time>2015-12-28T21:06:46Z</time>
      </trkpt>
      <trkpt lat="48.8451" lon="2.42193">
        <ele>55</ele>
        <time>2015-12-28T21:06:50Z</time>
      </trkpt>
      <trkpt lat="48.84495" lon="2.42167">
        <ele>54.599998474121</ele>
        <time>2015-12-28T21:06:55Z</time>
      </trkpt>
      <trkpt lat="48.84482" lon="2.42144">
        <ele>54.79999923706</ele>
        <time>2015-12-28T21:07:00Z</time>
      </trkpt>
      <trkpt lat="48.84471" lon="2.42116">
        <ele>54.599998474121</ele>
        <time>2015-12-28T21:07:05Z</time>
      </trkpt>
      <trkpt lat="48.84461" lon="2.42093">
        <ele>54.79999923706</ele>
        <time>2015-12-28T21:07:09Z</time>
      </trkpt>
      <trkpt lat="48.84454" lon="2.42072">
        <ele>54.599998474121</ele>
        <time>2015-12-28T21:07:12Z</time>
      </trkpt>
      <trkpt lat="48.84443" lon="2.42043">
        <ele>54</ele>
        <time>2015-12-28T21:07:16Z</time>
      </trkpt>
      <trkpt lat="48.84439" lon="2.42036">
        <ele>54</ele>
        <time>2015-12-28T21:07:17Z</time>
      </trkpt>
      <trkpt lat="48.84426" lon="2.42012">
        <ele>53.599998474121</ele>
        <time>2015-12-28T21:07:21Z</time>
      </trkpt>
      <trkpt lat="48.84415" lon="2.4199">
        <ele>53.599998474121</ele>
        <time>2015-12-28T21:07:24Z</time>
      </trkpt>
      <trkpt lat="48.84405" lon="2.41963">
        <ele>54.20000076294</ele>
        <time>2015-12-28T21:07:27Z</time>
      </trkpt>
      <trkpt lat="48.84394" lon="2.41941">
        <ele>54.79999923706</ele>
        <time>2015-12-28T21:07:30Z</time>
      </trkpt>
      <trkpt lat="48.84384" lon="2.41918">
        <ele>55.400001525879</ele>
        <time>2015-12-28T21:07:33Z</time>
      </trkpt>
      <trkpt lat="48.84373" lon="2.41886">
        <ele>54.599998474121</ele>
        <time>2015-12-28T21:07:37Z</time>
      </trkpt>
      <trkpt lat="48.84366" lon="2.41863">
        <ele>53.79999923706</ele>
        <time>2015-12-28T21:07:40Z</time>
      </trkpt>
      <trkpt lat="48.84365" lon="2.4183">
        <ele>53.400001525879</ele>
        <time>2015-12-28T21:07:44Z</time>
      </trkpt>
      <trkpt lat="48.84366" lon="2.41823">
        <ele>53.20000076294</ele>
        <time>2015-12-28T21:07:45Z</time>
      </trkpt>
      <trkpt lat="48.84372" lon="2.41797">
        <ele>52.79999923706</ele>
        <time>2015-12-28T21:07:49Z</time>
      </trkpt>
      <trkpt lat="48.84375" lon="2.41784">
        <ele>52.599998474121</ele>
        <time>2015-12-28T21:07:52Z</time>
      </trkpt>
      <trkpt lat="48.84376" lon="2.41773">
        <ele>52.400001525879</ele>
        <time>2015-12-28T21:07:56Z</time>
      </trkpt>
      <trkpt lat="48.84371" lon="2.41744">
        <ele>51.79999923706</ele>
        <time>2015-12-28T21:08:16Z</time>
      </trkpt>
      <trkpt lat="48.84372" lon="2.41714">
        <ele>52.79999923706</ele>
        <time>2015-12-28T21:08:21Z</time>
      </trkpt>
      <trkpt lat="48.84375" lon="2.41684">
        <ele>54</ele>
        <time>2015-12-28T21:08:25Z</time>
      </trkpt>
      <trkpt lat="48.84376" lon="2.41651">
        <ele>55</ele>
        <time>2015-12-28T21:08:29Z</time>
      </trkpt>
      <trkpt lat="48.84377" lon="2.41615">
        <ele>57.20000076294</ele>
        <time>2015-12-28T21:08:33Z</time>
      </trkpt>
      <trkpt lat="48.84378" lon="2.4158">
        <ele>58.400001525879</ele>
        <time>2015-12-28T21:08:37Z</time>
      </trkpt>
      <trkpt lat="48.8438" lon="2.41552">
        <ele>56.599998474121</ele>
        <time>2015-12-28T21:08:40Z</time>
      </trkpt>
      <trkpt lat="48.84383" lon="2.41517">
        <ele>54.400001525879</ele>
        <time>2015-12-28T21:08:44Z</time>
      </trkpt>
      <trkpt lat="48.84386" lon="2.41482">
        <ele>52.20000076294</ele>
        <time>2015-12-28T21:08:48Z</time>
      </trkpt>
      <trkpt lat="48.84389" lon="2.41466">
        <ele>50.79999923706</ele>
        <time>2015-12-28T21:08:50Z</time>
      </trkpt>
      <trkpt lat="48.84392" lon="2.41435">
        <ele>49</ele>
        <time>2015-12-28T21:08:54Z</time>
      </trkpt>
      <trkpt lat="48.84395" lon="2.41405">
        <ele>48.20000076294</ele>
        <time>2015-12-28T21:08:58Z</time>
      </trkpt>
      <trkpt lat="48.84399" lon="2.41374">
        <ele>48.599998474121</ele>
        <time>2015-12-28T21:09:02Z</time>
      </trkpt>
      <trkpt lat="48.84402" lon="2.41344">
        <ele>49.599998474121</ele>
        <time>2015-12-28T21:09:06Z</time>
      </trkpt>
      <trkpt lat="48.84405" lon="2.41313">
        <ele>50.599998474121</ele>
        <time>2015-12-28T21:09:10Z</time>
      </trkpt>
      <trkpt lat="48.84407" lon="2.41297">
        <ele>51</ele>
        <time>2015-12-28T21:09:12Z</time>
      </trkpt>
      <trkpt lat="48.84408" lon="2.41267">
        <ele>51.400001525879</ele>
        <time>2015-12-28T21:09:16Z</time>
      </trkpt>
      <trkpt lat="48.84411" lon="2.41235">
        <ele>52</ele>
        <time>2015-12-28T21:09:20Z</time>
      </trkpt>
      <trkpt lat="48.84414" lon="2.41203">
        <ele>52.20000076294</ele>
        <time>2015-12-28T21:09:24Z</time>
      </trkpt>
      <trkpt lat="48.84417" lon="2.41171">
        <ele>52.20000076294</ele>
        <time>2015-12-28T21:09:28Z</time>
      </trkpt>
      <trkpt lat="48.8442" lon="2.41138">
        <ele>53.599998474121</ele>
        <time>2015-12-28T21:09:32Z</time>
      </trkpt>
      <trkpt lat="48.84421" lon="2.41107">
        <ele>54.20000076294</ele>
        <time>2015-12-28T21:09:36Z</time>
      </trkpt>
      <trkpt lat="48.84422" lon="2.41099">
        <ele>54.400001525879</ele>
        <time>2015-12-28T21:09:37Z</time>
      </trkpt>
      <trkpt lat="48.84425" lon="2.41072">
        <ele>54.599998474121</ele>
        <time>2015-12-28T21:09:41Z</time>
      </trkpt>
      <trkpt lat="48.84427" lon="2.41059">
        <ele>54.79999923706</ele>
        <time>2015-12-28T21:09:44Z</time>
      </trkpt>
      <trkpt lat="48.84429" lon="2.41053">
        <ele>54.599998474121</ele>
        <time>2015-12-28T21:09:54Z</time>
      </trkpt>
      <trkpt lat="48.84438" lon="2.41049">
        <ele>54.400001525879</ele>
        <time>2015-12-28T21:10:25Z</time>
      </trkpt>
      <trkpt lat="48.84431" lon="2.41049">
        <ele>54.599998474121</ele>
        <time>2015-12-28T21:10:31Z</time>
      </trkpt>
      <trkpt lat="48.84423" lon="2.41022">
        <ele>55.20000076294</ele>
        <time>2015-12-28T21:10:40Z</time>
      </trkpt>
      <trkpt lat="48.8442" lon="2.41014">
        <ele>55.400001525879</ele>
        <time>2015-12-28T21:10:43Z</time>
      </trkpt>
      <trkpt lat="48.84412" lon="2.4101">
        <ele>55.79999923706</ele>
        <time>2015-12-28T21:10:48Z</time>
      </trkpt>
      <trkpt lat="48.84409" lon="2.41004">
        <ele>56</ele>
        <time>2015-12-28T21:10:50Z</time>
      </trkpt>
      <trkpt lat="48.84412" lon="2.40984">
        <ele>55.79999923706</ele>
        <time>2015-12-28T21:10:56Z</time>
      </trkpt>
      <trkpt lat="48.84421" lon="2.40956">
        <ele>55.79999923706</ele>
        <time>2015-12-28T21:11:03Z</time>
      </trkpt>
      <trkpt lat="48.8443" lon="2.40931">
        <ele>56</ele>
        <time>2015-12-28T21:11:08Z</time>
      </trkpt>
      <trkpt lat="48.84442" lon="2.40908">
        <ele>56.20000076294</ele>
        <time>2015-12-28T21:11:14Z</time>
      </trkpt>
      <trkpt lat="48.84441" lon="2.40896">
        <ele>56.20000076294</ele>
        <time>2015-12-28T21:11:18Z</time>
      </trkpt>
      <trkpt lat="48.84436" lon="2.40888">
        <ele>56</ele>
        <time>2015-12-28T21:11:22Z</time>
      </trkpt>
      <trkpt lat="48.84417" lon="2.40882">
        <ele>56.20000076294</ele>
        <time>2015-12-28T21:11:28Z</time>
      </trkpt>
      <trkpt lat="48.84408" lon="2.40884">
        <ele>56.400001525879</ele>
        <time>2015-12-28T21:11:31Z</time>
      </trkpt>
      <trkpt lat="48.84394" lon="2.40906">
        <ele>56.599998474121</ele>
        <time>2015-12-28T21:11:37Z</time>
      </trkpt>
      <trkpt lat="48.84393" lon="2.40908">
        <ele>56.599998474121</ele>
        <time>2015-12-28T21:11:38Z</time>
      </trkpt>
      <trkpt lat="48.84391" lon="2.40912">
        <ele>56.599998474121</ele>
        <time>2015-12-28T21:11:42Z</time>
      </trkpt>
      <trkpt lat="48.84383" lon="2.40906">
        <ele>56.599998474121</ele>
        <time>2015-12-28T21:11:52Z</time>
      </trkpt>
      <trkpt lat="48.84387" lon="2.40936">
        <ele>56.400001525879</ele>
        <time>2015-12-28T21:12:05Z</time>
      </trkpt>
      <trkpt lat="48.84389" lon="2.40957">
        <ele>56.400001525879</ele>
        <time>2015-12-28T21:12:09Z</time>
      </trkpt>
      <trkpt lat="48.84373" lon="2.40971">
        <ele>57</ele>
        <time>2015-12-28T21:12:12Z</time>
      </trkpt>
      <trkpt lat="48.84359" lon="2.40975">
        <ele>57.599998474121</ele>
        <time>2015-12-28T21:12:15Z</time>
      </trkpt>
      <trkpt lat="48.84336" lon="2.40987">
        <ele>57.79999923706</ele>
        <time>2015-12-28T21:12:21Z</time>
      </trkpt>
      <trkpt lat="48.84316" lon="2.40997">
        <ele>58</ele>
        <time>2015-12-28T21:12:26Z</time>
      </trkpt>
      <trkpt lat="48.84296" lon="2.40998">
        <ele>58</ele>
        <time>2015-12-28T21:12:32Z</time>
      </trkpt>
      <trkpt lat="48.84288" lon="2.40998">
        <ele>58</ele>
        <time>2015-12-28T21:12:37Z</time>
      </trkpt>
      <trkpt lat="48.84289" lon="2.41">
        <ele>58</ele>
        <time>2015-12-28T21:12:52Z</time>
      </trkpt>
      <trkpt lat="48.84292" lon="2.40993">
        <ele>58</ele>
        <time>2015-12-28T21:13:39Z</time>
      </trkpt>
      <trkpt lat="48.84312" lon="2.40986">
        <ele>57.79999923706</ele>
        <time>2015-12-28T21:13:46Z</time>
      </trkpt>
      <trkpt lat="48.84331" lon="2.40993">
        <ele>58</ele>
        <time>2015-12-28T21:13:53Z</time>
      </trkpt>
      <trkpt lat="48.8435" lon="2.40995">
        <ele>58</ele>
        <time>2015-12-28T21:14:01Z</time>
      </trkpt>
      <trkpt lat="48.84367" lon="2.40995">
        <ele>57.599998474121</ele>
        <time>2015-12-28T21:14:07Z</time>
      </trkpt>
      <trkpt lat="48.84388" lon="2.41001">
        <ele>56.79999923706</ele>
        <time>2015-12-28T21:14:16Z</time>
      </trkpt>
      <trkpt lat="48.84404" lon="2.40993">
        <ele>56.20000076294</ele>
        <time>2015-12-28T21:14:23Z</time>
      </trkpt>
      <trkpt lat="48.84404" lon="2.41007">
        <ele>56.20000076294</ele>
        <time>2015-12-28T21:14:36Z</time>
      </trkpt>
      <trkpt lat="48.84405" lon="2.4101">
        <ele>56</ele>
        <time>2015-12-28T21:14:40Z</time>
      </trkpt>
      <trkpt lat="48.84414" lon="2.41003">
        <ele>55.79999923706</ele>
        <time>2015-12-28T21:14:46Z</time>
      </trkpt>
      <trkpt lat="48.84424" lon="2.40998">
        <ele>55.599998474121</ele>
        <time>2015-12-28T21:14:53Z</time>
      </trkpt>
      <trkpt lat="48.84427" lon="2.40973">
        <ele>55.400001525879</ele>
        <time>2015-12-28T21:14:57Z</time>
      </trkpt>
      <trkpt lat="48.8443" lon="2.4095">
        <ele>55.599998474121</ele>
        <time>2015-12-28T21:15:00Z</time>
      </trkpt>
      <trkpt lat="48.8443" lon="2.40916">
        <ele>56</ele>
        <time>2015-12-28T21:15:04Z</time>
      </trkpt>
      <trkpt lat="48.8443" lon="2.40898">
        <ele>56.20000076294</ele>
        <time>2015-12-28T21:15:06Z</time>
      </trkpt>
      <trkpt lat="48.84433" lon="2.40866">
        <ele>56</ele>
        <time>2015-12-28T21:15:09Z</time>
      </trkpt>
      <trkpt lat="48.84433" lon="2.40836">
        <ele>56</ele>
        <time>2015-12-28T21:15:12Z</time>
      </trkpt>
      <trkpt lat="48.84434" lon="2.40805">
        <ele>55.79999923706</ele>
        <time>2015-12-28T21:15:15Z</time>
      </trkpt>
      <trkpt lat="48.84435" lon="2.40775">
        <ele>55.400001525879</ele>
        <time>2015-12-28T21:15:18Z</time>
      </trkpt>
      <trkpt lat="48.84435" lon="2.40765">
        <ele>55.20000076294</ele>
        <time>2015-12-28T21:15:19Z</time>
      </trkpt>
      <trkpt lat="48.84437" lon="2.40735">
        <ele>54.20000076294</ele>
        <time>2015-12-28T21:15:22Z</time>
      </trkpt>
      <trkpt lat="48.84442" lon="2.40705">
        <ele>52.400001525879</ele>
        <time>2015-12-28T21:15:25Z</time>
      </trkpt>
      <trkpt lat="48.84446" lon="2.40675">
        <ele>50.400001525879</ele>
        <time>2015-12-28T21:15:28Z</time>
      </trkpt>
      <trkpt lat="48.8445" lon="2.40643">
        <ele>50.599998474121</ele>
        <time>2015-12-28T21:15:31Z</time>
      </trkpt>
      <trkpt lat="48.84457" lon="2.40611">
        <ele>51</ele>
        <time>2015-12-28T21:15:34Z</time>
      </trkpt>
      <trkpt lat="48.84462" lon="2.40579">
        <ele>51</ele>
        <time>2015-12-28T21:15:37Z</time>
      </trkpt>
      <trkpt lat="48.84469" lon="2.40544">
        <ele>51</ele>
        <time>2015-12-28T21:15:40Z</time>
      </trkpt>
      <trkpt lat="48.84471" lon="2.4051">
        <ele>51</ele>
        <time>2015-12-28T21:15:43Z</time>
      </trkpt>
      <trkpt lat="48.84473" lon="2.40477">
        <ele>51.20000076294</ele>
        <time>2015-12-28T21:15:46Z</time>
      </trkpt>
      <trkpt lat="48.84478" lon="2.40444">
        <ele>51.20000076294</ele>
        <time>2015-12-28T21:15:49Z</time>
      </trkpt>
      <trkpt lat="48.84481" lon="2.4041">
        <ele>50.20000076294</ele>
        <time>2015-12-28T21:15:52Z</time>
      </trkpt>
      <trkpt lat="48.84484" lon="2.40378">
        <ele>51.20000076294</ele>
        <time>2015-12-28T21:15:55Z</time>
      </trkpt>
      <trkpt lat="48.84486" lon="2.40346">
        <ele>52.20000076294</ele>
        <time>2015-12-28T21:15:58Z</time>
      </trkpt>
      <trkpt lat="48.84489" lon="2.40314">
        <ele>52.400001525879</ele>
        <time>2015-12-28T21:16:01Z</time>
      </trkpt>
      <trkpt lat="48.84492" lon="2.40284">
        <ele>52.79999923706</ele>
        <time>2015-12-28T21:16:04Z</time>
      </trkpt>
      <trkpt lat="48.84493" lon="2.40276">
        <ele>53</ele>
        <time>2015-12-28T21:16:05Z</time>
      </trkpt>
      <trkpt lat="48.84498" lon="2.40257">
        <ele>53.599998474121</ele>
        <time>2015-12-28T21:16:09Z</time>
      </trkpt>
      <trkpt lat="48.84504" lon="2.40261">
        <ele>53.599998474121</ele>
        <time>2015-12-28T21:16:45Z</time>
      </trkpt>
      <trkpt lat="48.84508" lon="2.40253">
        <ele>53.79999923706</ele>
        <time>2015-12-28T21:16:51Z</time>
      </trkpt>
      <trkpt lat="48.84515" lon="2.40235">
        <ele>53.599998474121</ele>
        <time>2015-12-28T21:16:55Z</time>
      </trkpt>
      <trkpt lat="48.84516" lon="2.40222">
        <ele>53.599998474121</ele>
        <time>2015-12-28T21:16:59Z</time>
      </trkpt>
      <trkpt lat="48.84508" lon="2.40195">
        <ele>53.400001525879</ele>
        <time>2015-12-28T21:17:07Z</time>
      </trkpt>
      <trkpt lat="48.845" lon="2.4017">
        <ele>53</ele>
        <time>2015-12-28T21:17:12Z</time>
      </trkpt>
      <trkpt lat="48.84494" lon="2.40144">
        <ele>53.20000076294</ele>
        <time>2015-12-28T21:17:16Z</time>
      </trkpt>
      <trkpt lat="48.84494" lon="2.40111">
        <ele>53.599998474121</ele>
        <time>2015-12-28T21:17:20Z</time>
      </trkpt>
      <trkpt lat="48.84494" lon="2.40092">
        <ele>53.79999923706</ele>
        <time>2015-12-28T21:17:22Z</time>
      </trkpt>
      <trkpt lat="48.84498" lon="2.40061">
        <ele>54.79999923706</ele>
        <time>2015-12-28T21:17:25Z</time>
      </trkpt>
      <trkpt lat="48.84501" lon="2.40026">
        <ele>55.400001525879</ele>
        <time>2015-12-28T21:17:28Z</time>
      </trkpt>
      <trkpt lat="48.84503" lon="2.39991">
        <ele>55.599998474121</ele>
        <time>2015-12-28T21:17:31Z</time>
      </trkpt>
      <trkpt lat="48.84506" lon="2.39955">
        <ele>55.20000076294</ele>
        <time>2015-12-28T21:17:34Z</time>
      </trkpt>
      <trkpt lat="48.84511" lon="2.3992">
        <ele>55</ele>
        <time>2015-12-28T21:17:37Z</time>
      </trkpt>
      <trkpt lat="48.84514" lon="2.39886">
        <ele>54.79999923706</ele>
        <time>2015-12-28T21:17:40Z</time>
      </trkpt>
      <trkpt lat="48.84518" lon="2.39846">
        <ele>55.599998474121</ele>
        <time>2015-12-28T21:17:43Z</time>
      </trkpt>
      <trkpt lat="48.84519" lon="2.39834">
        <ele>55.79999923706</ele>
        <time>2015-12-28T21:17:44Z</time>
      </trkpt>
      <trkpt lat="48.84523" lon="2.398">
        <ele>54.400001525879</ele>
        <time>2015-12-28T21:17:47Z</time>
      </trkpt>
      <trkpt lat="48.84528" lon="2.39765">
        <ele>52.79999923706</ele>
        <time>2015-12-28T21:17:50Z</time>
      </trkpt>
      <trkpt lat="48.84531" lon="2.39742">
        <ele>53</ele>
        <time>2015-12-28T21:17:52Z</time>
      </trkpt>
      <trkpt lat="48.84534" lon="2.39706">
        <ele>54.599998474121</ele>
        <time>2015-12-28T21:17:55Z</time>
      </trkpt>
      <trkpt lat="48.84536" lon="2.39672">
        <ele>56</ele>
        <time>2015-12-28T21:17:58Z</time>
      </trkpt>
      <trkpt lat="48.84539" lon="2.39639">
        <ele>57</ele>
        <time>2015-12-28T21:18:01Z</time>
      </trkpt>
      <trkpt lat="48.84543" lon="2.39607">
        <ele>58.20000076294</ele>
        <time>2015-12-28T21:18:04Z</time>
      </trkpt>
      <trkpt lat="48.84547" lon="2.3958">
        <ele>58.400001525879</ele>
        <time>2015-12-28T21:18:07Z</time>
      </trkpt>
      <trkpt lat="48.84551" lon="2.3955">
        <ele>59.20000076294</ele>
        <time>2015-12-28T21:18:11Z</time>
      </trkpt>
      <trkpt lat="48.84553" lon="2.39521">
        <ele>59</ele>
        <time>2015-12-28T21:18:16Z</time>
      </trkpt>
      <trkpt lat="48.84557" lon="2.39507">
        <ele>58.20000076294</ele>
        <time>2015-12-28T21:18:20Z</time>
      </trkpt>
      <trkpt lat="48.84553" lon="2.3952">
        <ele>59</ele>
        <time>2015-12-28T21:18:30Z</time>
      </trkpt>
      <trkpt lat="48.84553" lon="2.39522">
        <ele>59</ele>
        <time>2015-12-28T21:18:31Z</time>
      </trkpt>
      <trkpt lat="48.84556" lon="2.3951">
        <ele>58.20000076294</ele>
        <time>2015-12-28T21:19:19Z</time>
      </trkpt>
      <trkpt lat="48.84569" lon="2.39491">
        <ele>57.79999923706</ele>
        <time>2015-12-28T21:19:33Z</time>
      </trkpt>
      <trkpt lat="48.84589" lon="2.39474">
        <ele>57.79999923706</ele>
        <time>2015-12-28T21:19:39Z</time>
      </trkpt>
      <trkpt lat="48.84603" lon="2.39459">
        <ele>56.599998474121</ele>
        <time>2015-12-28T21:19:42Z</time>
      </trkpt>
      <trkpt lat="48.84622" lon="2.39443">
        <ele>57.400001525879</ele>
        <time>2015-12-28T21:19:49Z</time>
      </trkpt>
      <trkpt lat="48.84641" lon="2.3943">
        <ele>57.599998474121</ele>
        <time>2015-12-28T21:19:54Z</time>
      </trkpt>
      <trkpt lat="48.84657" lon="2.39412">
        <ele>57.20000076294</ele>
        <time>2015-12-28T21:20:01Z</time>
      </trkpt>
      <trkpt lat="48.84671" lon="2.39392">
        <ele>57.79999923706</ele>
        <time>2015-12-28T21:20:07Z</time>
      </trkpt>
      <trkpt lat="48.84694" lon="2.39383">
        <ele>57.599998474121</ele>
        <time>2015-12-28T21:20:11Z</time>
      </trkpt>
      <trkpt lat="48.84713" lon="2.39366">
        <ele>56.400001525879</ele>
        <time>2015-12-28T21:20:15Z</time>
      </trkpt>
      <trkpt lat="48.84728" lon="2.39348">
        <ele>55.400001525879</ele>
        <time>2015-12-28T21:20:19Z</time>
      </trkpt>
      <trkpt lat="48.84744" lon="2.3933">
        <ele>54.599998474121</ele>
        <time>2015-12-28T21:20:23Z</time>
      </trkpt>
      <trkpt lat="48.84762" lon="2.39313">
        <ele>53.400001525879</ele>
        <time>2015-12-28T21:20:27Z</time>
      </trkpt>
      <trkpt lat="48.84776" lon="2.39296">
        <ele>54</ele>
        <time>2015-12-28T21:20:31Z</time>
      </trkpt>
      <trkpt lat="48.84787" lon="2.39284">
        <ele>54.599998474121</ele>
        <time>2015-12-28T21:20:35Z</time>
      </trkpt>
      <trkpt lat="48.84794" lon="2.3928">
        <ele>55</ele>
        <time>2015-12-28T21:20:39Z</time>
      </trkpt>
      <trkpt lat="48.84805" lon="2.39268">
        <ele>55</ele>
        <time>2015-12-28T21:20:58Z</time>
      </trkpt>
      <trkpt lat="48.8482" lon="2.39246">
        <ele>54.20000076294</ele>
        <time>2015-12-28T21:21:05Z</time>
      </trkpt>
      <trkpt lat="48.84833" lon="2.39234">
        <ele>53</ele>
        <time>2015-12-28T21:21:08Z</time>
      </trkpt>
      <trkpt lat="48.8485" lon="2.39216">
        <ele>52.400001525879</ele>
        <time>2015-12-28T21:21:12Z</time>
      </trkpt>
      <trkpt lat="48.84866" lon="2.39195">
        <ele>51</ele>
        <time>2015-12-28T21:21:17Z</time>
      </trkpt>
      <trkpt lat="48.84887" lon="2.39176">
        <ele>50.20000076294</ele>
        <time>2015-12-28T21:21:21Z</time>
      </trkpt>
      <trkpt lat="48.84907" lon="2.3916">
        <ele>49.79999923706</ele>
        <time>2015-12-28T21:21:25Z</time>
      </trkpt>
      <trkpt lat="48.84924" lon="2.39149">
        <ele>49.400001525879</ele>
        <time>2015-12-28T21:21:29Z</time>
      </trkpt>
      <trkpt lat="48.84941" lon="2.39134">
        <ele>49.400001525879</ele>
        <time>2015-12-28T21:21:34Z</time>
      </trkpt>
      <trkpt lat="48.84957" lon="2.39116">
        <ele>49.79999923706</ele>
        <time>2015-12-28T21:21:39Z</time>
      </trkpt>
      <trkpt lat="48.84975" lon="2.39097">
        <ele>50.79999923706</ele>
        <time>2015-12-28T21:21:44Z</time>
      </trkpt>
      <trkpt lat="48.84986" lon="2.39083">
        <ele>51.400001525879</ele>
        <time>2015-12-28T21:21:47Z</time>
      </trkpt>
      <trkpt lat="48.85" lon="2.39067">
        <ele>52.400001525879</ele>
        <time>2015-12-28T21:21:51Z</time>
      </trkpt>
      <trkpt lat="48.85016" lon="2.39049">
        <ele>53</ele>
        <time>2015-12-28T21:21:54Z</time>
      </trkpt>
      <trkpt lat="48.85019" lon="2.39044">
        <ele>53</ele>
        <time>2015-12-28T21:21:55Z</time>
      </trkpt>
      <trkpt lat="48.85036" lon="2.39034">
        <ele>53</ele>
        <time>2015-12-28T21:21:59Z</time>
      </trkpt>
      <trkpt lat="48.85042" lon="2.39028">
        <ele>53</ele>
        <time>2015-12-28T21:22:00Z</time>
      </trkpt>
      <trkpt lat="48.85057" lon="2.39009">
        <ele>53.599998474121</ele>
        <time>2015-12-28T21:22:04Z</time>
      </trkpt>
      <trkpt lat="48.8506" lon="2.39007">
        <ele>53.79999923706</ele>
        <time>2015-12-28T21:22:05Z</time>
      </trkpt>
      <trkpt lat="48.85071" lon="2.38991">
        <ele>54</ele>
        <time>2015-12-28T21:22:08Z</time>
      </trkpt>
      <trkpt lat="48.85095" lon="2.38978">
        <ele>54.79999923706</ele>
        <time>2015-12-28T21:22:11Z</time>
      </trkpt>
      <trkpt lat="48.85102" lon="2.38973">
        <ele>55.20000076294</ele>
        <time>2015-12-28T21:22:12Z</time>
      </trkpt>
      <trkpt lat="48.85107" lon="2.38968">
        <ele>55.20000076294</ele>
        <time>2015-12-28T21:22:13Z</time>
      </trkpt>
      <trkpt lat="48.85123" lon="2.38951">
        <ele>54.79999923706</ele>
        <time>2015-12-28T21:22:16Z</time>
      </trkpt>
      <trkpt lat="48.8514" lon="2.38939">
        <ele>54.599998474121</ele>
        <time>2015-12-28T21:22:19Z</time>
      </trkpt>
      <trkpt lat="48.85158" lon="2.38925">
        <ele>54.20000076294</ele>
        <time>2015-12-28T21:22:23Z</time>
      </trkpt>
      <trkpt lat="48.85167" lon="2.38918">
        <ele>54</ele>
        <time>2015-12-28T21:22:25Z</time>
      </trkpt>
      <trkpt lat="48.85184" lon="2.38908">
        <ele>53.599998474121</ele>
        <time>2015-12-28T21:22:28Z</time>
      </trkpt>
      <trkpt lat="48.85204" lon="2.38897">
        <ele>52.20000076294</ele>
        <time>2015-12-28T21:22:31Z</time>
      </trkpt>
      <trkpt lat="48.85219" lon="2.389">
        <ele>52.20000076294</ele>
        <time>2015-12-28T21:22:35Z</time>
      </trkpt>
      <trkpt lat="48.85222" lon="2.38901">
        <ele>52.20000076294</ele>
        <time>2015-12-28T21:22:37Z</time>
      </trkpt>
      <trkpt lat="48.85227" lon="2.38895">
        <ele>51.599998474121</ele>
        <time>2015-12-28T21:22:41Z</time>
      </trkpt>
      <trkpt lat="48.8524" lon="2.38874">
        <ele>50</ele>
        <time>2015-12-28T21:22:47Z</time>
      </trkpt>
      <trkpt lat="48.85249" lon="2.3886">
        <ele>49.79999923706</ele>
        <time>2015-12-28T21:22:51Z</time>
      </trkpt>
      <trkpt lat="48.85265" lon="2.3884">
        <ele>50</ele>
        <time>2015-12-28T21:22:58Z</time>
      </trkpt>
      <trkpt lat="48.85279" lon="2.38821">
        <ele>49.20000076294</ele>
        <time>2015-12-28T21:23:03Z</time>
      </trkpt>
      <trkpt lat="48.85296" lon="2.38803">
        <ele>47.400001525879</ele>
        <time>2015-12-28T21:23:07Z</time>
      </trkpt>
      <trkpt lat="48.85313" lon="2.38782">
        <ele>46.20000076294</ele>
        <time>2015-12-28T21:23:11Z</time>
      </trkpt>
      <trkpt lat="48.85325" lon="2.38759">
        <ele>47.79999923706</ele>
        <time>2015-12-28T21:23:15Z</time>
      </trkpt>
      <trkpt lat="48.85337" lon="2.38736">
        <ele>49.400001525879</ele>
        <time>2015-12-28T21:23:19Z</time>
      </trkpt>
      <trkpt lat="48.85352" lon="2.38711">
        <ele>50.599998474121</ele>
        <time>2015-12-28T21:23:23Z</time>
      </trkpt>
      <trkpt lat="48.85365" lon="2.3869">
        <ele>50.79999923706</ele>
        <time>2015-12-28T21:23:27Z</time>
      </trkpt>
      <trkpt lat="48.85377" lon="2.38665">
        <ele>50.599998474121</ele>
        <time>2015-12-28T21:23:31Z</time>
      </trkpt>
      <trkpt lat="48.85394" lon="2.38641">
        <ele>48.20000076294</ele>
        <time>2015-12-28T21:23:35Z</time>
      </trkpt>
      <trkpt lat="48.85412" lon="2.38619">
        <ele>47</ele>
        <time>2015-12-28T21:23:39Z</time>
      </trkpt>
      <trkpt lat="48.85428" lon="2.38594">
        <ele>47</ele>
        <time>2015-12-28T21:23:43Z</time>
      </trkpt>
      <trkpt lat="48.85441" lon="2.38566">
        <ele>46.79999923706</ele>
        <time>2015-12-28T21:23:47Z</time>
      </trkpt>
      <trkpt lat="48.85452" lon="2.38539">
        <ele>46.79999923706</ele>
        <time>2015-12-28T21:23:51Z</time>
      </trkpt>
      <trkpt lat="48.85467" lon="2.3851">
        <ele>47</ele>
        <time>2015-12-28T21:23:55Z</time>
      </trkpt>
      <trkpt lat="48.85479" lon="2.38487">
        <ele>47.400001525879</ele>
        <time>2015-12-28T21:23:58Z</time>
      </trkpt>
      <trkpt lat="48.8549" lon="2.38464">
        <ele>47.79999923706</ele>
        <time>2015-12-28T21:24:01Z</time>
      </trkpt>
      <trkpt lat="48.85503" lon="2.38437">
        <ele>47.79999923706</ele>
        <time>2015-12-28T21:24:04Z</time>
      </trkpt>
      <trkpt lat="48.85518" lon="2.38412">
        <ele>48</ele>
        <time>2015-12-28T21:24:07Z</time>
      </trkpt>
      <trkpt lat="48.85535" lon="2.38386">
        <ele>47.400001525879</ele>
        <time>2015-12-28T21:24:10Z</time>
      </trkpt>
      <trkpt lat="48.85552" lon="2.38361">
        <ele>46.599998474121</ele>
        <time>2015-12-28T21:24:13Z</time>
      </trkpt>
      <trkpt lat="48.85567" lon="2.38333">
        <ele>45.79999923706</ele>
        <time>2015-12-28T21:24:16Z</time>
      </trkpt>
      <trkpt lat="48.85583" lon="2.38308">
        <ele>44.20000076294</ele>
        <time>2015-12-28T21:24:19Z</time>
      </trkpt>
      <trkpt lat="48.85595" lon="2.38287">
        <ele>45</ele>
        <time>2015-12-28T21:24:22Z</time>
      </trkpt>
      <trkpt lat="48.85613" lon="2.38263">
        <ele>46</ele>
        <time>2015-12-28T21:24:25Z</time>
      </trkpt>
      <trkpt lat="48.85625" lon="2.38239">
        <ele>46.599998474121</ele>
        <time>2015-12-28T21:24:28Z</time>
      </trkpt>
      <trkpt lat="48.85639" lon="2.38215">
        <ele>47.599998474121</ele>
        <time>2015-12-28T21:24:31Z</time>
      </trkpt>
      <trkpt lat="48.85652" lon="2.38195">
        <ele>48</ele>
        <time>2015-12-28T21:24:33Z</time>
      </trkpt>
      <trkpt lat="48.85666" lon="2.38167">
        <ele>48</ele>
        <time>2015-12-28T21:24:36Z</time>
      </trkpt>
      <trkpt lat="48.85685" lon="2.38138">
        <ele>47.400001525879</ele>
        <time>2015-12-28T21:24:39Z</time>
      </trkpt>
      <trkpt lat="48.85702" lon="2.38115">
        <ele>46.79999923706</ele>
        <time>2015-12-28T21:24:42Z</time>
      </trkpt>
      <trkpt lat="48.85718" lon="2.38094">
        <ele>46.400001525879</ele>
        <time>2015-12-28T21:24:45Z</time>
      </trkpt>
      <trkpt lat="48.85731" lon="2.38074">
        <ele>46.400001525879</ele>
        <time>2015-12-28T21:24:48Z</time>
      </trkpt>
      <trkpt lat="48.85743" lon="2.3805">
        <ele>46.20000076294</ele>
        <time>2015-12-28T21:24:52Z</time>
      </trkpt>
      <trkpt lat="48.85755" lon="2.38036">
        <ele>45.599998474121</ele>
        <time>2015-12-28T21:24:57Z</time>
      </trkpt>
      <trkpt lat="48.85758" lon="2.38035">
        <ele>45.599998474121</ele>
        <time>2015-12-28T21:25:01Z</time>
      </trkpt>
      <trkpt lat="48.85776" lon="2.38037">
        <ele>45.400001525879</ele>
        <time>2015-12-28T21:25:32Z</time>
      </trkpt>
      <trkpt lat="48.85792" lon="2.38025">
        <ele>45</ele>
        <time>2015-12-28T21:25:44Z</time>
      </trkpt>
      <trkpt lat="48.85794" lon="2.38014">
        <ele>44.599998474121</ele>
        <time>2015-12-28T21:25:46Z</time>
      </trkpt>
      <trkpt lat="48.85797" lon="2.37983">
        <ele>43.79999923706</ele>
        <time>2015-12-28T21:25:50Z</time>
      </trkpt>
      <trkpt lat="48.85802" lon="2.37963">
        <ele>43.599998474121</ele>
        <time>2015-12-28T21:25:53Z</time>
      </trkpt>
      <trkpt lat="48.85818" lon="2.37936">
        <ele>44.20000076294</ele>
        <time>2015-12-28T21:25:57Z</time>
      </trkpt>
      <trkpt lat="48.85833" lon="2.37913">
        <ele>45.20000076294</ele>
        <time>2015-12-28T21:26:00Z</time>
      </trkpt>
      <trkpt lat="48.85846" lon="2.3789">
        <ele>45.79999923706</ele>
        <time>2015-12-28T21:26:03Z</time>
      </trkpt>
      <trkpt lat="48.85859" lon="2.37868">
        <ele>46</ele>
        <time>2015-12-28T21:26:06Z</time>
      </trkpt>
      <trkpt lat="48.85873" lon="2.37845">
        <ele>46.400001525879</ele>
        <time>2015-12-28T21:26:09Z</time>
      </trkpt>
      <trkpt lat="48.85886" lon="2.37822">
        <ele>46.20000076294</ele>
        <time>2015-12-28T21:26:12Z</time>
      </trkpt>
      <trkpt lat="48.85898" lon="2.37802">
        <ele>46.20000076294</ele>
        <time>2015-12-28T21:26:15Z</time>
      </trkpt>
      <trkpt lat="48.85909" lon="2.37779">
        <ele>46.20000076294</ele>
        <time>2015-12-28T21:26:18Z</time>
      </trkpt>
      <trkpt lat="48.85922" lon="2.37757">
        <ele>46.599998474121</ele>
        <time>2015-12-28T21:26:21Z</time>
      </trkpt>
      <trkpt lat="48.85936" lon="2.37735">
        <ele>46.400001525879</ele>
        <time>2015-12-28T21:26:24Z</time>
      </trkpt>
      <trkpt lat="48.85953" lon="2.37707">
        <ele>46</ele>
        <time>2015-12-28T21:26:27Z</time>
      </trkpt>
      <trkpt lat="48.85967" lon="2.3768">
        <ele>45.599998474121</ele>
        <time>2015-12-28T21:26:30Z</time>
      </trkpt>
      <trkpt lat="48.85981" lon="2.37653">
        <ele>45.79999923706</ele>
        <time>2015-12-28T21:26:33Z</time>
      </trkpt>
      <trkpt lat="48.85997" lon="2.37628">
        <ele>46</ele>
        <time>2015-12-28T21:26:36Z</time>
      </trkpt>
      <trkpt lat="48.86013" lon="2.37604">
        <ele>46.599998474121</ele>
        <time>2015-12-28T21:26:39Z</time>
      </trkpt>
      <trkpt lat="48.86029" lon="2.37581">
        <ele>46.79999923706</ele>
        <time>2015-12-28T21:26:42Z</time>
      </trkpt>
      <trkpt lat="48.86047" lon="2.37565">
        <ele>45.20000076294</ele>
        <time>2015-12-28T21:26:45Z</time>
      </trkpt>
      <trkpt lat="48.8606" lon="2.37546">
        <ele>44</ele>
        <time>2015-12-28T21:26:48Z</time>
      </trkpt>
      <trkpt lat="48.86061" lon="2.37541">
        <ele>43.79999923706</ele>
        <time>2015-12-28T21:26:49Z</time>
      </trkpt>
      <trkpt lat="48.86072" lon="2.37512">
        <ele>43</ele>
        <time>2015-12-28T21:26:54Z</time>
      </trkpt>
      <trkpt lat="48.86081" lon="2.37495">
        <ele>42.599998474121</ele>
        <time>2015-12-28T21:26:57Z</time>
      </trkpt>
      <trkpt lat="48.86087" lon="2.37484">
        <ele>42.20000076294</ele>
        <time>2015-12-28T21:26:59Z</time>
      </trkpt>
      <trkpt lat="48.86103" lon="2.37459">
        <ele>42.79999923706</ele>
        <time>2015-12-28T21:27:03Z</time>
      </trkpt>
      <trkpt lat="48.86115" lon="2.37438">
        <ele>43.79999923706</ele>
        <time>2015-12-28T21:27:06Z</time>
      </trkpt>
      <trkpt lat="48.86128" lon="2.37413">
        <ele>44.20000076294</ele>
        <time>2015-12-28T21:27:09Z</time>
      </trkpt>
      <trkpt lat="48.86142" lon="2.37387">
        <ele>44.79999923706</ele>
        <time>2015-12-28T21:27:12Z</time>
      </trkpt>
      <trkpt lat="48.86158" lon="2.3736">
        <ele>45.599998474121</ele>
        <time>2015-12-28T21:27:15Z</time>
      </trkpt>
      <trkpt lat="48.86172" lon="2.37337">
        <ele>46.400001525879</ele>
        <time>2015-12-28T21:27:18Z</time>
      </trkpt>
      <trkpt lat="48.86188" lon="2.37314">
        <ele>46.599998474121</ele>
        <time>2015-12-28T21:27:21Z</time>
      </trkpt>
      <trkpt lat="48.86204" lon="2.37294">
        <ele>46</ele>
        <time>2015-12-28T21:27:25Z</time>
      </trkpt>
      <trkpt lat="48.86207" lon="2.37288">
        <ele>45.79999923706</ele>
        <time>2015-12-28T21:27:26Z</time>
      </trkpt>
      <trkpt lat="48.86218" lon="2.37262">
        <ele>45.20000076294</ele>
        <time>2015-12-28T21:27:30Z</time>
      </trkpt>
      <trkpt lat="48.86219" lon="2.37256">
        <ele>45</ele>
        <time>2015-12-28T21:27:31Z</time>
      </trkpt>
      <trkpt lat="48.86233" lon="2.37232">
        <ele>44.79999923706</ele>
        <time>2015-12-28T21:27:35Z</time>
      </trkpt>
      <trkpt lat="48.86245" lon="2.37208">
        <ele>44.599998474121</ele>
        <time>2015-12-28T21:27:39Z</time>
      </trkpt>
      <trkpt lat="48.86256" lon="2.37193">
        <ele>44.400001525879</ele>
        <time>2015-12-28T21:27:42Z</time>
      </trkpt>
      <trkpt lat="48.8627" lon="2.37169">
        <ele>44</ele>
        <time>2015-12-28T21:27:46Z</time>
      </trkpt>
      <trkpt lat="48.8629" lon="2.37142">
        <ele>43.79999923706</ele>
        <time>2015-12-28T21:27:50Z</time>
      </trkpt>
      <trkpt lat="48.86305" lon="2.37121">
        <ele>43.400001525879</ele>
        <time>2015-12-28T21:27:53Z</time>
      </trkpt>
      <trkpt lat="48.86316" lon="2.37099">
        <ele>43.599998474121</ele>
        <time>2015-12-28T21:27:56Z</time>
      </trkpt>
      <trkpt lat="48.86329" lon="2.3708">
        <ele>43.599998474121</ele>
        <time>2015-12-28T21:27:59Z</time>
      </trkpt>
      <trkpt lat="48.86343" lon="2.37058">
        <ele>44</ele>
        <time>2015-12-28T21:28:02Z</time>
      </trkpt>
      <trkpt lat="48.86355" lon="2.37035">
        <ele>45</ele>
        <time>2015-12-28T21:28:06Z</time>
      </trkpt>
      <trkpt lat="48.86367" lon="2.37017">
        <ele>45.20000076294</ele>
        <time>2015-12-28T21:28:13Z</time>
      </trkpt>
      <trkpt lat="48.86376" lon="2.37008">
        <ele>45.20000076294</ele>
        <time>2015-12-28T21:28:18Z</time>
      </trkpt>
      <trkpt lat="48.86383" lon="2.37001">
        <ele>45.20000076294</ele>
        <time>2015-12-28T21:28:20Z</time>
      </trkpt>
      <trkpt lat="48.86386" lon="2.36996">
        <ele>45.20000076294</ele>
        <time>2015-12-28T21:28:22Z</time>
      </trkpt>
      <trkpt lat="48.86394" lon="2.3698">
        <ele>44.79999923706</ele>
        <time>2015-12-28T21:28:27Z</time>
      </trkpt>
      <trkpt lat="48.86396" lon="2.36971">
        <ele>44.79999923706</ele>
        <time>2015-12-28T21:28:31Z</time>
      </trkpt>
      <trkpt lat="48.86397" lon="2.36968">
        <ele>44.599998474121</ele>
        <time>2015-12-28T21:28:32Z</time>
      </trkpt>
      <trkpt lat="48.864" lon="2.36958">
        <ele>44.400001525879</ele>
        <time>2015-12-28T21:28:34Z</time>
      </trkpt>
      <trkpt lat="48.86412" lon="2.36931">
        <ele>45.20000076294</ele>
        <time>2015-12-28T21:28:39Z</time>
      </trkpt>
      <trkpt lat="48.86422" lon="2.36908">
        <ele>45.599998474121</ele>
        <time>2015-12-28T21:28:43Z</time>
      </trkpt>
      <trkpt lat="48.86434" lon="2.36883">
        <ele>45.79999923706</ele>
        <time>2015-12-28T21:28:47Z</time>
      </trkpt>
      <trkpt lat="48.86441" lon="2.36872">
        <ele>46</ele>
        <time>2015-12-28T21:28:49Z</time>
      </trkpt>
      <trkpt lat="48.86452" lon="2.3685">
        <ele>46.20000076294</ele>
        <time>2015-12-28T21:28:52Z</time>
      </trkpt>
      <trkpt lat="48.8647" lon="2.36816">
        <ele>46.79999923706</ele>
        <time>2015-12-28T21:28:56Z</time>
      </trkpt>
      <trkpt lat="48.86486" lon="2.36794">
        <ele>47.20000076294</ele>
        <time>2015-12-28T21:28:59Z</time>
      </trkpt>
      <trkpt lat="48.86503" lon="2.36777">
        <ele>46.79999923706</ele>
        <time>2015-12-28T21:29:02Z</time>
      </trkpt>
      <trkpt lat="48.86516" lon="2.36757">
        <ele>46.20000076294</ele>
        <time>2015-12-28T21:29:05Z</time>
      </trkpt>
      <trkpt lat="48.86529" lon="2.36736">
        <ele>46</ele>
        <time>2015-12-28T21:29:08Z</time>
      </trkpt>
      <trkpt lat="48.86546" lon="2.36709">
        <ele>45.79999923706</ele>
        <time>2015-12-28T21:29:12Z</time>
      </trkpt>
      <trkpt lat="48.86562" lon="2.36685">
        <ele>45.79999923706</ele>
        <time>2015-12-28T21:29:14Z</time>
      </trkpt>
      <trkpt lat="48.86576" lon="2.36659">
        <ele>45.79999923706</ele>
        <time>2015-12-28T21:29:18Z</time>
      </trkpt>
      <trkpt lat="48.86597" lon="2.36632">
        <ele>46.400001525879</ele>
        <time>2015-12-28T21:29:21Z</time>
      </trkpt>
      <trkpt lat="48.86601" lon="2.36626">
        <ele>46.400001525879</ele>
        <time>2015-12-28T21:29:22Z</time>
      </trkpt>
      <trkpt lat="48.86611" lon="2.36604">
        <ele>46.599998474121</ele>
        <time>2015-12-28T21:29:25Z</time>
      </trkpt>
      <trkpt lat="48.86624" lon="2.36584">
        <ele>46.400001525879</ele>
        <time>2015-12-28T21:29:28Z</time>
      </trkpt>
      <trkpt lat="48.8664" lon="2.36559">
        <ele>46</ele>
        <time>2015-12-28T21:29:32Z</time>
      </trkpt>
      <trkpt lat="48.86654" lon="2.36539">
        <ele>45.400001525879</ele>
        <time>2015-12-28T21:29:37Z</time>
      </trkpt>
      <trkpt lat="48.8666" lon="2.36529">
        <ele>44.400001525879</ele>
        <time>2015-12-28T21:29:39Z</time>
      </trkpt>
      <trkpt lat="48.86669" lon="2.3652">
        <ele>43</ele>
        <time>2015-12-28T21:29:58Z</time>
      </trkpt>
      <trkpt lat="48.86674" lon="2.36517">
        <ele>42.400001525879</ele>
        <time>2015-12-28T21:30:02Z</time>
      </trkpt>
      <trkpt lat="48.8668" lon="2.36506">
        <ele>41.20000076294</ele>
        <time>2015-12-28T21:30:05Z</time>
      </trkpt>
      <trkpt lat="48.86691" lon="2.36492">
        <ele>40.20000076294</ele>
        <time>2015-12-28T21:30:10Z</time>
      </trkpt>
      <trkpt lat="48.867" lon="2.3647">
        <ele>41.20000076294</ele>
        <time>2015-12-28T21:30:26Z</time>
      </trkpt>
      <trkpt lat="48.86704" lon="2.3646">
        <ele>41.599998474121</ele>
        <time>2015-12-28T21:30:32Z</time>
      </trkpt>
      <trkpt lat="48.86707" lon="2.36429">
        <ele>42.599998474121</ele>
        <time>2015-12-28T21:30:50Z</time>
      </trkpt>
      <trkpt lat="48.86716" lon="2.3642">
        <ele>41.79999923706</ele>
        <time>2015-12-28T21:30:57Z</time>
      </trkpt>
      <trkpt lat="48.86717" lon="2.3642">
        <ele>41.79999923706</ele>
        <time>2015-12-28T21:31:00Z</time>
      </trkpt>
      <trkpt lat="48.86737" lon="2.36409">
        <ele>41.20000076294</ele>
        <time>2015-12-28T21:31:11Z</time>
      </trkpt>
      <trkpt lat="48.86737" lon="2.36402">
        <ele>41.599998474121</ele>
        <time>2015-12-28T21:31:14Z</time>
      </trkpt>
      <trkpt lat="48.86736" lon="2.36396">
        <ele>42.20000076294</ele>
        <time>2015-12-28T21:31:17Z</time>
      </trkpt>
      <trkpt lat="48.86734" lon="2.36368">
        <ele>43.79999923706</ele>
        <time>2015-12-28T21:31:30Z</time>
      </trkpt>
      <trkpt lat="48.86739" lon="2.36354">
        <ele>43.599998474121</ele>
        <time>2015-12-28T21:31:39Z</time>
      </trkpt>
      <trkpt lat="48.86743" lon="2.36328">
        <ele>43.79999923706</ele>
        <time>2015-12-28T21:32:06Z</time>
      </trkpt>
      <trkpt lat="48.86735" lon="2.36299">
        <ele>43.79999923706</ele>
        <time>2015-12-28T21:32:14Z</time>
      </trkpt>
      <trkpt lat="48.86724" lon="2.36274">
        <ele>45.20000076294</ele>
        <time>2015-12-28T21:32:19Z</time>
      </trkpt>
      <trkpt lat="48.86714" lon="2.3625">
        <ele>46.79999923706</ele>
        <time>2015-12-28T21:32:23Z</time>
      </trkpt>
      <trkpt lat="48.86704" lon="2.36225">
        <ele>46.79999923706</ele>
        <time>2015-12-28T21:32:28Z</time>
      </trkpt>
      <trkpt lat="48.86694" lon="2.36201">
        <ele>46.400001525879</ele>
        <time>2015-12-28T21:32:32Z</time>
      </trkpt>
      <trkpt lat="48.86684" lon="2.36173">
        <ele>46</ele>
        <time>2015-12-28T21:32:36Z</time>
      </trkpt>
      <trkpt lat="48.86677" lon="2.36144">
        <ele>45.599998474121</ele>
        <time>2015-12-28T21:32:40Z</time>
      </trkpt>
      <trkpt lat="48.8667" lon="2.36115">
        <ele>45.20000076294</ele>
        <time>2015-12-28T21:32:44Z</time>
      </trkpt>
      <trkpt lat="48.86658" lon="2.36084">
        <ele>44.79999923706</ele>
        <time>2015-12-28T21:32:47Z</time>
      </trkpt>
      <trkpt lat="48.86648" lon="2.36056">
        <ele>44.79999923706</ele>
        <time>2015-12-28T21:32:49Z</time>
      </trkpt>
      <trkpt lat="48.86639" lon="2.36032">
        <ele>44.79999923706</ele>
        <time>2015-12-28T21:32:51Z</time>
      </trkpt>
      <trkpt lat="48.86633" lon="2.35998">
        <ele>44</ele>
        <time>2015-12-28T21:32:54Z</time>
      </trkpt>
      <trkpt lat="48.86628" lon="2.3596">
        <ele>44.400001525879</ele>
        <time>2015-12-28T21:32:57Z</time>
      </trkpt>
      <trkpt lat="48.86621" lon="2.35924">
        <ele>44.79999923706</ele>
        <time>2015-12-28T21:33:00Z</time>
      </trkpt>
      <trkpt lat="48.86616" lon="2.3589">
        <ele>44.400001525879</ele>
        <time>2015-12-28T21:33:03Z</time>
      </trkpt>
      <trkpt lat="48.8661" lon="2.35857">
        <ele>44.20000076294</ele>
        <time>2015-12-28T21:33:06Z</time>
      </trkpt>
      <trkpt lat="48.86604" lon="2.35827">
        <ele>44</ele>
        <time>2015-12-28T21:33:09Z</time>
      </trkpt>
      <trkpt lat="48.86597" lon="2.358">
        <ele>44.400001525879</ele>
        <time>2015-12-28T21:33:12Z</time>
      </trkpt>
      <trkpt lat="48.86591" lon="2.35771">
        <ele>44.79999923706</ele>
        <time>2015-12-28T21:33:15Z</time>
      </trkpt>
      <trkpt lat="48.8658" lon="2.35742">
        <ele>45</ele>
        <time>2015-12-28T21:33:18Z</time>
      </trkpt>
      <trkpt lat="48.86572" lon="2.35715">
        <ele>45.400001525879</ele>
        <time>2015-12-28T21:33:21Z</time>
      </trkpt>
      <trkpt lat="48.86561" lon="2.35684">
        <ele>45</ele>
        <time>2015-12-28T21:33:25Z</time>
      </trkpt>
      <trkpt lat="48.8656" lon="2.35677">
        <ele>45</ele>
        <time>2015-12-28T21:33:26Z</time>
      </trkpt>
      <trkpt lat="48.86556" lon="2.3565">
        <ele>44.79999923706</ele>
        <time>2015-12-28T21:33:31Z</time>
      </trkpt>
      <trkpt lat="48.86553" lon="2.35638">
        <ele>45</ele>
        <time>2015-12-28T21:33:35Z</time>
      </trkpt>
      <trkpt lat="48.86549" lon="2.35628">
        <ele>45</ele>
        <time>2015-12-28T21:33:41Z</time>
      </trkpt>
      <trkpt lat="48.86547" lon="2.35625">
        <ele>45.20000076294</ele>
        <time>2015-12-28T21:33:43Z</time>
      </trkpt>
      <trkpt lat="48.86548" lon="2.35624">
        <ele>45</ele>
        <time>2015-12-28T21:33:46Z</time>
      </trkpt>
      <trkpt lat="48.86543" lon="2.35596">
        <ele>45.20000076294</ele>
        <time>2015-12-28T21:34:04Z</time>
      </trkpt>
      <trkpt lat="48.8654" lon="2.35583">
        <ele>45</ele>
        <time>2015-12-28T21:34:09Z</time>
      </trkpt>
      <trkpt lat="48.86522" lon="2.35576">
        <ele>46.20000076294</ele>
        <time>2015-12-28T21:34:25Z</time>
      </trkpt>
      <trkpt lat="48.86502" lon="2.35568">
        <ele>45.79999923706</ele>
        <time>2015-12-28T21:34:33Z</time>
      </trkpt>
      <trkpt lat="48.86485" lon="2.35559">
        <ele>45.599998474121</ele>
        <time>2015-12-28T21:34:41Z</time>
      </trkpt>
      <trkpt lat="48.86467" lon="2.35551">
        <ele>45.400001525879</ele>
        <time>2015-12-28T21:34:46Z</time>
      </trkpt>
      <trkpt lat="48.8645" lon="2.35535">
        <ele>45.20000076294</ele>
        <time>2015-12-28T21:34:49Z</time>
      </trkpt>
      <trkpt lat="48.86431" lon="2.35529">
        <ele>44.79999923706</ele>
        <time>2015-12-28T21:34:56Z</time>
      </trkpt>
      <trkpt lat="48.86411" lon="2.35521">
        <ele>44.599998474121</ele>
        <time>2015-12-28T21:35:05Z</time>
      </trkpt>
      <trkpt lat="48.86392" lon="2.35512">
        <ele>44.400001525879</ele>
        <time>2015-12-28T21:35:11Z</time>
      </trkpt>
      <trkpt lat="48.86374" lon="2.35504">
        <ele>44.20000076294</ele>
        <time>2015-12-28T21:35:16Z</time>
      </trkpt>
      <trkpt lat="48.86352" lon="2.35488">
        <ele>44.20000076294</ele>
        <time>2015-12-28T21:35:20Z</time>
      </trkpt>
      <trkpt lat="48.86329" lon="2.35468">
        <ele>44.599998474121</ele>
        <time>2015-12-28T21:35:24Z</time>
      </trkpt>
      <trkpt lat="48.86311" lon="2.35454">
        <ele>45.20000076294</ele>
        <time>2015-12-28T21:35:26Z</time>
      </trkpt>
      <trkpt lat="48.86294" lon="2.35443">
        <ele>45.599998474121</ele>
        <time>2015-12-28T21:35:28Z</time>
      </trkpt>
      <trkpt lat="48.86271" lon="2.35428">
        <ele>46.20000076294</ele>
        <time>2015-12-28T21:35:31Z</time>
      </trkpt>
      <trkpt lat="48.86252" lon="2.35414">
        <ele>46.20000076294</ele>
        <time>2015-12-28T21:35:34Z</time>
      </trkpt>
      <trkpt lat="48.86252" lon="2.35412">
        <ele>46.20000076294</ele>
        <time>2015-12-28T21:35:35Z</time>
      </trkpt>
      <trkpt lat="48.86234" lon="2.354">
        <ele>46.79999923706</ele>
        <time>2015-12-28T21:35:39Z</time>
      </trkpt>
      <trkpt lat="48.86216" lon="2.35392">
        <ele>47.20000076294</ele>
        <time>2015-12-28T21:35:41Z</time>
      </trkpt>
      <trkpt lat="48.86213" lon="2.35389">
        <ele>47.400001525879</ele>
        <time>2015-12-28T21:35:42Z</time>
      </trkpt>
      <trkpt lat="48.86194" lon="2.35378">
        <ele>47.79999923706</ele>
        <time>2015-12-28T21:35:45Z</time>
      </trkpt>
      <trkpt lat="48.86184" lon="2.35372">
        <ele>48.400001525879</ele>
        <time>2015-12-28T21:35:46Z</time>
      </trkpt>
      <trkpt lat="48.86163" lon="2.3536">
        <ele>50.599998474121</ele>
        <time>2015-12-28T21:35:48Z</time>
      </trkpt>
      <trkpt lat="48.86152" lon="2.35355">
        <ele>51.599998474121</ele>
        <time>2015-12-28T21:35:49Z</time>
      </trkpt>
      <trkpt lat="48.86129" lon="2.35341">
        <ele>53.79999923706</ele>
        <time>2015-12-28T21:35:51Z</time>
      </trkpt>
      <trkpt lat="48.86105" lon="2.35329">
        <ele>56</ele>
        <time>2015-12-28T21:35:54Z</time>
      </trkpt>
      <trkpt lat="48.86092" lon="2.35327">
        <ele>55.20000076294</ele>
        <time>2015-12-28T21:35:56Z</time>
      </trkpt>
      <trkpt lat="48.86079" lon="2.35324">
        <ele>54.400001525879</ele>
        <time>2015-12-28T21:35:58Z</time>
      </trkpt>
      <trkpt lat="48.86067" lon="2.35317">
        <ele>53.79999923706</ele>
        <time>2015-12-28T21:36:00Z</time>
      </trkpt>
      <trkpt lat="48.86043" lon="2.35306">
        <ele>52.599998474121</ele>
        <time>2015-12-28T21:36:03Z</time>
      </trkpt>
      <trkpt lat="48.86036" lon="2.35304">
        <ele>52.20000076294</ele>
        <time>2015-12-28T21:36:04Z</time>
      </trkpt>
      <trkpt lat="48.86029" lon="2.35299">
        <ele>52</ele>
        <time>2015-12-28T21:36:05Z</time>
      </trkpt>
      <trkpt lat="48.86017" lon="2.35291">
        <ele>51.400001525879</ele>
        <time>2015-12-28T21:36:07Z</time>
      </trkpt>
      <trkpt lat="48.86001" lon="2.35278">
        <ele>50.79999923706</ele>
        <time>2015-12-28T21:36:10Z</time>
      </trkpt>
      <trkpt lat="48.85996" lon="2.35275">
        <ele>50.400001525879</ele>
        <time>2015-12-28T21:36:11Z</time>
      </trkpt>
      <trkpt lat="48.85971" lon="2.35266">
        <ele>48.79999923706</ele>
        <time>2015-12-28T21:36:15Z</time>
      </trkpt>
      <trkpt lat="48.85964" lon="2.35263">
        <ele>48.400001525879</ele>
        <time>2015-12-28T21:36:16Z</time>
      </trkpt>
      <trkpt lat="48.85941" lon="2.35251">
        <ele>47</ele>
        <time>2015-12-28T21:36:21Z</time>
      </trkpt>
      <trkpt lat="48.85916" lon="2.35236">
        <ele>47.599998474121</ele>
        <time>2015-12-28T21:36:23Z</time>
      </trkpt>
      <trkpt lat="48.85892" lon="2.35222">
        <ele>48</ele>
        <time>2015-12-28T21:36:26Z</time>
      </trkpt>
      <trkpt lat="48.85874" lon="2.35211">
        <ele>48.400001525879</ele>
        <time>2015-12-28T21:36:28Z</time>
      </trkpt>
      <trkpt lat="48.85855" lon="2.352">
        <ele>48.79999923706</ele>
        <time>2015-12-28T21:36:31Z</time>
      </trkpt>
      <trkpt lat="48.85849" lon="2.35198">
        <ele>48.20000076294</ele>
        <time>2015-12-28T21:36:33Z</time>
      </trkpt>
      <trkpt lat="48.85836" lon="2.35192">
        <ele>47</ele>
        <time>2015-12-28T21:36:37Z</time>
      </trkpt>
      <trkpt lat="48.85825" lon="2.35188">
        <ele>46</ele>
        <time>2015-12-28T21:36:40Z</time>
      </trkpt>
      <trkpt lat="48.85808" lon="2.35182">
        <ele>44.400001525879</ele>
        <time>2015-12-28T21:36:44Z</time>
      </trkpt>
      <trkpt lat="48.85771" lon="2.35168">
        <ele>41.20000076294</ele>
        <time>2015-12-28T21:36:48Z</time>
      </trkpt>
      <trkpt lat="48.85755" lon="2.35165">
        <ele>40.599998474121</ele>
        <time>2015-12-28T21:36:50Z</time>
      </trkpt>
      <trkpt lat="48.85738" lon="2.35141">
        <ele>39.599998474121</ele>
        <time>2015-12-28T21:36:54Z</time>
      </trkpt>
      <trkpt lat="48.85737" lon="2.35128">
        <ele>39.400001525879</ele>
        <time>2015-12-28T21:36:56Z</time>
      </trkpt>
      <trkpt lat="48.85737" lon="2.35116">
        <ele>40</ele>
        <time>2015-12-28T21:36:58Z</time>
      </trkpt>
      <trkpt lat="48.85739" lon="2.35087">
        <ele>41.400001525879</ele>
        <time>2015-12-28T21:37:03Z</time>
      </trkpt>
      <trkpt lat="48.8575" lon="2.35054">
        <ele>44.20000076294</ele>
        <time>2015-12-28T21:37:08Z</time>
      </trkpt>
      <trkpt lat="48.85756" lon="2.35043">
        <ele>45</ele>
        <time>2015-12-28T21:37:11Z</time>
      </trkpt>
      <trkpt lat="48.85773" lon="2.35012">
        <ele>47.599998474121</ele>
        <time>2015-12-28T21:37:16Z</time>
      </trkpt>
      <trkpt lat="48.85776" lon="2.35007">
        <ele>47.79999923706</ele>
        <time>2015-12-28T21:37:18Z</time>
      </trkpt>
      <trkpt lat="48.85789" lon="2.34981">
        <ele>46.400001525879</ele>
        <time>2015-12-28T21:37:22Z</time>
      </trkpt>
      <trkpt lat="48.85797" lon="2.3496">
        <ele>44.599998474121</ele>
        <time>2015-12-28T21:37:24Z</time>
      </trkpt>
      <trkpt lat="48.85808" lon="2.34932">
        <ele>43.79999923706</ele>
        <time>2015-12-28T21:37:29Z</time>
      </trkpt>
      <trkpt lat="48.8581" lon="2.34917">
        <ele>44.20000076294</ele>
        <time>2015-12-28T21:37:31Z</time>
      </trkpt>
      <trkpt lat="48.85819" lon="2.34886">
        <ele>43.79999923706</ele>
        <time>2015-12-28T21:37:34Z</time>
      </trkpt>
      <trkpt lat="48.85831" lon="2.3485">
        <ele>45</ele>
        <time>2015-12-28T21:37:39Z</time>
      </trkpt>
      <trkpt lat="48.85836" lon="2.34828">
        <ele>45.599998474121</ele>
        <time>2015-12-28T21:37:44Z</time>
      </trkpt>
      <trkpt lat="48.85845" lon="2.34799">
        <ele>46.599998474121</ele>
        <time>2015-12-28T21:37:49Z</time>
      </trkpt>
      <trkpt lat="48.85849" lon="2.34794">
        <ele>47</ele>
        <time>2015-12-28T21:37:50Z</time>
      </trkpt>
      <trkpt lat="48.85861" lon="2.34769">
        <ele>47.20000076294</ele>
        <time>2015-12-28T21:37:54Z</time>
      </trkpt>
      <trkpt lat="48.85871" lon="2.34748">
        <ele>46.400001525879</ele>
        <time>2015-12-28T21:37:58Z</time>
      </trkpt>
      <trkpt lat="48.85878" lon="2.34738">
        <ele>46.400001525879</ele>
        <time>2015-12-28T21:38:01Z</time>
      </trkpt>
      <trkpt lat="48.85892" lon="2.34722">
        <ele>46.400001525879</ele>
        <time>2015-12-28T21:38:06Z</time>
      </trkpt>
      <trkpt lat="48.85895" lon="2.34719">
        <ele>46.20000076294</ele>
        <time>2015-12-28T21:38:08Z</time>
      </trkpt>
      <trkpt lat="48.85908" lon="2.34698">
        <ele>46.599998474121</ele>
        <time>2015-12-28T21:38:15Z</time>
      </trkpt>
      <trkpt lat="48.85915" lon="2.34694">
        <ele>46.400001525879</ele>
        <time>2015-12-28T21:38:18Z</time>
      </trkpt>
      <trkpt lat="48.85931" lon="2.34713">
        <ele>45.400001525879</ele>
        <time>2015-12-28T21:38:26Z</time>
      </trkpt>
      <trkpt lat="48.8595" lon="2.34721">
        <ele>45</ele>
        <time>2015-12-28T21:38:35Z</time>
      </trkpt>
      <trkpt lat="48.85952" lon="2.3472">
        <ele>45.20000076294</ele>
        <time>2015-12-28T21:38:38Z</time>
      </trkpt>
      <trkpt lat="48.85957" lon="2.34713">
        <ele>45.400001525879</ele>
        <time>2015-12-28T21:39:01Z</time>
      </trkpt>
      <trkpt lat="48.85961" lon="2.34709">
        <ele>45.599998474121</ele>
        <time>2015-12-28T21:39:21Z</time>
      </trkpt>
      <trkpt lat="48.85961" lon="2.34708">
        <ele>45.79999923706</ele>
        <time>2015-12-28T21:39:23Z</time>
      </trkpt>
    </trkseg>
  </trk>
  <trk>
    <name><![CDATA[lundi 2015 12 14]]></name>
    <extensions>
      <line xmlns="http://www.topografix.com/GPX/gpx_style/0/2">
        <color>000000</color>
      </line>
    </extensions>
    <trkseg>
      <trkpt lat="48.85734" lon="2.34735">
        <ele>40.400001525879</ele>
        <time>2015-12-14T19:21:13Z</time>
      </trkpt>
      <trkpt lat="48.85747" lon="2.34743">
        <ele>40.400001525879</ele>
        <time>2015-12-14T19:21:32Z</time>
      </trkpt>
      <trkpt lat="48.85763" lon="2.3473">
        <ele>39.79999923706</ele>
        <time>2015-12-14T19:21:39Z</time>
      </trkpt>
      <trkpt lat="48.85779" lon="2.34721">
        <ele>39.599998474121</ele>
        <time>2015-12-14T19:21:45Z</time>
      </trkpt>
      <trkpt lat="48.85798" lon="2.34726">
        <ele>41.400001525879</ele>
        <time>2015-12-14T19:21:52Z</time>
      </trkpt>
      <trkpt lat="48.85819" lon="2.34727">
        <ele>43.20000076294</ele>
        <time>2015-12-14T19:21:58Z</time>
      </trkpt>
      <trkpt lat="48.85839" lon="2.34726">
        <ele>45.20000076294</ele>
        <time>2015-12-14T19:22:05Z</time>
      </trkpt>
      <trkpt lat="48.85858" lon="2.34728">
        <ele>47.400001525879</ele>
        <time>2015-12-14T19:22:14Z</time>
      </trkpt>
      <trkpt lat="48.85876" lon="2.34719">
        <ele>47</ele>
        <time>2015-12-14T19:22:21Z</time>
      </trkpt>
      <trkpt lat="48.85888" lon="2.34696">
        <ele>47</ele>
        <time>2015-12-14T19:22:30Z</time>
      </trkpt>
      <trkpt lat="48.85896" lon="2.34668">
        <ele>48</ele>
        <time>2015-12-14T19:22:37Z</time>
      </trkpt>
      <trkpt lat="48.85907" lon="2.34642">
        <ele>48.20000076294</ele>
        <time>2015-12-14T19:22:44Z</time>
      </trkpt>
      <trkpt lat="48.85916" lon="2.34613">
        <ele>49.400001525879</ele>
        <time>2015-12-14T19:22:51Z</time>
      </trkpt>
      <trkpt lat="48.85924" lon="2.34584">
        <ele>50.79999923706</ele>
        <time>2015-12-14T19:22:57Z</time>
      </trkpt>
      <trkpt lat="48.85934" lon="2.34555">
        <ele>50.79999923706</ele>
        <time>2015-12-14T19:23:02Z</time>
      </trkpt>
      <trkpt lat="48.85939" lon="2.34527">
        <ele>51</ele>
        <time>2015-12-14T19:23:07Z</time>
      </trkpt>
      <trkpt lat="48.85946" lon="2.34497">
        <ele>51.20000076294</ele>
        <time>2015-12-14T19:23:12Z</time>
      </trkpt>
      <trkpt lat="48.85967" lon="2.34469">
        <ele>52</ele>
        <time>2015-12-14T19:23:16Z</time>
      </trkpt>
      <trkpt lat="48.85979" lon="2.34448">
        <ele>52.599998474121</ele>
        <time>2015-12-14T19:23:19Z</time>
      </trkpt>
      <trkpt lat="48.85988" lon="2.34418">
        <ele>53.20000076294</ele>
        <time>2015-12-14T19:23:23Z</time>
      </trkpt>
      <trkpt lat="48.85998" lon="2.34395">
        <ele>53.599998474121</ele>
        <time>2015-12-14T19:23:27Z</time>
      </trkpt>
      <trkpt lat="48.86005" lon="2.34373">
        <ele>53.599998474121</ele>
        <time>2015-12-14T19:23:30Z</time>
      </trkpt>
      <trkpt lat="48.86009" lon="2.34343">
        <ele>53.20000076294</ele>
        <time>2015-12-14T19:23:34Z</time>
      </trkpt>
      <trkpt lat="48.86016" lon="2.34309">
        <ele>52.20000076294</ele>
        <time>2015-12-14T19:23:38Z</time>
      </trkpt>
      <trkpt lat="48.86025" lon="2.34277">
        <ele>49.79999923706</ele>
        <time>2015-12-14T19:23:42Z</time>
      </trkpt>
      <trkpt lat="48.86034" lon="2.34246">
        <ele>48.20000076294</ele>
        <time>2015-12-14T19:23:46Z</time>
      </trkpt>
      <trkpt lat="48.86042" lon="2.34216">
        <ele>48.20000076294</ele>
        <time>2015-12-14T19:23:50Z</time>
      </trkpt>
      <trkpt lat="48.86054" lon="2.34187">
        <ele>48.20000076294</ele>
        <time>2015-12-14T19:23:54Z</time>
      </trkpt>
      <trkpt lat="48.86064" lon="2.3416">
        <ele>48</ele>
        <time>2015-12-14T19:23:58Z</time>
      </trkpt>
      <trkpt lat="48.8607" lon="2.34147">
        <ele>48</ele>
        <time>2015-12-14T19:24:00Z</time>
      </trkpt>
      <trkpt lat="48.86074" lon="2.34116">
        <ele>47.599998474121</ele>
        <time>2015-12-14T19:24:04Z</time>
      </trkpt>
      <trkpt lat="48.86078" lon="2.34088">
        <ele>46.79999923706</ele>
        <time>2015-12-14T19:24:08Z</time>
      </trkpt>
      <trkpt lat="48.86086" lon="2.34059">
        <ele>44.599998474121</ele>
        <time>2015-12-14T19:24:12Z</time>
      </trkpt>
      <trkpt lat="48.86096" lon="2.34029">
        <ele>45.79999923706</ele>
        <time>2015-12-14T19:24:16Z</time>
      </trkpt>
      <trkpt lat="48.86105" lon="2.33999">
        <ele>47</ele>
        <time>2015-12-14T19:24:20Z</time>
      </trkpt>
      <trkpt lat="48.86116" lon="2.33971">
        <ele>48.599998474121</ele>
        <time>2015-12-14T19:24:24Z</time>
      </trkpt>
      <trkpt lat="48.86125" lon="2.33946">
        <ele>50</ele>
        <time>2015-12-14T19:24:28Z</time>
      </trkpt>
      <trkpt lat="48.86133" lon="2.33927">
        <ele>49.599998474121</ele>
        <time>2015-12-14T19:24:31Z</time>
      </trkpt>
      <trkpt lat="48.86143" lon="2.33903">
        <ele>48.599998474121</ele>
        <time>2015-12-14T19:24:35Z</time>
      </trkpt>
      <trkpt lat="48.86145" lon="2.33897">
        <ele>48.599998474121</ele>
        <time>2015-12-14T19:24:36Z</time>
      </trkpt>
      <trkpt lat="48.86155" lon="2.3387">
        <ele>48.20000076294</ele>
        <time>2015-12-14T19:24:40Z</time>
      </trkpt>
      <trkpt lat="48.86164" lon="2.33844">
        <ele>46.400001525879</ele>
        <time>2015-12-14T19:24:44Z</time>
      </trkpt>
      <trkpt lat="48.86174" lon="2.33816">
        <ele>44.20000076294</ele>
        <time>2015-12-14T19:24:48Z</time>
      </trkpt>
      <trkpt lat="48.86185" lon="2.33789">
        <ele>45</ele>
        <time>2015-12-14T19:24:52Z</time>
      </trkpt>
      <trkpt lat="48.86199" lon="2.33763">
        <ele>46.400001525879</ele>
        <time>2015-12-14T19:24:56Z</time>
      </trkpt>
      <trkpt lat="48.86211" lon="2.3374">
        <ele>47.20000076294</ele>
        <time>2015-12-14T19:25:00Z</time>
      </trkpt>
      <trkpt lat="48.86225" lon="2.33718">
        <ele>48</ele>
        <time>2015-12-14T19:25:04Z</time>
      </trkpt>
      <trkpt lat="48.86238" lon="2.33693">
        <ele>48.400001525879</ele>
        <time>2015-12-14T19:25:08Z</time>
      </trkpt>
      <trkpt lat="48.86241" lon="2.33687">
        <ele>48.20000076294</ele>
        <time>2015-12-14T19:25:09Z</time>
      </trkpt>
      <trkpt lat="48.86245" lon="2.33652">
        <ele>48.20000076294</ele>
        <time>2015-12-14T19:25:14Z</time>
      </trkpt>
      <trkpt lat="48.86244" lon="2.33637">
        <ele>48</ele>
        <time>2015-12-14T19:25:16Z</time>
      </trkpt>
      <trkpt lat="48.8625" lon="2.3361">
        <ele>48.20000076294</ele>
        <time>2015-12-14T19:25:20Z</time>
      </trkpt>
      <trkpt lat="48.86257" lon="2.33578">
        <ele>48.20000076294</ele>
        <time>2015-12-14T19:25:25Z</time>
      </trkpt>
      <trkpt lat="48.86264" lon="2.33553">
        <ele>46.599998474121</ele>
        <time>2015-12-14T19:25:29Z</time>
      </trkpt>
      <trkpt lat="48.86274" lon="2.33522">
        <ele>45.20000076294</ele>
        <time>2015-12-14T19:25:34Z</time>
      </trkpt>
      <trkpt lat="48.86281" lon="2.33495">
        <ele>44.400001525879</ele>
        <time>2015-12-14T19:25:38Z</time>
      </trkpt>
      <trkpt lat="48.86284" lon="2.33489">
        <ele>44.400001525879</ele>
        <time>2015-12-14T19:25:39Z</time>
      </trkpt>
      <trkpt lat="48.86294" lon="2.33459">
        <ele>44.599998474121</ele>
        <time>2015-12-14T19:25:44Z</time>
      </trkpt>
      <trkpt lat="48.86305" lon="2.33431">
        <ele>45.400001525879</ele>
        <time>2015-12-14T19:25:48Z</time>
      </trkpt>
      <trkpt lat="48.86312" lon="2.33404">
        <ele>47</ele>
        <time>2015-12-14T19:25:52Z</time>
      </trkpt>
      <trkpt lat="48.86314" lon="2.33392">
        <ele>47.599998474121</ele>
        <time>2015-12-14T19:25:54Z</time>
      </trkpt>
      <trkpt lat="48.86319" lon="2.33385">
        <ele>48.20000076294</ele>
        <time>2015-12-14T19:25:56Z</time>
      </trkpt>
      <trkpt lat="48.86339" lon="2.33392">
        <ele>49.599998474121</ele>
        <time>2015-12-14T19:26:01Z</time>
      </trkpt>
      <trkpt lat="48.86345" lon="2.33396">
        <ele>50</ele>
        <time>2015-12-14T19:26:03Z</time>
      </trkpt>
      <trkpt lat="48.8636" lon="2.334">
        <ele>50.400001525879</ele>
        <time>2015-12-14T19:26:08Z</time>
      </trkpt>
      <trkpt lat="48.86366" lon="2.33405">
        <ele>50.599998474121</ele>
        <time>2015-12-14T19:26:12Z</time>
      </trkpt>
      <trkpt lat="48.86384" lon="2.33412">
        <ele>50.599998474121</ele>
        <time>2015-12-14T19:26:18Z</time>
      </trkpt>
      <trkpt lat="48.86401" lon="2.33419">
        <ele>50.400001525879</ele>
        <time>2015-12-14T19:26:22Z</time>
      </trkpt>
      <trkpt lat="48.86412" lon="2.33419">
        <ele>50.400001525879</ele>
        <time>2015-12-14T19:26:27Z</time>
      </trkpt>
      <trkpt lat="48.86432" lon="2.33411">
        <ele>50</ele>
        <time>2015-12-14T19:26:34Z</time>
      </trkpt>
      <trkpt lat="48.86453" lon="2.33399">
        <ele>49.400001525879</ele>
        <time>2015-12-14T19:26:38Z</time>
      </trkpt>
      <trkpt lat="48.86472" lon="2.33394">
        <ele>49.20000076294</ele>
        <time>2015-12-14T19:26:42Z</time>
      </trkpt>
      <trkpt lat="48.86492" lon="2.33388">
        <ele>48.79999923706</ele>
        <time>2015-12-14T19:26:47Z</time>
      </trkpt>
      <trkpt lat="48.8651" lon="2.33379">
        <ele>48.599998474121</ele>
        <time>2015-12-14T19:26:52Z</time>
      </trkpt>
      <trkpt lat="48.8653" lon="2.33373">
        <ele>48.400001525879</ele>
        <time>2015-12-14T19:26:56Z</time>
      </trkpt>
      <trkpt lat="48.86548" lon="2.33363">
        <ele>48</ele>
        <time>2015-12-14T19:27:02Z</time>
      </trkpt>
      <trkpt lat="48.8655" lon="2.33355">
        <ele>48</ele>
        <time>2015-12-14T19:27:07Z</time>
      </trkpt>
      <trkpt lat="48.86559" lon="2.33353">
        <ele>47.599998474121</ele>
        <time>2015-12-14T19:27:55Z</time>
      </trkpt>
      <trkpt lat="48.86577" lon="2.33347">
        <ele>47</ele>
        <time>2015-12-14T19:28:02Z</time>
      </trkpt>
      <trkpt lat="48.86597" lon="2.33335">
        <ele>46.400001525879</ele>
        <time>2015-12-14T19:28:10Z</time>
      </trkpt>
      <trkpt lat="48.86614" lon="2.33326">
        <ele>46.20000076294</ele>
        <time>2015-12-14T19:28:16Z</time>
      </trkpt>
      <trkpt lat="48.86633" lon="2.33325">
        <ele>46.79999923706</ele>
        <time>2015-12-14T19:28:23Z</time>
      </trkpt>
      <trkpt lat="48.86656" lon="2.33334">
        <ele>47.79999923706</ele>
        <time>2015-12-14T19:28:29Z</time>
      </trkpt>
      <trkpt lat="48.86676" lon="2.33344">
        <ele>48.599998474121</ele>
        <time>2015-12-14T19:28:34Z</time>
      </trkpt>
      <trkpt lat="48.86694" lon="2.33351">
        <ele>49.20000076294</ele>
        <time>2015-12-14T19:28:40Z</time>
      </trkpt>
      <trkpt lat="48.86699" lon="2.33349">
        <ele>49.20000076294</ele>
        <time>2015-12-14T19:28:41Z</time>
      </trkpt>
      <trkpt lat="48.86713" lon="2.33331">
        <ele>49</ele>
        <time>2015-12-14T19:28:46Z</time>
      </trkpt>
      <trkpt lat="48.86731" lon="2.33316">
        <ele>48.599998474121</ele>
        <time>2015-12-14T19:28:51Z</time>
      </trkpt>
      <trkpt lat="48.86742" lon="2.33295">
        <ele>48.20000076294</ele>
        <time>2015-12-14T19:28:56Z</time>
      </trkpt>
      <trkpt lat="48.86731" lon="2.33265">
        <ele>47.400001525879</ele>
        <time>2015-12-14T19:29:02Z</time>
      </trkpt>
      <trkpt lat="48.86737" lon="2.33237">
        <ele>46.79999923706</ele>
        <time>2015-12-14T19:29:08Z</time>
      </trkpt>
      <trkpt lat="48.86741" lon="2.33226">
        <ele>46.79999923706</ele>
        <time>2015-12-14T19:29:12Z</time>
      </trkpt>
      <trkpt lat="48.8676" lon="2.33233">
        <ele>46.79999923706</ele>
        <time>2015-12-14T19:29:23Z</time>
      </trkpt>
      <trkpt lat="48.86766" lon="2.33228">
        <ele>47</ele>
        <time>2015-12-14T19:29:28Z</time>
      </trkpt>
      <trkpt lat="48.86775" lon="2.33219">
        <ele>47</ele>
        <time>2015-12-14T19:29:36Z</time>
      </trkpt>
      <trkpt lat="48.8678" lon="2.3322">
        <ele>47.20000076294</ele>
        <time>2015-12-14T19:30:29Z</time>
      </trkpt>
      <trkpt lat="48.86791" lon="2.33211">
        <ele>47.599998474121</ele>
        <time>2015-12-14T19:30:59Z</time>
      </trkpt>
      <trkpt lat="48.868" lon="2.33184">
        <ele>48</ele>
        <time>2015-12-14T19:31:10Z</time>
      </trkpt>
      <trkpt lat="48.86809" lon="2.33157">
        <ele>48.400001525879</ele>
        <time>2015-12-14T19:31:16Z</time>
      </trkpt>
      <trkpt lat="48.86818" lon="2.33128">
        <ele>49.400001525879</ele>
        <time>2015-12-14T19:31:22Z</time>
      </trkpt>
      <trkpt lat="48.86827" lon="2.33103">
        <ele>50</ele>
        <time>2015-12-14T19:31:26Z</time>
      </trkpt>
      <trkpt lat="48.86829" lon="2.33096">
        <ele>50.20000076294</ele>
        <time>2015-12-14T19:31:27Z</time>
      </trkpt>
      <trkpt lat="48.86835" lon="2.33074">
        <ele>50</ele>
        <time>2015-12-14T19:31:30Z</time>
      </trkpt>
      <trkpt lat="48.86838" lon="2.33038">
        <ele>47.79999923706</ele>
        <time>2015-12-14T19:31:35Z</time>
      </trkpt>
      <trkpt lat="48.86848" lon="2.3301">
        <ele>46.400001525879</ele>
        <time>2015-12-14T19:31:40Z</time>
      </trkpt>
      <trkpt lat="48.86862" lon="2.3299">
        <ele>46.400001525879</ele>
        <time>2015-12-14T19:31:44Z</time>
      </trkpt>
      <trkpt lat="48.86875" lon="2.32968">
        <ele>47.20000076294</ele>
        <time>2015-12-14T19:31:48Z</time>
      </trkpt>
      <trkpt lat="48.8689" lon="2.3295">
        <ele>48</ele>
        <time>2015-12-14T19:31:51Z</time>
      </trkpt>
      <trkpt lat="48.86906" lon="2.32945">
        <ele>48.79999923706</ele>
        <time>2015-12-14T19:31:58Z</time>
      </trkpt>
      <trkpt lat="48.86917" lon="2.32952">
        <ele>49.400001525879</ele>
        <time>2015-12-14T19:32:01Z</time>
      </trkpt>
      <trkpt lat="48.86936" lon="2.32969">
        <ele>50.400001525879</ele>
        <time>2015-12-14T19:32:06Z</time>
      </trkpt>
      <trkpt lat="48.86952" lon="2.32987">
        <ele>50.79999923706</ele>
        <time>2015-12-14T19:32:11Z</time>
      </trkpt>
      <trkpt lat="48.86969" lon="2.33008">
        <ele>50.79999923706</ele>
        <time>2015-12-14T19:32:18Z</time>
      </trkpt>
      <trkpt lat="48.86989" lon="2.33013">
        <ele>50.599998474121</ele>
        <time>2015-12-14T19:32:24Z</time>
      </trkpt>
      <trkpt lat="48.8701" lon="2.33012">
        <ele>50.400001525879</ele>
        <time>2015-12-14T19:32:29Z</time>
      </trkpt>
      <trkpt lat="48.87025" lon="2.33009">
        <ele>50.20000076294</ele>
        <time>2015-12-14T19:32:37Z</time>
      </trkpt>
      <trkpt lat="48.87031" lon="2.33024">
        <ele>50.400001525879</ele>
        <time>2015-12-14T19:33:00Z</time>
      </trkpt>
      <trkpt lat="48.8704" lon="2.33052">
        <ele>50.599998474121</ele>
        <time>2015-12-14T19:33:05Z</time>
      </trkpt>
      <trkpt lat="48.87048" lon="2.33083">
        <ele>51</ele>
        <time>2015-12-14T19:33:10Z</time>
      </trkpt>
      <trkpt lat="48.87055" lon="2.33108">
        <ele>50.400001525879</ele>
        <time>2015-12-14T19:33:15Z</time>
      </trkpt>
      <trkpt lat="48.87059" lon="2.33135">
        <ele>49.400001525879</ele>
        <time>2015-12-14T19:33:20Z</time>
      </trkpt>
      <trkpt lat="48.87066" lon="2.33164">
        <ele>48.599998474121</ele>
        <time>2015-12-14T19:33:26Z</time>
      </trkpt>
      <trkpt lat="48.87071" lon="2.33192">
        <ele>48.20000076294</ele>
        <time>2015-12-14T19:33:32Z</time>
      </trkpt>
      <trkpt lat="48.87076" lon="2.3322">
        <ele>48</ele>
        <time>2015-12-14T19:33:40Z</time>
      </trkpt>
      <trkpt lat="48.8708" lon="2.33228">
        <ele>48</ele>
        <time>2015-12-14T19:33:43Z</time>
      </trkpt>
      <trkpt lat="48.871" lon="2.33225">
        <ele>48.20000076294</ele>
        <time>2015-12-14T19:33:49Z</time>
      </trkpt>
      <trkpt lat="48.87106" lon="2.33221">
        <ele>48.400001525879</ele>
        <time>2015-12-14T19:33:51Z</time>
      </trkpt>
      <trkpt lat="48.87122" lon="2.33209">
        <ele>48.599998474121</ele>
        <time>2015-12-14T19:33:59Z</time>
      </trkpt>
      <trkpt lat="48.87124" lon="2.33208">
        <ele>48.599998474121</ele>
        <time>2015-12-14T19:34:24Z</time>
      </trkpt>
      <trkpt lat="48.87118" lon="2.33193">
        <ele>48.79999923706</ele>
        <time>2015-12-14T19:35:36Z</time>
      </trkpt>
      <trkpt lat="48.87122" lon="2.33197">
        <ele>48.79999923706</ele>
        <time>2015-12-14T19:36:43Z</time>
      </trkpt>
      <trkpt lat="48.87121" lon="2.33197">
        <ele>48.79999923706</ele>
        <time>2015-12-14T19:36:44Z</time>
      </trkpt>
      <trkpt lat="48.87118" lon="2.33197">
        <ele>48.79999923706</ele>
        <time>2015-12-14T19:37:29Z</time>
      </trkpt>
      <trkpt lat="48.87136" lon="2.33198">
        <ele>49</ele>
        <time>2015-12-14T19:38:14Z</time>
      </trkpt>
      <trkpt lat="48.87129" lon="2.33213">
        <ele>48.599998474121</ele>
        <time>2015-12-14T19:38:57Z</time>
      </trkpt>
      <trkpt lat="48.87144" lon="2.3323">
        <ele>48.599998474121</ele>
        <time>2015-12-14T19:39:04Z</time>
      </trkpt>
      <trkpt lat="48.87162" lon="2.33239">
        <ele>48.79999923706</ele>
        <time>2015-12-14T19:39:10Z</time>
      </trkpt>
      <trkpt lat="48.87181" lon="2.33241">
        <ele>49</ele>
        <time>2015-12-14T19:39:19Z</time>
      </trkpt>
      <trkpt lat="48.872" lon="2.33232">
        <ele>50.400001525879</ele>
        <time>2015-12-14T19:39:23Z</time>
      </trkpt>
      <trkpt lat="48.87218" lon="2.33224">
        <ele>51.400001525879</ele>
        <time>2015-12-14T19:39:26Z</time>
      </trkpt>
      <trkpt lat="48.87239" lon="2.33214">
        <ele>52.599998474121</ele>
        <time>2015-12-14T19:39:30Z</time>
      </trkpt>
      <trkpt lat="48.87261" lon="2.33208">
        <ele>51.20000076294</ele>
        <time>2015-12-14T19:39:33Z</time>
      </trkpt>
      <trkpt lat="48.87285" lon="2.33202">
        <ele>50.400001525879</ele>
        <time>2015-12-14T19:39:36Z</time>
      </trkpt>
      <trkpt lat="48.87287" lon="2.33195">
        <ele>50.20000076294</ele>
        <time>2015-12-14T19:39:37Z</time>
      </trkpt>
      <trkpt lat="48.87295" lon="2.33162">
        <ele>49.79999923706</ele>
        <time>2015-12-14T19:39:41Z</time>
      </trkpt>
      <trkpt lat="48.87305" lon="2.33146">
        <ele>48.400001525879</ele>
        <time>2015-12-14T19:39:44Z</time>
      </trkpt>
      <trkpt lat="48.87311" lon="2.33135">
        <ele>47.599998474121</ele>
        <time>2015-12-14T19:39:48Z</time>
      </trkpt>
      <trkpt lat="48.87312" lon="2.33135">
        <ele>47.599998474121</ele>
        <time>2015-12-14T19:39:50Z</time>
      </trkpt>
      <trkpt lat="48.87324" lon="2.33115">
        <ele>46.400001525879</ele>
        <time>2015-12-14T19:40:04Z</time>
      </trkpt>
      <trkpt lat="48.87343" lon="2.33115">
        <ele>47.20000076294</ele>
        <time>2015-12-14T19:40:09Z</time>
      </trkpt>
      <trkpt lat="48.87364" lon="2.33116">
        <ele>47.79999923706</ele>
        <time>2015-12-14T19:40:14Z</time>
      </trkpt>
      <trkpt lat="48.87383" lon="2.33115">
        <ele>48.20000076294</ele>
        <time>2015-12-14T19:40:18Z</time>
      </trkpt>
      <trkpt lat="48.87401" lon="2.33115">
        <ele>48.599998474121</ele>
        <time>2015-12-14T19:40:22Z</time>
      </trkpt>
      <trkpt lat="48.87419" lon="2.33117">
        <ele>49</ele>
        <time>2015-12-14T19:40:26Z</time>
      </trkpt>
      <trkpt lat="48.87442" lon="2.33117">
        <ele>49</ele>
        <time>2015-12-14T19:40:30Z</time>
      </trkpt>
      <trkpt lat="48.87462" lon="2.33117">
        <ele>47.79999923706</ele>
        <time>2015-12-14T19:40:34Z</time>
      </trkpt>
      <trkpt lat="48.87466" lon="2.33116">
        <ele>47.599998474121</ele>
        <time>2015-12-14T19:40:35Z</time>
      </trkpt>
      <trkpt lat="48.87477" lon="2.33114">
        <ele>47</ele>
        <time>2015-12-14T19:40:39Z</time>
      </trkpt>
      <trkpt lat="48.8748" lon="2.33112">
        <ele>46.79999923706</ele>
        <time>2015-12-14T19:40:43Z</time>
      </trkpt>
      <trkpt lat="48.87472" lon="2.33085">
        <ele>46.599998474121</ele>
        <time>2015-12-14T19:40:49Z</time>
      </trkpt>
      <trkpt lat="48.87462" lon="2.33057">
        <ele>46.20000076294</ele>
        <time>2015-12-14T19:40:55Z</time>
      </trkpt>
      <trkpt lat="48.8746" lon="2.33039">
        <ele>45.79999923706</ele>
        <time>2015-12-14T19:40:58Z</time>
      </trkpt>
      <trkpt lat="48.87465" lon="2.33006">
        <ele>44.79999923706</ele>
        <time>2015-12-14T19:41:03Z</time>
      </trkpt>
      <trkpt lat="48.87471" lon="2.32978">
        <ele>46.599998474121</ele>
        <time>2015-12-14T19:41:07Z</time>
      </trkpt>
      <trkpt lat="48.87474" lon="2.32951">
        <ele>49.599998474121</ele>
        <time>2015-12-14T19:41:11Z</time>
      </trkpt>
      <trkpt lat="48.87474" lon="2.32921">
        <ele>50</ele>
        <time>2015-12-14T19:41:16Z</time>
      </trkpt>
      <trkpt lat="48.87472" lon="2.32893">
        <ele>49.20000076294</ele>
        <time>2015-12-14T19:41:21Z</time>
      </trkpt>
      <trkpt lat="48.87466" lon="2.32865">
        <ele>48.599998474121</ele>
        <time>2015-12-14T19:41:28Z</time>
      </trkpt>
      <trkpt lat="48.8745" lon="2.32855">
        <ele>50</ele>
        <time>2015-12-14T19:41:36Z</time>
      </trkpt>
      <trkpt lat="48.87436" lon="2.32851">
        <ele>51</ele>
        <time>2015-12-14T19:41:42Z</time>
      </trkpt>
      <trkpt lat="48.87438" lon="2.32836">
        <ele>50.20000076294</ele>
        <time>2015-12-14T19:41:50Z</time>
      </trkpt>
      <trkpt lat="48.87433" lon="2.32798">
        <ele>49.599998474121</ele>
        <time>2015-12-14T19:41:56Z</time>
      </trkpt>
      <trkpt lat="48.8743" lon="2.32767">
        <ele>49.20000076294</ele>
        <time>2015-12-14T19:42:02Z</time>
      </trkpt>
      <trkpt lat="48.87426" lon="2.32738">
        <ele>48.79999923706</ele>
        <time>2015-12-14T19:42:08Z</time>
      </trkpt>
      <trkpt lat="48.87425" lon="2.32718">
        <ele>48.400001525879</ele>
        <time>2015-12-14T19:42:15Z</time>
      </trkpt>
      <trkpt lat="48.87428" lon="2.32712">
        <ele>48</ele>
        <time>2015-12-14T19:42:22Z</time>
      </trkpt>
      <trkpt lat="48.87419" lon="2.32695">
        <ele>47.599998474121</ele>
        <time>2015-12-14T19:42:29Z</time>
      </trkpt>
      <trkpt lat="48.8742" lon="2.32666">
        <ele>46.599998474121</ele>
        <time>2015-12-14T19:42:34Z</time>
      </trkpt>
      <trkpt lat="48.87421" lon="2.32638">
        <ele>46.79999923706</ele>
        <time>2015-12-14T19:42:38Z</time>
      </trkpt>
      <trkpt lat="48.87424" lon="2.32609">
        <ele>46.20000076294</ele>
        <time>2015-12-14T19:42:42Z</time>
      </trkpt>
      <trkpt lat="48.87437" lon="2.32585">
        <ele>45.20000076294</ele>
        <time>2015-12-14T19:42:46Z</time>
      </trkpt>
      <trkpt lat="48.87452" lon="2.32565">
        <ele>44.20000076294</ele>
        <time>2015-12-14T19:42:50Z</time>
      </trkpt>
      <trkpt lat="48.87466" lon="2.32544">
        <ele>43.400001525879</ele>
        <time>2015-12-14T19:42:54Z</time>
      </trkpt>
      <trkpt lat="48.8748" lon="2.32524">
        <ele>42.79999923706</ele>
        <time>2015-12-14T19:42:58Z</time>
      </trkpt>
      <trkpt lat="48.87487" lon="2.32495">
        <ele>42.599998474121</ele>
        <time>2015-12-14T19:43:03Z</time>
      </trkpt>
      <trkpt lat="48.87494" lon="2.32483">
        <ele>42.79999923706</ele>
        <time>2015-12-14T19:43:06Z</time>
      </trkpt>
      <trkpt lat="48.87501" lon="2.32469">
        <ele>43</ele>
        <time>2015-12-14T19:43:10Z</time>
      </trkpt>
      <trkpt lat="48.87512" lon="2.32441">
        <ele>43</ele>
        <time>2015-12-14T19:43:18Z</time>
      </trkpt>
      <trkpt lat="48.87525" lon="2.3242">
        <ele>43</ele>
        <time>2015-12-14T19:43:24Z</time>
      </trkpt>
      <trkpt lat="48.8754" lon="2.32404">
        <ele>42</ele>
        <time>2015-12-14T19:43:32Z</time>
      </trkpt>
      <trkpt lat="48.8755" lon="2.32381">
        <ele>41.79999923706</ele>
        <time>2015-12-14T19:43:45Z</time>
      </trkpt>
      <trkpt lat="48.87563" lon="2.32358">
        <ele>42</ele>
        <time>2015-12-14T19:43:50Z</time>
      </trkpt>
      <trkpt lat="48.87577" lon="2.3234">
        <ele>43</ele>
        <time>2015-12-14T19:43:54Z</time>
      </trkpt>
      <trkpt lat="48.8759" lon="2.32316">
        <ele>43.79999923706</ele>
        <time>2015-12-14T19:43:59Z</time>
      </trkpt>
      <trkpt lat="48.87597" lon="2.32286">
        <ele>45.599998474121</ele>
        <time>2015-12-14T19:44:07Z</time>
      </trkpt>
      <trkpt lat="48.87608" lon="2.32264">
        <ele>47</ele>
        <time>2015-12-14T19:44:13Z</time>
      </trkpt>
      <trkpt lat="48.87624" lon="2.32244">
        <ele>48.400001525879</ele>
        <time>2015-12-14T19:44:18Z</time>
      </trkpt>
      <trkpt lat="48.87635" lon="2.32229">
        <ele>48.400001525879</ele>
        <time>2015-12-14T19:44:22Z</time>
      </trkpt>
      <trkpt lat="48.87644" lon="2.32216">
        <ele>48.599998474121</ele>
        <time>2015-12-14T19:44:26Z</time>
      </trkpt>
      <trkpt lat="48.87658" lon="2.32198">
        <ele>49.400001525879</ele>
        <time>2015-12-14T19:44:33Z</time>
      </trkpt>
      <trkpt lat="48.87676" lon="2.32184">
        <ele>51.20000076294</ele>
        <time>2015-12-14T19:44:39Z</time>
      </trkpt>
      <trkpt lat="48.87684" lon="2.32178">
        <ele>52.20000076294</ele>
        <time>2015-12-14T19:44:42Z</time>
      </trkpt>
      <trkpt lat="48.8769" lon="2.32174">
        <ele>52.599998474121</ele>
        <time>2015-12-14T19:44:47Z</time>
      </trkpt>
      <trkpt lat="48.87703" lon="2.32155">
        <ele>54</ele>
        <time>2015-12-14T19:45:20Z</time>
      </trkpt>
      <trkpt lat="48.87718" lon="2.32136">
        <ele>54.79999923706</ele>
        <time>2015-12-14T19:45:25Z</time>
      </trkpt>
      <trkpt lat="48.87734" lon="2.3212">
        <ele>55.599998474121</ele>
        <time>2015-12-14T19:45:29Z</time>
      </trkpt>
      <trkpt lat="48.8775" lon="2.32098">
        <ele>56.79999923706</ele>
        <time>2015-12-14T19:45:34Z</time>
      </trkpt>
      <trkpt lat="48.87764" lon="2.3208">
        <ele>57.79999923706</ele>
        <time>2015-12-14T19:45:38Z</time>
      </trkpt>
      <trkpt lat="48.87779" lon="2.32063">
        <ele>58.400001525879</ele>
        <time>2015-12-14T19:45:42Z</time>
      </trkpt>
      <trkpt lat="48.87795" lon="2.32049">
        <ele>58</ele>
        <time>2015-12-14T19:45:47Z</time>
      </trkpt>
      <trkpt lat="48.87813" lon="2.32031">
        <ele>57.599998474121</ele>
        <time>2015-12-14T19:45:54Z</time>
      </trkpt>
      <trkpt lat="48.87821" lon="2.32004">
        <ele>57</ele>
        <time>2015-12-14T19:46:02Z</time>
      </trkpt>
      <trkpt lat="48.87826" lon="2.31973">
        <ele>57.20000076294</ele>
        <time>2015-12-14T19:46:10Z</time>
      </trkpt>
      <trkpt lat="48.87842" lon="2.31954">
        <ele>58</ele>
        <time>2015-12-14T19:46:17Z</time>
      </trkpt>
      <trkpt lat="48.87859" lon="2.31938">
        <ele>58.79999923706</ele>
        <time>2015-12-14T19:46:22Z</time>
      </trkpt>
      <trkpt lat="48.87875" lon="2.31922">
        <ele>60.20000076294</ele>
        <time>2015-12-14T19:46:27Z</time>
      </trkpt>
      <trkpt lat="48.87891" lon="2.31907">
        <ele>61.400001525879</ele>
        <time>2015-12-14T19:46:32Z</time>
      </trkpt>
      <trkpt lat="48.87905" lon="2.31888">
        <ele>62.599998474121</ele>
        <time>2015-12-14T19:46:37Z</time>
      </trkpt>
      <trkpt lat="48.8792" lon="2.31868">
        <ele>63</ele>
        <time>2015-12-14T19:46:43Z</time>
      </trkpt>
      <trkpt lat="48.87935" lon="2.31847">
        <ele>63.20000076294</ele>
        <time>2015-12-14T19:46:51Z</time>
      </trkpt>
      <trkpt lat="48.87946" lon="2.31826">
        <ele>63</ele>
        <time>2015-12-14T19:47:00Z</time>
      </trkpt>
      <trkpt lat="48.8796" lon="2.31816">
        <ele>63.20000076294</ele>
        <time>2015-12-14T19:47:43Z</time>
      </trkpt>
      <trkpt lat="48.87975" lon="2.318">
        <ele>63.20000076294</ele>
        <time>2015-12-14T19:47:49Z</time>
      </trkpt>
      <trkpt lat="48.8799" lon="2.31785">
        <ele>63.20000076294</ele>
        <time>2015-12-14T19:47:55Z</time>
      </trkpt>
      <trkpt lat="48.88008" lon="2.3177">
        <ele>63.79999923706</ele>
        <time>2015-12-14T19:48:01Z</time>
      </trkpt>
      <trkpt lat="48.88025" lon="2.31752">
        <ele>64.199996948242</ele>
        <time>2015-12-14T19:48:07Z</time>
      </trkpt>
      <trkpt lat="48.88042" lon="2.31735">
        <ele>63.79999923706</ele>
        <time>2015-12-14T19:48:14Z</time>
      </trkpt>
      <trkpt lat="48.8806" lon="2.3172">
        <ele>63.400001525879</ele>
        <time>2015-12-14T19:48:21Z</time>
      </trkpt>
      <trkpt lat="48.88069" lon="2.31709">
        <ele>63.20000076294</ele>
        <time>2015-12-14T19:48:25Z</time>
      </trkpt>
      <trkpt lat="48.88085" lon="2.31695">
        <ele>63.599998474121</ele>
        <time>2015-12-14T19:48:30Z</time>
      </trkpt>
      <trkpt lat="48.881" lon="2.3168">
        <ele>64</ele>
        <time>2015-12-14T19:48:36Z</time>
      </trkpt>
      <trkpt lat="48.88109" lon="2.31673">
        <ele>64</ele>
        <time>2015-12-14T19:48:41Z</time>
      </trkpt>
      <trkpt lat="48.8812" lon="2.31669">
        <ele>63.599998474121</ele>
        <time>2015-12-14T19:48:47Z</time>
      </trkpt>
      <trkpt lat="48.88121" lon="2.31668">
        <ele>63.599998474121</ele>
        <time>2015-12-14T19:48:49Z</time>
      </trkpt>
      <trkpt lat="48.88142" lon="2.31659">
        <ele>62.599998474121</ele>
        <time>2015-12-14T19:49:12Z</time>
      </trkpt>
      <trkpt lat="48.88154" lon="2.31656">
        <ele>62</ele>
        <time>2015-12-14T19:49:17Z</time>
      </trkpt>
      <trkpt lat="48.88159" lon="2.31638">
        <ele>61.400001525879</ele>
        <time>2015-12-14T19:49:22Z</time>
      </trkpt>
      <trkpt lat="48.8817" lon="2.31615">
        <ele>62</ele>
        <time>2015-12-14T19:49:30Z</time>
      </trkpt>
      <trkpt lat="48.88183" lon="2.31592">
        <ele>62.599998474121</ele>
        <time>2015-12-14T19:49:37Z</time>
      </trkpt>
      <trkpt lat="48.88198" lon="2.31573">
        <ele>62.599998474121</ele>
        <time>2015-12-14T19:49:43Z</time>
      </trkpt>
      <trkpt lat="48.88213" lon="2.31553">
        <ele>61.79999923706</ele>
        <time>2015-12-14T19:49:50Z</time>
      </trkpt>
      <trkpt lat="48.88231" lon="2.31536">
        <ele>61</ele>
        <time>2015-12-14T19:49:56Z</time>
      </trkpt>
      <trkpt lat="48.88247" lon="2.31521">
        <ele>60.599998474121</ele>
        <time>2015-12-14T19:50:02Z</time>
      </trkpt>
      <trkpt lat="48.88263" lon="2.31498">
        <ele>60.400001525879</ele>
        <time>2015-12-14T19:50:08Z</time>
      </trkpt>
      <trkpt lat="48.8828" lon="2.31479">
        <ele>60</ele>
        <time>2015-12-14T19:50:14Z</time>
      </trkpt>
      <trkpt lat="48.88296" lon="2.31459">
        <ele>60</ele>
        <time>2015-12-14T19:50:20Z</time>
      </trkpt>
      <trkpt lat="48.88312" lon="2.31445">
        <ele>59.599998474121</ele>
        <time>2015-12-14T19:50:25Z</time>
      </trkpt>
      <trkpt lat="48.88329" lon="2.3143">
        <ele>59.400001525879</ele>
        <time>2015-12-14T19:50:30Z</time>
      </trkpt>
      <trkpt lat="48.88345" lon="2.3141">
        <ele>59.20000076294</ele>
        <time>2015-12-14T19:50:35Z</time>
      </trkpt>
      <trkpt lat="48.8836" lon="2.31388">
        <ele>59</ele>
        <time>2015-12-14T19:50:41Z</time>
      </trkpt>
      <trkpt lat="48.88374" lon="2.31368">
        <ele>59</ele>
        <time>2015-12-14T19:50:47Z</time>
      </trkpt>
      <trkpt lat="48.88387" lon="2.31348">
        <ele>59</ele>
        <time>2015-12-14T19:50:52Z</time>
      </trkpt>
      <trkpt lat="48.88402" lon="2.31327">
        <ele>59</ele>
        <time>2015-12-14T19:50:57Z</time>
      </trkpt>
      <trkpt lat="48.88418" lon="2.3131">
        <ele>59.20000076294</ele>
        <time>2015-12-14T19:51:02Z</time>
      </trkpt>
      <trkpt lat="48.88433" lon="2.31289">
        <ele>58.599998474121</ele>
        <time>2015-12-14T19:51:07Z</time>
      </trkpt>
      <trkpt lat="48.88449" lon="2.31263">
        <ele>58.599998474121</ele>
        <time>2015-12-14T19:51:12Z</time>
      </trkpt>
      <trkpt lat="48.88463" lon="2.31242">
        <ele>57.79999923706</ele>
        <time>2015-12-14T19:51:16Z</time>
      </trkpt>
      <trkpt lat="48.88474" lon="2.31219">
        <ele>57.400001525879</ele>
        <time>2015-12-14T19:51:20Z</time>
      </trkpt>
      <trkpt lat="48.88487" lon="2.31193">
        <ele>57</ele>
        <time>2015-12-14T19:51:25Z</time>
      </trkpt>
      <trkpt lat="48.88495" lon="2.31178">
        <ele>56.79999923706</ele>
        <time>2015-12-14T19:51:28Z</time>
      </trkpt>
      <trkpt lat="48.88508" lon="2.31153">
        <ele>56.599998474121</ele>
        <time>2015-12-14T19:51:33Z</time>
      </trkpt>
      <trkpt lat="48.8852" lon="2.3113">
        <ele>56.20000076294</ele>
        <time>2015-12-14T19:51:38Z</time>
      </trkpt>
      <trkpt lat="48.88525" lon="2.31099">
        <ele>55.400001525879</ele>
        <time>2015-12-14T19:51:45Z</time>
      </trkpt>
      <trkpt lat="48.88528" lon="2.31075">
        <ele>55.20000076294</ele>
        <time>2015-12-14T19:51:50Z</time>
      </trkpt>
      <trkpt lat="48.8854" lon="2.31052">
        <ele>55.599998474121</ele>
        <time>2015-12-14T19:51:55Z</time>
      </trkpt>
      <trkpt lat="48.88556" lon="2.31036">
        <ele>56</ele>
        <time>2015-12-14T19:52:00Z</time>
      </trkpt>
      <trkpt lat="48.88567" lon="2.3101">
        <ele>55.20000076294</ele>
        <time>2015-12-14T19:52:06Z</time>
      </trkpt>
      <trkpt lat="48.88583" lon="2.30987">
        <ele>54.79999923706</ele>
        <time>2015-12-14T19:52:12Z</time>
      </trkpt>
      <trkpt lat="48.88594" lon="2.30966">
        <ele>55.400001525879</ele>
        <time>2015-12-14T19:52:21Z</time>
      </trkpt>
      <trkpt lat="48.88584" lon="2.30944">
        <ele>56.599998474121</ele>
        <time>2015-12-14T19:52:52Z</time>
      </trkpt>
      <trkpt lat="48.88576" lon="2.30916">
        <ele>58</ele>
        <time>2015-12-14T19:52:59Z</time>
      </trkpt>
      <trkpt lat="48.88566" lon="2.30888">
        <ele>57.599998474121</ele>
        <time>2015-12-14T19:53:05Z</time>
      </trkpt>
      <trkpt lat="48.88556" lon="2.30864">
        <ele>57.400001525879</ele>
        <time>2015-12-14T19:53:10Z</time>
      </trkpt>
      <trkpt lat="48.88545" lon="2.30835">
        <ele>57</ele>
        <time>2015-12-14T19:53:15Z</time>
      </trkpt>
      <trkpt lat="48.88536" lon="2.30804">
        <ele>56</ele>
        <time>2015-12-14T19:53:20Z</time>
      </trkpt>
      <trkpt lat="48.88526" lon="2.30774">
        <ele>55</ele>
        <time>2015-12-14T19:53:25Z</time>
      </trkpt>
      <trkpt lat="48.88517" lon="2.30745">
        <ele>54</ele>
        <time>2015-12-14T19:53:30Z</time>
      </trkpt>
      <trkpt lat="48.88512" lon="2.30712">
        <ele>54</ele>
        <time>2015-12-14T19:53:35Z</time>
      </trkpt>
      <trkpt lat="48.88511" lon="2.30699">
        <ele>54</ele>
        <time>2015-12-14T19:53:37Z</time>
      </trkpt>
      <trkpt lat="48.88509" lon="2.3067">
        <ele>54</ele>
        <time>2015-12-14T19:53:41Z</time>
      </trkpt>
      <trkpt lat="48.88508" lon="2.30646">
        <ele>53.79999923706</ele>
        <time>2015-12-14T19:53:44Z</time>
      </trkpt>
      <trkpt lat="48.88513" lon="2.30612">
        <ele>54.400001525879</ele>
        <time>2015-12-14T19:53:48Z</time>
      </trkpt>
      <trkpt lat="48.88517" lon="2.30576">
        <ele>54.599998474121</ele>
        <time>2015-12-14T19:53:52Z</time>
      </trkpt>
      <trkpt lat="48.8852" lon="2.30548">
        <ele>54.79999923706</ele>
        <time>2015-12-14T19:53:55Z</time>
      </trkpt>
      <trkpt lat="48.88521" lon="2.30537">
        <ele>54.79999923706</ele>
        <time>2015-12-14T19:53:56Z</time>
      </trkpt>
      <trkpt lat="48.88524" lon="2.30517">
        <ele>55</ele>
        <time>2015-12-14T19:53:58Z</time>
      </trkpt>
      <trkpt lat="48.88526" lon="2.30488">
        <ele>55.20000076294</ele>
        <time>2015-12-14T19:54:01Z</time>
      </trkpt>
      <trkpt lat="48.88527" lon="2.30458">
        <ele>55.599998474121</ele>
        <time>2015-12-14T19:54:04Z</time>
      </trkpt>
      <trkpt lat="48.88528" lon="2.30429">
        <ele>55.79999923706</ele>
        <time>2015-12-14T19:54:07Z</time>
      </trkpt>
      <trkpt lat="48.8853" lon="2.30401">
        <ele>55.20000076294</ele>
        <time>2015-12-14T19:54:10Z</time>
      </trkpt>
      <trkpt lat="48.88525" lon="2.3038">
        <ele>54.599998474121</ele>
        <time>2015-12-14T19:54:12Z</time>
      </trkpt>
      <trkpt lat="48.88523" lon="2.30363">
        <ele>54.20000076294</ele>
        <time>2015-12-14T19:54:14Z</time>
      </trkpt>
      <trkpt lat="48.88513" lon="2.3034">
        <ele>53.599998474121</ele>
        <time>2015-12-14T19:54:18Z</time>
      </trkpt>
      <trkpt lat="48.88497" lon="2.30327">
        <ele>53.400001525879</ele>
        <time>2015-12-14T19:54:22Z</time>
      </trkpt>
      <trkpt lat="48.88493" lon="2.30325">
        <ele>53.20000076294</ele>
        <time>2015-12-14T19:54:23Z</time>
      </trkpt>
      <trkpt lat="48.88476" lon="2.30313">
        <ele>52.599998474121</ele>
        <time>2015-12-14T19:54:28Z</time>
      </trkpt>
      <trkpt lat="48.88459" lon="2.30305">
        <ele>52.400001525879</ele>
        <time>2015-12-14T19:54:33Z</time>
      </trkpt>
      <trkpt lat="48.88456" lon="2.30304">
        <ele>52.400001525879</ele>
        <time>2015-12-14T19:54:34Z</time>
      </trkpt>
      <trkpt lat="48.88451" lon="2.30302">
        <ele>52.400001525879</ele>
        <time>2015-12-14T19:54:36Z</time>
      </trkpt>
      <trkpt lat="48.88447" lon="2.303">
        <ele>52.400001525879</ele>
        <time>2015-12-14T19:54:39Z</time>
      </trkpt>
      <trkpt lat="48.88445" lon="2.30298">
        <ele>52.20000076294</ele>
        <time>2015-12-14T19:54:41Z</time>
      </trkpt>
      <trkpt lat="48.88442" lon="2.30296">
        <ele>52</ele>
        <time>2015-12-14T19:54:43Z</time>
      </trkpt>
      <trkpt lat="48.88426" lon="2.30287">
        <ele>51.599998474121</ele>
        <time>2015-12-14T19:54:52Z</time>
      </trkpt>
      <trkpt lat="48.88407" lon="2.30277">
        <ele>51</ele>
        <time>2015-12-14T19:54:57Z</time>
      </trkpt>
      <trkpt lat="48.88389" lon="2.30265">
        <ele>50.20000076294</ele>
        <time>2015-12-14T19:55:01Z</time>
      </trkpt>
      <trkpt lat="48.88371" lon="2.30251">
        <ele>49.20000076294</ele>
        <time>2015-12-14T19:55:05Z</time>
      </trkpt>
      <trkpt lat="48.88351" lon="2.30234">
        <ele>49</ele>
        <time>2015-12-14T19:55:09Z</time>
      </trkpt>
      <trkpt lat="48.88333" lon="2.3022">
        <ele>49</ele>
        <time>2015-12-14T19:55:13Z</time>
      </trkpt>
      <trkpt lat="48.88313" lon="2.30205">
        <ele>49</ele>
        <time>2015-12-14T19:55:17Z</time>
      </trkpt>
      <trkpt lat="48.88292" lon="2.30189">
        <ele>49</ele>
        <time>2015-12-14T19:55:21Z</time>
      </trkpt>
      <trkpt lat="48.88271" lon="2.30176">
        <ele>49.400001525879</ele>
        <time>2015-12-14T19:55:25Z</time>
      </trkpt>
      <trkpt lat="48.88249" lon="2.30161">
        <ele>51</ele>
        <time>2015-12-14T19:55:29Z</time>
      </trkpt>
      <trkpt lat="48.88229" lon="2.30147">
        <ele>52.20000076294</ele>
        <time>2015-12-14T19:55:33Z</time>
      </trkpt>
      <trkpt lat="48.88207" lon="2.30133">
        <ele>53.400001525879</ele>
        <time>2015-12-14T19:55:37Z</time>
      </trkpt>
      <trkpt lat="48.88186" lon="2.30118">
        <ele>54.400001525879</ele>
        <time>2015-12-14T19:55:41Z</time>
      </trkpt>
      <trkpt lat="48.88168" lon="2.30102">
        <ele>54.400001525879</ele>
        <time>2015-12-14T19:55:45Z</time>
      </trkpt>
      <trkpt lat="48.88147" lon="2.30087">
        <ele>54.20000076294</ele>
        <time>2015-12-14T19:55:49Z</time>
      </trkpt>
      <trkpt lat="48.88125" lon="2.30076">
        <ele>54.400001525879</ele>
        <time>2015-12-14T19:55:53Z</time>
      </trkpt>
      <trkpt lat="48.88105" lon="2.30065">
        <ele>54.79999923706</ele>
        <time>2015-12-14T19:55:57Z</time>
      </trkpt>
      <trkpt lat="48.88084" lon="2.3005">
        <ele>54.599998474121</ele>
        <time>2015-12-14T19:56:01Z</time>
      </trkpt>
      <trkpt lat="48.88065" lon="2.30033">
        <ele>54.400001525879</ele>
        <time>2015-12-14T19:56:04Z</time>
      </trkpt>
      <trkpt lat="48.88048" lon="2.30014">
        <ele>54.20000076294</ele>
        <time>2015-12-14T19:56:06Z</time>
      </trkpt>
      <trkpt lat="48.88031" lon="2.30002">
        <ele>54</ele>
        <time>2015-12-14T19:56:08Z</time>
      </trkpt>
      <trkpt lat="48.88008" lon="2.29985">
        <ele>53.599998474121</ele>
        <time>2015-12-14T19:56:11Z</time>
      </trkpt>
      <trkpt lat="48.87988" lon="2.29969">
        <ele>53</ele>
        <time>2015-12-14T19:56:14Z</time>
      </trkpt>
      <trkpt lat="48.87967" lon="2.29955">
        <ele>52.400001525879</ele>
        <time>2015-12-14T19:56:17Z</time>
      </trkpt>
      <trkpt lat="48.87946" lon="2.2994">
        <ele>51.79999923706</ele>
        <time>2015-12-14T19:56:20Z</time>
      </trkpt>
      <trkpt lat="48.87927" lon="2.29927">
        <ele>51.599998474121</ele>
        <time>2015-12-14T19:56:23Z</time>
      </trkpt>
      <trkpt lat="48.87921" lon="2.29924">
        <ele>51.599998474121</ele>
        <time>2015-12-14T19:56:24Z</time>
      </trkpt>
      <trkpt lat="48.87901" lon="2.29909">
        <ele>51.79999923706</ele>
        <time>2015-12-14T19:56:28Z</time>
      </trkpt>
      <trkpt lat="48.87884" lon="2.29895">
        <ele>51.599998474121</ele>
        <time>2015-12-14T19:56:32Z</time>
      </trkpt>
      <trkpt lat="48.87866" lon="2.29879">
        <ele>51.599998474121</ele>
        <time>2015-12-14T19:56:37Z</time>
      </trkpt>
      <trkpt lat="48.87861" lon="2.29876">
        <ele>51.599998474121</ele>
        <time>2015-12-14T19:56:39Z</time>
      </trkpt>
      <trkpt lat="48.87849" lon="2.29864">
        <ele>51.20000076294</ele>
        <time>2015-12-14T19:56:45Z</time>
      </trkpt>
      <trkpt lat="48.87847" lon="2.29862">
        <ele>51.20000076294</ele>
        <time>2015-12-14T19:56:46Z</time>
      </trkpt>
      <trkpt lat="48.87851" lon="2.29833">
        <ele>50.20000076294</ele>
        <time>2015-12-14T19:57:50Z</time>
      </trkpt>
      <trkpt lat="48.87852" lon="2.29803">
        <ele>50.400001525879</ele>
        <time>2015-12-14T19:58:00Z</time>
      </trkpt>
      <trkpt lat="48.8785" lon="2.29794">
        <ele>50.599998474121</ele>
        <time>2015-12-14T19:58:03Z</time>
      </trkpt>
      <trkpt lat="48.87833" lon="2.2978">
        <ele>50.79999923706</ele>
        <time>2015-12-14T19:58:11Z</time>
      </trkpt>
      <trkpt lat="48.87829" lon="2.29778">
        <ele>51</ele>
        <time>2015-12-14T19:58:13Z</time>
      </trkpt>
      <trkpt lat="48.87826" lon="2.29777">
        <ele>51</ele>
        <time>2015-12-14T19:58:15Z</time>
      </trkpt>
      <trkpt lat="48.87816" lon="2.29778">
        <ele>51.20000076294</ele>
        <time>2015-12-14T19:58:19Z</time>
      </trkpt>
      <trkpt lat="48.87808" lon="2.29775">
        <ele>51.20000076294</ele>
        <time>2015-12-14T19:58:23Z</time>
      </trkpt>
      <trkpt lat="48.87814" lon="2.29743">
        <ele>51.400001525879</ele>
        <time>2015-12-14T19:58:29Z</time>
      </trkpt>
      <trkpt lat="48.8782" lon="2.29731">
        <ele>51.20000076294</ele>
        <time>2015-12-14T19:58:31Z</time>
      </trkpt>
      <trkpt lat="48.87823" lon="2.29723">
        <ele>51.20000076294</ele>
        <time>2015-12-14T19:58:32Z</time>
      </trkpt>
      <trkpt lat="48.87832" lon="2.29697">
        <ele>50.599998474121</ele>
        <time>2015-12-14T19:58:36Z</time>
      </trkpt>
      <trkpt lat="48.87841" lon="2.29667">
        <ele>50.20000076294</ele>
        <time>2015-12-14T19:58:40Z</time>
      </trkpt>
      <trkpt lat="48.8785" lon="2.29635">
        <ele>50</ele>
        <time>2015-12-14T19:58:44Z</time>
      </trkpt>
      <trkpt lat="48.87849" lon="2.29601">
        <ele>49.599998474121</ele>
        <time>2015-12-14T19:58:48Z</time>
      </trkpt>
      <trkpt lat="48.87851" lon="2.29585">
        <ele>49.400001525879</ele>
        <time>2015-12-14T19:58:51Z</time>
      </trkpt>
      <trkpt lat="48.8785" lon="2.29578">
        <ele>49.400001525879</ele>
        <time>2015-12-14T19:58:53Z</time>
      </trkpt>
      <trkpt lat="48.8787" lon="2.29575">
        <ele>48.599998474121</ele>
        <time>2015-12-14T19:59:03Z</time>
      </trkpt>
      <trkpt lat="48.87876" lon="2.29563">
        <ele>48.599998474121</ele>
        <time>2015-12-14T19:59:07Z</time>
      </trkpt>
      <trkpt lat="48.87893" lon="2.29544">
        <ele>48.599998474121</ele>
        <time>2015-12-14T19:59:13Z</time>
      </trkpt>
      <trkpt lat="48.87912" lon="2.29525">
        <ele>48.599998474121</ele>
        <time>2015-12-14T19:59:18Z</time>
      </trkpt>
      <trkpt lat="48.87927" lon="2.29501">
        <ele>49.20000076294</ele>
        <time>2015-12-14T19:59:23Z</time>
      </trkpt>
      <trkpt lat="48.87941" lon="2.29484">
        <ele>49.20000076294</ele>
        <time>2015-12-14T19:59:31Z</time>
      </trkpt>
      <trkpt lat="48.8796" lon="2.29476">
        <ele>48.599998474121</ele>
        <time>2015-12-14T19:59:39Z</time>
      </trkpt>
      <trkpt lat="48.87973" lon="2.29456">
        <ele>48.400001525879</ele>
        <time>2015-12-14T19:59:43Z</time>
      </trkpt>
      <trkpt lat="48.8799" lon="2.29439">
        <ele>48.599998474121</ele>
        <time>2015-12-14T19:59:47Z</time>
      </trkpt>
      <trkpt lat="48.88004" lon="2.2942">
        <ele>49.20000076294</ele>
        <time>2015-12-14T19:59:51Z</time>
      </trkpt>
      <trkpt lat="48.88021" lon="2.29402">
        <ele>49</ele>
        <time>2015-12-14T19:59:55Z</time>
      </trkpt>
      <trkpt lat="48.88039" lon="2.29385">
        <ele>48.599998474121</ele>
        <time>2015-12-14T20:00:00Z</time>
      </trkpt>
      <trkpt lat="48.88054" lon="2.29365">
        <ele>48.20000076294</ele>
        <time>2015-12-14T20:00:05Z</time>
      </trkpt>
      <trkpt lat="48.88057" lon="2.2936">
        <ele>48</ele>
        <time>2015-12-14T20:00:06Z</time>
      </trkpt>
      <trkpt lat="48.88063" lon="2.29352">
        <ele>47.400001525879</ele>
        <time>2015-12-14T20:00:08Z</time>
      </trkpt>
      <trkpt lat="48.88068" lon="2.29339">
        <ele>46.599998474121</ele>
        <time>2015-12-14T20:00:11Z</time>
      </trkpt>
      <trkpt lat="48.88083" lon="2.29323">
        <ele>45.20000076294</ele>
        <time>2015-12-14T20:00:16Z</time>
      </trkpt>
      <trkpt lat="48.88098" lon="2.29307">
        <ele>44.20000076294</ele>
        <time>2015-12-14T20:00:24Z</time>
      </trkpt>
      <trkpt lat="48.88109" lon="2.29297">
        <ele>44.20000076294</ele>
        <time>2015-12-14T20:00:28Z</time>
      </trkpt>
      <trkpt lat="48.88128" lon="2.29311">
        <ele>45.599998474121</ele>
        <time>2015-12-14T20:00:34Z</time>
      </trkpt>
      <trkpt lat="48.88135" lon="2.29318">
        <ele>46</ele>
        <time>2015-12-14T20:00:36Z</time>
      </trkpt>
      <trkpt lat="48.8815" lon="2.29334">
        <ele>47.20000076294</ele>
        <time>2015-12-14T20:00:41Z</time>
      </trkpt>
      <trkpt lat="48.88166" lon="2.29347">
        <ele>48.599998474121</ele>
        <time>2015-12-14T20:00:46Z</time>
      </trkpt>
      <trkpt lat="48.88181" lon="2.29366">
        <ele>50.20000076294</ele>
        <time>2015-12-14T20:00:53Z</time>
      </trkpt>
      <trkpt lat="48.882" lon="2.29376">
        <ele>51</ele>
        <time>2015-12-14T20:00:59Z</time>
      </trkpt>
      <trkpt lat="48.88216" lon="2.29393">
        <ele>51.20000076294</ele>
        <time>2015-12-14T20:01:06Z</time>
      </trkpt>
      <trkpt lat="48.88222" lon="2.29399">
        <ele>51.20000076294</ele>
        <time>2015-12-14T20:01:10Z</time>
      </trkpt>
      <trkpt lat="48.88242" lon="2.29387">
        <ele>50.79999923706</ele>
        <time>2015-12-14T20:01:17Z</time>
      </trkpt>
      <trkpt lat="48.88257" lon="2.2937">
        <ele>50.400001525879</ele>
        <time>2015-12-14T20:01:24Z</time>
      </trkpt>
      <trkpt lat="48.88278" lon="2.2937">
        <ele>50.20000076294</ele>
        <time>2015-12-14T20:01:28Z</time>
      </trkpt>
      <trkpt lat="48.88295" lon="2.29357">
        <ele>48.79999923706</ele>
        <time>2015-12-14T20:01:41Z</time>
      </trkpt>
      <trkpt lat="48.88296" lon="2.29356">
        <ele>48.599998474121</ele>
        <time>2015-12-14T20:01:42Z</time>
      </trkpt>
      <trkpt lat="48.8831" lon="2.29332">
        <ele>47.79999923706</ele>
        <time>2015-12-14T20:01:50Z</time>
      </trkpt>
      <trkpt lat="48.8832" lon="2.29325">
        <ele>47</ele>
        <time>2015-12-14T20:01:53Z</time>
      </trkpt>
      <trkpt lat="48.88338" lon="2.29309">
        <ele>45.400001525879</ele>
        <time>2015-12-14T20:01:59Z</time>
      </trkpt>
      <trkpt lat="48.88341" lon="2.29296">
        <ele>45.599998474121</ele>
        <time>2015-12-14T20:02:04Z</time>
      </trkpt>
      <trkpt lat="48.88326" lon="2.29275">
        <ele>46</ele>
        <time>2015-12-14T20:02:11Z</time>
      </trkpt>
      <trkpt lat="48.88307" lon="2.29261">
        <ele>46.400001525879</ele>
        <time>2015-12-14T20:02:16Z</time>
      </trkpt>
      <trkpt lat="48.88294" lon="2.29238">
        <ele>47</ele>
        <time>2015-12-14T20:02:21Z</time>
      </trkpt>
      <trkpt lat="48.88285" lon="2.29209">
        <ele>47.79999923706</ele>
        <time>2015-12-14T20:02:26Z</time>
      </trkpt>
      <trkpt lat="48.8827" lon="2.29191">
        <ele>48.20000076294</ele>
        <time>2015-12-14T20:02:30Z</time>
      </trkpt>
      <trkpt lat="48.88255" lon="2.29169">
        <ele>48.400001525879</ele>
        <time>2015-12-14T20:02:35Z</time>
      </trkpt>
      <trkpt lat="48.88249" lon="2.29149">
        <ele>48</ele>
        <time>2015-12-14T20:02:40Z</time>
      </trkpt>
      <trkpt lat="48.88257" lon="2.29123">
        <ele>47.400001525879</ele>
        <time>2015-12-14T20:02:43Z</time>
      </trkpt>
      <trkpt lat="48.88266" lon="2.29106">
        <ele>47.400001525879</ele>
        <time>2015-12-14T20:02:46Z</time>
      </trkpt>
      <trkpt lat="48.8828" lon="2.29082">
        <ele>46.79999923706</ele>
        <time>2015-12-14T20:02:51Z</time>
      </trkpt>
      <trkpt lat="48.88296" lon="2.29061">
        <ele>45</ele>
        <time>2015-12-14T20:02:57Z</time>
      </trkpt>
      <trkpt lat="48.88296" lon="2.29047">
        <ele>44.400001525879</ele>
        <time>2015-12-14T20:03:01Z</time>
      </trkpt>
      <trkpt lat="48.88284" lon="2.29028">
        <ele>44</ele>
        <time>2015-12-14T20:03:06Z</time>
      </trkpt>
      <trkpt lat="48.8827" lon="2.29006">
        <ele>43.599998474121</ele>
        <time>2015-12-14T20:03:16Z</time>
      </trkpt>
      <trkpt lat="48.88255" lon="2.28991">
        <ele>43.400001525879</ele>
        <time>2015-12-14T20:03:22Z</time>
      </trkpt>
      <trkpt lat="48.88245" lon="2.28963">
        <ele>43.20000076294</ele>
        <time>2015-12-14T20:03:29Z</time>
      </trkpt>
      <trkpt lat="48.88231" lon="2.28945">
        <ele>43</ele>
        <time>2015-12-14T20:03:34Z</time>
      </trkpt>
      <trkpt lat="48.88218" lon="2.28926">
        <ele>43</ele>
        <time>2015-12-14T20:03:39Z</time>
      </trkpt>
      <trkpt lat="48.8821" lon="2.28899">
        <ele>42.400001525879</ele>
        <time>2015-12-14T20:03:45Z</time>
      </trkpt>
      <trkpt lat="48.88211" lon="2.28883">
        <ele>42</ele>
        <time>2015-12-14T20:03:54Z</time>
      </trkpt>
      <trkpt lat="48.8822" lon="2.2887">
        <ele>41.20000076294</ele>
        <time>2015-12-14T20:04:00Z</time>
      </trkpt>
      <trkpt lat="48.88217" lon="2.28871">
        <ele>41.400001525879</ele>
        <time>2015-12-14T20:04:05Z</time>
      </trkpt>
      <trkpt lat="48.88216" lon="2.2887">
        <ele>41.400001525879</ele>
        <time>2015-12-14T20:04:07Z</time>
      </trkpt>
      <trkpt lat="48.88209" lon="2.28859">
        <ele>41.599998474121</ele>
        <time>2015-12-14T20:04:11Z</time>
      </trkpt>
      <trkpt lat="48.8819" lon="2.28845">
        <ele>42.400001525879</ele>
        <time>2015-12-14T20:04:16Z</time>
      </trkpt>
      <trkpt lat="48.8819" lon="2.2884">
        <ele>42.20000076294</ele>
        <time>2015-12-14T20:04:18Z</time>
      </trkpt>
      <trkpt lat="48.88201" lon="2.28845">
        <ele>41.79999923706</ele>
        <time>2015-12-14T20:04:24Z</time>
      </trkpt>
      <trkpt lat="48.88219" lon="2.28853">
        <ele>41.20000076294</ele>
        <time>2015-12-14T20:04:35Z</time>
      </trkpt>
      <trkpt lat="48.8822" lon="2.28852">
        <ele>41.20000076294</ele>
        <time>2015-12-14T20:04:36Z</time>
      </trkpt>
      <trkpt lat="48.88222" lon="2.28852">
        <ele>41.400001525879</ele>
        <time>2015-12-14T20:04:39Z</time>
      </trkpt>
      <trkpt lat="48.88234" lon="2.28838">
        <ele>42.20000076294</ele>
        <time>2015-12-14T20:05:01Z</time>
      </trkpt>
      <trkpt lat="48.88247" lon="2.28815">
        <ele>42.79999923706</ele>
        <time>2015-12-14T20:05:10Z</time>
      </trkpt>
      <trkpt lat="48.88263" lon="2.28799">
        <ele>43.79999923706</ele>
        <time>2015-12-14T20:05:17Z</time>
      </trkpt>
      <trkpt lat="48.88279" lon="2.28784">
        <ele>44.79999923706</ele>
        <time>2015-12-14T20:05:25Z</time>
      </trkpt>
      <trkpt lat="48.88287" lon="2.28745">
        <ele>46.20000076294</ele>
        <time>2015-12-14T20:05:37Z</time>
      </trkpt>
      <trkpt lat="48.88286" lon="2.28741">
        <ele>46.20000076294</ele>
        <time>2015-12-14T20:05:38Z</time>
      </trkpt>
      <trkpt lat="48.88276" lon="2.28725">
        <ele>46</ele>
        <time>2015-12-14T20:05:43Z</time>
      </trkpt>
      <trkpt lat="48.88262" lon="2.28706">
        <ele>45.79999923706</ele>
        <time>2015-12-14T20:05:49Z</time>
      </trkpt>
      <trkpt lat="48.88248" lon="2.28684">
        <ele>45.400001525879</ele>
        <time>2015-12-14T20:05:54Z</time>
      </trkpt>
      <trkpt lat="48.88233" lon="2.28665">
        <ele>45</ele>
        <time>2015-12-14T20:05:59Z</time>
      </trkpt>
      <trkpt lat="48.8822" lon="2.28643">
        <ele>45.20000076294</ele>
        <time>2015-12-14T20:06:05Z</time>
      </trkpt>
      <trkpt lat="48.88204" lon="2.2862">
        <ele>45.400001525879</ele>
        <time>2015-12-14T20:06:11Z</time>
      </trkpt>
      <trkpt lat="48.88188" lon="2.28604">
        <ele>45.400001525879</ele>
        <time>2015-12-14T20:06:16Z</time>
      </trkpt>
      <trkpt lat="48.88171" lon="2.28592">
        <ele>45.20000076294</ele>
        <time>2015-12-14T20:06:24Z</time>
      </trkpt>
      <trkpt lat="48.88151" lon="2.28599">
        <ele>44.599998474121</ele>
        <time>2015-12-14T20:06:32Z</time>
      </trkpt>
      <trkpt lat="48.88133" lon="2.28591">
        <ele>44.400001525879</ele>
        <time>2015-12-14T20:06:38Z</time>
      </trkpt>
      <trkpt lat="48.88114" lon="2.2858">
        <ele>44.20000076294</ele>
        <time>2015-12-14T20:06:44Z</time>
      </trkpt>
      <trkpt lat="48.88096" lon="2.28566">
        <ele>44.599998474121</ele>
        <time>2015-12-14T20:06:49Z</time>
      </trkpt>
      <trkpt lat="48.88078" lon="2.28555">
        <ele>45.79999923706</ele>
        <time>2015-12-14T20:06:56Z</time>
      </trkpt>
      <trkpt lat="48.88062" lon="2.28543">
        <ele>46.599998474121</ele>
        <time>2015-12-14T20:07:05Z</time>
      </trkpt>
      <trkpt lat="48.88043" lon="2.28532">
        <ele>47.400001525879</ele>
        <time>2015-12-14T20:07:10Z</time>
      </trkpt>
      <trkpt lat="48.88024" lon="2.2852">
        <ele>48.20000076294</ele>
        <time>2015-12-14T20:07:14Z</time>
      </trkpt>
      <trkpt lat="48.88007" lon="2.28509">
        <ele>49.20000076294</ele>
        <time>2015-12-14T20:07:17Z</time>
      </trkpt>
      <trkpt lat="48.87985" lon="2.28497">
        <ele>50.400001525879</ele>
        <time>2015-12-14T20:07:21Z</time>
      </trkpt>
      <trkpt lat="48.87966" lon="2.28487">
        <ele>51.79999923706</ele>
        <time>2015-12-14T20:07:24Z</time>
      </trkpt>
      <trkpt lat="48.87948" lon="2.28478">
        <ele>53</ele>
        <time>2015-12-14T20:07:27Z</time>
      </trkpt>
      <trkpt lat="48.87928" lon="2.28471">
        <ele>51.599998474121</ele>
        <time>2015-12-14T20:07:30Z</time>
      </trkpt>
      <trkpt lat="48.87923" lon="2.2847">
        <ele>50.599998474121</ele>
        <time>2015-12-14T20:07:31Z</time>
      </trkpt>
      <trkpt lat="48.87907" lon="2.28461">
        <ele>48.20000076294</ele>
        <time>2015-12-14T20:07:34Z</time>
      </trkpt>
      <trkpt lat="48.87887" lon="2.2845">
        <ele>46.20000076294</ele>
        <time>2015-12-14T20:07:37Z</time>
      </trkpt>
      <trkpt lat="48.87867" lon="2.28443">
        <ele>44.599998474121</ele>
        <time>2015-12-14T20:07:40Z</time>
      </trkpt>
      <trkpt lat="48.87846" lon="2.28438">
        <ele>44.20000076294</ele>
        <time>2015-12-14T20:07:44Z</time>
      </trkpt>
      <trkpt lat="48.87827" lon="2.28436">
        <ele>44.599998474121</ele>
        <time>2015-12-14T20:07:49Z</time>
      </trkpt>
      <trkpt lat="48.87817" lon="2.2843">
        <ele>44.599998474121</ele>
        <time>2015-12-14T20:07:53Z</time>
      </trkpt>
      <trkpt lat="48.87813" lon="2.28423">
        <ele>44.400001525879</ele>
        <time>2015-12-14T20:07:57Z</time>
      </trkpt>
      <trkpt lat="48.87817" lon="2.28423">
        <ele>44.20000076294</ele>
        <time>2015-12-14T20:08:21Z</time>
      </trkpt>
      <trkpt lat="48.87801" lon="2.28417">
        <ele>44.400001525879</ele>
        <time>2015-12-14T20:08:36Z</time>
      </trkpt>
      <trkpt lat="48.87783" lon="2.28422">
        <ele>45</ele>
        <time>2015-12-14T20:08:45Z</time>
      </trkpt>
      <trkpt lat="48.87774" lon="2.28428">
        <ele>45.599998474121</ele>
        <time>2015-12-14T20:08:50Z</time>
      </trkpt>
      <trkpt lat="48.87764" lon="2.28427">
        <ele>46.20000076294</ele>
        <time>2015-12-14T20:09:00Z</time>
      </trkpt>
      <trkpt lat="48.87746" lon="2.28431">
        <ele>47.20000076294</ele>
        <time>2015-12-14T20:09:24Z</time>
      </trkpt>
      <trkpt lat="48.87742" lon="2.28429">
        <ele>47.20000076294</ele>
        <time>2015-12-14T20:09:26Z</time>
      </trkpt>
      <trkpt lat="48.87736" lon="2.28422">
        <ele>47.20000076294</ele>
        <time>2015-12-14T20:09:32Z</time>
      </trkpt>
      <trkpt lat="48.87716" lon="2.28406">
        <ele>47.599998474121</ele>
        <time>2015-12-14T20:10:18Z</time>
      </trkpt>
      <trkpt lat="48.87708" lon="2.28382">
        <ele>47.79999923706</ele>
        <time>2015-12-14T20:10:31Z</time>
      </trkpt>
      <trkpt lat="48.87698" lon="2.28363">
        <ele>48</ele>
        <time>2015-12-14T20:10:38Z</time>
      </trkpt>
      <trkpt lat="48.8768" lon="2.28356">
        <ele>49.20000076294</ele>
        <time>2015-12-14T20:10:53Z</time>
      </trkpt>
      <trkpt lat="48.87663" lon="2.28364">
        <ele>51</ele>
        <time>2015-12-14T20:11:03Z</time>
      </trkpt>
      <trkpt lat="48.87644" lon="2.28378">
        <ele>53</ele>
        <time>2015-12-14T20:11:10Z</time>
      </trkpt>
      <trkpt lat="48.87624" lon="2.2838">
        <ele>55</ele>
        <time>2015-12-14T20:11:13Z</time>
      </trkpt>
      <trkpt lat="48.87602" lon="2.28382">
        <ele>56.599998474121</ele>
        <time>2015-12-14T20:11:16Z</time>
      </trkpt>
      <trkpt lat="48.87583" lon="2.28386">
        <ele>56.599998474121</ele>
        <time>2015-12-14T20:11:19Z</time>
      </trkpt>
      <trkpt lat="48.87572" lon="2.28389">
        <ele>57</ele>
        <time>2015-12-14T20:11:21Z</time>
      </trkpt>
      <trkpt lat="48.87551" lon="2.28398">
        <ele>57.79999923706</ele>
        <time>2015-12-14T20:11:25Z</time>
      </trkpt>
      <trkpt lat="48.87529" lon="2.28404">
        <ele>58.599998474121</ele>
        <time>2015-12-14T20:11:29Z</time>
      </trkpt>
      <trkpt lat="48.87507" lon="2.28397">
        <ele>59.599998474121</ele>
        <time>2015-12-14T20:11:32Z</time>
      </trkpt>
      <trkpt lat="48.87498" lon="2.28396">
        <ele>59.400001525879</ele>
        <time>2015-12-14T20:11:37Z</time>
      </trkpt>
      <trkpt lat="48.87498" lon="2.28396">
        <ele>59.599998474121</ele>
        <time>2015-12-14T20:11:38Z</time>
      </trkpt>
      <trkpt lat="48.87499" lon="2.28386">
        <ele>59.79999923706</ele>
        <time>2015-12-14T20:11:48Z</time>
      </trkpt>
      <trkpt lat="48.8749" lon="2.28375">
        <ele>60</ele>
        <time>2015-12-14T20:11:52Z</time>
      </trkpt>
      <trkpt lat="48.87475" lon="2.28358">
        <ele>60.400001525879</ele>
        <time>2015-12-14T20:11:56Z</time>
      </trkpt>
      <trkpt lat="48.87462" lon="2.2834">
        <ele>60.79999923706</ele>
        <time>2015-12-14T20:12:00Z</time>
      </trkpt>
      <trkpt lat="48.87451" lon="2.28327">
        <ele>61.20000076294</ele>
        <time>2015-12-14T20:12:03Z</time>
      </trkpt>
      <trkpt lat="48.87436" lon="2.28307">
        <ele>61.599998474121</ele>
        <time>2015-12-14T20:12:07Z</time>
      </trkpt>
      <trkpt lat="48.87418" lon="2.28288">
        <ele>61.20000076294</ele>
        <time>2015-12-14T20:12:12Z</time>
      </trkpt>
      <trkpt lat="48.87401" lon="2.28274">
        <ele>61.20000076294</ele>
        <time>2015-12-14T20:12:16Z</time>
      </trkpt>
      <trkpt lat="48.8739" lon="2.28244">
        <ele>60.599998474121</ele>
        <time>2015-12-14T20:12:21Z</time>
      </trkpt>
      <trkpt lat="48.8738" lon="2.28229">
        <ele>61.20000076294</ele>
        <time>2015-12-14T20:12:25Z</time>
      </trkpt>
      <trkpt lat="48.8737" lon="2.2824">
        <ele>61</ele>
        <time>2015-12-14T20:12:40Z</time>
      </trkpt>
      <trkpt lat="48.87355" lon="2.28262">
        <ele>60.20000076294</ele>
        <time>2015-12-14T20:12:46Z</time>
      </trkpt>
      <trkpt lat="48.87346" lon="2.28278">
        <ele>58.79999923706</ele>
        <time>2015-12-14T20:12:54Z</time>
      </trkpt>
      <trkpt lat="48.87333" lon="2.28302">
        <ele>56.79999923706</ele>
        <time>2015-12-14T20:13:03Z</time>
      </trkpt>
      <trkpt lat="48.87316" lon="2.28316">
        <ele>54.599998474121</ele>
        <time>2015-12-14T20:13:10Z</time>
      </trkpt>
      <trkpt lat="48.87305" lon="2.28341">
        <ele>52.400001525879</ele>
        <time>2015-12-14T20:13:16Z</time>
      </trkpt>
      <trkpt lat="48.87306" lon="2.28372">
        <ele>51.79999923706</ele>
        <time>2015-12-14T20:13:27Z</time>
      </trkpt>
      <trkpt lat="48.873" lon="2.28357">
        <ele>51.599998474121</ele>
        <time>2015-12-14T20:13:40Z</time>
      </trkpt>
      <trkpt lat="48.87288" lon="2.28338">
        <ele>51</ele>
        <time>2015-12-14T20:14:02Z</time>
      </trkpt>
      <trkpt lat="48.87273" lon="2.28323">
        <ele>50.599998474121</ele>
        <time>2015-12-14T20:14:12Z</time>
      </trkpt>
      <trkpt lat="48.87256" lon="2.28317">
        <ele>52.400001525879</ele>
        <time>2015-12-14T20:14:27Z</time>
      </trkpt>
      <trkpt lat="48.8725" lon="2.28317">
        <ele>53.400001525879</ele>
        <time>2015-12-14T20:14:30Z</time>
      </trkpt>
      <trkpt lat="48.87243" lon="2.28319">
        <ele>54.599998474121</ele>
        <time>2015-12-14T20:14:34Z</time>
      </trkpt>
      <trkpt lat="48.87239" lon="2.28307">
        <ele>55</ele>
        <time>2015-12-14T20:14:47Z</time>
      </trkpt>
      <trkpt lat="48.8723" lon="2.28284">
        <ele>55.79999923706</ele>
        <time>2015-12-14T20:15:15Z</time>
      </trkpt>
      <trkpt lat="48.87217" lon="2.28267">
        <ele>58</ele>
        <time>2015-12-14T20:15:26Z</time>
      </trkpt>
      <trkpt lat="48.87207" lon="2.2826">
        <ele>59</ele>
        <time>2015-12-14T20:15:32Z</time>
      </trkpt>
      <trkpt lat="48.87193" lon="2.28251">
        <ele>60.599998474121</ele>
        <time>2015-12-14T20:16:10Z</time>
      </trkpt>
      <trkpt lat="48.87179" lon="2.28248">
        <ele>61.599998474121</ele>
        <time>2015-12-14T20:17:05Z</time>
      </trkpt>
      <trkpt lat="48.8716" lon="2.28241">
        <ele>62</ele>
        <time>2015-12-14T20:17:16Z</time>
      </trkpt>
      <trkpt lat="48.87141" lon="2.28239">
        <ele>62.79999923706</ele>
        <time>2015-12-14T20:17:23Z</time>
      </trkpt>
      <trkpt lat="48.87121" lon="2.28234">
        <ele>63.400001525879</ele>
        <time>2015-12-14T20:17:29Z</time>
      </trkpt>
      <trkpt lat="48.87101" lon="2.28224">
        <ele>63.20000076294</ele>
        <time>2015-12-14T20:17:33Z</time>
      </trkpt>
      <trkpt lat="48.87083" lon="2.28215">
        <ele>62.20000076294</ele>
        <time>2015-12-14T20:17:36Z</time>
      </trkpt>
      <trkpt lat="48.87064" lon="2.28204">
        <ele>61</ele>
        <time>2015-12-14T20:17:41Z</time>
      </trkpt>
      <trkpt lat="48.87054" lon="2.28197">
        <ele>60.400001525879</ele>
        <time>2015-12-14T20:17:45Z</time>
      </trkpt>
      <trkpt lat="48.87051" lon="2.28192">
        <ele>59.79999923706</ele>
        <time>2015-12-14T20:17:48Z</time>
      </trkpt>
      <trkpt lat="48.87033" lon="2.2818">
        <ele>58.599998474121</ele>
        <time>2015-12-14T20:18:31Z</time>
      </trkpt>
      <trkpt lat="48.87029" lon="2.28209">
        <ele>62</ele>
        <time>2015-12-14T20:18:40Z</time>
      </trkpt>
      <trkpt lat="48.87025" lon="2.28238">
        <ele>65</ele>
        <time>2015-12-14T20:18:47Z</time>
      </trkpt>
      <trkpt lat="48.87029" lon="2.28257">
        <ele>66.199996948242</ele>
        <time>2015-12-14T20:18:54Z</time>
      </trkpt>
      <trkpt lat="48.87018" lon="2.28257">
        <ele>66.199996948242</ele>
        <time>2015-12-14T20:19:07Z</time>
      </trkpt>
      <trkpt lat="48.86996" lon="2.28259">
        <ele>66.199996948242</ele>
        <time>2015-12-14T20:19:17Z</time>
      </trkpt>
      <trkpt lat="48.86976" lon="2.28253">
        <ele>66</ele>
        <time>2015-12-14T20:19:26Z</time>
      </trkpt>
      <trkpt lat="48.8697" lon="2.28243">
        <ele>65.800003051758</ele>
        <time>2015-12-14T20:19:31Z</time>
      </trkpt>
      <trkpt lat="48.86953" lon="2.28231">
        <ele>65.400001525879</ele>
        <time>2015-12-14T20:19:37Z</time>
      </trkpt>
      <trkpt lat="48.86934" lon="2.28219">
        <ele>65.199996948242</ele>
        <time>2015-12-14T20:19:42Z</time>
      </trkpt>
      <trkpt lat="48.86914" lon="2.28208">
        <ele>65.599998474121</ele>
        <time>2015-12-14T20:19:47Z</time>
      </trkpt>
      <trkpt lat="48.86896" lon="2.28199">
        <ele>65.800003051758</ele>
        <time>2015-12-14T20:19:52Z</time>
      </trkpt>
      <trkpt lat="48.86876" lon="2.28191">
        <ele>66</ele>
        <time>2015-12-14T20:19:57Z</time>
      </trkpt>
      <trkpt lat="48.86859" lon="2.2818">
        <ele>66.199996948242</ele>
        <time>2015-12-14T20:20:03Z</time>
      </trkpt>
      <trkpt lat="48.8684" lon="2.28167">
        <ele>66</ele>
        <time>2015-12-14T20:20:10Z</time>
      </trkpt>
      <trkpt lat="48.86827" lon="2.28147">
        <ele>66.800003051758</ele>
        <time>2015-12-14T20:20:17Z</time>
      </trkpt>
      <trkpt lat="48.86817" lon="2.2814">
        <ele>67</ele>
        <time>2015-12-14T20:20:20Z</time>
      </trkpt>
      <trkpt lat="48.86804" lon="2.28136">
        <ele>67.199996948242</ele>
        <time>2015-12-14T20:20:26Z</time>
      </trkpt>
      <trkpt lat="48.86786" lon="2.28123">
        <ele>68</ele>
        <time>2015-12-14T20:21:16Z</time>
      </trkpt>
      <trkpt lat="48.86771" lon="2.28108">
        <ele>68.599998474121</ele>
        <time>2015-12-14T20:21:29Z</time>
      </trkpt>
      <trkpt lat="48.86769" lon="2.28105">
        <ele>68.800003051758</ele>
        <time>2015-12-14T20:21:33Z</time>
      </trkpt>
      <trkpt lat="48.86754" lon="2.2809">
        <ele>69.400001525879</ele>
        <time>2015-12-14T20:21:45Z</time>
      </trkpt>
      <trkpt lat="48.86735" lon="2.2808">
        <ele>70</ele>
        <time>2015-12-14T20:21:51Z</time>
      </trkpt>
      <trkpt lat="48.86716" lon="2.28071">
        <ele>69.800003051758</ele>
        <time>2015-12-14T20:21:57Z</time>
      </trkpt>
      <trkpt lat="48.86698" lon="2.28064">
        <ele>69.599998474121</ele>
        <time>2015-12-14T20:22:02Z</time>
      </trkpt>
      <trkpt lat="48.8668" lon="2.28057">
        <ele>69.199996948242</ele>
        <time>2015-12-14T20:22:08Z</time>
      </trkpt>
      <trkpt lat="48.86672" lon="2.2804">
        <ele>68.599998474121</ele>
        <time>2015-12-14T20:22:15Z</time>
      </trkpt>
      <trkpt lat="48.86663" lon="2.28036">
        <ele>68.400001525879</ele>
        <time>2015-12-14T20:22:20Z</time>
      </trkpt>
      <trkpt lat="48.8666" lon="2.28032">
        <ele>68.199996948242</ele>
        <time>2015-12-14T20:22:22Z</time>
      </trkpt>
      <trkpt lat="48.86644" lon="2.28016">
        <ele>67.400001525879</ele>
        <time>2015-12-14T20:22:52Z</time>
      </trkpt>
      <trkpt lat="48.86625" lon="2.28001">
        <ele>66.599998474121</ele>
        <time>2015-12-14T20:22:57Z</time>
      </trkpt>
      <trkpt lat="48.86607" lon="2.27989">
        <ele>66.400001525879</ele>
        <time>2015-12-14T20:23:01Z</time>
      </trkpt>
      <trkpt lat="48.86589" lon="2.27977">
        <ele>66</ele>
        <time>2015-12-14T20:23:04Z</time>
      </trkpt>
      <trkpt lat="48.86567" lon="2.27962">
        <ele>65.800003051758</ele>
        <time>2015-12-14T20:23:07Z</time>
      </trkpt>
      <trkpt lat="48.86546" lon="2.27945">
        <ele>65.800003051758</ele>
        <time>2015-12-14T20:23:10Z</time>
      </trkpt>
      <trkpt lat="48.86524" lon="2.27924">
        <ele>65.800003051758</ele>
        <time>2015-12-14T20:23:13Z</time>
      </trkpt>
      <trkpt lat="48.86504" lon="2.27898">
        <ele>65.800003051758</ele>
        <time>2015-12-14T20:23:16Z</time>
      </trkpt>
      <trkpt lat="48.86489" lon="2.27882">
        <ele>65.800003051758</ele>
        <time>2015-12-14T20:23:18Z</time>
      </trkpt>
      <trkpt lat="48.8647" lon="2.27859">
        <ele>66</ele>
        <time>2015-12-14T20:23:21Z</time>
      </trkpt>
      <trkpt lat="48.8645" lon="2.27838">
        <ele>66</ele>
        <time>2015-12-14T20:23:24Z</time>
      </trkpt>
      <trkpt lat="48.86435" lon="2.27817">
        <ele>65.800003051758</ele>
        <time>2015-12-14T20:23:27Z</time>
      </trkpt>
      <trkpt lat="48.86423" lon="2.27806">
        <ele>66</ele>
        <time>2015-12-14T20:23:29Z</time>
      </trkpt>
      <trkpt lat="48.86407" lon="2.27789">
        <ele>66.199996948242</ele>
        <time>2015-12-14T20:23:33Z</time>
      </trkpt>
      <trkpt lat="48.8639" lon="2.27769">
        <ele>66.400001525879</ele>
        <time>2015-12-14T20:23:39Z</time>
      </trkpt>
      <trkpt lat="48.86388" lon="2.27767">
        <ele>66.400001525879</ele>
        <time>2015-12-14T20:23:40Z</time>
      </trkpt>
      <trkpt lat="48.86385" lon="2.27761">
        <ele>66.400001525879</ele>
        <time>2015-12-14T20:23:44Z</time>
      </trkpt>
      <trkpt lat="48.86373" lon="2.27737">
        <ele>66.400001525879</ele>
        <time>2015-12-14T20:24:02Z</time>
      </trkpt>
      <trkpt lat="48.86356" lon="2.2772">
        <ele>67</ele>
        <time>2015-12-14T20:24:07Z</time>
      </trkpt>
      <trkpt lat="48.8634" lon="2.27708">
        <ele>66.400001525879</ele>
        <time>2015-12-14T20:24:11Z</time>
      </trkpt>
      <trkpt lat="48.86322" lon="2.27694">
        <ele>65.800003051758</ele>
        <time>2015-12-14T20:24:15Z</time>
      </trkpt>
      <trkpt lat="48.86304" lon="2.27678">
        <ele>65.199996948242</ele>
        <time>2015-12-14T20:24:19Z</time>
      </trkpt>
      <trkpt lat="48.86288" lon="2.27663">
        <ele>64.599998474121</ele>
        <time>2015-12-14T20:24:23Z</time>
      </trkpt>
      <trkpt lat="48.86269" lon="2.27649">
        <ele>64</ele>
        <time>2015-12-14T20:24:28Z</time>
      </trkpt>
      <trkpt lat="48.86249" lon="2.27639">
        <ele>64.599998474121</ele>
        <time>2015-12-14T20:24:33Z</time>
      </trkpt>
      <trkpt lat="48.8623" lon="2.27625">
        <ele>65</ele>
        <time>2015-12-14T20:24:39Z</time>
      </trkpt>
      <trkpt lat="48.86215" lon="2.27616">
        <ele>65.199996948242</ele>
        <time>2015-12-14T20:24:43Z</time>
      </trkpt>
      <trkpt lat="48.86196" lon="2.27603">
        <ele>65.400001525879</ele>
        <time>2015-12-14T20:24:48Z</time>
      </trkpt>
      <trkpt lat="48.86179" lon="2.27589">
        <ele>66</ele>
        <time>2015-12-14T20:24:52Z</time>
      </trkpt>
      <trkpt lat="48.86169" lon="2.27582">
        <ele>66.400001525879</ele>
        <time>2015-12-14T20:24:54Z</time>
      </trkpt>
      <trkpt lat="48.8615" lon="2.2757">
        <ele>67</ele>
        <time>2015-12-14T20:24:57Z</time>
      </trkpt>
      <trkpt lat="48.8613" lon="2.2756">
        <ele>67.400001525879</ele>
        <time>2015-12-14T20:25:00Z</time>
      </trkpt>
      <trkpt lat="48.86111" lon="2.2755">
        <ele>67.800003051758</ele>
        <time>2015-12-14T20:25:03Z</time>
      </trkpt>
      <trkpt lat="48.86092" lon="2.27538">
        <ele>67.800003051758</ele>
        <time>2015-12-14T20:25:07Z</time>
      </trkpt>
      <trkpt lat="48.86081" lon="2.27533">
        <ele>67.599998474121</ele>
        <time>2015-12-14T20:25:10Z</time>
      </trkpt>
      <trkpt lat="48.86063" lon="2.27543">
        <ele>67.400001525879</ele>
        <time>2015-12-14T20:25:14Z</time>
      </trkpt>
      <trkpt lat="48.86048" lon="2.27545">
        <ele>67</ele>
        <time>2015-12-14T20:25:17Z</time>
      </trkpt>
      <trkpt lat="48.86026" lon="2.27553">
        <ele>66.400001525879</ele>
        <time>2015-12-14T20:25:21Z</time>
      </trkpt>
      <trkpt lat="48.8602" lon="2.27553">
        <ele>66.400001525879</ele>
        <time>2015-12-14T20:25:22Z</time>
      </trkpt>
      <trkpt lat="48.85995" lon="2.27549">
        <ele>67</ele>
        <time>2015-12-14T20:25:25Z</time>
      </trkpt>
      <trkpt lat="48.85973" lon="2.27547">
        <ele>67.400001525879</ele>
        <time>2015-12-14T20:25:28Z</time>
      </trkpt>
      <trkpt lat="48.85952" lon="2.27546">
        <ele>67.599998474121</ele>
        <time>2015-12-14T20:25:33Z</time>
      </trkpt>
      <trkpt lat="48.85929" lon="2.27538">
        <ele>67.800003051758</ele>
        <time>2015-12-14T20:25:37Z</time>
      </trkpt>
      <trkpt lat="48.8591" lon="2.27527">
        <ele>68</ele>
        <time>2015-12-14T20:25:41Z</time>
      </trkpt>
      <trkpt lat="48.85892" lon="2.27519">
        <ele>67.800003051758</ele>
        <time>2015-12-14T20:25:44Z</time>
      </trkpt>
      <trkpt lat="48.85874" lon="2.27517">
        <ele>67.800003051758</ele>
        <time>2015-12-14T20:25:48Z</time>
      </trkpt>
      <trkpt lat="48.85855" lon="2.27519">
        <ele>67.400001525879</ele>
        <time>2015-12-14T20:25:52Z</time>
      </trkpt>
      <trkpt lat="48.85851" lon="2.27518">
        <ele>67.400001525879</ele>
        <time>2015-12-14T20:25:54Z</time>
      </trkpt>
      <trkpt lat="48.85847" lon="2.27519">
        <ele>67.199996948242</ele>
        <time>2015-12-14T20:25:58Z</time>
      </trkpt>
      <trkpt lat="48.85846" lon="2.2752">
        <ele>67.199996948242</ele>
        <time>2015-12-14T20:25:59Z</time>
      </trkpt>
      <trkpt lat="48.85839" lon="2.27512">
        <ele>67.199996948242</ele>
        <time>2015-12-14T20:26:18Z</time>
      </trkpt>
      <trkpt lat="48.85822" lon="2.27495">
        <ele>67.199996948242</ele>
        <time>2015-12-14T20:26:46Z</time>
      </trkpt>
      <trkpt lat="48.85816" lon="2.27466">
        <ele>67.800003051758</ele>
        <time>2015-12-14T20:26:54Z</time>
      </trkpt>
      <trkpt lat="48.85813" lon="2.27434">
        <ele>68.599998474121</ele>
        <time>2015-12-14T20:26:59Z</time>
      </trkpt>
      <trkpt lat="48.85819" lon="2.27406">
        <ele>69.599998474121</ele>
        <time>2015-12-14T20:27:04Z</time>
      </trkpt>
      <trkpt lat="48.85824" lon="2.27376">
        <ele>69.199996948242</ele>
        <time>2015-12-14T20:27:10Z</time>
      </trkpt>
      <trkpt lat="48.85826" lon="2.27345">
        <ele>67.800003051758</ele>
        <time>2015-12-14T20:27:16Z</time>
      </trkpt>
      <trkpt lat="48.85821" lon="2.27317">
        <ele>66.199996948242</ele>
        <time>2015-12-14T20:27:21Z</time>
      </trkpt>
      <trkpt lat="48.8582" lon="2.27288">
        <ele>64.800003051758</ele>
        <time>2015-12-14T20:27:28Z</time>
      </trkpt>
      <trkpt lat="48.85816" lon="2.27269">
        <ele>64.199996948242</ele>
        <time>2015-12-14T20:27:34Z</time>
      </trkpt>
      <trkpt lat="48.85798" lon="2.27268">
        <ele>63.400001525879</ele>
        <time>2015-12-14T20:27:54Z</time>
      </trkpt>
      <trkpt lat="48.85779" lon="2.27279">
        <ele>64</ele>
        <time>2015-12-14T20:28:01Z</time>
      </trkpt>
      <trkpt lat="48.85761" lon="2.27289">
        <ele>64.599998474121</ele>
        <time>2015-12-14T20:28:05Z</time>
      </trkpt>
      <trkpt lat="48.85746" lon="2.27305">
        <ele>65.400001525879</ele>
        <time>2015-12-14T20:28:11Z</time>
      </trkpt>
      <trkpt lat="48.85744" lon="2.2731">
        <ele>65.199996948242</ele>
        <time>2015-12-14T20:28:13Z</time>
      </trkpt>
      <trkpt lat="48.8574" lon="2.2732">
        <ele>65</ele>
        <time>2015-12-14T20:28:17Z</time>
      </trkpt>
      <trkpt lat="48.8573" lon="2.2733">
        <ele>64.400001525879</ele>
        <time>2015-12-14T20:28:21Z</time>
      </trkpt>
      <trkpt lat="48.85722" lon="2.2736">
        <ele>64.400001525879</ele>
        <time>2015-12-14T20:28:26Z</time>
      </trkpt>
      <trkpt lat="48.85708" lon="2.27383">
        <ele>64.199996948242</ele>
        <time>2015-12-14T20:28:31Z</time>
      </trkpt>
      <trkpt lat="48.85693" lon="2.27403">
        <ele>64</ele>
        <time>2015-12-14T20:28:36Z</time>
      </trkpt>
      <trkpt lat="48.85681" lon="2.27429">
        <ele>63</ele>
        <time>2015-12-14T20:28:41Z</time>
      </trkpt>
      <trkpt lat="48.85675" lon="2.27456">
        <ele>62.20000076294</ele>
        <time>2015-12-14T20:28:45Z</time>
      </trkpt>
      <trkpt lat="48.85659" lon="2.27483">
        <ele>61.20000076294</ele>
        <time>2015-12-14T20:28:49Z</time>
      </trkpt>
      <trkpt lat="48.85649" lon="2.27507">
        <ele>61</ele>
        <time>2015-12-14T20:28:53Z</time>
      </trkpt>
      <trkpt lat="48.85637" lon="2.27533">
        <ele>60.20000076294</ele>
        <time>2015-12-14T20:28:59Z</time>
      </trkpt>
      <trkpt lat="48.85631" lon="2.27541">
        <ele>60.400001525879</ele>
        <time>2015-12-14T20:29:01Z</time>
      </trkpt>
      <trkpt lat="48.85626" lon="2.27551">
        <ele>60.599998474121</ele>
        <time>2015-12-14T20:29:04Z</time>
      </trkpt>
      <trkpt lat="48.85609" lon="2.2757">
        <ele>60.79999923706</ele>
        <time>2015-12-14T20:29:09Z</time>
      </trkpt>
      <trkpt lat="48.85589" lon="2.27588">
        <ele>60</ele>
        <time>2015-12-14T20:29:13Z</time>
      </trkpt>
      <trkpt lat="48.85572" lon="2.27608">
        <ele>58.79999923706</ele>
        <time>2015-12-14T20:29:17Z</time>
      </trkpt>
      <trkpt lat="48.85561" lon="2.2763">
        <ele>58.599998474121</ele>
        <time>2015-12-14T20:29:20Z</time>
      </trkpt>
      <trkpt lat="48.85553" lon="2.27646">
        <ele>58.79999923706</ele>
        <time>2015-12-14T20:29:23Z</time>
      </trkpt>
      <trkpt lat="48.85549" lon="2.27659">
        <ele>59.20000076294</ele>
        <time>2015-12-14T20:29:26Z</time>
      </trkpt>
      <trkpt lat="48.8553" lon="2.27672">
        <ele>58.400001525879</ele>
        <time>2015-12-14T20:29:52Z</time>
      </trkpt>
      <trkpt lat="48.85519" lon="2.27694">
        <ele>57.400001525879</ele>
        <time>2015-12-14T20:29:58Z</time>
      </trkpt>
      <trkpt lat="48.85506" lon="2.27716">
        <ele>56.79999923706</ele>
        <time>2015-12-14T20:30:06Z</time>
      </trkpt>
      <trkpt lat="48.8549" lon="2.27735">
        <ele>56.79999923706</ele>
        <time>2015-12-14T20:30:13Z</time>
      </trkpt>
      <trkpt lat="48.85476" lon="2.27754">
        <ele>57.400001525879</ele>
        <time>2015-12-14T20:30:19Z</time>
      </trkpt>
      <trkpt lat="48.8546" lon="2.27771">
        <ele>57.79999923706</ele>
        <time>2015-12-14T20:30:26Z</time>
      </trkpt>
      <trkpt lat="48.85442" lon="2.27785">
        <ele>56.20000076294</ele>
        <time>2015-12-14T20:30:33Z</time>
      </trkpt>
      <trkpt lat="48.85438" lon="2.27799">
        <ele>55.599998474121</ele>
        <time>2015-12-14T20:30:38Z</time>
      </trkpt>
      <trkpt lat="48.85436" lon="2.27828">
        <ele>54.599998474121</ele>
        <time>2015-12-14T20:30:45Z</time>
      </trkpt>
      <trkpt lat="48.85444" lon="2.27853">
        <ele>54.599998474121</ele>
        <time>2015-12-14T20:30:51Z</time>
      </trkpt>
      <trkpt lat="48.85445" lon="2.27863">
        <ele>54.400001525879</ele>
        <time>2015-12-14T20:30:53Z</time>
      </trkpt>
      <trkpt lat="48.85449" lon="2.27894">
        <ele>53.400001525879</ele>
        <time>2015-12-14T20:31:00Z</time>
      </trkpt>
      <trkpt lat="48.85454" lon="2.27924">
        <ele>52.79999923706</ele>
        <time>2015-12-14T20:31:07Z</time>
      </trkpt>
      <trkpt lat="48.85457" lon="2.27934">
        <ele>53</ele>
        <time>2015-12-14T20:31:12Z</time>
      </trkpt>
      <trkpt lat="48.85469" lon="2.27956">
        <ele>54.20000076294</ele>
        <time>2015-12-14T20:31:21Z</time>
      </trkpt>
      <trkpt lat="48.85484" lon="2.27974">
        <ele>55.79999923706</ele>
        <time>2015-12-14T20:31:32Z</time>
      </trkpt>
      <trkpt lat="48.85488" lon="2.27983">
        <ele>56.20000076294</ele>
        <time>2015-12-14T20:31:38Z</time>
      </trkpt>
      <trkpt lat="48.85483" lon="2.28009">
        <ele>55</ele>
        <time>2015-12-14T20:31:48Z</time>
      </trkpt>
      <trkpt lat="48.85491" lon="2.28037">
        <ele>54.20000076294</ele>
        <time>2015-12-14T20:31:53Z</time>
      </trkpt>
      <trkpt lat="48.85498" lon="2.28063">
        <ele>54.20000076294</ele>
        <time>2015-12-14T20:32:01Z</time>
      </trkpt>
      <trkpt lat="48.855" lon="2.28067">
        <ele>54.20000076294</ele>
        <time>2015-12-14T20:32:03Z</time>
      </trkpt>
      <trkpt lat="48.85503" lon="2.28084">
        <ele>54.20000076294</ele>
        <time>2015-12-14T20:33:01Z</time>
      </trkpt>
      <trkpt lat="48.85509" lon="2.28095">
        <ele>52.79999923706</ele>
        <time>2015-12-14T20:33:09Z</time>
      </trkpt>
      <trkpt lat="48.85511" lon="2.28096">
        <ele>52.599998474121</ele>
        <time>2015-12-14T20:33:13Z</time>
      </trkpt>
      <trkpt lat="48.8552" lon="2.28114">
        <ele>50.400001525879</ele>
        <time>2015-12-14T20:33:44Z</time>
      </trkpt>
      <trkpt lat="48.85523" lon="2.28118">
        <ele>50</ele>
        <time>2015-12-14T20:33:48Z</time>
      </trkpt>
      <trkpt lat="48.85527" lon="2.28137">
        <ele>48.400001525879</ele>
        <time>2015-12-14T20:34:13Z</time>
      </trkpt>
      <trkpt lat="48.8553" lon="2.28139">
        <ele>48.599998474121</ele>
        <time>2015-12-14T20:34:18Z</time>
      </trkpt>
      <trkpt lat="48.85534" lon="2.28148">
        <ele>48.20000076294</ele>
        <time>2015-12-14T20:34:30Z</time>
      </trkpt>
      <trkpt lat="48.85542" lon="2.28148">
        <ele>49.599998474121</ele>
        <time>2015-12-14T20:34:48Z</time>
      </trkpt>
      <trkpt lat="48.85543" lon="2.28149">
        <ele>49.79999923706</ele>
        <time>2015-12-14T20:34:52Z</time>
      </trkpt>
      <trkpt lat="48.85558" lon="2.28162">
        <ele>51</ele>
        <time>2015-12-14T20:35:37Z</time>
      </trkpt>
      <trkpt lat="48.85565" lon="2.2817">
        <ele>50.79999923706</ele>
        <time>2015-12-14T20:36:06Z</time>
      </trkpt>
      <trkpt lat="48.85562" lon="2.28176">
        <ele>49.400001525879</ele>
        <time>2015-12-14T20:36:11Z</time>
      </trkpt>
      <trkpt lat="48.85563" lon="2.28189">
        <ele>47.400001525879</ele>
        <time>2015-12-14T20:36:58Z</time>
      </trkpt>
      <trkpt lat="48.85547" lon="2.28211">
        <ele>44</ele>
        <time>2015-12-14T20:37:03Z</time>
      </trkpt>
      <trkpt lat="48.85534" lon="2.28232">
        <ele>43</ele>
        <time>2015-12-14T20:37:07Z</time>
      </trkpt>
      <trkpt lat="48.85522" lon="2.28248">
        <ele>42</ele>
        <time>2015-12-14T20:37:11Z</time>
      </trkpt>
      <trkpt lat="48.85505" lon="2.28239">
        <ele>41.20000076294</ele>
        <time>2015-12-14T20:37:20Z</time>
      </trkpt>
      <trkpt lat="48.85493" lon="2.28214">
        <ele>41.599998474121</ele>
        <time>2015-12-14T20:37:26Z</time>
      </trkpt>
      <trkpt lat="48.85484" lon="2.28188">
        <ele>42</ele>
        <time>2015-12-14T20:37:33Z</time>
      </trkpt>
      <trkpt lat="48.85466" lon="2.28173">
        <ele>41.79999923706</ele>
        <time>2015-12-14T20:37:38Z</time>
      </trkpt>
      <trkpt lat="48.85464" lon="2.2817">
        <ele>41.79999923706</ele>
        <time>2015-12-14T20:37:39Z</time>
      </trkpt>
      <trkpt lat="48.85455" lon="2.28145">
        <ele>44.400001525879</ele>
        <time>2015-12-14T20:37:45Z</time>
      </trkpt>
      <trkpt lat="48.85453" lon="2.28133">
        <ele>46.20000076294</ele>
        <time>2015-12-14T20:37:48Z</time>
      </trkpt>
      <trkpt lat="48.85452" lon="2.28128">
        <ele>47</ele>
        <time>2015-12-14T20:37:50Z</time>
      </trkpt>
      <trkpt lat="48.85436" lon="2.28107">
        <ele>49.599998474121</ele>
        <time>2015-12-14T20:38:02Z</time>
      </trkpt>
      <trkpt lat="48.85418" lon="2.28091">
        <ele>51.20000076294</ele>
        <time>2015-12-14T20:38:07Z</time>
      </trkpt>
      <trkpt lat="48.85399" lon="2.28077">
        <ele>51.79999923706</ele>
        <time>2015-12-14T20:38:11Z</time>
      </trkpt>
      <trkpt lat="48.85383" lon="2.28057">
        <ele>49.599998474121</ele>
        <time>2015-12-14T20:38:15Z</time>
      </trkpt>
      <trkpt lat="48.85367" lon="2.28043">
        <ele>47.79999923706</ele>
        <time>2015-12-14T20:38:19Z</time>
      </trkpt>
      <trkpt lat="48.85363" lon="2.28034">
        <ele>47</ele>
        <time>2015-12-14T20:38:22Z</time>
      </trkpt>
      <trkpt lat="48.85368" lon="2.28021">
        <ele>46.400001525879</ele>
        <time>2015-12-14T20:38:27Z</time>
      </trkpt>
      <trkpt lat="48.85383" lon="2.28003">
        <ele>46.599998474121</ele>
        <time>2015-12-14T20:38:36Z</time>
      </trkpt>
      <trkpt lat="48.85399" lon="2.27987">
        <ele>47.400001525879</ele>
        <time>2015-12-14T20:38:41Z</time>
      </trkpt>
      <trkpt lat="48.85414" lon="2.27969">
        <ele>48.599998474121</ele>
        <time>2015-12-14T20:38:48Z</time>
      </trkpt>
      <trkpt lat="48.85415" lon="2.27969">
        <ele>48.599998474121</ele>
        <time>2015-12-14T20:38:49Z</time>
      </trkpt>
      <trkpt lat="48.85431" lon="2.27958">
        <ele>50.20000076294</ele>
        <time>2015-12-14T20:39:23Z</time>
      </trkpt>
      <trkpt lat="48.85442" lon="2.27953">
        <ele>51.400001525879</ele>
        <time>2015-12-14T20:39:28Z</time>
      </trkpt>
      <trkpt lat="48.85446" lon="2.27926">
        <ele>51.79999923706</ele>
        <time>2015-12-14T20:39:37Z</time>
      </trkpt>
      <trkpt lat="48.85442" lon="2.27898">
        <ele>52.20000076294</ele>
        <time>2015-12-14T20:39:43Z</time>
      </trkpt>
      <trkpt lat="48.85442" lon="2.27896">
        <ele>52.20000076294</ele>
        <time>2015-12-14T20:39:44Z</time>
      </trkpt>
      <trkpt lat="48.8544" lon="2.27881">
        <ele>52.79999923706</ele>
        <time>2015-12-14T20:39:49Z</time>
      </trkpt>
      <trkpt lat="48.85444" lon="2.27875">
        <ele>53.599998474121</ele>
        <time>2015-12-14T20:39:52Z</time>
      </trkpt>
      <trkpt lat="48.85433" lon="2.27852">
        <ele>53.20000076294</ele>
        <time>2015-12-14T20:40:13Z</time>
      </trkpt>
      <trkpt lat="48.85421" lon="2.27828">
        <ele>52.79999923706</ele>
        <time>2015-12-14T20:40:20Z</time>
      </trkpt>
      <trkpt lat="48.85408" lon="2.27808">
        <ele>51.599998474121</ele>
        <time>2015-12-14T20:40:25Z</time>
      </trkpt>
      <trkpt lat="48.854" lon="2.27795">
        <ele>50.599998474121</ele>
        <time>2015-12-14T20:40:30Z</time>
      </trkpt>
      <trkpt lat="48.85391" lon="2.27781">
        <ele>49.79999923706</ele>
        <time>2015-12-14T20:41:03Z</time>
      </trkpt>
      <trkpt lat="48.85375" lon="2.27762">
        <ele>48.20000076294</ele>
        <time>2015-12-14T20:41:07Z</time>
      </trkpt>
      <trkpt lat="48.85359" lon="2.27738">
        <ele>46.20000076294</ele>
        <time>2015-12-14T20:41:11Z</time>
      </trkpt>
      <trkpt lat="48.85345" lon="2.27709">
        <ele>44.599998474121</ele>
        <time>2015-12-14T20:41:15Z</time>
      </trkpt>
      <trkpt lat="48.85333" lon="2.27688">
        <ele>43.599998474121</ele>
        <time>2015-12-14T20:41:18Z</time>
      </trkpt>
      <trkpt lat="48.85319" lon="2.27668">
        <ele>42.400001525879</ele>
        <time>2015-12-14T20:41:21Z</time>
      </trkpt>
      <trkpt lat="48.85305" lon="2.2765">
        <ele>41.400001525879</ele>
        <time>2015-12-14T20:41:24Z</time>
      </trkpt>
      <trkpt lat="48.8529" lon="2.27632">
        <ele>40.400001525879</ele>
        <time>2015-12-14T20:41:28Z</time>
      </trkpt>
      <trkpt lat="48.85279" lon="2.27616">
        <ele>39.79999923706</ele>
        <time>2015-12-14T20:41:34Z</time>
      </trkpt>
      <trkpt lat="48.85275" lon="2.27609">
        <ele>39.400001525879</ele>
        <time>2015-12-14T20:41:38Z</time>
      </trkpt>
      <trkpt lat="48.85275" lon="2.27606">
        <ele>39.400001525879</ele>
        <time>2015-12-14T20:41:42Z</time>
      </trkpt>
      <trkpt lat="48.85282" lon="2.27604">
        <ele>39.79999923706</ele>
        <time>2015-12-14T20:43:25Z</time>
      </trkpt>
      <trkpt lat="48.8529" lon="2.27597">
        <ele>40</ele>
        <time>2015-12-14T20:44:21Z</time>
      </trkpt>
      <trkpt lat="48.85303" lon="2.27576">
        <ele>40.79999923706</ele>
        <time>2015-12-14T20:44:27Z</time>
      </trkpt>
      <trkpt lat="48.8532" lon="2.27561">
        <ele>41.79999923706</ele>
        <time>2015-12-14T20:44:32Z</time>
      </trkpt>
      <trkpt lat="48.85328" lon="2.27535">
        <ele>42</ele>
        <time>2015-12-14T20:44:38Z</time>
      </trkpt>
      <trkpt lat="48.85332" lon="2.27506">
        <ele>41.400001525879</ele>
        <time>2015-12-14T20:44:45Z</time>
      </trkpt>
      <trkpt lat="48.85338" lon="2.27475">
        <ele>41.599998474121</ele>
        <time>2015-12-14T20:44:50Z</time>
      </trkpt>
      <trkpt lat="48.85342" lon="2.27442">
        <ele>42.599998474121</ele>
        <time>2015-12-14T20:44:55Z</time>
      </trkpt>
      <trkpt lat="48.85347" lon="2.27414">
        <ele>43.599998474121</ele>
        <time>2015-12-14T20:44:59Z</time>
      </trkpt>
      <trkpt lat="48.85353" lon="2.27385">
        <ele>43.599998474121</ele>
        <time>2015-12-14T20:45:03Z</time>
      </trkpt>
      <trkpt lat="48.85361" lon="2.27357">
        <ele>44.400001525879</ele>
        <time>2015-12-14T20:45:07Z</time>
      </trkpt>
      <trkpt lat="48.8537" lon="2.27332">
        <ele>45.20000076294</ele>
        <time>2015-12-14T20:45:11Z</time>
      </trkpt>
      <trkpt lat="48.85377" lon="2.27306">
        <ele>46</ele>
        <time>2015-12-14T20:45:15Z</time>
      </trkpt>
      <trkpt lat="48.85383" lon="2.27287">
        <ele>46.79999923706</ele>
        <time>2015-12-14T20:45:18Z</time>
      </trkpt>
      <trkpt lat="48.85385" lon="2.27253">
        <ele>45.79999923706</ele>
        <time>2015-12-14T20:45:22Z</time>
      </trkpt>
      <trkpt lat="48.85393" lon="2.27224">
        <ele>47</ele>
        <time>2015-12-14T20:45:27Z</time>
      </trkpt>
      <trkpt lat="48.85394" lon="2.27214">
        <ele>47.79999923706</ele>
        <time>2015-12-14T20:45:29Z</time>
      </trkpt>
      <trkpt lat="48.85395" lon="2.27206">
        <ele>48.400001525879</ele>
        <time>2015-12-14T20:45:31Z</time>
      </trkpt>
      <trkpt lat="48.85394" lon="2.27175">
        <ele>49.599998474121</ele>
        <time>2015-12-14T20:45:47Z</time>
      </trkpt>
      <trkpt lat="48.85408" lon="2.27154">
        <ele>49.79999923706</ele>
        <time>2015-12-14T20:45:54Z</time>
      </trkpt>
      <trkpt lat="48.85422" lon="2.27132">
        <ele>50.400001525879</ele>
        <time>2015-12-14T20:45:58Z</time>
      </trkpt>
      <trkpt lat="48.8543" lon="2.271">
        <ele>52.599998474121</ele>
        <time>2015-12-14T20:46:02Z</time>
      </trkpt>
      <trkpt lat="48.85434" lon="2.27085">
        <ele>53.599998474121</ele>
        <time>2015-12-14T20:46:04Z</time>
      </trkpt>
      <trkpt lat="48.85438" lon="2.2707">
        <ele>54</ele>
        <time>2015-12-14T20:46:06Z</time>
      </trkpt>
      <trkpt lat="48.85447" lon="2.27045">
        <ele>54.400001525879</ele>
        <time>2015-12-14T20:46:13Z</time>
      </trkpt>
      <trkpt lat="48.85454" lon="2.27013">
        <ele>54.599998474121</ele>
        <time>2015-12-14T20:46:35Z</time>
      </trkpt>
      <trkpt lat="48.85463" lon="2.2699">
        <ele>55</ele>
        <time>2015-12-14T20:46:41Z</time>
      </trkpt>
      <trkpt lat="48.85461" lon="2.26976">
        <ele>55</ele>
        <time>2015-12-14T20:46:45Z</time>
      </trkpt>
      <trkpt lat="48.85476" lon="2.26953">
        <ele>55</ele>
        <time>2015-12-14T20:46:52Z</time>
      </trkpt>
      <trkpt lat="48.85478" lon="2.26946">
        <ele>55.20000076294</ele>
        <time>2015-12-14T20:46:55Z</time>
      </trkpt>
      <trkpt lat="48.85488" lon="2.26922">
        <ele>56</ele>
        <time>2015-12-14T20:47:03Z</time>
      </trkpt>
      <trkpt lat="48.85502" lon="2.26902">
        <ele>56</ele>
        <time>2015-12-14T20:47:08Z</time>
      </trkpt>
      <trkpt lat="48.85504" lon="2.26876">
        <ele>55.20000076294</ele>
        <time>2015-12-14T20:47:10Z</time>
      </trkpt>
      <trkpt lat="48.85508" lon="2.26848">
        <ele>54.79999923706</ele>
        <time>2015-12-14T20:47:13Z</time>
      </trkpt>
      <trkpt lat="48.85516" lon="2.2682">
        <ele>54.599998474121</ele>
        <time>2015-12-14T20:47:18Z</time>
      </trkpt>
      <trkpt lat="48.85521" lon="2.26791">
        <ele>54</ele>
        <time>2015-12-14T20:47:23Z</time>
      </trkpt>
      <trkpt lat="48.85527" lon="2.26759">
        <ele>53.20000076294</ele>
        <time>2015-12-14T20:47:28Z</time>
      </trkpt>
      <trkpt lat="48.85532" lon="2.26738">
        <ele>53.599998474121</ele>
        <time>2015-12-14T20:47:32Z</time>
      </trkpt>
      <trkpt lat="48.85537" lon="2.26709">
        <ele>54.599998474121</ele>
        <time>2015-12-14T20:47:38Z</time>
      </trkpt>
      <trkpt lat="48.85547" lon="2.26684">
        <ele>55.599998474121</ele>
        <time>2015-12-14T20:47:43Z</time>
      </trkpt>
      <trkpt lat="48.8555" lon="2.26656">
        <ele>56</ele>
        <time>2015-12-14T20:47:47Z</time>
      </trkpt>
      <trkpt lat="48.85551" lon="2.26626">
        <ele>56.400001525879</ele>
        <time>2015-12-14T20:47:51Z</time>
      </trkpt>
      <trkpt lat="48.85559" lon="2.26598">
        <ele>57.599998474121</ele>
        <time>2015-12-14T20:47:55Z</time>
      </trkpt>
      <trkpt lat="48.85566" lon="2.26573">
        <ele>59.20000076294</ele>
        <time>2015-12-14T20:47:58Z</time>
      </trkpt>
      <trkpt lat="48.85575" lon="2.26548">
        <ele>60.20000076294</ele>
        <time>2015-12-14T20:48:01Z</time>
      </trkpt>
      <trkpt lat="48.85581" lon="2.26519">
        <ele>61.79999923706</ele>
        <time>2015-12-14T20:48:05Z</time>
      </trkpt>
      <trkpt lat="48.8558" lon="2.26516">
        <ele>61.79999923706</ele>
        <time>2015-12-14T20:48:06Z</time>
      </trkpt>
      <trkpt lat="48.85584" lon="2.26489">
        <ele>62.79999923706</ele>
        <time>2015-12-14T20:48:17Z</time>
      </trkpt>
      <trkpt lat="48.85577" lon="2.26464">
        <ele>61.400001525879</ele>
        <time>2015-12-14T20:48:40Z</time>
      </trkpt>
      <trkpt lat="48.85562" lon="2.26447">
        <ele>59.599998474121</ele>
        <time>2015-12-14T20:48:44Z</time>
      </trkpt>
      <trkpt lat="48.85542" lon="2.26431">
        <ele>57.20000076294</ele>
        <time>2015-12-14T20:48:48Z</time>
      </trkpt>
      <trkpt lat="48.85521" lon="2.26414">
        <ele>55.20000076294</ele>
        <time>2015-12-14T20:48:51Z</time>
      </trkpt>
      <trkpt lat="48.85504" lon="2.26399">
        <ele>56.20000076294</ele>
        <time>2015-12-14T20:48:54Z</time>
      </trkpt>
      <trkpt lat="48.85498" lon="2.26395">
        <ele>56.599998474121</ele>
        <time>2015-12-14T20:48:55Z</time>
      </trkpt>
      <trkpt lat="48.85478" lon="2.26383">
        <ele>58</ele>
        <time>2015-12-14T20:48:58Z</time>
      </trkpt>
      <trkpt lat="48.85457" lon="2.26367">
        <ele>59.400001525879</ele>
        <time>2015-12-14T20:49:01Z</time>
      </trkpt>
      <trkpt lat="48.85435" lon="2.26351">
        <ele>60.79999923706</ele>
        <time>2015-12-14T20:49:04Z</time>
      </trkpt>
      <trkpt lat="48.85413" lon="2.26338">
        <ele>61.400001525879</ele>
        <time>2015-12-14T20:49:07Z</time>
      </trkpt>
      <trkpt lat="48.85392" lon="2.26324">
        <ele>62</ele>
        <time>2015-12-14T20:49:10Z</time>
      </trkpt>
      <trkpt lat="48.85371" lon="2.26309">
        <ele>62</ele>
        <time>2015-12-14T20:49:13Z</time>
      </trkpt>
      <trkpt lat="48.8535" lon="2.26297">
        <ele>62.400001525879</ele>
        <time>2015-12-14T20:49:16Z</time>
      </trkpt>
      <trkpt lat="48.8533" lon="2.26287">
        <ele>63.20000076294</ele>
        <time>2015-12-14T20:49:19Z</time>
      </trkpt>
      <trkpt lat="48.85313" lon="2.26281">
        <ele>64.199996948242</ele>
        <time>2015-12-14T20:49:22Z</time>
      </trkpt>
      <trkpt lat="48.85308" lon="2.26283">
        <ele>64.599998474121</ele>
        <time>2015-12-14T20:49:23Z</time>
      </trkpt>
      <trkpt lat="48.85292" lon="2.26286">
        <ele>64.199996948242</ele>
        <time>2015-12-14T20:49:26Z</time>
      </trkpt>
      <trkpt lat="48.85279" lon="2.26284">
        <ele>64.199996948242</ele>
        <time>2015-12-14T20:49:30Z</time>
      </trkpt>
      <trkpt lat="48.85275" lon="2.26259">
        <ele>64.800003051758</ele>
        <time>2015-12-14T20:49:39Z</time>
      </trkpt>
      <trkpt lat="48.85274" lon="2.26255">
        <ele>64.800003051758</ele>
        <time>2015-12-14T20:49:40Z</time>
      </trkpt>
      <trkpt lat="48.85273" lon="2.26247">
        <ele>65</ele>
        <time>2015-12-14T20:49:44Z</time>
      </trkpt>
      <trkpt lat="48.85273" lon="2.26247">
        <ele>65</ele>
        <time>2015-12-14T20:49:45Z</time>
      </trkpt>
      <trkpt lat="48.85276" lon="2.26242">
        <ele>64.599998474121</ele>
        <time>2015-12-14T20:49:50Z</time>
      </trkpt>
      <trkpt lat="48.8527" lon="2.26262">
        <ele>64.400001525879</ele>
        <time>2015-12-14T20:50:08Z</time>
      </trkpt>
      <trkpt lat="48.85268" lon="2.2629">
        <ele>63.599998474121</ele>
        <time>2015-12-14T20:50:12Z</time>
      </trkpt>
      <trkpt lat="48.85263" lon="2.2632">
        <ele>62.599998474121</ele>
        <time>2015-12-14T20:50:16Z</time>
      </trkpt>
      <trkpt lat="48.85255" lon="2.26347">
        <ele>61.79999923706</ele>
        <time>2015-12-14T20:50:20Z</time>
      </trkpt>
      <trkpt lat="48.85246" lon="2.26373">
        <ele>60.79999923706</ele>
        <time>2015-12-14T20:50:24Z</time>
      </trkpt>
      <trkpt lat="48.85239" lon="2.26405">
        <ele>60.599998474121</ele>
        <time>2015-12-14T20:50:28Z</time>
      </trkpt>
      <trkpt lat="48.85236" lon="2.26413">
        <ele>60.599998474121</ele>
        <time>2015-12-14T20:50:29Z</time>
      </trkpt>
      <trkpt lat="48.85221" lon="2.2643">
        <ele>59.20000076294</ele>
        <time>2015-12-14T20:50:32Z</time>
      </trkpt>
      <trkpt lat="48.85216" lon="2.26435">
        <ele>58.599998474121</ele>
        <time>2015-12-14T20:50:33Z</time>
      </trkpt>
      <trkpt lat="48.85211" lon="2.26441">
        <ele>58.400001525879</ele>
        <time>2015-12-14T20:50:34Z</time>
      </trkpt>
      <trkpt lat="48.85194" lon="2.26457">
        <ele>58.400001525879</ele>
        <time>2015-12-14T20:50:37Z</time>
      </trkpt>
      <trkpt lat="48.8517" lon="2.26476">
        <ele>56.400001525879</ele>
        <time>2015-12-14T20:50:41Z</time>
      </trkpt>
      <trkpt lat="48.85154" lon="2.26494">
        <ele>55.79999923706</ele>
        <time>2015-12-14T20:50:45Z</time>
      </trkpt>
      <trkpt lat="48.85145" lon="2.26516">
        <ele>54.599998474121</ele>
        <time>2015-12-14T20:50:48Z</time>
      </trkpt>
      <trkpt lat="48.85132" lon="2.26524">
        <ele>53.599998474121</ele>
        <time>2015-12-14T20:50:52Z</time>
      </trkpt>
      <trkpt lat="48.85126" lon="2.26525">
        <ele>53.79999923706</ele>
        <time>2015-12-14T20:50:53Z</time>
      </trkpt>
      <trkpt lat="48.85107" lon="2.26543">
        <ele>54.20000076294</ele>
        <time>2015-12-14T20:50:57Z</time>
      </trkpt>
      <trkpt lat="48.85101" lon="2.26548">
        <ele>54</ele>
        <time>2015-12-14T20:50:58Z</time>
      </trkpt>
      <trkpt lat="48.85081" lon="2.26565">
        <ele>53.400001525879</ele>
        <time>2015-12-14T20:51:01Z</time>
      </trkpt>
      <trkpt lat="48.85062" lon="2.26578">
        <ele>52.79999923706</ele>
        <time>2015-12-14T20:51:04Z</time>
      </trkpt>
      <trkpt lat="48.85052" lon="2.26584">
        <ele>52.20000076294</ele>
        <time>2015-12-14T20:51:06Z</time>
      </trkpt>
      <trkpt lat="48.8504" lon="2.26588">
        <ele>51.599998474121</ele>
        <time>2015-12-14T20:51:09Z</time>
      </trkpt>
      <trkpt lat="48.8502" lon="2.26589">
        <ele>51</ele>
        <time>2015-12-14T20:51:13Z</time>
      </trkpt>
      <trkpt lat="48.85001" lon="2.26587">
        <ele>50.20000076294</ele>
        <time>2015-12-14T20:51:17Z</time>
      </trkpt>
      <trkpt lat="48.84977" lon="2.26583">
        <ele>49.400001525879</ele>
        <time>2015-12-14T20:51:22Z</time>
      </trkpt>
      <trkpt lat="48.8496" lon="2.26582">
        <ele>48.79999923706</ele>
        <time>2015-12-14T20:51:26Z</time>
      </trkpt>
      <trkpt lat="48.8494" lon="2.26584">
        <ele>48</ele>
        <time>2015-12-14T20:51:30Z</time>
      </trkpt>
      <trkpt lat="48.8492" lon="2.26587">
        <ele>48.599998474121</ele>
        <time>2015-12-14T20:51:34Z</time>
      </trkpt>
      <trkpt lat="48.84908" lon="2.26582">
        <ele>49.20000076294</ele>
        <time>2015-12-14T20:51:37Z</time>
      </trkpt>
      <trkpt lat="48.84903" lon="2.26586">
        <ele>49.400001525879</ele>
        <time>2015-12-14T20:51:39Z</time>
      </trkpt>
      <trkpt lat="48.8489" lon="2.26572">
        <ele>49.79999923706</ele>
        <time>2015-12-14T20:51:42Z</time>
      </trkpt>
      <trkpt lat="48.84886" lon="2.26542">
        <ele>50.400001525879</ele>
        <time>2015-12-14T20:51:46Z</time>
      </trkpt>
      <trkpt lat="48.84885" lon="2.26536">
        <ele>50.400001525879</ele>
        <time>2015-12-14T20:51:47Z</time>
      </trkpt>
      <trkpt lat="48.84878" lon="2.26509">
        <ele>51</ele>
        <time>2015-12-14T20:51:52Z</time>
      </trkpt>
      <trkpt lat="48.84877" lon="2.26504">
        <ele>51</ele>
        <time>2015-12-14T20:51:53Z</time>
      </trkpt>
      <trkpt lat="48.84876" lon="2.26493">
        <ele>51</ele>
        <time>2015-12-14T20:51:55Z</time>
      </trkpt>
      <trkpt lat="48.84874" lon="2.2647">
        <ele>50.79999923706</ele>
        <time>2015-12-14T20:51:59Z</time>
      </trkpt>
      <trkpt lat="48.84872" lon="2.26448">
        <ele>50.599998474121</ele>
        <time>2015-12-14T20:52:03Z</time>
      </trkpt>
      <trkpt lat="48.8487" lon="2.26421">
        <ele>50.20000076294</ele>
        <time>2015-12-14T20:52:07Z</time>
      </trkpt>
      <trkpt lat="48.84868" lon="2.2639">
        <ele>49.79999923706</ele>
        <time>2015-12-14T20:52:11Z</time>
      </trkpt>
      <trkpt lat="48.84867" lon="2.26357">
        <ele>49.79999923706</ele>
        <time>2015-12-14T20:52:14Z</time>
      </trkpt>
      <trkpt lat="48.84867" lon="2.2632">
        <ele>49.79999923706</ele>
        <time>2015-12-14T20:52:17Z</time>
      </trkpt>
      <trkpt lat="48.84864" lon="2.26296">
        <ele>49.400001525879</ele>
        <time>2015-12-14T20:52:19Z</time>
      </trkpt>
      <trkpt lat="48.84858" lon="2.26258">
        <ele>49</ele>
        <time>2015-12-14T20:52:22Z</time>
      </trkpt>
      <trkpt lat="48.84852" lon="2.26223">
        <ele>49.400001525879</ele>
        <time>2015-12-14T20:52:25Z</time>
      </trkpt>
      <trkpt lat="48.84846" lon="2.26186">
        <ele>50</ele>
        <time>2015-12-14T20:52:28Z</time>
      </trkpt>
      <trkpt lat="48.84846" lon="2.26156">
        <ele>50.400001525879</ele>
        <time>2015-12-14T20:52:30Z</time>
      </trkpt>
      <trkpt lat="48.84845" lon="2.2612">
        <ele>51.20000076294</ele>
        <time>2015-12-14T20:52:33Z</time>
      </trkpt>
      <trkpt lat="48.84843" lon="2.26102">
        <ele>51.599998474121</ele>
        <time>2015-12-14T20:52:35Z</time>
      </trkpt>
      <trkpt lat="48.84843" lon="2.26076">
        <ele>52.20000076294</ele>
        <time>2015-12-14T20:52:39Z</time>
      </trkpt>
      <trkpt lat="48.8485" lon="2.26053">
        <ele>51.20000076294</ele>
        <time>2015-12-14T20:53:07Z</time>
      </trkpt>
      <trkpt lat="48.84845" lon="2.26051">
        <ele>51.400001525879</ele>
        <time>2015-12-14T20:53:20Z</time>
      </trkpt>
      <trkpt lat="48.84827" lon="2.26044">
        <ele>51.79999923706</ele>
        <time>2015-12-14T20:53:28Z</time>
      </trkpt>
      <trkpt lat="48.84807" lon="2.26034">
        <ele>52</ele>
        <time>2015-12-14T20:53:35Z</time>
      </trkpt>
      <trkpt lat="48.84796" lon="2.26027">
        <ele>52</ele>
        <time>2015-12-14T20:53:42Z</time>
      </trkpt>
      <trkpt lat="48.84792" lon="2.26018">
        <ele>52</ele>
        <time>2015-12-14T20:53:56Z</time>
      </trkpt>
      <trkpt lat="48.84794" lon="2.26026">
        <ele>52.20000076294</ele>
        <time>2015-12-14T20:54:07Z</time>
      </trkpt>
      <trkpt lat="48.84794" lon="2.26057">
        <ele>52.400001525879</ele>
        <time>2015-12-14T20:54:12Z</time>
      </trkpt>
      <trkpt lat="48.84791" lon="2.26087">
        <ele>52.599998474121</ele>
        <time>2015-12-14T20:54:17Z</time>
      </trkpt>
      <trkpt lat="48.84789" lon="2.26117">
        <ele>52.400001525879</ele>
        <time>2015-12-14T20:54:21Z</time>
      </trkpt>
      <trkpt lat="48.84789" lon="2.26145">
        <ele>52.400001525879</ele>
        <time>2015-12-14T20:54:24Z</time>
      </trkpt>
      <trkpt lat="48.8479" lon="2.26175">
        <ele>52.20000076294</ele>
        <time>2015-12-14T20:54:27Z</time>
      </trkpt>
      <trkpt lat="48.84793" lon="2.26206">
        <ele>51.20000076294</ele>
        <time>2015-12-14T20:54:30Z</time>
      </trkpt>
      <trkpt lat="48.84793" lon="2.26235">
        <ele>50.20000076294</ele>
        <time>2015-12-14T20:54:33Z</time>
      </trkpt>
      <trkpt lat="48.84793" lon="2.26272">
        <ele>50.400001525879</ele>
        <time>2015-12-14T20:54:37Z</time>
      </trkpt>
      <trkpt lat="48.84795" lon="2.26297">
        <ele>51</ele>
        <time>2015-12-14T20:54:40Z</time>
      </trkpt>
      <trkpt lat="48.84793" lon="2.26329">
        <ele>51.79999923706</ele>
        <time>2015-12-14T20:54:44Z</time>
      </trkpt>
      <trkpt lat="48.84794" lon="2.26336">
        <ele>51.79999923706</ele>
        <time>2015-12-14T20:54:45Z</time>
      </trkpt>
      <trkpt lat="48.848" lon="2.26366">
        <ele>51.79999923706</ele>
        <time>2015-12-14T20:54:49Z</time>
      </trkpt>
      <trkpt lat="48.848" lon="2.2638">
        <ele>52</ele>
        <time>2015-12-14T20:54:51Z</time>
      </trkpt>
      <trkpt lat="48.8481" lon="2.26413">
        <ele>52.20000076294</ele>
        <time>2015-12-14T20:54:54Z</time>
      </trkpt>
      <trkpt lat="48.8481" lon="2.26429">
        <ele>52.400001525879</ele>
        <time>2015-12-14T20:54:56Z</time>
      </trkpt>
      <trkpt lat="48.84806" lon="2.26452">
        <ele>52.20000076294</ele>
        <time>2015-12-14T20:54:59Z</time>
      </trkpt>
      <trkpt lat="48.848" lon="2.26473">
        <ele>50.20000076294</ele>
        <time>2015-12-14T20:55:02Z</time>
      </trkpt>
      <trkpt lat="48.84791" lon="2.26501">
        <ele>48</ele>
        <time>2015-12-14T20:55:06Z</time>
      </trkpt>
      <trkpt lat="48.84789" lon="2.26508">
        <ele>47.79999923706</ele>
        <time>2015-12-14T20:55:07Z</time>
      </trkpt>
      <trkpt lat="48.84778" lon="2.26536">
        <ele>47.599998474121</ele>
        <time>2015-12-14T20:55:11Z</time>
      </trkpt>
      <trkpt lat="48.84769" lon="2.26562">
        <ele>47.79999923706</ele>
        <time>2015-12-14T20:55:15Z</time>
      </trkpt>
      <trkpt lat="48.84764" lon="2.26575">
        <ele>47.79999923706</ele>
        <time>2015-12-14T20:55:17Z</time>
      </trkpt>
      <trkpt lat="48.84755" lon="2.26597">
        <ele>47.599998474121</ele>
        <time>2015-12-14T20:55:21Z</time>
      </trkpt>
      <trkpt lat="48.84747" lon="2.26626">
        <ele>47.400001525879</ele>
        <time>2015-12-14T20:55:25Z</time>
      </trkpt>
      <trkpt lat="48.84757" lon="2.26671">
        <ele>47.400001525879</ele>
        <time>2015-12-14T20:55:27Z</time>
      </trkpt>
      <trkpt lat="48.84759" lon="2.267">
        <ele>47.599998474121</ele>
        <time>2015-12-14T20:55:29Z</time>
      </trkpt>
      <trkpt lat="48.84759" lon="2.26738">
        <ele>47.400001525879</ele>
        <time>2015-12-14T20:55:32Z</time>
      </trkpt>
      <trkpt lat="48.8476" lon="2.26772">
        <ele>47.400001525879</ele>
        <time>2015-12-14T20:55:35Z</time>
      </trkpt>
      <trkpt lat="48.84762" lon="2.26805">
        <ele>47.400001525879</ele>
        <time>2015-12-14T20:55:38Z</time>
      </trkpt>
      <trkpt lat="48.84761" lon="2.26834">
        <ele>47.400001525879</ele>
        <time>2015-12-14T20:55:41Z</time>
      </trkpt>
      <trkpt lat="48.84763" lon="2.26843">
        <ele>47.400001525879</ele>
        <time>2015-12-14T20:55:42Z</time>
      </trkpt>
      <trkpt lat="48.84765" lon="2.26866">
        <ele>47.20000076294</ele>
        <time>2015-12-14T20:55:45Z</time>
      </trkpt>
      <trkpt lat="48.84763" lon="2.26884">
        <ele>47</ele>
        <time>2015-12-14T20:55:49Z</time>
      </trkpt>
      <trkpt lat="48.84755" lon="2.26889">
        <ele>46.400001525879</ele>
        <time>2015-12-14T20:55:55Z</time>
      </trkpt>
      <trkpt lat="48.84755" lon="2.26889">
        <ele>46.400001525879</ele>
        <time>2015-12-14T20:55:56Z</time>
      </trkpt>
      <trkpt lat="48.84754" lon="2.26911">
        <ele>46.20000076294</ele>
        <time>2015-12-14T20:56:26Z</time>
      </trkpt>
      <trkpt lat="48.8477" lon="2.26927">
        <ele>46.599998474121</ele>
        <time>2015-12-14T20:56:31Z</time>
      </trkpt>
      <trkpt lat="48.84784" lon="2.26944">
        <ele>47.20000076294</ele>
        <time>2015-12-14T20:56:35Z</time>
      </trkpt>
      <trkpt lat="48.84798" lon="2.26963">
        <ele>47.599998474121</ele>
        <time>2015-12-14T20:56:39Z</time>
      </trkpt>
      <trkpt lat="48.84814" lon="2.26981">
        <ele>48.20000076294</ele>
        <time>2015-12-14T20:56:44Z</time>
      </trkpt>
      <trkpt lat="48.84834" lon="2.27003">
        <ele>48.79999923706</ele>
        <time>2015-12-14T20:56:49Z</time>
      </trkpt>
      <trkpt lat="48.84852" lon="2.27019">
        <ele>49</ele>
        <time>2015-12-14T20:56:53Z</time>
      </trkpt>
      <trkpt lat="48.84868" lon="2.27036">
        <ele>48</ele>
        <time>2015-12-14T20:56:57Z</time>
      </trkpt>
      <trkpt lat="48.84886" lon="2.27058">
        <ele>46.400001525879</ele>
        <time>2015-12-14T20:57:01Z</time>
      </trkpt>
      <trkpt lat="48.84903" lon="2.27081">
        <ele>44.79999923706</ele>
        <time>2015-12-14T20:57:05Z</time>
      </trkpt>
      <trkpt lat="48.84919" lon="2.27099">
        <ele>44</ele>
        <time>2015-12-14T20:57:08Z</time>
      </trkpt>
      <trkpt lat="48.84938" lon="2.27116">
        <ele>43</ele>
        <time>2015-12-14T20:57:12Z</time>
      </trkpt>
      <trkpt lat="48.84959" lon="2.2713">
        <ele>43.400001525879</ele>
        <time>2015-12-14T20:57:16Z</time>
      </trkpt>
      <trkpt lat="48.84975" lon="2.2715">
        <ele>43.79999923706</ele>
        <time>2015-12-14T20:57:20Z</time>
      </trkpt>
      <trkpt lat="48.84978" lon="2.27155">
        <ele>44</ele>
        <time>2015-12-14T20:57:21Z</time>
      </trkpt>
      <trkpt lat="48.84983" lon="2.27166">
        <ele>44.20000076294</ele>
        <time>2015-12-14T20:57:23Z</time>
      </trkpt>
      <trkpt lat="48.84992" lon="2.27188">
        <ele>45.20000076294</ele>
        <time>2015-12-14T20:57:27Z</time>
      </trkpt>
      <trkpt lat="48.85" lon="2.27209">
        <ele>46.20000076294</ele>
        <time>2015-12-14T20:57:31Z</time>
      </trkpt>
      <trkpt lat="48.8501" lon="2.27242">
        <ele>47.400001525879</ele>
        <time>2015-12-14T20:57:35Z</time>
      </trkpt>
      <trkpt lat="48.85019" lon="2.27269">
        <ele>46.400001525879</ele>
        <time>2015-12-14T20:57:39Z</time>
      </trkpt>
      <trkpt lat="48.8503" lon="2.27299">
        <ele>45</ele>
        <time>2015-12-14T20:57:43Z</time>
      </trkpt>
      <trkpt lat="48.85034" lon="2.27313">
        <ele>44.20000076294</ele>
        <time>2015-12-14T20:57:45Z</time>
      </trkpt>
      <trkpt lat="48.85045" lon="2.27343">
        <ele>43.599998474121</ele>
        <time>2015-12-14T20:57:49Z</time>
      </trkpt>
      <trkpt lat="48.85056" lon="2.27373">
        <ele>43.79999923706</ele>
        <time>2015-12-14T20:57:53Z</time>
      </trkpt>
      <trkpt lat="48.85069" lon="2.27403">
        <ele>44.20000076294</ele>
        <time>2015-12-14T20:57:57Z</time>
      </trkpt>
      <trkpt lat="48.85081" lon="2.27429">
        <ele>43.20000076294</ele>
        <time>2015-12-14T20:58:01Z</time>
      </trkpt>
      <trkpt lat="48.85095" lon="2.27453">
        <ele>41.79999923706</ele>
        <time>2015-12-14T20:58:06Z</time>
      </trkpt>
      <trkpt lat="48.8511" lon="2.27476">
        <ele>40.400001525879</ele>
        <time>2015-12-14T20:58:11Z</time>
      </trkpt>
      <trkpt lat="48.85117" lon="2.27481">
        <ele>39.79999923706</ele>
        <time>2015-12-14T20:58:15Z</time>
      </trkpt>
      <trkpt lat="48.85122" lon="2.2752">
        <ele>39.400001525879</ele>
        <time>2015-12-14T20:58:36Z</time>
      </trkpt>
      <trkpt lat="48.85127" lon="2.27548">
        <ele>39</ele>
        <time>2015-12-14T20:58:41Z</time>
      </trkpt>
      <trkpt lat="48.85131" lon="2.27578">
        <ele>38.599998474121</ele>
        <time>2015-12-14T20:58:46Z</time>
      </trkpt>
      <trkpt lat="48.85135" lon="2.27611">
        <ele>39.400001525879</ele>
        <time>2015-12-14T20:58:51Z</time>
      </trkpt>
      <trkpt lat="48.85137" lon="2.27639">
        <ele>40.20000076294</ele>
        <time>2015-12-14T20:58:56Z</time>
      </trkpt>
      <trkpt lat="48.85137" lon="2.27669">
        <ele>40.599998474121</ele>
        <time>2015-12-14T20:59:02Z</time>
      </trkpt>
      <trkpt lat="48.85139" lon="2.27696">
        <ele>39.400001525879</ele>
        <time>2015-12-14T20:59:07Z</time>
      </trkpt>
      <trkpt lat="48.85142" lon="2.27726">
        <ele>38.79999923706</ele>
        <time>2015-12-14T20:59:14Z</time>
      </trkpt>
      <trkpt lat="48.85144" lon="2.27755">
        <ele>38</ele>
        <time>2015-12-14T20:59:21Z</time>
      </trkpt>
      <trkpt lat="48.85149" lon="2.27774">
        <ele>37.599998474121</ele>
        <time>2015-12-14T20:59:29Z</time>
      </trkpt>
      <trkpt lat="48.85153" lon="2.27807">
        <ele>37</ele>
        <time>2015-12-14T20:59:35Z</time>
      </trkpt>
      <trkpt lat="48.85154" lon="2.27813">
        <ele>37</ele>
        <time>2015-12-14T20:59:37Z</time>
      </trkpt>
      <trkpt lat="48.85152" lon="2.27839">
        <ele>36.79999923706</ele>
        <time>2015-12-14T21:00:00Z</time>
      </trkpt>
      <trkpt lat="48.85161" lon="2.27871">
        <ele>36.599998474121</ele>
        <time>2015-12-14T21:00:07Z</time>
      </trkpt>
      <trkpt lat="48.85174" lon="2.279">
        <ele>36</ele>
        <time>2015-12-14T21:00:11Z</time>
      </trkpt>
      <trkpt lat="48.85185" lon="2.27925">
        <ele>35.20000076294</ele>
        <time>2015-12-14T21:00:14Z</time>
      </trkpt>
      <trkpt lat="48.852" lon="2.27947">
        <ele>35</ele>
        <time>2015-12-14T21:00:17Z</time>
      </trkpt>
      <trkpt lat="48.85218" lon="2.27967">
        <ele>35.20000076294</ele>
        <time>2015-12-14T21:00:20Z</time>
      </trkpt>
      <trkpt lat="48.85234" lon="2.27981">
        <ele>35.400001525879</ele>
        <time>2015-12-14T21:00:23Z</time>
      </trkpt>
      <trkpt lat="48.85238" lon="2.27988">
        <ele>35.400001525879</ele>
        <time>2015-12-14T21:00:24Z</time>
      </trkpt>
      <trkpt lat="48.85252" lon="2.28011">
        <ele>34.79999923706</ele>
        <time>2015-12-14T21:00:27Z</time>
      </trkpt>
      <trkpt lat="48.85263" lon="2.28037">
        <ele>34</ele>
        <time>2015-12-14T21:00:30Z</time>
      </trkpt>
      <trkpt lat="48.85267" lon="2.28046">
        <ele>33.599998474121</ele>
        <time>2015-12-14T21:00:31Z</time>
      </trkpt>
      <trkpt lat="48.85283" lon="2.28072">
        <ele>34.79999923706</ele>
        <time>2015-12-14T21:00:34Z</time>
      </trkpt>
      <trkpt lat="48.85298" lon="2.28099">
        <ele>35.20000076294</ele>
        <time>2015-12-14T21:00:37Z</time>
      </trkpt>
      <trkpt lat="48.85313" lon="2.28125">
        <ele>35.79999923706</ele>
        <time>2015-12-14T21:00:40Z</time>
      </trkpt>
      <trkpt lat="48.85326" lon="2.28151">
        <ele>37</ele>
        <time>2015-12-14T21:00:43Z</time>
      </trkpt>
      <trkpt lat="48.85343" lon="2.28178">
        <ele>37</ele>
        <time>2015-12-14T21:00:46Z</time>
      </trkpt>
      <trkpt lat="48.85357" lon="2.28206">
        <ele>35.400001525879</ele>
        <time>2015-12-14T21:00:49Z</time>
      </trkpt>
      <trkpt lat="48.85371" lon="2.28233">
        <ele>33.599998474121</ele>
        <time>2015-12-14T21:00:52Z</time>
      </trkpt>
      <trkpt lat="48.85386" lon="2.28257">
        <ele>33.20000076294</ele>
        <time>2015-12-14T21:00:55Z</time>
      </trkpt>
      <trkpt lat="48.85401" lon="2.28281">
        <ele>34.599998474121</ele>
        <time>2015-12-14T21:00:58Z</time>
      </trkpt>
      <trkpt lat="48.85415" lon="2.28303">
        <ele>36</ele>
        <time>2015-12-14T21:01:01Z</time>
      </trkpt>
      <trkpt lat="48.8543" lon="2.28325">
        <ele>36.79999923706</ele>
        <time>2015-12-14T21:01:04Z</time>
      </trkpt>
      <trkpt lat="48.85445" lon="2.28346">
        <ele>38.20000076294</ele>
        <time>2015-12-14T21:01:07Z</time>
      </trkpt>
      <trkpt lat="48.8545" lon="2.28352">
        <ele>38.599998474121</ele>
        <time>2015-12-14T21:01:08Z</time>
      </trkpt>
      <trkpt lat="48.85464" lon="2.28371">
        <ele>39.79999923706</ele>
        <time>2015-12-14T21:01:11Z</time>
      </trkpt>
      <trkpt lat="48.85469" lon="2.28377">
        <ele>40.20000076294</ele>
        <time>2015-12-14T21:01:12Z</time>
      </trkpt>
      <trkpt lat="48.85485" lon="2.28397">
        <ele>41.599998474121</ele>
        <time>2015-12-14T21:01:15Z</time>
      </trkpt>
      <trkpt lat="48.85502" lon="2.28416">
        <ele>43.20000076294</ele>
        <time>2015-12-14T21:01:18Z</time>
      </trkpt>
      <trkpt lat="48.85514" lon="2.28429">
        <ele>43.599998474121</ele>
        <time>2015-12-14T21:01:20Z</time>
      </trkpt>
      <trkpt lat="48.85529" lon="2.28452">
        <ele>43.400001525879</ele>
        <time>2015-12-14T21:01:23Z</time>
      </trkpt>
      <trkpt lat="48.8554" lon="2.28467">
        <ele>42.400001525879</ele>
        <time>2015-12-14T21:01:25Z</time>
      </trkpt>
      <trkpt lat="48.85557" lon="2.28491">
        <ele>40.79999923706</ele>
        <time>2015-12-14T21:01:28Z</time>
      </trkpt>
      <trkpt lat="48.85574" lon="2.28515">
        <ele>40.20000076294</ele>
        <time>2015-12-14T21:01:31Z</time>
      </trkpt>
      <trkpt lat="48.85591" lon="2.28536">
        <ele>39.79999923706</ele>
        <time>2015-12-14T21:01:34Z</time>
      </trkpt>
      <trkpt lat="48.85607" lon="2.28557">
        <ele>39.599998474121</ele>
        <time>2015-12-14T21:01:37Z</time>
      </trkpt>
      <trkpt lat="48.85623" lon="2.28576">
        <ele>40.79999923706</ele>
        <time>2015-12-14T21:01:40Z</time>
      </trkpt>
      <trkpt lat="48.8564" lon="2.28598">
        <ele>41.400001525879</ele>
        <time>2015-12-14T21:01:44Z</time>
      </trkpt>
      <trkpt lat="48.85657" lon="2.28619">
        <ele>41.599998474121</ele>
        <time>2015-12-14T21:01:48Z</time>
      </trkpt>
      <trkpt lat="48.85672" lon="2.28638">
        <ele>42</ele>
        <time>2015-12-14T21:01:53Z</time>
      </trkpt>
      <trkpt lat="48.85678" lon="2.28649">
        <ele>41.79999923706</ele>
        <time>2015-12-14T21:01:56Z</time>
      </trkpt>
      <trkpt lat="48.85688" lon="2.28662">
        <ele>41.79999923706</ele>
        <time>2015-12-14T21:02:00Z</time>
      </trkpt>
      <trkpt lat="48.85698" lon="2.28678">
        <ele>41.79999923706</ele>
        <time>2015-12-14T21:02:04Z</time>
      </trkpt>
      <trkpt lat="48.85707" lon="2.28689">
        <ele>41.79999923706</ele>
        <time>2015-12-14T21:02:07Z</time>
      </trkpt>
      <trkpt lat="48.85715" lon="2.28698">
        <ele>42</ele>
        <time>2015-12-14T21:02:10Z</time>
      </trkpt>
      <trkpt lat="48.85726" lon="2.28715">
        <ele>41.79999923706</ele>
        <time>2015-12-14T21:02:14Z</time>
      </trkpt>
      <trkpt lat="48.85741" lon="2.28737">
        <ele>41.400001525879</ele>
        <time>2015-12-14T21:02:18Z</time>
      </trkpt>
      <trkpt lat="48.85759" lon="2.28758">
        <ele>41.400001525879</ele>
        <time>2015-12-14T21:02:22Z</time>
      </trkpt>
      <trkpt lat="48.85773" lon="2.28777">
        <ele>40.599998474121</ele>
        <time>2015-12-14T21:02:26Z</time>
      </trkpt>
      <trkpt lat="48.85777" lon="2.28782">
        <ele>40.20000076294</ele>
        <time>2015-12-14T21:02:27Z</time>
      </trkpt>
      <trkpt lat="48.85794" lon="2.28802">
        <ele>39</ele>
        <time>2015-12-14T21:02:32Z</time>
      </trkpt>
      <trkpt lat="48.85801" lon="2.28812">
        <ele>38.20000076294</ele>
        <time>2015-12-14T21:02:34Z</time>
      </trkpt>
      <trkpt lat="48.85817" lon="2.28835">
        <ele>36.79999923706</ele>
        <time>2015-12-14T21:02:39Z</time>
      </trkpt>
      <trkpt lat="48.85823" lon="2.28843">
        <ele>36.79999923706</ele>
        <time>2015-12-14T21:02:41Z</time>
      </trkpt>
      <trkpt lat="48.85839" lon="2.28863">
        <ele>36.599998474121</ele>
        <time>2015-12-14T21:02:47Z</time>
      </trkpt>
      <trkpt lat="48.85847" lon="2.28878">
        <ele>36</ele>
        <time>2015-12-14T21:02:51Z</time>
      </trkpt>
      <trkpt lat="48.85852" lon="2.28889">
        <ele>35.20000076294</ele>
        <time>2015-12-14T21:02:54Z</time>
      </trkpt>
      <trkpt lat="48.85869" lon="2.28907">
        <ele>35</ele>
        <time>2015-12-14T21:03:01Z</time>
      </trkpt>
      <trkpt lat="48.85883" lon="2.28931">
        <ele>33.79999923706</ele>
        <time>2015-12-14T21:03:07Z</time>
      </trkpt>
      <trkpt lat="48.85897" lon="2.28952">
        <ele>33.20000076294</ele>
        <time>2015-12-14T21:03:12Z</time>
      </trkpt>
      <trkpt lat="48.85911" lon="2.28971">
        <ele>32.79999923706</ele>
        <time>2015-12-14T21:03:16Z</time>
      </trkpt>
      <trkpt lat="48.85928" lon="2.28992">
        <ele>32.400001525879</ele>
        <time>2015-12-14T21:03:21Z</time>
      </trkpt>
      <trkpt lat="48.85941" lon="2.29014">
        <ele>32.400001525879</ele>
        <time>2015-12-14T21:03:26Z</time>
      </trkpt>
      <trkpt lat="48.85955" lon="2.29033">
        <ele>32.20000076294</ele>
        <time>2015-12-14T21:03:31Z</time>
      </trkpt>
      <trkpt lat="48.85972" lon="2.29054">
        <ele>32.20000076294</ele>
        <time>2015-12-14T21:03:37Z</time>
      </trkpt>
      <trkpt lat="48.85988" lon="2.29073">
        <ele>32</ele>
        <time>2015-12-14T21:03:43Z</time>
      </trkpt>
      <trkpt lat="48.86002" lon="2.29093">
        <ele>31.60000038147</ele>
        <time>2015-12-14T21:03:49Z</time>
      </trkpt>
      <trkpt lat="48.86017" lon="2.2911">
        <ele>31</ele>
        <time>2015-12-14T21:03:56Z</time>
      </trkpt>
      <trkpt lat="48.86019" lon="2.29113">
        <ele>30.799999237061</ele>
        <time>2015-12-14T21:03:58Z</time>
      </trkpt>
      <trkpt lat="48.8603" lon="2.29123">
        <ele>30.799999237061</ele>
        <time>2015-12-14T21:05:18Z</time>
      </trkpt>
      <trkpt lat="48.86043" lon="2.29141">
        <ele>30.39999961853</ele>
        <time>2015-12-14T21:05:27Z</time>
      </trkpt>
      <trkpt lat="48.86058" lon="2.29161">
        <ele>29.799999237061</ele>
        <time>2015-12-14T21:05:35Z</time>
      </trkpt>
      <trkpt lat="48.86071" lon="2.29183">
        <ele>30.200000762939</ele>
        <time>2015-12-14T21:05:41Z</time>
      </trkpt>
      <trkpt lat="48.86087" lon="2.29203">
        <ele>30.60000038147</ele>
        <time>2015-12-14T21:05:47Z</time>
      </trkpt>
      <trkpt lat="48.861" lon="2.29222">
        <ele>31</ele>
        <time>2015-12-14T21:05:52Z</time>
      </trkpt>
      <trkpt lat="48.86114" lon="2.2924">
        <ele>31.60000038147</ele>
        <time>2015-12-14T21:05:56Z</time>
      </trkpt>
      <trkpt lat="48.86128" lon="2.29259">
        <ele>31.39999961853</ele>
        <time>2015-12-14T21:06:00Z</time>
      </trkpt>
      <trkpt lat="48.86143" lon="2.29276">
        <ele>31</ele>
        <time>2015-12-14T21:06:04Z</time>
      </trkpt>
      <trkpt lat="48.86158" lon="2.29294">
        <ele>30.60000038147</ele>
        <time>2015-12-14T21:06:08Z</time>
      </trkpt>
      <trkpt lat="48.86173" lon="2.29311">
        <ele>30.39999961853</ele>
        <time>2015-12-14T21:06:12Z</time>
      </trkpt>
      <trkpt lat="48.86188" lon="2.29332">
        <ele>30</ele>
        <time>2015-12-14T21:06:17Z</time>
      </trkpt>
      <trkpt lat="48.86202" lon="2.29351">
        <ele>31</ele>
        <time>2015-12-14T21:06:22Z</time>
      </trkpt>
      <trkpt lat="48.8621" lon="2.29361">
        <ele>31.799999237061</ele>
        <time>2015-12-14T21:06:25Z</time>
      </trkpt>
      <trkpt lat="48.86215" lon="2.29368">
        <ele>32.20000076294</ele>
        <time>2015-12-14T21:06:27Z</time>
      </trkpt>
      <trkpt lat="48.86227" lon="2.29384">
        <ele>33.20000076294</ele>
        <time>2015-12-14T21:06:31Z</time>
      </trkpt>
      <trkpt lat="48.86241" lon="2.29408">
        <ele>34.400001525879</ele>
        <time>2015-12-14T21:06:36Z</time>
      </trkpt>
      <trkpt lat="48.86255" lon="2.29431">
        <ele>34.599998474121</ele>
        <time>2015-12-14T21:06:41Z</time>
      </trkpt>
      <trkpt lat="48.86267" lon="2.29456">
        <ele>34.400001525879</ele>
        <time>2015-12-14T21:06:47Z</time>
      </trkpt>
      <trkpt lat="48.86277" lon="2.29485">
        <ele>33.79999923706</ele>
        <time>2015-12-14T21:06:53Z</time>
      </trkpt>
      <trkpt lat="48.86288" lon="2.29513">
        <ele>33.400001525879</ele>
        <time>2015-12-14T21:06:59Z</time>
      </trkpt>
      <trkpt lat="48.86295" lon="2.29538">
        <ele>33</ele>
        <time>2015-12-14T21:07:04Z</time>
      </trkpt>
      <trkpt lat="48.86303" lon="2.29565">
        <ele>32.79999923706</ele>
        <time>2015-12-14T21:07:10Z</time>
      </trkpt>
      <trkpt lat="48.8631" lon="2.29591">
        <ele>32.599998474121</ele>
        <time>2015-12-14T21:07:15Z</time>
      </trkpt>
      <trkpt lat="48.86317" lon="2.2962">
        <ele>32.599998474121</ele>
        <time>2015-12-14T21:07:21Z</time>
      </trkpt>
      <trkpt lat="48.8632" lon="2.29634">
        <ele>32.400001525879</ele>
        <time>2015-12-14T21:07:26Z</time>
      </trkpt>
      <trkpt lat="48.86328" lon="2.29658">
        <ele>32</ele>
        <time>2015-12-14T21:08:00Z</time>
      </trkpt>
      <trkpt lat="48.86333" lon="2.29685">
        <ele>32</ele>
        <time>2015-12-14T21:08:07Z</time>
      </trkpt>
      <trkpt lat="48.86338" lon="2.29714">
        <ele>32.400001525879</ele>
        <time>2015-12-14T21:08:13Z</time>
      </trkpt>
      <trkpt lat="48.86342" lon="2.2974">
        <ele>32.79999923706</ele>
        <time>2015-12-14T21:08:18Z</time>
      </trkpt>
      <trkpt lat="48.86349" lon="2.29767">
        <ele>33</ele>
        <time>2015-12-14T21:08:23Z</time>
      </trkpt>
      <trkpt lat="48.86353" lon="2.29794">
        <ele>33.20000076294</ele>
        <time>2015-12-14T21:08:28Z</time>
      </trkpt>
      <trkpt lat="48.86359" lon="2.29821">
        <ele>33.400001525879</ele>
        <time>2015-12-14T21:08:33Z</time>
      </trkpt>
      <trkpt lat="48.86366" lon="2.29847">
        <ele>34.20000076294</ele>
        <time>2015-12-14T21:08:38Z</time>
      </trkpt>
      <trkpt lat="48.86372" lon="2.29876">
        <ele>34.400001525879</ele>
        <time>2015-12-14T21:08:45Z</time>
      </trkpt>
      <trkpt lat="48.86375" lon="2.29908">
        <ele>34</ele>
        <time>2015-12-14T21:08:51Z</time>
      </trkpt>
      <trkpt lat="48.86379" lon="2.29941">
        <ele>36.400001525879</ele>
        <time>2015-12-14T21:08:57Z</time>
      </trkpt>
      <trkpt lat="48.86383" lon="2.29969">
        <ele>39.20000076294</ele>
        <time>2015-12-14T21:09:02Z</time>
      </trkpt>
      <trkpt lat="48.86388" lon="2.29996">
        <ele>42</ele>
        <time>2015-12-14T21:09:07Z</time>
      </trkpt>
      <trkpt lat="48.86393" lon="2.30029">
        <ele>37.400001525879</ele>
        <time>2015-12-14T21:09:12Z</time>
      </trkpt>
      <trkpt lat="48.86398" lon="2.30056">
        <ele>34.79999923706</ele>
        <time>2015-12-14T21:09:17Z</time>
      </trkpt>
      <trkpt lat="48.86402" lon="2.30083">
        <ele>32.599998474121</ele>
        <time>2015-12-14T21:09:23Z</time>
      </trkpt>
      <trkpt lat="48.86406" lon="2.30111">
        <ele>28.60000038147</ele>
        <time>2015-12-14T21:09:30Z</time>
      </trkpt>
      <trkpt lat="48.86409" lon="2.30139">
        <ele>25.799999237061</ele>
        <time>2015-12-14T21:09:39Z</time>
      </trkpt>
      <trkpt lat="48.86411" lon="2.30163">
        <ele>25</ele>
        <time>2015-12-14T21:10:02Z</time>
      </trkpt>
      <trkpt lat="48.86413" lon="2.30182">
        <ele>26</ele>
        <time>2015-12-14T21:10:09Z</time>
      </trkpt>
      <trkpt lat="48.86417" lon="2.30192">
        <ele>26.60000038147</ele>
        <time>2015-12-14T21:10:13Z</time>
      </trkpt>
      <trkpt lat="48.8642" lon="2.3022">
        <ele>28</ele>
        <time>2015-12-14T21:10:19Z</time>
      </trkpt>
      <trkpt lat="48.86419" lon="2.30249">
        <ele>29</ele>
        <time>2015-12-14T21:10:24Z</time>
      </trkpt>
      <trkpt lat="48.86419" lon="2.30256">
        <ele>29.39999961853</ele>
        <time>2015-12-14T21:10:25Z</time>
      </trkpt>
      <trkpt lat="48.8642" lon="2.30287">
        <ele>30.39999961853</ele>
        <time>2015-12-14T21:10:29Z</time>
      </trkpt>
      <trkpt lat="48.86421" lon="2.30322">
        <ele>31</ele>
        <time>2015-12-14T21:10:33Z</time>
      </trkpt>
      <trkpt lat="48.86423" lon="2.30358">
        <ele>31.39999961853</ele>
        <time>2015-12-14T21:10:37Z</time>
      </trkpt>
      <trkpt lat="48.86429" lon="2.30392">
        <ele>32.20000076294</ele>
        <time>2015-12-14T21:10:41Z</time>
      </trkpt>
      <trkpt lat="48.86437" lon="2.30425">
        <ele>32.599998474121</ele>
        <time>2015-12-14T21:10:45Z</time>
      </trkpt>
      <trkpt lat="48.8644" lon="2.30441">
        <ele>32.400001525879</ele>
        <time>2015-12-14T21:10:47Z</time>
      </trkpt>
      <trkpt lat="48.86442" lon="2.30466">
        <ele>32.20000076294</ele>
        <time>2015-12-14T21:10:50Z</time>
      </trkpt>
      <trkpt lat="48.86443" lon="2.3049">
        <ele>31.60000038147</ele>
        <time>2015-12-14T21:10:53Z</time>
      </trkpt>
      <trkpt lat="48.8644" lon="2.3052">
        <ele>31.39999961853</ele>
        <time>2015-12-14T21:10:57Z</time>
      </trkpt>
      <trkpt lat="48.86439" lon="2.30548">
        <ele>31.60000038147</ele>
        <time>2015-12-14T21:11:01Z</time>
      </trkpt>
      <trkpt lat="48.86439" lon="2.30556">
        <ele>31.60000038147</ele>
        <time>2015-12-14T21:11:02Z</time>
      </trkpt>
      <trkpt lat="48.8644" lon="2.30588">
        <ele>32.20000076294</ele>
        <time>2015-12-14T21:11:06Z</time>
      </trkpt>
      <trkpt lat="48.86442" lon="2.30621">
        <ele>33.400001525879</ele>
        <time>2015-12-14T21:11:10Z</time>
      </trkpt>
      <trkpt lat="48.86444" lon="2.30646">
        <ele>34.400001525879</ele>
        <time>2015-12-14T21:11:13Z</time>
      </trkpt>
      <trkpt lat="48.86449" lon="2.30678">
        <ele>34.79999923706</ele>
        <time>2015-12-14T21:11:17Z</time>
      </trkpt>
      <trkpt lat="48.8645" lon="2.30688">
        <ele>34.79999923706</ele>
        <time>2015-12-14T21:11:18Z</time>
      </trkpt>
      <trkpt lat="48.86452" lon="2.30718">
        <ele>34.400001525879</ele>
        <time>2015-12-14T21:11:21Z</time>
      </trkpt>
      <trkpt lat="48.86453" lon="2.30747">
        <ele>33.79999923706</ele>
        <time>2015-12-14T21:11:24Z</time>
      </trkpt>
      <trkpt lat="48.86454" lon="2.30782">
        <ele>33.599998474121</ele>
        <time>2015-12-14T21:11:28Z</time>
      </trkpt>
      <trkpt lat="48.86454" lon="2.30807">
        <ele>33.599998474121</ele>
        <time>2015-12-14T21:11:31Z</time>
      </trkpt>
      <trkpt lat="48.86453" lon="2.30823">
        <ele>33.400001525879</ele>
        <time>2015-12-14T21:11:33Z</time>
      </trkpt>
      <trkpt lat="48.86453" lon="2.30856">
        <ele>33.20000076294</ele>
        <time>2015-12-14T21:11:37Z</time>
      </trkpt>
      <trkpt lat="48.86454" lon="2.30864">
        <ele>33</ele>
        <time>2015-12-14T21:11:38Z</time>
      </trkpt>
      <trkpt lat="48.86456" lon="2.30897">
        <ele>32.599998474121</ele>
        <time>2015-12-14T21:11:42Z</time>
      </trkpt>
      <trkpt lat="48.86457" lon="2.30913">
        <ele>32.400001525879</ele>
        <time>2015-12-14T21:11:44Z</time>
      </trkpt>
      <trkpt lat="48.86459" lon="2.30935">
        <ele>32.599998474121</ele>
        <time>2015-12-14T21:11:47Z</time>
      </trkpt>
      <trkpt lat="48.86461" lon="2.30964">
        <ele>32.79999923706</ele>
        <time>2015-12-14T21:11:51Z</time>
      </trkpt>
      <trkpt lat="48.86463" lon="2.30989">
        <ele>33.20000076294</ele>
        <time>2015-12-14T21:11:55Z</time>
      </trkpt>
      <trkpt lat="48.86456" lon="2.31008">
        <ele>31.60000038147</ele>
        <time>2015-12-14T21:11:59Z</time>
      </trkpt>
      <trkpt lat="48.86444" lon="2.31028">
        <ele>29.39999961853</ele>
        <time>2015-12-14T21:12:38Z</time>
      </trkpt>
      <trkpt lat="48.86446" lon="2.31056">
        <ele>28.60000038147</ele>
        <time>2015-12-14T21:12:48Z</time>
      </trkpt>
      <trkpt lat="48.86452" lon="2.31084">
        <ele>28.39999961853</ele>
        <time>2015-12-14T21:12:56Z</time>
      </trkpt>
      <trkpt lat="48.86452" lon="2.31114">
        <ele>28.39999961853</ele>
        <time>2015-12-14T21:13:02Z</time>
      </trkpt>
      <trkpt lat="48.86452" lon="2.31142">
        <ele>28.39999961853</ele>
        <time>2015-12-14T21:13:07Z</time>
      </trkpt>
      <trkpt lat="48.86453" lon="2.31172">
        <ele>29.200000762939</ele>
        <time>2015-12-14T21:13:12Z</time>
      </trkpt>
      <trkpt lat="48.86455" lon="2.31202">
        <ele>32</ele>
        <time>2015-12-14T21:13:17Z</time>
      </trkpt>
      <trkpt lat="48.86457" lon="2.31232">
        <ele>35</ele>
        <time>2015-12-14T21:13:22Z</time>
      </trkpt>
      <trkpt lat="48.8646" lon="2.3126">
        <ele>36.79999923706</ele>
        <time>2015-12-14T21:13:27Z</time>
      </trkpt>
      <trkpt lat="48.86462" lon="2.3129">
        <ele>36.400001525879</ele>
        <time>2015-12-14T21:13:32Z</time>
      </trkpt>
      <trkpt lat="48.86463" lon="2.31319">
        <ele>35.599998474121</ele>
        <time>2015-12-14T21:13:37Z</time>
      </trkpt>
      <trkpt lat="48.86463" lon="2.31332">
        <ele>35</ele>
        <time>2015-12-14T21:13:43Z</time>
      </trkpt>
      <trkpt lat="48.86464" lon="2.31353">
        <ele>33.599998474121</ele>
        <time>2015-12-14T21:13:52Z</time>
      </trkpt>
      <trkpt lat="48.86464" lon="2.31384">
        <ele>32.79999923706</ele>
        <time>2015-12-14T21:13:59Z</time>
      </trkpt>
      <trkpt lat="48.86467" lon="2.31416">
        <ele>32.400001525879</ele>
        <time>2015-12-14T21:14:05Z</time>
      </trkpt>
      <trkpt lat="48.86466" lon="2.31445">
        <ele>34.400001525879</ele>
        <time>2015-12-14T21:14:10Z</time>
      </trkpt>
      <trkpt lat="48.86467" lon="2.31474">
        <ele>34.20000076294</ele>
        <time>2015-12-14T21:14:14Z</time>
      </trkpt>
      <trkpt lat="48.86467" lon="2.31509">
        <ele>32.79999923706</ele>
        <time>2015-12-14T21:14:18Z</time>
      </trkpt>
      <trkpt lat="48.86467" lon="2.31537">
        <ele>30.60000038147</ele>
        <time>2015-12-14T21:14:21Z</time>
      </trkpt>
      <trkpt lat="48.86469" lon="2.31566">
        <ele>29.799999237061</ele>
        <time>2015-12-14T21:14:24Z</time>
      </trkpt>
      <trkpt lat="48.8647" lon="2.31598">
        <ele>28</ele>
        <time>2015-12-14T21:14:27Z</time>
      </trkpt>
      <trkpt lat="48.86472" lon="2.31631">
        <ele>27.200000762939</ele>
        <time>2015-12-14T21:14:30Z</time>
      </trkpt>
      <trkpt lat="48.86473" lon="2.31663">
        <ele>27.200000762939</ele>
        <time>2015-12-14T21:14:33Z</time>
      </trkpt>
      <trkpt lat="48.86474" lon="2.31694">
        <ele>29</ele>
        <time>2015-12-14T21:14:36Z</time>
      </trkpt>
      <trkpt lat="48.86475" lon="2.31724">
        <ele>34</ele>
        <time>2015-12-14T21:14:39Z</time>
      </trkpt>
      <trkpt lat="48.86476" lon="2.31754">
        <ele>38</ele>
        <time>2015-12-14T21:14:42Z</time>
      </trkpt>
      <trkpt lat="48.86477" lon="2.31782">
        <ele>37.79999923706</ele>
        <time>2015-12-14T21:14:45Z</time>
      </trkpt>
      <trkpt lat="48.86479" lon="2.318">
        <ele>36.400001525879</ele>
        <time>2015-12-14T21:14:47Z</time>
      </trkpt>
      <trkpt lat="48.86475" lon="2.31835">
        <ele>33.20000076294</ele>
        <time>2015-12-14T21:14:51Z</time>
      </trkpt>
      <trkpt lat="48.86459" lon="2.31853">
        <ele>32.400001525879</ele>
        <time>2015-12-14T21:14:54Z</time>
      </trkpt>
      <trkpt lat="48.86448" lon="2.31868">
        <ele>30.799999237061</ele>
        <time>2015-12-14T21:14:58Z</time>
      </trkpt>
      <trkpt lat="48.86447" lon="2.3187">
        <ele>30.60000038147</ele>
        <time>2015-12-14T21:14:59Z</time>
      </trkpt>
      <trkpt lat="48.86445" lon="2.31878">
        <ele>29.799999237061</ele>
        <time>2015-12-14T21:15:03Z</time>
      </trkpt>
      <trkpt lat="48.86444" lon="2.31871">
        <ele>30.39999961853</ele>
        <time>2015-12-14T21:15:28Z</time>
      </trkpt>
      <trkpt lat="48.86449" lon="2.31862">
        <ele>31.200000762939</ele>
        <time>2015-12-14T21:15:32Z</time>
      </trkpt>
      <trkpt lat="48.86447" lon="2.31859">
        <ele>31.200000762939</ele>
        <time>2015-12-14T21:15:42Z</time>
      </trkpt>
      <trkpt lat="48.86443" lon="2.31861">
        <ele>31</ele>
        <time>2015-12-14T21:15:48Z</time>
      </trkpt>
      <trkpt lat="48.86435" lon="2.31887">
        <ele>29.60000038147</ele>
        <time>2015-12-14T21:15:56Z</time>
      </trkpt>
      <trkpt lat="48.86426" lon="2.31911">
        <ele>27.39999961853</ele>
        <time>2015-12-14T21:16:01Z</time>
      </trkpt>
      <trkpt lat="48.86416" lon="2.31938">
        <ele>27.60000038147</ele>
        <time>2015-12-14T21:16:06Z</time>
      </trkpt>
      <trkpt lat="48.86407" lon="2.31965">
        <ele>28.39999961853</ele>
        <time>2015-12-14T21:16:11Z</time>
      </trkpt>
      <trkpt lat="48.86397" lon="2.31992">
        <ele>28.799999237061</ele>
        <time>2015-12-14T21:16:16Z</time>
      </trkpt>
      <trkpt lat="48.86388" lon="2.32019">
        <ele>29.60000038147</ele>
        <time>2015-12-14T21:16:21Z</time>
      </trkpt>
      <trkpt lat="48.8638" lon="2.3205">
        <ele>29.39999961853</ele>
        <time>2015-12-14T21:16:27Z</time>
      </trkpt>
      <trkpt lat="48.8637" lon="2.32078">
        <ele>28.799999237061</ele>
        <time>2015-12-14T21:16:32Z</time>
      </trkpt>
      <trkpt lat="48.86361" lon="2.32106">
        <ele>28.799999237061</ele>
        <time>2015-12-14T21:16:37Z</time>
      </trkpt>
      <trkpt lat="48.86353" lon="2.3213">
        <ele>28.799999237061</ele>
        <time>2015-12-14T21:16:42Z</time>
      </trkpt>
      <trkpt lat="48.86343" lon="2.32158">
        <ele>29</ele>
        <time>2015-12-14T21:16:47Z</time>
      </trkpt>
      <trkpt lat="48.86334" lon="2.32186">
        <ele>29.60000038147</ele>
        <time>2015-12-14T21:16:52Z</time>
      </trkpt>
      <trkpt lat="48.86324" lon="2.32214">
        <ele>30.60000038147</ele>
        <time>2015-12-14T21:16:57Z</time>
      </trkpt>
      <trkpt lat="48.86316" lon="2.3224">
        <ele>30.799999237061</ele>
        <time>2015-12-14T21:17:02Z</time>
      </trkpt>
      <trkpt lat="48.86307" lon="2.32267">
        <ele>30.39999961853</ele>
        <time>2015-12-14T21:17:07Z</time>
      </trkpt>
      <trkpt lat="48.86296" lon="2.32297">
        <ele>29.799999237061</ele>
        <time>2015-12-14T21:17:12Z</time>
      </trkpt>
      <trkpt lat="48.86288" lon="2.32324">
        <ele>29.60000038147</ele>
        <time>2015-12-14T21:17:16Z</time>
      </trkpt>
      <trkpt lat="48.86282" lon="2.32342">
        <ele>29.200000762939</ele>
        <time>2015-12-14T21:17:19Z</time>
      </trkpt>
      <trkpt lat="48.86272" lon="2.32369">
        <ele>28</ele>
        <time>2015-12-14T21:17:24Z</time>
      </trkpt>
      <trkpt lat="48.86265" lon="2.32394">
        <ele>27.60000038147</ele>
        <time>2015-12-14T21:17:29Z</time>
      </trkpt>
      <trkpt lat="48.86256" lon="2.32423">
        <ele>27.200000762939</ele>
        <time>2015-12-14T21:17:35Z</time>
      </trkpt>
      <trkpt lat="48.86254" lon="2.32432">
        <ele>27.39999961853</ele>
        <time>2015-12-14T21:17:37Z</time>
      </trkpt>
      <trkpt lat="48.86248" lon="2.32453">
        <ele>28</ele>
        <time>2015-12-14T21:17:44Z</time>
      </trkpt>
      <trkpt lat="48.86242" lon="2.32461">
        <ele>28.200000762939</ele>
        <time>2015-12-14T21:19:12Z</time>
      </trkpt>
      <trkpt lat="48.86234" lon="2.32485">
        <ele>28.799999237061</ele>
        <time>2015-12-14T21:19:21Z</time>
      </trkpt>
      <trkpt lat="48.86231" lon="2.32495">
        <ele>29</ele>
        <time>2015-12-14T21:19:27Z</time>
      </trkpt>
      <trkpt lat="48.86219" lon="2.32498">
        <ele>29</ele>
        <time>2015-12-14T21:20:03Z</time>
      </trkpt>
      <trkpt lat="48.86202" lon="2.32486">
        <ele>28.799999237061</ele>
        <time>2015-12-14T21:20:32Z</time>
      </trkpt>
      <trkpt lat="48.86188" lon="2.32475">
        <ele>28.60000038147</ele>
        <time>2015-12-14T21:20:46Z</time>
      </trkpt>
      <trkpt lat="48.86182" lon="2.32461">
        <ele>29.200000762939</ele>
        <time>2015-12-14T21:20:57Z</time>
      </trkpt>
      <trkpt lat="48.86167" lon="2.3245">
        <ele>30.799999237061</ele>
        <time>2015-12-14T21:21:08Z</time>
      </trkpt>
      <trkpt lat="48.8615" lon="2.32442">
        <ele>33</ele>
        <time>2015-12-14T21:21:19Z</time>
      </trkpt>
      <trkpt lat="48.86131" lon="2.32431">
        <ele>35</ele>
        <time>2015-12-14T21:21:28Z</time>
      </trkpt>
      <trkpt lat="48.86124" lon="2.32425">
        <ele>36</ele>
        <time>2015-12-14T21:21:33Z</time>
      </trkpt>
      <trkpt lat="48.86121" lon="2.32421">
        <ele>36.20000076294</ele>
        <time>2015-12-14T21:21:37Z</time>
      </trkpt>
      <trkpt lat="48.86121" lon="2.3242">
        <ele>36.20000076294</ele>
        <time>2015-12-14T21:21:40Z</time>
      </trkpt>
      <trkpt lat="48.86117" lon="2.32437">
        <ele>36.400001525879</ele>
        <time>2015-12-14T21:22:38Z</time>
      </trkpt>
      <trkpt lat="48.86114" lon="2.32443">
        <ele>36.400001525879</ele>
        <time>2015-12-14T21:22:41Z</time>
      </trkpt>
      <trkpt lat="48.86105" lon="2.32442">
        <ele>37</ele>
        <time>2015-12-14T21:23:23Z</time>
      </trkpt>
      <trkpt lat="48.86102" lon="2.32446">
        <ele>37.20000076294</ele>
        <time>2015-12-14T21:23:25Z</time>
      </trkpt>
      <trkpt lat="48.86093" lon="2.32474">
        <ele>36.79999923706</ele>
        <time>2015-12-14T21:23:32Z</time>
      </trkpt>
      <trkpt lat="48.86084" lon="2.32498">
        <ele>36.20000076294</ele>
        <time>2015-12-14T21:23:37Z</time>
      </trkpt>
      <trkpt lat="48.86071" lon="2.32517">
        <ele>36.20000076294</ele>
        <time>2015-12-14T21:23:43Z</time>
      </trkpt>
      <trkpt lat="48.86056" lon="2.3251">
        <ele>37.400001525879</ele>
        <time>2015-12-14T21:24:00Z</time>
      </trkpt>
      <trkpt lat="48.86036" lon="2.32507">
        <ele>38.79999923706</ele>
        <time>2015-12-14T21:24:07Z</time>
      </trkpt>
      <trkpt lat="48.86013" lon="2.32505">
        <ele>41</ele>
        <time>2015-12-14T21:24:13Z</time>
      </trkpt>
      <trkpt lat="48.85993" lon="2.325">
        <ele>41</ele>
        <time>2015-12-14T21:24:19Z</time>
      </trkpt>
      <trkpt lat="48.85991" lon="2.325">
        <ele>41</ele>
        <time>2015-12-14T21:24:20Z</time>
      </trkpt>
      <trkpt lat="48.85989" lon="2.3251">
        <ele>41.79999923706</ele>
        <time>2015-12-14T21:24:24Z</time>
      </trkpt>
      <trkpt lat="48.8599" lon="2.3254">
        <ele>44.400001525879</ele>
        <time>2015-12-14T21:24:36Z</time>
      </trkpt>
      <trkpt lat="48.85978" lon="2.32567">
        <ele>44.599998474121</ele>
        <time>2015-12-14T21:24:43Z</time>
      </trkpt>
      <trkpt lat="48.85968" lon="2.32591">
        <ele>44.599998474121</ele>
        <time>2015-12-14T21:24:49Z</time>
      </trkpt>
      <trkpt lat="48.85961" lon="2.3262">
        <ele>45.20000076294</ele>
        <time>2015-12-14T21:24:55Z</time>
      </trkpt>
      <trkpt lat="48.85952" lon="2.32646">
        <ele>46.400001525879</ele>
        <time>2015-12-14T21:25:01Z</time>
      </trkpt>
      <trkpt lat="48.85947" lon="2.32675">
        <ele>46.400001525879</ele>
        <time>2015-12-14T21:25:09Z</time>
      </trkpt>
      <trkpt lat="48.85939" lon="2.32686">
        <ele>47.20000076294</ele>
        <time>2015-12-14T21:25:18Z</time>
      </trkpt>
      <trkpt lat="48.85938" lon="2.32681">
        <ele>47.20000076294</ele>
        <time>2015-12-14T21:25:22Z</time>
      </trkpt>
      <trkpt lat="48.8594" lon="2.32682">
        <ele>47.20000076294</ele>
        <time>2015-12-14T21:25:23Z</time>
      </trkpt>
      <trkpt lat="48.8593" lon="2.32678">
        <ele>47</ele>
        <time>2015-12-14T21:25:57Z</time>
      </trkpt>
      <trkpt lat="48.85924" lon="2.32712">
        <ele>47.20000076294</ele>
        <time>2015-12-14T21:26:03Z</time>
      </trkpt>
      <trkpt lat="48.85916" lon="2.32742">
        <ele>47.79999923706</ele>
        <time>2015-12-14T21:26:08Z</time>
      </trkpt>
      <trkpt lat="48.85908" lon="2.32771">
        <ele>47.79999923706</ele>
        <time>2015-12-14T21:26:13Z</time>
      </trkpt>
      <trkpt lat="48.85901" lon="2.32797">
        <ele>47.20000076294</ele>
        <time>2015-12-14T21:26:18Z</time>
      </trkpt>
      <trkpt lat="48.85888" lon="2.3282">
        <ele>46.20000076294</ele>
        <time>2015-12-14T21:26:23Z</time>
      </trkpt>
      <trkpt lat="48.85886" lon="2.32853">
        <ele>45</ele>
        <time>2015-12-14T21:26:28Z</time>
      </trkpt>
      <trkpt lat="48.85879" lon="2.32882">
        <ele>45</ele>
        <time>2015-12-14T21:26:34Z</time>
      </trkpt>
      <trkpt lat="48.85871" lon="2.32909">
        <ele>45.599998474121</ele>
        <time>2015-12-14T21:26:39Z</time>
      </trkpt>
      <trkpt lat="48.85866" lon="2.32942">
        <ele>45.599998474121</ele>
        <time>2015-12-14T21:26:44Z</time>
      </trkpt>
      <trkpt lat="48.8586" lon="2.32969">
        <ele>47</ele>
        <time>2015-12-14T21:26:49Z</time>
      </trkpt>
      <trkpt lat="48.85853" lon="2.32998">
        <ele>48</ele>
        <time>2015-12-14T21:26:54Z</time>
      </trkpt>
      <trkpt lat="48.85838" lon="2.33016">
        <ele>47.599998474121</ele>
        <time>2015-12-14T21:26:58Z</time>
      </trkpt>
      <trkpt lat="48.85827" lon="2.33047">
        <ele>47.400001525879</ele>
        <time>2015-12-14T21:27:03Z</time>
      </trkpt>
      <trkpt lat="48.85819" lon="2.33071">
        <ele>46.79999923706</ele>
        <time>2015-12-14T21:27:07Z</time>
      </trkpt>
      <trkpt lat="48.85812" lon="2.33097">
        <ele>45.599998474121</ele>
        <time>2015-12-14T21:27:11Z</time>
      </trkpt>
      <trkpt lat="48.85811" lon="2.33105">
        <ele>45.20000076294</ele>
        <time>2015-12-14T21:27:12Z</time>
      </trkpt>
      <trkpt lat="48.85804" lon="2.33137">
        <ele>45</ele>
        <time>2015-12-14T21:27:17Z</time>
      </trkpt>
      <trkpt lat="48.85796" lon="2.33165">
        <ele>45.400001525879</ele>
        <time>2015-12-14T21:27:21Z</time>
      </trkpt>
      <trkpt lat="48.85789" lon="2.33191">
        <ele>45.400001525879</ele>
        <time>2015-12-14T21:27:25Z</time>
      </trkpt>
      <trkpt lat="48.85782" lon="2.33217">
        <ele>46</ele>
        <time>2015-12-14T21:27:30Z</time>
      </trkpt>
      <trkpt lat="48.85782" lon="2.33222">
        <ele>46.20000076294</ele>
        <time>2015-12-14T21:27:31Z</time>
      </trkpt>
      <trkpt lat="48.85764" lon="2.33227">
        <ele>46.599998474121</ele>
        <time>2015-12-14T21:27:37Z</time>
      </trkpt>
      <trkpt lat="48.85742" lon="2.33226">
        <ele>46.400001525879</ele>
        <time>2015-12-14T21:27:42Z</time>
      </trkpt>
      <trkpt lat="48.85731" lon="2.3322">
        <ele>46.400001525879</ele>
        <time>2015-12-14T21:27:45Z</time>
      </trkpt>
      <trkpt lat="48.85708" lon="2.3321">
        <ele>46.20000076294</ele>
        <time>2015-12-14T21:27:50Z</time>
      </trkpt>
      <trkpt lat="48.85687" lon="2.33204">
        <ele>46.20000076294</ele>
        <time>2015-12-14T21:27:53Z</time>
      </trkpt>
      <trkpt lat="48.85666" lon="2.33195">
        <ele>47.400001525879</ele>
        <time>2015-12-14T21:27:57Z</time>
      </trkpt>
      <trkpt lat="48.85648" lon="2.33186">
        <ele>48.400001525879</ele>
        <time>2015-12-14T21:28:02Z</time>
      </trkpt>
      <trkpt lat="48.85642" lon="2.33183">
        <ele>49</ele>
        <time>2015-12-14T21:28:04Z</time>
      </trkpt>
      <trkpt lat="48.85637" lon="2.33181">
        <ele>49.20000076294</ele>
        <time>2015-12-14T21:28:07Z</time>
      </trkpt>
      <trkpt lat="48.85635" lon="2.3318">
        <ele>49.400001525879</ele>
        <time>2015-12-14T21:28:09Z</time>
      </trkpt>
      <trkpt lat="48.85626" lon="2.33186">
        <ele>50</ele>
        <time>2015-12-14T21:28:15Z</time>
      </trkpt>
      <trkpt lat="48.85614" lon="2.33209">
        <ele>49.20000076294</ele>
        <time>2015-12-14T21:28:26Z</time>
      </trkpt>
      <trkpt lat="48.85601" lon="2.33232">
        <ele>48.79999923706</ele>
        <time>2015-12-14T21:28:32Z</time>
      </trkpt>
      <trkpt lat="48.8559" lon="2.33257">
        <ele>48</ele>
        <time>2015-12-14T21:28:38Z</time>
      </trkpt>
      <trkpt lat="48.85582" lon="2.33285">
        <ele>47.20000076294</ele>
        <time>2015-12-14T21:28:43Z</time>
      </trkpt>
      <trkpt lat="48.85573" lon="2.33311">
        <ele>46.20000076294</ele>
        <time>2015-12-14T21:28:48Z</time>
      </trkpt>
      <trkpt lat="48.85563" lon="2.33338">
        <ele>45</ele>
        <time>2015-12-14T21:28:54Z</time>
      </trkpt>
      <trkpt lat="48.85556" lon="2.33364">
        <ele>45.400001525879</ele>
        <time>2015-12-14T21:28:59Z</time>
      </trkpt>
      <trkpt lat="48.85547" lon="2.33389">
        <ele>45.20000076294</ele>
        <time>2015-12-14T21:29:05Z</time>
      </trkpt>
      <trkpt lat="48.85537" lon="2.33413">
        <ele>45.20000076294</ele>
        <time>2015-12-14T21:29:10Z</time>
      </trkpt>
      <trkpt lat="48.85529" lon="2.33439">
        <ele>45.20000076294</ele>
        <time>2015-12-14T21:29:15Z</time>
      </trkpt>
      <trkpt lat="48.85522" lon="2.33466">
        <ele>45</ele>
        <time>2015-12-14T21:29:22Z</time>
      </trkpt>
      <trkpt lat="48.85514" lon="2.33494">
        <ele>45</ele>
        <time>2015-12-14T21:29:29Z</time>
      </trkpt>
      <trkpt lat="48.85504" lon="2.3352">
        <ele>45.400001525879</ele>
        <time>2015-12-14T21:29:35Z</time>
      </trkpt>
      <trkpt lat="48.85494" lon="2.33549">
        <ele>46</ele>
        <time>2015-12-14T21:29:41Z</time>
      </trkpt>
      <trkpt lat="48.85484" lon="2.33572">
        <ele>46</ele>
        <time>2015-12-14T21:29:46Z</time>
      </trkpt>
      <trkpt lat="48.85475" lon="2.33596">
        <ele>46.20000076294</ele>
        <time>2015-12-14T21:29:51Z</time>
      </trkpt>
      <trkpt lat="48.85469" lon="2.33628">
        <ele>47</ele>
        <time>2015-12-14T21:29:57Z</time>
      </trkpt>
      <trkpt lat="48.85465" lon="2.33657">
        <ele>48.20000076294</ele>
        <time>2015-12-14T21:30:03Z</time>
      </trkpt>
      <trkpt lat="48.85454" lon="2.33665">
        <ele>48.599998474121</ele>
        <time>2015-12-14T21:30:08Z</time>
      </trkpt>
      <trkpt lat="48.85436" lon="2.33673">
        <ele>49</ele>
        <time>2015-12-14T21:30:18Z</time>
      </trkpt>
      <trkpt lat="48.85419" lon="2.33682">
        <ele>49.20000076294</ele>
        <time>2015-12-14T21:30:23Z</time>
      </trkpt>
      <trkpt lat="48.85403" lon="2.33701">
        <ele>49.400001525879</ele>
        <time>2015-12-14T21:30:30Z</time>
      </trkpt>
      <trkpt lat="48.85385" lon="2.33703">
        <ele>49.79999923706</ele>
        <time>2015-12-14T21:30:40Z</time>
      </trkpt>
      <trkpt lat="48.85384" lon="2.33731">
        <ele>49.599998474121</ele>
        <time>2015-12-14T21:30:52Z</time>
      </trkpt>
      <trkpt lat="48.85376" lon="2.3376">
        <ele>49.599998474121</ele>
        <time>2015-12-14T21:30:56Z</time>
      </trkpt>
      <trkpt lat="48.85372" lon="2.3379">
        <ele>49.400001525879</ele>
        <time>2015-12-14T21:31:01Z</time>
      </trkpt>
      <trkpt lat="48.85371" lon="2.3382">
        <ele>49.20000076294</ele>
        <time>2015-12-14T21:31:07Z</time>
      </trkpt>
      <trkpt lat="48.85366" lon="2.33846">
        <ele>48.400001525879</ele>
        <time>2015-12-14T21:31:16Z</time>
      </trkpt>
      <trkpt lat="48.85361" lon="2.33873">
        <ele>47</ele>
        <time>2015-12-14T21:31:23Z</time>
      </trkpt>
      <trkpt lat="48.85353" lon="2.33899">
        <ele>45.599998474121</ele>
        <time>2015-12-14T21:31:29Z</time>
      </trkpt>
      <trkpt lat="48.85346" lon="2.33926">
        <ele>44.79999923706</ele>
        <time>2015-12-14T21:31:35Z</time>
      </trkpt>
      <trkpt lat="48.85341" lon="2.33952">
        <ele>44</ele>
        <time>2015-12-14T21:31:40Z</time>
      </trkpt>
      <trkpt lat="48.85339" lon="2.33981">
        <ele>43.400001525879</ele>
        <time>2015-12-14T21:31:45Z</time>
      </trkpt>
      <trkpt lat="48.85333" lon="2.34011">
        <ele>43.400001525879</ele>
        <time>2015-12-14T21:31:50Z</time>
      </trkpt>
      <trkpt lat="48.85333" lon="2.3404">
        <ele>43.79999923706</ele>
        <time>2015-12-14T21:31:55Z</time>
      </trkpt>
      <trkpt lat="48.85338" lon="2.34072">
        <ele>44</ele>
        <time>2015-12-14T21:32:02Z</time>
      </trkpt>
      <trkpt lat="48.85339" lon="2.34107">
        <ele>43.599998474121</ele>
        <time>2015-12-14T21:32:08Z</time>
      </trkpt>
      <trkpt lat="48.85345" lon="2.34135">
        <ele>43.400001525879</ele>
        <time>2015-12-14T21:32:16Z</time>
      </trkpt>
      <trkpt lat="48.85344" lon="2.34164">
        <ele>43.20000076294</ele>
        <time>2015-12-14T21:32:24Z</time>
      </trkpt>
      <trkpt lat="48.85342" lon="2.34193">
        <ele>44.79999923706</ele>
        <time>2015-12-14T21:32:29Z</time>
      </trkpt>
      <trkpt lat="48.8533" lon="2.34216">
        <ele>46.20000076294</ele>
        <time>2015-12-14T21:32:35Z</time>
      </trkpt>
      <trkpt lat="48.8533" lon="2.34244">
        <ele>47.79999923706</ele>
        <time>2015-12-14T21:32:41Z</time>
      </trkpt>
      <trkpt lat="48.85332" lon="2.34273">
        <ele>47.79999923706</ele>
        <time>2015-12-14T21:32:45Z</time>
      </trkpt>
      <trkpt lat="48.85331" lon="2.34279">
        <ele>47.79999923706</ele>
        <time>2015-12-14T21:32:48Z</time>
      </trkpt>
      <trkpt lat="48.85328" lon="2.34299">
        <ele>48</ele>
        <time>2015-12-14T21:32:54Z</time>
      </trkpt>
      <trkpt lat="48.85329" lon="2.34301">
        <ele>48</ele>
        <time>2015-12-14T21:32:57Z</time>
      </trkpt>
      <trkpt lat="48.85325" lon="2.34324">
        <ele>47.79999923706</ele>
        <time>2015-12-14T21:33:05Z</time>
      </trkpt>
      <trkpt lat="48.85328" lon="2.34339">
        <ele>47.400001525879</ele>
        <time>2015-12-14T21:33:13Z</time>
      </trkpt>
      <trkpt lat="48.85334" lon="2.34355">
        <ele>46.599998474121</ele>
        <time>2015-12-14T21:33:19Z</time>
      </trkpt>
      <trkpt lat="48.85338" lon="2.34362">
        <ele>46.20000076294</ele>
        <time>2015-12-14T21:33:24Z</time>
      </trkpt>
      <trkpt lat="48.8534" lon="2.34381">
        <ele>45.599998474121</ele>
        <time>2015-12-14T21:33:30Z</time>
      </trkpt>
      <trkpt lat="48.85342" lon="2.34391">
        <ele>45.20000076294</ele>
        <time>2015-12-14T21:33:35Z</time>
      </trkpt>
      <trkpt lat="48.85352" lon="2.34415">
        <ele>44.400001525879</ele>
        <time>2015-12-14T21:33:42Z</time>
      </trkpt>
      <trkpt lat="48.85367" lon="2.34432">
        <ele>43.599998474121</ele>
        <time>2015-12-14T21:33:51Z</time>
      </trkpt>
      <trkpt lat="48.85369" lon="2.34433">
        <ele>43.599998474121</ele>
        <time>2015-12-14T21:33:55Z</time>
      </trkpt>
      <trkpt lat="48.85375" lon="2.34439">
        <ele>43.400001525879</ele>
        <time>2015-12-14T21:34:13Z</time>
      </trkpt>
      <trkpt lat="48.8539" lon="2.34448">
        <ele>42.79999923706</ele>
        <time>2015-12-14T21:34:19Z</time>
      </trkpt>
      <trkpt lat="48.85408" lon="2.34465">
        <ele>42.20000076294</ele>
        <time>2015-12-14T21:34:25Z</time>
      </trkpt>
      <trkpt lat="48.85424" lon="2.34482">
        <ele>41.599998474121</ele>
        <time>2015-12-14T21:34:30Z</time>
      </trkpt>
      <trkpt lat="48.85441" lon="2.34496">
        <ele>41</ele>
        <time>2015-12-14T21:34:35Z</time>
      </trkpt>
      <trkpt lat="48.85456" lon="2.34512">
        <ele>42.20000076294</ele>
        <time>2015-12-14T21:34:40Z</time>
      </trkpt>
      <trkpt lat="48.85471" lon="2.34532">
        <ele>43.400001525879</ele>
        <time>2015-12-14T21:34:45Z</time>
      </trkpt>
      <trkpt lat="48.85489" lon="2.34546">
        <ele>44.599998474121</ele>
        <time>2015-12-14T21:34:50Z</time>
      </trkpt>
      <trkpt lat="48.85508" lon="2.34555">
        <ele>45.599998474121</ele>
        <time>2015-12-14T21:34:55Z</time>
      </trkpt>
      <trkpt lat="48.85526" lon="2.34566">
        <ele>46.400001525879</ele>
        <time>2015-12-14T21:34:59Z</time>
      </trkpt>
      <trkpt lat="48.85546" lon="2.34581">
        <ele>47.20000076294</ele>
        <time>2015-12-14T21:35:03Z</time>
      </trkpt>
      <trkpt lat="48.85565" lon="2.34596">
        <ele>47.599998474121</ele>
        <time>2015-12-14T21:35:07Z</time>
      </trkpt>
      <trkpt lat="48.85583" lon="2.34606">
        <ele>47.79999923706</ele>
        <time>2015-12-14T21:35:12Z</time>
      </trkpt>
      <trkpt lat="48.85597" lon="2.34608">
        <ele>47.79999923706</ele>
        <time>2015-12-14T21:35:15Z</time>
      </trkpt>
      <trkpt lat="48.85618" lon="2.3461">
        <ele>47</ele>
        <time>2015-12-14T21:35:19Z</time>
      </trkpt>
      <trkpt lat="48.8564" lon="2.34619">
        <ele>45.20000076294</ele>
        <time>2015-12-14T21:35:23Z</time>
      </trkpt>
      <trkpt lat="48.85658" lon="2.34633">
        <ele>43.599998474121</ele>
        <time>2015-12-14T21:35:27Z</time>
      </trkpt>
      <trkpt lat="48.85665" lon="2.34641">
        <ele>43</ele>
        <time>2015-12-14T21:35:29Z</time>
      </trkpt>
      <trkpt lat="48.85673" lon="2.34649">
        <ele>42.400001525879</ele>
        <time>2015-12-14T21:35:31Z</time>
      </trkpt>
      <trkpt lat="48.85689" lon="2.34664">
        <ele>41</ele>
        <time>2015-12-14T21:35:35Z</time>
      </trkpt>
      <trkpt lat="48.85708" lon="2.34676">
        <ele>40.599998474121</ele>
        <time>2015-12-14T21:35:39Z</time>
      </trkpt>
      <trkpt lat="48.85713" lon="2.3468">
        <ele>40.400001525879</ele>
        <time>2015-12-14T21:35:40Z</time>
      </trkpt>
      <trkpt lat="48.85729" lon="2.34685">
        <ele>39.79999923706</ele>
        <time>2015-12-14T21:35:44Z</time>
      </trkpt>
      <trkpt lat="48.85741" lon="2.34689">
        <ele>39.400001525879</ele>
        <time>2015-12-14T21:35:47Z</time>
      </trkpt>
      <trkpt lat="48.8576" lon="2.34699">
        <ele>38.79999923706</ele>
        <time>2015-12-14T21:35:52Z</time>
      </trkpt>
      <trkpt lat="48.8577" lon="2.34702">
        <ele>38.400001525879</ele>
        <time>2015-12-14T21:35:55Z</time>
      </trkpt>
      <trkpt lat="48.85779" lon="2.34706">
        <ele>39</ele>
        <time>2015-12-14T21:35:58Z</time>
      </trkpt>
      <trkpt lat="48.85793" lon="2.3471">
        <ele>40.400001525879</ele>
        <time>2015-12-14T21:36:02Z</time>
      </trkpt>
      <trkpt lat="48.85813" lon="2.34714">
        <ele>42.20000076294</ele>
        <time>2015-12-14T21:36:07Z</time>
      </trkpt>
      <trkpt lat="48.85831" lon="2.34719">
        <ele>44</ele>
        <time>2015-12-14T21:36:11Z</time>
      </trkpt>
      <trkpt lat="48.85839" lon="2.34721">
        <ele>45.20000076294</ele>
        <time>2015-12-14T21:36:13Z</time>
      </trkpt>
      <trkpt lat="48.85848" lon="2.34723">
        <ele>46.400001525879</ele>
        <time>2015-12-14T21:36:17Z</time>
      </trkpt>
      <trkpt lat="48.8585" lon="2.34724">
        <ele>46.79999923706</ele>
        <time>2015-12-14T21:36:19Z</time>
      </trkpt>
      <trkpt lat="48.8585" lon="2.34724">
        <ele>46.79999923706</ele>
        <time>2015-12-14T21:36:21Z</time>
      </trkpt>
      <trkpt lat="48.85868" lon="2.34719">
        <ele>47.20000076294</ele>
        <time>2015-12-14T21:36:56Z</time>
      </trkpt>
      <trkpt lat="48.85888" lon="2.34707">
        <ele>46.79999923706</ele>
        <time>2015-12-14T21:37:03Z</time>
      </trkpt>
      <trkpt lat="48.85905" lon="2.34694">
        <ele>46.79999923706</ele>
        <time>2015-12-14T21:37:08Z</time>
      </trkpt>
      <trkpt lat="48.85923" lon="2.34692">
        <ele>46.400001525879</ele>
        <time>2015-12-14T21:37:14Z</time>
      </trkpt>
      <trkpt lat="48.8594" lon="2.34699">
        <ele>45.79999923706</ele>
        <time>2015-12-14T21:37:23Z</time>
      </trkpt>
      <trkpt lat="48.85956" lon="2.34708">
        <ele>45.599998474121</ele>
        <time>2015-12-14T21:37:43Z</time>
      </trkpt>
      <trkpt lat="48.85965" lon="2.34712">
        <ele>45.599998474121</ele>
        <time>2015-12-14T21:38:07Z</time>
      </trkpt>
      <trkpt lat="48.85962" lon="2.34707">
        <ele>45.79999923706</ele>
        <time>2015-12-14T21:38:45Z</time>
      </trkpt>
      <trkpt lat="48.85958" lon="2.34711">
        <ele>45.599998474121</ele>
        <time>2015-12-14T21:39:12Z</time>
      </trkpt>
    </trkseg>
  </trk>
  <trk>
    <name><![CDATA[lundi 2015 12 07]]></name>
    <extensions>
      <line xmlns="http://www.topografix.com/GPX/gpx_style/0/2">
        <color>000000</color>
      </line>
    </extensions>
    <trkseg>
      <trkpt lat="48.85741" lon="2.34733">
        <ele>40.400001525879</ele>
        <time>2015-12-07T19:23:45Z</time>
      </trkpt>
      <trkpt lat="48.85742" lon="2.34719">
        <ele>40.400001525879</ele>
        <time>2015-12-07T19:23:58Z</time>
      </trkpt>
      <trkpt lat="48.85745" lon="2.34715">
        <ele>40.20000076294</ele>
        <time>2015-12-07T19:24:01Z</time>
      </trkpt>
      <trkpt lat="48.85753" lon="2.34717">
        <ele>39.79999923706</ele>
        <time>2015-12-07T19:24:05Z</time>
      </trkpt>
      <trkpt lat="48.85773" lon="2.34721">
        <ele>39</ele>
        <time>2015-12-07T19:24:14Z</time>
      </trkpt>
      <trkpt lat="48.85788" lon="2.34701">
        <ele>39.599998474121</ele>
        <time>2015-12-07T19:24:21Z</time>
      </trkpt>
      <trkpt lat="48.85797" lon="2.34677">
        <ele>40.20000076294</ele>
        <time>2015-12-07T19:24:28Z</time>
      </trkpt>
      <trkpt lat="48.85801" lon="2.3465">
        <ele>42.400001525879</ele>
        <time>2015-12-07T19:24:34Z</time>
      </trkpt>
      <trkpt lat="48.85809" lon="2.34624">
        <ele>46.20000076294</ele>
        <time>2015-12-07T19:24:40Z</time>
      </trkpt>
      <trkpt lat="48.85819" lon="2.346">
        <ele>47.79999923706</ele>
        <time>2015-12-07T19:24:45Z</time>
      </trkpt>
      <trkpt lat="48.85824" lon="2.34589">
        <ele>48.400001525879</ele>
        <time>2015-12-07T19:24:49Z</time>
      </trkpt>
      <trkpt lat="48.85843" lon="2.34592">
        <ele>49.79999923706</ele>
        <time>2015-12-07T19:24:57Z</time>
      </trkpt>
      <trkpt lat="48.85845" lon="2.34593">
        <ele>50</ele>
        <time>2015-12-07T19:24:58Z</time>
      </trkpt>
      <trkpt lat="48.85853" lon="2.34588">
        <ele>50.599998474121</ele>
        <time>2015-12-07T19:25:01Z</time>
      </trkpt>
      <trkpt lat="48.85867" lon="2.34565">
        <ele>50.400001525879</ele>
        <time>2015-12-07T19:25:08Z</time>
      </trkpt>
      <trkpt lat="48.85881" lon="2.34548">
        <ele>49.79999923706</ele>
        <time>2015-12-07T19:25:13Z</time>
      </trkpt>
      <trkpt lat="48.85885" lon="2.34521">
        <ele>49</ele>
        <time>2015-12-07T19:25:19Z</time>
      </trkpt>
      <trkpt lat="48.85896" lon="2.34498">
        <ele>49.400001525879</ele>
        <time>2015-12-07T19:25:25Z</time>
      </trkpt>
      <trkpt lat="48.8589" lon="2.34493">
        <ele>49.20000076294</ele>
        <time>2015-12-07T19:25:27Z</time>
      </trkpt>
      <trkpt lat="48.85864" lon="2.34486">
        <ele>48.20000076294</ele>
        <time>2015-12-07T19:25:34Z</time>
      </trkpt>
      <trkpt lat="48.85842" lon="2.34477">
        <ele>46.79999923706</ele>
        <time>2015-12-07T19:25:38Z</time>
      </trkpt>
      <trkpt lat="48.85831" lon="2.34473">
        <ele>45.79999923706</ele>
        <time>2015-12-07T19:25:40Z</time>
      </trkpt>
      <trkpt lat="48.85838" lon="2.3445">
        <ele>46.20000076294</ele>
        <time>2015-12-07T19:25:45Z</time>
      </trkpt>
      <trkpt lat="48.8585" lon="2.34428">
        <ele>46.79999923706</ele>
        <time>2015-12-07T19:25:49Z</time>
      </trkpt>
      <trkpt lat="48.8586" lon="2.34404">
        <ele>48</ele>
        <time>2015-12-07T19:25:53Z</time>
      </trkpt>
      <trkpt lat="48.85853" lon="2.34375">
        <ele>49.79999923706</ele>
        <time>2015-12-07T19:25:59Z</time>
      </trkpt>
      <trkpt lat="48.85835" lon="2.34368">
        <ele>48.20000076294</ele>
        <time>2015-12-07T19:26:04Z</time>
      </trkpt>
      <trkpt lat="48.85825" lon="2.34353">
        <ele>48</ele>
        <time>2015-12-07T19:26:10Z</time>
      </trkpt>
      <trkpt lat="48.8583" lon="2.34331">
        <ele>50.599998474121</ele>
        <time>2015-12-07T19:26:17Z</time>
      </trkpt>
      <trkpt lat="48.85836" lon="2.34305">
        <ele>52.599998474121</ele>
        <time>2015-12-07T19:26:24Z</time>
      </trkpt>
      <trkpt lat="48.85848" lon="2.34284">
        <ele>57</ele>
        <time>2015-12-07T19:26:30Z</time>
      </trkpt>
      <trkpt lat="48.85853" lon="2.34256">
        <ele>60.599998474121</ele>
        <time>2015-12-07T19:26:39Z</time>
      </trkpt>
      <trkpt lat="48.8586" lon="2.34238">
        <ele>61</ele>
        <time>2015-12-07T19:26:48Z</time>
      </trkpt>
      <trkpt lat="48.85862" lon="2.34233">
        <ele>60.599998474121</ele>
        <time>2015-12-07T19:26:51Z</time>
      </trkpt>
      <trkpt lat="48.85863" lon="2.34231">
        <ele>60.400001525879</ele>
        <time>2015-12-07T19:26:53Z</time>
      </trkpt>
      <trkpt lat="48.85872" lon="2.34206">
        <ele>58</ele>
        <time>2015-12-07T19:27:07Z</time>
      </trkpt>
      <trkpt lat="48.85876" lon="2.34201">
        <ele>57.400001525879</ele>
        <time>2015-12-07T19:27:10Z</time>
      </trkpt>
      <trkpt lat="48.85886" lon="2.34197">
        <ele>56</ele>
        <time>2015-12-07T19:27:15Z</time>
      </trkpt>
      <trkpt lat="48.85901" lon="2.34197">
        <ele>54.79999923706</ele>
        <time>2015-12-07T19:27:22Z</time>
      </trkpt>
      <trkpt lat="48.85907" lon="2.34203">
        <ele>54.599998474121</ele>
        <time>2015-12-07T19:27:27Z</time>
      </trkpt>
      <trkpt lat="48.85926" lon="2.34214">
        <ele>53.599998474121</ele>
        <time>2015-12-07T19:27:34Z</time>
      </trkpt>
      <trkpt lat="48.85944" lon="2.34215">
        <ele>52.20000076294</ele>
        <time>2015-12-07T19:27:39Z</time>
      </trkpt>
      <trkpt lat="48.85965" lon="2.34219">
        <ele>50.79999923706</ele>
        <time>2015-12-07T19:27:44Z</time>
      </trkpt>
      <trkpt lat="48.85984" lon="2.34226">
        <ele>49.79999923706</ele>
        <time>2015-12-07T19:27:49Z</time>
      </trkpt>
      <trkpt lat="48.86004" lon="2.3423">
        <ele>48.599998474121</ele>
        <time>2015-12-07T19:27:55Z</time>
      </trkpt>
      <trkpt lat="48.86016" lon="2.34224">
        <ele>48.20000076294</ele>
        <time>2015-12-07T19:28:01Z</time>
      </trkpt>
      <trkpt lat="48.86024" lon="2.34224">
        <ele>48</ele>
        <time>2015-12-07T19:28:12Z</time>
      </trkpt>
      <trkpt lat="48.8603" lon="2.34231">
        <ele>48</ele>
        <time>2015-12-07T19:28:17Z</time>
      </trkpt>
      <trkpt lat="48.86042" lon="2.34235">
        <ele>48.20000076294</ele>
        <time>2015-12-07T19:28:40Z</time>
      </trkpt>
      <trkpt lat="48.8605" lon="2.34233">
        <ele>48.400001525879</ele>
        <time>2015-12-07T19:28:46Z</time>
      </trkpt>
      <trkpt lat="48.86069" lon="2.3424">
        <ele>48.599998474121</ele>
        <time>2015-12-07T19:28:55Z</time>
      </trkpt>
      <trkpt lat="48.86087" lon="2.34242">
        <ele>48.79999923706</ele>
        <time>2015-12-07T19:29:00Z</time>
      </trkpt>
      <trkpt lat="48.86105" lon="2.34244">
        <ele>49</ele>
        <time>2015-12-07T19:29:06Z</time>
      </trkpt>
      <trkpt lat="48.86123" lon="2.34238">
        <ele>49</ele>
        <time>2015-12-07T19:29:13Z</time>
      </trkpt>
      <trkpt lat="48.86142" lon="2.34229">
        <ele>49.20000076294</ele>
        <time>2015-12-07T19:29:19Z</time>
      </trkpt>
      <trkpt lat="48.86162" lon="2.34232">
        <ele>49.400001525879</ele>
        <time>2015-12-07T19:29:27Z</time>
      </trkpt>
      <trkpt lat="48.86182" lon="2.34238">
        <ele>49.79999923706</ele>
        <time>2015-12-07T19:29:31Z</time>
      </trkpt>
      <trkpt lat="48.862" lon="2.34248">
        <ele>49.79999923706</ele>
        <time>2015-12-07T19:29:35Z</time>
      </trkpt>
      <trkpt lat="48.86217" lon="2.34239">
        <ele>49.599998474121</ele>
        <time>2015-12-07T19:29:40Z</time>
      </trkpt>
      <trkpt lat="48.86228" lon="2.34217">
        <ele>49.599998474121</ele>
        <time>2015-12-07T19:29:45Z</time>
      </trkpt>
      <trkpt lat="48.86238" lon="2.3419">
        <ele>49.599998474121</ele>
        <time>2015-12-07T19:29:51Z</time>
      </trkpt>
      <trkpt lat="48.86249" lon="2.34168">
        <ele>50</ele>
        <time>2015-12-07T19:29:56Z</time>
      </trkpt>
      <trkpt lat="48.86269" lon="2.34168">
        <ele>50</ele>
        <time>2015-12-07T19:30:03Z</time>
      </trkpt>
      <trkpt lat="48.86287" lon="2.34177">
        <ele>50</ele>
        <time>2015-12-07T19:30:08Z</time>
      </trkpt>
      <trkpt lat="48.86306" lon="2.34185">
        <ele>49.79999923706</ele>
        <time>2015-12-07T19:30:13Z</time>
      </trkpt>
      <trkpt lat="48.86322" lon="2.34203">
        <ele>49.79999923706</ele>
        <time>2015-12-07T19:30:21Z</time>
      </trkpt>
      <trkpt lat="48.86341" lon="2.34212">
        <ele>49.79999923706</ele>
        <time>2015-12-07T19:30:26Z</time>
      </trkpt>
      <trkpt lat="48.8636" lon="2.34218">
        <ele>49.599998474121</ele>
        <time>2015-12-07T19:30:32Z</time>
      </trkpt>
      <trkpt lat="48.86381" lon="2.34224">
        <ele>49.20000076294</ele>
        <time>2015-12-07T19:30:37Z</time>
      </trkpt>
      <trkpt lat="48.86403" lon="2.34231">
        <ele>48.599998474121</ele>
        <time>2015-12-07T19:30:41Z</time>
      </trkpt>
      <trkpt lat="48.86421" lon="2.34247">
        <ele>48.400001525879</ele>
        <time>2015-12-07T19:30:44Z</time>
      </trkpt>
      <trkpt lat="48.8644" lon="2.34256">
        <ele>48</ele>
        <time>2015-12-07T19:30:48Z</time>
      </trkpt>
      <trkpt lat="48.8646" lon="2.34264">
        <ele>47.599998474121</ele>
        <time>2015-12-07T19:30:53Z</time>
      </trkpt>
      <trkpt lat="48.86478" lon="2.34274">
        <ele>47.20000076294</ele>
        <time>2015-12-07T19:30:59Z</time>
      </trkpt>
      <trkpt lat="48.86493" lon="2.34285">
        <ele>47</ele>
        <time>2015-12-07T19:31:05Z</time>
      </trkpt>
      <trkpt lat="48.86511" lon="2.34292">
        <ele>46.599998474121</ele>
        <time>2015-12-07T19:31:11Z</time>
      </trkpt>
      <trkpt lat="48.86532" lon="2.34293">
        <ele>46.599998474121</ele>
        <time>2015-12-07T19:31:17Z</time>
      </trkpt>
      <trkpt lat="48.8655" lon="2.34305">
        <ele>46.599998474121</ele>
        <time>2015-12-07T19:31:22Z</time>
      </trkpt>
      <trkpt lat="48.86564" lon="2.34327">
        <ele>46.599998474121</ele>
        <time>2015-12-07T19:31:25Z</time>
      </trkpt>
      <trkpt lat="48.86584" lon="2.34339">
        <ele>46.79999923706</ele>
        <time>2015-12-07T19:31:30Z</time>
      </trkpt>
      <trkpt lat="48.86605" lon="2.34348">
        <ele>47.20000076294</ele>
        <time>2015-12-07T19:31:35Z</time>
      </trkpt>
      <trkpt lat="48.86626" lon="2.34351">
        <ele>48</ele>
        <time>2015-12-07T19:31:41Z</time>
      </trkpt>
      <trkpt lat="48.86644" lon="2.34366">
        <ele>48.79999923706</ele>
        <time>2015-12-07T19:31:46Z</time>
      </trkpt>
      <trkpt lat="48.86661" lon="2.34373">
        <ele>49.79999923706</ele>
        <time>2015-12-07T19:31:50Z</time>
      </trkpt>
      <trkpt lat="48.8668" lon="2.34375">
        <ele>51</ele>
        <time>2015-12-07T19:31:54Z</time>
      </trkpt>
      <trkpt lat="48.86698" lon="2.34376">
        <ele>51.20000076294</ele>
        <time>2015-12-07T19:31:58Z</time>
      </trkpt>
      <trkpt lat="48.86719" lon="2.34368">
        <ele>50.79999923706</ele>
        <time>2015-12-07T19:32:03Z</time>
      </trkpt>
      <trkpt lat="48.86727" lon="2.34365">
        <ele>50.599998474121</ele>
        <time>2015-12-07T19:32:05Z</time>
      </trkpt>
      <trkpt lat="48.86746" lon="2.34356">
        <ele>50.400001525879</ele>
        <time>2015-12-07T19:32:10Z</time>
      </trkpt>
      <trkpt lat="48.86764" lon="2.34351">
        <ele>50</ele>
        <time>2015-12-07T19:32:14Z</time>
      </trkpt>
      <trkpt lat="48.8677" lon="2.3435">
        <ele>49.79999923706</ele>
        <time>2015-12-07T19:32:15Z</time>
      </trkpt>
      <trkpt lat="48.86791" lon="2.34342">
        <ele>49.20000076294</ele>
        <time>2015-12-07T19:32:19Z</time>
      </trkpt>
      <trkpt lat="48.86811" lon="2.34332">
        <ele>49.400001525879</ele>
        <time>2015-12-07T19:32:23Z</time>
      </trkpt>
      <trkpt lat="48.86829" lon="2.34322">
        <ele>49.599998474121</ele>
        <time>2015-12-07T19:32:27Z</time>
      </trkpt>
      <trkpt lat="48.86848" lon="2.34313">
        <ele>49.20000076294</ele>
        <time>2015-12-07T19:32:31Z</time>
      </trkpt>
      <trkpt lat="48.86855" lon="2.34311">
        <ele>49</ele>
        <time>2015-12-07T19:32:33Z</time>
      </trkpt>
      <trkpt lat="48.86874" lon="2.343">
        <ele>48.79999923706</ele>
        <time>2015-12-07T19:32:38Z</time>
      </trkpt>
      <trkpt lat="48.86895" lon="2.34292">
        <ele>48.599998474121</ele>
        <time>2015-12-07T19:32:42Z</time>
      </trkpt>
      <trkpt lat="48.86914" lon="2.34288">
        <ele>48</ele>
        <time>2015-12-07T19:32:46Z</time>
      </trkpt>
      <trkpt lat="48.86933" lon="2.34278">
        <ele>47.599998474121</ele>
        <time>2015-12-07T19:32:50Z</time>
      </trkpt>
      <trkpt lat="48.86952" lon="2.34273">
        <ele>47.400001525879</ele>
        <time>2015-12-07T19:32:54Z</time>
      </trkpt>
      <trkpt lat="48.86971" lon="2.3427">
        <ele>47.20000076294</ele>
        <time>2015-12-07T19:32:58Z</time>
      </trkpt>
      <trkpt lat="48.86991" lon="2.34259">
        <ele>47.20000076294</ele>
        <time>2015-12-07T19:33:02Z</time>
      </trkpt>
      <trkpt lat="48.86997" lon="2.34257">
        <ele>47.20000076294</ele>
        <time>2015-12-07T19:33:03Z</time>
      </trkpt>
      <trkpt lat="48.87015" lon="2.34258">
        <ele>47.20000076294</ele>
        <time>2015-12-07T19:33:07Z</time>
      </trkpt>
      <trkpt lat="48.87022" lon="2.34259">
        <ele>47.20000076294</ele>
        <time>2015-12-07T19:33:09Z</time>
      </trkpt>
      <trkpt lat="48.87039" lon="2.34264">
        <ele>47.20000076294</ele>
        <time>2015-12-07T19:33:13Z</time>
      </trkpt>
      <trkpt lat="48.8706" lon="2.34275">
        <ele>47.400001525879</ele>
        <time>2015-12-07T19:33:18Z</time>
      </trkpt>
      <trkpt lat="48.87079" lon="2.34281">
        <ele>47.599998474121</ele>
        <time>2015-12-07T19:33:23Z</time>
      </trkpt>
      <trkpt lat="48.87099" lon="2.34286">
        <ele>48</ele>
        <time>2015-12-07T19:33:29Z</time>
      </trkpt>
      <trkpt lat="48.87102" lon="2.34288">
        <ele>48</ele>
        <time>2015-12-07T19:33:30Z</time>
      </trkpt>
      <trkpt lat="48.87123" lon="2.3429">
        <ele>47.79999923706</ele>
        <time>2015-12-07T19:33:34Z</time>
      </trkpt>
      <trkpt lat="48.87126" lon="2.34293">
        <ele>47.79999923706</ele>
        <time>2015-12-07T19:33:36Z</time>
      </trkpt>
      <trkpt lat="48.87141" lon="2.34298">
        <ele>47.599998474121</ele>
        <time>2015-12-07T19:33:42Z</time>
      </trkpt>
      <trkpt lat="48.87147" lon="2.34301">
        <ele>47.599998474121</ele>
        <time>2015-12-07T19:33:44Z</time>
      </trkpt>
      <trkpt lat="48.87168" lon="2.34307">
        <ele>47.400001525879</ele>
        <time>2015-12-07T19:33:49Z</time>
      </trkpt>
      <trkpt lat="48.87189" lon="2.34311">
        <ele>47.400001525879</ele>
        <time>2015-12-07T19:33:54Z</time>
      </trkpt>
      <trkpt lat="48.87207" lon="2.34312">
        <ele>47.20000076294</ele>
        <time>2015-12-07T19:33:58Z</time>
      </trkpt>
      <trkpt lat="48.87229" lon="2.34308">
        <ele>47</ele>
        <time>2015-12-07T19:34:03Z</time>
      </trkpt>
      <trkpt lat="48.87251" lon="2.34308">
        <ele>46.79999923706</ele>
        <time>2015-12-07T19:34:08Z</time>
      </trkpt>
      <trkpt lat="48.87269" lon="2.34304">
        <ele>46.599998474121</ele>
        <time>2015-12-07T19:34:15Z</time>
      </trkpt>
      <trkpt lat="48.87289" lon="2.34296">
        <ele>46.79999923706</ele>
        <time>2015-12-07T19:34:21Z</time>
      </trkpt>
      <trkpt lat="48.8731" lon="2.3429">
        <ele>47</ele>
        <time>2015-12-07T19:34:27Z</time>
      </trkpt>
      <trkpt lat="48.87329" lon="2.3428">
        <ele>47</ele>
        <time>2015-12-07T19:34:30Z</time>
      </trkpt>
      <trkpt lat="48.87349" lon="2.34267">
        <ele>46.79999923706</ele>
        <time>2015-12-07T19:34:33Z</time>
      </trkpt>
      <trkpt lat="48.87367" lon="2.34254">
        <ele>46.79999923706</ele>
        <time>2015-12-07T19:34:37Z</time>
      </trkpt>
      <trkpt lat="48.87391" lon="2.34242">
        <ele>46.20000076294</ele>
        <time>2015-12-07T19:34:41Z</time>
      </trkpt>
      <trkpt lat="48.87399" lon="2.34233">
        <ele>46</ele>
        <time>2015-12-07T19:34:44Z</time>
      </trkpt>
      <trkpt lat="48.87414" lon="2.34226">
        <ele>45.599998474121</ele>
        <time>2015-12-07T19:34:53Z</time>
      </trkpt>
      <trkpt lat="48.87418" lon="2.34233">
        <ele>45.599998474121</ele>
        <time>2015-12-07T19:34:56Z</time>
      </trkpt>
      <trkpt lat="48.87431" lon="2.34251">
        <ele>45.20000076294</ele>
        <time>2015-12-07T19:35:02Z</time>
      </trkpt>
      <trkpt lat="48.87448" lon="2.34262">
        <ele>44.79999923706</ele>
        <time>2015-12-07T19:35:06Z</time>
      </trkpt>
      <trkpt lat="48.87466" lon="2.34274">
        <ele>44.599998474121</ele>
        <time>2015-12-07T19:35:10Z</time>
      </trkpt>
      <trkpt lat="48.87483" lon="2.34294">
        <ele>44.400001525879</ele>
        <time>2015-12-07T19:35:15Z</time>
      </trkpt>
      <trkpt lat="48.87502" lon="2.34309">
        <ele>44.20000076294</ele>
        <time>2015-12-07T19:35:19Z</time>
      </trkpt>
      <trkpt lat="48.8752" lon="2.34327">
        <ele>44</ele>
        <time>2015-12-07T19:35:24Z</time>
      </trkpt>
      <trkpt lat="48.87539" lon="2.34342">
        <ele>44.400001525879</ele>
        <time>2015-12-07T19:35:30Z</time>
      </trkpt>
      <trkpt lat="48.87545" lon="2.3435">
        <ele>44.599998474121</ele>
        <time>2015-12-07T19:35:31Z</time>
      </trkpt>
      <trkpt lat="48.87563" lon="2.3436">
        <ele>45</ele>
        <time>2015-12-07T19:35:34Z</time>
      </trkpt>
      <trkpt lat="48.87567" lon="2.34365">
        <ele>45.20000076294</ele>
        <time>2015-12-07T19:35:35Z</time>
      </trkpt>
      <trkpt lat="48.87582" lon="2.34379">
        <ele>45.599998474121</ele>
        <time>2015-12-07T19:35:39Z</time>
      </trkpt>
      <trkpt lat="48.87586" lon="2.34395">
        <ele>45.599998474121</ele>
        <time>2015-12-07T19:35:43Z</time>
      </trkpt>
      <trkpt lat="48.87595" lon="2.34412">
        <ele>45.79999923706</ele>
        <time>2015-12-07T19:35:47Z</time>
      </trkpt>
      <trkpt lat="48.87614" lon="2.34421">
        <ele>46.400001525879</ele>
        <time>2015-12-07T19:35:52Z</time>
      </trkpt>
      <trkpt lat="48.87627" lon="2.34423">
        <ele>46.79999923706</ele>
        <time>2015-12-07T19:35:56Z</time>
      </trkpt>
      <trkpt lat="48.87629" lon="2.34423">
        <ele>46.79999923706</ele>
        <time>2015-12-07T19:35:57Z</time>
      </trkpt>
      <trkpt lat="48.87648" lon="2.34428">
        <ele>47.400001525879</ele>
        <time>2015-12-07T19:36:05Z</time>
      </trkpt>
      <trkpt lat="48.87669" lon="2.34434">
        <ele>48</ele>
        <time>2015-12-07T19:36:12Z</time>
      </trkpt>
      <trkpt lat="48.87691" lon="2.3444">
        <ele>48.599998474121</ele>
        <time>2015-12-07T19:36:17Z</time>
      </trkpt>
      <trkpt lat="48.87711" lon="2.34445">
        <ele>49.20000076294</ele>
        <time>2015-12-07T19:36:21Z</time>
      </trkpt>
      <trkpt lat="48.87731" lon="2.34449">
        <ele>50.20000076294</ele>
        <time>2015-12-07T19:36:24Z</time>
      </trkpt>
      <trkpt lat="48.87751" lon="2.3445">
        <ele>51.599998474121</ele>
        <time>2015-12-07T19:36:27Z</time>
      </trkpt>
      <trkpt lat="48.8777" lon="2.34456">
        <ele>52.79999923706</ele>
        <time>2015-12-07T19:36:31Z</time>
      </trkpt>
      <trkpt lat="48.87788" lon="2.34471">
        <ele>53.599998474121</ele>
        <time>2015-12-07T19:36:39Z</time>
      </trkpt>
      <trkpt lat="48.87804" lon="2.34484">
        <ele>54.20000076294</ele>
        <time>2015-12-07T19:36:47Z</time>
      </trkpt>
      <trkpt lat="48.87814" lon="2.34494">
        <ele>54.599998474121</ele>
        <time>2015-12-07T19:36:51Z</time>
      </trkpt>
      <trkpt lat="48.8782" lon="2.34499">
        <ele>54.79999923706</ele>
        <time>2015-12-07T19:36:55Z</time>
      </trkpt>
      <trkpt lat="48.87827" lon="2.34506">
        <ele>55.400001525879</ele>
        <time>2015-12-07T19:37:07Z</time>
      </trkpt>
      <trkpt lat="48.87828" lon="2.34506">
        <ele>55.400001525879</ele>
        <time>2015-12-07T19:37:22Z</time>
      </trkpt>
      <trkpt lat="48.87835" lon="2.34514">
        <ele>56.20000076294</ele>
        <time>2015-12-07T19:37:55Z</time>
      </trkpt>
      <trkpt lat="48.87841" lon="2.34521">
        <ele>56.599998474121</ele>
        <time>2015-12-07T19:38:02Z</time>
      </trkpt>
      <trkpt lat="48.87843" lon="2.34525">
        <ele>56.79999923706</ele>
        <time>2015-12-07T19:38:05Z</time>
      </trkpt>
      <trkpt lat="48.87861" lon="2.34519">
        <ele>57.79999923706</ele>
        <time>2015-12-07T19:38:12Z</time>
      </trkpt>
      <trkpt lat="48.87864" lon="2.3452">
        <ele>58</ele>
        <time>2015-12-07T19:38:13Z</time>
      </trkpt>
      <trkpt lat="48.8788" lon="2.34534">
        <ele>59</ele>
        <time>2015-12-07T19:38:22Z</time>
      </trkpt>
      <trkpt lat="48.87898" lon="2.34547">
        <ele>60.20000076294</ele>
        <time>2015-12-07T19:38:29Z</time>
      </trkpt>
      <trkpt lat="48.87921" lon="2.3456">
        <ele>61.599998474121</ele>
        <time>2015-12-07T19:38:35Z</time>
      </trkpt>
      <trkpt lat="48.87931" lon="2.34561">
        <ele>62.400001525879</ele>
        <time>2015-12-07T19:38:37Z</time>
      </trkpt>
      <trkpt lat="48.87947" lon="2.34553">
        <ele>63.400001525879</ele>
        <time>2015-12-07T19:38:41Z</time>
      </trkpt>
      <trkpt lat="48.87959" lon="2.34537">
        <ele>64.199996948242</ele>
        <time>2015-12-07T19:38:46Z</time>
      </trkpt>
      <trkpt lat="48.87977" lon="2.34523">
        <ele>65.199996948242</ele>
        <time>2015-12-07T19:38:51Z</time>
      </trkpt>
      <trkpt lat="48.87989" lon="2.34507">
        <ele>66</ele>
        <time>2015-12-07T19:38:56Z</time>
      </trkpt>
      <trkpt lat="48.87995" lon="2.34492">
        <ele>66.400001525879</ele>
        <time>2015-12-07T19:38:59Z</time>
      </trkpt>
      <trkpt lat="48.88009" lon="2.34468">
        <ele>67.400001525879</ele>
        <time>2015-12-07T19:39:04Z</time>
      </trkpt>
      <trkpt lat="48.88018" lon="2.34441">
        <ele>68.400001525879</ele>
        <time>2015-12-07T19:39:10Z</time>
      </trkpt>
      <trkpt lat="48.88025" lon="2.3441">
        <ele>69</ele>
        <time>2015-12-07T19:39:15Z</time>
      </trkpt>
      <trkpt lat="48.88018" lon="2.3438">
        <ele>68.400001525879</ele>
        <time>2015-12-07T19:39:20Z</time>
      </trkpt>
      <trkpt lat="48.8802" lon="2.34348">
        <ele>68</ele>
        <time>2015-12-07T19:39:25Z</time>
      </trkpt>
      <trkpt lat="48.88027" lon="2.34321">
        <ele>68</ele>
        <time>2015-12-07T19:39:29Z</time>
      </trkpt>
      <trkpt lat="48.88029" lon="2.34315">
        <ele>68</ele>
        <time>2015-12-07T19:39:30Z</time>
      </trkpt>
      <trkpt lat="48.88034" lon="2.34296">
        <ele>68.199996948242</ele>
        <time>2015-12-07T19:39:33Z</time>
      </trkpt>
      <trkpt lat="48.88037" lon="2.34264">
        <ele>67.800003051758</ele>
        <time>2015-12-07T19:39:38Z</time>
      </trkpt>
      <trkpt lat="48.88038" lon="2.34258">
        <ele>67.800003051758</ele>
        <time>2015-12-07T19:39:39Z</time>
      </trkpt>
      <trkpt lat="48.88041" lon="2.34232">
        <ele>68</ele>
        <time>2015-12-07T19:39:42Z</time>
      </trkpt>
      <trkpt lat="48.88045" lon="2.34202">
        <ele>69.199996948242</ele>
        <time>2015-12-07T19:39:46Z</time>
      </trkpt>
      <trkpt lat="48.88047" lon="2.34171">
        <ele>70.199996948242</ele>
        <time>2015-12-07T19:39:50Z</time>
      </trkpt>
      <trkpt lat="48.88053" lon="2.3414">
        <ele>70</ele>
        <time>2015-12-07T19:39:54Z</time>
      </trkpt>
      <trkpt lat="48.88058" lon="2.34107">
        <ele>70</ele>
        <time>2015-12-07T19:39:58Z</time>
      </trkpt>
      <trkpt lat="48.88051" lon="2.34077">
        <ele>70</ele>
        <time>2015-12-07T19:40:01Z</time>
      </trkpt>
      <trkpt lat="48.88052" lon="2.34045">
        <ele>69.199996948242</ele>
        <time>2015-12-07T19:40:05Z</time>
      </trkpt>
      <trkpt lat="48.88057" lon="2.34012">
        <ele>68.599998474121</ele>
        <time>2015-12-07T19:40:10Z</time>
      </trkpt>
      <trkpt lat="48.88063" lon="2.33985">
        <ele>68.199996948242</ele>
        <time>2015-12-07T19:40:14Z</time>
      </trkpt>
      <trkpt lat="48.88073" lon="2.33957">
        <ele>68.199996948242</ele>
        <time>2015-12-07T19:40:18Z</time>
      </trkpt>
      <trkpt lat="48.88081" lon="2.33933">
        <ele>67.800003051758</ele>
        <time>2015-12-07T19:40:22Z</time>
      </trkpt>
      <trkpt lat="48.88093" lon="2.33908">
        <ele>67.599998474121</ele>
        <time>2015-12-07T19:40:26Z</time>
      </trkpt>
      <trkpt lat="48.88106" lon="2.33883">
        <ele>68.400001525879</ele>
        <time>2015-12-07T19:40:30Z</time>
      </trkpt>
      <trkpt lat="48.88117" lon="2.33856">
        <ele>69</ele>
        <time>2015-12-07T19:40:35Z</time>
      </trkpt>
      <trkpt lat="48.88115" lon="2.3385">
        <ele>69</ele>
        <time>2015-12-07T19:40:36Z</time>
      </trkpt>
      <trkpt lat="48.88119" lon="2.33832">
        <ele>69</ele>
        <time>2015-12-07T19:40:39Z</time>
      </trkpt>
      <trkpt lat="48.88113" lon="2.33807">
        <ele>68.800003051758</ele>
        <time>2015-12-07T19:40:44Z</time>
      </trkpt>
      <trkpt lat="48.88098" lon="2.3379">
        <ele>68.199996948242</ele>
        <time>2015-12-07T19:40:47Z</time>
      </trkpt>
      <trkpt lat="48.88095" lon="2.3376">
        <ele>67.800003051758</ele>
        <time>2015-12-07T19:40:54Z</time>
      </trkpt>
      <trkpt lat="48.88097" lon="2.33755">
        <ele>67.800003051758</ele>
        <time>2015-12-07T19:40:55Z</time>
      </trkpt>
      <trkpt lat="48.88106" lon="2.33729">
        <ele>67.599998474121</ele>
        <time>2015-12-07T19:41:00Z</time>
      </trkpt>
      <trkpt lat="48.88115" lon="2.33706">
        <ele>67.199996948242</ele>
        <time>2015-12-07T19:41:04Z</time>
      </trkpt>
      <trkpt lat="48.88123" lon="2.3369">
        <ele>66.800003051758</ele>
        <time>2015-12-07T19:41:07Z</time>
      </trkpt>
      <trkpt lat="48.88127" lon="2.3367">
        <ele>66.400001525879</ele>
        <time>2015-12-07T19:41:12Z</time>
      </trkpt>
      <trkpt lat="48.88124" lon="2.3365">
        <ele>65.800003051758</ele>
        <time>2015-12-07T19:41:17Z</time>
      </trkpt>
      <trkpt lat="48.88128" lon="2.33622">
        <ele>65.199996948242</ele>
        <time>2015-12-07T19:41:22Z</time>
      </trkpt>
      <trkpt lat="48.88137" lon="2.33594">
        <ele>65.400001525879</ele>
        <time>2015-12-07T19:41:27Z</time>
      </trkpt>
      <trkpt lat="48.88146" lon="2.33564">
        <ele>66</ele>
        <time>2015-12-07T19:41:32Z</time>
      </trkpt>
      <trkpt lat="48.88158" lon="2.33536">
        <ele>66.400001525879</ele>
        <time>2015-12-07T19:41:36Z</time>
      </trkpt>
      <trkpt lat="48.88171" lon="2.33509">
        <ele>67.199996948242</ele>
        <time>2015-12-07T19:41:40Z</time>
      </trkpt>
      <trkpt lat="48.88178" lon="2.33488">
        <ele>67.400001525879</ele>
        <time>2015-12-07T19:41:43Z</time>
      </trkpt>
      <trkpt lat="48.88188" lon="2.33459">
        <ele>67</ele>
        <time>2015-12-07T19:41:47Z</time>
      </trkpt>
      <trkpt lat="48.88191" lon="2.33439">
        <ele>66.599998474121</ele>
        <time>2015-12-07T19:41:50Z</time>
      </trkpt>
      <trkpt lat="48.88193" lon="2.33423">
        <ele>66.400001525879</ele>
        <time>2015-12-07T19:41:53Z</time>
      </trkpt>
      <trkpt lat="48.88202" lon="2.33406">
        <ele>66.800003051758</ele>
        <time>2015-12-07T19:41:59Z</time>
      </trkpt>
      <trkpt lat="48.88204" lon="2.334">
        <ele>66.800003051758</ele>
        <time>2015-12-07T19:42:01Z</time>
      </trkpt>
      <trkpt lat="48.88201" lon="2.33381">
        <ele>66.599998474121</ele>
        <time>2015-12-07T19:42:04Z</time>
      </trkpt>
      <trkpt lat="48.88217" lon="2.33364">
        <ele>67.599998474121</ele>
        <time>2015-12-07T19:42:08Z</time>
      </trkpt>
      <trkpt lat="48.88233" lon="2.33351">
        <ele>68.400001525879</ele>
        <time>2015-12-07T19:42:11Z</time>
      </trkpt>
      <trkpt lat="48.88249" lon="2.33335">
        <ele>69</ele>
        <time>2015-12-07T19:42:14Z</time>
      </trkpt>
      <trkpt lat="48.88267" lon="2.33321">
        <ele>69.599998474121</ele>
        <time>2015-12-07T19:42:17Z</time>
      </trkpt>
      <trkpt lat="48.88287" lon="2.33308">
        <ele>70.400001525879</ele>
        <time>2015-12-07T19:42:20Z</time>
      </trkpt>
      <trkpt lat="48.88308" lon="2.33294">
        <ele>70.800003051758</ele>
        <time>2015-12-07T19:42:23Z</time>
      </trkpt>
      <trkpt lat="48.88327" lon="2.33281">
        <ele>71.199996948242</ele>
        <time>2015-12-07T19:42:26Z</time>
      </trkpt>
      <trkpt lat="48.88345" lon="2.3327">
        <ele>71.599998474121</ele>
        <time>2015-12-07T19:42:29Z</time>
      </trkpt>
      <trkpt lat="48.88359" lon="2.33255">
        <ele>72</ele>
        <time>2015-12-07T19:42:39Z</time>
      </trkpt>
      <trkpt lat="48.88373" lon="2.33265">
        <ele>72.199996948242</ele>
        <time>2015-12-07T19:43:09Z</time>
      </trkpt>
      <trkpt lat="48.88377" lon="2.33265">
        <ele>72.199996948242</ele>
        <time>2015-12-07T19:43:12Z</time>
      </trkpt>
      <trkpt lat="48.88388" lon="2.33246">
        <ele>71.599998474121</ele>
        <time>2015-12-07T19:43:25Z</time>
      </trkpt>
      <trkpt lat="48.88394" lon="2.3322">
        <ele>71.199996948242</ele>
        <time>2015-12-07T19:43:31Z</time>
      </trkpt>
      <trkpt lat="48.88401" lon="2.33191">
        <ele>71</ele>
        <time>2015-12-07T19:43:36Z</time>
      </trkpt>
      <trkpt lat="48.88406" lon="2.33163">
        <ele>71</ele>
        <time>2015-12-07T19:43:40Z</time>
      </trkpt>
      <trkpt lat="48.88412" lon="2.33136">
        <ele>71.400001525879</ele>
        <time>2015-12-07T19:43:44Z</time>
      </trkpt>
      <trkpt lat="48.88418" lon="2.33104">
        <ele>72.199996948242</ele>
        <time>2015-12-07T19:43:48Z</time>
      </trkpt>
      <trkpt lat="48.88425" lon="2.33073">
        <ele>72.800003051758</ele>
        <time>2015-12-07T19:43:52Z</time>
      </trkpt>
      <trkpt lat="48.88434" lon="2.33043">
        <ele>72.800003051758</ele>
        <time>2015-12-07T19:43:56Z</time>
      </trkpt>
      <trkpt lat="48.88443" lon="2.33023">
        <ele>73</ele>
        <time>2015-12-07T19:43:59Z</time>
      </trkpt>
      <trkpt lat="48.88452" lon="2.33001">
        <ele>73</ele>
        <time>2015-12-07T19:44:04Z</time>
      </trkpt>
      <trkpt lat="48.88454" lon="2.32995">
        <ele>72.800003051758</ele>
        <time>2015-12-07T19:44:06Z</time>
      </trkpt>
      <trkpt lat="48.8846" lon="2.32982">
        <ele>72.400001525879</ele>
        <time>2015-12-07T19:44:12Z</time>
      </trkpt>
      <trkpt lat="48.88461" lon="2.32979">
        <ele>72.400001525879</ele>
        <time>2015-12-07T19:44:13Z</time>
      </trkpt>
      <trkpt lat="48.88473" lon="2.32957">
        <ele>71.599998474121</ele>
        <time>2015-12-07T19:44:20Z</time>
      </trkpt>
      <trkpt lat="48.8849" lon="2.32941">
        <ele>72.199996948242</ele>
        <time>2015-12-07T19:44:26Z</time>
      </trkpt>
      <trkpt lat="48.88508" lon="2.32932">
        <ele>73</ele>
        <time>2015-12-07T19:44:32Z</time>
      </trkpt>
      <trkpt lat="48.88527" lon="2.32926">
        <ele>73.800003051758</ele>
        <time>2015-12-07T19:44:37Z</time>
      </trkpt>
      <trkpt lat="48.88546" lon="2.32914">
        <ele>74.599998474121</ele>
        <time>2015-12-07T19:44:41Z</time>
      </trkpt>
      <trkpt lat="48.88565" lon="2.329">
        <ele>74.599998474121</ele>
        <time>2015-12-07T19:44:45Z</time>
      </trkpt>
      <trkpt lat="48.88577" lon="2.32889">
        <ele>74.800003051758</ele>
        <time>2015-12-07T19:44:48Z</time>
      </trkpt>
      <trkpt lat="48.88591" lon="2.32878">
        <ele>75.400001525879</ele>
        <time>2015-12-07T19:44:53Z</time>
      </trkpt>
      <trkpt lat="48.88597" lon="2.32874">
        <ele>75.800003051758</ele>
        <time>2015-12-07T19:44:56Z</time>
      </trkpt>
      <trkpt lat="48.88601" lon="2.32869">
        <ele>76.199996948242</ele>
        <time>2015-12-07T19:45:00Z</time>
      </trkpt>
      <trkpt lat="48.88615" lon="2.32845">
        <ele>76.800003051758</ele>
        <time>2015-12-07T19:45:13Z</time>
      </trkpt>
      <trkpt lat="48.88631" lon="2.32827">
        <ele>77.199996948242</ele>
        <time>2015-12-07T19:45:18Z</time>
      </trkpt>
      <trkpt lat="48.88649" lon="2.32807">
        <ele>77</ele>
        <time>2015-12-07T19:45:23Z</time>
      </trkpt>
      <trkpt lat="48.88665" lon="2.32792">
        <ele>77.199996948242</ele>
        <time>2015-12-07T19:45:27Z</time>
      </trkpt>
      <trkpt lat="48.88679" lon="2.32777">
        <ele>77.599998474121</ele>
        <time>2015-12-07T19:45:35Z</time>
      </trkpt>
      <trkpt lat="48.88694" lon="2.32799">
        <ele>77.800003051758</ele>
        <time>2015-12-07T19:45:41Z</time>
      </trkpt>
      <trkpt lat="48.88705" lon="2.32822">
        <ele>77.199996948242</ele>
        <time>2015-12-07T19:45:46Z</time>
      </trkpt>
      <trkpt lat="48.88716" lon="2.32844">
        <ele>76</ele>
        <time>2015-12-07T19:45:50Z</time>
      </trkpt>
      <trkpt lat="48.8873" lon="2.32859">
        <ele>74.400001525879</ele>
        <time>2015-12-07T19:45:54Z</time>
      </trkpt>
      <trkpt lat="48.88751" lon="2.3285">
        <ele>73.800003051758</ele>
        <time>2015-12-07T19:45:58Z</time>
      </trkpt>
      <trkpt lat="48.88763" lon="2.32838">
        <ele>74</ele>
        <time>2015-12-07T19:46:02Z</time>
      </trkpt>
      <trkpt lat="48.8878" lon="2.32822">
        <ele>73.400001525879</ele>
        <time>2015-12-07T19:46:07Z</time>
      </trkpt>
      <trkpt lat="48.88784" lon="2.32809">
        <ele>73</ele>
        <time>2015-12-07T19:46:10Z</time>
      </trkpt>
      <trkpt lat="48.88801" lon="2.32794">
        <ele>71.400001525879</ele>
        <time>2015-12-07T19:46:16Z</time>
      </trkpt>
      <trkpt lat="48.88819" lon="2.32776">
        <ele>70.199996948242</ele>
        <time>2015-12-07T19:46:20Z</time>
      </trkpt>
      <trkpt lat="48.88838" lon="2.32759">
        <ele>69.199996948242</ele>
        <time>2015-12-07T19:46:25Z</time>
      </trkpt>
      <trkpt lat="48.88844" lon="2.32756">
        <ele>68.800003051758</ele>
        <time>2015-12-07T19:46:27Z</time>
      </trkpt>
      <trkpt lat="48.88861" lon="2.32774">
        <ele>67</ele>
        <time>2015-12-07T19:46:32Z</time>
      </trkpt>
      <trkpt lat="48.88869" lon="2.3278">
        <ele>66.599998474121</ele>
        <time>2015-12-07T19:46:34Z</time>
      </trkpt>
      <trkpt lat="48.88878" lon="2.32792">
        <ele>65.800003051758</ele>
        <time>2015-12-07T19:46:38Z</time>
      </trkpt>
      <trkpt lat="48.88891" lon="2.32804">
        <ele>65.199996948242</ele>
        <time>2015-12-07T19:47:12Z</time>
      </trkpt>
      <trkpt lat="48.88908" lon="2.3282">
        <ele>64.199996948242</ele>
        <time>2015-12-07T19:47:17Z</time>
      </trkpt>
      <trkpt lat="48.88927" lon="2.32837">
        <ele>63.20000076294</ele>
        <time>2015-12-07T19:47:21Z</time>
      </trkpt>
      <trkpt lat="48.88948" lon="2.32854">
        <ele>62.79999923706</ele>
        <time>2015-12-07T19:47:25Z</time>
      </trkpt>
      <trkpt lat="48.8897" lon="2.32869">
        <ele>62.79999923706</ele>
        <time>2015-12-07T19:47:29Z</time>
      </trkpt>
      <trkpt lat="48.88974" lon="2.32874">
        <ele>62.79999923706</ele>
        <time>2015-12-07T19:47:30Z</time>
      </trkpt>
      <trkpt lat="48.88987" lon="2.32895">
        <ele>62.79999923706</ele>
        <time>2015-12-07T19:47:34Z</time>
      </trkpt>
      <trkpt lat="48.89" lon="2.32916">
        <ele>62.79999923706</ele>
        <time>2015-12-07T19:47:40Z</time>
      </trkpt>
      <trkpt lat="48.89002" lon="2.32919">
        <ele>62.79999923706</ele>
        <time>2015-12-07T19:47:42Z</time>
      </trkpt>
      <trkpt lat="48.89012" lon="2.32918">
        <ele>62.79999923706</ele>
        <time>2015-12-07T19:49:00Z</time>
      </trkpt>
      <trkpt lat="48.89015" lon="2.32921">
        <ele>62.79999923706</ele>
        <time>2015-12-07T19:49:46Z</time>
      </trkpt>
      <trkpt lat="48.89018" lon="2.32933">
        <ele>63</ele>
        <time>2015-12-07T19:50:30Z</time>
      </trkpt>
      <trkpt lat="48.8902" lon="2.3294">
        <ele>63</ele>
        <time>2015-12-07T19:50:33Z</time>
      </trkpt>
      <trkpt lat="48.89026" lon="2.32969">
        <ele>63</ele>
        <time>2015-12-07T19:50:40Z</time>
      </trkpt>
      <trkpt lat="48.89036" lon="2.32998">
        <ele>63.400001525879</ele>
        <time>2015-12-07T19:50:45Z</time>
      </trkpt>
      <trkpt lat="48.89038" lon="2.33004">
        <ele>63.599998474121</ele>
        <time>2015-12-07T19:50:46Z</time>
      </trkpt>
      <trkpt lat="48.89049" lon="2.33028">
        <ele>64</ele>
        <time>2015-12-07T19:50:50Z</time>
      </trkpt>
      <trkpt lat="48.89058" lon="2.33056">
        <ele>64.800003051758</ele>
        <time>2015-12-07T19:50:54Z</time>
      </trkpt>
      <trkpt lat="48.89068" lon="2.3308">
        <ele>65.599998474121</ele>
        <time>2015-12-07T19:50:58Z</time>
      </trkpt>
      <trkpt lat="48.89075" lon="2.33107">
        <ele>66.599998474121</ele>
        <time>2015-12-07T19:51:02Z</time>
      </trkpt>
      <trkpt lat="48.89086" lon="2.33135">
        <ele>67.800003051758</ele>
        <time>2015-12-07T19:51:07Z</time>
      </trkpt>
      <trkpt lat="48.89094" lon="2.33151">
        <ele>68.400001525879</ele>
        <time>2015-12-07T19:51:10Z</time>
      </trkpt>
      <trkpt lat="48.89106" lon="2.33172">
        <ele>69.199996948242</ele>
        <time>2015-12-07T19:51:14Z</time>
      </trkpt>
      <trkpt lat="48.8912" lon="2.33193">
        <ele>69.599998474121</ele>
        <time>2015-12-07T19:51:18Z</time>
      </trkpt>
      <trkpt lat="48.89132" lon="2.33216">
        <ele>70.199996948242</ele>
        <time>2015-12-07T19:51:22Z</time>
      </trkpt>
      <trkpt lat="48.89134" lon="2.33221">
        <ele>70.400001525879</ele>
        <time>2015-12-07T19:51:23Z</time>
      </trkpt>
      <trkpt lat="48.89139" lon="2.33234">
        <ele>70.599998474121</ele>
        <time>2015-12-07T19:51:25Z</time>
      </trkpt>
      <trkpt lat="48.8915" lon="2.33259">
        <ele>71.199996948242</ele>
        <time>2015-12-07T19:51:29Z</time>
      </trkpt>
      <trkpt lat="48.89159" lon="2.33278">
        <ele>71.800003051758</ele>
        <time>2015-12-07T19:51:32Z</time>
      </trkpt>
      <trkpt lat="48.89171" lon="2.33302">
        <ele>72.400001525879</ele>
        <time>2015-12-07T19:51:36Z</time>
      </trkpt>
      <trkpt lat="48.89182" lon="2.33325">
        <ele>72.800003051758</ele>
        <time>2015-12-07T19:51:40Z</time>
      </trkpt>
      <trkpt lat="48.89183" lon="2.33331">
        <ele>73</ele>
        <time>2015-12-07T19:51:41Z</time>
      </trkpt>
      <trkpt lat="48.89188" lon="2.33341">
        <ele>73.199996948242</ele>
        <time>2015-12-07T19:51:43Z</time>
      </trkpt>
      <trkpt lat="48.89203" lon="2.33355">
        <ele>73.199996948242</ele>
        <time>2015-12-07T19:51:49Z</time>
      </trkpt>
      <trkpt lat="48.89206" lon="2.33356">
        <ele>73.199996948242</ele>
        <time>2015-12-07T19:51:50Z</time>
      </trkpt>
      <trkpt lat="48.89221" lon="2.33356">
        <ele>72.800003051758</ele>
        <time>2015-12-07T19:51:54Z</time>
      </trkpt>
      <trkpt lat="48.89234" lon="2.33359">
        <ele>72.599998474121</ele>
        <time>2015-12-07T19:51:58Z</time>
      </trkpt>
      <trkpt lat="48.89256" lon="2.33366">
        <ele>72.199996948242</ele>
        <time>2015-12-07T19:52:03Z</time>
      </trkpt>
      <trkpt lat="48.89274" lon="2.33366">
        <ele>71.800003051758</ele>
        <time>2015-12-07T19:52:07Z</time>
      </trkpt>
      <trkpt lat="48.89288" lon="2.33367">
        <ele>71.199996948242</ele>
        <time>2015-12-07T19:52:11Z</time>
      </trkpt>
      <trkpt lat="48.89305" lon="2.33347">
        <ele>70.199996948242</ele>
        <time>2015-12-07T19:52:16Z</time>
      </trkpt>
      <trkpt lat="48.89321" lon="2.33325">
        <ele>69.800003051758</ele>
        <time>2015-12-07T19:52:21Z</time>
      </trkpt>
      <trkpt lat="48.89336" lon="2.33308">
        <ele>69.199996948242</ele>
        <time>2015-12-07T19:52:26Z</time>
      </trkpt>
      <trkpt lat="48.89343" lon="2.33301">
        <ele>68.599998474121</ele>
        <time>2015-12-07T19:52:28Z</time>
      </trkpt>
      <trkpt lat="48.8936" lon="2.33282">
        <ele>67.199996948242</ele>
        <time>2015-12-07T19:52:33Z</time>
      </trkpt>
      <trkpt lat="48.89376" lon="2.33266">
        <ele>66.800003051758</ele>
        <time>2015-12-07T19:52:38Z</time>
      </trkpt>
      <trkpt lat="48.89385" lon="2.33261">
        <ele>66.400001525879</ele>
        <time>2015-12-07T19:52:41Z</time>
      </trkpt>
      <trkpt lat="48.89405" lon="2.3327">
        <ele>66.400001525879</ele>
        <time>2015-12-07T19:52:45Z</time>
      </trkpt>
      <trkpt lat="48.89422" lon="2.33289">
        <ele>67.400001525879</ele>
        <time>2015-12-07T19:52:50Z</time>
      </trkpt>
      <trkpt lat="48.89429" lon="2.33307">
        <ele>68.599998474121</ele>
        <time>2015-12-07T19:52:53Z</time>
      </trkpt>
      <trkpt lat="48.89433" lon="2.33319">
        <ele>69.400001525879</ele>
        <time>2015-12-07T19:52:55Z</time>
      </trkpt>
      <trkpt lat="48.89441" lon="2.33346">
        <ele>69.800003051758</ele>
        <time>2015-12-07T19:52:59Z</time>
      </trkpt>
      <trkpt lat="48.89446" lon="2.33373">
        <ele>69</ele>
        <time>2015-12-07T19:53:03Z</time>
      </trkpt>
      <trkpt lat="48.89452" lon="2.33406">
        <ele>68.199996948242</ele>
        <time>2015-12-07T19:53:08Z</time>
      </trkpt>
      <trkpt lat="48.89458" lon="2.33435">
        <ele>67</ele>
        <time>2015-12-07T19:53:12Z</time>
      </trkpt>
      <trkpt lat="48.89459" lon="2.33443">
        <ele>66.800003051758</ele>
        <time>2015-12-07T19:53:13Z</time>
      </trkpt>
      <trkpt lat="48.89462" lon="2.33476">
        <ele>66.199996948242</ele>
        <time>2015-12-07T19:53:17Z</time>
      </trkpt>
      <trkpt lat="48.89468" lon="2.33509">
        <ele>65.599998474121</ele>
        <time>2015-12-07T19:53:21Z</time>
      </trkpt>
      <trkpt lat="48.89475" lon="2.33536">
        <ele>65.400001525879</ele>
        <time>2015-12-07T19:53:25Z</time>
      </trkpt>
      <trkpt lat="48.89476" lon="2.33541">
        <ele>65.400001525879</ele>
        <time>2015-12-07T19:53:26Z</time>
      </trkpt>
      <trkpt lat="48.89483" lon="2.33569">
        <ele>65</ele>
        <time>2015-12-07T19:53:32Z</time>
      </trkpt>
      <trkpt lat="48.89486" lon="2.33596">
        <ele>64.800003051758</ele>
        <time>2015-12-07T19:53:38Z</time>
      </trkpt>
      <trkpt lat="48.89487" lon="2.33601">
        <ele>64.800003051758</ele>
        <time>2015-12-07T19:53:39Z</time>
      </trkpt>
      <trkpt lat="48.8949" lon="2.33632">
        <ele>65</ele>
        <time>2015-12-07T19:53:44Z</time>
      </trkpt>
      <trkpt lat="48.89492" lon="2.33645">
        <ele>64.800003051758</ele>
        <time>2015-12-07T19:53:46Z</time>
      </trkpt>
      <trkpt lat="48.89494" lon="2.33652">
        <ele>64.800003051758</ele>
        <time>2015-12-07T19:53:47Z</time>
      </trkpt>
      <trkpt lat="48.895" lon="2.33673">
        <ele>64.400001525879</ele>
        <time>2015-12-07T19:53:50Z</time>
      </trkpt>
      <trkpt lat="48.89508" lon="2.337">
        <ele>63.79999923706</ele>
        <time>2015-12-07T19:53:54Z</time>
      </trkpt>
      <trkpt lat="48.89513" lon="2.33712">
        <ele>63.599998474121</ele>
        <time>2015-12-07T19:53:56Z</time>
      </trkpt>
      <trkpt lat="48.89514" lon="2.33741">
        <ele>63.400001525879</ele>
        <time>2015-12-07T19:54:02Z</time>
      </trkpt>
      <trkpt lat="48.8952" lon="2.33754">
        <ele>62.79999923706</ele>
        <time>2015-12-07T19:54:10Z</time>
      </trkpt>
      <trkpt lat="48.89528" lon="2.33778">
        <ele>62</ele>
        <time>2015-12-07T19:54:17Z</time>
      </trkpt>
      <trkpt lat="48.89538" lon="2.33807">
        <ele>61.20000076294</ele>
        <time>2015-12-07T19:54:23Z</time>
      </trkpt>
      <trkpt lat="48.89544" lon="2.33839">
        <ele>60</ele>
        <time>2015-12-07T19:54:28Z</time>
      </trkpt>
      <trkpt lat="48.89552" lon="2.33864">
        <ele>59.400001525879</ele>
        <time>2015-12-07T19:54:32Z</time>
      </trkpt>
      <trkpt lat="48.89557" lon="2.33891">
        <ele>59.20000076294</ele>
        <time>2015-12-07T19:54:36Z</time>
      </trkpt>
      <trkpt lat="48.89563" lon="2.33918">
        <ele>59</ele>
        <time>2015-12-07T19:54:40Z</time>
      </trkpt>
      <trkpt lat="48.89568" lon="2.33944">
        <ele>59</ele>
        <time>2015-12-07T19:54:44Z</time>
      </trkpt>
      <trkpt lat="48.89567" lon="2.33971">
        <ele>59.20000076294</ele>
        <time>2015-12-07T19:54:48Z</time>
      </trkpt>
      <trkpt lat="48.89569" lon="2.34002">
        <ele>59.79999923706</ele>
        <time>2015-12-07T19:54:52Z</time>
      </trkpt>
      <trkpt lat="48.8957" lon="2.34032">
        <ele>59.400001525879</ele>
        <time>2015-12-07T19:54:56Z</time>
      </trkpt>
      <trkpt lat="48.89571" lon="2.34046">
        <ele>59.20000076294</ele>
        <time>2015-12-07T19:54:58Z</time>
      </trkpt>
      <trkpt lat="48.89572" lon="2.34074">
        <ele>59</ele>
        <time>2015-12-07T19:55:02Z</time>
      </trkpt>
      <trkpt lat="48.89575" lon="2.34102">
        <ele>59.400001525879</ele>
        <time>2015-12-07T19:55:06Z</time>
      </trkpt>
      <trkpt lat="48.89577" lon="2.34135">
        <ele>60</ele>
        <time>2015-12-07T19:55:11Z</time>
      </trkpt>
      <trkpt lat="48.89578" lon="2.34141">
        <ele>60</ele>
        <time>2015-12-07T19:55:12Z</time>
      </trkpt>
      <trkpt lat="48.8958" lon="2.34171">
        <ele>60</ele>
        <time>2015-12-07T19:55:17Z</time>
      </trkpt>
      <trkpt lat="48.89581" lon="2.34199">
        <ele>60</ele>
        <time>2015-12-07T19:55:21Z</time>
      </trkpt>
      <trkpt lat="48.89581" lon="2.34228">
        <ele>59.79999923706</ele>
        <time>2015-12-07T19:55:25Z</time>
      </trkpt>
      <trkpt lat="48.8958" lon="2.34261">
        <ele>59.400001525879</ele>
        <time>2015-12-07T19:55:29Z</time>
      </trkpt>
      <trkpt lat="48.8958" lon="2.34277">
        <ele>59.20000076294</ele>
        <time>2015-12-07T19:55:31Z</time>
      </trkpt>
      <trkpt lat="48.89579" lon="2.34305">
        <ele>59</ele>
        <time>2015-12-07T19:55:35Z</time>
      </trkpt>
      <trkpt lat="48.8958" lon="2.34317">
        <ele>58.79999923706</ele>
        <time>2015-12-07T19:55:37Z</time>
      </trkpt>
      <trkpt lat="48.8958" lon="2.34346">
        <ele>58.79999923706</ele>
        <time>2015-12-07T19:55:42Z</time>
      </trkpt>
      <trkpt lat="48.8958" lon="2.34374">
        <ele>59.20000076294</ele>
        <time>2015-12-07T19:55:46Z</time>
      </trkpt>
      <trkpt lat="48.89579" lon="2.34394">
        <ele>59.400001525879</ele>
        <time>2015-12-07T19:55:49Z</time>
      </trkpt>
      <trkpt lat="48.89579" lon="2.34424">
        <ele>59.599998474121</ele>
        <time>2015-12-07T19:55:53Z</time>
      </trkpt>
      <trkpt lat="48.89579" lon="2.34457">
        <ele>59.599998474121</ele>
        <time>2015-12-07T19:55:57Z</time>
      </trkpt>
      <trkpt lat="48.89578" lon="2.3449">
        <ele>59.599998474121</ele>
        <time>2015-12-07T19:56:01Z</time>
      </trkpt>
      <trkpt lat="48.89579" lon="2.34521">
        <ele>59.400001525879</ele>
        <time>2015-12-07T19:56:05Z</time>
      </trkpt>
      <trkpt lat="48.89578" lon="2.34528">
        <ele>59.400001525879</ele>
        <time>2015-12-07T19:56:06Z</time>
      </trkpt>
      <trkpt lat="48.89578" lon="2.3456">
        <ele>58.79999923706</ele>
        <time>2015-12-07T19:56:11Z</time>
      </trkpt>
      <trkpt lat="48.89573" lon="2.34587">
        <ele>57.79999923706</ele>
        <time>2015-12-07T19:56:18Z</time>
      </trkpt>
      <trkpt lat="48.89569" lon="2.34605">
        <ele>57.400001525879</ele>
        <time>2015-12-07T19:56:25Z</time>
      </trkpt>
      <trkpt lat="48.89569" lon="2.34611">
        <ele>57.20000076294</ele>
        <time>2015-12-07T19:56:27Z</time>
      </trkpt>
      <trkpt lat="48.89573" lon="2.34624">
        <ele>57</ele>
        <time>2015-12-07T19:56:31Z</time>
      </trkpt>
      <trkpt lat="48.89576" lon="2.34627">
        <ele>56.79999923706</ele>
        <time>2015-12-07T19:56:32Z</time>
      </trkpt>
      <trkpt lat="48.89586" lon="2.34642">
        <ele>56.599998474121</ele>
        <time>2015-12-07T19:56:37Z</time>
      </trkpt>
      <trkpt lat="48.89605" lon="2.34637">
        <ele>56.599998474121</ele>
        <time>2015-12-07T19:56:44Z</time>
      </trkpt>
      <trkpt lat="48.89625" lon="2.34636">
        <ele>56.20000076294</ele>
        <time>2015-12-07T19:56:50Z</time>
      </trkpt>
      <trkpt lat="48.89645" lon="2.34648">
        <ele>55.400001525879</ele>
        <time>2015-12-07T19:56:58Z</time>
      </trkpt>
      <trkpt lat="48.89664" lon="2.34658">
        <ele>54.79999923706</ele>
        <time>2015-12-07T19:57:03Z</time>
      </trkpt>
      <trkpt lat="48.89683" lon="2.34667">
        <ele>54.20000076294</ele>
        <time>2015-12-07T19:57:08Z</time>
      </trkpt>
      <trkpt lat="48.89703" lon="2.34678">
        <ele>53.599998474121</ele>
        <time>2015-12-07T19:57:12Z</time>
      </trkpt>
      <trkpt lat="48.89721" lon="2.34687">
        <ele>53.20000076294</ele>
        <time>2015-12-07T19:57:17Z</time>
      </trkpt>
      <trkpt lat="48.8974" lon="2.34696">
        <ele>52.79999923706</ele>
        <time>2015-12-07T19:57:22Z</time>
      </trkpt>
      <trkpt lat="48.8976" lon="2.34704">
        <ele>52.400001525879</ele>
        <time>2015-12-07T19:57:28Z</time>
      </trkpt>
      <trkpt lat="48.89775" lon="2.34729">
        <ele>52</ele>
        <time>2015-12-07T19:57:31Z</time>
      </trkpt>
      <trkpt lat="48.89781" lon="2.34759">
        <ele>51.400001525879</ele>
        <time>2015-12-07T19:57:34Z</time>
      </trkpt>
      <trkpt lat="48.89787" lon="2.34795">
        <ele>50.20000076294</ele>
        <time>2015-12-07T19:57:38Z</time>
      </trkpt>
      <trkpt lat="48.89789" lon="2.34829">
        <ele>49.20000076294</ele>
        <time>2015-12-07T19:57:41Z</time>
      </trkpt>
      <trkpt lat="48.89792" lon="2.34865">
        <ele>49.20000076294</ele>
        <time>2015-12-07T19:57:44Z</time>
      </trkpt>
      <trkpt lat="48.89792" lon="2.34905">
        <ele>48.20000076294</ele>
        <time>2015-12-07T19:57:47Z</time>
      </trkpt>
      <trkpt lat="48.89792" lon="2.34933">
        <ele>47.599998474121</ele>
        <time>2015-12-07T19:57:49Z</time>
      </trkpt>
      <trkpt lat="48.89793" lon="2.3496">
        <ele>47.79999923706</ele>
        <time>2015-12-07T19:57:51Z</time>
      </trkpt>
      <trkpt lat="48.89791" lon="2.34988">
        <ele>48.20000076294</ele>
        <time>2015-12-07T19:57:53Z</time>
      </trkpt>
      <trkpt lat="48.89792" lon="2.35001">
        <ele>48.20000076294</ele>
        <time>2015-12-07T19:57:54Z</time>
      </trkpt>
      <trkpt lat="48.89792" lon="2.35029">
        <ele>48</ele>
        <time>2015-12-07T19:57:56Z</time>
      </trkpt>
      <trkpt lat="48.89792" lon="2.35057">
        <ele>47.599998474121</ele>
        <time>2015-12-07T19:57:58Z</time>
      </trkpt>
      <trkpt lat="48.89792" lon="2.35085">
        <ele>47.400001525879</ele>
        <time>2015-12-07T19:58:00Z</time>
      </trkpt>
      <trkpt lat="48.89793" lon="2.35112">
        <ele>48.20000076294</ele>
        <time>2015-12-07T19:58:02Z</time>
      </trkpt>
      <trkpt lat="48.89793" lon="2.3514">
        <ele>49.400001525879</ele>
        <time>2015-12-07T19:58:04Z</time>
      </trkpt>
      <trkpt lat="48.89793" lon="2.35177">
        <ele>50.20000076294</ele>
        <time>2015-12-07T19:58:07Z</time>
      </trkpt>
      <trkpt lat="48.89794" lon="2.35213">
        <ele>49.599998474121</ele>
        <time>2015-12-07T19:58:11Z</time>
      </trkpt>
      <trkpt lat="48.89797" lon="2.35245">
        <ele>49</ele>
        <time>2015-12-07T19:58:16Z</time>
      </trkpt>
      <trkpt lat="48.89797" lon="2.3525">
        <ele>49</ele>
        <time>2015-12-07T19:58:18Z</time>
      </trkpt>
      <trkpt lat="48.89802" lon="2.35252">
        <ele>48.599998474121</ele>
        <time>2015-12-07T19:59:02Z</time>
      </trkpt>
      <trkpt lat="48.89819" lon="2.3526">
        <ele>47.20000076294</ele>
        <time>2015-12-07T19:59:12Z</time>
      </trkpt>
      <trkpt lat="48.89837" lon="2.35258">
        <ele>45.599998474121</ele>
        <time>2015-12-07T19:59:37Z</time>
      </trkpt>
      <trkpt lat="48.89856" lon="2.35253">
        <ele>44</ele>
        <time>2015-12-07T19:59:44Z</time>
      </trkpt>
      <trkpt lat="48.89875" lon="2.35249">
        <ele>44.20000076294</ele>
        <time>2015-12-07T19:59:49Z</time>
      </trkpt>
      <trkpt lat="48.89894" lon="2.35247">
        <ele>44.400001525879</ele>
        <time>2015-12-07T19:59:53Z</time>
      </trkpt>
      <trkpt lat="48.89915" lon="2.35245">
        <ele>44.79999923706</ele>
        <time>2015-12-07T19:59:57Z</time>
      </trkpt>
      <trkpt lat="48.89937" lon="2.35238">
        <ele>45.20000076294</ele>
        <time>2015-12-07T20:00:01Z</time>
      </trkpt>
      <trkpt lat="48.89958" lon="2.35231">
        <ele>45.79999923706</ele>
        <time>2015-12-07T20:00:05Z</time>
      </trkpt>
      <trkpt lat="48.89968" lon="2.35227">
        <ele>46.20000076294</ele>
        <time>2015-12-07T20:00:07Z</time>
      </trkpt>
      <trkpt lat="48.89989" lon="2.35225">
        <ele>46.79999923706</ele>
        <time>2015-12-07T20:00:11Z</time>
      </trkpt>
      <trkpt lat="48.90004" lon="2.35223">
        <ele>47.20000076294</ele>
        <time>2015-12-07T20:00:14Z</time>
      </trkpt>
      <trkpt lat="48.90023" lon="2.35218">
        <ele>48.400001525879</ele>
        <time>2015-12-07T20:00:18Z</time>
      </trkpt>
      <trkpt lat="48.90045" lon="2.35213">
        <ele>48.20000076294</ele>
        <time>2015-12-07T20:00:22Z</time>
      </trkpt>
      <trkpt lat="48.90066" lon="2.35201">
        <ele>48.20000076294</ele>
        <time>2015-12-07T20:00:26Z</time>
      </trkpt>
      <trkpt lat="48.90087" lon="2.35194">
        <ele>47.599998474121</ele>
        <time>2015-12-07T20:00:30Z</time>
      </trkpt>
      <trkpt lat="48.90106" lon="2.35179">
        <ele>47.400001525879</ele>
        <time>2015-12-07T20:00:35Z</time>
      </trkpt>
      <trkpt lat="48.90114" lon="2.35184">
        <ele>47</ele>
        <time>2015-12-07T20:00:36Z</time>
      </trkpt>
      <trkpt lat="48.90134" lon="2.35181">
        <ele>46.20000076294</ele>
        <time>2015-12-07T20:00:40Z</time>
      </trkpt>
      <trkpt lat="48.90153" lon="2.35177">
        <ele>45.20000076294</ele>
        <time>2015-12-07T20:00:44Z</time>
      </trkpt>
      <trkpt lat="48.90168" lon="2.35176">
        <ele>44.599998474121</ele>
        <time>2015-12-07T20:00:48Z</time>
      </trkpt>
      <trkpt lat="48.90181" lon="2.35177">
        <ele>44</ele>
        <time>2015-12-07T20:00:51Z</time>
      </trkpt>
      <trkpt lat="48.902" lon="2.35175">
        <ele>43.79999923706</ele>
        <time>2015-12-07T20:00:55Z</time>
      </trkpt>
      <trkpt lat="48.90218" lon="2.35171">
        <ele>42.79999923706</ele>
        <time>2015-12-07T20:00:59Z</time>
      </trkpt>
      <trkpt lat="48.90226" lon="2.3517">
        <ele>42.400001525879</ele>
        <time>2015-12-07T20:01:01Z</time>
      </trkpt>
      <trkpt lat="48.90241" lon="2.35177">
        <ele>41.79999923706</ele>
        <time>2015-12-07T20:01:05Z</time>
      </trkpt>
      <trkpt lat="48.90258" lon="2.3518">
        <ele>41.20000076294</ele>
        <time>2015-12-07T20:01:10Z</time>
      </trkpt>
      <trkpt lat="48.90262" lon="2.35179">
        <ele>41</ele>
        <time>2015-12-07T20:01:11Z</time>
      </trkpt>
      <trkpt lat="48.90274" lon="2.35177">
        <ele>40.400001525879</ele>
        <time>2015-12-07T20:01:14Z</time>
      </trkpt>
      <trkpt lat="48.90282" lon="2.35175">
        <ele>40.20000076294</ele>
        <time>2015-12-07T20:01:16Z</time>
      </trkpt>
      <trkpt lat="48.903" lon="2.35165">
        <ele>39.79999923706</ele>
        <time>2015-12-07T20:01:21Z</time>
      </trkpt>
      <trkpt lat="48.90301" lon="2.35163">
        <ele>39.599998474121</ele>
        <time>2015-12-07T20:01:22Z</time>
      </trkpt>
      <trkpt lat="48.90309" lon="2.3515">
        <ele>40</ele>
        <time>2015-12-07T20:01:27Z</time>
      </trkpt>
      <trkpt lat="48.90316" lon="2.35119">
        <ele>40.599998474121</ele>
        <time>2015-12-07T20:01:33Z</time>
      </trkpt>
      <trkpt lat="48.90319" lon="2.35092">
        <ele>40.79999923706</ele>
        <time>2015-12-07T20:01:38Z</time>
      </trkpt>
      <trkpt lat="48.9032" lon="2.35062">
        <ele>41.20000076294</ele>
        <time>2015-12-07T20:01:43Z</time>
      </trkpt>
      <trkpt lat="48.90322" lon="2.35032">
        <ele>41.400001525879</ele>
        <time>2015-12-07T20:01:47Z</time>
      </trkpt>
      <trkpt lat="48.90328" lon="2.34996">
        <ele>41.79999923706</ele>
        <time>2015-12-07T20:01:51Z</time>
      </trkpt>
      <trkpt lat="48.9033" lon="2.34962">
        <ele>42.400001525879</ele>
        <time>2015-12-07T20:01:55Z</time>
      </trkpt>
      <trkpt lat="48.90331" lon="2.34954">
        <ele>42.599998474121</ele>
        <time>2015-12-07T20:01:56Z</time>
      </trkpt>
      <trkpt lat="48.90335" lon="2.34938">
        <ele>43</ele>
        <time>2015-12-07T20:01:58Z</time>
      </trkpt>
      <trkpt lat="48.9034" lon="2.34908">
        <ele>43.599998474121</ele>
        <time>2015-12-07T20:02:02Z</time>
      </trkpt>
      <trkpt lat="48.90341" lon="2.34888">
        <ele>44</ele>
        <time>2015-12-07T20:02:05Z</time>
      </trkpt>
      <trkpt lat="48.90343" lon="2.34875">
        <ele>44.20000076294</ele>
        <time>2015-12-07T20:02:08Z</time>
      </trkpt>
      <trkpt lat="48.90346" lon="2.3487">
        <ele>44.400001525879</ele>
        <time>2015-12-07T20:02:15Z</time>
      </trkpt>
      <trkpt lat="48.90345" lon="2.3487">
        <ele>44.400001525879</ele>
        <time>2015-12-07T20:02:16Z</time>
      </trkpt>
      <trkpt lat="48.90358" lon="2.34876">
        <ele>43.79999923706</ele>
        <time>2015-12-07T20:02:30Z</time>
      </trkpt>
      <trkpt lat="48.90379" lon="2.34889">
        <ele>43.400001525879</ele>
        <time>2015-12-07T20:02:35Z</time>
      </trkpt>
      <trkpt lat="48.90399" lon="2.34903">
        <ele>42.79999923706</ele>
        <time>2015-12-07T20:02:40Z</time>
      </trkpt>
      <trkpt lat="48.90417" lon="2.34913">
        <ele>42.400001525879</ele>
        <time>2015-12-07T20:02:44Z</time>
      </trkpt>
      <trkpt lat="48.90434" lon="2.34924">
        <ele>41.79999923706</ele>
        <time>2015-12-07T20:02:48Z</time>
      </trkpt>
      <trkpt lat="48.90448" lon="2.34927">
        <ele>41.20000076294</ele>
        <time>2015-12-07T20:02:51Z</time>
      </trkpt>
      <trkpt lat="48.90468" lon="2.34911">
        <ele>41.400001525879</ele>
        <time>2015-12-07T20:02:56Z</time>
      </trkpt>
      <trkpt lat="48.90476" lon="2.34896">
        <ele>41.400001525879</ele>
        <time>2015-12-07T20:02:58Z</time>
      </trkpt>
      <trkpt lat="48.90487" lon="2.3487">
        <ele>41.400001525879</ele>
        <time>2015-12-07T20:03:01Z</time>
      </trkpt>
      <trkpt lat="48.90498" lon="2.34846">
        <ele>41.400001525879</ele>
        <time>2015-12-07T20:03:04Z</time>
      </trkpt>
      <trkpt lat="48.90508" lon="2.34822">
        <ele>41.20000076294</ele>
        <time>2015-12-07T20:03:07Z</time>
      </trkpt>
      <trkpt lat="48.90519" lon="2.34797">
        <ele>40.599998474121</ele>
        <time>2015-12-07T20:03:10Z</time>
      </trkpt>
      <trkpt lat="48.90532" lon="2.3477">
        <ele>40</ele>
        <time>2015-12-07T20:03:13Z</time>
      </trkpt>
      <trkpt lat="48.90543" lon="2.34743">
        <ele>39.79999923706</ele>
        <time>2015-12-07T20:03:16Z</time>
      </trkpt>
      <trkpt lat="48.9055" lon="2.34728">
        <ele>39.599998474121</ele>
        <time>2015-12-07T20:03:19Z</time>
      </trkpt>
      <trkpt lat="48.90558" lon="2.34732">
        <ele>39.599998474121</ele>
        <time>2015-12-07T20:03:24Z</time>
      </trkpt>
      <trkpt lat="48.9056" lon="2.34734">
        <ele>39.599998474121</ele>
        <time>2015-12-07T20:03:25Z</time>
      </trkpt>
      <trkpt lat="48.90579" lon="2.34748">
        <ele>39.400001525879</ele>
        <time>2015-12-07T20:03:31Z</time>
      </trkpt>
      <trkpt lat="48.90583" lon="2.34749">
        <ele>39.20000076294</ele>
        <time>2015-12-07T20:03:32Z</time>
      </trkpt>
      <trkpt lat="48.90596" lon="2.34733">
        <ele>39.20000076294</ele>
        <time>2015-12-07T20:03:36Z</time>
      </trkpt>
      <trkpt lat="48.90603" lon="2.34716">
        <ele>39</ele>
        <time>2015-12-07T20:03:39Z</time>
      </trkpt>
      <trkpt lat="48.90607" lon="2.34705">
        <ele>39</ele>
        <time>2015-12-07T20:03:41Z</time>
      </trkpt>
      <trkpt lat="48.90616" lon="2.34678">
        <ele>38.79999923706</ele>
        <time>2015-12-07T20:03:46Z</time>
      </trkpt>
      <trkpt lat="48.90622" lon="2.3466">
        <ele>38.79999923706</ele>
        <time>2015-12-07T20:03:49Z</time>
      </trkpt>
      <trkpt lat="48.90612" lon="2.34637">
        <ele>39</ele>
        <time>2015-12-07T20:03:54Z</time>
      </trkpt>
      <trkpt lat="48.90608" lon="2.34633">
        <ele>39</ele>
        <time>2015-12-07T20:03:55Z</time>
      </trkpt>
      <trkpt lat="48.90604" lon="2.34631">
        <ele>39</ele>
        <time>2015-12-07T20:03:56Z</time>
      </trkpt>
      <trkpt lat="48.90595" lon="2.34622">
        <ele>38.79999923706</ele>
        <time>2015-12-07T20:03:59Z</time>
      </trkpt>
      <trkpt lat="48.906" lon="2.34603">
        <ele>39</ele>
        <time>2015-12-07T20:04:04Z</time>
      </trkpt>
      <trkpt lat="48.90611" lon="2.34578">
        <ele>39</ele>
        <time>2015-12-07T20:04:08Z</time>
      </trkpt>
      <trkpt lat="48.90622" lon="2.34555">
        <ele>38.599998474121</ele>
        <time>2015-12-07T20:04:12Z</time>
      </trkpt>
      <trkpt lat="48.90631" lon="2.34533">
        <ele>38.20000076294</ele>
        <time>2015-12-07T20:04:16Z</time>
      </trkpt>
      <trkpt lat="48.90636" lon="2.34521">
        <ele>38</ele>
        <time>2015-12-07T20:04:18Z</time>
      </trkpt>
      <trkpt lat="48.90645" lon="2.3449">
        <ele>37.599998474121</ele>
        <time>2015-12-07T20:04:22Z</time>
      </trkpt>
      <trkpt lat="48.90654" lon="2.34465">
        <ele>37.79999923706</ele>
        <time>2015-12-07T20:04:26Z</time>
      </trkpt>
      <trkpt lat="48.90658" lon="2.34455">
        <ele>38</ele>
        <time>2015-12-07T20:04:28Z</time>
      </trkpt>
      <trkpt lat="48.90661" lon="2.34438">
        <ele>38.400001525879</ele>
        <time>2015-12-07T20:04:32Z</time>
      </trkpt>
      <trkpt lat="48.90675" lon="2.34423">
        <ele>38.79999923706</ele>
        <time>2015-12-07T20:04:55Z</time>
      </trkpt>
      <trkpt lat="48.90693" lon="2.34416">
        <ele>39</ele>
        <time>2015-12-07T20:05:00Z</time>
      </trkpt>
      <trkpt lat="48.90714" lon="2.34413">
        <ele>39</ele>
        <time>2015-12-07T20:05:05Z</time>
      </trkpt>
      <trkpt lat="48.90735" lon="2.34411">
        <ele>39</ele>
        <time>2015-12-07T20:05:10Z</time>
      </trkpt>
      <trkpt lat="48.90754" lon="2.3441">
        <ele>39</ele>
        <time>2015-12-07T20:05:13Z</time>
      </trkpt>
      <trkpt lat="48.90766" lon="2.34411">
        <ele>39</ele>
        <time>2015-12-07T20:05:15Z</time>
      </trkpt>
      <trkpt lat="48.90786" lon="2.34413">
        <ele>38.79999923706</ele>
        <time>2015-12-07T20:05:18Z</time>
      </trkpt>
      <trkpt lat="48.90807" lon="2.34417">
        <ele>38.20000076294</ele>
        <time>2015-12-07T20:05:21Z</time>
      </trkpt>
      <trkpt lat="48.90813" lon="2.34416">
        <ele>38</ele>
        <time>2015-12-07T20:05:22Z</time>
      </trkpt>
      <trkpt lat="48.90831" lon="2.34417">
        <ele>37.599998474121</ele>
        <time>2015-12-07T20:05:25Z</time>
      </trkpt>
      <trkpt lat="48.90857" lon="2.34416">
        <ele>37</ele>
        <time>2015-12-07T20:05:29Z</time>
      </trkpt>
      <trkpt lat="48.90875" lon="2.34415">
        <ele>36.79999923706</ele>
        <time>2015-12-07T20:05:32Z</time>
      </trkpt>
      <trkpt lat="48.90899" lon="2.34415">
        <ele>36.400001525879</ele>
        <time>2015-12-07T20:05:36Z</time>
      </trkpt>
      <trkpt lat="48.90918" lon="2.34412">
        <ele>36.20000076294</ele>
        <time>2015-12-07T20:05:39Z</time>
      </trkpt>
      <trkpt lat="48.90942" lon="2.34409">
        <ele>36</ele>
        <time>2015-12-07T20:05:43Z</time>
      </trkpt>
      <trkpt lat="48.90966" lon="2.34404">
        <ele>36.20000076294</ele>
        <time>2015-12-07T20:05:47Z</time>
      </trkpt>
      <trkpt lat="48.90986" lon="2.344">
        <ele>36.400001525879</ele>
        <time>2015-12-07T20:05:50Z</time>
      </trkpt>
      <trkpt lat="48.91008" lon="2.34396">
        <ele>36.599998474121</ele>
        <time>2015-12-07T20:05:54Z</time>
      </trkpt>
      <trkpt lat="48.91028" lon="2.34392">
        <ele>37.599998474121</ele>
        <time>2015-12-07T20:05:58Z</time>
      </trkpt>
      <trkpt lat="48.91046" lon="2.3439">
        <ele>38.20000076294</ele>
        <time>2015-12-07T20:06:01Z</time>
      </trkpt>
      <trkpt lat="48.91068" lon="2.3439">
        <ele>38.599998474121</ele>
        <time>2015-12-07T20:06:05Z</time>
      </trkpt>
      <trkpt lat="48.91074" lon="2.3439">
        <ele>38.79999923706</ele>
        <time>2015-12-07T20:06:06Z</time>
      </trkpt>
      <trkpt lat="48.91095" lon="2.34389">
        <ele>38.599998474121</ele>
        <time>2015-12-07T20:06:10Z</time>
      </trkpt>
      <trkpt lat="48.91115" lon="2.34387">
        <ele>38.20000076294</ele>
        <time>2015-12-07T20:06:14Z</time>
      </trkpt>
      <trkpt lat="48.9113" lon="2.34388">
        <ele>37.79999923706</ele>
        <time>2015-12-07T20:06:17Z</time>
      </trkpt>
      <trkpt lat="48.91151" lon="2.34388">
        <ele>37.400001525879</ele>
        <time>2015-12-07T20:06:21Z</time>
      </trkpt>
      <trkpt lat="48.91163" lon="2.34389">
        <ele>37</ele>
        <time>2015-12-07T20:06:23Z</time>
      </trkpt>
      <trkpt lat="48.91182" lon="2.34389">
        <ele>36.599998474121</ele>
        <time>2015-12-07T20:06:26Z</time>
      </trkpt>
      <trkpt lat="48.91201" lon="2.34392">
        <ele>36.400001525879</ele>
        <time>2015-12-07T20:06:29Z</time>
      </trkpt>
      <trkpt lat="48.91223" lon="2.34394">
        <ele>36.599998474121</ele>
        <time>2015-12-07T20:06:32Z</time>
      </trkpt>
      <trkpt lat="48.91244" lon="2.34399">
        <ele>36.599998474121</ele>
        <time>2015-12-07T20:06:35Z</time>
      </trkpt>
      <trkpt lat="48.91266" lon="2.34406">
        <ele>36.79999923706</ele>
        <time>2015-12-07T20:06:38Z</time>
      </trkpt>
      <trkpt lat="48.91288" lon="2.34406">
        <ele>37.599998474121</ele>
        <time>2015-12-07T20:06:41Z</time>
      </trkpt>
      <trkpt lat="48.91308" lon="2.34408">
        <ele>38.599998474121</ele>
        <time>2015-12-07T20:06:44Z</time>
      </trkpt>
      <trkpt lat="48.91326" lon="2.3441">
        <ele>39.400001525879</ele>
        <time>2015-12-07T20:06:47Z</time>
      </trkpt>
      <trkpt lat="48.9135" lon="2.3441">
        <ele>40.599998474121</ele>
        <time>2015-12-07T20:06:51Z</time>
      </trkpt>
      <trkpt lat="48.9137" lon="2.34408">
        <ele>40.400001525879</ele>
        <time>2015-12-07T20:06:55Z</time>
      </trkpt>
      <trkpt lat="48.91387" lon="2.34408">
        <ele>39.79999923706</ele>
        <time>2015-12-07T20:06:59Z</time>
      </trkpt>
      <trkpt lat="48.91407" lon="2.34411">
        <ele>39.20000076294</ele>
        <time>2015-12-07T20:07:09Z</time>
      </trkpt>
      <trkpt lat="48.91414" lon="2.34411">
        <ele>38.79999923706</ele>
        <time>2015-12-07T20:07:12Z</time>
      </trkpt>
      <trkpt lat="48.91418" lon="2.3441">
        <ele>38.79999923706</ele>
        <time>2015-12-07T20:07:15Z</time>
      </trkpt>
      <trkpt lat="48.91403" lon="2.34425">
        <ele>39</ele>
        <time>2015-12-07T20:07:23Z</time>
      </trkpt>
      <trkpt lat="48.91402" lon="2.34454">
        <ele>38.400001525879</ele>
        <time>2015-12-07T20:07:27Z</time>
      </trkpt>
      <trkpt lat="48.91402" lon="2.34462">
        <ele>38.20000076294</ele>
        <time>2015-12-07T20:07:28Z</time>
      </trkpt>
      <trkpt lat="48.91403" lon="2.34491">
        <ele>36.400001525879</ele>
        <time>2015-12-07T20:07:31Z</time>
      </trkpt>
      <trkpt lat="48.91405" lon="2.34519">
        <ele>35.79999923706</ele>
        <time>2015-12-07T20:07:34Z</time>
      </trkpt>
      <trkpt lat="48.91408" lon="2.34548">
        <ele>35.400001525879</ele>
        <time>2015-12-07T20:07:37Z</time>
      </trkpt>
      <trkpt lat="48.91413" lon="2.34578">
        <ele>35.400001525879</ele>
        <time>2015-12-07T20:07:40Z</time>
      </trkpt>
      <trkpt lat="48.91416" lon="2.34587">
        <ele>35.20000076294</ele>
        <time>2015-12-07T20:07:41Z</time>
      </trkpt>
      <trkpt lat="48.91421" lon="2.34617">
        <ele>34.79999923706</ele>
        <time>2015-12-07T20:07:44Z</time>
      </trkpt>
      <trkpt lat="48.91427" lon="2.34645">
        <ele>34.400001525879</ele>
        <time>2015-12-07T20:07:47Z</time>
      </trkpt>
      <trkpt lat="48.91435" lon="2.34679">
        <ele>34.400001525879</ele>
        <time>2015-12-07T20:07:51Z</time>
      </trkpt>
      <trkpt lat="48.91442" lon="2.34708">
        <ele>34.599998474121</ele>
        <time>2015-12-07T20:07:55Z</time>
      </trkpt>
      <trkpt lat="48.9145" lon="2.34736">
        <ele>34.79999923706</ele>
        <time>2015-12-07T20:07:59Z</time>
      </trkpt>
      <trkpt lat="48.91454" lon="2.3475">
        <ele>34.79999923706</ele>
        <time>2015-12-07T20:08:01Z</time>
      </trkpt>
      <trkpt lat="48.91461" lon="2.3478">
        <ele>35.79999923706</ele>
        <time>2015-12-07T20:08:05Z</time>
      </trkpt>
      <trkpt lat="48.91467" lon="2.34803">
        <ele>36.79999923706</ele>
        <time>2015-12-07T20:08:08Z</time>
      </trkpt>
      <trkpt lat="48.91473" lon="2.34834">
        <ele>37.79999923706</ele>
        <time>2015-12-07T20:08:12Z</time>
      </trkpt>
      <trkpt lat="48.9148" lon="2.34866">
        <ele>38</ele>
        <time>2015-12-07T20:08:16Z</time>
      </trkpt>
      <trkpt lat="48.91483" lon="2.34888">
        <ele>38.400001525879</ele>
        <time>2015-12-07T20:08:19Z</time>
      </trkpt>
      <trkpt lat="48.9149" lon="2.34919">
        <ele>38.599998474121</ele>
        <time>2015-12-07T20:08:24Z</time>
      </trkpt>
      <trkpt lat="48.91496" lon="2.34946">
        <ele>38.79999923706</ele>
        <time>2015-12-07T20:08:28Z</time>
      </trkpt>
      <trkpt lat="48.91504" lon="2.34976">
        <ele>38.599998474121</ele>
        <time>2015-12-07T20:08:32Z</time>
      </trkpt>
      <trkpt lat="48.91506" lon="2.34983">
        <ele>38.599998474121</ele>
        <time>2015-12-07T20:08:33Z</time>
      </trkpt>
      <trkpt lat="48.91517" lon="2.35013">
        <ele>38.400001525879</ele>
        <time>2015-12-07T20:08:37Z</time>
      </trkpt>
      <trkpt lat="48.91525" lon="2.35039">
        <ele>38.400001525879</ele>
        <time>2015-12-07T20:08:40Z</time>
      </trkpt>
      <trkpt lat="48.91532" lon="2.35065">
        <ele>38.400001525879</ele>
        <time>2015-12-07T20:08:43Z</time>
      </trkpt>
      <trkpt lat="48.91538" lon="2.35095">
        <ele>38.599998474121</ele>
        <time>2015-12-07T20:08:46Z</time>
      </trkpt>
      <trkpt lat="48.91544" lon="2.35103">
        <ele>38.599998474121</ele>
        <time>2015-12-07T20:08:47Z</time>
      </trkpt>
      <trkpt lat="48.91541" lon="2.35139">
        <ele>38.599998474121</ele>
        <time>2015-12-07T20:08:50Z</time>
      </trkpt>
      <trkpt lat="48.91542" lon="2.3516">
        <ele>38.599998474121</ele>
        <time>2015-12-07T20:08:52Z</time>
      </trkpt>
      <trkpt lat="48.91542" lon="2.35189">
        <ele>39.599998474121</ele>
        <time>2015-12-07T20:08:55Z</time>
      </trkpt>
      <trkpt lat="48.91539" lon="2.35221">
        <ele>39.599998474121</ele>
        <time>2015-12-07T20:08:59Z</time>
      </trkpt>
      <trkpt lat="48.91537" lon="2.35242">
        <ele>39.400001525879</ele>
        <time>2015-12-07T20:09:03Z</time>
      </trkpt>
      <trkpt lat="48.91536" lon="2.35256">
        <ele>39.400001525879</ele>
        <time>2015-12-07T20:09:07Z</time>
      </trkpt>
      <trkpt lat="48.91534" lon="2.35268">
        <ele>39</ele>
        <time>2015-12-07T20:09:12Z</time>
      </trkpt>
      <trkpt lat="48.91532" lon="2.35272">
        <ele>38.79999923706</ele>
        <time>2015-12-07T20:09:16Z</time>
      </trkpt>
      <trkpt lat="48.91531" lon="2.35279">
        <ele>38.599998474121</ele>
        <time>2015-12-07T20:09:58Z</time>
      </trkpt>
      <trkpt lat="48.91532" lon="2.35307">
        <ele>38</ele>
        <time>2015-12-07T20:10:05Z</time>
      </trkpt>
      <trkpt lat="48.91533" lon="2.35337">
        <ele>37.20000076294</ele>
        <time>2015-12-07T20:10:11Z</time>
      </trkpt>
      <trkpt lat="48.91535" lon="2.35369">
        <ele>37.20000076294</ele>
        <time>2015-12-07T20:10:17Z</time>
      </trkpt>
      <trkpt lat="48.91536" lon="2.35398">
        <ele>37.20000076294</ele>
        <time>2015-12-07T20:10:22Z</time>
      </trkpt>
      <trkpt lat="48.91538" lon="2.35432">
        <ele>37.20000076294</ele>
        <time>2015-12-07T20:10:27Z</time>
      </trkpt>
      <trkpt lat="48.91539" lon="2.35461">
        <ele>37.599998474121</ele>
        <time>2015-12-07T20:10:31Z</time>
      </trkpt>
      <trkpt lat="48.91537" lon="2.3549">
        <ele>38</ele>
        <time>2015-12-07T20:10:35Z</time>
      </trkpt>
      <trkpt lat="48.91536" lon="2.35519">
        <ele>38.400001525879</ele>
        <time>2015-12-07T20:10:39Z</time>
      </trkpt>
      <trkpt lat="48.91537" lon="2.3555">
        <ele>38.79999923706</ele>
        <time>2015-12-07T20:10:43Z</time>
      </trkpt>
      <trkpt lat="48.91539" lon="2.35582">
        <ele>39.20000076294</ele>
        <time>2015-12-07T20:10:47Z</time>
      </trkpt>
      <trkpt lat="48.91541" lon="2.35589">
        <ele>39.20000076294</ele>
        <time>2015-12-07T20:10:48Z</time>
      </trkpt>
      <trkpt lat="48.91542" lon="2.35621">
        <ele>39.79999923706</ele>
        <time>2015-12-07T20:10:52Z</time>
      </trkpt>
      <trkpt lat="48.91542" lon="2.35629">
        <ele>40</ele>
        <time>2015-12-07T20:10:53Z</time>
      </trkpt>
      <trkpt lat="48.91543" lon="2.35637">
        <ele>40.20000076294</ele>
        <time>2015-12-07T20:10:54Z</time>
      </trkpt>
      <trkpt lat="48.91545" lon="2.3567">
        <ele>40.79999923706</ele>
        <time>2015-12-07T20:10:58Z</time>
      </trkpt>
      <trkpt lat="48.91545" lon="2.35701">
        <ele>40.79999923706</ele>
        <time>2015-12-07T20:11:02Z</time>
      </trkpt>
      <trkpt lat="48.91548" lon="2.35729">
        <ele>40.79999923706</ele>
        <time>2015-12-07T20:11:06Z</time>
      </trkpt>
      <trkpt lat="48.91548" lon="2.35742">
        <ele>40.79999923706</ele>
        <time>2015-12-07T20:11:08Z</time>
      </trkpt>
      <trkpt lat="48.91548" lon="2.35765">
        <ele>41</ele>
        <time>2015-12-07T20:11:14Z</time>
      </trkpt>
      <trkpt lat="48.91546" lon="2.35774">
        <ele>41</ele>
        <time>2015-12-07T20:11:18Z</time>
      </trkpt>
      <trkpt lat="48.91548" lon="2.35787">
        <ele>41</ele>
        <time>2015-12-07T20:11:22Z</time>
      </trkpt>
      <trkpt lat="48.91551" lon="2.35815">
        <ele>41</ele>
        <time>2015-12-07T20:11:26Z</time>
      </trkpt>
      <trkpt lat="48.91552" lon="2.35844">
        <ele>40.599998474121</ele>
        <time>2015-12-07T20:11:30Z</time>
      </trkpt>
      <trkpt lat="48.91553" lon="2.35875">
        <ele>39.79999923706</ele>
        <time>2015-12-07T20:11:34Z</time>
      </trkpt>
      <trkpt lat="48.91555" lon="2.35909">
        <ele>38.599998474121</ele>
        <time>2015-12-07T20:11:38Z</time>
      </trkpt>
      <trkpt lat="48.91554" lon="2.35937">
        <ele>37.79999923706</ele>
        <time>2015-12-07T20:11:41Z</time>
      </trkpt>
      <trkpt lat="48.91554" lon="2.35967">
        <ele>36.79999923706</ele>
        <time>2015-12-07T20:11:44Z</time>
      </trkpt>
      <trkpt lat="48.91555" lon="2.36">
        <ele>35.79999923706</ele>
        <time>2015-12-07T20:11:47Z</time>
      </trkpt>
      <trkpt lat="48.91555" lon="2.36034">
        <ele>35.79999923706</ele>
        <time>2015-12-07T20:11:50Z</time>
      </trkpt>
      <trkpt lat="48.91552" lon="2.36071">
        <ele>35.20000076294</ele>
        <time>2015-12-07T20:11:53Z</time>
      </trkpt>
      <trkpt lat="48.91552" lon="2.36105">
        <ele>35.599998474121</ele>
        <time>2015-12-07T20:11:56Z</time>
      </trkpt>
      <trkpt lat="48.91551" lon="2.36136">
        <ele>36.400001525879</ele>
        <time>2015-12-07T20:11:59Z</time>
      </trkpt>
      <trkpt lat="48.91549" lon="2.36167">
        <ele>37</ele>
        <time>2015-12-07T20:12:03Z</time>
      </trkpt>
      <trkpt lat="48.91548" lon="2.36172">
        <ele>36.79999923706</ele>
        <time>2015-12-07T20:12:04Z</time>
      </trkpt>
      <trkpt lat="48.91548" lon="2.36202">
        <ele>37</ele>
        <time>2015-12-07T20:12:09Z</time>
      </trkpt>
      <trkpt lat="48.91548" lon="2.36208">
        <ele>37.20000076294</ele>
        <time>2015-12-07T20:12:10Z</time>
      </trkpt>
      <trkpt lat="48.91549" lon="2.36231">
        <ele>37.400001525879</ele>
        <time>2015-12-07T20:12:14Z</time>
      </trkpt>
      <trkpt lat="48.9155" lon="2.36259">
        <ele>37.20000076294</ele>
        <time>2015-12-07T20:12:18Z</time>
      </trkpt>
      <trkpt lat="48.91549" lon="2.36293">
        <ele>36.400001525879</ele>
        <time>2015-12-07T20:12:22Z</time>
      </trkpt>
      <trkpt lat="48.91548" lon="2.36313">
        <ele>36.20000076294</ele>
        <time>2015-12-07T20:12:24Z</time>
      </trkpt>
      <trkpt lat="48.91549" lon="2.36347">
        <ele>36</ele>
        <time>2015-12-07T20:12:27Z</time>
      </trkpt>
      <trkpt lat="48.9155" lon="2.36383">
        <ele>36.400001525879</ele>
        <time>2015-12-07T20:12:30Z</time>
      </trkpt>
      <trkpt lat="48.9155" lon="2.36422">
        <ele>36.79999923706</ele>
        <time>2015-12-07T20:12:33Z</time>
      </trkpt>
      <trkpt lat="48.91549" lon="2.3645">
        <ele>37.400001525879</ele>
        <time>2015-12-07T20:12:35Z</time>
      </trkpt>
      <trkpt lat="48.91549" lon="2.36478">
        <ele>37.400001525879</ele>
        <time>2015-12-07T20:12:37Z</time>
      </trkpt>
      <trkpt lat="48.91548" lon="2.36505">
        <ele>37.20000076294</ele>
        <time>2015-12-07T20:12:39Z</time>
      </trkpt>
      <trkpt lat="48.91546" lon="2.36533">
        <ele>37</ele>
        <time>2015-12-07T20:12:41Z</time>
      </trkpt>
      <trkpt lat="48.91545" lon="2.3657">
        <ele>37</ele>
        <time>2015-12-07T20:12:44Z</time>
      </trkpt>
      <trkpt lat="48.91545" lon="2.36605">
        <ele>36.79999923706</ele>
        <time>2015-12-07T20:12:47Z</time>
      </trkpt>
      <trkpt lat="48.91545" lon="2.36637">
        <ele>36.79999923706</ele>
        <time>2015-12-07T20:12:50Z</time>
      </trkpt>
      <trkpt lat="48.91544" lon="2.36667">
        <ele>36.599998474121</ele>
        <time>2015-12-07T20:12:53Z</time>
      </trkpt>
      <trkpt lat="48.91543" lon="2.36695">
        <ele>36</ele>
        <time>2015-12-07T20:12:56Z</time>
      </trkpt>
      <trkpt lat="48.91543" lon="2.36713">
        <ele>35.599998474121</ele>
        <time>2015-12-07T20:12:58Z</time>
      </trkpt>
      <trkpt lat="48.91542" lon="2.36746">
        <ele>34.79999923706</ele>
        <time>2015-12-07T20:13:02Z</time>
      </trkpt>
      <trkpt lat="48.91541" lon="2.36776">
        <ele>35.20000076294</ele>
        <time>2015-12-07T20:13:06Z</time>
      </trkpt>
      <trkpt lat="48.9154" lon="2.36803">
        <ele>35.20000076294</ele>
        <time>2015-12-07T20:13:10Z</time>
      </trkpt>
      <trkpt lat="48.91539" lon="2.36835">
        <ele>35.20000076294</ele>
        <time>2015-12-07T20:13:15Z</time>
      </trkpt>
      <trkpt lat="48.91539" lon="2.36865">
        <ele>35</ele>
        <time>2015-12-07T20:13:20Z</time>
      </trkpt>
      <trkpt lat="48.91539" lon="2.36877">
        <ele>34.79999923706</ele>
        <time>2015-12-07T20:13:22Z</time>
      </trkpt>
      <trkpt lat="48.91539" lon="2.36903">
        <ele>34.400001525879</ele>
        <time>2015-12-07T20:13:26Z</time>
      </trkpt>
      <trkpt lat="48.91538" lon="2.36928">
        <ele>34.599998474121</ele>
        <time>2015-12-07T20:13:29Z</time>
      </trkpt>
      <trkpt lat="48.91537" lon="2.36958">
        <ele>35</ele>
        <time>2015-12-07T20:13:32Z</time>
      </trkpt>
      <trkpt lat="48.91536" lon="2.3699">
        <ele>35.400001525879</ele>
        <time>2015-12-07T20:13:35Z</time>
      </trkpt>
      <trkpt lat="48.91536" lon="2.3702">
        <ele>35.20000076294</ele>
        <time>2015-12-07T20:13:38Z</time>
      </trkpt>
      <trkpt lat="48.91535" lon="2.37049">
        <ele>35.20000076294</ele>
        <time>2015-12-07T20:13:41Z</time>
      </trkpt>
      <trkpt lat="48.91533" lon="2.37077">
        <ele>35.20000076294</ele>
        <time>2015-12-07T20:13:44Z</time>
      </trkpt>
      <trkpt lat="48.91533" lon="2.37108">
        <ele>35.79999923706</ele>
        <time>2015-12-07T20:13:48Z</time>
      </trkpt>
      <trkpt lat="48.91532" lon="2.37119">
        <ele>36.20000076294</ele>
        <time>2015-12-07T20:13:50Z</time>
      </trkpt>
      <trkpt lat="48.91523" lon="2.37122">
        <ele>36.400001525879</ele>
        <time>2015-12-07T20:15:01Z</time>
      </trkpt>
      <trkpt lat="48.91525" lon="2.37138">
        <ele>37</ele>
        <time>2015-12-07T20:16:15Z</time>
      </trkpt>
      <trkpt lat="48.91526" lon="2.37166">
        <ele>38</ele>
        <time>2015-12-07T20:16:24Z</time>
      </trkpt>
      <trkpt lat="48.91527" lon="2.37194">
        <ele>38</ele>
        <time>2015-12-07T20:16:31Z</time>
      </trkpt>
      <trkpt lat="48.91526" lon="2.37225">
        <ele>38</ele>
        <time>2015-12-07T20:16:38Z</time>
      </trkpt>
      <trkpt lat="48.91525" lon="2.37257">
        <ele>38</ele>
        <time>2015-12-07T20:16:44Z</time>
      </trkpt>
      <trkpt lat="48.91525" lon="2.3729">
        <ele>37.599998474121</ele>
        <time>2015-12-07T20:16:49Z</time>
      </trkpt>
      <trkpt lat="48.91525" lon="2.37319">
        <ele>37.20000076294</ele>
        <time>2015-12-07T20:16:54Z</time>
      </trkpt>
      <trkpt lat="48.91526" lon="2.3735">
        <ele>37</ele>
        <time>2015-12-07T20:17:00Z</time>
      </trkpt>
      <trkpt lat="48.91526" lon="2.37381">
        <ele>37</ele>
        <time>2015-12-07T20:17:06Z</time>
      </trkpt>
      <trkpt lat="48.91526" lon="2.37411">
        <ele>37</ele>
        <time>2015-12-07T20:17:14Z</time>
      </trkpt>
      <trkpt lat="48.91525" lon="2.37439">
        <ele>37.20000076294</ele>
        <time>2015-12-07T20:17:20Z</time>
      </trkpt>
      <trkpt lat="48.91526" lon="2.37467">
        <ele>37.599998474121</ele>
        <time>2015-12-07T20:17:24Z</time>
      </trkpt>
      <trkpt lat="48.91526" lon="2.37484">
        <ele>37.79999923706</ele>
        <time>2015-12-07T20:17:26Z</time>
      </trkpt>
      <trkpt lat="48.91527" lon="2.37515">
        <ele>38</ele>
        <time>2015-12-07T20:17:30Z</time>
      </trkpt>
      <trkpt lat="48.91526" lon="2.37522">
        <ele>38</ele>
        <time>2015-12-07T20:17:31Z</time>
      </trkpt>
      <trkpt lat="48.91525" lon="2.37554">
        <ele>38</ele>
        <time>2015-12-07T20:17:35Z</time>
      </trkpt>
      <trkpt lat="48.91525" lon="2.37591">
        <ele>37.79999923706</ele>
        <time>2015-12-07T20:17:39Z</time>
      </trkpt>
      <trkpt lat="48.91525" lon="2.37608">
        <ele>37.400001525879</ele>
        <time>2015-12-07T20:17:41Z</time>
      </trkpt>
      <trkpt lat="48.91522" lon="2.37623">
        <ele>37</ele>
        <time>2015-12-07T20:17:43Z</time>
      </trkpt>
      <trkpt lat="48.91519" lon="2.37652">
        <ele>36.20000076294</ele>
        <time>2015-12-07T20:17:47Z</time>
      </trkpt>
      <trkpt lat="48.91519" lon="2.37665">
        <ele>36</ele>
        <time>2015-12-07T20:17:49Z</time>
      </trkpt>
      <trkpt lat="48.91526" lon="2.37687">
        <ele>36</ele>
        <time>2015-12-07T20:17:55Z</time>
      </trkpt>
      <trkpt lat="48.91528" lon="2.37689">
        <ele>36</ele>
        <time>2015-12-07T20:17:56Z</time>
      </trkpt>
      <trkpt lat="48.91543" lon="2.37701">
        <ele>36</ele>
        <time>2015-12-07T20:18:04Z</time>
      </trkpt>
      <trkpt lat="48.91546" lon="2.377">
        <ele>36</ele>
        <time>2015-12-07T20:18:05Z</time>
      </trkpt>
      <trkpt lat="48.91552" lon="2.37699">
        <ele>36</ele>
        <time>2015-12-07T20:18:10Z</time>
      </trkpt>
      <trkpt lat="48.91547" lon="2.37718">
        <ele>36</ele>
        <time>2015-12-07T20:18:36Z</time>
      </trkpt>
      <trkpt lat="48.91545" lon="2.37745">
        <ele>36</ele>
        <time>2015-12-07T20:18:42Z</time>
      </trkpt>
      <trkpt lat="48.91541" lon="2.37773">
        <ele>35.79999923706</ele>
        <time>2015-12-07T20:18:47Z</time>
      </trkpt>
      <trkpt lat="48.91537" lon="2.37804">
        <ele>35.79999923706</ele>
        <time>2015-12-07T20:18:52Z</time>
      </trkpt>
      <trkpt lat="48.91534" lon="2.37836">
        <ele>35.79999923706</ele>
        <time>2015-12-07T20:18:57Z</time>
      </trkpt>
      <trkpt lat="48.91525" lon="2.37864">
        <ele>36.400001525879</ele>
        <time>2015-12-07T20:19:02Z</time>
      </trkpt>
      <trkpt lat="48.9152" lon="2.37895">
        <ele>36.79999923706</ele>
        <time>2015-12-07T20:19:08Z</time>
      </trkpt>
      <trkpt lat="48.91514" lon="2.37926">
        <ele>37</ele>
        <time>2015-12-07T20:19:13Z</time>
      </trkpt>
      <trkpt lat="48.91508" lon="2.37954">
        <ele>37</ele>
        <time>2015-12-07T20:19:17Z</time>
      </trkpt>
      <trkpt lat="48.91501" lon="2.3798">
        <ele>37.20000076294</ele>
        <time>2015-12-07T20:19:21Z</time>
      </trkpt>
      <trkpt lat="48.91495" lon="2.38006">
        <ele>37.599998474121</ele>
        <time>2015-12-07T20:19:25Z</time>
      </trkpt>
      <trkpt lat="48.91492" lon="2.38032">
        <ele>37.79999923706</ele>
        <time>2015-12-07T20:19:29Z</time>
      </trkpt>
      <trkpt lat="48.91489" lon="2.38052">
        <ele>37.79999923706</ele>
        <time>2015-12-07T20:19:33Z</time>
      </trkpt>
      <trkpt lat="48.91484" lon="2.38077">
        <ele>38</ele>
        <time>2015-12-07T20:19:40Z</time>
      </trkpt>
      <trkpt lat="48.91481" lon="2.38098">
        <ele>38.599998474121</ele>
        <time>2015-12-07T20:19:46Z</time>
      </trkpt>
      <trkpt lat="48.91478" lon="2.38104">
        <ele>39</ele>
        <time>2015-12-07T20:19:50Z</time>
      </trkpt>
      <trkpt lat="48.91467" lon="2.38132">
        <ele>39.400001525879</ele>
        <time>2015-12-07T20:20:05Z</time>
      </trkpt>
      <trkpt lat="48.9145" lon="2.38153">
        <ele>39.20000076294</ele>
        <time>2015-12-07T20:20:10Z</time>
      </trkpt>
      <trkpt lat="48.91431" lon="2.3817">
        <ele>39.400001525879</ele>
        <time>2015-12-07T20:20:15Z</time>
      </trkpt>
      <trkpt lat="48.91414" lon="2.38184">
        <ele>40.400001525879</ele>
        <time>2015-12-07T20:20:19Z</time>
      </trkpt>
      <trkpt lat="48.91399" lon="2.38201">
        <ele>41.400001525879</ele>
        <time>2015-12-07T20:20:24Z</time>
      </trkpt>
      <trkpt lat="48.91392" lon="2.38225">
        <ele>41.599998474121</ele>
        <time>2015-12-07T20:20:29Z</time>
      </trkpt>
      <trkpt lat="48.91388" lon="2.38256">
        <ele>41.599998474121</ele>
        <time>2015-12-07T20:20:34Z</time>
      </trkpt>
      <trkpt lat="48.91384" lon="2.38287">
        <ele>41.599998474121</ele>
        <time>2015-12-07T20:20:39Z</time>
      </trkpt>
      <trkpt lat="48.91376" lon="2.38313">
        <ele>41.79999923706</ele>
        <time>2015-12-07T20:20:44Z</time>
      </trkpt>
      <trkpt lat="48.91369" lon="2.38346">
        <ele>41.599998474121</ele>
        <time>2015-12-07T20:20:49Z</time>
      </trkpt>
      <trkpt lat="48.91368" lon="2.38379">
        <ele>41.20000076294</ele>
        <time>2015-12-07T20:20:53Z</time>
      </trkpt>
      <trkpt lat="48.91372" lon="2.38414">
        <ele>40.79999923706</ele>
        <time>2015-12-07T20:20:57Z</time>
      </trkpt>
      <trkpt lat="48.91374" lon="2.38442">
        <ele>40.20000076294</ele>
        <time>2015-12-07T20:21:00Z</time>
      </trkpt>
      <trkpt lat="48.91374" lon="2.38458">
        <ele>40</ele>
        <time>2015-12-07T20:21:02Z</time>
      </trkpt>
      <trkpt lat="48.91372" lon="2.38492">
        <ele>39.79999923706</ele>
        <time>2015-12-07T20:21:06Z</time>
      </trkpt>
      <trkpt lat="48.9137" lon="2.38523">
        <ele>39.79999923706</ele>
        <time>2015-12-07T20:21:10Z</time>
      </trkpt>
      <trkpt lat="48.91369" lon="2.38541">
        <ele>39.400001525879</ele>
        <time>2015-12-07T20:21:13Z</time>
      </trkpt>
      <trkpt lat="48.91365" lon="2.38564">
        <ele>39.20000076294</ele>
        <time>2015-12-07T20:21:18Z</time>
      </trkpt>
      <trkpt lat="48.91357" lon="2.38593">
        <ele>38.79999923706</ele>
        <time>2015-12-07T20:21:23Z</time>
      </trkpt>
      <trkpt lat="48.91356" lon="2.386">
        <ele>38.79999923706</ele>
        <time>2015-12-07T20:21:24Z</time>
      </trkpt>
      <trkpt lat="48.91352" lon="2.3862">
        <ele>38.599998474121</ele>
        <time>2015-12-07T20:21:27Z</time>
      </trkpt>
      <trkpt lat="48.91348" lon="2.3864">
        <ele>38.20000076294</ele>
        <time>2015-12-07T20:21:30Z</time>
      </trkpt>
      <trkpt lat="48.9134" lon="2.38665">
        <ele>38.20000076294</ele>
        <time>2015-12-07T20:21:34Z</time>
      </trkpt>
      <trkpt lat="48.91337" lon="2.38681">
        <ele>38.20000076294</ele>
        <time>2015-12-07T20:21:36Z</time>
      </trkpt>
      <trkpt lat="48.91331" lon="2.38712">
        <ele>38.400001525879</ele>
        <time>2015-12-07T20:21:40Z</time>
      </trkpt>
      <trkpt lat="48.91326" lon="2.38742">
        <ele>38.400001525879</ele>
        <time>2015-12-07T20:21:44Z</time>
      </trkpt>
      <trkpt lat="48.91324" lon="2.38771">
        <ele>38.400001525879</ele>
        <time>2015-12-07T20:21:48Z</time>
      </trkpt>
      <trkpt lat="48.91324" lon="2.38791">
        <ele>38.400001525879</ele>
        <time>2015-12-07T20:21:51Z</time>
      </trkpt>
      <trkpt lat="48.91323" lon="2.38817">
        <ele>38.400001525879</ele>
        <time>2015-12-07T20:21:55Z</time>
      </trkpt>
      <trkpt lat="48.9132" lon="2.38847">
        <ele>38.79999923706</ele>
        <time>2015-12-07T20:22:00Z</time>
      </trkpt>
      <trkpt lat="48.91319" lon="2.38857">
        <ele>39</ele>
        <time>2015-12-07T20:22:02Z</time>
      </trkpt>
      <trkpt lat="48.91304" lon="2.3887">
        <ele>39.400001525879</ele>
        <time>2015-12-07T20:22:08Z</time>
      </trkpt>
      <trkpt lat="48.913" lon="2.38869">
        <ele>39.400001525879</ele>
        <time>2015-12-07T20:22:09Z</time>
      </trkpt>
      <trkpt lat="48.91291" lon="2.38869">
        <ele>39.20000076294</ele>
        <time>2015-12-07T20:22:11Z</time>
      </trkpt>
      <trkpt lat="48.91276" lon="2.38868">
        <ele>39</ele>
        <time>2015-12-07T20:22:14Z</time>
      </trkpt>
      <trkpt lat="48.91257" lon="2.38864">
        <ele>39.20000076294</ele>
        <time>2015-12-07T20:22:17Z</time>
      </trkpt>
      <trkpt lat="48.91236" lon="2.38859">
        <ele>39.400001525879</ele>
        <time>2015-12-07T20:22:20Z</time>
      </trkpt>
      <trkpt lat="48.91218" lon="2.38854">
        <ele>39.599998474121</ele>
        <time>2015-12-07T20:22:23Z</time>
      </trkpt>
      <trkpt lat="48.91199" lon="2.38848">
        <ele>39.79999923706</ele>
        <time>2015-12-07T20:22:26Z</time>
      </trkpt>
      <trkpt lat="48.91178" lon="2.38844">
        <ele>40</ele>
        <time>2015-12-07T20:22:29Z</time>
      </trkpt>
      <trkpt lat="48.91157" lon="2.38839">
        <ele>40</ele>
        <time>2015-12-07T20:22:32Z</time>
      </trkpt>
      <trkpt lat="48.91138" lon="2.38835">
        <ele>40</ele>
        <time>2015-12-07T20:22:35Z</time>
      </trkpt>
      <trkpt lat="48.91121" lon="2.38833">
        <ele>40</ele>
        <time>2015-12-07T20:22:38Z</time>
      </trkpt>
      <trkpt lat="48.91103" lon="2.38829">
        <ele>40</ele>
        <time>2015-12-07T20:22:42Z</time>
      </trkpt>
      <trkpt lat="48.91092" lon="2.38824">
        <ele>40.20000076294</ele>
        <time>2015-12-07T20:22:45Z</time>
      </trkpt>
      <trkpt lat="48.91074" lon="2.38816">
        <ele>40.400001525879</ele>
        <time>2015-12-07T20:22:50Z</time>
      </trkpt>
      <trkpt lat="48.91061" lon="2.38812">
        <ele>40.599998474121</ele>
        <time>2015-12-07T20:22:54Z</time>
      </trkpt>
      <trkpt lat="48.91046" lon="2.38811">
        <ele>41</ele>
        <time>2015-12-07T20:22:58Z</time>
      </trkpt>
      <trkpt lat="48.91038" lon="2.38811">
        <ele>41.20000076294</ele>
        <time>2015-12-07T20:23:00Z</time>
      </trkpt>
      <trkpt lat="48.91018" lon="2.38806">
        <ele>41.400001525879</ele>
        <time>2015-12-07T20:23:05Z</time>
      </trkpt>
      <trkpt lat="48.91001" lon="2.38806">
        <ele>41.599998474121</ele>
        <time>2015-12-07T20:23:09Z</time>
      </trkpt>
      <trkpt lat="48.90983" lon="2.38808">
        <ele>42</ele>
        <time>2015-12-07T20:23:13Z</time>
      </trkpt>
      <trkpt lat="48.90978" lon="2.38808">
        <ele>42</ele>
        <time>2015-12-07T20:23:14Z</time>
      </trkpt>
      <trkpt lat="48.90959" lon="2.3881">
        <ele>42.20000076294</ele>
        <time>2015-12-07T20:23:18Z</time>
      </trkpt>
      <trkpt lat="48.90941" lon="2.38812">
        <ele>42.599998474121</ele>
        <time>2015-12-07T20:23:24Z</time>
      </trkpt>
      <trkpt lat="48.90922" lon="2.38813">
        <ele>42.79999923706</ele>
        <time>2015-12-07T20:23:43Z</time>
      </trkpt>
      <trkpt lat="48.90901" lon="2.38812">
        <ele>43</ele>
        <time>2015-12-07T20:23:47Z</time>
      </trkpt>
      <trkpt lat="48.90878" lon="2.38812">
        <ele>43.20000076294</ele>
        <time>2015-12-07T20:23:51Z</time>
      </trkpt>
      <trkpt lat="48.90855" lon="2.3881">
        <ele>43.400001525879</ele>
        <time>2015-12-07T20:23:55Z</time>
      </trkpt>
      <trkpt lat="48.90834" lon="2.38809">
        <ele>43.20000076294</ele>
        <time>2015-12-07T20:23:59Z</time>
      </trkpt>
      <trkpt lat="48.90816" lon="2.38803">
        <ele>43</ele>
        <time>2015-12-07T20:24:04Z</time>
      </trkpt>
      <trkpt lat="48.90813" lon="2.38802">
        <ele>43</ele>
        <time>2015-12-07T20:24:05Z</time>
      </trkpt>
      <trkpt lat="48.90799" lon="2.38787">
        <ele>42.400001525879</ele>
        <time>2015-12-07T20:24:22Z</time>
      </trkpt>
      <trkpt lat="48.90782" lon="2.38794">
        <ele>42.599998474121</ele>
        <time>2015-12-07T20:24:32Z</time>
      </trkpt>
      <trkpt lat="48.90762" lon="2.38783">
        <ele>42.400001525879</ele>
        <time>2015-12-07T20:24:39Z</time>
      </trkpt>
      <trkpt lat="48.90742" lon="2.38782">
        <ele>42.599998474121</ele>
        <time>2015-12-07T20:24:44Z</time>
      </trkpt>
      <trkpt lat="48.90723" lon="2.3878">
        <ele>42.79999923706</ele>
        <time>2015-12-07T20:24:48Z</time>
      </trkpt>
      <trkpt lat="48.90702" lon="2.38774">
        <ele>42.20000076294</ele>
        <time>2015-12-07T20:24:53Z</time>
      </trkpt>
      <trkpt lat="48.90683" lon="2.38767">
        <ele>42.20000076294</ele>
        <time>2015-12-07T20:24:58Z</time>
      </trkpt>
      <trkpt lat="48.90663" lon="2.3876">
        <ele>43</ele>
        <time>2015-12-07T20:25:05Z</time>
      </trkpt>
      <trkpt lat="48.90643" lon="2.38755">
        <ele>43.79999923706</ele>
        <time>2015-12-07T20:25:11Z</time>
      </trkpt>
      <trkpt lat="48.90623" lon="2.38751">
        <ele>44.400001525879</ele>
        <time>2015-12-07T20:25:15Z</time>
      </trkpt>
      <trkpt lat="48.90604" lon="2.38746">
        <ele>45</ele>
        <time>2015-12-07T20:25:19Z</time>
      </trkpt>
      <trkpt lat="48.90583" lon="2.38744">
        <ele>44.599998474121</ele>
        <time>2015-12-07T20:25:23Z</time>
      </trkpt>
      <trkpt lat="48.90568" lon="2.38744">
        <ele>44.400001525879</ele>
        <time>2015-12-07T20:25:27Z</time>
      </trkpt>
      <trkpt lat="48.90552" lon="2.38738">
        <ele>44</ele>
        <time>2015-12-07T20:25:32Z</time>
      </trkpt>
      <trkpt lat="48.90533" lon="2.38728">
        <ele>43.599998474121</ele>
        <time>2015-12-07T20:25:35Z</time>
      </trkpt>
      <trkpt lat="48.90527" lon="2.38727">
        <ele>43.599998474121</ele>
        <time>2015-12-07T20:25:36Z</time>
      </trkpt>
      <trkpt lat="48.90514" lon="2.38725">
        <ele>43.599998474121</ele>
        <time>2015-12-07T20:25:39Z</time>
      </trkpt>
      <trkpt lat="48.90493" lon="2.3872">
        <ele>43.599998474121</ele>
        <time>2015-12-07T20:25:44Z</time>
      </trkpt>
      <trkpt lat="48.90484" lon="2.38717">
        <ele>43.79999923706</ele>
        <time>2015-12-07T20:25:46Z</time>
      </trkpt>
      <trkpt lat="48.90466" lon="2.38709">
        <ele>43.79999923706</ele>
        <time>2015-12-07T20:25:50Z</time>
      </trkpt>
      <trkpt lat="48.9045" lon="2.38704">
        <ele>43.79999923706</ele>
        <time>2015-12-07T20:25:54Z</time>
      </trkpt>
      <trkpt lat="48.90429" lon="2.38695">
        <ele>44.400001525879</ele>
        <time>2015-12-07T20:25:59Z</time>
      </trkpt>
      <trkpt lat="48.90409" lon="2.38688">
        <ele>45.400001525879</ele>
        <time>2015-12-07T20:26:04Z</time>
      </trkpt>
      <trkpt lat="48.90391" lon="2.38681">
        <ele>46.400001525879</ele>
        <time>2015-12-07T20:26:09Z</time>
      </trkpt>
      <trkpt lat="48.90385" lon="2.38677">
        <ele>46.599998474121</ele>
        <time>2015-12-07T20:26:11Z</time>
      </trkpt>
      <trkpt lat="48.90366" lon="2.38664">
        <ele>47.400001525879</ele>
        <time>2015-12-07T20:26:17Z</time>
      </trkpt>
      <trkpt lat="48.90362" lon="2.38659">
        <ele>47.400001525879</ele>
        <time>2015-12-07T20:26:20Z</time>
      </trkpt>
      <trkpt lat="48.90344" lon="2.3865">
        <ele>47.79999923706</ele>
        <time>2015-12-07T20:26:28Z</time>
      </trkpt>
      <trkpt lat="48.90327" lon="2.38638">
        <ele>48.20000076294</ele>
        <time>2015-12-07T20:26:32Z</time>
      </trkpt>
      <trkpt lat="48.90309" lon="2.38625">
        <ele>48.599998474121</ele>
        <time>2015-12-07T20:26:38Z</time>
      </trkpt>
      <trkpt lat="48.90291" lon="2.38614">
        <ele>49.400001525879</ele>
        <time>2015-12-07T20:26:43Z</time>
      </trkpt>
      <trkpt lat="48.90273" lon="2.38604">
        <ele>50.20000076294</ele>
        <time>2015-12-07T20:26:48Z</time>
      </trkpt>
      <trkpt lat="48.90254" lon="2.38591">
        <ele>49.20000076294</ele>
        <time>2015-12-07T20:26:55Z</time>
      </trkpt>
      <trkpt lat="48.90235" lon="2.3858">
        <ele>48.400001525879</ele>
        <time>2015-12-07T20:27:01Z</time>
      </trkpt>
      <trkpt lat="48.90216" lon="2.38579">
        <ele>48.599998474121</ele>
        <time>2015-12-07T20:27:07Z</time>
      </trkpt>
      <trkpt lat="48.90198" lon="2.3857">
        <ele>48.400001525879</ele>
        <time>2015-12-07T20:27:10Z</time>
      </trkpt>
      <trkpt lat="48.90182" lon="2.38556">
        <ele>48.20000076294</ele>
        <time>2015-12-07T20:27:13Z</time>
      </trkpt>
      <trkpt lat="48.90175" lon="2.3855">
        <ele>48.20000076294</ele>
        <time>2015-12-07T20:27:17Z</time>
      </trkpt>
      <trkpt lat="48.90169" lon="2.38546">
        <ele>48.20000076294</ele>
        <time>2015-12-07T20:27:25Z</time>
      </trkpt>
      <trkpt lat="48.90166" lon="2.38549">
        <ele>48.599998474121</ele>
        <time>2015-12-07T20:27:29Z</time>
      </trkpt>
      <trkpt lat="48.90173" lon="2.3853">
        <ele>47.400001525879</ele>
        <time>2015-12-07T20:28:03Z</time>
      </trkpt>
      <trkpt lat="48.90175" lon="2.38525">
        <ele>47</ele>
        <time>2015-12-07T20:28:06Z</time>
      </trkpt>
      <trkpt lat="48.90191" lon="2.38507">
        <ele>45.400001525879</ele>
        <time>2015-12-07T20:28:20Z</time>
      </trkpt>
      <trkpt lat="48.90207" lon="2.3849">
        <ele>45.400001525879</ele>
        <time>2015-12-07T20:28:28Z</time>
      </trkpt>
      <trkpt lat="48.90225" lon="2.38471">
        <ele>45.599998474121</ele>
        <time>2015-12-07T20:28:37Z</time>
      </trkpt>
      <trkpt lat="48.90241" lon="2.3845">
        <ele>45.400001525879</ele>
        <time>2015-12-07T20:28:43Z</time>
      </trkpt>
      <trkpt lat="48.90244" lon="2.38445">
        <ele>45.400001525879</ele>
        <time>2015-12-07T20:28:44Z</time>
      </trkpt>
      <trkpt lat="48.9026" lon="2.38427">
        <ele>45.20000076294</ele>
        <time>2015-12-07T20:28:48Z</time>
      </trkpt>
      <trkpt lat="48.90275" lon="2.38411">
        <ele>45</ele>
        <time>2015-12-07T20:28:51Z</time>
      </trkpt>
      <trkpt lat="48.90289" lon="2.38394">
        <ele>45</ele>
        <time>2015-12-07T20:28:54Z</time>
      </trkpt>
      <trkpt lat="48.90298" lon="2.38383">
        <ele>45.20000076294</ele>
        <time>2015-12-07T20:28:56Z</time>
      </trkpt>
      <trkpt lat="48.90312" lon="2.38362">
        <ele>45</ele>
        <time>2015-12-07T20:29:00Z</time>
      </trkpt>
      <trkpt lat="48.90328" lon="2.38342">
        <ele>44.599998474121</ele>
        <time>2015-12-07T20:29:04Z</time>
      </trkpt>
      <trkpt lat="48.90333" lon="2.38338">
        <ele>44.599998474121</ele>
        <time>2015-12-07T20:29:05Z</time>
      </trkpt>
      <trkpt lat="48.9035" lon="2.38321">
        <ele>44.599998474121</ele>
        <time>2015-12-07T20:29:09Z</time>
      </trkpt>
      <trkpt lat="48.90359" lon="2.38312">
        <ele>44.400001525879</ele>
        <time>2015-12-07T20:29:11Z</time>
      </trkpt>
      <trkpt lat="48.90377" lon="2.38291">
        <ele>43.599998474121</ele>
        <time>2015-12-07T20:29:15Z</time>
      </trkpt>
      <trkpt lat="48.90396" lon="2.38271">
        <ele>42.79999923706</ele>
        <time>2015-12-07T20:29:19Z</time>
      </trkpt>
      <trkpt lat="48.9041" lon="2.38257">
        <ele>42.400001525879</ele>
        <time>2015-12-07T20:29:22Z</time>
      </trkpt>
      <trkpt lat="48.90429" lon="2.38239">
        <ele>42.20000076294</ele>
        <time>2015-12-07T20:29:26Z</time>
      </trkpt>
      <trkpt lat="48.90446" lon="2.38221">
        <ele>42.400001525879</ele>
        <time>2015-12-07T20:29:30Z</time>
      </trkpt>
      <trkpt lat="48.90465" lon="2.38202">
        <ele>42.79999923706</ele>
        <time>2015-12-07T20:29:34Z</time>
      </trkpt>
      <trkpt lat="48.90469" lon="2.38197">
        <ele>43</ele>
        <time>2015-12-07T20:29:35Z</time>
      </trkpt>
      <trkpt lat="48.90486" lon="2.38178">
        <ele>43</ele>
        <time>2015-12-07T20:29:39Z</time>
      </trkpt>
      <trkpt lat="48.90503" lon="2.38159">
        <ele>43</ele>
        <time>2015-12-07T20:29:43Z</time>
      </trkpt>
      <trkpt lat="48.90512" lon="2.38151">
        <ele>42.79999923706</ele>
        <time>2015-12-07T20:29:45Z</time>
      </trkpt>
      <trkpt lat="48.9053" lon="2.38131">
        <ele>43.599998474121</ele>
        <time>2015-12-07T20:29:49Z</time>
      </trkpt>
      <trkpt lat="48.90547" lon="2.38115">
        <ele>44.400001525879</ele>
        <time>2015-12-07T20:29:52Z</time>
      </trkpt>
      <trkpt lat="48.90565" lon="2.38097">
        <ele>44.599998474121</ele>
        <time>2015-12-07T20:29:55Z</time>
      </trkpt>
      <trkpt lat="48.90583" lon="2.38076">
        <ele>44.599998474121</ele>
        <time>2015-12-07T20:29:58Z</time>
      </trkpt>
      <trkpt lat="48.90595" lon="2.38062">
        <ele>44.79999923706</ele>
        <time>2015-12-07T20:30:00Z</time>
      </trkpt>
      <trkpt lat="48.90608" lon="2.3805">
        <ele>45</ele>
        <time>2015-12-07T20:30:02Z</time>
      </trkpt>
      <trkpt lat="48.90621" lon="2.38038">
        <ele>45</ele>
        <time>2015-12-07T20:30:04Z</time>
      </trkpt>
      <trkpt lat="48.9064" lon="2.3802">
        <ele>44.79999923706</ele>
        <time>2015-12-07T20:30:07Z</time>
      </trkpt>
      <trkpt lat="48.90654" lon="2.38007">
        <ele>44.599998474121</ele>
        <time>2015-12-07T20:30:09Z</time>
      </trkpt>
      <trkpt lat="48.90674" lon="2.37988">
        <ele>44</ele>
        <time>2015-12-07T20:30:12Z</time>
      </trkpt>
      <trkpt lat="48.90694" lon="2.37968">
        <ele>44</ele>
        <time>2015-12-07T20:30:15Z</time>
      </trkpt>
      <trkpt lat="48.90713" lon="2.37949">
        <ele>44.20000076294</ele>
        <time>2015-12-07T20:30:18Z</time>
      </trkpt>
      <trkpt lat="48.90732" lon="2.37929">
        <ele>44.400001525879</ele>
        <time>2015-12-07T20:30:21Z</time>
      </trkpt>
      <trkpt lat="48.9075" lon="2.3791">
        <ele>44.599998474121</ele>
        <time>2015-12-07T20:30:24Z</time>
      </trkpt>
      <trkpt lat="48.90768" lon="2.37892">
        <ele>44.599998474121</ele>
        <time>2015-12-07T20:30:27Z</time>
      </trkpt>
      <trkpt lat="48.90784" lon="2.37876">
        <ele>44.400001525879</ele>
        <time>2015-12-07T20:30:30Z</time>
      </trkpt>
      <trkpt lat="48.90802" lon="2.37856">
        <ele>43.79999923706</ele>
        <time>2015-12-07T20:30:34Z</time>
      </trkpt>
      <trkpt lat="48.9082" lon="2.37838">
        <ele>44</ele>
        <time>2015-12-07T20:30:38Z</time>
      </trkpt>
      <trkpt lat="48.90835" lon="2.37823">
        <ele>43.79999923706</ele>
        <time>2015-12-07T20:30:42Z</time>
      </trkpt>
      <trkpt lat="48.90839" lon="2.3782">
        <ele>43.79999923706</ele>
        <time>2015-12-07T20:30:43Z</time>
      </trkpt>
      <trkpt lat="48.90847" lon="2.37816">
        <ele>43.79999923706</ele>
        <time>2015-12-07T20:30:45Z</time>
      </trkpt>
      <trkpt lat="48.90863" lon="2.37817">
        <ele>44</ele>
        <time>2015-12-07T20:30:49Z</time>
      </trkpt>
      <trkpt lat="48.90873" lon="2.37822">
        <ele>44</ele>
        <time>2015-12-07T20:30:52Z</time>
      </trkpt>
      <trkpt lat="48.90881" lon="2.37809">
        <ele>44</ele>
        <time>2015-12-07T20:31:26Z</time>
      </trkpt>
      <trkpt lat="48.90886" lon="2.37782">
        <ele>43.79999923706</ele>
        <time>2015-12-07T20:31:33Z</time>
      </trkpt>
      <trkpt lat="48.9089" lon="2.37775">
        <ele>43.599998474121</ele>
        <time>2015-12-07T20:31:35Z</time>
      </trkpt>
      <trkpt lat="48.90905" lon="2.3776">
        <ele>42.400001525879</ele>
        <time>2015-12-07T20:31:40Z</time>
      </trkpt>
      <trkpt lat="48.90925" lon="2.37743">
        <ele>41.400001525879</ele>
        <time>2015-12-07T20:31:45Z</time>
      </trkpt>
      <trkpt lat="48.90942" lon="2.37725">
        <ele>40.79999923706</ele>
        <time>2015-12-07T20:31:49Z</time>
      </trkpt>
      <trkpt lat="48.90961" lon="2.37703">
        <ele>41</ele>
        <time>2015-12-07T20:31:53Z</time>
      </trkpt>
      <trkpt lat="48.9098" lon="2.37683">
        <ele>40.599998474121</ele>
        <time>2015-12-07T20:31:56Z</time>
      </trkpt>
      <trkpt lat="48.91002" lon="2.37664">
        <ele>40</ele>
        <time>2015-12-07T20:31:59Z</time>
      </trkpt>
      <trkpt lat="48.91024" lon="2.37642">
        <ele>39.400001525879</ele>
        <time>2015-12-07T20:32:02Z</time>
      </trkpt>
      <trkpt lat="48.91047" lon="2.37621">
        <ele>39.20000076294</ele>
        <time>2015-12-07T20:32:05Z</time>
      </trkpt>
      <trkpt lat="48.91064" lon="2.37608">
        <ele>39.20000076294</ele>
        <time>2015-12-07T20:32:07Z</time>
      </trkpt>
      <trkpt lat="48.91081" lon="2.37594">
        <ele>39.599998474121</ele>
        <time>2015-12-07T20:32:09Z</time>
      </trkpt>
      <trkpt lat="48.91097" lon="2.37579">
        <ele>39.79999923706</ele>
        <time>2015-12-07T20:32:11Z</time>
      </trkpt>
      <trkpt lat="48.9112" lon="2.37557">
        <ele>39.599998474121</ele>
        <time>2015-12-07T20:32:14Z</time>
      </trkpt>
      <trkpt lat="48.91144" lon="2.37537">
        <ele>39.400001525879</ele>
        <time>2015-12-07T20:32:17Z</time>
      </trkpt>
      <trkpt lat="48.91168" lon="2.3752">
        <ele>40.20000076294</ele>
        <time>2015-12-07T20:32:20Z</time>
      </trkpt>
      <trkpt lat="48.91189" lon="2.37502">
        <ele>41</ele>
        <time>2015-12-07T20:32:23Z</time>
      </trkpt>
      <trkpt lat="48.91213" lon="2.37485">
        <ele>40.400001525879</ele>
        <time>2015-12-07T20:32:26Z</time>
      </trkpt>
      <trkpt lat="48.9123" lon="2.37474">
        <ele>39.79999923706</ele>
        <time>2015-12-07T20:32:28Z</time>
      </trkpt>
      <trkpt lat="48.91246" lon="2.37464">
        <ele>39.400001525879</ele>
        <time>2015-12-07T20:32:30Z</time>
      </trkpt>
      <trkpt lat="48.91266" lon="2.37451">
        <ele>38.79999923706</ele>
        <time>2015-12-07T20:32:33Z</time>
      </trkpt>
      <trkpt lat="48.91271" lon="2.37447">
        <ele>38.79999923706</ele>
        <time>2015-12-07T20:32:34Z</time>
      </trkpt>
      <trkpt lat="48.91291" lon="2.37431">
        <ele>38.599998474121</ele>
        <time>2015-12-07T20:32:38Z</time>
      </trkpt>
      <trkpt lat="48.91312" lon="2.37417">
        <ele>38.599998474121</ele>
        <time>2015-12-07T20:32:42Z</time>
      </trkpt>
      <trkpt lat="48.91331" lon="2.37403">
        <ele>38.400001525879</ele>
        <time>2015-12-07T20:32:46Z</time>
      </trkpt>
      <trkpt lat="48.91349" lon="2.37391">
        <ele>38.20000076294</ele>
        <time>2015-12-07T20:32:50Z</time>
      </trkpt>
      <trkpt lat="48.91369" lon="2.37379">
        <ele>38.20000076294</ele>
        <time>2015-12-07T20:32:55Z</time>
      </trkpt>
      <trkpt lat="48.91377" lon="2.37376">
        <ele>38.20000076294</ele>
        <time>2015-12-07T20:32:57Z</time>
      </trkpt>
      <trkpt lat="48.91387" lon="2.37373">
        <ele>38.400001525879</ele>
        <time>2015-12-07T20:33:00Z</time>
      </trkpt>
      <trkpt lat="48.91405" lon="2.37377">
        <ele>38.599998474121</ele>
        <time>2015-12-07T20:33:05Z</time>
      </trkpt>
      <trkpt lat="48.91426" lon="2.3738">
        <ele>38.79999923706</ele>
        <time>2015-12-07T20:33:10Z</time>
      </trkpt>
      <trkpt lat="48.91434" lon="2.37382">
        <ele>39</ele>
        <time>2015-12-07T20:33:12Z</time>
      </trkpt>
      <trkpt lat="48.91443" lon="2.37383">
        <ele>39</ele>
        <time>2015-12-07T20:33:14Z</time>
      </trkpt>
      <trkpt lat="48.91458" lon="2.37384">
        <ele>38.599998474121</ele>
        <time>2015-12-07T20:33:17Z</time>
      </trkpt>
      <trkpt lat="48.91477" lon="2.37387">
        <ele>38.20000076294</ele>
        <time>2015-12-07T20:33:21Z</time>
      </trkpt>
      <trkpt lat="48.91495" lon="2.3739">
        <ele>37.599998474121</ele>
        <time>2015-12-07T20:33:25Z</time>
      </trkpt>
      <trkpt lat="48.91514" lon="2.37398">
        <ele>37.20000076294</ele>
        <time>2015-12-07T20:33:31Z</time>
      </trkpt>
      <trkpt lat="48.91528" lon="2.37412">
        <ele>37</ele>
        <time>2015-12-07T20:34:12Z</time>
      </trkpt>
      <trkpt lat="48.91546" lon="2.37416">
        <ele>37</ele>
        <time>2015-12-07T20:34:18Z</time>
      </trkpt>
      <trkpt lat="48.91566" lon="2.37422">
        <ele>37</ele>
        <time>2015-12-07T20:34:24Z</time>
      </trkpt>
      <trkpt lat="48.91583" lon="2.37434">
        <ele>37</ele>
        <time>2015-12-07T20:34:29Z</time>
      </trkpt>
      <trkpt lat="48.916" lon="2.37449">
        <ele>37</ele>
        <time>2015-12-07T20:34:34Z</time>
      </trkpt>
      <trkpt lat="48.91616" lon="2.37465">
        <ele>37</ele>
        <time>2015-12-07T20:34:38Z</time>
      </trkpt>
      <trkpt lat="48.91631" lon="2.37486">
        <ele>37</ele>
        <time>2015-12-07T20:34:43Z</time>
      </trkpt>
      <trkpt lat="48.91649" lon="2.37496">
        <ele>37</ele>
        <time>2015-12-07T20:34:49Z</time>
      </trkpt>
      <trkpt lat="48.91668" lon="2.37495">
        <ele>37</ele>
        <time>2015-12-07T20:34:54Z</time>
      </trkpt>
      <trkpt lat="48.91688" lon="2.37494">
        <ele>37</ele>
        <time>2015-12-07T20:34:59Z</time>
      </trkpt>
      <trkpt lat="48.91708" lon="2.37492">
        <ele>37</ele>
        <time>2015-12-07T20:35:04Z</time>
      </trkpt>
      <trkpt lat="48.91729" lon="2.37485">
        <ele>37</ele>
        <time>2015-12-07T20:35:08Z</time>
      </trkpt>
      <trkpt lat="48.9175" lon="2.37481">
        <ele>37</ele>
        <time>2015-12-07T20:35:12Z</time>
      </trkpt>
      <trkpt lat="48.91757" lon="2.37479">
        <ele>37</ele>
        <time>2015-12-07T20:35:14Z</time>
      </trkpt>
      <trkpt lat="48.91777" lon="2.37476">
        <ele>36.400001525879</ele>
        <time>2015-12-07T20:35:19Z</time>
      </trkpt>
      <trkpt lat="48.91782" lon="2.37474">
        <ele>36.400001525879</ele>
        <time>2015-12-07T20:35:21Z</time>
      </trkpt>
      <trkpt lat="48.91792" lon="2.37471">
        <ele>36.400001525879</ele>
        <time>2015-12-07T20:35:24Z</time>
      </trkpt>
      <trkpt lat="48.91804" lon="2.37466">
        <ele>36.20000076294</ele>
        <time>2015-12-07T20:35:28Z</time>
      </trkpt>
      <trkpt lat="48.91821" lon="2.37458">
        <ele>36</ele>
        <time>2015-12-07T20:35:33Z</time>
      </trkpt>
      <trkpt lat="48.9184" lon="2.37454">
        <ele>36.20000076294</ele>
        <time>2015-12-07T20:35:38Z</time>
      </trkpt>
      <trkpt lat="48.91859" lon="2.37449">
        <ele>36.400001525879</ele>
        <time>2015-12-07T20:35:43Z</time>
      </trkpt>
      <trkpt lat="48.91877" lon="2.37442">
        <ele>36</ele>
        <time>2015-12-07T20:35:48Z</time>
      </trkpt>
      <trkpt lat="48.91895" lon="2.37424">
        <ele>35.599998474121</ele>
        <time>2015-12-07T20:35:54Z</time>
      </trkpt>
      <trkpt lat="48.91911" lon="2.37401">
        <ele>35.400001525879</ele>
        <time>2015-12-07T20:35:59Z</time>
      </trkpt>
      <trkpt lat="48.91926" lon="2.37381">
        <ele>35.400001525879</ele>
        <time>2015-12-07T20:36:04Z</time>
      </trkpt>
      <trkpt lat="48.91943" lon="2.37358">
        <ele>35.599998474121</ele>
        <time>2015-12-07T20:36:09Z</time>
      </trkpt>
      <trkpt lat="48.91959" lon="2.37335">
        <ele>35.79999923706</ele>
        <time>2015-12-07T20:36:14Z</time>
      </trkpt>
      <trkpt lat="48.91973" lon="2.37314">
        <ele>35.599998474121</ele>
        <time>2015-12-07T20:36:18Z</time>
      </trkpt>
      <trkpt lat="48.91976" lon="2.37309">
        <ele>35.599998474121</ele>
        <time>2015-12-07T20:36:19Z</time>
      </trkpt>
      <trkpt lat="48.9199" lon="2.37283">
        <ele>35.20000076294</ele>
        <time>2015-12-07T20:36:23Z</time>
      </trkpt>
      <trkpt lat="48.92003" lon="2.37258">
        <ele>34.599998474121</ele>
        <time>2015-12-07T20:36:27Z</time>
      </trkpt>
      <trkpt lat="48.92013" lon="2.3724">
        <ele>34.400001525879</ele>
        <time>2015-12-07T20:36:30Z</time>
      </trkpt>
      <trkpt lat="48.9203" lon="2.37231">
        <ele>34.400001525879</ele>
        <time>2015-12-07T20:36:34Z</time>
      </trkpt>
      <trkpt lat="48.92042" lon="2.3725">
        <ele>34.79999923706</ele>
        <time>2015-12-07T20:36:38Z</time>
      </trkpt>
      <trkpt lat="48.92049" lon="2.37265">
        <ele>34.79999923706</ele>
        <time>2015-12-07T20:36:41Z</time>
      </trkpt>
      <trkpt lat="48.92067" lon="2.37268">
        <ele>35.599998474121</ele>
        <time>2015-12-07T20:36:47Z</time>
      </trkpt>
      <trkpt lat="48.92069" lon="2.37265">
        <ele>35.79999923706</ele>
        <time>2015-12-07T20:36:48Z</time>
      </trkpt>
      <trkpt lat="48.92071" lon="2.37262">
        <ele>36</ele>
        <time>2015-12-07T20:36:49Z</time>
      </trkpt>
      <trkpt lat="48.92071" lon="2.37239">
        <ele>36.400001525879</ele>
        <time>2015-12-07T20:36:54Z</time>
      </trkpt>
      <trkpt lat="48.92059" lon="2.37225">
        <ele>36</ele>
        <time>2015-12-07T20:37:01Z</time>
      </trkpt>
      <trkpt lat="48.92048" lon="2.37237">
        <ele>35.400001525879</ele>
        <time>2015-12-07T20:37:10Z</time>
      </trkpt>
      <trkpt lat="48.92049" lon="2.37257">
        <ele>35</ele>
        <time>2015-12-07T20:37:17Z</time>
      </trkpt>
      <trkpt lat="48.92063" lon="2.37272">
        <ele>35.400001525879</ele>
        <time>2015-12-07T20:37:28Z</time>
      </trkpt>
      <trkpt lat="48.92067" lon="2.37272">
        <ele>35.400001525879</ele>
        <time>2015-12-07T20:37:33Z</time>
      </trkpt>
      <trkpt lat="48.92062" lon="2.37298">
        <ele>35</ele>
        <time>2015-12-07T20:38:43Z</time>
      </trkpt>
      <trkpt lat="48.92066" lon="2.37327">
        <ele>35.400001525879</ele>
        <time>2015-12-07T20:38:49Z</time>
      </trkpt>
      <trkpt lat="48.92068" lon="2.3736">
        <ele>36.20000076294</ele>
        <time>2015-12-07T20:38:55Z</time>
      </trkpt>
      <trkpt lat="48.92074" lon="2.37387">
        <ele>36.79999923706</ele>
        <time>2015-12-07T20:38:59Z</time>
      </trkpt>
      <trkpt lat="48.92081" lon="2.37417">
        <ele>36.79999923706</ele>
        <time>2015-12-07T20:39:04Z</time>
      </trkpt>
      <trkpt lat="48.92087" lon="2.37445">
        <ele>37</ele>
        <time>2015-12-07T20:39:09Z</time>
      </trkpt>
      <trkpt lat="48.92092" lon="2.37474">
        <ele>37.20000076294</ele>
        <time>2015-12-07T20:39:14Z</time>
      </trkpt>
      <trkpt lat="48.92097" lon="2.37501">
        <ele>37.79999923706</ele>
        <time>2015-12-07T20:39:19Z</time>
      </trkpt>
      <trkpt lat="48.92104" lon="2.37527">
        <ele>37.599998474121</ele>
        <time>2015-12-07T20:39:24Z</time>
      </trkpt>
      <trkpt lat="48.92115" lon="2.3755">
        <ele>37.599998474121</ele>
        <time>2015-12-07T20:39:32Z</time>
      </trkpt>
      <trkpt lat="48.92119" lon="2.37577">
        <ele>37.400001525879</ele>
        <time>2015-12-07T20:39:43Z</time>
      </trkpt>
      <trkpt lat="48.92126" lon="2.37604">
        <ele>37.20000076294</ele>
        <time>2015-12-07T20:39:52Z</time>
      </trkpt>
      <trkpt lat="48.92128" lon="2.37633">
        <ele>36.599998474121</ele>
        <time>2015-12-07T20:39:58Z</time>
      </trkpt>
      <trkpt lat="48.92126" lon="2.37663">
        <ele>35.79999923706</ele>
        <time>2015-12-07T20:40:03Z</time>
      </trkpt>
      <trkpt lat="48.92113" lon="2.3769">
        <ele>35</ele>
        <time>2015-12-07T20:40:08Z</time>
      </trkpt>
      <trkpt lat="48.921" lon="2.37709">
        <ele>34.599998474121</ele>
        <time>2015-12-07T20:40:12Z</time>
      </trkpt>
      <trkpt lat="48.92084" lon="2.37725">
        <ele>34.599998474121</ele>
        <time>2015-12-07T20:40:16Z</time>
      </trkpt>
      <trkpt lat="48.92066" lon="2.37737">
        <ele>34.599998474121</ele>
        <time>2015-12-07T20:40:20Z</time>
      </trkpt>
      <trkpt lat="48.92048" lon="2.37749">
        <ele>34.79999923706</ele>
        <time>2015-12-07T20:40:24Z</time>
      </trkpt>
      <trkpt lat="48.9203" lon="2.37759">
        <ele>35</ele>
        <time>2015-12-07T20:40:28Z</time>
      </trkpt>
      <trkpt lat="48.92012" lon="2.37771">
        <ele>34.79999923706</ele>
        <time>2015-12-07T20:40:32Z</time>
      </trkpt>
      <trkpt lat="48.91994" lon="2.37785">
        <ele>34.599998474121</ele>
        <time>2015-12-07T20:40:36Z</time>
      </trkpt>
      <trkpt lat="48.91974" lon="2.37799">
        <ele>35</ele>
        <time>2015-12-07T20:40:40Z</time>
      </trkpt>
      <trkpt lat="48.91958" lon="2.37814">
        <ele>36</ele>
        <time>2015-12-07T20:40:44Z</time>
      </trkpt>
      <trkpt lat="48.9194" lon="2.37829">
        <ele>37</ele>
        <time>2015-12-07T20:40:48Z</time>
      </trkpt>
      <trkpt lat="48.9192" lon="2.37843">
        <ele>36.599998474121</ele>
        <time>2015-12-07T20:40:52Z</time>
      </trkpt>
      <trkpt lat="48.91899" lon="2.37856">
        <ele>36.20000076294</ele>
        <time>2015-12-07T20:40:56Z</time>
      </trkpt>
      <trkpt lat="48.91879" lon="2.37871">
        <ele>36</ele>
        <time>2015-12-07T20:41:00Z</time>
      </trkpt>
      <trkpt lat="48.9186" lon="2.37885">
        <ele>36</ele>
        <time>2015-12-07T20:41:04Z</time>
      </trkpt>
      <trkpt lat="48.91849" lon="2.37892">
        <ele>36</ele>
        <time>2015-12-07T20:41:06Z</time>
      </trkpt>
      <trkpt lat="48.91828" lon="2.37906">
        <ele>36</ele>
        <time>2015-12-07T20:41:10Z</time>
      </trkpt>
      <trkpt lat="48.91822" lon="2.3791">
        <ele>36</ele>
        <time>2015-12-07T20:41:11Z</time>
      </trkpt>
      <trkpt lat="48.91805" lon="2.3792">
        <ele>36</ele>
        <time>2015-12-07T20:41:14Z</time>
      </trkpt>
      <trkpt lat="48.91787" lon="2.37931">
        <ele>36</ele>
        <time>2015-12-07T20:41:17Z</time>
      </trkpt>
      <trkpt lat="48.91768" lon="2.37943">
        <ele>35.79999923706</ele>
        <time>2015-12-07T20:41:20Z</time>
      </trkpt>
      <trkpt lat="48.9175" lon="2.37954">
        <ele>35.400001525879</ele>
        <time>2015-12-07T20:41:23Z</time>
      </trkpt>
      <trkpt lat="48.91731" lon="2.37966">
        <ele>35.20000076294</ele>
        <time>2015-12-07T20:41:26Z</time>
      </trkpt>
      <trkpt lat="48.91713" lon="2.37978">
        <ele>35</ele>
        <time>2015-12-07T20:41:29Z</time>
      </trkpt>
      <trkpt lat="48.91701" lon="2.37986">
        <ele>35</ele>
        <time>2015-12-07T20:41:31Z</time>
      </trkpt>
      <trkpt lat="48.91684" lon="2.38">
        <ele>35</ele>
        <time>2015-12-07T20:41:34Z</time>
      </trkpt>
      <trkpt lat="48.91664" lon="2.38011">
        <ele>35.400001525879</ele>
        <time>2015-12-07T20:41:37Z</time>
      </trkpt>
      <trkpt lat="48.91646" lon="2.38023">
        <ele>35.79999923706</ele>
        <time>2015-12-07T20:41:40Z</time>
      </trkpt>
      <trkpt lat="48.91627" lon="2.38036">
        <ele>36</ele>
        <time>2015-12-07T20:41:43Z</time>
      </trkpt>
      <trkpt lat="48.91609" lon="2.38054">
        <ele>36</ele>
        <time>2015-12-07T20:41:46Z</time>
      </trkpt>
      <trkpt lat="48.91591" lon="2.38068">
        <ele>36.20000076294</ele>
        <time>2015-12-07T20:41:49Z</time>
      </trkpt>
      <trkpt lat="48.91567" lon="2.38081">
        <ele>36.400001525879</ele>
        <time>2015-12-07T20:41:52Z</time>
      </trkpt>
      <trkpt lat="48.91546" lon="2.38096">
        <ele>37</ele>
        <time>2015-12-07T20:41:55Z</time>
      </trkpt>
      <trkpt lat="48.91539" lon="2.381">
        <ele>37</ele>
        <time>2015-12-07T20:41:56Z</time>
      </trkpt>
      <trkpt lat="48.91522" lon="2.3811">
        <ele>38</ele>
        <time>2015-12-07T20:41:59Z</time>
      </trkpt>
      <trkpt lat="48.915" lon="2.38117">
        <ele>38.79999923706</ele>
        <time>2015-12-07T20:42:03Z</time>
      </trkpt>
      <trkpt lat="48.91487" lon="2.38124">
        <ele>39.400001525879</ele>
        <time>2015-12-07T20:42:06Z</time>
      </trkpt>
      <trkpt lat="48.91481" lon="2.38128">
        <ele>39.400001525879</ele>
        <time>2015-12-07T20:42:08Z</time>
      </trkpt>
      <trkpt lat="48.9147" lon="2.38143">
        <ele>39.400001525879</ele>
        <time>2015-12-07T20:42:15Z</time>
      </trkpt>
      <trkpt lat="48.91467" lon="2.38152">
        <ele>39.400001525879</ele>
        <time>2015-12-07T20:42:19Z</time>
      </trkpt>
      <trkpt lat="48.91454" lon="2.38168">
        <ele>39.20000076294</ele>
        <time>2015-12-07T20:42:27Z</time>
      </trkpt>
      <trkpt lat="48.91438" lon="2.38186">
        <ele>39.599998474121</ele>
        <time>2015-12-07T20:42:33Z</time>
      </trkpt>
      <trkpt lat="48.91421" lon="2.38201">
        <ele>40.599998474121</ele>
        <time>2015-12-07T20:42:39Z</time>
      </trkpt>
      <trkpt lat="48.91405" lon="2.38216">
        <ele>41.400001525879</ele>
        <time>2015-12-07T20:42:44Z</time>
      </trkpt>
      <trkpt lat="48.91389" lon="2.38231">
        <ele>41.599998474121</ele>
        <time>2015-12-07T20:42:49Z</time>
      </trkpt>
      <trkpt lat="48.91374" lon="2.38251">
        <ele>41.79999923706</ele>
        <time>2015-12-07T20:42:54Z</time>
      </trkpt>
      <trkpt lat="48.91358" lon="2.38271">
        <ele>42</ele>
        <time>2015-12-07T20:43:00Z</time>
      </trkpt>
      <trkpt lat="48.91339" lon="2.3829">
        <ele>42.400001525879</ele>
        <time>2015-12-07T20:43:05Z</time>
      </trkpt>
      <trkpt lat="48.91319" lon="2.38307">
        <ele>42.599998474121</ele>
        <time>2015-12-07T20:43:09Z</time>
      </trkpt>
      <trkpt lat="48.91298" lon="2.38316">
        <ele>42.400001525879</ele>
        <time>2015-12-07T20:43:12Z</time>
      </trkpt>
      <trkpt lat="48.91281" lon="2.38331">
        <ele>42</ele>
        <time>2015-12-07T20:43:16Z</time>
      </trkpt>
      <trkpt lat="48.91271" lon="2.38338">
        <ele>42</ele>
        <time>2015-12-07T20:43:20Z</time>
      </trkpt>
      <trkpt lat="48.9126" lon="2.38343">
        <ele>41.79999923706</ele>
        <time>2015-12-07T20:43:24Z</time>
      </trkpt>
      <trkpt lat="48.91244" lon="2.38356">
        <ele>41.79999923706</ele>
        <time>2015-12-07T20:43:29Z</time>
      </trkpt>
      <trkpt lat="48.91241" lon="2.3836">
        <ele>41.599998474121</ele>
        <time>2015-12-07T20:43:30Z</time>
      </trkpt>
      <trkpt lat="48.91226" lon="2.38376">
        <ele>41.400001525879</ele>
        <time>2015-12-07T20:43:34Z</time>
      </trkpt>
      <trkpt lat="48.91208" lon="2.38394">
        <ele>41.20000076294</ele>
        <time>2015-12-07T20:43:38Z</time>
      </trkpt>
      <trkpt lat="48.91192" lon="2.38412">
        <ele>41</ele>
        <time>2015-12-07T20:43:42Z</time>
      </trkpt>
      <trkpt lat="48.91173" lon="2.38431">
        <ele>41</ele>
        <time>2015-12-07T20:43:46Z</time>
      </trkpt>
      <trkpt lat="48.91154" lon="2.3845">
        <ele>41</ele>
        <time>2015-12-07T20:43:50Z</time>
      </trkpt>
      <trkpt lat="48.91137" lon="2.38469">
        <ele>41</ele>
        <time>2015-12-07T20:43:54Z</time>
      </trkpt>
      <trkpt lat="48.9112" lon="2.38487">
        <ele>41</ele>
        <time>2015-12-07T20:43:58Z</time>
      </trkpt>
      <trkpt lat="48.91103" lon="2.38505">
        <ele>41.400001525879</ele>
        <time>2015-12-07T20:44:03Z</time>
      </trkpt>
      <trkpt lat="48.91097" lon="2.38511">
        <ele>41.599998474121</ele>
        <time>2015-12-07T20:44:05Z</time>
      </trkpt>
      <trkpt lat="48.9108" lon="2.38522">
        <ele>42.599998474121</ele>
        <time>2015-12-07T20:44:12Z</time>
      </trkpt>
      <trkpt lat="48.91062" lon="2.38522">
        <ele>43</ele>
        <time>2015-12-07T20:44:38Z</time>
      </trkpt>
      <trkpt lat="48.9105" lon="2.38532">
        <ele>43.20000076294</ele>
        <time>2015-12-07T20:44:56Z</time>
      </trkpt>
      <trkpt lat="48.91034" lon="2.38553">
        <ele>42.599998474121</ele>
        <time>2015-12-07T20:45:03Z</time>
      </trkpt>
      <trkpt lat="48.9102" lon="2.3857">
        <ele>42</ele>
        <time>2015-12-07T20:45:08Z</time>
      </trkpt>
      <trkpt lat="48.91002" lon="2.38589">
        <ele>42</ele>
        <time>2015-12-07T20:45:13Z</time>
      </trkpt>
      <trkpt lat="48.90987" lon="2.38604">
        <ele>41.79999923706</ele>
        <time>2015-12-07T20:45:17Z</time>
      </trkpt>
      <trkpt lat="48.9097" lon="2.38622">
        <ele>41.599998474121</ele>
        <time>2015-12-07T20:45:21Z</time>
      </trkpt>
      <trkpt lat="48.90953" lon="2.38639">
        <ele>41.79999923706</ele>
        <time>2015-12-07T20:45:25Z</time>
      </trkpt>
      <trkpt lat="48.90937" lon="2.38655">
        <ele>42.400001525879</ele>
        <time>2015-12-07T20:45:29Z</time>
      </trkpt>
      <trkpt lat="48.90922" lon="2.38673">
        <ele>42.599998474121</ele>
        <time>2015-12-07T20:45:33Z</time>
      </trkpt>
      <trkpt lat="48.90905" lon="2.38691">
        <ele>43</ele>
        <time>2015-12-07T20:45:37Z</time>
      </trkpt>
      <trkpt lat="48.90885" lon="2.3871">
        <ele>43</ele>
        <time>2015-12-07T20:45:41Z</time>
      </trkpt>
      <trkpt lat="48.90867" lon="2.38727">
        <ele>42.599998474121</ele>
        <time>2015-12-07T20:45:45Z</time>
      </trkpt>
      <trkpt lat="48.90863" lon="2.38732">
        <ele>42.599998474121</ele>
        <time>2015-12-07T20:45:46Z</time>
      </trkpt>
      <trkpt lat="48.90854" lon="2.38741">
        <ele>42</ele>
        <time>2015-12-07T20:45:48Z</time>
      </trkpt>
      <trkpt lat="48.90842" lon="2.3875">
        <ele>41.79999923706</ele>
        <time>2015-12-07T20:45:51Z</time>
      </trkpt>
      <trkpt lat="48.90827" lon="2.38767">
        <ele>42</ele>
        <time>2015-12-07T20:45:55Z</time>
      </trkpt>
      <trkpt lat="48.9081" lon="2.38783">
        <ele>42.20000076294</ele>
        <time>2015-12-07T20:45:59Z</time>
      </trkpt>
      <trkpt lat="48.90795" lon="2.38798">
        <ele>42.79999923706</ele>
        <time>2015-12-07T20:46:03Z</time>
      </trkpt>
      <trkpt lat="48.9078" lon="2.38814">
        <ele>43.400001525879</ele>
        <time>2015-12-07T20:46:07Z</time>
      </trkpt>
      <trkpt lat="48.90762" lon="2.38826">
        <ele>43.79999923706</ele>
        <time>2015-12-07T20:46:12Z</time>
      </trkpt>
      <trkpt lat="48.9076" lon="2.38828">
        <ele>43.599998474121</ele>
        <time>2015-12-07T20:46:13Z</time>
      </trkpt>
      <trkpt lat="48.90746" lon="2.38846">
        <ele>43.599998474121</ele>
        <time>2015-12-07T20:46:18Z</time>
      </trkpt>
      <trkpt lat="48.90742" lon="2.3885">
        <ele>43.599998474121</ele>
        <time>2015-12-07T20:46:19Z</time>
      </trkpt>
      <trkpt lat="48.90732" lon="2.38857">
        <ele>43.599998474121</ele>
        <time>2015-12-07T20:46:21Z</time>
      </trkpt>
      <trkpt lat="48.90717" lon="2.38879">
        <ele>43.79999923706</ele>
        <time>2015-12-07T20:46:25Z</time>
      </trkpt>
      <trkpt lat="48.90712" lon="2.38883">
        <ele>43.79999923706</ele>
        <time>2015-12-07T20:46:26Z</time>
      </trkpt>
      <trkpt lat="48.90694" lon="2.389">
        <ele>43.79999923706</ele>
        <time>2015-12-07T20:46:30Z</time>
      </trkpt>
      <trkpt lat="48.90676" lon="2.38918">
        <ele>44</ele>
        <time>2015-12-07T20:46:34Z</time>
      </trkpt>
      <trkpt lat="48.90662" lon="2.38935">
        <ele>44.20000076294</ele>
        <time>2015-12-07T20:46:38Z</time>
      </trkpt>
      <trkpt lat="48.90645" lon="2.38954">
        <ele>44.400001525879</ele>
        <time>2015-12-07T20:46:43Z</time>
      </trkpt>
      <trkpt lat="48.9063" lon="2.38966">
        <ele>44.20000076294</ele>
        <time>2015-12-07T20:46:47Z</time>
      </trkpt>
      <trkpt lat="48.90611" lon="2.38981">
        <ele>44</ele>
        <time>2015-12-07T20:46:52Z</time>
      </trkpt>
      <trkpt lat="48.90597" lon="2.38992">
        <ele>44.400001525879</ele>
        <time>2015-12-07T20:46:55Z</time>
      </trkpt>
      <trkpt lat="48.90581" lon="2.39007">
        <ele>45</ele>
        <time>2015-12-07T20:46:59Z</time>
      </trkpt>
      <trkpt lat="48.90568" lon="2.39019">
        <ele>45.599998474121</ele>
        <time>2015-12-07T20:47:02Z</time>
      </trkpt>
      <trkpt lat="48.90552" lon="2.39034">
        <ele>46.20000076294</ele>
        <time>2015-12-07T20:47:06Z</time>
      </trkpt>
      <trkpt lat="48.90537" lon="2.39046">
        <ele>45.79999923706</ele>
        <time>2015-12-07T20:47:10Z</time>
      </trkpt>
      <trkpt lat="48.90523" lon="2.3906">
        <ele>45.599998474121</ele>
        <time>2015-12-07T20:47:14Z</time>
      </trkpt>
      <trkpt lat="48.90519" lon="2.39063">
        <ele>45.400001525879</ele>
        <time>2015-12-07T20:47:15Z</time>
      </trkpt>
      <trkpt lat="48.90504" lon="2.39078">
        <ele>45.599998474121</ele>
        <time>2015-12-07T20:47:20Z</time>
      </trkpt>
      <trkpt lat="48.90501" lon="2.39081">
        <ele>45.599998474121</ele>
        <time>2015-12-07T20:47:21Z</time>
      </trkpt>
      <trkpt lat="48.90493" lon="2.39088">
        <ele>45.79999923706</ele>
        <time>2015-12-07T20:47:23Z</time>
      </trkpt>
      <trkpt lat="48.90477" lon="2.39102">
        <ele>46.400001525879</ele>
        <time>2015-12-07T20:47:27Z</time>
      </trkpt>
      <trkpt lat="48.90463" lon="2.39116">
        <ele>46.79999923706</ele>
        <time>2015-12-07T20:47:31Z</time>
      </trkpt>
      <trkpt lat="48.90446" lon="2.39133">
        <ele>47</ele>
        <time>2015-12-07T20:47:35Z</time>
      </trkpt>
      <trkpt lat="48.90442" lon="2.39137">
        <ele>47</ele>
        <time>2015-12-07T20:47:36Z</time>
      </trkpt>
      <trkpt lat="48.90424" lon="2.39153">
        <ele>46.79999923706</ele>
        <time>2015-12-07T20:47:40Z</time>
      </trkpt>
      <trkpt lat="48.90408" lon="2.39167">
        <ele>46.20000076294</ele>
        <time>2015-12-07T20:47:44Z</time>
      </trkpt>
      <trkpt lat="48.90392" lon="2.39184">
        <ele>45.79999923706</ele>
        <time>2015-12-07T20:47:49Z</time>
      </trkpt>
      <trkpt lat="48.90388" lon="2.39186">
        <ele>45.79999923706</ele>
        <time>2015-12-07T20:47:50Z</time>
      </trkpt>
      <trkpt lat="48.90384" lon="2.39192">
        <ele>45.599998474121</ele>
        <time>2015-12-07T20:47:52Z</time>
      </trkpt>
      <trkpt lat="48.90375" lon="2.39191">
        <ele>45.79999923706</ele>
        <time>2015-12-07T20:47:56Z</time>
      </trkpt>
      <trkpt lat="48.90368" lon="2.39195">
        <ele>46</ele>
        <time>2015-12-07T20:48:00Z</time>
      </trkpt>
      <trkpt lat="48.90367" lon="2.39197">
        <ele>46</ele>
        <time>2015-12-07T20:48:01Z</time>
      </trkpt>
      <trkpt lat="48.90364" lon="2.39201">
        <ele>46.20000076294</ele>
        <time>2015-12-07T20:48:03Z</time>
      </trkpt>
      <trkpt lat="48.90355" lon="2.3919">
        <ele>46</ele>
        <time>2015-12-07T20:48:42Z</time>
      </trkpt>
      <trkpt lat="48.90339" lon="2.39174">
        <ele>45.599998474121</ele>
        <time>2015-12-07T20:48:47Z</time>
      </trkpt>
      <trkpt lat="48.90335" lon="2.39171">
        <ele>45.400001525879</ele>
        <time>2015-12-07T20:48:48Z</time>
      </trkpt>
      <trkpt lat="48.9032" lon="2.39154">
        <ele>45.400001525879</ele>
        <time>2015-12-07T20:48:52Z</time>
      </trkpt>
      <trkpt lat="48.903" lon="2.39138">
        <ele>45.599998474121</ele>
        <time>2015-12-07T20:48:57Z</time>
      </trkpt>
      <trkpt lat="48.90283" lon="2.39124">
        <ele>45.79999923706</ele>
        <time>2015-12-07T20:49:03Z</time>
      </trkpt>
      <trkpt lat="48.90265" lon="2.39109">
        <ele>46</ele>
        <time>2015-12-07T20:49:10Z</time>
      </trkpt>
      <trkpt lat="48.90248" lon="2.39095">
        <ele>46.400001525879</ele>
        <time>2015-12-07T20:49:16Z</time>
      </trkpt>
      <trkpt lat="48.90231" lon="2.39075">
        <ele>46.599998474121</ele>
        <time>2015-12-07T20:49:22Z</time>
      </trkpt>
      <trkpt lat="48.90215" lon="2.39058">
        <ele>46.599998474121</ele>
        <time>2015-12-07T20:49:27Z</time>
      </trkpt>
      <trkpt lat="48.902" lon="2.39041">
        <ele>46.79999923706</ele>
        <time>2015-12-07T20:49:32Z</time>
      </trkpt>
      <trkpt lat="48.90184" lon="2.39027">
        <ele>47.20000076294</ele>
        <time>2015-12-07T20:49:37Z</time>
      </trkpt>
      <trkpt lat="48.90167" lon="2.3901">
        <ele>47.79999923706</ele>
        <time>2015-12-07T20:49:42Z</time>
      </trkpt>
      <trkpt lat="48.90149" lon="2.38992">
        <ele>48.400001525879</ele>
        <time>2015-12-07T20:49:47Z</time>
      </trkpt>
      <trkpt lat="48.90133" lon="2.38976">
        <ele>49</ele>
        <time>2015-12-07T20:49:52Z</time>
      </trkpt>
      <trkpt lat="48.90115" lon="2.3896">
        <ele>49.79999923706</ele>
        <time>2015-12-07T20:49:58Z</time>
      </trkpt>
      <trkpt lat="48.90106" lon="2.38933">
        <ele>50</ele>
        <time>2015-12-07T20:50:04Z</time>
      </trkpt>
      <trkpt lat="48.901" lon="2.38901">
        <ele>49.599998474121</ele>
        <time>2015-12-07T20:50:10Z</time>
      </trkpt>
      <trkpt lat="48.90094" lon="2.38873">
        <ele>49.20000076294</ele>
        <time>2015-12-07T20:50:16Z</time>
      </trkpt>
      <trkpt lat="48.90095" lon="2.38843">
        <ele>49.400001525879</ele>
        <time>2015-12-07T20:50:22Z</time>
      </trkpt>
      <trkpt lat="48.90104" lon="2.38816">
        <ele>49.79999923706</ele>
        <time>2015-12-07T20:50:30Z</time>
      </trkpt>
      <trkpt lat="48.90111" lon="2.388">
        <ele>50</ele>
        <time>2015-12-07T20:50:38Z</time>
      </trkpt>
      <trkpt lat="48.9011" lon="2.38792">
        <ele>50</ele>
        <time>2015-12-07T20:51:16Z</time>
      </trkpt>
      <trkpt lat="48.90106" lon="2.38764">
        <ele>50</ele>
        <time>2015-12-07T20:51:21Z</time>
      </trkpt>
      <trkpt lat="48.90098" lon="2.38735">
        <ele>49.20000076294</ele>
        <time>2015-12-07T20:51:26Z</time>
      </trkpt>
      <trkpt lat="48.90096" lon="2.3873">
        <ele>48.79999923706</ele>
        <time>2015-12-07T20:51:27Z</time>
      </trkpt>
      <trkpt lat="48.90084" lon="2.3871">
        <ele>47.599998474121</ele>
        <time>2015-12-07T20:51:32Z</time>
      </trkpt>
      <trkpt lat="48.90081" lon="2.38708">
        <ele>47.400001525879</ele>
        <time>2015-12-07T20:51:33Z</time>
      </trkpt>
      <trkpt lat="48.90068" lon="2.38705">
        <ele>46.599998474121</ele>
        <time>2015-12-07T20:51:39Z</time>
      </trkpt>
      <trkpt lat="48.90049" lon="2.38699">
        <ele>45.20000076294</ele>
        <time>2015-12-07T20:51:46Z</time>
      </trkpt>
      <trkpt lat="48.90038" lon="2.38694">
        <ele>44.400001525879</ele>
        <time>2015-12-07T20:51:50Z</time>
      </trkpt>
      <trkpt lat="48.90025" lon="2.38677">
        <ele>43.20000076294</ele>
        <time>2015-12-07T20:51:59Z</time>
      </trkpt>
      <trkpt lat="48.90026" lon="2.3869">
        <ele>43.400001525879</ele>
        <time>2015-12-07T20:52:05Z</time>
      </trkpt>
      <trkpt lat="48.90013" lon="2.38705">
        <ele>43.599998474121</ele>
        <time>2015-12-07T20:52:19Z</time>
      </trkpt>
      <trkpt lat="48.90007" lon="2.3872">
        <ele>43.79999923706</ele>
        <time>2015-12-07T20:52:24Z</time>
      </trkpt>
      <trkpt lat="48.89995" lon="2.38744">
        <ele>44.79999923706</ele>
        <time>2015-12-07T20:52:32Z</time>
      </trkpt>
      <trkpt lat="48.89983" lon="2.38756">
        <ele>45.599998474121</ele>
        <time>2015-12-07T20:52:40Z</time>
      </trkpt>
      <trkpt lat="48.89972" lon="2.38756">
        <ele>46</ele>
        <time>2015-12-07T20:53:28Z</time>
      </trkpt>
      <trkpt lat="48.89956" lon="2.38741">
        <ele>46.20000076294</ele>
        <time>2015-12-07T20:53:40Z</time>
      </trkpt>
      <trkpt lat="48.89939" lon="2.38727">
        <ele>46.20000076294</ele>
        <time>2015-12-07T20:53:52Z</time>
      </trkpt>
      <trkpt lat="48.89922" lon="2.38712">
        <ele>46.599998474121</ele>
        <time>2015-12-07T20:54:00Z</time>
      </trkpt>
      <trkpt lat="48.89906" lon="2.38697">
        <ele>46.79999923706</ele>
        <time>2015-12-07T20:54:07Z</time>
      </trkpt>
      <trkpt lat="48.89889" lon="2.38684">
        <ele>47.20000076294</ele>
        <time>2015-12-07T20:54:14Z</time>
      </trkpt>
      <trkpt lat="48.89872" lon="2.38667">
        <ele>47.400001525879</ele>
        <time>2015-12-07T20:54:21Z</time>
      </trkpt>
      <trkpt lat="48.89856" lon="2.3865">
        <ele>48.20000076294</ele>
        <time>2015-12-07T20:54:27Z</time>
      </trkpt>
      <trkpt lat="48.89841" lon="2.3863">
        <ele>48.79999923706</ele>
        <time>2015-12-07T20:54:33Z</time>
      </trkpt>
      <trkpt lat="48.89823" lon="2.38613">
        <ele>49.400001525879</ele>
        <time>2015-12-07T20:54:40Z</time>
      </trkpt>
      <trkpt lat="48.89808" lon="2.38595">
        <ele>50</ele>
        <time>2015-12-07T20:54:46Z</time>
      </trkpt>
      <trkpt lat="48.89793" lon="2.38572">
        <ele>50.79999923706</ele>
        <time>2015-12-07T20:54:53Z</time>
      </trkpt>
      <trkpt lat="48.89778" lon="2.38559">
        <ele>51.400001525879</ele>
        <time>2015-12-07T20:54:58Z</time>
      </trkpt>
      <trkpt lat="48.89755" lon="2.38548">
        <ele>52.20000076294</ele>
        <time>2015-12-07T20:55:02Z</time>
      </trkpt>
      <trkpt lat="48.89738" lon="2.38534">
        <ele>53</ele>
        <time>2015-12-07T20:55:08Z</time>
      </trkpt>
      <trkpt lat="48.89734" lon="2.38529">
        <ele>53.20000076294</ele>
        <time>2015-12-07T20:55:10Z</time>
      </trkpt>
      <trkpt lat="48.89723" lon="2.38519">
        <ele>53.599998474121</ele>
        <time>2015-12-07T20:55:14Z</time>
      </trkpt>
      <trkpt lat="48.89706" lon="2.38505">
        <ele>54.400001525879</ele>
        <time>2015-12-07T20:55:19Z</time>
      </trkpt>
      <trkpt lat="48.89688" lon="2.38487">
        <ele>54.400001525879</ele>
        <time>2015-12-07T20:55:24Z</time>
      </trkpt>
      <trkpt lat="48.89672" lon="2.38469">
        <ele>53</ele>
        <time>2015-12-07T20:55:28Z</time>
      </trkpt>
      <trkpt lat="48.89656" lon="2.38453">
        <ele>51.599998474121</ele>
        <time>2015-12-07T20:55:32Z</time>
      </trkpt>
      <trkpt lat="48.89642" lon="2.38435">
        <ele>50.20000076294</ele>
        <time>2015-12-07T20:55:36Z</time>
      </trkpt>
      <trkpt lat="48.89637" lon="2.38414">
        <ele>49</ele>
        <time>2015-12-07T20:55:40Z</time>
      </trkpt>
      <trkpt lat="48.89625" lon="2.38402">
        <ele>49</ele>
        <time>2015-12-07T20:55:45Z</time>
      </trkpt>
      <trkpt lat="48.8961" lon="2.38382">
        <ele>49</ele>
        <time>2015-12-07T20:55:53Z</time>
      </trkpt>
      <trkpt lat="48.89595" lon="2.38366">
        <ele>49.20000076294</ele>
        <time>2015-12-07T20:56:03Z</time>
      </trkpt>
      <trkpt lat="48.89581" lon="2.38357">
        <ele>49.400001525879</ele>
        <time>2015-12-07T20:56:14Z</time>
      </trkpt>
      <trkpt lat="48.89572" lon="2.38374">
        <ele>49</ele>
        <time>2015-12-07T20:56:33Z</time>
      </trkpt>
      <trkpt lat="48.89554" lon="2.38387">
        <ele>48.400001525879</ele>
        <time>2015-12-07T20:56:38Z</time>
      </trkpt>
      <trkpt lat="48.89537" lon="2.38397">
        <ele>47.79999923706</ele>
        <time>2015-12-07T20:56:42Z</time>
      </trkpt>
      <trkpt lat="48.89519" lon="2.38409">
        <ele>47.400001525879</ele>
        <time>2015-12-07T20:56:46Z</time>
      </trkpt>
      <trkpt lat="48.895" lon="2.38422">
        <ele>48.20000076294</ele>
        <time>2015-12-07T20:56:50Z</time>
      </trkpt>
      <trkpt lat="48.8948" lon="2.38433">
        <ele>49</ele>
        <time>2015-12-07T20:56:54Z</time>
      </trkpt>
      <trkpt lat="48.89458" lon="2.38447">
        <ele>49.20000076294</ele>
        <time>2015-12-07T20:56:58Z</time>
      </trkpt>
      <trkpt lat="48.89441" lon="2.38457">
        <ele>48.400001525879</ele>
        <time>2015-12-07T20:57:01Z</time>
      </trkpt>
      <trkpt lat="48.8942" lon="2.38468">
        <ele>49</ele>
        <time>2015-12-07T20:57:05Z</time>
      </trkpt>
      <trkpt lat="48.894" lon="2.38478">
        <ele>50.20000076294</ele>
        <time>2015-12-07T20:57:09Z</time>
      </trkpt>
      <trkpt lat="48.89381" lon="2.38489">
        <ele>51.79999923706</ele>
        <time>2015-12-07T20:57:13Z</time>
      </trkpt>
      <trkpt lat="48.89362" lon="2.385">
        <ele>53.599998474121</ele>
        <time>2015-12-07T20:57:17Z</time>
      </trkpt>
      <trkpt lat="48.89357" lon="2.38502">
        <ele>53.79999923706</ele>
        <time>2015-12-07T20:57:18Z</time>
      </trkpt>
      <trkpt lat="48.89338" lon="2.38512">
        <ele>54</ele>
        <time>2015-12-07T20:57:22Z</time>
      </trkpt>
      <trkpt lat="48.89333" lon="2.38515">
        <ele>54</ele>
        <time>2015-12-07T20:57:23Z</time>
      </trkpt>
      <trkpt lat="48.89313" lon="2.38527">
        <ele>54</ele>
        <time>2015-12-07T20:57:27Z</time>
      </trkpt>
      <trkpt lat="48.89292" lon="2.3854">
        <ele>54.599998474121</ele>
        <time>2015-12-07T20:57:31Z</time>
      </trkpt>
      <trkpt lat="48.89287" lon="2.38543">
        <ele>54.79999923706</ele>
        <time>2015-12-07T20:57:32Z</time>
      </trkpt>
      <trkpt lat="48.89269" lon="2.38555">
        <ele>55.20000076294</ele>
        <time>2015-12-07T20:57:36Z</time>
      </trkpt>
      <trkpt lat="48.89259" lon="2.38559">
        <ele>55</ele>
        <time>2015-12-07T20:57:38Z</time>
      </trkpt>
      <trkpt lat="48.89239" lon="2.3855">
        <ele>55</ele>
        <time>2015-12-07T20:57:42Z</time>
      </trkpt>
      <trkpt lat="48.89219" lon="2.38537">
        <ele>55.20000076294</ele>
        <time>2015-12-07T20:57:46Z</time>
      </trkpt>
      <trkpt lat="48.89204" lon="2.38532">
        <ele>55.20000076294</ele>
        <time>2015-12-07T20:57:49Z</time>
      </trkpt>
      <trkpt lat="48.89185" lon="2.38532">
        <ele>55.400001525879</ele>
        <time>2015-12-07T20:57:53Z</time>
      </trkpt>
      <trkpt lat="48.89173" lon="2.38537">
        <ele>55.599998474121</ele>
        <time>2015-12-07T20:57:56Z</time>
      </trkpt>
      <trkpt lat="48.89156" lon="2.38527">
        <ele>55.79999923706</ele>
        <time>2015-12-07T20:58:01Z</time>
      </trkpt>
      <trkpt lat="48.89153" lon="2.38523">
        <ele>55.79999923706</ele>
        <time>2015-12-07T20:58:02Z</time>
      </trkpt>
      <trkpt lat="48.89146" lon="2.38509">
        <ele>55.599998474121</ele>
        <time>2015-12-07T20:58:05Z</time>
      </trkpt>
      <trkpt lat="48.89133" lon="2.38488">
        <ele>55.599998474121</ele>
        <time>2015-12-07T20:58:10Z</time>
      </trkpt>
      <trkpt lat="48.89126" lon="2.38476">
        <ele>55.400001525879</ele>
        <time>2015-12-07T20:58:13Z</time>
      </trkpt>
      <trkpt lat="48.89118" lon="2.38455">
        <ele>55.400001525879</ele>
        <time>2015-12-07T20:58:17Z</time>
      </trkpt>
      <trkpt lat="48.89105" lon="2.38431">
        <ele>55.20000076294</ele>
        <time>2015-12-07T20:58:23Z</time>
      </trkpt>
      <trkpt lat="48.89097" lon="2.38424">
        <ele>55.400001525879</ele>
        <time>2015-12-07T20:58:26Z</time>
      </trkpt>
      <trkpt lat="48.89082" lon="2.38409">
        <ele>55.599998474121</ele>
        <time>2015-12-07T20:58:32Z</time>
      </trkpt>
      <trkpt lat="48.89078" lon="2.38406">
        <ele>55.79999923706</ele>
        <time>2015-12-07T20:58:35Z</time>
      </trkpt>
      <trkpt lat="48.89089" lon="2.38405">
        <ele>55.599998474121</ele>
        <time>2015-12-07T20:58:50Z</time>
      </trkpt>
      <trkpt lat="48.89104" lon="2.38424">
        <ele>55.20000076294</ele>
        <time>2015-12-07T20:58:56Z</time>
      </trkpt>
      <trkpt lat="48.89116" lon="2.38445">
        <ele>55.20000076294</ele>
        <time>2015-12-07T20:59:01Z</time>
      </trkpt>
      <trkpt lat="48.89131" lon="2.38468">
        <ele>55.400001525879</ele>
        <time>2015-12-07T20:59:08Z</time>
      </trkpt>
      <trkpt lat="48.89137" lon="2.38484">
        <ele>55.400001525879</ele>
        <time>2015-12-07T20:59:12Z</time>
      </trkpt>
      <trkpt lat="48.89133" lon="2.38482">
        <ele>55.400001525879</ele>
        <time>2015-12-07T20:59:16Z</time>
      </trkpt>
      <trkpt lat="48.89128" lon="2.38481">
        <ele>55.599998474121</ele>
        <time>2015-12-07T20:59:20Z</time>
      </trkpt>
      <trkpt lat="48.89114" lon="2.38483">
        <ele>55.79999923706</ele>
        <time>2015-12-07T20:59:41Z</time>
      </trkpt>
      <trkpt lat="48.89095" lon="2.38487">
        <ele>56.20000076294</ele>
        <time>2015-12-07T20:59:52Z</time>
      </trkpt>
      <trkpt lat="48.89091" lon="2.38487">
        <ele>56.20000076294</ele>
        <time>2015-12-07T20:59:55Z</time>
      </trkpt>
      <trkpt lat="48.89092" lon="2.385">
        <ele>56.400001525879</ele>
        <time>2015-12-07T21:00:43Z</time>
      </trkpt>
      <trkpt lat="48.89081" lon="2.38488">
        <ele>56.400001525879</ele>
        <time>2015-12-07T21:01:02Z</time>
      </trkpt>
      <trkpt lat="48.89069" lon="2.38465">
        <ele>56.599998474121</ele>
        <time>2015-12-07T21:01:09Z</time>
      </trkpt>
      <trkpt lat="48.89059" lon="2.38451">
        <ele>56.599998474121</ele>
        <time>2015-12-07T21:01:12Z</time>
      </trkpt>
      <trkpt lat="48.89045" lon="2.38426">
        <ele>56.599998474121</ele>
        <time>2015-12-07T21:01:17Z</time>
      </trkpt>
      <trkpt lat="48.89031" lon="2.38402">
        <ele>57</ele>
        <time>2015-12-07T21:01:22Z</time>
      </trkpt>
      <trkpt lat="48.89019" lon="2.38376">
        <ele>57.79999923706</ele>
        <time>2015-12-07T21:01:27Z</time>
      </trkpt>
      <trkpt lat="48.8901" lon="2.38352">
        <ele>58.599998474121</ele>
        <time>2015-12-07T21:01:31Z</time>
      </trkpt>
      <trkpt lat="48.88996" lon="2.38328">
        <ele>59.599998474121</ele>
        <time>2015-12-07T21:01:36Z</time>
      </trkpt>
      <trkpt lat="48.88983" lon="2.38304">
        <ele>60</ele>
        <time>2015-12-07T21:01:41Z</time>
      </trkpt>
      <trkpt lat="48.88974" lon="2.38289">
        <ele>60.400001525879</ele>
        <time>2015-12-07T21:01:44Z</time>
      </trkpt>
      <trkpt lat="48.8896" lon="2.38263">
        <ele>61</ele>
        <time>2015-12-07T21:01:49Z</time>
      </trkpt>
      <trkpt lat="48.8895" lon="2.38246">
        <ele>61.400001525879</ele>
        <time>2015-12-07T21:01:52Z</time>
      </trkpt>
      <trkpt lat="48.88936" lon="2.38224">
        <ele>61.400001525879</ele>
        <time>2015-12-07T21:01:56Z</time>
      </trkpt>
      <trkpt lat="48.88933" lon="2.38217">
        <ele>61.400001525879</ele>
        <time>2015-12-07T21:01:57Z</time>
      </trkpt>
      <trkpt lat="48.88922" lon="2.38188">
        <ele>60.79999923706</ele>
        <time>2015-12-07T21:02:01Z</time>
      </trkpt>
      <trkpt lat="48.88912" lon="2.38161">
        <ele>60.20000076294</ele>
        <time>2015-12-07T21:02:05Z</time>
      </trkpt>
      <trkpt lat="48.88903" lon="2.38137">
        <ele>59.79999923706</ele>
        <time>2015-12-07T21:02:09Z</time>
      </trkpt>
      <trkpt lat="48.88891" lon="2.38113">
        <ele>59.20000076294</ele>
        <time>2015-12-07T21:02:13Z</time>
      </trkpt>
      <trkpt lat="48.88882" lon="2.38096">
        <ele>58.79999923706</ele>
        <time>2015-12-07T21:02:16Z</time>
      </trkpt>
      <trkpt lat="48.88865" lon="2.38069">
        <ele>58</ele>
        <time>2015-12-07T21:02:20Z</time>
      </trkpt>
      <trkpt lat="48.88862" lon="2.38063">
        <ele>57.79999923706</ele>
        <time>2015-12-07T21:02:21Z</time>
      </trkpt>
      <trkpt lat="48.88851" lon="2.38036">
        <ele>56.599998474121</ele>
        <time>2015-12-07T21:02:25Z</time>
      </trkpt>
      <trkpt lat="48.88841" lon="2.38013">
        <ele>55.599998474121</ele>
        <time>2015-12-07T21:02:30Z</time>
      </trkpt>
      <trkpt lat="48.88835" lon="2.38001">
        <ele>55.20000076294</ele>
        <time>2015-12-07T21:02:33Z</time>
      </trkpt>
      <trkpt lat="48.88825" lon="2.37975">
        <ele>55</ele>
        <time>2015-12-07T21:02:40Z</time>
      </trkpt>
      <trkpt lat="48.88822" lon="2.37963">
        <ele>54.79999923706</ele>
        <time>2015-12-07T21:03:29Z</time>
      </trkpt>
      <trkpt lat="48.88808" lon="2.37984">
        <ele>56</ele>
        <time>2015-12-07T21:03:37Z</time>
      </trkpt>
      <trkpt lat="48.88795" lon="2.37983">
        <ele>56.599998474121</ele>
        <time>2015-12-07T21:03:42Z</time>
      </trkpt>
      <trkpt lat="48.8878" lon="2.37962">
        <ele>56.79999923706</ele>
        <time>2015-12-07T21:03:48Z</time>
      </trkpt>
      <trkpt lat="48.88765" lon="2.37936">
        <ele>56.599998474121</ele>
        <time>2015-12-07T21:03:53Z</time>
      </trkpt>
      <trkpt lat="48.88752" lon="2.37913">
        <ele>56.20000076294</ele>
        <time>2015-12-07T21:03:57Z</time>
      </trkpt>
      <trkpt lat="48.88739" lon="2.37892">
        <ele>56.400001525879</ele>
        <time>2015-12-07T21:04:01Z</time>
      </trkpt>
      <trkpt lat="48.88725" lon="2.37866">
        <ele>56.599998474121</ele>
        <time>2015-12-07T21:04:06Z</time>
      </trkpt>
      <trkpt lat="48.8871" lon="2.37841">
        <ele>56.599998474121</ele>
        <time>2015-12-07T21:04:11Z</time>
      </trkpt>
      <trkpt lat="48.88698" lon="2.37821">
        <ele>57</ele>
        <time>2015-12-07T21:04:15Z</time>
      </trkpt>
      <trkpt lat="48.88689" lon="2.37799">
        <ele>57.79999923706</ele>
        <time>2015-12-07T21:04:19Z</time>
      </trkpt>
      <trkpt lat="48.88673" lon="2.37778">
        <ele>59.599998474121</ele>
        <time>2015-12-07T21:04:23Z</time>
      </trkpt>
      <trkpt lat="48.88671" lon="2.37773">
        <ele>60</ele>
        <time>2015-12-07T21:04:24Z</time>
      </trkpt>
      <trkpt lat="48.88665" lon="2.37763">
        <ele>60.79999923706</ele>
        <time>2015-12-07T21:04:26Z</time>
      </trkpt>
      <trkpt lat="48.88655" lon="2.37734">
        <ele>60.599998474121</ele>
        <time>2015-12-07T21:04:31Z</time>
      </trkpt>
      <trkpt lat="48.88645" lon="2.37715">
        <ele>59.599998474121</ele>
        <time>2015-12-07T21:04:35Z</time>
      </trkpt>
      <trkpt lat="48.88635" lon="2.37698">
        <ele>58.79999923706</ele>
        <time>2015-12-07T21:04:39Z</time>
      </trkpt>
      <trkpt lat="48.88629" lon="2.3769">
        <ele>58.599998474121</ele>
        <time>2015-12-07T21:04:41Z</time>
      </trkpt>
      <trkpt lat="48.88615" lon="2.37666">
        <ele>58</ele>
        <time>2015-12-07T21:04:46Z</time>
      </trkpt>
      <trkpt lat="48.88613" lon="2.3766">
        <ele>57.79999923706</ele>
        <time>2015-12-07T21:04:47Z</time>
      </trkpt>
      <trkpt lat="48.88603" lon="2.37636">
        <ele>57.20000076294</ele>
        <time>2015-12-07T21:04:51Z</time>
      </trkpt>
      <trkpt lat="48.88596" lon="2.37618">
        <ele>56.79999923706</ele>
        <time>2015-12-07T21:04:54Z</time>
      </trkpt>
      <trkpt lat="48.88584" lon="2.37593">
        <ele>56.400001525879</ele>
        <time>2015-12-07T21:04:58Z</time>
      </trkpt>
      <trkpt lat="48.88571" lon="2.37568">
        <ele>56.400001525879</ele>
        <time>2015-12-07T21:05:02Z</time>
      </trkpt>
      <trkpt lat="48.88556" lon="2.37546">
        <ele>56.599998474121</ele>
        <time>2015-12-07T21:05:05Z</time>
      </trkpt>
      <trkpt lat="48.8854" lon="2.37523">
        <ele>56.79999923706</ele>
        <time>2015-12-07T21:05:09Z</time>
      </trkpt>
      <trkpt lat="48.88532" lon="2.37511">
        <ele>56.79999923706</ele>
        <time>2015-12-07T21:05:11Z</time>
      </trkpt>
      <trkpt lat="48.88517" lon="2.37487">
        <ele>57</ele>
        <time>2015-12-07T21:05:15Z</time>
      </trkpt>
      <trkpt lat="48.88506" lon="2.37467">
        <ele>57</ele>
        <time>2015-12-07T21:05:18Z</time>
      </trkpt>
      <trkpt lat="48.88498" lon="2.37451">
        <ele>57</ele>
        <time>2015-12-07T21:05:20Z</time>
      </trkpt>
      <trkpt lat="48.88486" lon="2.37431">
        <ele>57.20000076294</ele>
        <time>2015-12-07T21:05:23Z</time>
      </trkpt>
      <trkpt lat="48.88471" lon="2.37403">
        <ele>57.20000076294</ele>
        <time>2015-12-07T21:05:27Z</time>
      </trkpt>
      <trkpt lat="48.8846" lon="2.3738">
        <ele>57.20000076294</ele>
        <time>2015-12-07T21:05:30Z</time>
      </trkpt>
      <trkpt lat="48.88451" lon="2.37358">
        <ele>57.20000076294</ele>
        <time>2015-12-07T21:05:33Z</time>
      </trkpt>
      <trkpt lat="48.88436" lon="2.37334">
        <ele>57.20000076294</ele>
        <time>2015-12-07T21:05:37Z</time>
      </trkpt>
      <trkpt lat="48.88421" lon="2.37308">
        <ele>57.599998474121</ele>
        <time>2015-12-07T21:05:41Z</time>
      </trkpt>
      <trkpt lat="48.88411" lon="2.37283">
        <ele>57.599998474121</ele>
        <time>2015-12-07T21:05:44Z</time>
      </trkpt>
      <trkpt lat="48.884" lon="2.37259">
        <ele>57.599998474121</ele>
        <time>2015-12-07T21:05:47Z</time>
      </trkpt>
      <trkpt lat="48.8839" lon="2.37235">
        <ele>57.599998474121</ele>
        <time>2015-12-07T21:05:50Z</time>
      </trkpt>
      <trkpt lat="48.88379" lon="2.37214">
        <ele>57.79999923706</ele>
        <time>2015-12-07T21:05:53Z</time>
      </trkpt>
      <trkpt lat="48.88373" lon="2.37201">
        <ele>58</ele>
        <time>2015-12-07T21:05:55Z</time>
      </trkpt>
      <trkpt lat="48.8836" lon="2.37176">
        <ele>58</ele>
        <time>2015-12-07T21:05:59Z</time>
      </trkpt>
      <trkpt lat="48.88346" lon="2.37157">
        <ele>58.400001525879</ele>
        <time>2015-12-07T21:06:03Z</time>
      </trkpt>
      <trkpt lat="48.88339" lon="2.37149">
        <ele>58.400001525879</ele>
        <time>2015-12-07T21:06:05Z</time>
      </trkpt>
      <trkpt lat="48.88325" lon="2.37126">
        <ele>58.400001525879</ele>
        <time>2015-12-07T21:06:09Z</time>
      </trkpt>
      <trkpt lat="48.8831" lon="2.37105">
        <ele>58.400001525879</ele>
        <time>2015-12-07T21:06:13Z</time>
      </trkpt>
      <trkpt lat="48.88303" lon="2.37095">
        <ele>58.599998474121</ele>
        <time>2015-12-07T21:06:15Z</time>
      </trkpt>
      <trkpt lat="48.88295" lon="2.37069">
        <ele>57.79999923706</ele>
        <time>2015-12-07T21:06:19Z</time>
      </trkpt>
      <trkpt lat="48.883" lon="2.37047">
        <ele>56.400001525879</ele>
        <time>2015-12-07T21:06:23Z</time>
      </trkpt>
      <trkpt lat="48.88295" lon="2.37042">
        <ele>56.400001525879</ele>
        <time>2015-12-07T21:06:27Z</time>
      </trkpt>
      <trkpt lat="48.88293" lon="2.37042">
        <ele>56.79999923706</ele>
        <time>2015-12-07T21:06:30Z</time>
      </trkpt>
      <trkpt lat="48.88295" lon="2.3703">
        <ele>56</ele>
        <time>2015-12-07T21:07:48Z</time>
      </trkpt>
      <trkpt lat="48.88291" lon="2.37017">
        <ele>55.599998474121</ele>
        <time>2015-12-07T21:07:53Z</time>
      </trkpt>
      <trkpt lat="48.88281" lon="2.36992">
        <ele>55.599998474121</ele>
        <time>2015-12-07T21:08:01Z</time>
      </trkpt>
      <trkpt lat="48.88266" lon="2.36976">
        <ele>56.20000076294</ele>
        <time>2015-12-07T21:08:07Z</time>
      </trkpt>
      <trkpt lat="48.88257" lon="2.3695">
        <ele>56.400001525879</ele>
        <time>2015-12-07T21:08:12Z</time>
      </trkpt>
      <trkpt lat="48.8825" lon="2.36919">
        <ele>56.599998474121</ele>
        <time>2015-12-07T21:08:17Z</time>
      </trkpt>
      <trkpt lat="48.88244" lon="2.36891">
        <ele>56.400001525879</ele>
        <time>2015-12-07T21:08:21Z</time>
      </trkpt>
      <trkpt lat="48.88239" lon="2.36862">
        <ele>57.20000076294</ele>
        <time>2015-12-07T21:08:25Z</time>
      </trkpt>
      <trkpt lat="48.88233" lon="2.36833">
        <ele>58.599998474121</ele>
        <time>2015-12-07T21:08:29Z</time>
      </trkpt>
      <trkpt lat="48.88225" lon="2.36802">
        <ele>58.20000076294</ele>
        <time>2015-12-07T21:08:34Z</time>
      </trkpt>
      <trkpt lat="48.88219" lon="2.36774">
        <ele>58</ele>
        <time>2015-12-07T21:08:39Z</time>
      </trkpt>
      <trkpt lat="48.88214" lon="2.36757">
        <ele>57.400001525879</ele>
        <time>2015-12-07T21:08:43Z</time>
      </trkpt>
      <trkpt lat="48.88211" lon="2.36746">
        <ele>57</ele>
        <time>2015-12-07T21:08:46Z</time>
      </trkpt>
      <trkpt lat="48.88202" lon="2.36721">
        <ele>57.599998474121</ele>
        <time>2015-12-07T21:08:53Z</time>
      </trkpt>
      <trkpt lat="48.8819" lon="2.36698">
        <ele>57.79999923706</ele>
        <time>2015-12-07T21:09:02Z</time>
      </trkpt>
      <trkpt lat="48.88185" lon="2.36669">
        <ele>58.79999923706</ele>
        <time>2015-12-07T21:09:11Z</time>
      </trkpt>
      <trkpt lat="48.88183" lon="2.36659">
        <ele>59</ele>
        <time>2015-12-07T21:09:15Z</time>
      </trkpt>
      <trkpt lat="48.88179" lon="2.36644">
        <ele>58.79999923706</ele>
        <time>2015-12-07T21:09:24Z</time>
      </trkpt>
      <trkpt lat="48.88173" lon="2.36617">
        <ele>58.599998474121</ele>
        <time>2015-12-07T21:09:45Z</time>
      </trkpt>
      <trkpt lat="48.88165" lon="2.36588">
        <ele>58.400001525879</ele>
        <time>2015-12-07T21:09:55Z</time>
      </trkpt>
      <trkpt lat="48.8815" lon="2.36569">
        <ele>58.400001525879</ele>
        <time>2015-12-07T21:10:02Z</time>
      </trkpt>
      <trkpt lat="48.88135" lon="2.36553">
        <ele>58.599998474121</ele>
        <time>2015-12-07T21:10:08Z</time>
      </trkpt>
      <trkpt lat="48.88123" lon="2.36537">
        <ele>58.79999923706</ele>
        <time>2015-12-07T21:10:15Z</time>
      </trkpt>
      <trkpt lat="48.88105" lon="2.3652">
        <ele>59</ele>
        <time>2015-12-07T21:10:36Z</time>
      </trkpt>
      <trkpt lat="48.88087" lon="2.36503">
        <ele>58.599998474121</ele>
        <time>2015-12-07T21:10:41Z</time>
      </trkpt>
      <trkpt lat="48.88073" lon="2.36486">
        <ele>58</ele>
        <time>2015-12-07T21:10:45Z</time>
      </trkpt>
      <trkpt lat="48.88056" lon="2.36472">
        <ele>57.20000076294</ele>
        <time>2015-12-07T21:10:49Z</time>
      </trkpt>
      <trkpt lat="48.8804" lon="2.36453">
        <ele>56.400001525879</ele>
        <time>2015-12-07T21:10:53Z</time>
      </trkpt>
      <trkpt lat="48.88022" lon="2.36437">
        <ele>55.599998474121</ele>
        <time>2015-12-07T21:10:57Z</time>
      </trkpt>
      <trkpt lat="48.88003" lon="2.3642">
        <ele>55.400001525879</ele>
        <time>2015-12-07T21:11:01Z</time>
      </trkpt>
      <trkpt lat="48.87985" lon="2.36404">
        <ele>55.79999923706</ele>
        <time>2015-12-07T21:11:04Z</time>
      </trkpt>
      <trkpt lat="48.8798" lon="2.36399">
        <ele>55.79999923706</ele>
        <time>2015-12-07T21:11:05Z</time>
      </trkpt>
      <trkpt lat="48.87961" lon="2.36378">
        <ele>56.599998474121</ele>
        <time>2015-12-07T21:11:09Z</time>
      </trkpt>
      <trkpt lat="48.87944" lon="2.36356">
        <ele>57.400001525879</ele>
        <time>2015-12-07T21:11:13Z</time>
      </trkpt>
      <trkpt lat="48.87928" lon="2.36336">
        <ele>57.400001525879</ele>
        <time>2015-12-07T21:11:17Z</time>
      </trkpt>
      <trkpt lat="48.87911" lon="2.36315">
        <ele>56.599998474121</ele>
        <time>2015-12-07T21:11:21Z</time>
      </trkpt>
      <trkpt lat="48.87893" lon="2.36298">
        <ele>55.599998474121</ele>
        <time>2015-12-07T21:11:25Z</time>
      </trkpt>
      <trkpt lat="48.87886" lon="2.36287">
        <ele>55</ele>
        <time>2015-12-07T21:11:27Z</time>
      </trkpt>
      <trkpt lat="48.87878" lon="2.36263">
        <ele>54.400001525879</ele>
        <time>2015-12-07T21:11:31Z</time>
      </trkpt>
      <trkpt lat="48.87874" lon="2.36252">
        <ele>54</ele>
        <time>2015-12-07T21:11:33Z</time>
      </trkpt>
      <trkpt lat="48.87866" lon="2.36241">
        <ele>53.20000076294</ele>
        <time>2015-12-07T21:11:36Z</time>
      </trkpt>
      <trkpt lat="48.87851" lon="2.36225">
        <ele>51.79999923706</ele>
        <time>2015-12-07T21:11:41Z</time>
      </trkpt>
      <trkpt lat="48.87847" lon="2.36222">
        <ele>51.79999923706</ele>
        <time>2015-12-07T21:11:42Z</time>
      </trkpt>
      <trkpt lat="48.87831" lon="2.36209">
        <ele>52</ele>
        <time>2015-12-07T21:11:46Z</time>
      </trkpt>
      <trkpt lat="48.87812" lon="2.36197">
        <ele>52</ele>
        <time>2015-12-07T21:11:50Z</time>
      </trkpt>
      <trkpt lat="48.87792" lon="2.36181">
        <ele>52.20000076294</ele>
        <time>2015-12-07T21:11:54Z</time>
      </trkpt>
      <trkpt lat="48.87776" lon="2.36169">
        <ele>52</ele>
        <time>2015-12-07T21:11:57Z</time>
      </trkpt>
      <trkpt lat="48.87759" lon="2.36156">
        <ele>52.79999923706</ele>
        <time>2015-12-07T21:12:00Z</time>
      </trkpt>
      <trkpt lat="48.87738" lon="2.36143">
        <ele>54</ele>
        <time>2015-12-07T21:12:04Z</time>
      </trkpt>
      <trkpt lat="48.87732" lon="2.36139">
        <ele>54.20000076294</ele>
        <time>2015-12-07T21:12:05Z</time>
      </trkpt>
      <trkpt lat="48.87714" lon="2.36126">
        <ele>55</ele>
        <time>2015-12-07T21:12:08Z</time>
      </trkpt>
      <trkpt lat="48.87696" lon="2.36116">
        <ele>56.20000076294</ele>
        <time>2015-12-07T21:12:11Z</time>
      </trkpt>
      <trkpt lat="48.87678" lon="2.36107">
        <ele>55.79999923706</ele>
        <time>2015-12-07T21:12:14Z</time>
      </trkpt>
      <trkpt lat="48.87658" lon="2.36095">
        <ele>54.599998474121</ele>
        <time>2015-12-07T21:12:17Z</time>
      </trkpt>
      <trkpt lat="48.87638" lon="2.36085">
        <ele>53.400001525879</ele>
        <time>2015-12-07T21:12:20Z</time>
      </trkpt>
      <trkpt lat="48.87617" lon="2.36072">
        <ele>52.400001525879</ele>
        <time>2015-12-07T21:12:23Z</time>
      </trkpt>
      <trkpt lat="48.87606" lon="2.36061">
        <ele>52</ele>
        <time>2015-12-07T21:12:25Z</time>
      </trkpt>
      <trkpt lat="48.87591" lon="2.36034">
        <ele>50.79999923706</ele>
        <time>2015-12-07T21:12:29Z</time>
      </trkpt>
      <trkpt lat="48.87589" lon="2.36028">
        <ele>50.599998474121</ele>
        <time>2015-12-07T21:12:30Z</time>
      </trkpt>
      <trkpt lat="48.87588" lon="2.36003">
        <ele>50.400001525879</ele>
        <time>2015-12-07T21:12:34Z</time>
      </trkpt>
      <trkpt lat="48.87589" lon="2.36">
        <ele>50.599998474121</ele>
        <time>2015-12-07T21:12:35Z</time>
      </trkpt>
      <trkpt lat="48.8757" lon="2.35997">
        <ele>49</ele>
        <time>2015-12-07T21:12:45Z</time>
      </trkpt>
      <trkpt lat="48.87567" lon="2.35995">
        <ele>48.599998474121</ele>
        <time>2015-12-07T21:12:46Z</time>
      </trkpt>
      <trkpt lat="48.8756" lon="2.35991">
        <ele>48.20000076294</ele>
        <time>2015-12-07T21:12:48Z</time>
      </trkpt>
      <trkpt lat="48.87546" lon="2.35971">
        <ele>47.20000076294</ele>
        <time>2015-12-07T21:12:53Z</time>
      </trkpt>
      <trkpt lat="48.87542" lon="2.35962">
        <ele>47</ele>
        <time>2015-12-07T21:12:55Z</time>
      </trkpt>
      <trkpt lat="48.87534" lon="2.35942">
        <ele>46.599998474121</ele>
        <time>2015-12-07T21:12:59Z</time>
      </trkpt>
      <trkpt lat="48.87528" lon="2.35934">
        <ele>46.20000076294</ele>
        <time>2015-12-07T21:13:01Z</time>
      </trkpt>
      <trkpt lat="48.8751" lon="2.35917">
        <ele>46.20000076294</ele>
        <time>2015-12-07T21:13:06Z</time>
      </trkpt>
      <trkpt lat="48.87505" lon="2.35914">
        <ele>46.20000076294</ele>
        <time>2015-12-07T21:13:07Z</time>
      </trkpt>
      <trkpt lat="48.87486" lon="2.35904">
        <ele>46.79999923706</ele>
        <time>2015-12-07T21:13:11Z</time>
      </trkpt>
      <trkpt lat="48.87472" lon="2.35895">
        <ele>47.400001525879</ele>
        <time>2015-12-07T21:13:14Z</time>
      </trkpt>
      <trkpt lat="48.87451" lon="2.35881">
        <ele>48</ele>
        <time>2015-12-07T21:13:18Z</time>
      </trkpt>
      <trkpt lat="48.87447" lon="2.35877">
        <ele>48.20000076294</ele>
        <time>2015-12-07T21:13:19Z</time>
      </trkpt>
      <trkpt lat="48.87427" lon="2.35866">
        <ele>48.400001525879</ele>
        <time>2015-12-07T21:13:23Z</time>
      </trkpt>
      <trkpt lat="48.87409" lon="2.35859">
        <ele>48.20000076294</ele>
        <time>2015-12-07T21:13:27Z</time>
      </trkpt>
      <trkpt lat="48.87403" lon="2.35857">
        <ele>48.20000076294</ele>
        <time>2015-12-07T21:13:30Z</time>
      </trkpt>
      <trkpt lat="48.87402" lon="2.35856">
        <ele>48.20000076294</ele>
        <time>2015-12-07T21:13:32Z</time>
      </trkpt>
      <trkpt lat="48.87383" lon="2.35855">
        <ele>47.79999923706</ele>
        <time>2015-12-07T21:13:54Z</time>
      </trkpt>
      <trkpt lat="48.87377" lon="2.35858">
        <ele>47.79999923706</ele>
        <time>2015-12-07T21:13:57Z</time>
      </trkpt>
      <trkpt lat="48.87359" lon="2.35843">
        <ele>48</ele>
        <time>2015-12-07T21:14:09Z</time>
      </trkpt>
      <trkpt lat="48.87355" lon="2.35842">
        <ele>48</ele>
        <time>2015-12-07T21:14:10Z</time>
      </trkpt>
      <trkpt lat="48.87336" lon="2.35833">
        <ele>46.79999923706</ele>
        <time>2015-12-07T21:14:15Z</time>
      </trkpt>
      <trkpt lat="48.87319" lon="2.35832">
        <ele>45.79999923706</ele>
        <time>2015-12-07T21:14:19Z</time>
      </trkpt>
      <trkpt lat="48.87301" lon="2.35824">
        <ele>45</ele>
        <time>2015-12-07T21:14:23Z</time>
      </trkpt>
      <trkpt lat="48.87283" lon="2.35817">
        <ele>44.400001525879</ele>
        <time>2015-12-07T21:14:27Z</time>
      </trkpt>
      <trkpt lat="48.87265" lon="2.35806">
        <ele>44.599998474121</ele>
        <time>2015-12-07T21:14:31Z</time>
      </trkpt>
      <trkpt lat="48.87245" lon="2.35793">
        <ele>46</ele>
        <time>2015-12-07T21:14:35Z</time>
      </trkpt>
      <trkpt lat="48.87229" lon="2.35776">
        <ele>47.400001525879</ele>
        <time>2015-12-07T21:14:39Z</time>
      </trkpt>
      <trkpt lat="48.8721" lon="2.35761">
        <ele>48.79999923706</ele>
        <time>2015-12-07T21:14:43Z</time>
      </trkpt>
      <trkpt lat="48.87191" lon="2.35752">
        <ele>49.599998474121</ele>
        <time>2015-12-07T21:14:47Z</time>
      </trkpt>
      <trkpt lat="48.87173" lon="2.3574">
        <ele>49.20000076294</ele>
        <time>2015-12-07T21:14:52Z</time>
      </trkpt>
      <trkpt lat="48.87168" lon="2.35737">
        <ele>49.20000076294</ele>
        <time>2015-12-07T21:14:53Z</time>
      </trkpt>
      <trkpt lat="48.87151" lon="2.35726">
        <ele>48.400001525879</ele>
        <time>2015-12-07T21:14:58Z</time>
      </trkpt>
      <trkpt lat="48.87133" lon="2.35714">
        <ele>47.79999923706</ele>
        <time>2015-12-07T21:15:03Z</time>
      </trkpt>
      <trkpt lat="48.87126" lon="2.3571">
        <ele>47.400001525879</ele>
        <time>2015-12-07T21:15:05Z</time>
      </trkpt>
      <trkpt lat="48.87111" lon="2.35698">
        <ele>46.79999923706</ele>
        <time>2015-12-07T21:15:09Z</time>
      </trkpt>
      <trkpt lat="48.87091" lon="2.35687">
        <ele>47</ele>
        <time>2015-12-07T21:15:14Z</time>
      </trkpt>
      <trkpt lat="48.87071" lon="2.35685">
        <ele>47.599998474121</ele>
        <time>2015-12-07T21:15:18Z</time>
      </trkpt>
      <trkpt lat="48.87052" lon="2.35677">
        <ele>48.20000076294</ele>
        <time>2015-12-07T21:15:23Z</time>
      </trkpt>
      <trkpt lat="48.87034" lon="2.35663">
        <ele>48.79999923706</ele>
        <time>2015-12-07T21:15:28Z</time>
      </trkpt>
      <trkpt lat="48.87019" lon="2.35651">
        <ele>49</ele>
        <time>2015-12-07T21:15:32Z</time>
      </trkpt>
      <trkpt lat="48.87011" lon="2.35646">
        <ele>49</ele>
        <time>2015-12-07T21:15:34Z</time>
      </trkpt>
      <trkpt lat="48.86991" lon="2.35633">
        <ele>49</ele>
        <time>2015-12-07T21:15:39Z</time>
      </trkpt>
      <trkpt lat="48.86972" lon="2.35618">
        <ele>49</ele>
        <time>2015-12-07T21:15:44Z</time>
      </trkpt>
      <trkpt lat="48.86962" lon="2.3561">
        <ele>49</ele>
        <time>2015-12-07T21:15:47Z</time>
      </trkpt>
      <trkpt lat="48.86942" lon="2.35608">
        <ele>49</ele>
        <time>2015-12-07T21:15:50Z</time>
      </trkpt>
      <trkpt lat="48.86933" lon="2.356">
        <ele>48.79999923706</ele>
        <time>2015-12-07T21:15:53Z</time>
      </trkpt>
      <trkpt lat="48.86922" lon="2.35585">
        <ele>48.599998474121</ele>
        <time>2015-12-07T21:16:00Z</time>
      </trkpt>
      <trkpt lat="48.86919" lon="2.35584">
        <ele>48.599998474121</ele>
        <time>2015-12-07T21:16:02Z</time>
      </trkpt>
      <trkpt lat="48.86906" lon="2.35555">
        <ele>48.400001525879</ele>
        <time>2015-12-07T21:16:26Z</time>
      </trkpt>
      <trkpt lat="48.86891" lon="2.35551">
        <ele>48.20000076294</ele>
        <time>2015-12-07T21:16:41Z</time>
      </trkpt>
      <trkpt lat="48.86882" lon="2.35548">
        <ele>48</ele>
        <time>2015-12-07T21:16:45Z</time>
      </trkpt>
      <trkpt lat="48.86862" lon="2.35543">
        <ele>47.599998474121</ele>
        <time>2015-12-07T21:16:50Z</time>
      </trkpt>
      <trkpt lat="48.86843" lon="2.35536">
        <ele>46.20000076294</ele>
        <time>2015-12-07T21:16:54Z</time>
      </trkpt>
      <trkpt lat="48.86824" lon="2.35531">
        <ele>44.599998474121</ele>
        <time>2015-12-07T21:16:59Z</time>
      </trkpt>
      <trkpt lat="48.86806" lon="2.35522">
        <ele>43</ele>
        <time>2015-12-07T21:17:03Z</time>
      </trkpt>
      <trkpt lat="48.86788" lon="2.35512">
        <ele>41.400001525879</ele>
        <time>2015-12-07T21:17:07Z</time>
      </trkpt>
      <trkpt lat="48.86768" lon="2.35498">
        <ele>39.79999923706</ele>
        <time>2015-12-07T21:17:11Z</time>
      </trkpt>
      <trkpt lat="48.86751" lon="2.35487">
        <ele>40.599998474121</ele>
        <time>2015-12-07T21:17:14Z</time>
      </trkpt>
      <trkpt lat="48.86744" lon="2.35485">
        <ele>40.400001525879</ele>
        <time>2015-12-07T21:17:15Z</time>
      </trkpt>
      <trkpt lat="48.86723" lon="2.35478">
        <ele>40.599998474121</ele>
        <time>2015-12-07T21:17:18Z</time>
      </trkpt>
      <trkpt lat="48.86706" lon="2.35467">
        <ele>41.400001525879</ele>
        <time>2015-12-07T21:17:21Z</time>
      </trkpt>
      <trkpt lat="48.86688" lon="2.3545">
        <ele>42.599998474121</ele>
        <time>2015-12-07T21:17:25Z</time>
      </trkpt>
      <trkpt lat="48.86682" lon="2.35445">
        <ele>43.20000076294</ele>
        <time>2015-12-07T21:17:27Z</time>
      </trkpt>
      <trkpt lat="48.86676" lon="2.35443">
        <ele>43.599998474121</ele>
        <time>2015-12-07T21:17:29Z</time>
      </trkpt>
      <trkpt lat="48.86657" lon="2.3543">
        <ele>45.20000076294</ele>
        <time>2015-12-07T21:17:34Z</time>
      </trkpt>
      <trkpt lat="48.86642" lon="2.3542">
        <ele>46.599998474121</ele>
        <time>2015-12-07T21:17:38Z</time>
      </trkpt>
      <trkpt lat="48.86624" lon="2.35405">
        <ele>47.599998474121</ele>
        <time>2015-12-07T21:17:43Z</time>
      </trkpt>
      <trkpt lat="48.8662" lon="2.35402">
        <ele>47.599998474121</ele>
        <time>2015-12-07T21:17:44Z</time>
      </trkpt>
      <trkpt lat="48.86608" lon="2.35393">
        <ele>48</ele>
        <time>2015-12-07T21:17:49Z</time>
      </trkpt>
      <trkpt lat="48.86591" lon="2.35379">
        <ele>47.400001525879</ele>
        <time>2015-12-07T21:18:29Z</time>
      </trkpt>
      <trkpt lat="48.86571" lon="2.35373">
        <ele>46.79999923706</ele>
        <time>2015-12-07T21:18:37Z</time>
      </trkpt>
      <trkpt lat="48.8655" lon="2.35368">
        <ele>46.400001525879</ele>
        <time>2015-12-07T21:18:43Z</time>
      </trkpt>
      <trkpt lat="48.86533" lon="2.3536">
        <ele>46.20000076294</ele>
        <time>2015-12-07T21:18:48Z</time>
      </trkpt>
      <trkpt lat="48.86515" lon="2.35351">
        <ele>46</ele>
        <time>2015-12-07T21:18:53Z</time>
      </trkpt>
      <trkpt lat="48.86498" lon="2.3534">
        <ele>45.400001525879</ele>
        <time>2015-12-07T21:18:58Z</time>
      </trkpt>
      <trkpt lat="48.8648" lon="2.35331">
        <ele>45</ele>
        <time>2015-12-07T21:19:04Z</time>
      </trkpt>
      <trkpt lat="48.86459" lon="2.35323">
        <ele>45.20000076294</ele>
        <time>2015-12-07T21:19:11Z</time>
      </trkpt>
      <trkpt lat="48.86441" lon="2.3532">
        <ele>45.20000076294</ele>
        <time>2015-12-07T21:19:17Z</time>
      </trkpt>
      <trkpt lat="48.86422" lon="2.35314">
        <ele>45.20000076294</ele>
        <time>2015-12-07T21:19:23Z</time>
      </trkpt>
      <trkpt lat="48.86404" lon="2.35309">
        <ele>45.20000076294</ele>
        <time>2015-12-07T21:19:28Z</time>
      </trkpt>
      <trkpt lat="48.86386" lon="2.35302">
        <ele>45</ele>
        <time>2015-12-07T21:19:33Z</time>
      </trkpt>
      <trkpt lat="48.86365" lon="2.35303">
        <ele>44.79999923706</ele>
        <time>2015-12-07T21:19:39Z</time>
      </trkpt>
      <trkpt lat="48.86347" lon="2.35289">
        <ele>45.20000076294</ele>
        <time>2015-12-07T21:19:44Z</time>
      </trkpt>
      <trkpt lat="48.8633" lon="2.35268">
        <ele>46.20000076294</ele>
        <time>2015-12-07T21:19:48Z</time>
      </trkpt>
      <trkpt lat="48.86318" lon="2.35256">
        <ele>46.79999923706</ele>
        <time>2015-12-07T21:19:51Z</time>
      </trkpt>
      <trkpt lat="48.86316" lon="2.35243">
        <ele>47</ele>
        <time>2015-12-07T21:20:04Z</time>
      </trkpt>
      <trkpt lat="48.86309" lon="2.35235">
        <ele>47.400001525879</ele>
        <time>2015-12-07T21:20:08Z</time>
      </trkpt>
      <trkpt lat="48.86291" lon="2.35231">
        <ele>48</ele>
        <time>2015-12-07T21:20:14Z</time>
      </trkpt>
      <trkpt lat="48.86269" lon="2.35225">
        <ele>48.400001525879</ele>
        <time>2015-12-07T21:20:20Z</time>
      </trkpt>
      <trkpt lat="48.8625" lon="2.35211">
        <ele>47.79999923706</ele>
        <time>2015-12-07T21:20:26Z</time>
      </trkpt>
      <trkpt lat="48.86231" lon="2.35204">
        <ele>47</ele>
        <time>2015-12-07T21:20:31Z</time>
      </trkpt>
      <trkpt lat="48.86213" lon="2.35203">
        <ele>46.400001525879</ele>
        <time>2015-12-07T21:20:37Z</time>
      </trkpt>
      <trkpt lat="48.86196" lon="2.35195">
        <ele>45.79999923706</ele>
        <time>2015-12-07T21:20:42Z</time>
      </trkpt>
      <trkpt lat="48.86174" lon="2.35189">
        <ele>45.79999923706</ele>
        <time>2015-12-07T21:20:48Z</time>
      </trkpt>
      <trkpt lat="48.86156" lon="2.35184">
        <ele>46.20000076294</ele>
        <time>2015-12-07T21:20:53Z</time>
      </trkpt>
      <trkpt lat="48.86139" lon="2.35173">
        <ele>46.599998474121</ele>
        <time>2015-12-07T21:20:57Z</time>
      </trkpt>
      <trkpt lat="48.8612" lon="2.35164">
        <ele>46.79999923706</ele>
        <time>2015-12-07T21:21:02Z</time>
      </trkpt>
      <trkpt lat="48.86099" lon="2.35158">
        <ele>46.79999923706</ele>
        <time>2015-12-07T21:21:08Z</time>
      </trkpt>
      <trkpt lat="48.86078" lon="2.35159">
        <ele>47</ele>
        <time>2015-12-07T21:21:14Z</time>
      </trkpt>
      <trkpt lat="48.86059" lon="2.35156">
        <ele>47.20000076294</ele>
        <time>2015-12-07T21:21:19Z</time>
      </trkpt>
      <trkpt lat="48.86038" lon="2.35157">
        <ele>47.400001525879</ele>
        <time>2015-12-07T21:21:25Z</time>
      </trkpt>
      <trkpt lat="48.86027" lon="2.35134">
        <ele>46.599998474121</ele>
        <time>2015-12-07T21:21:29Z</time>
      </trkpt>
      <trkpt lat="48.86024" lon="2.35107">
        <ele>45.20000076294</ele>
        <time>2015-12-07T21:21:37Z</time>
      </trkpt>
      <trkpt lat="48.8603" lon="2.35078">
        <ele>44.20000076294</ele>
        <time>2015-12-07T21:21:42Z</time>
      </trkpt>
      <trkpt lat="48.86034" lon="2.35046">
        <ele>45.599998474121</ele>
        <time>2015-12-07T21:21:48Z</time>
      </trkpt>
      <trkpt lat="48.86042" lon="2.3502">
        <ele>47</ele>
        <time>2015-12-07T21:21:54Z</time>
      </trkpt>
      <trkpt lat="48.86052" lon="2.34994">
        <ele>47.400001525879</ele>
        <time>2015-12-07T21:22:02Z</time>
      </trkpt>
      <trkpt lat="48.86052" lon="2.34979">
        <ele>47.599998474121</ele>
        <time>2015-12-07T21:22:08Z</time>
      </trkpt>
      <trkpt lat="48.86053" lon="2.34975">
        <ele>47.599998474121</ele>
        <time>2015-12-07T21:22:10Z</time>
      </trkpt>
      <trkpt lat="48.86052" lon="2.34955">
        <ele>47.79999923706</ele>
        <time>2015-12-07T21:22:22Z</time>
      </trkpt>
      <trkpt lat="48.86051" lon="2.3494">
        <ele>48</ele>
        <time>2015-12-07T21:22:39Z</time>
      </trkpt>
      <trkpt lat="48.86053" lon="2.34934">
        <ele>48</ele>
        <time>2015-12-07T21:22:45Z</time>
      </trkpt>
      <trkpt lat="48.86064" lon="2.34909">
        <ele>48</ele>
        <time>2015-12-07T21:22:57Z</time>
      </trkpt>
      <trkpt lat="48.86072" lon="2.34883">
        <ele>47.400001525879</ele>
        <time>2015-12-07T21:23:05Z</time>
      </trkpt>
      <trkpt lat="48.86072" lon="2.34871">
        <ele>47.20000076294</ele>
        <time>2015-12-07T21:23:09Z</time>
      </trkpt>
      <trkpt lat="48.86055" lon="2.34856">
        <ele>47.400001525879</ele>
        <time>2015-12-07T21:23:16Z</time>
      </trkpt>
      <trkpt lat="48.86038" lon="2.34845">
        <ele>47.79999923706</ele>
        <time>2015-12-07T21:23:23Z</time>
      </trkpt>
      <trkpt lat="48.86016" lon="2.34839">
        <ele>48</ele>
        <time>2015-12-07T21:23:32Z</time>
      </trkpt>
      <trkpt lat="48.85998" lon="2.34833">
        <ele>48</ele>
        <time>2015-12-07T21:23:38Z</time>
      </trkpt>
      <trkpt lat="48.85981" lon="2.34816">
        <ele>47.20000076294</ele>
        <time>2015-12-07T21:23:43Z</time>
      </trkpt>
      <trkpt lat="48.85965" lon="2.34803">
        <ele>46.599998474121</ele>
        <time>2015-12-07T21:23:51Z</time>
      </trkpt>
      <trkpt lat="48.85959" lon="2.34801">
        <ele>46.599998474121</ele>
        <time>2015-12-07T21:23:56Z</time>
      </trkpt>
      <trkpt lat="48.85963" lon="2.34792">
        <ele>46.20000076294</ele>
        <time>2015-12-07T21:24:02Z</time>
      </trkpt>
      <trkpt lat="48.85968" lon="2.34774">
        <ele>45.20000076294</ele>
        <time>2015-12-07T21:24:07Z</time>
      </trkpt>
      <trkpt lat="48.85966" lon="2.34745">
        <ele>44.400001525879</ele>
        <time>2015-12-07T21:24:20Z</time>
      </trkpt>
      <trkpt lat="48.85962" lon="2.34732">
        <ele>44.79999923706</ele>
        <time>2015-12-07T21:24:34Z</time>
      </trkpt>
    </trkseg>
  </trk>
  <trk>
    <name><![CDATA[lundi 2015 11 30]]></name>
    <extensions>
      <line xmlns="http://www.topografix.com/GPX/gpx_style/0/2">
        <color>000000</color>
      </line>
    </extensions>
    <trkseg>
      <trkpt lat="48.85742" lon="2.34725">
        <ele>40.400001525879</ele>
        <time>2015-11-30T19:27:25Z</time>
      </trkpt>
      <trkpt lat="48.85738" lon="2.347">
        <ele>40</ele>
        <time>2015-11-30T19:27:53Z</time>
      </trkpt>
      <trkpt lat="48.85725" lon="2.34686">
        <ele>40</ele>
        <time>2015-11-30T19:28:09Z</time>
      </trkpt>
      <trkpt lat="48.85705" lon="2.34684">
        <ele>40.79999923706</ele>
        <time>2015-11-30T19:28:16Z</time>
      </trkpt>
      <trkpt lat="48.85687" lon="2.34676">
        <ele>41.20000076294</ele>
        <time>2015-11-30T19:28:22Z</time>
      </trkpt>
      <trkpt lat="48.85667" lon="2.34667">
        <ele>42.79999923706</ele>
        <time>2015-11-30T19:28:29Z</time>
      </trkpt>
      <trkpt lat="48.85648" lon="2.34655">
        <ele>44.400001525879</ele>
        <time>2015-11-30T19:28:35Z</time>
      </trkpt>
      <trkpt lat="48.85628" lon="2.34644">
        <ele>46.20000076294</ele>
        <time>2015-11-30T19:28:41Z</time>
      </trkpt>
      <trkpt lat="48.85609" lon="2.34642">
        <ele>47.79999923706</ele>
        <time>2015-11-30T19:28:46Z</time>
      </trkpt>
      <trkpt lat="48.85591" lon="2.34631">
        <ele>47.79999923706</ele>
        <time>2015-11-30T19:28:51Z</time>
      </trkpt>
      <trkpt lat="48.85573" lon="2.34623">
        <ele>47.599998474121</ele>
        <time>2015-11-30T19:28:55Z</time>
      </trkpt>
      <trkpt lat="48.85556" lon="2.34613">
        <ele>47.400001525879</ele>
        <time>2015-11-30T19:28:59Z</time>
      </trkpt>
      <trkpt lat="48.85539" lon="2.34602">
        <ele>47.20000076294</ele>
        <time>2015-11-30T19:29:03Z</time>
      </trkpt>
      <trkpt lat="48.85522" lon="2.34587">
        <ele>46.79999923706</ele>
        <time>2015-11-30T19:29:07Z</time>
      </trkpt>
      <trkpt lat="48.85511" lon="2.34577">
        <ele>46.20000076294</ele>
        <time>2015-11-30T19:29:10Z</time>
      </trkpt>
      <trkpt lat="48.85492" lon="2.34561">
        <ele>44.79999923706</ele>
        <time>2015-11-30T19:29:15Z</time>
      </trkpt>
      <trkpt lat="48.85475" lon="2.34548">
        <ele>43.599998474121</ele>
        <time>2015-11-30T19:29:19Z</time>
      </trkpt>
      <trkpt lat="48.85471" lon="2.34546">
        <ele>43.20000076294</ele>
        <time>2015-11-30T19:29:20Z</time>
      </trkpt>
      <trkpt lat="48.8545" lon="2.34531">
        <ele>41.79999923706</ele>
        <time>2015-11-30T19:29:25Z</time>
      </trkpt>
      <trkpt lat="48.85433" lon="2.34521">
        <ele>41.20000076294</ele>
        <time>2015-11-30T19:29:29Z</time>
      </trkpt>
      <trkpt lat="48.85425" lon="2.34514">
        <ele>41.599998474121</ele>
        <time>2015-11-30T19:29:31Z</time>
      </trkpt>
      <trkpt lat="48.85411" lon="2.34488">
        <ele>42</ele>
        <time>2015-11-30T19:29:36Z</time>
      </trkpt>
      <trkpt lat="48.85401" lon="2.3447">
        <ele>42.400001525879</ele>
        <time>2015-11-30T19:29:40Z</time>
      </trkpt>
      <trkpt lat="48.85398" lon="2.34463">
        <ele>42.599998474121</ele>
        <time>2015-11-30T19:29:42Z</time>
      </trkpt>
      <trkpt lat="48.85388" lon="2.34443">
        <ele>42.79999923706</ele>
        <time>2015-11-30T19:29:49Z</time>
      </trkpt>
      <trkpt lat="48.85381" lon="2.34433">
        <ele>43</ele>
        <time>2015-11-30T19:29:57Z</time>
      </trkpt>
      <trkpt lat="48.85367" lon="2.3441">
        <ele>43.400001525879</ele>
        <time>2015-11-30T19:30:22Z</time>
      </trkpt>
      <trkpt lat="48.85353" lon="2.34393">
        <ele>44.79999923706</ele>
        <time>2015-11-30T19:30:26Z</time>
      </trkpt>
      <trkpt lat="48.85337" lon="2.34374">
        <ele>45.79999923706</ele>
        <time>2015-11-30T19:30:30Z</time>
      </trkpt>
      <trkpt lat="48.85323" lon="2.34354">
        <ele>47</ele>
        <time>2015-11-30T19:30:34Z</time>
      </trkpt>
      <trkpt lat="48.8531" lon="2.34335">
        <ele>48</ele>
        <time>2015-11-30T19:30:38Z</time>
      </trkpt>
      <trkpt lat="48.85301" lon="2.34322">
        <ele>48.400001525879</ele>
        <time>2015-11-30T19:30:41Z</time>
      </trkpt>
      <trkpt lat="48.85294" lon="2.34294">
        <ele>49</ele>
        <time>2015-11-30T19:30:46Z</time>
      </trkpt>
      <trkpt lat="48.8529" lon="2.34278">
        <ele>49.20000076294</ele>
        <time>2015-11-30T19:30:50Z</time>
      </trkpt>
      <trkpt lat="48.85284" lon="2.34259">
        <ele>49.599998474121</ele>
        <time>2015-11-30T19:30:55Z</time>
      </trkpt>
      <trkpt lat="48.85272" lon="2.34238">
        <ele>49.400001525879</ele>
        <time>2015-11-30T19:31:01Z</time>
      </trkpt>
      <trkpt lat="48.85253" lon="2.34225">
        <ele>49</ele>
        <time>2015-11-30T19:31:05Z</time>
      </trkpt>
      <trkpt lat="48.85236" lon="2.34207">
        <ele>48</ele>
        <time>2015-11-30T19:31:08Z</time>
      </trkpt>
      <trkpt lat="48.85227" lon="2.34179">
        <ele>46.400001525879</ele>
        <time>2015-11-30T19:31:13Z</time>
      </trkpt>
      <trkpt lat="48.85222" lon="2.34156">
        <ele>45.599998474121</ele>
        <time>2015-11-30T19:31:17Z</time>
      </trkpt>
      <trkpt lat="48.85219" lon="2.34129">
        <ele>45.20000076294</ele>
        <time>2015-11-30T19:31:21Z</time>
      </trkpt>
      <trkpt lat="48.85218" lon="2.3411">
        <ele>45</ele>
        <time>2015-11-30T19:31:24Z</time>
      </trkpt>
      <trkpt lat="48.85205" lon="2.34088">
        <ele>45</ele>
        <time>2015-11-30T19:31:29Z</time>
      </trkpt>
      <trkpt lat="48.85201" lon="2.3408">
        <ele>44.79999923706</ele>
        <time>2015-11-30T19:31:31Z</time>
      </trkpt>
      <trkpt lat="48.85199" lon="2.34056">
        <ele>45.400001525879</ele>
        <time>2015-11-30T19:31:37Z</time>
      </trkpt>
      <trkpt lat="48.85193" lon="2.3403">
        <ele>46.20000076294</ele>
        <time>2015-11-30T19:31:43Z</time>
      </trkpt>
      <trkpt lat="48.8518" lon="2.34009">
        <ele>46.79999923706</ele>
        <time>2015-11-30T19:31:49Z</time>
      </trkpt>
      <trkpt lat="48.8517" lon="2.33981">
        <ele>48.400001525879</ele>
        <time>2015-11-30T19:31:55Z</time>
      </trkpt>
      <trkpt lat="48.85162" lon="2.33957">
        <ele>50</ele>
        <time>2015-11-30T19:32:00Z</time>
      </trkpt>
      <trkpt lat="48.85156" lon="2.33942">
        <ele>50.79999923706</ele>
        <time>2015-11-30T19:32:05Z</time>
      </trkpt>
      <trkpt lat="48.85161" lon="2.33935">
        <ele>51</ele>
        <time>2015-11-30T19:32:10Z</time>
      </trkpt>
      <trkpt lat="48.85164" lon="2.3393">
        <ele>51.20000076294</ele>
        <time>2015-11-30T19:32:13Z</time>
      </trkpt>
      <trkpt lat="48.85146" lon="2.33931">
        <ele>51.79999923706</ele>
        <time>2015-11-30T19:32:30Z</time>
      </trkpt>
      <trkpt lat="48.85126" lon="2.33938">
        <ele>52</ele>
        <time>2015-11-30T19:32:34Z</time>
      </trkpt>
      <trkpt lat="48.85106" lon="2.33951">
        <ele>51.400001525879</ele>
        <time>2015-11-30T19:32:38Z</time>
      </trkpt>
      <trkpt lat="48.85086" lon="2.33951">
        <ele>52</ele>
        <time>2015-11-30T19:32:43Z</time>
      </trkpt>
      <trkpt lat="48.85085" lon="2.33951">
        <ele>52</ele>
        <time>2015-11-30T19:32:44Z</time>
      </trkpt>
      <trkpt lat="48.85067" lon="2.3396">
        <ele>52.20000076294</ele>
        <time>2015-11-30T19:32:51Z</time>
      </trkpt>
      <trkpt lat="48.85049" lon="2.33972">
        <ele>52.599998474121</ele>
        <time>2015-11-30T19:32:58Z</time>
      </trkpt>
      <trkpt lat="48.85031" lon="2.3398">
        <ele>53.400001525879</ele>
        <time>2015-11-30T19:33:04Z</time>
      </trkpt>
      <trkpt lat="48.8501" lon="2.33988">
        <ele>53.599998474121</ele>
        <time>2015-11-30T19:33:10Z</time>
      </trkpt>
      <trkpt lat="48.85005" lon="2.33994">
        <ele>54.400001525879</ele>
        <time>2015-11-30T19:33:13Z</time>
      </trkpt>
      <trkpt lat="48.84998" lon="2.33995">
        <ele>55.20000076294</ele>
        <time>2015-11-30T19:33:20Z</time>
      </trkpt>
      <trkpt lat="48.8498" lon="2.34005">
        <ele>56.79999923706</ele>
        <time>2015-11-30T19:33:28Z</time>
      </trkpt>
      <trkpt lat="48.84961" lon="2.34006">
        <ele>58.599998474121</ele>
        <time>2015-11-30T19:33:35Z</time>
      </trkpt>
      <trkpt lat="48.84941" lon="2.34012">
        <ele>60</ele>
        <time>2015-11-30T19:33:41Z</time>
      </trkpt>
      <trkpt lat="48.84924" lon="2.34023">
        <ele>59.79999923706</ele>
        <time>2015-11-30T19:33:47Z</time>
      </trkpt>
      <trkpt lat="48.84911" lon="2.3404">
        <ele>59</ele>
        <time>2015-11-30T19:33:55Z</time>
      </trkpt>
      <trkpt lat="48.84904" lon="2.34045">
        <ele>59</ele>
        <time>2015-11-30T19:34:00Z</time>
      </trkpt>
      <trkpt lat="48.8488" lon="2.3405">
        <ele>60</ele>
        <time>2015-11-30T19:34:08Z</time>
      </trkpt>
      <trkpt lat="48.8487" lon="2.34053">
        <ele>60.400001525879</ele>
        <time>2015-11-30T19:34:10Z</time>
      </trkpt>
      <trkpt lat="48.8485" lon="2.34057">
        <ele>60.20000076294</ele>
        <time>2015-11-30T19:34:14Z</time>
      </trkpt>
      <trkpt lat="48.84828" lon="2.34063">
        <ele>58.599998474121</ele>
        <time>2015-11-30T19:34:18Z</time>
      </trkpt>
      <trkpt lat="48.84806" lon="2.34071">
        <ele>58.400001525879</ele>
        <time>2015-11-30T19:34:21Z</time>
      </trkpt>
      <trkpt lat="48.84788" lon="2.34081">
        <ele>58.400001525879</ele>
        <time>2015-11-30T19:34:24Z</time>
      </trkpt>
      <trkpt lat="48.84771" lon="2.34075">
        <ele>57.79999923706</ele>
        <time>2015-11-30T19:34:29Z</time>
      </trkpt>
      <trkpt lat="48.84766" lon="2.34074">
        <ele>57.599998474121</ele>
        <time>2015-11-30T19:34:32Z</time>
      </trkpt>
      <trkpt lat="48.84763" lon="2.34078">
        <ele>58</ele>
        <time>2015-11-30T19:34:38Z</time>
      </trkpt>
      <trkpt lat="48.84752" lon="2.34079">
        <ele>58.599998474121</ele>
        <time>2015-11-30T19:35:07Z</time>
      </trkpt>
      <trkpt lat="48.8475" lon="2.34065">
        <ele>57.20000076294</ele>
        <time>2015-11-30T19:35:11Z</time>
      </trkpt>
      <trkpt lat="48.8474" lon="2.34043">
        <ele>55.400001525879</ele>
        <time>2015-11-30T19:35:16Z</time>
      </trkpt>
      <trkpt lat="48.84723" lon="2.34042">
        <ele>55.599998474121</ele>
        <time>2015-11-30T19:35:21Z</time>
      </trkpt>
      <trkpt lat="48.84703" lon="2.34043">
        <ele>56.400001525879</ele>
        <time>2015-11-30T19:35:27Z</time>
      </trkpt>
      <trkpt lat="48.84684" lon="2.34042">
        <ele>57.599998474121</ele>
        <time>2015-11-30T19:35:32Z</time>
      </trkpt>
      <trkpt lat="48.84664" lon="2.34037">
        <ele>59.20000076294</ele>
        <time>2015-11-30T19:35:37Z</time>
      </trkpt>
      <trkpt lat="48.84646" lon="2.3403">
        <ele>60.599998474121</ele>
        <time>2015-11-30T19:35:42Z</time>
      </trkpt>
      <trkpt lat="48.84625" lon="2.34022">
        <ele>62</ele>
        <time>2015-11-30T19:35:47Z</time>
      </trkpt>
      <trkpt lat="48.84605" lon="2.34013">
        <ele>62.400001525879</ele>
        <time>2015-11-30T19:35:52Z</time>
      </trkpt>
      <trkpt lat="48.84586" lon="2.34005">
        <ele>63.20000076294</ele>
        <time>2015-11-30T19:35:57Z</time>
      </trkpt>
      <trkpt lat="48.84567" lon="2.33997">
        <ele>63.79999923706</ele>
        <time>2015-11-30T19:36:03Z</time>
      </trkpt>
      <trkpt lat="48.84549" lon="2.33988">
        <ele>64</ele>
        <time>2015-11-30T19:36:09Z</time>
      </trkpt>
      <trkpt lat="48.84531" lon="2.3398">
        <ele>64</ele>
        <time>2015-11-30T19:36:14Z</time>
      </trkpt>
      <trkpt lat="48.84512" lon="2.33969">
        <ele>64</ele>
        <time>2015-11-30T19:36:19Z</time>
      </trkpt>
      <trkpt lat="48.84491" lon="2.3396">
        <ele>64</ele>
        <time>2015-11-30T19:36:24Z</time>
      </trkpt>
      <trkpt lat="48.84471" lon="2.33952">
        <ele>63.79999923706</ele>
        <time>2015-11-30T19:36:29Z</time>
      </trkpt>
      <trkpt lat="48.84451" lon="2.33941">
        <ele>63.20000076294</ele>
        <time>2015-11-30T19:36:34Z</time>
      </trkpt>
      <trkpt lat="48.84433" lon="2.33934">
        <ele>62.400001525879</ele>
        <time>2015-11-30T19:36:39Z</time>
      </trkpt>
      <trkpt lat="48.84414" lon="2.33925">
        <ele>61.20000076294</ele>
        <time>2015-11-30T19:36:44Z</time>
      </trkpt>
      <trkpt lat="48.84398" lon="2.33915">
        <ele>60</ele>
        <time>2015-11-30T19:36:49Z</time>
      </trkpt>
      <trkpt lat="48.8438" lon="2.339">
        <ele>60.20000076294</ele>
        <time>2015-11-30T19:36:55Z</time>
      </trkpt>
      <trkpt lat="48.84362" lon="2.3389">
        <ele>60</ele>
        <time>2015-11-30T19:37:00Z</time>
      </trkpt>
      <trkpt lat="48.84344" lon="2.3388">
        <ele>60</ele>
        <time>2015-11-30T19:37:05Z</time>
      </trkpt>
      <trkpt lat="48.84325" lon="2.33869">
        <ele>60.20000076294</ele>
        <time>2015-11-30T19:37:11Z</time>
      </trkpt>
      <trkpt lat="48.84305" lon="2.33859">
        <ele>60.20000076294</ele>
        <time>2015-11-30T19:37:17Z</time>
      </trkpt>
      <trkpt lat="48.84288" lon="2.33849">
        <ele>60.400001525879</ele>
        <time>2015-11-30T19:37:22Z</time>
      </trkpt>
      <trkpt lat="48.84269" lon="2.33837">
        <ele>61</ele>
        <time>2015-11-30T19:37:28Z</time>
      </trkpt>
      <trkpt lat="48.8425" lon="2.33824">
        <ele>62.20000076294</ele>
        <time>2015-11-30T19:37:34Z</time>
      </trkpt>
      <trkpt lat="48.84233" lon="2.33813">
        <ele>63</ele>
        <time>2015-11-30T19:37:40Z</time>
      </trkpt>
      <trkpt lat="48.84215" lon="2.33804">
        <ele>63.79999923706</ele>
        <time>2015-11-30T19:37:46Z</time>
      </trkpt>
      <trkpt lat="48.84197" lon="2.33792">
        <ele>64.599998474121</ele>
        <time>2015-11-30T19:37:53Z</time>
      </trkpt>
      <trkpt lat="48.84179" lon="2.33784">
        <ele>64.599998474121</ele>
        <time>2015-11-30T19:37:59Z</time>
      </trkpt>
      <trkpt lat="48.84162" lon="2.33775">
        <ele>63.599998474121</ele>
        <time>2015-11-30T19:38:05Z</time>
      </trkpt>
      <trkpt lat="48.84142" lon="2.33763">
        <ele>62.599998474121</ele>
        <time>2015-11-30T19:38:11Z</time>
      </trkpt>
      <trkpt lat="48.84125" lon="2.33751">
        <ele>61.79999923706</ele>
        <time>2015-11-30T19:38:16Z</time>
      </trkpt>
      <trkpt lat="48.84106" lon="2.33738">
        <ele>61</ele>
        <time>2015-11-30T19:38:21Z</time>
      </trkpt>
      <trkpt lat="48.84089" lon="2.33728">
        <ele>61.20000076294</ele>
        <time>2015-11-30T19:38:26Z</time>
      </trkpt>
      <trkpt lat="48.84072" lon="2.33717">
        <ele>61.400001525879</ele>
        <time>2015-11-30T19:38:31Z</time>
      </trkpt>
      <trkpt lat="48.84054" lon="2.33705">
        <ele>61.79999923706</ele>
        <time>2015-11-30T19:38:37Z</time>
      </trkpt>
      <trkpt lat="48.84046" lon="2.33698">
        <ele>62</ele>
        <time>2015-11-30T19:38:43Z</time>
      </trkpt>
      <trkpt lat="48.84031" lon="2.3368">
        <ele>62</ele>
        <time>2015-11-30T19:38:57Z</time>
      </trkpt>
      <trkpt lat="48.84013" lon="2.33667">
        <ele>62</ele>
        <time>2015-11-30T19:39:04Z</time>
      </trkpt>
      <trkpt lat="48.83994" lon="2.33661">
        <ele>61.599998474121</ele>
        <time>2015-11-30T19:39:10Z</time>
      </trkpt>
      <trkpt lat="48.83974" lon="2.33659">
        <ele>61.20000076294</ele>
        <time>2015-11-30T19:39:16Z</time>
      </trkpt>
      <trkpt lat="48.83954" lon="2.33663">
        <ele>61.20000076294</ele>
        <time>2015-11-30T19:39:23Z</time>
      </trkpt>
      <trkpt lat="48.83934" lon="2.33663">
        <ele>61</ele>
        <time>2015-11-30T19:39:29Z</time>
      </trkpt>
      <trkpt lat="48.83914" lon="2.3366">
        <ele>60.79999923706</ele>
        <time>2015-11-30T19:39:35Z</time>
      </trkpt>
      <trkpt lat="48.83895" lon="2.33657">
        <ele>60.599998474121</ele>
        <time>2015-11-30T19:39:41Z</time>
      </trkpt>
      <trkpt lat="48.83875" lon="2.33654">
        <ele>60.400001525879</ele>
        <time>2015-11-30T19:39:48Z</time>
      </trkpt>
      <trkpt lat="48.83856" lon="2.33655">
        <ele>60.20000076294</ele>
        <time>2015-11-30T19:39:54Z</time>
      </trkpt>
      <trkpt lat="48.83837" lon="2.33663">
        <ele>61</ele>
        <time>2015-11-30T19:39:59Z</time>
      </trkpt>
      <trkpt lat="48.83818" lon="2.33668">
        <ele>61.79999923706</ele>
        <time>2015-11-30T19:40:04Z</time>
      </trkpt>
      <trkpt lat="48.83798" lon="2.33664">
        <ele>62.79999923706</ele>
        <time>2015-11-30T19:40:10Z</time>
      </trkpt>
      <trkpt lat="48.8378" lon="2.33664">
        <ele>63.599998474121</ele>
        <time>2015-11-30T19:40:15Z</time>
      </trkpt>
      <trkpt lat="48.83761" lon="2.33663">
        <ele>64</ele>
        <time>2015-11-30T19:40:20Z</time>
      </trkpt>
      <trkpt lat="48.83743" lon="2.33662">
        <ele>64</ele>
        <time>2015-11-30T19:40:25Z</time>
      </trkpt>
      <trkpt lat="48.83725" lon="2.33662">
        <ele>64</ele>
        <time>2015-11-30T19:40:31Z</time>
      </trkpt>
      <trkpt lat="48.83723" lon="2.33663">
        <ele>64</ele>
        <time>2015-11-30T19:40:32Z</time>
      </trkpt>
      <trkpt lat="48.83717" lon="2.33676">
        <ele>63.79999923706</ele>
        <time>2015-11-30T19:40:38Z</time>
      </trkpt>
      <trkpt lat="48.83708" lon="2.33704">
        <ele>63.20000076294</ele>
        <time>2015-11-30T19:40:46Z</time>
      </trkpt>
      <trkpt lat="48.83701" lon="2.33735">
        <ele>62.400001525879</ele>
        <time>2015-11-30T19:40:53Z</time>
      </trkpt>
      <trkpt lat="48.83697" lon="2.33767">
        <ele>61.599998474121</ele>
        <time>2015-11-30T19:40:59Z</time>
      </trkpt>
      <trkpt lat="48.83689" lon="2.33796">
        <ele>60.20000076294</ele>
        <time>2015-11-30T19:41:04Z</time>
      </trkpt>
      <trkpt lat="48.83685" lon="2.33819">
        <ele>59.400001525879</ele>
        <time>2015-11-30T19:41:08Z</time>
      </trkpt>
      <trkpt lat="48.83665" lon="2.33822">
        <ele>59.400001525879</ele>
        <time>2015-11-30T19:41:11Z</time>
      </trkpt>
      <trkpt lat="48.83647" lon="2.33813">
        <ele>60</ele>
        <time>2015-11-30T19:41:15Z</time>
      </trkpt>
      <trkpt lat="48.83643" lon="2.3381">
        <ele>60</ele>
        <time>2015-11-30T19:41:16Z</time>
      </trkpt>
      <trkpt lat="48.83624" lon="2.33799">
        <ele>60.599998474121</ele>
        <time>2015-11-30T19:41:20Z</time>
      </trkpt>
      <trkpt lat="48.83607" lon="2.33787">
        <ele>61</ele>
        <time>2015-11-30T19:41:24Z</time>
      </trkpt>
      <trkpt lat="48.8359" lon="2.33777">
        <ele>60.599998474121</ele>
        <time>2015-11-30T19:41:28Z</time>
      </trkpt>
      <trkpt lat="48.8357" lon="2.33763">
        <ele>60</ele>
        <time>2015-11-30T19:41:33Z</time>
      </trkpt>
      <trkpt lat="48.83549" lon="2.33752">
        <ele>59.20000076294</ele>
        <time>2015-11-30T19:41:38Z</time>
      </trkpt>
      <trkpt lat="48.83529" lon="2.3374">
        <ele>58.599998474121</ele>
        <time>2015-11-30T19:41:43Z</time>
      </trkpt>
      <trkpt lat="48.83516" lon="2.33733">
        <ele>58.599998474121</ele>
        <time>2015-11-30T19:41:46Z</time>
      </trkpt>
      <trkpt lat="48.83498" lon="2.33721">
        <ele>59.20000076294</ele>
        <time>2015-11-30T19:41:51Z</time>
      </trkpt>
      <trkpt lat="48.8348" lon="2.33709">
        <ele>60</ele>
        <time>2015-11-30T19:41:56Z</time>
      </trkpt>
      <trkpt lat="48.83463" lon="2.33697">
        <ele>60.599998474121</ele>
        <time>2015-11-30T19:42:01Z</time>
      </trkpt>
      <trkpt lat="48.83451" lon="2.33689">
        <ele>61.20000076294</ele>
        <time>2015-11-30T19:42:05Z</time>
      </trkpt>
      <trkpt lat="48.83441" lon="2.33683">
        <ele>61.400001525879</ele>
        <time>2015-11-30T19:42:08Z</time>
      </trkpt>
      <trkpt lat="48.83424" lon="2.33671">
        <ele>62</ele>
        <time>2015-11-30T19:42:13Z</time>
      </trkpt>
      <trkpt lat="48.83406" lon="2.3367">
        <ele>62.20000076294</ele>
        <time>2015-11-30T19:42:19Z</time>
      </trkpt>
      <trkpt lat="48.83395" lon="2.33697">
        <ele>61.79999923706</ele>
        <time>2015-11-30T19:42:25Z</time>
      </trkpt>
      <trkpt lat="48.8339" lon="2.33724">
        <ele>61.20000076294</ele>
        <time>2015-11-30T19:42:31Z</time>
      </trkpt>
      <trkpt lat="48.83386" lon="2.33753">
        <ele>60.400001525879</ele>
        <time>2015-11-30T19:42:37Z</time>
      </trkpt>
      <trkpt lat="48.8338" lon="2.33785">
        <ele>59.400001525879</ele>
        <time>2015-11-30T19:42:43Z</time>
      </trkpt>
      <trkpt lat="48.83375" lon="2.33812">
        <ele>58.400001525879</ele>
        <time>2015-11-30T19:42:48Z</time>
      </trkpt>
      <trkpt lat="48.83368" lon="2.33843">
        <ele>57.400001525879</ele>
        <time>2015-11-30T19:42:53Z</time>
      </trkpt>
      <trkpt lat="48.83362" lon="2.33875">
        <ele>55.79999923706</ele>
        <time>2015-11-30T19:42:58Z</time>
      </trkpt>
      <trkpt lat="48.83357" lon="2.33901">
        <ele>54.599998474121</ele>
        <time>2015-11-30T19:43:02Z</time>
      </trkpt>
      <trkpt lat="48.8335" lon="2.33928">
        <ele>53.79999923706</ele>
        <time>2015-11-30T19:43:06Z</time>
      </trkpt>
      <trkpt lat="48.83343" lon="2.33956">
        <ele>53.20000076294</ele>
        <time>2015-11-30T19:43:10Z</time>
      </trkpt>
      <trkpt lat="48.83337" lon="2.33985">
        <ele>52.599998474121</ele>
        <time>2015-11-30T19:43:14Z</time>
      </trkpt>
      <trkpt lat="48.83331" lon="2.34014">
        <ele>52.599998474121</ele>
        <time>2015-11-30T19:43:18Z</time>
      </trkpt>
      <trkpt lat="48.83325" lon="2.34044">
        <ele>52.599998474121</ele>
        <time>2015-11-30T19:43:22Z</time>
      </trkpt>
      <trkpt lat="48.83319" lon="2.34072">
        <ele>51.400001525879</ele>
        <time>2015-11-30T19:43:26Z</time>
      </trkpt>
      <trkpt lat="48.83313" lon="2.34098">
        <ele>50.79999923706</ele>
        <time>2015-11-30T19:43:30Z</time>
      </trkpt>
      <trkpt lat="48.83308" lon="2.34119">
        <ele>50.400001525879</ele>
        <time>2015-11-30T19:43:34Z</time>
      </trkpt>
      <trkpt lat="48.8329" lon="2.34125">
        <ele>49.79999923706</ele>
        <time>2015-11-30T19:43:39Z</time>
      </trkpt>
      <trkpt lat="48.83287" lon="2.34125">
        <ele>49.79999923706</ele>
        <time>2015-11-30T19:43:40Z</time>
      </trkpt>
      <trkpt lat="48.83282" lon="2.34124">
        <ele>49.599998474121</ele>
        <time>2015-11-30T19:43:42Z</time>
      </trkpt>
      <trkpt lat="48.8327" lon="2.34122">
        <ele>49.599998474121</ele>
        <time>2015-11-30T19:43:47Z</time>
      </trkpt>
      <trkpt lat="48.83252" lon="2.34119">
        <ele>50</ele>
        <time>2015-11-30T19:43:55Z</time>
      </trkpt>
      <trkpt lat="48.83234" lon="2.34112">
        <ele>50.79999923706</ele>
        <time>2015-11-30T19:44:05Z</time>
      </trkpt>
      <trkpt lat="48.83215" lon="2.34106">
        <ele>51.400001525879</ele>
        <time>2015-11-30T19:44:11Z</time>
      </trkpt>
      <trkpt lat="48.83204" lon="2.34103">
        <ele>51.79999923706</ele>
        <time>2015-11-30T19:44:16Z</time>
      </trkpt>
      <trkpt lat="48.83192" lon="2.34097">
        <ele>52.400001525879</ele>
        <time>2015-11-30T19:44:58Z</time>
      </trkpt>
      <trkpt lat="48.83175" lon="2.34087">
        <ele>53</ele>
        <time>2015-11-30T19:45:09Z</time>
      </trkpt>
      <trkpt lat="48.83157" lon="2.34086">
        <ele>53.20000076294</ele>
        <time>2015-11-30T19:45:15Z</time>
      </trkpt>
      <trkpt lat="48.83136" lon="2.34083">
        <ele>53.599998474121</ele>
        <time>2015-11-30T19:45:21Z</time>
      </trkpt>
      <trkpt lat="48.83115" lon="2.3408">
        <ele>54</ele>
        <time>2015-11-30T19:45:27Z</time>
      </trkpt>
      <trkpt lat="48.83093" lon="2.34076">
        <ele>54</ele>
        <time>2015-11-30T19:45:33Z</time>
      </trkpt>
      <trkpt lat="48.83075" lon="2.34069">
        <ele>54</ele>
        <time>2015-11-30T19:45:38Z</time>
      </trkpt>
      <trkpt lat="48.83057" lon="2.34062">
        <ele>53.79999923706</ele>
        <time>2015-11-30T19:45:43Z</time>
      </trkpt>
      <trkpt lat="48.83039" lon="2.34059">
        <ele>53.79999923706</ele>
        <time>2015-11-30T19:45:48Z</time>
      </trkpt>
      <trkpt lat="48.83023" lon="2.34045">
        <ele>53.79999923706</ele>
        <time>2015-11-30T19:45:55Z</time>
      </trkpt>
      <trkpt lat="48.83025" lon="2.34017">
        <ele>54.599998474121</ele>
        <time>2015-11-30T19:46:00Z</time>
      </trkpt>
      <trkpt lat="48.83027" lon="2.33988">
        <ele>55.599998474121</ele>
        <time>2015-11-30T19:46:05Z</time>
      </trkpt>
      <trkpt lat="48.83031" lon="2.3396">
        <ele>57</ele>
        <time>2015-11-30T19:46:10Z</time>
      </trkpt>
      <trkpt lat="48.8303" lon="2.33929">
        <ele>58.599998474121</ele>
        <time>2015-11-30T19:46:16Z</time>
      </trkpt>
      <trkpt lat="48.83032" lon="2.33898">
        <ele>59.20000076294</ele>
        <time>2015-11-30T19:46:21Z</time>
      </trkpt>
      <trkpt lat="48.83032" lon="2.33866">
        <ele>59.20000076294</ele>
        <time>2015-11-30T19:46:26Z</time>
      </trkpt>
      <trkpt lat="48.83033" lon="2.33835">
        <ele>59</ele>
        <time>2015-11-30T19:46:31Z</time>
      </trkpt>
      <trkpt lat="48.83035" lon="2.33806">
        <ele>58.79999923706</ele>
        <time>2015-11-30T19:46:36Z</time>
      </trkpt>
      <trkpt lat="48.83039" lon="2.33778">
        <ele>58.79999923706</ele>
        <time>2015-11-30T19:46:41Z</time>
      </trkpt>
      <trkpt lat="48.83042" lon="2.33751">
        <ele>59</ele>
        <time>2015-11-30T19:46:46Z</time>
      </trkpt>
      <trkpt lat="48.83043" lon="2.33721">
        <ele>58.599998474121</ele>
        <time>2015-11-30T19:46:51Z</time>
      </trkpt>
      <trkpt lat="48.83046" lon="2.3369">
        <ele>58.400001525879</ele>
        <time>2015-11-30T19:46:57Z</time>
      </trkpt>
      <trkpt lat="48.83047" lon="2.33682">
        <ele>58.20000076294</ele>
        <time>2015-11-30T19:46:59Z</time>
      </trkpt>
      <trkpt lat="48.83031" lon="2.33665">
        <ele>58.20000076294</ele>
        <time>2015-11-30T19:47:05Z</time>
      </trkpt>
      <trkpt lat="48.83026" lon="2.33665">
        <ele>58</ele>
        <time>2015-11-30T19:47:07Z</time>
      </trkpt>
      <trkpt lat="48.83005" lon="2.33665">
        <ele>58</ele>
        <time>2015-11-30T19:47:13Z</time>
      </trkpt>
      <trkpt lat="48.82985" lon="2.33663">
        <ele>58</ele>
        <time>2015-11-30T19:47:18Z</time>
      </trkpt>
      <trkpt lat="48.82964" lon="2.33663">
        <ele>58</ele>
        <time>2015-11-30T19:47:23Z</time>
      </trkpt>
      <trkpt lat="48.82943" lon="2.33662">
        <ele>58.20000076294</ele>
        <time>2015-11-30T19:47:28Z</time>
      </trkpt>
      <trkpt lat="48.82923" lon="2.33661">
        <ele>58.400001525879</ele>
        <time>2015-11-30T19:47:33Z</time>
      </trkpt>
      <trkpt lat="48.82904" lon="2.33657">
        <ele>58.79999923706</ele>
        <time>2015-11-30T19:47:38Z</time>
      </trkpt>
      <trkpt lat="48.82884" lon="2.33657">
        <ele>59.20000076294</ele>
        <time>2015-11-30T19:47:43Z</time>
      </trkpt>
      <trkpt lat="48.82862" lon="2.33659">
        <ele>59.20000076294</ele>
        <time>2015-11-30T19:47:48Z</time>
      </trkpt>
      <trkpt lat="48.8284" lon="2.33661">
        <ele>59.400001525879</ele>
        <time>2015-11-30T19:47:53Z</time>
      </trkpt>
      <trkpt lat="48.8282" lon="2.3366">
        <ele>60</ele>
        <time>2015-11-30T19:47:58Z</time>
      </trkpt>
      <trkpt lat="48.828" lon="2.33656">
        <ele>60.599998474121</ele>
        <time>2015-11-30T19:48:03Z</time>
      </trkpt>
      <trkpt lat="48.82778" lon="2.33656">
        <ele>61.20000076294</ele>
        <time>2015-11-30T19:48:08Z</time>
      </trkpt>
      <trkpt lat="48.82758" lon="2.33662">
        <ele>60.79999923706</ele>
        <time>2015-11-30T19:48:13Z</time>
      </trkpt>
      <trkpt lat="48.82739" lon="2.33666">
        <ele>60.400001525879</ele>
        <time>2015-11-30T19:48:19Z</time>
      </trkpt>
      <trkpt lat="48.82722" lon="2.33665">
        <ele>60.400001525879</ele>
        <time>2015-11-30T19:48:37Z</time>
      </trkpt>
      <trkpt lat="48.82727" lon="2.33639">
        <ele>60.79999923706</ele>
        <time>2015-11-30T19:48:43Z</time>
      </trkpt>
      <trkpt lat="48.82733" lon="2.33611">
        <ele>61.400001525879</ele>
        <time>2015-11-30T19:48:50Z</time>
      </trkpt>
      <trkpt lat="48.82735" lon="2.33584">
        <ele>62.599998474121</ele>
        <time>2015-11-30T19:48:55Z</time>
      </trkpt>
      <trkpt lat="48.82738" lon="2.33554">
        <ele>65.400001525879</ele>
        <time>2015-11-30T19:49:01Z</time>
      </trkpt>
      <trkpt lat="48.82738" lon="2.33525">
        <ele>66.199996948242</ele>
        <time>2015-11-30T19:49:08Z</time>
      </trkpt>
      <trkpt lat="48.82735" lon="2.33495">
        <ele>66.800003051758</ele>
        <time>2015-11-30T19:49:15Z</time>
      </trkpt>
      <trkpt lat="48.82732" lon="2.33483">
        <ele>67.800003051758</ele>
        <time>2015-11-30T19:49:21Z</time>
      </trkpt>
      <trkpt lat="48.82728" lon="2.33479">
        <ele>68.199996948242</ele>
        <time>2015-11-30T19:49:26Z</time>
      </trkpt>
      <trkpt lat="48.82717" lon="2.33487">
        <ele>68.199996948242</ele>
        <time>2015-11-30T19:50:04Z</time>
      </trkpt>
      <trkpt lat="48.82701" lon="2.33479">
        <ele>69.599998474121</ele>
        <time>2015-11-30T19:50:13Z</time>
      </trkpt>
      <trkpt lat="48.8268" lon="2.33477">
        <ele>70.400001525879</ele>
        <time>2015-11-30T19:50:19Z</time>
      </trkpt>
      <trkpt lat="48.8266" lon="2.33474">
        <ele>71.199996948242</ele>
        <time>2015-11-30T19:50:26Z</time>
      </trkpt>
      <trkpt lat="48.8265" lon="2.33471">
        <ele>71.599998474121</ele>
        <time>2015-11-30T19:50:31Z</time>
      </trkpt>
      <trkpt lat="48.82631" lon="2.33466">
        <ele>72.599998474121</ele>
        <time>2015-11-30T19:50:42Z</time>
      </trkpt>
      <trkpt lat="48.82612" lon="2.33463">
        <ele>73.400001525879</ele>
        <time>2015-11-30T19:50:50Z</time>
      </trkpt>
      <trkpt lat="48.82592" lon="2.3346">
        <ele>73.400001525879</ele>
        <time>2015-11-30T19:50:57Z</time>
      </trkpt>
      <trkpt lat="48.82573" lon="2.33447">
        <ele>73.599998474121</ele>
        <time>2015-11-30T19:51:06Z</time>
      </trkpt>
      <trkpt lat="48.82572" lon="2.33445">
        <ele>73.800003051758</ele>
        <time>2015-11-30T19:51:07Z</time>
      </trkpt>
      <trkpt lat="48.82569" lon="2.33442">
        <ele>73.800003051758</ele>
        <time>2015-11-30T19:51:11Z</time>
      </trkpt>
      <trkpt lat="48.82561" lon="2.33458">
        <ele>72.599998474121</ele>
        <time>2015-11-30T19:51:41Z</time>
      </trkpt>
      <trkpt lat="48.82557" lon="2.33485">
        <ele>69.800003051758</ele>
        <time>2015-11-30T19:51:47Z</time>
      </trkpt>
      <trkpt lat="48.82555" lon="2.33512">
        <ele>67.400001525879</ele>
        <time>2015-11-30T19:51:52Z</time>
      </trkpt>
      <trkpt lat="48.82553" lon="2.33536">
        <ele>66</ele>
        <time>2015-11-30T19:51:57Z</time>
      </trkpt>
      <trkpt lat="48.82538" lon="2.33543">
        <ele>65.199996948242</ele>
        <time>2015-11-30T19:52:02Z</time>
      </trkpt>
      <trkpt lat="48.82519" lon="2.33547">
        <ele>64.400001525879</ele>
        <time>2015-11-30T19:52:07Z</time>
      </trkpt>
      <trkpt lat="48.82498" lon="2.33554">
        <ele>65.599998474121</ele>
        <time>2015-11-30T19:52:12Z</time>
      </trkpt>
      <trkpt lat="48.8248" lon="2.33562">
        <ele>67</ele>
        <time>2015-11-30T19:52:16Z</time>
      </trkpt>
      <trkpt lat="48.82463" lon="2.3357">
        <ele>68.199996948242</ele>
        <time>2015-11-30T19:52:20Z</time>
      </trkpt>
      <trkpt lat="48.82444" lon="2.33578">
        <ele>69.599998474121</ele>
        <time>2015-11-30T19:52:25Z</time>
      </trkpt>
      <trkpt lat="48.82428" lon="2.33589">
        <ele>69.599998474121</ele>
        <time>2015-11-30T19:52:35Z</time>
      </trkpt>
      <trkpt lat="48.8241" lon="2.33594">
        <ele>69.800003051758</ele>
        <time>2015-11-30T19:52:47Z</time>
      </trkpt>
      <trkpt lat="48.82389" lon="2.3359">
        <ele>71</ele>
        <time>2015-11-30T19:52:52Z</time>
      </trkpt>
      <trkpt lat="48.8238" lon="2.33586">
        <ele>71.599998474121</ele>
        <time>2015-11-30T19:52:54Z</time>
      </trkpt>
      <trkpt lat="48.8236" lon="2.33575">
        <ele>73.199996948242</ele>
        <time>2015-11-30T19:52:58Z</time>
      </trkpt>
      <trkpt lat="48.82343" lon="2.33567">
        <ele>74.400001525879</ele>
        <time>2015-11-30T19:53:01Z</time>
      </trkpt>
      <trkpt lat="48.82323" lon="2.33557">
        <ele>76.199996948242</ele>
        <time>2015-11-30T19:53:04Z</time>
      </trkpt>
      <trkpt lat="48.82299" lon="2.33544">
        <ele>78.400001525879</ele>
        <time>2015-11-30T19:53:08Z</time>
      </trkpt>
      <trkpt lat="48.82278" lon="2.33532">
        <ele>80.400001525879</ele>
        <time>2015-11-30T19:53:12Z</time>
      </trkpt>
      <trkpt lat="48.82269" lon="2.33526">
        <ele>81</ele>
        <time>2015-11-30T19:53:14Z</time>
      </trkpt>
      <trkpt lat="48.82251" lon="2.3351">
        <ele>81.199996948242</ele>
        <time>2015-11-30T19:53:18Z</time>
      </trkpt>
      <trkpt lat="48.82242" lon="2.33505">
        <ele>81.400001525879</ele>
        <time>2015-11-30T19:53:20Z</time>
      </trkpt>
      <trkpt lat="48.82234" lon="2.33501">
        <ele>81.400001525879</ele>
        <time>2015-11-30T19:53:22Z</time>
      </trkpt>
      <trkpt lat="48.82214" lon="2.33491">
        <ele>81.599998474121</ele>
        <time>2015-11-30T19:53:26Z</time>
      </trkpt>
      <trkpt lat="48.82209" lon="2.33488">
        <ele>81.599998474121</ele>
        <time>2015-11-30T19:53:27Z</time>
      </trkpt>
      <trkpt lat="48.82193" lon="2.33475">
        <ele>81.800003051758</ele>
        <time>2015-11-30T19:53:31Z</time>
      </trkpt>
      <trkpt lat="48.82175" lon="2.33461">
        <ele>82.199996948242</ele>
        <time>2015-11-30T19:53:36Z</time>
      </trkpt>
      <trkpt lat="48.82157" lon="2.33451">
        <ele>82.199996948242</ele>
        <time>2015-11-30T19:53:41Z</time>
      </trkpt>
      <trkpt lat="48.82154" lon="2.33448">
        <ele>82.400001525879</ele>
        <time>2015-11-30T19:53:42Z</time>
      </trkpt>
      <trkpt lat="48.82146" lon="2.33435">
        <ele>82.800003051758</ele>
        <time>2015-11-30T19:53:48Z</time>
      </trkpt>
      <trkpt lat="48.82141" lon="2.33427">
        <ele>83</ele>
        <time>2015-11-30T19:55:17Z</time>
      </trkpt>
      <trkpt lat="48.82121" lon="2.33423">
        <ele>82.800003051758</ele>
        <time>2015-11-30T19:55:25Z</time>
      </trkpt>
      <trkpt lat="48.82102" lon="2.33428">
        <ele>82.599998474121</ele>
        <time>2015-11-30T19:55:34Z</time>
      </trkpt>
      <trkpt lat="48.82084" lon="2.33422">
        <ele>82.599998474121</ele>
        <time>2015-11-30T19:55:41Z</time>
      </trkpt>
      <trkpt lat="48.82064" lon="2.33415">
        <ele>82.400001525879</ele>
        <time>2015-11-30T19:55:48Z</time>
      </trkpt>
      <trkpt lat="48.82045" lon="2.33409">
        <ele>82.400001525879</ele>
        <time>2015-11-30T19:55:54Z</time>
      </trkpt>
      <trkpt lat="48.82026" lon="2.33397">
        <ele>82.199996948242</ele>
        <time>2015-11-30T19:56:01Z</time>
      </trkpt>
      <trkpt lat="48.82009" lon="2.33385">
        <ele>82.599998474121</ele>
        <time>2015-11-30T19:56:08Z</time>
      </trkpt>
      <trkpt lat="48.81989" lon="2.33377">
        <ele>82.800003051758</ele>
        <time>2015-11-30T19:56:16Z</time>
      </trkpt>
      <trkpt lat="48.8197" lon="2.33365">
        <ele>83.199996948242</ele>
        <time>2015-11-30T19:56:22Z</time>
      </trkpt>
      <trkpt lat="48.81951" lon="2.33357">
        <ele>83.199996948242</ele>
        <time>2015-11-30T19:56:28Z</time>
      </trkpt>
      <trkpt lat="48.81929" lon="2.33344">
        <ele>83</ele>
        <time>2015-11-30T19:56:35Z</time>
      </trkpt>
      <trkpt lat="48.81912" lon="2.33334">
        <ele>82.599998474121</ele>
        <time>2015-11-30T19:56:41Z</time>
      </trkpt>
      <trkpt lat="48.81894" lon="2.33323">
        <ele>82</ele>
        <time>2015-11-30T19:56:45Z</time>
      </trkpt>
      <trkpt lat="48.81874" lon="2.33312">
        <ele>81.400001525879</ele>
        <time>2015-11-30T19:56:50Z</time>
      </trkpt>
      <trkpt lat="48.81857" lon="2.33303">
        <ele>80.800003051758</ele>
        <time>2015-11-30T19:56:54Z</time>
      </trkpt>
      <trkpt lat="48.81839" lon="2.33295">
        <ele>81.400001525879</ele>
        <time>2015-11-30T19:56:58Z</time>
      </trkpt>
      <trkpt lat="48.8182" lon="2.33286">
        <ele>82.400001525879</ele>
        <time>2015-11-30T19:57:02Z</time>
      </trkpt>
      <trkpt lat="48.81788" lon="2.33278">
        <ele>83.599998474121</ele>
        <time>2015-11-30T19:57:08Z</time>
      </trkpt>
      <trkpt lat="48.81771" lon="2.33259">
        <ele>84.599998474121</ele>
        <time>2015-11-30T19:57:13Z</time>
      </trkpt>
      <trkpt lat="48.81752" lon="2.33242">
        <ele>84.199996948242</ele>
        <time>2015-11-30T19:57:18Z</time>
      </trkpt>
      <trkpt lat="48.81735" lon="2.33227">
        <ele>83.199996948242</ele>
        <time>2015-11-30T19:57:22Z</time>
      </trkpt>
      <trkpt lat="48.81716" lon="2.33219">
        <ele>82.400001525879</ele>
        <time>2015-11-30T19:57:29Z</time>
      </trkpt>
      <trkpt lat="48.81696" lon="2.33219">
        <ele>81.599998474121</ele>
        <time>2015-11-30T19:57:41Z</time>
      </trkpt>
      <trkpt lat="48.81696" lon="2.33218">
        <ele>81.599998474121</ele>
        <time>2015-11-30T19:57:42Z</time>
      </trkpt>
      <trkpt lat="48.81697" lon="2.33209">
        <ele>81.400001525879</ele>
        <time>2015-11-30T19:57:47Z</time>
      </trkpt>
      <trkpt lat="48.81696" lon="2.33203">
        <ele>81.199996948242</ele>
        <time>2015-11-30T19:57:50Z</time>
      </trkpt>
      <trkpt lat="48.81694" lon="2.33202">
        <ele>81.199996948242</ele>
        <time>2015-11-30T19:57:52Z</time>
      </trkpt>
      <trkpt lat="48.81685" lon="2.33194">
        <ele>80.599998474121</ele>
        <time>2015-11-30T19:58:22Z</time>
      </trkpt>
      <trkpt lat="48.81676" lon="2.33193">
        <ele>80.400001525879</ele>
        <time>2015-11-30T19:58:29Z</time>
      </trkpt>
      <trkpt lat="48.81659" lon="2.3318">
        <ele>79.599998474121</ele>
        <time>2015-11-30T19:58:36Z</time>
      </trkpt>
      <trkpt lat="48.81642" lon="2.33162">
        <ele>78.800003051758</ele>
        <time>2015-11-30T19:58:42Z</time>
      </trkpt>
      <trkpt lat="48.81625" lon="2.33146">
        <ele>78.199996948242</ele>
        <time>2015-11-30T19:58:47Z</time>
      </trkpt>
      <trkpt lat="48.81608" lon="2.33131">
        <ele>77.599998474121</ele>
        <time>2015-11-30T19:58:52Z</time>
      </trkpt>
      <trkpt lat="48.8159" lon="2.33116">
        <ele>78.599998474121</ele>
        <time>2015-11-30T19:58:57Z</time>
      </trkpt>
      <trkpt lat="48.81572" lon="2.33101">
        <ele>79.599998474121</ele>
        <time>2015-11-30T19:59:02Z</time>
      </trkpt>
      <trkpt lat="48.81554" lon="2.33085">
        <ele>80.800003051758</ele>
        <time>2015-11-30T19:59:07Z</time>
      </trkpt>
      <trkpt lat="48.81537" lon="2.33073">
        <ele>81.800003051758</ele>
        <time>2015-11-30T19:59:12Z</time>
      </trkpt>
      <trkpt lat="48.81521" lon="2.33061">
        <ele>83</ele>
        <time>2015-11-30T19:59:16Z</time>
      </trkpt>
      <trkpt lat="48.81504" lon="2.33047">
        <ele>82.800003051758</ele>
        <time>2015-11-30T19:59:20Z</time>
      </trkpt>
      <trkpt lat="48.81498" lon="2.33041">
        <ele>82.800003051758</ele>
        <time>2015-11-30T19:59:23Z</time>
      </trkpt>
      <trkpt lat="48.81493" lon="2.33038">
        <ele>82.599998474121</ele>
        <time>2015-11-30T19:59:25Z</time>
      </trkpt>
      <trkpt lat="48.81475" lon="2.33024">
        <ele>82.400001525879</ele>
        <time>2015-11-30T19:59:32Z</time>
      </trkpt>
      <trkpt lat="48.81457" lon="2.33009">
        <ele>82.199996948242</ele>
        <time>2015-11-30T19:59:36Z</time>
      </trkpt>
      <trkpt lat="48.81441" lon="2.32995">
        <ele>82</ele>
        <time>2015-11-30T19:59:40Z</time>
      </trkpt>
      <trkpt lat="48.81424" lon="2.32985">
        <ele>82.199996948242</ele>
        <time>2015-11-30T19:59:45Z</time>
      </trkpt>
      <trkpt lat="48.81407" lon="2.32971">
        <ele>82.400001525879</ele>
        <time>2015-11-30T19:59:50Z</time>
      </trkpt>
      <trkpt lat="48.81391" lon="2.32955">
        <ele>82.199996948242</ele>
        <time>2015-11-30T19:59:55Z</time>
      </trkpt>
      <trkpt lat="48.81373" lon="2.32938">
        <ele>82.400001525879</ele>
        <time>2015-11-30T20:00:00Z</time>
      </trkpt>
      <trkpt lat="48.81351" lon="2.3292">
        <ele>82.199996948242</ele>
        <time>2015-11-30T20:00:04Z</time>
      </trkpt>
      <trkpt lat="48.81327" lon="2.329">
        <ele>81.599998474121</ele>
        <time>2015-11-30T20:00:09Z</time>
      </trkpt>
      <trkpt lat="48.81309" lon="2.3289">
        <ele>81.400001525879</ele>
        <time>2015-11-30T20:00:13Z</time>
      </trkpt>
      <trkpt lat="48.8129" lon="2.32877">
        <ele>81.199996948242</ele>
        <time>2015-11-30T20:00:17Z</time>
      </trkpt>
      <trkpt lat="48.81271" lon="2.32865">
        <ele>81</ele>
        <time>2015-11-30T20:00:21Z</time>
      </trkpt>
      <trkpt lat="48.81255" lon="2.32847">
        <ele>80.400001525879</ele>
        <time>2015-11-30T20:00:25Z</time>
      </trkpt>
      <trkpt lat="48.81254" lon="2.3284">
        <ele>80.400001525879</ele>
        <time>2015-11-30T20:00:28Z</time>
      </trkpt>
      <trkpt lat="48.81247" lon="2.32819">
        <ele>80.199996948242</ele>
        <time>2015-11-30T20:00:34Z</time>
      </trkpt>
      <trkpt lat="48.81225" lon="2.32815">
        <ele>79.400001525879</ele>
        <time>2015-11-30T20:00:36Z</time>
      </trkpt>
      <trkpt lat="48.81209" lon="2.32806">
        <ele>79</ele>
        <time>2015-11-30T20:00:41Z</time>
      </trkpt>
      <trkpt lat="48.81191" lon="2.32795">
        <ele>78.599998474121</ele>
        <time>2015-11-30T20:00:46Z</time>
      </trkpt>
      <trkpt lat="48.81187" lon="2.32792">
        <ele>78.400001525879</ele>
        <time>2015-11-30T20:00:47Z</time>
      </trkpt>
      <trkpt lat="48.81176" lon="2.32777">
        <ele>78.800003051758</ele>
        <time>2015-11-30T20:00:51Z</time>
      </trkpt>
      <trkpt lat="48.81168" lon="2.32765">
        <ele>79</ele>
        <time>2015-11-30T20:00:54Z</time>
      </trkpt>
      <trkpt lat="48.81156" lon="2.32752">
        <ele>79.400001525879</ele>
        <time>2015-11-30T20:00:58Z</time>
      </trkpt>
      <trkpt lat="48.81141" lon="2.32744">
        <ele>79.599998474121</ele>
        <time>2015-11-30T20:01:02Z</time>
      </trkpt>
      <trkpt lat="48.81132" lon="2.3273">
        <ele>79.800003051758</ele>
        <time>2015-11-30T20:01:06Z</time>
      </trkpt>
      <trkpt lat="48.81125" lon="2.32723">
        <ele>80</ele>
        <time>2015-11-30T20:01:07Z</time>
      </trkpt>
      <trkpt lat="48.81109" lon="2.32708">
        <ele>80.400001525879</ele>
        <time>2015-11-30T20:01:14Z</time>
      </trkpt>
      <trkpt lat="48.8109" lon="2.32708">
        <ele>80.199996948242</ele>
        <time>2015-11-30T20:01:19Z</time>
      </trkpt>
      <trkpt lat="48.81076" lon="2.32692">
        <ele>80.400001525879</ele>
        <time>2015-11-30T20:01:32Z</time>
      </trkpt>
      <trkpt lat="48.81066" lon="2.32687">
        <ele>80.199996948242</ele>
        <time>2015-11-30T20:02:12Z</time>
      </trkpt>
      <trkpt lat="48.81064" lon="2.32685">
        <ele>80.199996948242</ele>
        <time>2015-11-30T20:02:13Z</time>
      </trkpt>
      <trkpt lat="48.81057" lon="2.32683">
        <ele>80.199996948242</ele>
        <time>2015-11-30T20:02:16Z</time>
      </trkpt>
      <trkpt lat="48.81041" lon="2.32679">
        <ele>80</ele>
        <time>2015-11-30T20:02:22Z</time>
      </trkpt>
      <trkpt lat="48.81033" lon="2.32675">
        <ele>80</ele>
        <time>2015-11-30T20:02:31Z</time>
      </trkpt>
      <trkpt lat="48.81013" lon="2.32683">
        <ele>79.599998474121</ele>
        <time>2015-11-30T20:02:38Z</time>
      </trkpt>
      <trkpt lat="48.81001" lon="2.32707">
        <ele>79</ele>
        <time>2015-11-30T20:02:46Z</time>
      </trkpt>
      <trkpt lat="48.80999" lon="2.32709">
        <ele>78.800003051758</ele>
        <time>2015-11-30T20:02:47Z</time>
      </trkpt>
      <trkpt lat="48.80996" lon="2.32711">
        <ele>78.800003051758</ele>
        <time>2015-11-30T20:02:49Z</time>
      </trkpt>
      <trkpt lat="48.80994" lon="2.32712">
        <ele>78.800003051758</ele>
        <time>2015-11-30T20:02:53Z</time>
      </trkpt>
      <trkpt lat="48.80993" lon="2.32714">
        <ele>78.800003051758</ele>
        <time>2015-11-30T20:02:54Z</time>
      </trkpt>
      <trkpt lat="48.80993" lon="2.32715">
        <ele>78.800003051758</ele>
        <time>2015-11-30T20:02:56Z</time>
      </trkpt>
      <trkpt lat="48.80983" lon="2.32738">
        <ele>78.800003051758</ele>
        <time>2015-11-30T20:03:27Z</time>
      </trkpt>
      <trkpt lat="48.80975" lon="2.32766">
        <ele>78.599998474121</ele>
        <time>2015-11-30T20:03:33Z</time>
      </trkpt>
      <trkpt lat="48.8097" lon="2.32797">
        <ele>77.400001525879</ele>
        <time>2015-11-30T20:03:39Z</time>
      </trkpt>
      <trkpt lat="48.80961" lon="2.32824">
        <ele>75.800003051758</ele>
        <time>2015-11-30T20:03:45Z</time>
      </trkpt>
      <trkpt lat="48.80952" lon="2.32848">
        <ele>75.199996948242</ele>
        <time>2015-11-30T20:03:51Z</time>
      </trkpt>
      <trkpt lat="48.80944" lon="2.32874">
        <ele>75</ele>
        <time>2015-11-30T20:03:56Z</time>
      </trkpt>
      <trkpt lat="48.80934" lon="2.32901">
        <ele>75.199996948242</ele>
        <time>2015-11-30T20:04:01Z</time>
      </trkpt>
      <trkpt lat="48.80926" lon="2.32927">
        <ele>75</ele>
        <time>2015-11-30T20:04:06Z</time>
      </trkpt>
      <trkpt lat="48.80918" lon="2.32952">
        <ele>74.599998474121</ele>
        <time>2015-11-30T20:04:11Z</time>
      </trkpt>
      <trkpt lat="48.8091" lon="2.3298">
        <ele>73.599998474121</ele>
        <time>2015-11-30T20:04:16Z</time>
      </trkpt>
      <trkpt lat="48.80901" lon="2.33011">
        <ele>72.400001525879</ele>
        <time>2015-11-30T20:04:21Z</time>
      </trkpt>
      <trkpt lat="48.80891" lon="2.33035">
        <ele>72</ele>
        <time>2015-11-30T20:04:25Z</time>
      </trkpt>
      <trkpt lat="48.8088" lon="2.33064">
        <ele>71.599998474121</ele>
        <time>2015-11-30T20:04:30Z</time>
      </trkpt>
      <trkpt lat="48.80869" lon="2.33088">
        <ele>71.199996948242</ele>
        <time>2015-11-30T20:04:35Z</time>
      </trkpt>
      <trkpt lat="48.80858" lon="2.33116">
        <ele>70.199996948242</ele>
        <time>2015-11-30T20:04:40Z</time>
      </trkpt>
      <trkpt lat="48.80848" lon="2.33141">
        <ele>69.599998474121</ele>
        <time>2015-11-30T20:04:44Z</time>
      </trkpt>
      <trkpt lat="48.80838" lon="2.33166">
        <ele>69.400001525879</ele>
        <time>2015-11-30T20:04:48Z</time>
      </trkpt>
      <trkpt lat="48.80832" lon="2.33179">
        <ele>69.400001525879</ele>
        <time>2015-11-30T20:04:50Z</time>
      </trkpt>
      <trkpt lat="48.80823" lon="2.33208">
        <ele>69.199996948242</ele>
        <time>2015-11-30T20:04:54Z</time>
      </trkpt>
      <trkpt lat="48.80818" lon="2.33221">
        <ele>69.199996948242</ele>
        <time>2015-11-30T20:04:56Z</time>
      </trkpt>
      <trkpt lat="48.80814" lon="2.33249">
        <ele>69</ele>
        <time>2015-11-30T20:05:00Z</time>
      </trkpt>
      <trkpt lat="48.80808" lon="2.3328">
        <ele>69.199996948242</ele>
        <time>2015-11-30T20:05:05Z</time>
      </trkpt>
      <trkpt lat="48.80799" lon="2.33308">
        <ele>67.800003051758</ele>
        <time>2015-11-30T20:05:10Z</time>
      </trkpt>
      <trkpt lat="48.8079" lon="2.33334">
        <ele>66.400001525879</ele>
        <time>2015-11-30T20:05:15Z</time>
      </trkpt>
      <trkpt lat="48.8078" lon="2.33358">
        <ele>65.400001525879</ele>
        <time>2015-11-30T20:05:19Z</time>
      </trkpt>
      <trkpt lat="48.80768" lon="2.33386">
        <ele>64</ele>
        <time>2015-11-30T20:05:23Z</time>
      </trkpt>
      <trkpt lat="48.80757" lon="2.33412">
        <ele>63.400001525879</ele>
        <time>2015-11-30T20:05:27Z</time>
      </trkpt>
      <trkpt lat="48.80747" lon="2.33442">
        <ele>63.20000076294</ele>
        <time>2015-11-30T20:05:32Z</time>
      </trkpt>
      <trkpt lat="48.80737" lon="2.3347">
        <ele>63</ele>
        <time>2015-11-30T20:05:38Z</time>
      </trkpt>
      <trkpt lat="48.80731" lon="2.33485">
        <ele>62.400001525879</ele>
        <time>2015-11-30T20:05:42Z</time>
      </trkpt>
      <trkpt lat="48.80719" lon="2.33508">
        <ele>61.599998474121</ele>
        <time>2015-11-30T20:05:47Z</time>
      </trkpt>
      <trkpt lat="48.80712" lon="2.33529">
        <ele>60.79999923706</ele>
        <time>2015-11-30T20:05:51Z</time>
      </trkpt>
      <trkpt lat="48.80706" lon="2.33551">
        <ele>59.599998474121</ele>
        <time>2015-11-30T20:05:55Z</time>
      </trkpt>
      <trkpt lat="48.80702" lon="2.33565">
        <ele>59</ele>
        <time>2015-11-30T20:05:58Z</time>
      </trkpt>
      <trkpt lat="48.80699" lon="2.33585">
        <ele>57.79999923706</ele>
        <time>2015-11-30T20:06:02Z</time>
      </trkpt>
      <trkpt lat="48.80698" lon="2.3359">
        <ele>57.599998474121</ele>
        <time>2015-11-30T20:06:03Z</time>
      </trkpt>
      <trkpt lat="48.80696" lon="2.33604">
        <ele>56.599998474121</ele>
        <time>2015-11-30T20:06:06Z</time>
      </trkpt>
      <trkpt lat="48.80685" lon="2.33632">
        <ele>54.20000076294</ele>
        <time>2015-11-30T20:06:12Z</time>
      </trkpt>
      <trkpt lat="48.80676" lon="2.33659">
        <ele>51.599998474121</ele>
        <time>2015-11-30T20:06:17Z</time>
      </trkpt>
      <trkpt lat="48.80666" lon="2.33685">
        <ele>50.20000076294</ele>
        <time>2015-11-30T20:06:21Z</time>
      </trkpt>
      <trkpt lat="48.80653" lon="2.3371">
        <ele>48.79999923706</ele>
        <time>2015-11-30T20:06:25Z</time>
      </trkpt>
      <trkpt lat="48.80637" lon="2.33731">
        <ele>47.400001525879</ele>
        <time>2015-11-30T20:06:29Z</time>
      </trkpt>
      <trkpt lat="48.80625" lon="2.33746">
        <ele>46.400001525879</ele>
        <time>2015-11-30T20:06:32Z</time>
      </trkpt>
      <trkpt lat="48.80617" lon="2.33755">
        <ele>45.400001525879</ele>
        <time>2015-11-30T20:06:34Z</time>
      </trkpt>
      <trkpt lat="48.80609" lon="2.33763">
        <ele>44.400001525879</ele>
        <time>2015-11-30T20:06:36Z</time>
      </trkpt>
      <trkpt lat="48.8059" lon="2.33776">
        <ele>43.20000076294</ele>
        <time>2015-11-30T20:06:40Z</time>
      </trkpt>
      <trkpt lat="48.80585" lon="2.33779">
        <ele>43</ele>
        <time>2015-11-30T20:06:41Z</time>
      </trkpt>
      <trkpt lat="48.80563" lon="2.33789">
        <ele>42</ele>
        <time>2015-11-30T20:06:45Z</time>
      </trkpt>
      <trkpt lat="48.8054" lon="2.33794">
        <ele>43</ele>
        <time>2015-11-30T20:06:49Z</time>
      </trkpt>
      <trkpt lat="48.80534" lon="2.33794">
        <ele>43.20000076294</ele>
        <time>2015-11-30T20:06:50Z</time>
      </trkpt>
      <trkpt lat="48.80512" lon="2.33794">
        <ele>43.599998474121</ele>
        <time>2015-11-30T20:06:54Z</time>
      </trkpt>
      <trkpt lat="48.8049" lon="2.33797">
        <ele>44</ele>
        <time>2015-11-30T20:06:58Z</time>
      </trkpt>
      <trkpt lat="48.8047" lon="2.33799">
        <ele>45</ele>
        <time>2015-11-30T20:07:02Z</time>
      </trkpt>
      <trkpt lat="48.80452" lon="2.33797">
        <ele>45.79999923706</ele>
        <time>2015-11-30T20:07:06Z</time>
      </trkpt>
      <trkpt lat="48.80435" lon="2.33794">
        <ele>46.599998474121</ele>
        <time>2015-11-30T20:07:10Z</time>
      </trkpt>
      <trkpt lat="48.80421" lon="2.33775">
        <ele>46.599998474121</ele>
        <time>2015-11-30T20:07:14Z</time>
      </trkpt>
      <trkpt lat="48.80406" lon="2.33748">
        <ele>46.400001525879</ele>
        <time>2015-11-30T20:07:18Z</time>
      </trkpt>
      <trkpt lat="48.80395" lon="2.33725">
        <ele>45.79999923706</ele>
        <time>2015-11-30T20:07:21Z</time>
      </trkpt>
      <trkpt lat="48.80384" lon="2.33702">
        <ele>45.20000076294</ele>
        <time>2015-11-30T20:07:24Z</time>
      </trkpt>
      <trkpt lat="48.8038" lon="2.33695">
        <ele>45</ele>
        <time>2015-11-30T20:07:25Z</time>
      </trkpt>
      <trkpt lat="48.80367" lon="2.33665">
        <ele>44.79999923706</ele>
        <time>2015-11-30T20:07:29Z</time>
      </trkpt>
      <trkpt lat="48.80356" lon="2.33642">
        <ele>44.79999923706</ele>
        <time>2015-11-30T20:07:32Z</time>
      </trkpt>
      <trkpt lat="48.80343" lon="2.33615">
        <ele>44.599998474121</ele>
        <time>2015-11-30T20:07:36Z</time>
      </trkpt>
      <trkpt lat="48.80337" lon="2.33603">
        <ele>44.599998474121</ele>
        <time>2015-11-30T20:07:38Z</time>
      </trkpt>
      <trkpt lat="48.80324" lon="2.33583">
        <ele>44.79999923706</ele>
        <time>2015-11-30T20:07:42Z</time>
      </trkpt>
      <trkpt lat="48.80319" lon="2.33577">
        <ele>44.79999923706</ele>
        <time>2015-11-30T20:07:44Z</time>
      </trkpt>
      <trkpt lat="48.80306" lon="2.33568">
        <ele>45</ele>
        <time>2015-11-30T20:07:48Z</time>
      </trkpt>
      <trkpt lat="48.80287" lon="2.33557">
        <ele>45.400001525879</ele>
        <time>2015-11-30T20:07:53Z</time>
      </trkpt>
      <trkpt lat="48.80274" lon="2.33551">
        <ele>45.599998474121</ele>
        <time>2015-11-30T20:07:56Z</time>
      </trkpt>
      <trkpt lat="48.80265" lon="2.33547">
        <ele>45.79999923706</ele>
        <time>2015-11-30T20:07:58Z</time>
      </trkpt>
      <trkpt lat="48.80248" lon="2.33537">
        <ele>46</ele>
        <time>2015-11-30T20:08:03Z</time>
      </trkpt>
      <trkpt lat="48.80245" lon="2.33536">
        <ele>46.20000076294</ele>
        <time>2015-11-30T20:08:04Z</time>
      </trkpt>
      <trkpt lat="48.8023" lon="2.33528">
        <ele>46.400001525879</ele>
        <time>2015-11-30T20:08:10Z</time>
      </trkpt>
      <trkpt lat="48.80226" lon="2.33528">
        <ele>46.400001525879</ele>
        <time>2015-11-30T20:08:12Z</time>
      </trkpt>
      <trkpt lat="48.80223" lon="2.33528">
        <ele>46.599998474121</ele>
        <time>2015-11-30T20:08:14Z</time>
      </trkpt>
      <trkpt lat="48.80205" lon="2.33537">
        <ele>48.20000076294</ele>
        <time>2015-11-30T20:08:41Z</time>
      </trkpt>
      <trkpt lat="48.80195" lon="2.33561">
        <ele>50.400001525879</ele>
        <time>2015-11-30T20:08:55Z</time>
      </trkpt>
      <trkpt lat="48.80181" lon="2.33581">
        <ele>52.79999923706</ele>
        <time>2015-11-30T20:09:07Z</time>
      </trkpt>
      <trkpt lat="48.80168" lon="2.33603">
        <ele>55.400001525879</ele>
        <time>2015-11-30T20:09:17Z</time>
      </trkpt>
      <trkpt lat="48.80155" lon="2.33624">
        <ele>57.79999923706</ele>
        <time>2015-11-30T20:09:31Z</time>
      </trkpt>
      <trkpt lat="48.80153" lon="2.33629">
        <ele>58.400001525879</ele>
        <time>2015-11-30T20:09:36Z</time>
      </trkpt>
      <trkpt lat="48.80141" lon="2.33649">
        <ele>59.79999923706</ele>
        <time>2015-11-30T20:10:07Z</time>
      </trkpt>
      <trkpt lat="48.80128" lon="2.33668">
        <ele>61.599998474121</ele>
        <time>2015-11-30T20:10:17Z</time>
      </trkpt>
      <trkpt lat="48.8012" lon="2.33685">
        <ele>63.79999923706</ele>
        <time>2015-11-30T20:10:27Z</time>
      </trkpt>
      <trkpt lat="48.80117" lon="2.33687">
        <ele>64.199996948242</ele>
        <time>2015-11-30T20:10:29Z</time>
      </trkpt>
      <trkpt lat="48.80112" lon="2.33693">
        <ele>65</ele>
        <time>2015-11-30T20:10:34Z</time>
      </trkpt>
      <trkpt lat="48.8011" lon="2.33696">
        <ele>65.400001525879</ele>
        <time>2015-11-30T20:10:36Z</time>
      </trkpt>
      <trkpt lat="48.801" lon="2.33717">
        <ele>67.400001525879</ele>
        <time>2015-11-30T20:10:58Z</time>
      </trkpt>
      <trkpt lat="48.80084" lon="2.33736">
        <ele>69.400001525879</ele>
        <time>2015-11-30T20:11:10Z</time>
      </trkpt>
      <trkpt lat="48.8007" lon="2.33755">
        <ele>70.800003051758</ele>
        <time>2015-11-30T20:11:17Z</time>
      </trkpt>
      <trkpt lat="48.80056" lon="2.33775">
        <ele>72</ele>
        <time>2015-11-30T20:11:26Z</time>
      </trkpt>
      <trkpt lat="48.80044" lon="2.33795">
        <ele>73.400001525879</ele>
        <time>2015-11-30T20:11:37Z</time>
      </trkpt>
      <trkpt lat="48.80032" lon="2.33817">
        <ele>75</ele>
        <time>2015-11-30T20:11:47Z</time>
      </trkpt>
      <trkpt lat="48.80019" lon="2.33837">
        <ele>76.199996948242</ele>
        <time>2015-11-30T20:11:59Z</time>
      </trkpt>
      <trkpt lat="48.80007" lon="2.33861">
        <ele>77</ele>
        <time>2015-11-30T20:12:10Z</time>
      </trkpt>
      <trkpt lat="48.79998" lon="2.33887">
        <ele>77.800003051758</ele>
        <time>2015-11-30T20:12:21Z</time>
      </trkpt>
      <trkpt lat="48.79986" lon="2.3391">
        <ele>78.199996948242</ele>
        <time>2015-11-30T20:12:32Z</time>
      </trkpt>
      <trkpt lat="48.79974" lon="2.33932">
        <ele>79.400001525879</ele>
        <time>2015-11-30T20:12:43Z</time>
      </trkpt>
      <trkpt lat="48.79959" lon="2.33951">
        <ele>80</ele>
        <time>2015-11-30T20:12:51Z</time>
      </trkpt>
      <trkpt lat="48.79946" lon="2.33972">
        <ele>80</ele>
        <time>2015-11-30T20:12:58Z</time>
      </trkpt>
      <trkpt lat="48.79935" lon="2.33994">
        <ele>80</ele>
        <time>2015-11-30T20:13:06Z</time>
      </trkpt>
      <trkpt lat="48.79924" lon="2.34018">
        <ele>81</ele>
        <time>2015-11-30T20:13:15Z</time>
      </trkpt>
      <trkpt lat="48.79915" lon="2.34045">
        <ele>82</ele>
        <time>2015-11-30T20:13:24Z</time>
      </trkpt>
      <trkpt lat="48.79903" lon="2.34069">
        <ele>83</ele>
        <time>2015-11-30T20:13:33Z</time>
      </trkpt>
      <trkpt lat="48.79891" lon="2.3409">
        <ele>83.599998474121</ele>
        <time>2015-11-30T20:13:43Z</time>
      </trkpt>
      <trkpt lat="48.7989" lon="2.34091">
        <ele>83.599998474121</ele>
        <time>2015-11-30T20:13:44Z</time>
      </trkpt>
      <trkpt lat="48.7988" lon="2.34111">
        <ele>83.800003051758</ele>
        <time>2015-11-30T20:14:47Z</time>
      </trkpt>
      <trkpt lat="48.79869" lon="2.34137">
        <ele>84.400001525879</ele>
        <time>2015-11-30T20:14:54Z</time>
      </trkpt>
      <trkpt lat="48.79859" lon="2.34162">
        <ele>84.800003051758</ele>
        <time>2015-11-30T20:15:01Z</time>
      </trkpt>
      <trkpt lat="48.7985" lon="2.34189">
        <ele>85.599998474121</ele>
        <time>2015-11-30T20:15:08Z</time>
      </trkpt>
      <trkpt lat="48.79841" lon="2.34212">
        <ele>86.400001525879</ele>
        <time>2015-11-30T20:15:15Z</time>
      </trkpt>
      <trkpt lat="48.7983" lon="2.34236">
        <ele>87.199996948242</ele>
        <time>2015-11-30T20:15:22Z</time>
      </trkpt>
      <trkpt lat="48.79818" lon="2.34259">
        <ele>88.400001525879</ele>
        <time>2015-11-30T20:15:29Z</time>
      </trkpt>
      <trkpt lat="48.79804" lon="2.3428">
        <ele>89.800003051758</ele>
        <time>2015-11-30T20:15:37Z</time>
      </trkpt>
      <trkpt lat="48.79789" lon="2.34299">
        <ele>90.599998474121</ele>
        <time>2015-11-30T20:15:45Z</time>
      </trkpt>
      <trkpt lat="48.79786" lon="2.34306">
        <ele>91</ele>
        <time>2015-11-30T20:15:49Z</time>
      </trkpt>
      <trkpt lat="48.79781" lon="2.34311">
        <ele>91.199996948242</ele>
        <time>2015-11-30T20:15:54Z</time>
      </trkpt>
      <trkpt lat="48.79774" lon="2.3432">
        <ele>91.599998474121</ele>
        <time>2015-11-30T20:16:02Z</time>
      </trkpt>
      <trkpt lat="48.79755" lon="2.34317">
        <ele>92.599998474121</ele>
        <time>2015-11-30T20:16:12Z</time>
      </trkpt>
      <trkpt lat="48.79745" lon="2.34314">
        <ele>93.199996948242</ele>
        <time>2015-11-30T20:16:17Z</time>
      </trkpt>
      <trkpt lat="48.79723" lon="2.34305">
        <ele>94.599998474121</ele>
        <time>2015-11-30T20:16:27Z</time>
      </trkpt>
      <trkpt lat="48.79704" lon="2.34303">
        <ele>96</ele>
        <time>2015-11-30T20:16:36Z</time>
      </trkpt>
      <trkpt lat="48.79686" lon="2.34302">
        <ele>97.199996948242</ele>
        <time>2015-11-30T20:16:46Z</time>
      </trkpt>
      <trkpt lat="48.79666" lon="2.34304">
        <ele>97.599998474121</ele>
        <time>2015-11-30T20:16:55Z</time>
      </trkpt>
      <trkpt lat="48.79648" lon="2.34308">
        <ele>98.800003051758</ele>
        <time>2015-11-30T20:17:05Z</time>
      </trkpt>
      <trkpt lat="48.79628" lon="2.34313">
        <ele>100.19999694824</ele>
        <time>2015-11-30T20:17:16Z</time>
      </trkpt>
      <trkpt lat="48.79609" lon="2.34317">
        <ele>101.59999847412</ele>
        <time>2015-11-30T20:17:25Z</time>
      </trkpt>
      <trkpt lat="48.79589" lon="2.34324">
        <ele>101.80000305176</ele>
        <time>2015-11-30T20:17:34Z</time>
      </trkpt>
      <trkpt lat="48.7957" lon="2.34324">
        <ele>101.40000152588</ele>
        <time>2015-11-30T20:17:43Z</time>
      </trkpt>
      <trkpt lat="48.79556" lon="2.34329">
        <ele>101.59999847412</ele>
        <time>2015-11-30T20:17:51Z</time>
      </trkpt>
      <trkpt lat="48.79551" lon="2.34335">
        <ele>101.59999847412</ele>
        <time>2015-11-30T20:17:56Z</time>
      </trkpt>
      <trkpt lat="48.79539" lon="2.3434">
        <ele>101.19999694824</ele>
        <time>2015-11-30T20:18:01Z</time>
      </trkpt>
      <trkpt lat="48.7952" lon="2.34345">
        <ele>101.80000305176</ele>
        <time>2015-11-30T20:18:09Z</time>
      </trkpt>
      <trkpt lat="48.79501" lon="2.3435">
        <ele>102.40000152588</ele>
        <time>2015-11-30T20:18:18Z</time>
      </trkpt>
      <trkpt lat="48.79482" lon="2.34356">
        <ele>103.19999694824</ele>
        <time>2015-11-30T20:18:26Z</time>
      </trkpt>
      <trkpt lat="48.79463" lon="2.34362">
        <ele>103.80000305176</ele>
        <time>2015-11-30T20:18:36Z</time>
      </trkpt>
      <trkpt lat="48.79445" lon="2.34365">
        <ele>104.19999694824</ele>
        <time>2015-11-30T20:18:42Z</time>
      </trkpt>
      <trkpt lat="48.79423" lon="2.3437">
        <ele>103.80000305176</ele>
        <time>2015-11-30T20:18:49Z</time>
      </trkpt>
      <trkpt lat="48.79402" lon="2.34377">
        <ele>103.40000152588</ele>
        <time>2015-11-30T20:18:56Z</time>
      </trkpt>
      <trkpt lat="48.7938" lon="2.34382">
        <ele>103.59999847412</ele>
        <time>2015-11-30T20:19:02Z</time>
      </trkpt>
      <trkpt lat="48.79361" lon="2.34387">
        <ele>104</ele>
        <time>2015-11-30T20:19:06Z</time>
      </trkpt>
      <trkpt lat="48.79336" lon="2.34393">
        <ele>104.19999694824</ele>
        <time>2015-11-30T20:19:11Z</time>
      </trkpt>
      <trkpt lat="48.79317" lon="2.34398">
        <ele>104.40000152588</ele>
        <time>2015-11-30T20:19:16Z</time>
      </trkpt>
      <trkpt lat="48.79296" lon="2.34401">
        <ele>104.40000152588</ele>
        <time>2015-11-30T20:19:21Z</time>
      </trkpt>
      <trkpt lat="48.79274" lon="2.34403">
        <ele>104.19999694824</ele>
        <time>2015-11-30T20:19:27Z</time>
      </trkpt>
      <trkpt lat="48.79248" lon="2.34402">
        <ele>105</ele>
        <time>2015-11-30T20:19:33Z</time>
      </trkpt>
      <trkpt lat="48.79226" lon="2.34398">
        <ele>105.80000305176</ele>
        <time>2015-11-30T20:19:39Z</time>
      </trkpt>
      <trkpt lat="48.79207" lon="2.34395">
        <ele>106.40000152588</ele>
        <time>2015-11-30T20:19:44Z</time>
      </trkpt>
      <trkpt lat="48.79187" lon="2.34391">
        <ele>107.19999694824</ele>
        <time>2015-11-30T20:19:49Z</time>
      </trkpt>
      <trkpt lat="48.79168" lon="2.34385">
        <ele>107.59999847412</ele>
        <time>2015-11-30T20:19:56Z</time>
      </trkpt>
      <trkpt lat="48.7915" lon="2.34378">
        <ele>107.80000305176</ele>
        <time>2015-11-30T20:20:01Z</time>
      </trkpt>
      <trkpt lat="48.7913" lon="2.34371">
        <ele>108</ele>
        <time>2015-11-30T20:20:09Z</time>
      </trkpt>
      <trkpt lat="48.79112" lon="2.34364">
        <ele>108.19999694824</ele>
        <time>2015-11-30T20:20:15Z</time>
      </trkpt>
      <trkpt lat="48.7909" lon="2.34359">
        <ele>108.40000152588</ele>
        <time>2015-11-30T20:20:23Z</time>
      </trkpt>
      <trkpt lat="48.79072" lon="2.34356">
        <ele>108.59999847412</ele>
        <time>2015-11-30T20:20:28Z</time>
      </trkpt>
      <trkpt lat="48.79045" lon="2.34351">
        <ele>108.80000305176</ele>
        <time>2015-11-30T20:20:33Z</time>
      </trkpt>
      <trkpt lat="48.79027" lon="2.34346">
        <ele>108.59999847412</ele>
        <time>2015-11-30T20:20:37Z</time>
      </trkpt>
      <trkpt lat="48.79008" lon="2.34343">
        <ele>108</ele>
        <time>2015-11-30T20:20:42Z</time>
      </trkpt>
      <trkpt lat="48.78989" lon="2.34338">
        <ele>107.40000152588</ele>
        <time>2015-11-30T20:20:46Z</time>
      </trkpt>
      <trkpt lat="48.78967" lon="2.34332">
        <ele>106.80000305176</ele>
        <time>2015-11-30T20:20:51Z</time>
      </trkpt>
      <trkpt lat="48.78945" lon="2.34327">
        <ele>106</ele>
        <time>2015-11-30T20:20:56Z</time>
      </trkpt>
      <trkpt lat="48.7893" lon="2.34325">
        <ele>105.59999847412</ele>
        <time>2015-11-30T20:21:00Z</time>
      </trkpt>
      <trkpt lat="48.78907" lon="2.34322">
        <ele>105.59999847412</ele>
        <time>2015-11-30T20:21:06Z</time>
      </trkpt>
      <trkpt lat="48.78887" lon="2.34317">
        <ele>105.40000152588</ele>
        <time>2015-11-30T20:21:12Z</time>
      </trkpt>
      <trkpt lat="48.78868" lon="2.34313">
        <ele>105.40000152588</ele>
        <time>2015-11-30T20:21:17Z</time>
      </trkpt>
      <trkpt lat="48.78848" lon="2.34308">
        <ele>105.40000152588</ele>
        <time>2015-11-30T20:21:23Z</time>
      </trkpt>
      <trkpt lat="48.78828" lon="2.34302">
        <ele>105.59999847412</ele>
        <time>2015-11-30T20:21:29Z</time>
      </trkpt>
      <trkpt lat="48.78808" lon="2.34294">
        <ele>105.19999694824</ele>
        <time>2015-11-30T20:21:34Z</time>
      </trkpt>
      <trkpt lat="48.7879" lon="2.34285">
        <ele>104.80000305176</ele>
        <time>2015-11-30T20:21:40Z</time>
      </trkpt>
      <trkpt lat="48.7877" lon="2.34273">
        <ele>104.19999694824</ele>
        <time>2015-11-30T20:21:48Z</time>
      </trkpt>
      <trkpt lat="48.78752" lon="2.34264">
        <ele>103.59999847412</ele>
        <time>2015-11-30T20:21:53Z</time>
      </trkpt>
      <trkpt lat="48.78733" lon="2.34253">
        <ele>102.80000305176</ele>
        <time>2015-11-30T20:21:58Z</time>
      </trkpt>
      <trkpt lat="48.78704" lon="2.3424">
        <ele>102</ele>
        <time>2015-11-30T20:22:04Z</time>
      </trkpt>
      <trkpt lat="48.78684" lon="2.34233">
        <ele>101.59999847412</ele>
        <time>2015-11-30T20:22:09Z</time>
      </trkpt>
      <trkpt lat="48.78667" lon="2.34225">
        <ele>101.80000305176</ele>
        <time>2015-11-30T20:22:13Z</time>
      </trkpt>
      <trkpt lat="48.78649" lon="2.34215">
        <ele>101.80000305176</ele>
        <time>2015-11-30T20:22:17Z</time>
      </trkpt>
      <trkpt lat="48.7863" lon="2.34207">
        <ele>102</ele>
        <time>2015-11-30T20:22:23Z</time>
      </trkpt>
      <trkpt lat="48.7862" lon="2.34202">
        <ele>102</ele>
        <time>2015-11-30T20:22:24Z</time>
      </trkpt>
      <trkpt lat="48.78615" lon="2.342">
        <ele>102</ele>
        <time>2015-11-30T20:22:26Z</time>
      </trkpt>
      <trkpt lat="48.78595" lon="2.34195">
        <ele>102.19999694824</ele>
        <time>2015-11-30T20:22:30Z</time>
      </trkpt>
      <trkpt lat="48.78573" lon="2.34189">
        <ele>102.19999694824</ele>
        <time>2015-11-30T20:22:35Z</time>
      </trkpt>
      <trkpt lat="48.78555" lon="2.34182">
        <ele>102.19999694824</ele>
        <time>2015-11-30T20:22:39Z</time>
      </trkpt>
      <trkpt lat="48.78533" lon="2.34175">
        <ele>102.19999694824</ele>
        <time>2015-11-30T20:22:44Z</time>
      </trkpt>
      <trkpt lat="48.78515" lon="2.34167">
        <ele>102.19999694824</ele>
        <time>2015-11-30T20:22:48Z</time>
      </trkpt>
      <trkpt lat="48.78501" lon="2.34163">
        <ele>102.19999694824</ele>
        <time>2015-11-30T20:22:51Z</time>
      </trkpt>
      <trkpt lat="48.78483" lon="2.34158">
        <ele>102.40000152588</ele>
        <time>2015-11-30T20:22:55Z</time>
      </trkpt>
      <trkpt lat="48.78463" lon="2.3415">
        <ele>102.59999847412</ele>
        <time>2015-11-30T20:23:00Z</time>
      </trkpt>
      <trkpt lat="48.78459" lon="2.34148">
        <ele>102.59999847412</ele>
        <time>2015-11-30T20:23:01Z</time>
      </trkpt>
      <trkpt lat="48.7844" lon="2.3414">
        <ele>102.59999847412</ele>
        <time>2015-11-30T20:23:06Z</time>
      </trkpt>
      <trkpt lat="48.78433" lon="2.34138">
        <ele>102.59999847412</ele>
        <time>2015-11-30T20:23:08Z</time>
      </trkpt>
      <trkpt lat="48.78412" lon="2.34138">
        <ele>101.80000305176</ele>
        <time>2015-11-30T20:23:15Z</time>
      </trkpt>
      <trkpt lat="48.78394" lon="2.34137">
        <ele>101.19999694824</ele>
        <time>2015-11-30T20:23:21Z</time>
      </trkpt>
      <trkpt lat="48.78373" lon="2.34137">
        <ele>100.80000305176</ele>
        <time>2015-11-30T20:23:27Z</time>
      </trkpt>
      <trkpt lat="48.78353" lon="2.34133">
        <ele>100.19999694824</ele>
        <time>2015-11-30T20:23:32Z</time>
      </trkpt>
      <trkpt lat="48.78334" lon="2.34131">
        <ele>100</ele>
        <time>2015-11-30T20:23:36Z</time>
      </trkpt>
      <trkpt lat="48.78313" lon="2.3413">
        <ele>99.400001525879</ele>
        <time>2015-11-30T20:23:41Z</time>
      </trkpt>
      <trkpt lat="48.78292" lon="2.34128">
        <ele>98.400001525879</ele>
        <time>2015-11-30T20:23:46Z</time>
      </trkpt>
      <trkpt lat="48.78272" lon="2.34125">
        <ele>97.599998474121</ele>
        <time>2015-11-30T20:23:51Z</time>
      </trkpt>
      <trkpt lat="48.78254" lon="2.34123">
        <ele>97.400001525879</ele>
        <time>2015-11-30T20:23:55Z</time>
      </trkpt>
      <trkpt lat="48.78239" lon="2.34122">
        <ele>97.599998474121</ele>
        <time>2015-11-30T20:23:58Z</time>
      </trkpt>
      <trkpt lat="48.78235" lon="2.34094">
        <ele>97.800003051758</ele>
        <time>2015-11-30T20:24:03Z</time>
      </trkpt>
      <trkpt lat="48.78242" lon="2.34064">
        <ele>97.800003051758</ele>
        <time>2015-11-30T20:24:09Z</time>
      </trkpt>
      <trkpt lat="48.78243" lon="2.34058">
        <ele>97.800003051758</ele>
        <time>2015-11-30T20:24:10Z</time>
      </trkpt>
      <trkpt lat="48.7825" lon="2.34031">
        <ele>97.400001525879</ele>
        <time>2015-11-30T20:24:15Z</time>
      </trkpt>
      <trkpt lat="48.78254" lon="2.34021">
        <ele>97.199996948242</ele>
        <time>2015-11-30T20:24:17Z</time>
      </trkpt>
      <trkpt lat="48.78269" lon="2.34001">
        <ele>97</ele>
        <time>2015-11-30T20:24:22Z</time>
      </trkpt>
      <trkpt lat="48.78287" lon="2.33985">
        <ele>97</ele>
        <time>2015-11-30T20:24:27Z</time>
      </trkpt>
      <trkpt lat="48.78304" lon="2.33972">
        <ele>96.800003051758</ele>
        <time>2015-11-30T20:24:32Z</time>
      </trkpt>
      <trkpt lat="48.78322" lon="2.33961">
        <ele>96.800003051758</ele>
        <time>2015-11-30T20:24:37Z</time>
      </trkpt>
      <trkpt lat="48.78342" lon="2.33947">
        <ele>96.800003051758</ele>
        <time>2015-11-30T20:24:42Z</time>
      </trkpt>
      <trkpt lat="48.7836" lon="2.33933">
        <ele>96.599998474121</ele>
        <time>2015-11-30T20:24:46Z</time>
      </trkpt>
      <trkpt lat="48.78378" lon="2.33919">
        <ele>95.800003051758</ele>
        <time>2015-11-30T20:24:50Z</time>
      </trkpt>
      <trkpt lat="48.78398" lon="2.33907">
        <ele>94.599998474121</ele>
        <time>2015-11-30T20:24:54Z</time>
      </trkpt>
      <trkpt lat="48.78417" lon="2.33893">
        <ele>93.199996948242</ele>
        <time>2015-11-30T20:24:58Z</time>
      </trkpt>
      <trkpt lat="48.78437" lon="2.33877">
        <ele>93.199996948242</ele>
        <time>2015-11-30T20:25:02Z</time>
      </trkpt>
      <trkpt lat="48.78457" lon="2.33864">
        <ele>92.400001525879</ele>
        <time>2015-11-30T20:25:06Z</time>
      </trkpt>
      <trkpt lat="48.78478" lon="2.3385">
        <ele>92</ele>
        <time>2015-11-30T20:25:10Z</time>
      </trkpt>
      <trkpt lat="48.78495" lon="2.33837">
        <ele>92</ele>
        <time>2015-11-30T20:25:14Z</time>
      </trkpt>
      <trkpt lat="48.78514" lon="2.33825">
        <ele>91.800003051758</ele>
        <time>2015-11-30T20:25:22Z</time>
      </trkpt>
      <trkpt lat="48.78532" lon="2.33813">
        <ele>90.400001525879</ele>
        <time>2015-11-30T20:25:29Z</time>
      </trkpt>
      <trkpt lat="48.7855" lon="2.33799">
        <ele>88.400001525879</ele>
        <time>2015-11-30T20:25:37Z</time>
      </trkpt>
      <trkpt lat="48.78569" lon="2.33786">
        <ele>86.199996948242</ele>
        <time>2015-11-30T20:25:44Z</time>
      </trkpt>
      <trkpt lat="48.78588" lon="2.33774">
        <ele>83.599998474121</ele>
        <time>2015-11-30T20:25:49Z</time>
      </trkpt>
      <trkpt lat="48.78607" lon="2.33764">
        <ele>81</ele>
        <time>2015-11-30T20:25:53Z</time>
      </trkpt>
      <trkpt lat="48.78626" lon="2.33758">
        <ele>79.800003051758</ele>
        <time>2015-11-30T20:25:57Z</time>
      </trkpt>
      <trkpt lat="48.78644" lon="2.33754">
        <ele>79</ele>
        <time>2015-11-30T20:26:01Z</time>
      </trkpt>
      <trkpt lat="48.78664" lon="2.3375">
        <ele>78</ele>
        <time>2015-11-30T20:26:05Z</time>
      </trkpt>
      <trkpt lat="48.78684" lon="2.33746">
        <ele>77.199996948242</ele>
        <time>2015-11-30T20:26:09Z</time>
      </trkpt>
      <trkpt lat="48.78702" lon="2.33742">
        <ele>76.400001525879</ele>
        <time>2015-11-30T20:26:13Z</time>
      </trkpt>
      <trkpt lat="48.7872" lon="2.33737">
        <ele>75.599998474121</ele>
        <time>2015-11-30T20:26:18Z</time>
      </trkpt>
      <trkpt lat="48.7873" lon="2.33734">
        <ele>75</ele>
        <time>2015-11-30T20:26:23Z</time>
      </trkpt>
      <trkpt lat="48.78734" lon="2.33733">
        <ele>74.800003051758</ele>
        <time>2015-11-30T20:26:26Z</time>
      </trkpt>
      <trkpt lat="48.78736" lon="2.33728">
        <ele>74.400001525879</ele>
        <time>2015-11-30T20:28:09Z</time>
      </trkpt>
      <trkpt lat="48.78754" lon="2.33721">
        <ele>73.400001525879</ele>
        <time>2015-11-30T20:28:18Z</time>
      </trkpt>
      <trkpt lat="48.78774" lon="2.33718">
        <ele>72.400001525879</ele>
        <time>2015-11-30T20:28:25Z</time>
      </trkpt>
      <trkpt lat="48.78794" lon="2.33717">
        <ele>71.400001525879</ele>
        <time>2015-11-30T20:28:32Z</time>
      </trkpt>
      <trkpt lat="48.78813" lon="2.33713">
        <ele>70.199996948242</ele>
        <time>2015-11-30T20:28:37Z</time>
      </trkpt>
      <trkpt lat="48.78831" lon="2.33711">
        <ele>69.199996948242</ele>
        <time>2015-11-30T20:28:41Z</time>
      </trkpt>
      <trkpt lat="48.78852" lon="2.33707">
        <ele>68.199996948242</ele>
        <time>2015-11-30T20:28:45Z</time>
      </trkpt>
      <trkpt lat="48.78873" lon="2.33703">
        <ele>67</ele>
        <time>2015-11-30T20:28:49Z</time>
      </trkpt>
      <trkpt lat="48.78894" lon="2.33698">
        <ele>65.800003051758</ele>
        <time>2015-11-30T20:28:53Z</time>
      </trkpt>
      <trkpt lat="48.78916" lon="2.33696">
        <ele>65.400001525879</ele>
        <time>2015-11-30T20:28:57Z</time>
      </trkpt>
      <trkpt lat="48.78937" lon="2.33696">
        <ele>65.199996948242</ele>
        <time>2015-11-30T20:29:01Z</time>
      </trkpt>
      <trkpt lat="48.78956" lon="2.33694">
        <ele>64.599998474121</ele>
        <time>2015-11-30T20:29:05Z</time>
      </trkpt>
      <trkpt lat="48.78977" lon="2.33691">
        <ele>63.400001525879</ele>
        <time>2015-11-30T20:29:11Z</time>
      </trkpt>
      <trkpt lat="48.78999" lon="2.33688">
        <ele>61.599998474121</ele>
        <time>2015-11-30T20:29:16Z</time>
      </trkpt>
      <trkpt lat="48.79018" lon="2.33687">
        <ele>60.20000076294</ele>
        <time>2015-11-30T20:29:20Z</time>
      </trkpt>
      <trkpt lat="48.7904" lon="2.33684">
        <ele>57.79999923706</ele>
        <time>2015-11-30T20:29:25Z</time>
      </trkpt>
      <trkpt lat="48.79062" lon="2.33684">
        <ele>56.400001525879</ele>
        <time>2015-11-30T20:29:30Z</time>
      </trkpt>
      <trkpt lat="48.79081" lon="2.33682">
        <ele>55.400001525879</ele>
        <time>2015-11-30T20:29:34Z</time>
      </trkpt>
      <trkpt lat="48.791" lon="2.33682">
        <ele>54.20000076294</ele>
        <time>2015-11-30T20:29:38Z</time>
      </trkpt>
      <trkpt lat="48.79118" lon="2.33681">
        <ele>53.20000076294</ele>
        <time>2015-11-30T20:29:42Z</time>
      </trkpt>
      <trkpt lat="48.79133" lon="2.33681">
        <ele>52.79999923706</ele>
        <time>2015-11-30T20:29:45Z</time>
      </trkpt>
      <trkpt lat="48.79152" lon="2.33685">
        <ele>52.400001525879</ele>
        <time>2015-11-30T20:29:49Z</time>
      </trkpt>
      <trkpt lat="48.79172" lon="2.33688">
        <ele>52</ele>
        <time>2015-11-30T20:29:53Z</time>
      </trkpt>
      <trkpt lat="48.79193" lon="2.33689">
        <ele>51.400001525879</ele>
        <time>2015-11-30T20:29:57Z</time>
      </trkpt>
      <trkpt lat="48.79204" lon="2.33691">
        <ele>51</ele>
        <time>2015-11-30T20:29:59Z</time>
      </trkpt>
      <trkpt lat="48.79223" lon="2.33696">
        <ele>50.400001525879</ele>
        <time>2015-11-30T20:30:03Z</time>
      </trkpt>
      <trkpt lat="48.79243" lon="2.33698">
        <ele>49.599998474121</ele>
        <time>2015-11-30T20:30:09Z</time>
      </trkpt>
      <trkpt lat="48.79245" lon="2.33698">
        <ele>49.400001525879</ele>
        <time>2015-11-30T20:30:10Z</time>
      </trkpt>
      <trkpt lat="48.79254" lon="2.33696">
        <ele>49</ele>
        <time>2015-11-30T20:30:14Z</time>
      </trkpt>
      <trkpt lat="48.79262" lon="2.33693">
        <ele>48.400001525879</ele>
        <time>2015-11-30T20:30:17Z</time>
      </trkpt>
      <trkpt lat="48.79274" lon="2.33697">
        <ele>48.20000076294</ele>
        <time>2015-11-30T20:30:21Z</time>
      </trkpt>
      <trkpt lat="48.79291" lon="2.33711">
        <ele>48.79999923706</ele>
        <time>2015-11-30T20:30:26Z</time>
      </trkpt>
      <trkpt lat="48.79309" lon="2.33729">
        <ele>49.400001525879</ele>
        <time>2015-11-30T20:30:31Z</time>
      </trkpt>
      <trkpt lat="48.79327" lon="2.33743">
        <ele>49.79999923706</ele>
        <time>2015-11-30T20:30:35Z</time>
      </trkpt>
      <trkpt lat="48.79345" lon="2.33757">
        <ele>49.79999923706</ele>
        <time>2015-11-30T20:30:39Z</time>
      </trkpt>
      <trkpt lat="48.79361" lon="2.33771">
        <ele>49.599998474121</ele>
        <time>2015-11-30T20:30:43Z</time>
      </trkpt>
      <trkpt lat="48.79364" lon="2.33774">
        <ele>49.400001525879</ele>
        <time>2015-11-30T20:30:44Z</time>
      </trkpt>
      <trkpt lat="48.79382" lon="2.33772">
        <ele>48.599998474121</ele>
        <time>2015-11-30T20:30:49Z</time>
      </trkpt>
      <trkpt lat="48.79392" lon="2.33756">
        <ele>47.79999923706</ele>
        <time>2015-11-30T20:30:52Z</time>
      </trkpt>
      <trkpt lat="48.79405" lon="2.3373">
        <ele>46.79999923706</ele>
        <time>2015-11-30T20:30:56Z</time>
      </trkpt>
      <trkpt lat="48.79411" lon="2.33709">
        <ele>46.599998474121</ele>
        <time>2015-11-30T20:30:59Z</time>
      </trkpt>
      <trkpt lat="48.79421" lon="2.3368">
        <ele>47</ele>
        <time>2015-11-30T20:31:04Z</time>
      </trkpt>
      <trkpt lat="48.79438" lon="2.33667">
        <ele>47</ele>
        <time>2015-11-30T20:31:09Z</time>
      </trkpt>
      <trkpt lat="48.79443" lon="2.33662">
        <ele>47</ele>
        <time>2015-11-30T20:31:11Z</time>
      </trkpt>
      <trkpt lat="48.79452" lon="2.33641">
        <ele>47.599998474121</ele>
        <time>2015-11-30T20:31:16Z</time>
      </trkpt>
      <trkpt lat="48.79463" lon="2.33613">
        <ele>48.20000076294</ele>
        <time>2015-11-30T20:31:22Z</time>
      </trkpt>
      <trkpt lat="48.7947" lon="2.33585">
        <ele>48.79999923706</ele>
        <time>2015-11-30T20:31:28Z</time>
      </trkpt>
      <trkpt lat="48.79472" lon="2.33576">
        <ele>49.20000076294</ele>
        <time>2015-11-30T20:31:30Z</time>
      </trkpt>
      <trkpt lat="48.79479" lon="2.33548">
        <ele>49.79999923706</ele>
        <time>2015-11-30T20:31:36Z</time>
      </trkpt>
      <trkpt lat="48.79481" lon="2.33529">
        <ele>49.79999923706</ele>
        <time>2015-11-30T20:31:42Z</time>
      </trkpt>
      <trkpt lat="48.7948" lon="2.33527">
        <ele>49.599998474121</ele>
        <time>2015-11-30T20:31:45Z</time>
      </trkpt>
      <trkpt lat="48.79492" lon="2.33529">
        <ele>49.20000076294</ele>
        <time>2015-11-30T20:32:17Z</time>
      </trkpt>
      <trkpt lat="48.7951" lon="2.33538">
        <ele>48.599998474121</ele>
        <time>2015-11-30T20:32:24Z</time>
      </trkpt>
      <trkpt lat="48.79529" lon="2.33546">
        <ele>48</ele>
        <time>2015-11-30T20:32:30Z</time>
      </trkpt>
      <trkpt lat="48.79549" lon="2.3355">
        <ele>48</ele>
        <time>2015-11-30T20:32:35Z</time>
      </trkpt>
      <trkpt lat="48.79568" lon="2.33542">
        <ele>47.599998474121</ele>
        <time>2015-11-30T20:32:40Z</time>
      </trkpt>
      <trkpt lat="48.79585" lon="2.33525">
        <ele>47</ele>
        <time>2015-11-30T20:32:44Z</time>
      </trkpt>
      <trkpt lat="48.79603" lon="2.33504">
        <ele>46.20000076294</ele>
        <time>2015-11-30T20:32:48Z</time>
      </trkpt>
      <trkpt lat="48.79623" lon="2.33485">
        <ele>45.599998474121</ele>
        <time>2015-11-30T20:32:52Z</time>
      </trkpt>
      <trkpt lat="48.7964" lon="2.33467">
        <ele>45.400001525879</ele>
        <time>2015-11-30T20:32:56Z</time>
      </trkpt>
      <trkpt lat="48.79656" lon="2.33452">
        <ele>45</ele>
        <time>2015-11-30T20:33:00Z</time>
      </trkpt>
      <trkpt lat="48.79671" lon="2.33437">
        <ele>44</ele>
        <time>2015-11-30T20:33:04Z</time>
      </trkpt>
      <trkpt lat="48.7969" lon="2.33418">
        <ele>43.20000076294</ele>
        <time>2015-11-30T20:33:08Z</time>
      </trkpt>
      <trkpt lat="48.79706" lon="2.33403">
        <ele>44.20000076294</ele>
        <time>2015-11-30T20:33:12Z</time>
      </trkpt>
      <trkpt lat="48.79721" lon="2.33387">
        <ele>45.400001525879</ele>
        <time>2015-11-30T20:33:16Z</time>
      </trkpt>
      <trkpt lat="48.79737" lon="2.33371">
        <ele>46.400001525879</ele>
        <time>2015-11-30T20:33:20Z</time>
      </trkpt>
      <trkpt lat="48.79754" lon="2.33355">
        <ele>45.79999923706</ele>
        <time>2015-11-30T20:33:24Z</time>
      </trkpt>
      <trkpt lat="48.79758" lon="2.33351">
        <ele>45.599998474121</ele>
        <time>2015-11-30T20:33:25Z</time>
      </trkpt>
      <trkpt lat="48.79772" lon="2.33334">
        <ele>45.20000076294</ele>
        <time>2015-11-30T20:33:29Z</time>
      </trkpt>
      <trkpt lat="48.79776" lon="2.33329">
        <ele>45</ele>
        <time>2015-11-30T20:33:30Z</time>
      </trkpt>
      <trkpt lat="48.7978" lon="2.33326">
        <ele>45</ele>
        <time>2015-11-30T20:33:31Z</time>
      </trkpt>
      <trkpt lat="48.79795" lon="2.33313">
        <ele>45.20000076294</ele>
        <time>2015-11-30T20:33:35Z</time>
      </trkpt>
      <trkpt lat="48.79814" lon="2.33294">
        <ele>45.400001525879</ele>
        <time>2015-11-30T20:33:40Z</time>
      </trkpt>
      <trkpt lat="48.79822" lon="2.33286">
        <ele>45.599998474121</ele>
        <time>2015-11-30T20:33:42Z</time>
      </trkpt>
      <trkpt lat="48.79842" lon="2.33276">
        <ele>45.599998474121</ele>
        <time>2015-11-30T20:33:47Z</time>
      </trkpt>
      <trkpt lat="48.79847" lon="2.33276">
        <ele>45.599998474121</ele>
        <time>2015-11-30T20:33:48Z</time>
      </trkpt>
      <trkpt lat="48.79867" lon="2.3328">
        <ele>46.599998474121</ele>
        <time>2015-11-30T20:33:54Z</time>
      </trkpt>
      <trkpt lat="48.79885" lon="2.33285">
        <ele>48</ele>
        <time>2015-11-30T20:33:59Z</time>
      </trkpt>
      <trkpt lat="48.79896" lon="2.3329">
        <ele>49</ele>
        <time>2015-11-30T20:34:02Z</time>
      </trkpt>
      <trkpt lat="48.79913" lon="2.33294">
        <ele>49.400001525879</ele>
        <time>2015-11-30T20:34:07Z</time>
      </trkpt>
      <trkpt lat="48.79933" lon="2.333">
        <ele>49.79999923706</ele>
        <time>2015-11-30T20:34:13Z</time>
      </trkpt>
      <trkpt lat="48.79948" lon="2.33303">
        <ele>49.20000076294</ele>
        <time>2015-11-30T20:34:17Z</time>
      </trkpt>
      <trkpt lat="48.79956" lon="2.33305">
        <ele>48.79999923706</ele>
        <time>2015-11-30T20:34:19Z</time>
      </trkpt>
      <trkpt lat="48.79978" lon="2.3331">
        <ele>47.599998474121</ele>
        <time>2015-11-30T20:34:24Z</time>
      </trkpt>
      <trkpt lat="48.79999" lon="2.33314">
        <ele>46.400001525879</ele>
        <time>2015-11-30T20:34:29Z</time>
      </trkpt>
      <trkpt lat="48.80019" lon="2.33319">
        <ele>46</ele>
        <time>2015-11-30T20:34:34Z</time>
      </trkpt>
      <trkpt lat="48.8004" lon="2.33323">
        <ele>46</ele>
        <time>2015-11-30T20:34:39Z</time>
      </trkpt>
      <trkpt lat="48.80058" lon="2.33325">
        <ele>46</ele>
        <time>2015-11-30T20:34:43Z</time>
      </trkpt>
      <trkpt lat="48.80079" lon="2.3333">
        <ele>46</ele>
        <time>2015-11-30T20:34:49Z</time>
      </trkpt>
      <trkpt lat="48.80083" lon="2.33332">
        <ele>46</ele>
        <time>2015-11-30T20:34:50Z</time>
      </trkpt>
      <trkpt lat="48.8009" lon="2.33336">
        <ele>46.20000076294</ele>
        <time>2015-11-30T20:34:52Z</time>
      </trkpt>
      <trkpt lat="48.80096" lon="2.33338">
        <ele>46.20000076294</ele>
        <time>2015-11-30T20:34:54Z</time>
      </trkpt>
      <trkpt lat="48.80116" lon="2.33342">
        <ele>45.79999923706</ele>
        <time>2015-11-30T20:34:59Z</time>
      </trkpt>
      <trkpt lat="48.80134" lon="2.33348">
        <ele>45.79999923706</ele>
        <time>2015-11-30T20:35:03Z</time>
      </trkpt>
      <trkpt lat="48.80152" lon="2.33355">
        <ele>45.79999923706</ele>
        <time>2015-11-30T20:35:07Z</time>
      </trkpt>
      <trkpt lat="48.80171" lon="2.33363">
        <ele>45.599998474121</ele>
        <time>2015-11-30T20:35:11Z</time>
      </trkpt>
      <trkpt lat="48.80193" lon="2.3337">
        <ele>45.400001525879</ele>
        <time>2015-11-30T20:35:16Z</time>
      </trkpt>
      <trkpt lat="48.80214" lon="2.33377">
        <ele>44.79999923706</ele>
        <time>2015-11-30T20:35:21Z</time>
      </trkpt>
      <trkpt lat="48.80233" lon="2.33382">
        <ele>44.20000076294</ele>
        <time>2015-11-30T20:35:25Z</time>
      </trkpt>
      <trkpt lat="48.80237" lon="2.33384">
        <ele>44.20000076294</ele>
        <time>2015-11-30T20:35:26Z</time>
      </trkpt>
      <trkpt lat="48.80252" lon="2.334">
        <ele>43.599998474121</ele>
        <time>2015-11-30T20:35:30Z</time>
      </trkpt>
      <trkpt lat="48.80269" lon="2.33418">
        <ele>43.20000076294</ele>
        <time>2015-11-30T20:35:34Z</time>
      </trkpt>
      <trkpt lat="48.80282" lon="2.33429">
        <ele>43.20000076294</ele>
        <time>2015-11-30T20:35:37Z</time>
      </trkpt>
      <trkpt lat="48.80297" lon="2.33445">
        <ele>43.400001525879</ele>
        <time>2015-11-30T20:35:41Z</time>
      </trkpt>
      <trkpt lat="48.80315" lon="2.33465">
        <ele>43.79999923706</ele>
        <time>2015-11-30T20:35:46Z</time>
      </trkpt>
      <trkpt lat="48.80329" lon="2.33482">
        <ele>44</ele>
        <time>2015-11-30T20:35:50Z</time>
      </trkpt>
      <trkpt lat="48.80333" lon="2.33485">
        <ele>44</ele>
        <time>2015-11-30T20:35:51Z</time>
      </trkpt>
      <trkpt lat="48.80347" lon="2.33501">
        <ele>44</ele>
        <time>2015-11-30T20:35:55Z</time>
      </trkpt>
      <trkpt lat="48.80361" lon="2.33518">
        <ele>44</ele>
        <time>2015-11-30T20:35:59Z</time>
      </trkpt>
      <trkpt lat="48.80376" lon="2.33536">
        <ele>44.20000076294</ele>
        <time>2015-11-30T20:36:03Z</time>
      </trkpt>
      <trkpt lat="48.80379" lon="2.3354">
        <ele>44.20000076294</ele>
        <time>2015-11-30T20:36:04Z</time>
      </trkpt>
      <trkpt lat="48.80393" lon="2.33558">
        <ele>44.400001525879</ele>
        <time>2015-11-30T20:36:08Z</time>
      </trkpt>
      <trkpt lat="48.80409" lon="2.33576">
        <ele>44.599998474121</ele>
        <time>2015-11-30T20:36:12Z</time>
      </trkpt>
      <trkpt lat="48.80423" lon="2.33595">
        <ele>44.599998474121</ele>
        <time>2015-11-30T20:36:16Z</time>
      </trkpt>
      <trkpt lat="48.80436" lon="2.33613">
        <ele>44.599998474121</ele>
        <time>2015-11-30T20:36:20Z</time>
      </trkpt>
      <trkpt lat="48.80447" lon="2.33626">
        <ele>44.20000076294</ele>
        <time>2015-11-30T20:36:23Z</time>
      </trkpt>
      <trkpt lat="48.80462" lon="2.33643">
        <ele>43.599998474121</ele>
        <time>2015-11-30T20:36:27Z</time>
      </trkpt>
      <trkpt lat="48.80478" lon="2.33659">
        <ele>43.20000076294</ele>
        <time>2015-11-30T20:36:31Z</time>
      </trkpt>
      <trkpt lat="48.80493" lon="2.33676">
        <ele>42.79999923706</ele>
        <time>2015-11-30T20:36:35Z</time>
      </trkpt>
      <trkpt lat="48.80506" lon="2.33696">
        <ele>42.79999923706</ele>
        <time>2015-11-30T20:36:39Z</time>
      </trkpt>
      <trkpt lat="48.80522" lon="2.33715">
        <ele>42.599998474121</ele>
        <time>2015-11-30T20:36:43Z</time>
      </trkpt>
      <trkpt lat="48.80525" lon="2.3372">
        <ele>42.79999923706</ele>
        <time>2015-11-30T20:36:44Z</time>
      </trkpt>
      <trkpt lat="48.80539" lon="2.33743">
        <ele>43.400001525879</ele>
        <time>2015-11-30T20:36:48Z</time>
      </trkpt>
      <trkpt lat="48.80549" lon="2.33762">
        <ele>43</ele>
        <time>2015-11-30T20:36:51Z</time>
      </trkpt>
      <trkpt lat="48.80557" lon="2.3379">
        <ele>42.20000076294</ele>
        <time>2015-11-30T20:36:55Z</time>
      </trkpt>
      <trkpt lat="48.80559" lon="2.33796">
        <ele>42.20000076294</ele>
        <time>2015-11-30T20:36:56Z</time>
      </trkpt>
      <trkpt lat="48.80568" lon="2.33822">
        <ele>42.20000076294</ele>
        <time>2015-11-30T20:37:00Z</time>
      </trkpt>
      <trkpt lat="48.80572" lon="2.33837">
        <ele>42.20000076294</ele>
        <time>2015-11-30T20:37:02Z</time>
      </trkpt>
      <trkpt lat="48.80578" lon="2.33864">
        <ele>42</ele>
        <time>2015-11-30T20:37:06Z</time>
      </trkpt>
      <trkpt lat="48.80583" lon="2.33876">
        <ele>41.79999923706</ele>
        <time>2015-11-30T20:37:08Z</time>
      </trkpt>
      <trkpt lat="48.80593" lon="2.33906">
        <ele>41.400001525879</ele>
        <time>2015-11-30T20:37:13Z</time>
      </trkpt>
      <trkpt lat="48.80597" lon="2.33918">
        <ele>41.400001525879</ele>
        <time>2015-11-30T20:37:15Z</time>
      </trkpt>
      <trkpt lat="48.80606" lon="2.33946">
        <ele>41.400001525879</ele>
        <time>2015-11-30T20:37:20Z</time>
      </trkpt>
      <trkpt lat="48.80615" lon="2.33976">
        <ele>41.79999923706</ele>
        <time>2015-11-30T20:37:25Z</time>
      </trkpt>
      <trkpt lat="48.80622" lon="2.34002">
        <ele>42.20000076294</ele>
        <time>2015-11-30T20:37:31Z</time>
      </trkpt>
      <trkpt lat="48.80626" lon="2.34011">
        <ele>42.20000076294</ele>
        <time>2015-11-30T20:37:35Z</time>
      </trkpt>
      <trkpt lat="48.80628" lon="2.34015">
        <ele>42.20000076294</ele>
        <time>2015-11-30T20:37:37Z</time>
      </trkpt>
      <trkpt lat="48.80629" lon="2.34017">
        <ele>42.20000076294</ele>
        <time>2015-11-30T20:37:39Z</time>
      </trkpt>
      <trkpt lat="48.80633" lon="2.34019">
        <ele>42.400001525879</ele>
        <time>2015-11-30T20:39:12Z</time>
      </trkpt>
      <trkpt lat="48.8065" lon="2.34036">
        <ele>42.599998474121</ele>
        <time>2015-11-30T20:39:19Z</time>
      </trkpt>
      <trkpt lat="48.80667" lon="2.34054">
        <ele>42.79999923706</ele>
        <time>2015-11-30T20:39:25Z</time>
      </trkpt>
      <trkpt lat="48.80684" lon="2.3407">
        <ele>43</ele>
        <time>2015-11-30T20:39:30Z</time>
      </trkpt>
      <trkpt lat="48.80702" lon="2.34088">
        <ele>43.400001525879</ele>
        <time>2015-11-30T20:39:35Z</time>
      </trkpt>
      <trkpt lat="48.80719" lon="2.34102">
        <ele>43.599998474121</ele>
        <time>2015-11-30T20:39:40Z</time>
      </trkpt>
      <trkpt lat="48.80734" lon="2.34118">
        <ele>43.79999923706</ele>
        <time>2015-11-30T20:39:45Z</time>
      </trkpt>
      <trkpt lat="48.80752" lon="2.34135">
        <ele>44</ele>
        <time>2015-11-30T20:39:50Z</time>
      </trkpt>
      <trkpt lat="48.80771" lon="2.34153">
        <ele>44.20000076294</ele>
        <time>2015-11-30T20:39:55Z</time>
      </trkpt>
      <trkpt lat="48.80786" lon="2.34168">
        <ele>44.20000076294</ele>
        <time>2015-11-30T20:39:59Z</time>
      </trkpt>
      <trkpt lat="48.80805" lon="2.34185">
        <ele>44</ele>
        <time>2015-11-30T20:40:04Z</time>
      </trkpt>
      <trkpt lat="48.80823" lon="2.342">
        <ele>44</ele>
        <time>2015-11-30T20:40:09Z</time>
      </trkpt>
      <trkpt lat="48.80834" lon="2.34208">
        <ele>44</ele>
        <time>2015-11-30T20:40:12Z</time>
      </trkpt>
      <trkpt lat="48.80853" lon="2.34222">
        <ele>43.79999923706</ele>
        <time>2015-11-30T20:40:17Z</time>
      </trkpt>
      <trkpt lat="48.80869" lon="2.34235">
        <ele>43.400001525879</ele>
        <time>2015-11-30T20:40:21Z</time>
      </trkpt>
      <trkpt lat="48.80882" lon="2.34244">
        <ele>43.20000076294</ele>
        <time>2015-11-30T20:40:24Z</time>
      </trkpt>
      <trkpt lat="48.80899" lon="2.34259">
        <ele>42.79999923706</ele>
        <time>2015-11-30T20:40:28Z</time>
      </trkpt>
      <trkpt lat="48.80917" lon="2.34271">
        <ele>42.79999923706</ele>
        <time>2015-11-30T20:40:32Z</time>
      </trkpt>
      <trkpt lat="48.80937" lon="2.34287">
        <ele>42.599998474121</ele>
        <time>2015-11-30T20:40:37Z</time>
      </trkpt>
      <trkpt lat="48.80953" lon="2.34301">
        <ele>42.79999923706</ele>
        <time>2015-11-30T20:40:41Z</time>
      </trkpt>
      <trkpt lat="48.8096" lon="2.34308">
        <ele>42.79999923706</ele>
        <time>2015-11-30T20:40:43Z</time>
      </trkpt>
      <trkpt lat="48.80975" lon="2.34324">
        <ele>43</ele>
        <time>2015-11-30T20:40:47Z</time>
      </trkpt>
      <trkpt lat="48.80986" lon="2.34342">
        <ele>43.20000076294</ele>
        <time>2015-11-30T20:40:51Z</time>
      </trkpt>
      <trkpt lat="48.8099" lon="2.34348">
        <ele>43.20000076294</ele>
        <time>2015-11-30T20:40:52Z</time>
      </trkpt>
      <trkpt lat="48.81007" lon="2.3437">
        <ele>43.599998474121</ele>
        <time>2015-11-30T20:40:57Z</time>
      </trkpt>
      <trkpt lat="48.8101" lon="2.34374">
        <ele>43.79999923706</ele>
        <time>2015-11-30T20:40:58Z</time>
      </trkpt>
      <trkpt lat="48.81013" lon="2.34378">
        <ele>43.79999923706</ele>
        <time>2015-11-30T20:40:59Z</time>
      </trkpt>
      <trkpt lat="48.81029" lon="2.34402">
        <ele>43.79999923706</ele>
        <time>2015-11-30T20:41:04Z</time>
      </trkpt>
      <trkpt lat="48.81037" lon="2.34411">
        <ele>43.599998474121</ele>
        <time>2015-11-30T20:41:06Z</time>
      </trkpt>
      <trkpt lat="48.81053" lon="2.34433">
        <ele>43.400001525879</ele>
        <time>2015-11-30T20:41:10Z</time>
      </trkpt>
      <trkpt lat="48.8106" lon="2.34443">
        <ele>43.400001525879</ele>
        <time>2015-11-30T20:41:12Z</time>
      </trkpt>
      <trkpt lat="48.8107" lon="2.34468">
        <ele>43.599998474121</ele>
        <time>2015-11-30T20:41:16Z</time>
      </trkpt>
      <trkpt lat="48.81076" lon="2.34492">
        <ele>44</ele>
        <time>2015-11-30T20:41:24Z</time>
      </trkpt>
      <trkpt lat="48.8109" lon="2.34509">
        <ele>43.599998474121</ele>
        <time>2015-11-30T20:41:34Z</time>
      </trkpt>
      <trkpt lat="48.81105" lon="2.34529">
        <ele>43.400001525879</ele>
        <time>2015-11-30T20:41:39Z</time>
      </trkpt>
      <trkpt lat="48.81119" lon="2.34549">
        <ele>43.20000076294</ele>
        <time>2015-11-30T20:41:44Z</time>
      </trkpt>
      <trkpt lat="48.81133" lon="2.34567">
        <ele>42.79999923706</ele>
        <time>2015-11-30T20:41:49Z</time>
      </trkpt>
      <trkpt lat="48.81152" lon="2.34584">
        <ele>42.20000076294</ele>
        <time>2015-11-30T20:41:55Z</time>
      </trkpt>
      <trkpt lat="48.81173" lon="2.34597">
        <ele>41.599998474121</ele>
        <time>2015-11-30T20:42:00Z</time>
      </trkpt>
      <trkpt lat="48.8119" lon="2.34609">
        <ele>41</ele>
        <time>2015-11-30T20:42:04Z</time>
      </trkpt>
      <trkpt lat="48.81209" lon="2.34626">
        <ele>41.79999923706</ele>
        <time>2015-11-30T20:42:09Z</time>
      </trkpt>
      <trkpt lat="48.81227" lon="2.34643">
        <ele>42.400001525879</ele>
        <time>2015-11-30T20:42:14Z</time>
      </trkpt>
      <trkpt lat="48.81242" lon="2.34655">
        <ele>43</ele>
        <time>2015-11-30T20:42:18Z</time>
      </trkpt>
      <trkpt lat="48.8126" lon="2.3467">
        <ele>43.599998474121</ele>
        <time>2015-11-30T20:42:23Z</time>
      </trkpt>
      <trkpt lat="48.81267" lon="2.34676">
        <ele>43.599998474121</ele>
        <time>2015-11-30T20:42:25Z</time>
      </trkpt>
      <trkpt lat="48.81284" lon="2.34684">
        <ele>43.400001525879</ele>
        <time>2015-11-30T20:42:30Z</time>
      </trkpt>
      <trkpt lat="48.81287" lon="2.34686">
        <ele>43.20000076294</ele>
        <time>2015-11-30T20:42:31Z</time>
      </trkpt>
      <trkpt lat="48.81295" lon="2.34695">
        <ele>42.79999923706</ele>
        <time>2015-11-30T20:42:34Z</time>
      </trkpt>
      <trkpt lat="48.81314" lon="2.34712">
        <ele>42</ele>
        <time>2015-11-30T20:42:39Z</time>
      </trkpt>
      <trkpt lat="48.81331" lon="2.34724">
        <ele>41.20000076294</ele>
        <time>2015-11-30T20:42:43Z</time>
      </trkpt>
      <trkpt lat="48.81342" lon="2.34734">
        <ele>40.599998474121</ele>
        <time>2015-11-30T20:42:46Z</time>
      </trkpt>
      <trkpt lat="48.81355" lon="2.34752">
        <ele>40.20000076294</ele>
        <time>2015-11-30T20:42:50Z</time>
      </trkpt>
      <trkpt lat="48.81368" lon="2.34773">
        <ele>41</ele>
        <time>2015-11-30T20:42:55Z</time>
      </trkpt>
      <trkpt lat="48.81371" lon="2.34778">
        <ele>41.20000076294</ele>
        <time>2015-11-30T20:42:56Z</time>
      </trkpt>
      <trkpt lat="48.81372" lon="2.34783">
        <ele>41.400001525879</ele>
        <time>2015-11-30T20:42:57Z</time>
      </trkpt>
      <trkpt lat="48.81378" lon="2.34804">
        <ele>42.400001525879</ele>
        <time>2015-11-30T20:43:01Z</time>
      </trkpt>
      <trkpt lat="48.81384" lon="2.34828">
        <ele>43.20000076294</ele>
        <time>2015-11-30T20:43:05Z</time>
      </trkpt>
      <trkpt lat="48.81392" lon="2.34853">
        <ele>43.20000076294</ele>
        <time>2015-11-30T20:43:09Z</time>
      </trkpt>
      <trkpt lat="48.814" lon="2.34878">
        <ele>43</ele>
        <time>2015-11-30T20:43:13Z</time>
      </trkpt>
      <trkpt lat="48.81406" lon="2.34903">
        <ele>43</ele>
        <time>2015-11-30T20:43:17Z</time>
      </trkpt>
      <trkpt lat="48.81409" lon="2.34916">
        <ele>43</ele>
        <time>2015-11-30T20:43:19Z</time>
      </trkpt>
      <trkpt lat="48.81417" lon="2.34946">
        <ele>42.599998474121</ele>
        <time>2015-11-30T20:43:24Z</time>
      </trkpt>
      <trkpt lat="48.81422" lon="2.34964">
        <ele>42.400001525879</ele>
        <time>2015-11-30T20:43:28Z</time>
      </trkpt>
      <trkpt lat="48.81423" lon="2.3497">
        <ele>42.400001525879</ele>
        <time>2015-11-30T20:43:30Z</time>
      </trkpt>
      <trkpt lat="48.81429" lon="2.34997">
        <ele>42.400001525879</ele>
        <time>2015-11-30T20:43:52Z</time>
      </trkpt>
      <trkpt lat="48.81435" lon="2.35022">
        <ele>43</ele>
        <time>2015-11-30T20:43:57Z</time>
      </trkpt>
      <trkpt lat="48.81443" lon="2.35049">
        <ele>43.79999923706</ele>
        <time>2015-11-30T20:44:02Z</time>
      </trkpt>
      <trkpt lat="48.81452" lon="2.35073">
        <ele>44.79999923706</ele>
        <time>2015-11-30T20:44:06Z</time>
      </trkpt>
      <trkpt lat="48.81458" lon="2.351">
        <ele>44.400001525879</ele>
        <time>2015-11-30T20:44:10Z</time>
      </trkpt>
      <trkpt lat="48.81465" lon="2.35126">
        <ele>44</ele>
        <time>2015-11-30T20:44:14Z</time>
      </trkpt>
      <trkpt lat="48.81472" lon="2.35151">
        <ele>43.79999923706</ele>
        <time>2015-11-30T20:44:18Z</time>
      </trkpt>
      <trkpt lat="48.8148" lon="2.35179">
        <ele>43.599998474121</ele>
        <time>2015-11-30T20:44:23Z</time>
      </trkpt>
      <trkpt lat="48.81494" lon="2.35201">
        <ele>43</ele>
        <time>2015-11-30T20:44:28Z</time>
      </trkpt>
      <trkpt lat="48.81497" lon="2.35206">
        <ele>42.79999923706</ele>
        <time>2015-11-30T20:44:29Z</time>
      </trkpt>
      <trkpt lat="48.81503" lon="2.35215">
        <ele>42.599998474121</ele>
        <time>2015-11-30T20:44:31Z</time>
      </trkpt>
      <trkpt lat="48.81516" lon="2.35238">
        <ele>42.20000076294</ele>
        <time>2015-11-30T20:44:36Z</time>
      </trkpt>
      <trkpt lat="48.81531" lon="2.35261">
        <ele>42</ele>
        <time>2015-11-30T20:44:41Z</time>
      </trkpt>
      <trkpt lat="48.81537" lon="2.35271">
        <ele>42.20000076294</ele>
        <time>2015-11-30T20:44:43Z</time>
      </trkpt>
      <trkpt lat="48.81546" lon="2.35283">
        <ele>42.20000076294</ele>
        <time>2015-11-30T20:44:46Z</time>
      </trkpt>
      <trkpt lat="48.81562" lon="2.35303">
        <ele>42</ele>
        <time>2015-11-30T20:44:51Z</time>
      </trkpt>
      <trkpt lat="48.81564" lon="2.35306">
        <ele>42.20000076294</ele>
        <time>2015-11-30T20:44:52Z</time>
      </trkpt>
      <trkpt lat="48.81577" lon="2.35322">
        <ele>42</ele>
        <time>2015-11-30T20:44:57Z</time>
      </trkpt>
      <trkpt lat="48.81586" lon="2.35325">
        <ele>41.79999923706</ele>
        <time>2015-11-30T20:45:00Z</time>
      </trkpt>
      <trkpt lat="48.81608" lon="2.35327">
        <ele>41</ele>
        <time>2015-11-30T20:45:06Z</time>
      </trkpt>
      <trkpt lat="48.81626" lon="2.3533">
        <ele>41.20000076294</ele>
        <time>2015-11-30T20:45:12Z</time>
      </trkpt>
      <trkpt lat="48.81645" lon="2.35331">
        <ele>41.400001525879</ele>
        <time>2015-11-30T20:45:17Z</time>
      </trkpt>
      <trkpt lat="48.81665" lon="2.35331">
        <ele>41.79999923706</ele>
        <time>2015-11-30T20:45:22Z</time>
      </trkpt>
      <trkpt lat="48.81686" lon="2.35333">
        <ele>42</ele>
        <time>2015-11-30T20:45:27Z</time>
      </trkpt>
      <trkpt lat="48.81705" lon="2.35337">
        <ele>42.20000076294</ele>
        <time>2015-11-30T20:45:32Z</time>
      </trkpt>
      <trkpt lat="48.81723" lon="2.3534">
        <ele>42.20000076294</ele>
        <time>2015-11-30T20:45:37Z</time>
      </trkpt>
      <trkpt lat="48.81739" lon="2.35343">
        <ele>42.400001525879</ele>
        <time>2015-11-30T20:45:43Z</time>
      </trkpt>
      <trkpt lat="48.81757" lon="2.35345">
        <ele>42.599998474121</ele>
        <time>2015-11-30T20:46:01Z</time>
      </trkpt>
      <trkpt lat="48.81777" lon="2.35346">
        <ele>42.79999923706</ele>
        <time>2015-11-30T20:46:09Z</time>
      </trkpt>
      <trkpt lat="48.81797" lon="2.3534">
        <ele>43.20000076294</ele>
        <time>2015-11-30T20:46:15Z</time>
      </trkpt>
      <trkpt lat="48.81816" lon="2.3534">
        <ele>43.79999923706</ele>
        <time>2015-11-30T20:46:20Z</time>
      </trkpt>
      <trkpt lat="48.81837" lon="2.35341">
        <ele>44.20000076294</ele>
        <time>2015-11-30T20:46:25Z</time>
      </trkpt>
      <trkpt lat="48.81856" lon="2.35341">
        <ele>44.599998474121</ele>
        <time>2015-11-30T20:46:29Z</time>
      </trkpt>
      <trkpt lat="48.81875" lon="2.35341">
        <ele>43.599998474121</ele>
        <time>2015-11-30T20:46:33Z</time>
      </trkpt>
      <trkpt lat="48.81894" lon="2.35343">
        <ele>42.20000076294</ele>
        <time>2015-11-30T20:46:37Z</time>
      </trkpt>
      <trkpt lat="48.81914" lon="2.35342">
        <ele>40.79999923706</ele>
        <time>2015-11-30T20:46:41Z</time>
      </trkpt>
      <trkpt lat="48.81933" lon="2.35338">
        <ele>39.400001525879</ele>
        <time>2015-11-30T20:46:45Z</time>
      </trkpt>
      <trkpt lat="48.8195" lon="2.35331">
        <ele>39.20000076294</ele>
        <time>2015-11-30T20:46:49Z</time>
      </trkpt>
      <trkpt lat="48.81971" lon="2.35321">
        <ele>39.400001525879</ele>
        <time>2015-11-30T20:46:54Z</time>
      </trkpt>
      <trkpt lat="48.81992" lon="2.35311">
        <ele>39.599998474121</ele>
        <time>2015-11-30T20:46:59Z</time>
      </trkpt>
      <trkpt lat="48.81996" lon="2.35309">
        <ele>39.599998474121</ele>
        <time>2015-11-30T20:47:00Z</time>
      </trkpt>
      <trkpt lat="48.82016" lon="2.35297">
        <ele>40.20000076294</ele>
        <time>2015-11-30T20:47:05Z</time>
      </trkpt>
      <trkpt lat="48.82038" lon="2.35287">
        <ele>40.79999923706</ele>
        <time>2015-11-30T20:47:10Z</time>
      </trkpt>
      <trkpt lat="48.82056" lon="2.35278">
        <ele>41.400001525879</ele>
        <time>2015-11-30T20:47:14Z</time>
      </trkpt>
      <trkpt lat="48.82075" lon="2.35268">
        <ele>41.20000076294</ele>
        <time>2015-11-30T20:47:19Z</time>
      </trkpt>
      <trkpt lat="48.82093" lon="2.35261">
        <ele>41.20000076294</ele>
        <time>2015-11-30T20:47:25Z</time>
      </trkpt>
      <trkpt lat="48.82136" lon="2.35257">
        <ele>41.20000076294</ele>
        <time>2015-11-30T20:47:33Z</time>
      </trkpt>
      <trkpt lat="48.82155" lon="2.35258">
        <ele>41.20000076294</ele>
        <time>2015-11-30T20:47:38Z</time>
      </trkpt>
      <trkpt lat="48.82159" lon="2.35256">
        <ele>41.20000076294</ele>
        <time>2015-11-30T20:47:39Z</time>
      </trkpt>
      <trkpt lat="48.82177" lon="2.35253">
        <ele>41.20000076294</ele>
        <time>2015-11-30T20:47:44Z</time>
      </trkpt>
      <trkpt lat="48.82183" lon="2.35254">
        <ele>41.20000076294</ele>
        <time>2015-11-30T20:47:46Z</time>
      </trkpt>
      <trkpt lat="48.82199" lon="2.35259">
        <ele>41.20000076294</ele>
        <time>2015-11-30T20:47:50Z</time>
      </trkpt>
      <trkpt lat="48.82215" lon="2.35269">
        <ele>41.599998474121</ele>
        <time>2015-11-30T20:47:56Z</time>
      </trkpt>
      <trkpt lat="48.82233" lon="2.35279">
        <ele>42</ele>
        <time>2015-11-30T20:48:05Z</time>
      </trkpt>
      <trkpt lat="48.8225" lon="2.35283">
        <ele>42.20000076294</ele>
        <time>2015-11-30T20:48:09Z</time>
      </trkpt>
      <trkpt lat="48.82258" lon="2.35283">
        <ele>42.20000076294</ele>
        <time>2015-11-30T20:48:11Z</time>
      </trkpt>
      <trkpt lat="48.82278" lon="2.35289">
        <ele>43</ele>
        <time>2015-11-30T20:48:15Z</time>
      </trkpt>
      <trkpt lat="48.82294" lon="2.3529">
        <ele>44.599998474121</ele>
        <time>2015-11-30T20:48:21Z</time>
      </trkpt>
      <trkpt lat="48.82299" lon="2.35292">
        <ele>45.20000076294</ele>
        <time>2015-11-30T20:48:24Z</time>
      </trkpt>
      <trkpt lat="48.82309" lon="2.35279">
        <ele>45.79999923706</ele>
        <time>2015-11-30T20:48:29Z</time>
      </trkpt>
      <trkpt lat="48.82327" lon="2.35292">
        <ele>47.599998474121</ele>
        <time>2015-11-30T20:48:33Z</time>
      </trkpt>
      <trkpt lat="48.82344" lon="2.35309">
        <ele>49.400001525879</ele>
        <time>2015-11-30T20:48:39Z</time>
      </trkpt>
      <trkpt lat="48.82348" lon="2.35313">
        <ele>49.79999923706</ele>
        <time>2015-11-30T20:48:42Z</time>
      </trkpt>
      <trkpt lat="48.82351" lon="2.35316">
        <ele>50.20000076294</ele>
        <time>2015-11-30T20:48:44Z</time>
      </trkpt>
      <trkpt lat="48.82358" lon="2.35324">
        <ele>50.79999923706</ele>
        <time>2015-11-30T20:48:54Z</time>
      </trkpt>
      <trkpt lat="48.82368" lon="2.35348">
        <ele>51.20000076294</ele>
        <time>2015-11-30T20:49:08Z</time>
      </trkpt>
      <trkpt lat="48.82373" lon="2.35353">
        <ele>51.400001525879</ele>
        <time>2015-11-30T20:49:11Z</time>
      </trkpt>
      <trkpt lat="48.82383" lon="2.35357">
        <ele>51.599998474121</ele>
        <time>2015-11-30T20:49:15Z</time>
      </trkpt>
      <trkpt lat="48.82398" lon="2.35373">
        <ele>52</ele>
        <time>2015-11-30T20:49:22Z</time>
      </trkpt>
      <trkpt lat="48.82408" lon="2.35388">
        <ele>52.20000076294</ele>
        <time>2015-11-30T20:49:31Z</time>
      </trkpt>
      <trkpt lat="48.82401" lon="2.35412">
        <ele>51.599998474121</ele>
        <time>2015-11-30T20:49:48Z</time>
      </trkpt>
      <trkpt lat="48.82387" lon="2.35433">
        <ele>52</ele>
        <time>2015-11-30T20:49:57Z</time>
      </trkpt>
      <trkpt lat="48.82374" lon="2.35452">
        <ele>52.400001525879</ele>
        <time>2015-11-30T20:50:06Z</time>
      </trkpt>
      <trkpt lat="48.8236" lon="2.35471">
        <ele>52.79999923706</ele>
        <time>2015-11-30T20:50:15Z</time>
      </trkpt>
      <trkpt lat="48.82345" lon="2.35488">
        <ele>53.20000076294</ele>
        <time>2015-11-30T20:50:22Z</time>
      </trkpt>
      <trkpt lat="48.82328" lon="2.35505">
        <ele>54.599998474121</ele>
        <time>2015-11-30T20:50:29Z</time>
      </trkpt>
      <trkpt lat="48.82315" lon="2.35526">
        <ele>55.79999923706</ele>
        <time>2015-11-30T20:50:40Z</time>
      </trkpt>
      <trkpt lat="48.82315" lon="2.35527">
        <ele>56</ele>
        <time>2015-11-30T20:50:41Z</time>
      </trkpt>
      <trkpt lat="48.82305" lon="2.35531">
        <ele>56.20000076294</ele>
        <time>2015-11-30T20:51:44Z</time>
      </trkpt>
      <trkpt lat="48.82327" lon="2.35528">
        <ele>55.79999923706</ele>
        <time>2015-11-30T20:52:00Z</time>
      </trkpt>
      <trkpt lat="48.82336" lon="2.35529">
        <ele>55.79999923706</ele>
        <time>2015-11-30T20:52:03Z</time>
      </trkpt>
      <trkpt lat="48.82343" lon="2.35533">
        <ele>55.79999923706</ele>
        <time>2015-11-30T20:52:12Z</time>
      </trkpt>
      <trkpt lat="48.82345" lon="2.35534">
        <ele>55.79999923706</ele>
        <time>2015-11-30T20:52:14Z</time>
      </trkpt>
      <trkpt lat="48.82347" lon="2.35536">
        <ele>56</ele>
        <time>2015-11-30T20:52:16Z</time>
      </trkpt>
      <trkpt lat="48.82352" lon="2.35541">
        <ele>56.20000076294</ele>
        <time>2015-11-30T20:52:23Z</time>
      </trkpt>
      <trkpt lat="48.82353" lon="2.35542">
        <ele>56.20000076294</ele>
        <time>2015-11-30T20:52:25Z</time>
      </trkpt>
      <trkpt lat="48.82355" lon="2.35544">
        <ele>56.20000076294</ele>
        <time>2015-11-30T20:52:35Z</time>
      </trkpt>
      <trkpt lat="48.82359" lon="2.35532">
        <ele>55.79999923706</ele>
        <time>2015-11-30T20:52:51Z</time>
      </trkpt>
      <trkpt lat="48.82378" lon="2.35531">
        <ele>56.20000076294</ele>
        <time>2015-11-30T20:53:14Z</time>
      </trkpt>
      <trkpt lat="48.82398" lon="2.35535">
        <ele>56.79999923706</ele>
        <time>2015-11-30T20:53:21Z</time>
      </trkpt>
      <trkpt lat="48.82407" lon="2.35534">
        <ele>57.20000076294</ele>
        <time>2015-11-30T20:53:26Z</time>
      </trkpt>
      <trkpt lat="48.82411" lon="2.35535">
        <ele>57.400001525879</ele>
        <time>2015-11-30T20:53:28Z</time>
      </trkpt>
      <trkpt lat="48.82432" lon="2.35537">
        <ele>58.20000076294</ele>
        <time>2015-11-30T20:53:36Z</time>
      </trkpt>
      <trkpt lat="48.82451" lon="2.35538">
        <ele>58.400001525879</ele>
        <time>2015-11-30T20:53:43Z</time>
      </trkpt>
      <trkpt lat="48.82471" lon="2.35533">
        <ele>57.79999923706</ele>
        <time>2015-11-30T20:53:49Z</time>
      </trkpt>
      <trkpt lat="48.82482" lon="2.35528">
        <ele>57.599998474121</ele>
        <time>2015-11-30T20:53:53Z</time>
      </trkpt>
      <trkpt lat="48.82492" lon="2.35532">
        <ele>57.599998474121</ele>
        <time>2015-11-30T20:53:57Z</time>
      </trkpt>
      <trkpt lat="48.8251" lon="2.35526">
        <ele>57.20000076294</ele>
        <time>2015-11-30T20:54:07Z</time>
      </trkpt>
      <trkpt lat="48.82529" lon="2.3552">
        <ele>57</ele>
        <time>2015-11-30T20:54:15Z</time>
      </trkpt>
      <trkpt lat="48.82548" lon="2.35518">
        <ele>57.79999923706</ele>
        <time>2015-11-30T20:54:21Z</time>
      </trkpt>
      <trkpt lat="48.82568" lon="2.35519">
        <ele>58.79999923706</ele>
        <time>2015-11-30T20:54:25Z</time>
      </trkpt>
      <trkpt lat="48.82576" lon="2.35522">
        <ele>59.20000076294</ele>
        <time>2015-11-30T20:54:27Z</time>
      </trkpt>
      <trkpt lat="48.8259" lon="2.35544">
        <ele>60.400001525879</ele>
        <time>2015-11-30T20:54:34Z</time>
      </trkpt>
      <trkpt lat="48.82596" lon="2.35567">
        <ele>61.20000076294</ele>
        <time>2015-11-30T20:54:39Z</time>
      </trkpt>
      <trkpt lat="48.82598" lon="2.35598">
        <ele>62.400001525879</ele>
        <time>2015-11-30T20:54:45Z</time>
      </trkpt>
      <trkpt lat="48.82605" lon="2.3563">
        <ele>63.79999923706</ele>
        <time>2015-11-30T20:54:51Z</time>
      </trkpt>
      <trkpt lat="48.82606" lon="2.35662">
        <ele>65</ele>
        <time>2015-11-30T20:54:57Z</time>
      </trkpt>
      <trkpt lat="48.8261" lon="2.35691">
        <ele>66</ele>
        <time>2015-11-30T20:55:04Z</time>
      </trkpt>
      <trkpt lat="48.82612" lon="2.35714">
        <ele>66.800003051758</ele>
        <time>2015-11-30T20:55:38Z</time>
      </trkpt>
      <trkpt lat="48.82611" lon="2.35743">
        <ele>67.800003051758</ele>
        <time>2015-11-30T20:55:51Z</time>
      </trkpt>
      <trkpt lat="48.82614" lon="2.3577">
        <ele>67.599998474121</ele>
        <time>2015-11-30T20:55:59Z</time>
      </trkpt>
      <trkpt lat="48.82614" lon="2.35798">
        <ele>67.800003051758</ele>
        <time>2015-11-30T20:56:06Z</time>
      </trkpt>
      <trkpt lat="48.82615" lon="2.35825">
        <ele>68.199996948242</ele>
        <time>2015-11-30T20:56:11Z</time>
      </trkpt>
      <trkpt lat="48.82615" lon="2.35853">
        <ele>67.800003051758</ele>
        <time>2015-11-30T20:56:15Z</time>
      </trkpt>
      <trkpt lat="48.82612" lon="2.35885">
        <ele>66.400001525879</ele>
        <time>2015-11-30T20:56:20Z</time>
      </trkpt>
      <trkpt lat="48.82611" lon="2.35914">
        <ele>65</ele>
        <time>2015-11-30T20:56:24Z</time>
      </trkpt>
      <trkpt lat="48.8261" lon="2.35941">
        <ele>63.79999923706</ele>
        <time>2015-11-30T20:56:28Z</time>
      </trkpt>
      <trkpt lat="48.82612" lon="2.35974">
        <ele>62.599998474121</ele>
        <time>2015-11-30T20:56:33Z</time>
      </trkpt>
      <trkpt lat="48.8262" lon="2.35996">
        <ele>61.599998474121</ele>
        <time>2015-11-30T20:56:39Z</time>
      </trkpt>
      <trkpt lat="48.82636" lon="2.35987">
        <ele>61.20000076294</ele>
        <time>2015-11-30T20:56:45Z</time>
      </trkpt>
      <trkpt lat="48.82654" lon="2.3597">
        <ele>61.20000076294</ele>
        <time>2015-11-30T20:56:50Z</time>
      </trkpt>
      <trkpt lat="48.8267" lon="2.35956">
        <ele>61.599998474121</ele>
        <time>2015-11-30T20:56:54Z</time>
      </trkpt>
      <trkpt lat="48.82686" lon="2.35938">
        <ele>62.599998474121</ele>
        <time>2015-11-30T20:56:58Z</time>
      </trkpt>
      <trkpt lat="48.82701" lon="2.35924">
        <ele>63.20000076294</ele>
        <time>2015-11-30T20:57:01Z</time>
      </trkpt>
      <trkpt lat="48.82718" lon="2.35909">
        <ele>63.20000076294</ele>
        <time>2015-11-30T20:57:04Z</time>
      </trkpt>
      <trkpt lat="48.82737" lon="2.35893">
        <ele>62.400001525879</ele>
        <time>2015-11-30T20:57:07Z</time>
      </trkpt>
      <trkpt lat="48.82757" lon="2.35877">
        <ele>61</ele>
        <time>2015-11-30T20:57:10Z</time>
      </trkpt>
      <trkpt lat="48.8278" lon="2.35858">
        <ele>59.400001525879</ele>
        <time>2015-11-30T20:57:13Z</time>
      </trkpt>
      <trkpt lat="48.82801" lon="2.35842">
        <ele>59.79999923706</ele>
        <time>2015-11-30T20:57:16Z</time>
      </trkpt>
      <trkpt lat="48.8282" lon="2.35829">
        <ele>61.20000076294</ele>
        <time>2015-11-30T20:57:19Z</time>
      </trkpt>
      <trkpt lat="48.8284" lon="2.35814">
        <ele>63.400001525879</ele>
        <time>2015-11-30T20:57:22Z</time>
      </trkpt>
      <trkpt lat="48.8286" lon="2.35798">
        <ele>64.599998474121</ele>
        <time>2015-11-30T20:57:25Z</time>
      </trkpt>
      <trkpt lat="48.8288" lon="2.35784">
        <ele>65.199996948242</ele>
        <time>2015-11-30T20:57:28Z</time>
      </trkpt>
      <trkpt lat="48.82891" lon="2.35772">
        <ele>66.199996948242</ele>
        <time>2015-11-30T20:57:30Z</time>
      </trkpt>
      <trkpt lat="48.82909" lon="2.35756">
        <ele>68.199996948242</ele>
        <time>2015-11-30T20:57:33Z</time>
      </trkpt>
      <trkpt lat="48.82929" lon="2.35744">
        <ele>69.800003051758</ele>
        <time>2015-11-30T20:57:36Z</time>
      </trkpt>
      <trkpt lat="48.82947" lon="2.35728">
        <ele>70.199996948242</ele>
        <time>2015-11-30T20:57:39Z</time>
      </trkpt>
      <trkpt lat="48.82959" lon="2.35717">
        <ele>70.400001525879</ele>
        <time>2015-11-30T20:57:41Z</time>
      </trkpt>
      <trkpt lat="48.8297" lon="2.35707">
        <ele>70.800003051758</ele>
        <time>2015-11-30T20:57:43Z</time>
      </trkpt>
      <trkpt lat="48.82987" lon="2.35691">
        <ele>70.599998474121</ele>
        <time>2015-11-30T20:57:46Z</time>
      </trkpt>
      <trkpt lat="48.83007" lon="2.3568">
        <ele>70.400001525879</ele>
        <time>2015-11-30T20:57:49Z</time>
      </trkpt>
      <trkpt lat="48.83014" lon="2.35676">
        <ele>70.199996948242</ele>
        <time>2015-11-30T20:57:50Z</time>
      </trkpt>
      <trkpt lat="48.83033" lon="2.35664">
        <ele>69.199996948242</ele>
        <time>2015-11-30T20:57:53Z</time>
      </trkpt>
      <trkpt lat="48.83047" lon="2.35649">
        <ele>69</ele>
        <time>2015-11-30T20:57:56Z</time>
      </trkpt>
      <trkpt lat="48.83065" lon="2.35638">
        <ele>68.199996948242</ele>
        <time>2015-11-30T20:58:00Z</time>
      </trkpt>
      <trkpt lat="48.83074" lon="2.35642">
        <ele>67.400001525879</ele>
        <time>2015-11-30T20:58:39Z</time>
      </trkpt>
      <trkpt lat="48.83072" lon="2.35642">
        <ele>67.400001525879</ele>
        <time>2015-11-30T21:00:27Z</time>
      </trkpt>
      <trkpt lat="48.83073" lon="2.35643">
        <ele>67.400001525879</ele>
        <time>2015-11-30T21:00:28Z</time>
      </trkpt>
      <trkpt lat="48.83086" lon="2.35658">
        <ele>65.800003051758</ele>
        <time>2015-11-30T21:00:37Z</time>
      </trkpt>
      <trkpt lat="48.83099" lon="2.35674">
        <ele>64.800003051758</ele>
        <time>2015-11-30T21:00:45Z</time>
      </trkpt>
      <trkpt lat="48.83102" lon="2.35682">
        <ele>64.800003051758</ele>
        <time>2015-11-30T21:00:47Z</time>
      </trkpt>
      <trkpt lat="48.83111" lon="2.35709">
        <ele>65.400001525879</ele>
        <time>2015-11-30T21:00:53Z</time>
      </trkpt>
      <trkpt lat="48.83121" lon="2.35734">
        <ele>66</ele>
        <time>2015-11-30T21:00:58Z</time>
      </trkpt>
      <trkpt lat="48.83131" lon="2.35763">
        <ele>65.800003051758</ele>
        <time>2015-11-30T21:01:03Z</time>
      </trkpt>
      <trkpt lat="48.83143" lon="2.35792">
        <ele>64.599998474121</ele>
        <time>2015-11-30T21:01:08Z</time>
      </trkpt>
      <trkpt lat="48.83152" lon="2.35818">
        <ele>63.400001525879</ele>
        <time>2015-11-30T21:01:12Z</time>
      </trkpt>
      <trkpt lat="48.83162" lon="2.35846">
        <ele>62</ele>
        <time>2015-11-30T21:01:16Z</time>
      </trkpt>
      <trkpt lat="48.83172" lon="2.35876">
        <ele>60.20000076294</ele>
        <time>2015-11-30T21:01:20Z</time>
      </trkpt>
      <trkpt lat="48.83181" lon="2.35906">
        <ele>58.599998474121</ele>
        <time>2015-11-30T21:01:24Z</time>
      </trkpt>
      <trkpt lat="48.8319" lon="2.35935">
        <ele>57</ele>
        <time>2015-11-30T21:01:28Z</time>
      </trkpt>
      <trkpt lat="48.83193" lon="2.35943">
        <ele>56.79999923706</ele>
        <time>2015-11-30T21:01:29Z</time>
      </trkpt>
      <trkpt lat="48.83203" lon="2.35975">
        <ele>55.79999923706</ele>
        <time>2015-11-30T21:01:33Z</time>
      </trkpt>
      <trkpt lat="48.83214" lon="2.36007">
        <ele>55.20000076294</ele>
        <time>2015-11-30T21:01:37Z</time>
      </trkpt>
      <trkpt lat="48.83221" lon="2.36032">
        <ele>55.400001525879</ele>
        <time>2015-11-30T21:01:40Z</time>
      </trkpt>
      <trkpt lat="48.83231" lon="2.36065">
        <ele>55.400001525879</ele>
        <time>2015-11-30T21:01:44Z</time>
      </trkpt>
      <trkpt lat="48.83239" lon="2.3609">
        <ele>55</ele>
        <time>2015-11-30T21:01:47Z</time>
      </trkpt>
      <trkpt lat="48.83249" lon="2.36121">
        <ele>53.400001525879</ele>
        <time>2015-11-30T21:01:51Z</time>
      </trkpt>
      <trkpt lat="48.83259" lon="2.36152">
        <ele>52</ele>
        <time>2015-11-30T21:01:55Z</time>
      </trkpt>
      <trkpt lat="48.83271" lon="2.36179">
        <ele>52</ele>
        <time>2015-11-30T21:01:59Z</time>
      </trkpt>
      <trkpt lat="48.83282" lon="2.36208">
        <ele>51.79999923706</ele>
        <time>2015-11-30T21:02:03Z</time>
      </trkpt>
      <trkpt lat="48.83292" lon="2.36239">
        <ele>51.79999923706</ele>
        <time>2015-11-30T21:02:07Z</time>
      </trkpt>
      <trkpt lat="48.83302" lon="2.36271">
        <ele>51.400001525879</ele>
        <time>2015-11-30T21:02:11Z</time>
      </trkpt>
      <trkpt lat="48.83311" lon="2.36297">
        <ele>51.20000076294</ele>
        <time>2015-11-30T21:02:14Z</time>
      </trkpt>
      <trkpt lat="48.8332" lon="2.36323">
        <ele>51.20000076294</ele>
        <time>2015-11-30T21:02:17Z</time>
      </trkpt>
      <trkpt lat="48.83329" lon="2.36347">
        <ele>50.79999923706</ele>
        <time>2015-11-30T21:02:21Z</time>
      </trkpt>
      <trkpt lat="48.83331" lon="2.36356">
        <ele>50.599998474121</ele>
        <time>2015-11-30T21:02:23Z</time>
      </trkpt>
      <trkpt lat="48.8334" lon="2.36385">
        <ele>50</ele>
        <time>2015-11-30T21:02:29Z</time>
      </trkpt>
      <trkpt lat="48.83349" lon="2.36409">
        <ele>49.20000076294</ele>
        <time>2015-11-30T21:02:33Z</time>
      </trkpt>
      <trkpt lat="48.83359" lon="2.36437">
        <ele>48.79999923706</ele>
        <time>2015-11-30T21:02:37Z</time>
      </trkpt>
      <trkpt lat="48.83368" lon="2.36468">
        <ele>48.20000076294</ele>
        <time>2015-11-30T21:02:41Z</time>
      </trkpt>
      <trkpt lat="48.83379" lon="2.36498">
        <ele>47.599998474121</ele>
        <time>2015-11-30T21:02:45Z</time>
      </trkpt>
      <trkpt lat="48.8339" lon="2.36529">
        <ele>47.400001525879</ele>
        <time>2015-11-30T21:02:49Z</time>
      </trkpt>
      <trkpt lat="48.83398" lon="2.36556">
        <ele>46.599998474121</ele>
        <time>2015-11-30T21:02:52Z</time>
      </trkpt>
      <trkpt lat="48.83407" lon="2.36584">
        <ele>45.599998474121</ele>
        <time>2015-11-30T21:02:55Z</time>
      </trkpt>
      <trkpt lat="48.83416" lon="2.3661">
        <ele>44.20000076294</ele>
        <time>2015-11-30T21:02:58Z</time>
      </trkpt>
      <trkpt lat="48.83426" lon="2.36638">
        <ele>42.599998474121</ele>
        <time>2015-11-30T21:03:01Z</time>
      </trkpt>
      <trkpt lat="48.83434" lon="2.36664">
        <ele>41.400001525879</ele>
        <time>2015-11-30T21:03:04Z</time>
      </trkpt>
      <trkpt lat="48.83444" lon="2.36697">
        <ele>42</ele>
        <time>2015-11-30T21:03:08Z</time>
      </trkpt>
      <trkpt lat="48.83453" lon="2.36727">
        <ele>42.79999923706</ele>
        <time>2015-11-30T21:03:12Z</time>
      </trkpt>
      <trkpt lat="48.83464" lon="2.36756">
        <ele>43.20000076294</ele>
        <time>2015-11-30T21:03:16Z</time>
      </trkpt>
      <trkpt lat="48.83475" lon="2.36785">
        <ele>42.599998474121</ele>
        <time>2015-11-30T21:03:20Z</time>
      </trkpt>
      <trkpt lat="48.83489" lon="2.36811">
        <ele>42.20000076294</ele>
        <time>2015-11-30T21:03:24Z</time>
      </trkpt>
      <trkpt lat="48.83499" lon="2.36829">
        <ele>41.79999923706</ele>
        <time>2015-11-30T21:03:27Z</time>
      </trkpt>
      <trkpt lat="48.83509" lon="2.36856">
        <ele>41.20000076294</ele>
        <time>2015-11-30T21:03:31Z</time>
      </trkpt>
      <trkpt lat="48.83517" lon="2.36878">
        <ele>40.599998474121</ele>
        <time>2015-11-30T21:03:34Z</time>
      </trkpt>
      <trkpt lat="48.83525" lon="2.3691">
        <ele>40</ele>
        <time>2015-11-30T21:03:38Z</time>
      </trkpt>
      <trkpt lat="48.83533" lon="2.36939">
        <ele>39.599998474121</ele>
        <time>2015-11-30T21:03:42Z</time>
      </trkpt>
      <trkpt lat="48.83541" lon="2.36967">
        <ele>39.400001525879</ele>
        <time>2015-11-30T21:03:46Z</time>
      </trkpt>
      <trkpt lat="48.83548" lon="2.3698">
        <ele>39</ele>
        <time>2015-11-30T21:03:48Z</time>
      </trkpt>
      <trkpt lat="48.83564" lon="2.37006">
        <ele>38.599998474121</ele>
        <time>2015-11-30T21:03:52Z</time>
      </trkpt>
      <trkpt lat="48.83575" lon="2.37028">
        <ele>38.400001525879</ele>
        <time>2015-11-30T21:03:55Z</time>
      </trkpt>
      <trkpt lat="48.83578" lon="2.37036">
        <ele>38.400001525879</ele>
        <time>2015-11-30T21:03:56Z</time>
      </trkpt>
      <trkpt lat="48.83587" lon="2.37061">
        <ele>38.400001525879</ele>
        <time>2015-11-30T21:03:59Z</time>
      </trkpt>
      <trkpt lat="48.83591" lon="2.37078">
        <ele>38</ele>
        <time>2015-11-30T21:04:01Z</time>
      </trkpt>
      <trkpt lat="48.83603" lon="2.37105">
        <ele>38.20000076294</ele>
        <time>2015-11-30T21:04:05Z</time>
      </trkpt>
      <trkpt lat="48.83608" lon="2.37116">
        <ele>38.20000076294</ele>
        <time>2015-11-30T21:04:07Z</time>
      </trkpt>
      <trkpt lat="48.83618" lon="2.3714">
        <ele>37.599998474121</ele>
        <time>2015-11-30T21:04:14Z</time>
      </trkpt>
      <trkpt lat="48.83608" lon="2.37166">
        <ele>39</ele>
        <time>2015-11-30T21:05:23Z</time>
      </trkpt>
      <trkpt lat="48.8359" lon="2.37185">
        <ele>38.599998474121</ele>
        <time>2015-11-30T21:05:29Z</time>
      </trkpt>
      <trkpt lat="48.83587" lon="2.3719">
        <ele>38.599998474121</ele>
        <time>2015-11-30T21:05:30Z</time>
      </trkpt>
      <trkpt lat="48.83567" lon="2.37208">
        <ele>38</ele>
        <time>2015-11-30T21:05:34Z</time>
      </trkpt>
      <trkpt lat="48.83556" lon="2.3722">
        <ele>38.599998474121</ele>
        <time>2015-11-30T21:05:36Z</time>
      </trkpt>
      <trkpt lat="48.83537" lon="2.37237">
        <ele>39.400001525879</ele>
        <time>2015-11-30T21:05:39Z</time>
      </trkpt>
      <trkpt lat="48.83531" lon="2.37243">
        <ele>39.79999923706</ele>
        <time>2015-11-30T21:05:40Z</time>
      </trkpt>
      <trkpt lat="48.83513" lon="2.37263">
        <ele>41.400001525879</ele>
        <time>2015-11-30T21:05:43Z</time>
      </trkpt>
      <trkpt lat="48.83495" lon="2.37282">
        <ele>43</ele>
        <time>2015-11-30T21:05:46Z</time>
      </trkpt>
      <trkpt lat="48.83476" lon="2.37301">
        <ele>43.20000076294</ele>
        <time>2015-11-30T21:05:49Z</time>
      </trkpt>
      <trkpt lat="48.83458" lon="2.37318">
        <ele>41</ele>
        <time>2015-11-30T21:05:52Z</time>
      </trkpt>
      <trkpt lat="48.83439" lon="2.37337">
        <ele>38.79999923706</ele>
        <time>2015-11-30T21:05:55Z</time>
      </trkpt>
      <trkpt lat="48.83431" lon="2.37342">
        <ele>38.400001525879</ele>
        <time>2015-11-30T21:05:56Z</time>
      </trkpt>
      <trkpt lat="48.83411" lon="2.37361">
        <ele>37</ele>
        <time>2015-11-30T21:05:59Z</time>
      </trkpt>
      <trkpt lat="48.83392" lon="2.37381">
        <ele>36.400001525879</ele>
        <time>2015-11-30T21:06:02Z</time>
      </trkpt>
      <trkpt lat="48.83386" lon="2.37389">
        <ele>36.599998474121</ele>
        <time>2015-11-30T21:06:03Z</time>
      </trkpt>
      <trkpt lat="48.83375" lon="2.37403">
        <ele>37.400001525879</ele>
        <time>2015-11-30T21:06:05Z</time>
      </trkpt>
      <trkpt lat="48.83355" lon="2.37423">
        <ele>38.20000076294</ele>
        <time>2015-11-30T21:06:08Z</time>
      </trkpt>
      <trkpt lat="48.83333" lon="2.37441">
        <ele>37.599998474121</ele>
        <time>2015-11-30T21:06:11Z</time>
      </trkpt>
      <trkpt lat="48.83313" lon="2.37457">
        <ele>37</ele>
        <time>2015-11-30T21:06:14Z</time>
      </trkpt>
      <trkpt lat="48.83293" lon="2.37473">
        <ele>36.79999923706</ele>
        <time>2015-11-30T21:06:17Z</time>
      </trkpt>
      <trkpt lat="48.83275" lon="2.3749">
        <ele>36.79999923706</ele>
        <time>2015-11-30T21:06:20Z</time>
      </trkpt>
      <trkpt lat="48.83257" lon="2.37507">
        <ele>37</ele>
        <time>2015-11-30T21:06:23Z</time>
      </trkpt>
      <trkpt lat="48.8324" lon="2.37522">
        <ele>37.20000076294</ele>
        <time>2015-11-30T21:06:26Z</time>
      </trkpt>
      <trkpt lat="48.83222" lon="2.37539">
        <ele>37.599998474121</ele>
        <time>2015-11-30T21:06:29Z</time>
      </trkpt>
      <trkpt lat="48.8321" lon="2.3755">
        <ele>38.599998474121</ele>
        <time>2015-11-30T21:06:31Z</time>
      </trkpt>
      <trkpt lat="48.83193" lon="2.37565">
        <ele>39.79999923706</ele>
        <time>2015-11-30T21:06:34Z</time>
      </trkpt>
      <trkpt lat="48.83176" lon="2.3758">
        <ele>40.400001525879</ele>
        <time>2015-11-30T21:06:37Z</time>
      </trkpt>
      <trkpt lat="48.8316" lon="2.37594">
        <ele>40</ele>
        <time>2015-11-30T21:06:40Z</time>
      </trkpt>
      <trkpt lat="48.83155" lon="2.37598">
        <ele>40</ele>
        <time>2015-11-30T21:06:41Z</time>
      </trkpt>
      <trkpt lat="48.83135" lon="2.37599">
        <ele>39</ele>
        <time>2015-11-30T21:06:45Z</time>
      </trkpt>
      <trkpt lat="48.83116" lon="2.37613">
        <ele>38.599998474121</ele>
        <time>2015-11-30T21:06:50Z</time>
      </trkpt>
      <trkpt lat="48.83097" lon="2.37632">
        <ele>39</ele>
        <time>2015-11-30T21:06:55Z</time>
      </trkpt>
      <trkpt lat="48.83087" lon="2.37641">
        <ele>39.400001525879</ele>
        <time>2015-11-30T21:06:58Z</time>
      </trkpt>
      <trkpt lat="48.83073" lon="2.37661">
        <ele>39.599998474121</ele>
        <time>2015-11-30T21:07:03Z</time>
      </trkpt>
      <trkpt lat="48.83072" lon="2.37665">
        <ele>39.599998474121</ele>
        <time>2015-11-30T21:07:04Z</time>
      </trkpt>
      <trkpt lat="48.83056" lon="2.3766">
        <ele>39.400001525879</ele>
        <time>2015-11-30T21:07:10Z</time>
      </trkpt>
      <trkpt lat="48.83054" lon="2.3766">
        <ele>39.400001525879</ele>
        <time>2015-11-30T21:07:11Z</time>
      </trkpt>
      <trkpt lat="48.83051" lon="2.37653">
        <ele>39.20000076294</ele>
        <time>2015-11-30T21:07:28Z</time>
      </trkpt>
      <trkpt lat="48.83049" lon="2.37658">
        <ele>39.20000076294</ele>
        <time>2015-11-30T21:07:35Z</time>
      </trkpt>
      <trkpt lat="48.83064" lon="2.37667">
        <ele>39.400001525879</ele>
        <time>2015-11-30T21:08:51Z</time>
      </trkpt>
      <trkpt lat="48.8307" lon="2.37695">
        <ele>38.79999923706</ele>
        <time>2015-11-30T21:09:02Z</time>
      </trkpt>
      <trkpt lat="48.83081" lon="2.37721">
        <ele>38.400001525879</ele>
        <time>2015-11-30T21:09:11Z</time>
      </trkpt>
      <trkpt lat="48.83095" lon="2.37745">
        <ele>38</ele>
        <time>2015-11-30T21:09:17Z</time>
      </trkpt>
      <trkpt lat="48.83107" lon="2.37768">
        <ele>38.599998474121</ele>
        <time>2015-11-30T21:09:22Z</time>
      </trkpt>
      <trkpt lat="48.8312" lon="2.37788">
        <ele>39.599998474121</ele>
        <time>2015-11-30T21:09:26Z</time>
      </trkpt>
      <trkpt lat="48.83123" lon="2.37794">
        <ele>40</ele>
        <time>2015-11-30T21:09:27Z</time>
      </trkpt>
      <trkpt lat="48.83137" lon="2.37819">
        <ele>41.20000076294</ele>
        <time>2015-11-30T21:09:31Z</time>
      </trkpt>
      <trkpt lat="48.83151" lon="2.37842">
        <ele>42.599998474121</ele>
        <time>2015-11-30T21:09:35Z</time>
      </trkpt>
      <trkpt lat="48.83165" lon="2.37868">
        <ele>44.20000076294</ele>
        <time>2015-11-30T21:09:39Z</time>
      </trkpt>
      <trkpt lat="48.83178" lon="2.37894">
        <ele>45.79999923706</ele>
        <time>2015-11-30T21:09:43Z</time>
      </trkpt>
      <trkpt lat="48.8319" lon="2.37918">
        <ele>46.79999923706</ele>
        <time>2015-11-30T21:09:47Z</time>
      </trkpt>
      <trkpt lat="48.83199" lon="2.37935">
        <ele>46</ele>
        <time>2015-11-30T21:09:50Z</time>
      </trkpt>
      <trkpt lat="48.83213" lon="2.37957">
        <ele>44.599998474121</ele>
        <time>2015-11-30T21:09:54Z</time>
      </trkpt>
      <trkpt lat="48.83225" lon="2.37981">
        <ele>43.400001525879</ele>
        <time>2015-11-30T21:09:58Z</time>
      </trkpt>
      <trkpt lat="48.83236" lon="2.38005">
        <ele>41.400001525879</ele>
        <time>2015-11-30T21:10:02Z</time>
      </trkpt>
      <trkpt lat="48.83247" lon="2.38024">
        <ele>38.79999923706</ele>
        <time>2015-11-30T21:10:06Z</time>
      </trkpt>
      <trkpt lat="48.83255" lon="2.38037">
        <ele>37</ele>
        <time>2015-11-30T21:10:09Z</time>
      </trkpt>
      <trkpt lat="48.83269" lon="2.38061">
        <ele>33.79999923706</ele>
        <time>2015-11-30T21:10:14Z</time>
      </trkpt>
      <trkpt lat="48.83275" lon="2.38074">
        <ele>31.799999237061</ele>
        <time>2015-11-30T21:10:17Z</time>
      </trkpt>
      <trkpt lat="48.8328" lon="2.38082">
        <ele>30.799999237061</ele>
        <time>2015-11-30T21:10:19Z</time>
      </trkpt>
      <trkpt lat="48.83291" lon="2.38106">
        <ele>30.799999237061</ele>
        <time>2015-11-30T21:10:24Z</time>
      </trkpt>
      <trkpt lat="48.83298" lon="2.38121">
        <ele>31.200000762939</ele>
        <time>2015-11-30T21:10:27Z</time>
      </trkpt>
      <trkpt lat="48.8331" lon="2.38142">
        <ele>31.60000038147</ele>
        <time>2015-11-30T21:10:31Z</time>
      </trkpt>
      <trkpt lat="48.83321" lon="2.38163">
        <ele>32</ele>
        <time>2015-11-30T21:10:35Z</time>
      </trkpt>
      <trkpt lat="48.83335" lon="2.38188">
        <ele>31.39999961853</ele>
        <time>2015-11-30T21:10:40Z</time>
      </trkpt>
      <trkpt lat="48.83347" lon="2.38215">
        <ele>30.799999237061</ele>
        <time>2015-11-30T21:10:45Z</time>
      </trkpt>
      <trkpt lat="48.83359" lon="2.38238">
        <ele>31</ele>
        <time>2015-11-30T21:10:50Z</time>
      </trkpt>
      <trkpt lat="48.83368" lon="2.38252">
        <ele>32</ele>
        <time>2015-11-30T21:10:53Z</time>
      </trkpt>
      <trkpt lat="48.83381" lon="2.38274">
        <ele>33.20000076294</ele>
        <time>2015-11-30T21:10:58Z</time>
      </trkpt>
      <trkpt lat="48.83392" lon="2.38299">
        <ele>34.20000076294</ele>
        <time>2015-11-30T21:11:02Z</time>
      </trkpt>
      <trkpt lat="48.83401" lon="2.38316">
        <ele>35</ele>
        <time>2015-11-30T21:11:05Z</time>
      </trkpt>
      <trkpt lat="48.83412" lon="2.3834">
        <ele>35.599998474121</ele>
        <time>2015-11-30T21:11:09Z</time>
      </trkpt>
      <trkpt lat="48.83423" lon="2.38367">
        <ele>35.20000076294</ele>
        <time>2015-11-30T21:11:14Z</time>
      </trkpt>
      <trkpt lat="48.83434" lon="2.38389">
        <ele>34.79999923706</ele>
        <time>2015-11-30T21:11:18Z</time>
      </trkpt>
      <trkpt lat="48.83447" lon="2.38415">
        <ele>34.599998474121</ele>
        <time>2015-11-30T21:11:23Z</time>
      </trkpt>
      <trkpt lat="48.83455" lon="2.38428">
        <ele>35.400001525879</ele>
        <time>2015-11-30T21:11:26Z</time>
      </trkpt>
      <trkpt lat="48.83469" lon="2.38452">
        <ele>37.20000076294</ele>
        <time>2015-11-30T21:11:31Z</time>
      </trkpt>
      <trkpt lat="48.83477" lon="2.38464">
        <ele>38.20000076294</ele>
        <time>2015-11-30T21:11:34Z</time>
      </trkpt>
      <trkpt lat="48.83482" lon="2.38476">
        <ele>39</ele>
        <time>2015-11-30T21:11:37Z</time>
      </trkpt>
      <trkpt lat="48.83497" lon="2.38499">
        <ele>40.79999923706</ele>
        <time>2015-11-30T21:11:42Z</time>
      </trkpt>
      <trkpt lat="48.83511" lon="2.38519">
        <ele>41.20000076294</ele>
        <time>2015-11-30T21:11:47Z</time>
      </trkpt>
      <trkpt lat="48.83516" lon="2.38521">
        <ele>41.400001525879</ele>
        <time>2015-11-30T21:11:48Z</time>
      </trkpt>
      <trkpt lat="48.83532" lon="2.3851">
        <ele>41.599998474121</ele>
        <time>2015-11-30T21:11:52Z</time>
      </trkpt>
      <trkpt lat="48.83548" lon="2.38493">
        <ele>40.599998474121</ele>
        <time>2015-11-30T21:11:56Z</time>
      </trkpt>
      <trkpt lat="48.8356" lon="2.38479">
        <ele>39.79999923706</ele>
        <time>2015-11-30T21:11:59Z</time>
      </trkpt>
      <trkpt lat="48.83576" lon="2.38461">
        <ele>39</ele>
        <time>2015-11-30T21:12:03Z</time>
      </trkpt>
      <trkpt lat="48.83591" lon="2.38444">
        <ele>39.79999923706</ele>
        <time>2015-11-30T21:12:07Z</time>
      </trkpt>
      <trkpt lat="48.83594" lon="2.38439">
        <ele>40</ele>
        <time>2015-11-30T21:12:08Z</time>
      </trkpt>
      <trkpt lat="48.83611" lon="2.38419">
        <ele>40.79999923706</ele>
        <time>2015-11-30T21:12:13Z</time>
      </trkpt>
      <trkpt lat="48.83626" lon="2.38399">
        <ele>41.20000076294</ele>
        <time>2015-11-30T21:12:18Z</time>
      </trkpt>
      <trkpt lat="48.8364" lon="2.38382">
        <ele>41.400001525879</ele>
        <time>2015-11-30T21:12:22Z</time>
      </trkpt>
      <trkpt lat="48.83648" lon="2.38374">
        <ele>41.400001525879</ele>
        <time>2015-11-30T21:12:24Z</time>
      </trkpt>
      <trkpt lat="48.83657" lon="2.38367">
        <ele>41.79999923706</ele>
        <time>2015-11-30T21:12:26Z</time>
      </trkpt>
      <trkpt lat="48.83667" lon="2.38355">
        <ele>42.20000076294</ele>
        <time>2015-11-30T21:12:29Z</time>
      </trkpt>
      <trkpt lat="48.83685" lon="2.38334">
        <ele>42.79999923706</ele>
        <time>2015-11-30T21:12:34Z</time>
      </trkpt>
      <trkpt lat="48.83701" lon="2.38319">
        <ele>42.400001525879</ele>
        <time>2015-11-30T21:12:38Z</time>
      </trkpt>
      <trkpt lat="48.83718" lon="2.38301">
        <ele>41.599998474121</ele>
        <time>2015-11-30T21:12:43Z</time>
      </trkpt>
      <trkpt lat="48.83726" lon="2.38294">
        <ele>41.20000076294</ele>
        <time>2015-11-30T21:12:45Z</time>
      </trkpt>
      <trkpt lat="48.83737" lon="2.38283">
        <ele>41.20000076294</ele>
        <time>2015-11-30T21:12:48Z</time>
      </trkpt>
      <trkpt lat="48.83754" lon="2.38261">
        <ele>41.599998474121</ele>
        <time>2015-11-30T21:12:53Z</time>
      </trkpt>
      <trkpt lat="48.83769" lon="2.3824">
        <ele>42</ele>
        <time>2015-11-30T21:12:58Z</time>
      </trkpt>
      <trkpt lat="48.83773" lon="2.38236">
        <ele>42</ele>
        <time>2015-11-30T21:12:59Z</time>
      </trkpt>
      <trkpt lat="48.83789" lon="2.38218">
        <ele>41.79999923706</ele>
        <time>2015-11-30T21:13:04Z</time>
      </trkpt>
      <trkpt lat="48.83806" lon="2.38199">
        <ele>41.599998474121</ele>
        <time>2015-11-30T21:13:09Z</time>
      </trkpt>
      <trkpt lat="48.8382" lon="2.3818">
        <ele>41.79999923706</ele>
        <time>2015-11-30T21:13:14Z</time>
      </trkpt>
      <trkpt lat="48.83834" lon="2.38158">
        <ele>42.20000076294</ele>
        <time>2015-11-30T21:13:19Z</time>
      </trkpt>
      <trkpt lat="48.83841" lon="2.38146">
        <ele>42.400001525879</ele>
        <time>2015-11-30T21:13:22Z</time>
      </trkpt>
      <trkpt lat="48.83849" lon="2.38134">
        <ele>41.599998474121</ele>
        <time>2015-11-30T21:13:25Z</time>
      </trkpt>
      <trkpt lat="48.83855" lon="2.38124">
        <ele>41</ele>
        <time>2015-11-30T21:13:28Z</time>
      </trkpt>
      <trkpt lat="48.83864" lon="2.38113">
        <ele>41.20000076294</ele>
        <time>2015-11-30T21:13:33Z</time>
      </trkpt>
      <trkpt lat="48.8388" lon="2.38092">
        <ele>41.400001525879</ele>
        <time>2015-11-30T21:13:41Z</time>
      </trkpt>
      <trkpt lat="48.83895" lon="2.38075">
        <ele>42.400001525879</ele>
        <time>2015-11-30T21:13:47Z</time>
      </trkpt>
      <trkpt lat="48.83914" lon="2.38059">
        <ele>44.20000076294</ele>
        <time>2015-11-30T21:13:54Z</time>
      </trkpt>
      <trkpt lat="48.83931" lon="2.38041">
        <ele>44.20000076294</ele>
        <time>2015-11-30T21:14:02Z</time>
      </trkpt>
      <trkpt lat="48.83934" lon="2.38034">
        <ele>44</ele>
        <time>2015-11-30T21:14:04Z</time>
      </trkpt>
      <trkpt lat="48.83947" lon="2.38016">
        <ele>44</ele>
        <time>2015-11-30T21:14:09Z</time>
      </trkpt>
      <trkpt lat="48.83962" lon="2.37999">
        <ele>44</ele>
        <time>2015-11-30T21:14:14Z</time>
      </trkpt>
      <trkpt lat="48.83977" lon="2.3798">
        <ele>45.20000076294</ele>
        <time>2015-11-30T21:14:20Z</time>
      </trkpt>
      <trkpt lat="48.83983" lon="2.37969">
        <ele>46</ele>
        <time>2015-11-30T21:14:25Z</time>
      </trkpt>
      <trkpt lat="48.83995" lon="2.37979">
        <ele>45.400001525879</ele>
        <time>2015-11-30T21:15:00Z</time>
      </trkpt>
      <trkpt lat="48.8401" lon="2.37997">
        <ele>44</ele>
        <time>2015-11-30T21:15:09Z</time>
      </trkpt>
      <trkpt lat="48.84015" lon="2.37999">
        <ele>44</ele>
        <time>2015-11-30T21:15:12Z</time>
      </trkpt>
      <trkpt lat="48.84019" lon="2.37997">
        <ele>44.20000076294</ele>
        <time>2015-11-30T21:15:16Z</time>
      </trkpt>
      <trkpt lat="48.84026" lon="2.37994">
        <ele>44</ele>
        <time>2015-11-30T21:15:22Z</time>
      </trkpt>
      <trkpt lat="48.84035" lon="2.37992">
        <ele>43.599998474121</ele>
        <time>2015-11-30T21:16:03Z</time>
      </trkpt>
      <trkpt lat="48.84046" lon="2.37972">
        <ele>43.599998474121</ele>
        <time>2015-11-30T21:16:25Z</time>
      </trkpt>
      <trkpt lat="48.84052" lon="2.37946">
        <ele>43.79999923706</ele>
        <time>2015-11-30T21:16:29Z</time>
      </trkpt>
      <trkpt lat="48.84057" lon="2.37914">
        <ele>46</ele>
        <time>2015-11-30T21:16:34Z</time>
      </trkpt>
      <trkpt lat="48.8406" lon="2.37899">
        <ele>45.79999923706</ele>
        <time>2015-11-30T21:16:37Z</time>
      </trkpt>
      <trkpt lat="48.84071" lon="2.37881">
        <ele>45.599998474121</ele>
        <time>2015-11-30T21:16:42Z</time>
      </trkpt>
      <trkpt lat="48.84075" lon="2.37874">
        <ele>44.79999923706</ele>
        <time>2015-11-30T21:16:44Z</time>
      </trkpt>
      <trkpt lat="48.8409" lon="2.37851">
        <ele>41.79999923706</ele>
        <time>2015-11-30T21:16:50Z</time>
      </trkpt>
      <trkpt lat="48.84097" lon="2.37824">
        <ele>39.79999923706</ele>
        <time>2015-11-30T21:16:56Z</time>
      </trkpt>
      <trkpt lat="48.84099" lon="2.37821">
        <ele>39.599998474121</ele>
        <time>2015-11-30T21:16:57Z</time>
      </trkpt>
      <trkpt lat="48.84112" lon="2.37798">
        <ele>39</ele>
        <time>2015-11-30T21:17:02Z</time>
      </trkpt>
      <trkpt lat="48.84127" lon="2.3778">
        <ele>38.79999923706</ele>
        <time>2015-11-30T21:17:07Z</time>
      </trkpt>
      <trkpt lat="48.84141" lon="2.3776">
        <ele>38.599998474121</ele>
        <time>2015-11-30T21:17:12Z</time>
      </trkpt>
      <trkpt lat="48.84153" lon="2.37739">
        <ele>39.400001525879</ele>
        <time>2015-11-30T21:17:17Z</time>
      </trkpt>
      <trkpt lat="48.84167" lon="2.37719">
        <ele>40.79999923706</ele>
        <time>2015-11-30T21:17:22Z</time>
      </trkpt>
      <trkpt lat="48.84179" lon="2.37692">
        <ele>39.20000076294</ele>
        <time>2015-11-30T21:17:28Z</time>
      </trkpt>
      <trkpt lat="48.84191" lon="2.37671">
        <ele>38</ele>
        <time>2015-11-30T21:17:33Z</time>
      </trkpt>
      <trkpt lat="48.84206" lon="2.3765">
        <ele>38.20000076294</ele>
        <time>2015-11-30T21:17:39Z</time>
      </trkpt>
      <trkpt lat="48.84217" lon="2.37627">
        <ele>39.20000076294</ele>
        <time>2015-11-30T21:17:45Z</time>
      </trkpt>
      <trkpt lat="48.8423" lon="2.37605">
        <ele>39.400001525879</ele>
        <time>2015-11-30T21:17:52Z</time>
      </trkpt>
      <trkpt lat="48.84246" lon="2.37588">
        <ele>39</ele>
        <time>2015-11-30T21:17:59Z</time>
      </trkpt>
      <trkpt lat="48.84257" lon="2.37564">
        <ele>38.79999923706</ele>
        <time>2015-11-30T21:18:06Z</time>
      </trkpt>
      <trkpt lat="48.84271" lon="2.37545">
        <ele>40.599998474121</ele>
        <time>2015-11-30T21:18:12Z</time>
      </trkpt>
      <trkpt lat="48.8428" lon="2.37519">
        <ele>42.599998474121</ele>
        <time>2015-11-30T21:18:18Z</time>
      </trkpt>
      <trkpt lat="48.84284" lon="2.37489">
        <ele>44.400001525879</ele>
        <time>2015-11-30T21:18:24Z</time>
      </trkpt>
      <trkpt lat="48.84288" lon="2.37455">
        <ele>45</ele>
        <time>2015-11-30T21:18:32Z</time>
      </trkpt>
      <trkpt lat="48.84287" lon="2.37452">
        <ele>44.79999923706</ele>
        <time>2015-11-30T21:18:35Z</time>
      </trkpt>
      <trkpt lat="48.84288" lon="2.37446">
        <ele>45</ele>
        <time>2015-11-30T21:18:40Z</time>
      </trkpt>
      <trkpt lat="48.84302" lon="2.37429">
        <ele>45.599998474121</ele>
        <time>2015-11-30T21:18:46Z</time>
      </trkpt>
      <trkpt lat="48.84319" lon="2.37411">
        <ele>46</ele>
        <time>2015-11-30T21:18:52Z</time>
      </trkpt>
      <trkpt lat="48.8433" lon="2.37389">
        <ele>45.79999923706</ele>
        <time>2015-11-30T21:18:57Z</time>
      </trkpt>
      <trkpt lat="48.84342" lon="2.3736">
        <ele>46.400001525879</ele>
        <time>2015-11-30T21:19:04Z</time>
      </trkpt>
      <trkpt lat="48.8436" lon="2.37342">
        <ele>46.79999923706</ele>
        <time>2015-11-30T21:19:09Z</time>
      </trkpt>
      <trkpt lat="48.84375" lon="2.37321">
        <ele>45.599998474121</ele>
        <time>2015-11-30T21:19:12Z</time>
      </trkpt>
      <trkpt lat="48.8439" lon="2.37302">
        <ele>44.20000076294</ele>
        <time>2015-11-30T21:19:15Z</time>
      </trkpt>
      <trkpt lat="48.84407" lon="2.37285">
        <ele>43.400001525879</ele>
        <time>2015-11-30T21:19:18Z</time>
      </trkpt>
      <trkpt lat="48.84423" lon="2.37271">
        <ele>43.20000076294</ele>
        <time>2015-11-30T21:19:22Z</time>
      </trkpt>
      <trkpt lat="48.84439" lon="2.37248">
        <ele>43</ele>
        <time>2015-11-30T21:19:27Z</time>
      </trkpt>
      <trkpt lat="48.84451" lon="2.37238">
        <ele>42.400001525879</ele>
        <time>2015-11-30T21:19:30Z</time>
      </trkpt>
      <trkpt lat="48.84466" lon="2.37225">
        <ele>41.79999923706</ele>
        <time>2015-11-30T21:19:34Z</time>
      </trkpt>
      <trkpt lat="48.84479" lon="2.37205">
        <ele>41</ele>
        <time>2015-11-30T21:19:38Z</time>
      </trkpt>
      <trkpt lat="48.84493" lon="2.37184">
        <ele>41.20000076294</ele>
        <time>2015-11-30T21:19:42Z</time>
      </trkpt>
      <trkpt lat="48.84504" lon="2.37164">
        <ele>41.599998474121</ele>
        <time>2015-11-30T21:19:46Z</time>
      </trkpt>
      <trkpt lat="48.84512" lon="2.37147">
        <ele>41</ele>
        <time>2015-11-30T21:19:50Z</time>
      </trkpt>
      <trkpt lat="48.84517" lon="2.37136">
        <ele>40.79999923706</ele>
        <time>2015-11-30T21:19:53Z</time>
      </trkpt>
      <trkpt lat="48.84523" lon="2.37125">
        <ele>40.599998474121</ele>
        <time>2015-11-30T21:19:56Z</time>
      </trkpt>
      <trkpt lat="48.84535" lon="2.37117">
        <ele>40.20000076294</ele>
        <time>2015-11-30T21:20:00Z</time>
      </trkpt>
      <trkpt lat="48.84538" lon="2.37116">
        <ele>40</ele>
        <time>2015-11-30T21:20:02Z</time>
      </trkpt>
      <trkpt lat="48.8455" lon="2.37129">
        <ele>40.400001525879</ele>
        <time>2015-11-30T21:20:18Z</time>
      </trkpt>
      <trkpt lat="48.8455" lon="2.3713">
        <ele>40.400001525879</ele>
        <time>2015-11-30T21:20:20Z</time>
      </trkpt>
      <trkpt lat="48.84558" lon="2.37119">
        <ele>40</ele>
        <time>2015-11-30T21:20:30Z</time>
      </trkpt>
      <trkpt lat="48.84565" lon="2.37106">
        <ele>40.400001525879</ele>
        <time>2015-11-30T21:21:10Z</time>
      </trkpt>
      <trkpt lat="48.84579" lon="2.37086">
        <ele>41.599998474121</ele>
        <time>2015-11-30T21:21:17Z</time>
      </trkpt>
      <trkpt lat="48.84592" lon="2.37067">
        <ele>42.20000076294</ele>
        <time>2015-11-30T21:21:24Z</time>
      </trkpt>
      <trkpt lat="48.84608" lon="2.37051">
        <ele>42.599998474121</ele>
        <time>2015-11-30T21:21:31Z</time>
      </trkpt>
      <trkpt lat="48.84626" lon="2.37035">
        <ele>42.20000076294</ele>
        <time>2015-11-30T21:21:39Z</time>
      </trkpt>
      <trkpt lat="48.8464" lon="2.37014">
        <ele>42.20000076294</ele>
        <time>2015-11-30T21:21:45Z</time>
      </trkpt>
      <trkpt lat="48.84654" lon="2.36992">
        <ele>42.599998474121</ele>
        <time>2015-11-30T21:21:51Z</time>
      </trkpt>
      <trkpt lat="48.8467" lon="2.36975">
        <ele>43</ele>
        <time>2015-11-30T21:21:56Z</time>
      </trkpt>
      <trkpt lat="48.84686" lon="2.36959">
        <ele>43</ele>
        <time>2015-11-30T21:22:03Z</time>
      </trkpt>
      <trkpt lat="48.84686" lon="2.36956">
        <ele>43</ele>
        <time>2015-11-30T21:22:06Z</time>
      </trkpt>
      <trkpt lat="48.84698" lon="2.36941">
        <ele>42.79999923706</ele>
        <time>2015-11-30T21:22:38Z</time>
      </trkpt>
      <trkpt lat="48.84712" lon="2.36922">
        <ele>42.79999923706</ele>
        <time>2015-11-30T21:22:43Z</time>
      </trkpt>
      <trkpt lat="48.84729" lon="2.36901">
        <ele>42.20000076294</ele>
        <time>2015-11-30T21:22:48Z</time>
      </trkpt>
      <trkpt lat="48.84747" lon="2.36879">
        <ele>41.400001525879</ele>
        <time>2015-11-30T21:22:52Z</time>
      </trkpt>
      <trkpt lat="48.84764" lon="2.36861">
        <ele>40.79999923706</ele>
        <time>2015-11-30T21:22:55Z</time>
      </trkpt>
      <trkpt lat="48.84781" lon="2.36842">
        <ele>39.79999923706</ele>
        <time>2015-11-30T21:22:58Z</time>
      </trkpt>
      <trkpt lat="48.84794" lon="2.36824">
        <ele>39</ele>
        <time>2015-11-30T21:23:01Z</time>
      </trkpt>
      <trkpt lat="48.84798" lon="2.36818">
        <ele>38.400001525879</ele>
        <time>2015-11-30T21:23:02Z</time>
      </trkpt>
      <trkpt lat="48.84808" lon="2.36798">
        <ele>36.79999923706</ele>
        <time>2015-11-30T21:23:06Z</time>
      </trkpt>
      <trkpt lat="48.84816" lon="2.36781">
        <ele>36.20000076294</ele>
        <time>2015-11-30T21:23:13Z</time>
      </trkpt>
      <trkpt lat="48.84824" lon="2.36771">
        <ele>36.79999923706</ele>
        <time>2015-11-30T21:23:38Z</time>
      </trkpt>
      <trkpt lat="48.84844" lon="2.36773">
        <ele>38</ele>
        <time>2015-11-30T21:23:45Z</time>
      </trkpt>
      <trkpt lat="48.84863" lon="2.36781">
        <ele>39</ele>
        <time>2015-11-30T21:23:52Z</time>
      </trkpt>
      <trkpt lat="48.84882" lon="2.36787">
        <ele>40.20000076294</ele>
        <time>2015-11-30T21:23:59Z</time>
      </trkpt>
      <trkpt lat="48.84887" lon="2.36785">
        <ele>40.400001525879</ele>
        <time>2015-11-30T21:24:01Z</time>
      </trkpt>
      <trkpt lat="48.84901" lon="2.36785">
        <ele>40.400001525879</ele>
        <time>2015-11-30T21:24:06Z</time>
      </trkpt>
      <trkpt lat="48.84903" lon="2.36785">
        <ele>40.400001525879</ele>
        <time>2015-11-30T21:24:07Z</time>
      </trkpt>
      <trkpt lat="48.84907" lon="2.36773">
        <ele>39</ele>
        <time>2015-11-30T21:24:11Z</time>
      </trkpt>
      <trkpt lat="48.84914" lon="2.36746">
        <ele>36.20000076294</ele>
        <time>2015-11-30T21:24:18Z</time>
      </trkpt>
      <trkpt lat="48.84922" lon="2.36717">
        <ele>35.79999923706</ele>
        <time>2015-11-30T21:24:25Z</time>
      </trkpt>
      <trkpt lat="48.84929" lon="2.3669">
        <ele>37</ele>
        <time>2015-11-30T21:24:32Z</time>
      </trkpt>
      <trkpt lat="48.84935" lon="2.36673">
        <ele>37.599998474121</ele>
        <time>2015-11-30T21:24:40Z</time>
      </trkpt>
      <trkpt lat="48.8494" lon="2.36665">
        <ele>38</ele>
        <time>2015-11-30T21:24:48Z</time>
      </trkpt>
      <trkpt lat="48.84945" lon="2.36639">
        <ele>41.400001525879</ele>
        <time>2015-11-30T21:24:54Z</time>
      </trkpt>
      <trkpt lat="48.84951" lon="2.36612">
        <ele>44.79999923706</ele>
        <time>2015-11-30T21:24:59Z</time>
      </trkpt>
      <trkpt lat="48.84959" lon="2.36584">
        <ele>46.20000076294</ele>
        <time>2015-11-30T21:25:04Z</time>
      </trkpt>
      <trkpt lat="48.84966" lon="2.36553">
        <ele>44.400001525879</ele>
        <time>2015-11-30T21:25:09Z</time>
      </trkpt>
      <trkpt lat="48.84974" lon="2.3652">
        <ele>42.79999923706</ele>
        <time>2015-11-30T21:25:14Z</time>
      </trkpt>
      <trkpt lat="48.84979" lon="2.36492">
        <ele>42.400001525879</ele>
        <time>2015-11-30T21:25:18Z</time>
      </trkpt>
      <trkpt lat="48.84983" lon="2.36464">
        <ele>41.20000076294</ele>
        <time>2015-11-30T21:25:22Z</time>
      </trkpt>
      <trkpt lat="48.84982" lon="2.36457">
        <ele>41</ele>
        <time>2015-11-30T21:25:23Z</time>
      </trkpt>
      <trkpt lat="48.8498" lon="2.36439">
        <ele>40.400001525879</ele>
        <time>2015-11-30T21:25:26Z</time>
      </trkpt>
      <trkpt lat="48.84978" lon="2.36428">
        <ele>40</ele>
        <time>2015-11-30T21:25:28Z</time>
      </trkpt>
      <trkpt lat="48.84975" lon="2.36417">
        <ele>39.599998474121</ele>
        <time>2015-11-30T21:25:31Z</time>
      </trkpt>
      <trkpt lat="48.84974" lon="2.36407">
        <ele>39.599998474121</ele>
        <time>2015-11-30T21:25:37Z</time>
      </trkpt>
      <trkpt lat="48.84981" lon="2.36392">
        <ele>39.400001525879</ele>
        <time>2015-11-30T21:25:44Z</time>
      </trkpt>
      <trkpt lat="48.8499" lon="2.36375">
        <ele>39</ele>
        <time>2015-11-30T21:25:48Z</time>
      </trkpt>
      <trkpt lat="48.85003" lon="2.36355">
        <ele>37.400001525879</ele>
        <time>2015-11-30T21:25:52Z</time>
      </trkpt>
      <trkpt lat="48.8502" lon="2.36332">
        <ele>35.20000076294</ele>
        <time>2015-11-30T21:25:57Z</time>
      </trkpt>
      <trkpt lat="48.85033" lon="2.36313">
        <ele>35.79999923706</ele>
        <time>2015-11-30T21:26:01Z</time>
      </trkpt>
      <trkpt lat="48.85047" lon="2.36295">
        <ele>36.599998474121</ele>
        <time>2015-11-30T21:26:05Z</time>
      </trkpt>
      <trkpt lat="48.85063" lon="2.36279">
        <ele>37.400001525879</ele>
        <time>2015-11-30T21:26:09Z</time>
      </trkpt>
      <trkpt lat="48.85078" lon="2.36263">
        <ele>37.599998474121</ele>
        <time>2015-11-30T21:26:13Z</time>
      </trkpt>
      <trkpt lat="48.85091" lon="2.36245">
        <ele>37.79999923706</ele>
        <time>2015-11-30T21:26:18Z</time>
      </trkpt>
      <trkpt lat="48.85106" lon="2.36247">
        <ele>38</ele>
        <time>2015-11-30T21:26:26Z</time>
      </trkpt>
      <trkpt lat="48.85113" lon="2.36259">
        <ele>38.599998474121</ele>
        <time>2015-11-30T21:26:32Z</time>
      </trkpt>
      <trkpt lat="48.85127" lon="2.36248">
        <ele>38.79999923706</ele>
        <time>2015-11-30T21:27:05Z</time>
      </trkpt>
      <trkpt lat="48.8514" lon="2.36224">
        <ele>38.400001525879</ele>
        <time>2015-11-30T21:27:13Z</time>
      </trkpt>
      <trkpt lat="48.85153" lon="2.36202">
        <ele>38.599998474121</ele>
        <time>2015-11-30T21:27:20Z</time>
      </trkpt>
      <trkpt lat="48.85166" lon="2.3618">
        <ele>40.400001525879</ele>
        <time>2015-11-30T21:27:26Z</time>
      </trkpt>
      <trkpt lat="48.85181" lon="2.36159">
        <ele>42.400001525879</ele>
        <time>2015-11-30T21:27:31Z</time>
      </trkpt>
      <trkpt lat="48.85196" lon="2.36139">
        <ele>42.20000076294</ele>
        <time>2015-11-30T21:27:36Z</time>
      </trkpt>
      <trkpt lat="48.8521" lon="2.36117">
        <ele>41.599998474121</ele>
        <time>2015-11-30T21:27:41Z</time>
      </trkpt>
      <trkpt lat="48.85224" lon="2.36094">
        <ele>40.79999923706</ele>
        <time>2015-11-30T21:27:46Z</time>
      </trkpt>
      <trkpt lat="48.85239" lon="2.36071">
        <ele>40</ele>
        <time>2015-11-30T21:27:51Z</time>
      </trkpt>
      <trkpt lat="48.85246" lon="2.36045">
        <ele>39.20000076294</ele>
        <time>2015-11-30T21:27:57Z</time>
      </trkpt>
      <trkpt lat="48.85254" lon="2.36019">
        <ele>38.79999923706</ele>
        <time>2015-11-30T21:28:03Z</time>
      </trkpt>
      <trkpt lat="48.85265" lon="2.35992">
        <ele>39.20000076294</ele>
        <time>2015-11-30T21:28:09Z</time>
      </trkpt>
      <trkpt lat="48.85273" lon="2.35967">
        <ele>38.20000076294</ele>
        <time>2015-11-30T21:28:14Z</time>
      </trkpt>
      <trkpt lat="48.85281" lon="2.35939">
        <ele>37.599998474121</ele>
        <time>2015-11-30T21:28:19Z</time>
      </trkpt>
      <trkpt lat="48.85291" lon="2.35915">
        <ele>37</ele>
        <time>2015-11-30T21:28:23Z</time>
      </trkpt>
      <trkpt lat="48.85304" lon="2.35896">
        <ele>36.79999923706</ele>
        <time>2015-11-30T21:28:27Z</time>
      </trkpt>
      <trkpt lat="48.85315" lon="2.35873">
        <ele>36.599998474121</ele>
        <time>2015-11-30T21:28:32Z</time>
      </trkpt>
      <trkpt lat="48.85325" lon="2.35847">
        <ele>36.599998474121</ele>
        <time>2015-11-30T21:28:38Z</time>
      </trkpt>
      <trkpt lat="48.85334" lon="2.35823">
        <ele>37</ele>
        <time>2015-11-30T21:28:43Z</time>
      </trkpt>
      <trkpt lat="48.85343" lon="2.35797">
        <ele>37.400001525879</ele>
        <time>2015-11-30T21:28:50Z</time>
      </trkpt>
      <trkpt lat="48.85345" lon="2.35796">
        <ele>37.400001525879</ele>
        <time>2015-11-30T21:28:51Z</time>
      </trkpt>
      <trkpt lat="48.85347" lon="2.35769">
        <ele>37.79999923706</ele>
        <time>2015-11-30T21:29:15Z</time>
      </trkpt>
      <trkpt lat="48.85356" lon="2.35741">
        <ele>38</ele>
        <time>2015-11-30T21:29:25Z</time>
      </trkpt>
      <trkpt lat="48.85367" lon="2.35716">
        <ele>38.599998474121</ele>
        <time>2015-11-30T21:29:32Z</time>
      </trkpt>
      <trkpt lat="48.85376" lon="2.35688">
        <ele>39.20000076294</ele>
        <time>2015-11-30T21:29:38Z</time>
      </trkpt>
      <trkpt lat="48.85386" lon="2.35663">
        <ele>39.400001525879</ele>
        <time>2015-11-30T21:29:44Z</time>
      </trkpt>
      <trkpt lat="48.85395" lon="2.35637">
        <ele>38.79999923706</ele>
        <time>2015-11-30T21:29:49Z</time>
      </trkpt>
      <trkpt lat="48.85404" lon="2.35609">
        <ele>38.20000076294</ele>
        <time>2015-11-30T21:29:54Z</time>
      </trkpt>
      <trkpt lat="48.85414" lon="2.3558">
        <ele>37.79999923706</ele>
        <time>2015-11-30T21:29:59Z</time>
      </trkpt>
      <trkpt lat="48.85425" lon="2.35554">
        <ele>38.400001525879</ele>
        <time>2015-11-30T21:30:04Z</time>
      </trkpt>
      <trkpt lat="48.85435" lon="2.35529">
        <ele>36.599998474121</ele>
        <time>2015-11-30T21:30:09Z</time>
      </trkpt>
      <trkpt lat="48.85446" lon="2.35501">
        <ele>35.400001525879</ele>
        <time>2015-11-30T21:30:15Z</time>
      </trkpt>
      <trkpt lat="48.85456" lon="2.35476">
        <ele>34.79999923706</ele>
        <time>2015-11-30T21:30:20Z</time>
      </trkpt>
      <trkpt lat="48.85465" lon="2.35451">
        <ele>34</ele>
        <time>2015-11-30T21:30:24Z</time>
      </trkpt>
      <trkpt lat="48.85473" lon="2.35426">
        <ele>35</ele>
        <time>2015-11-30T21:30:28Z</time>
      </trkpt>
      <trkpt lat="48.85483" lon="2.35402">
        <ele>35.79999923706</ele>
        <time>2015-11-30T21:30:32Z</time>
      </trkpt>
      <trkpt lat="48.85492" lon="2.35378">
        <ele>35.400001525879</ele>
        <time>2015-11-30T21:30:36Z</time>
      </trkpt>
      <trkpt lat="48.85501" lon="2.35356">
        <ele>35.400001525879</ele>
        <time>2015-11-30T21:30:40Z</time>
      </trkpt>
      <trkpt lat="48.85509" lon="2.35336">
        <ele>35.400001525879</ele>
        <time>2015-11-30T21:30:44Z</time>
      </trkpt>
      <trkpt lat="48.8552" lon="2.3531">
        <ele>34.599998474121</ele>
        <time>2015-11-30T21:30:49Z</time>
      </trkpt>
      <trkpt lat="48.85523" lon="2.35305">
        <ele>34.20000076294</ele>
        <time>2015-11-30T21:30:50Z</time>
      </trkpt>
      <trkpt lat="48.85541" lon="2.353">
        <ele>35.400001525879</ele>
        <time>2015-11-30T21:30:57Z</time>
      </trkpt>
      <trkpt lat="48.85545" lon="2.35294">
        <ele>35</ele>
        <time>2015-11-30T21:31:02Z</time>
      </trkpt>
      <trkpt lat="48.85551" lon="2.35267">
        <ele>33.400001525879</ele>
        <time>2015-11-30T21:31:10Z</time>
      </trkpt>
      <trkpt lat="48.85556" lon="2.35238">
        <ele>33.400001525879</ele>
        <time>2015-11-30T21:31:16Z</time>
      </trkpt>
      <trkpt lat="48.85566" lon="2.35211">
        <ele>35.599998474121</ele>
        <time>2015-11-30T21:31:23Z</time>
      </trkpt>
      <trkpt lat="48.85572" lon="2.35184">
        <ele>33.20000076294</ele>
        <time>2015-11-30T21:31:29Z</time>
      </trkpt>
      <trkpt lat="48.85582" lon="2.35159">
        <ele>31.60000038147</ele>
        <time>2015-11-30T21:31:35Z</time>
      </trkpt>
      <trkpt lat="48.85593" lon="2.35132">
        <ele>31.799999237061</ele>
        <time>2015-11-30T21:31:41Z</time>
      </trkpt>
      <trkpt lat="48.85603" lon="2.35106">
        <ele>30.799999237061</ele>
        <time>2015-11-30T21:31:47Z</time>
      </trkpt>
      <trkpt lat="48.85612" lon="2.35087">
        <ele>30.60000038147</ele>
        <time>2015-11-30T21:31:53Z</time>
      </trkpt>
      <trkpt lat="48.85623" lon="2.35091">
        <ele>31.60000038147</ele>
        <time>2015-11-30T21:31:57Z</time>
      </trkpt>
      <trkpt lat="48.85639" lon="2.35102">
        <ele>33.20000076294</ele>
        <time>2015-11-30T21:32:03Z</time>
      </trkpt>
      <trkpt lat="48.85655" lon="2.35115">
        <ele>35</ele>
        <time>2015-11-30T21:32:09Z</time>
      </trkpt>
      <trkpt lat="48.85675" lon="2.35121">
        <ele>36.79999923706</ele>
        <time>2015-11-30T21:32:17Z</time>
      </trkpt>
      <trkpt lat="48.85678" lon="2.3512">
        <ele>37</ele>
        <time>2015-11-30T21:32:19Z</time>
      </trkpt>
      <trkpt lat="48.85683" lon="2.35109">
        <ele>37.20000076294</ele>
        <time>2015-11-30T21:32:23Z</time>
      </trkpt>
      <trkpt lat="48.85694" lon="2.35086">
        <ele>37.20000076294</ele>
        <time>2015-11-30T21:32:29Z</time>
      </trkpt>
      <trkpt lat="48.85703" lon="2.3506">
        <ele>39.400001525879</ele>
        <time>2015-11-30T21:32:34Z</time>
      </trkpt>
      <trkpt lat="48.85713" lon="2.35035">
        <ele>41.400001525879</ele>
        <time>2015-11-30T21:32:38Z</time>
      </trkpt>
      <trkpt lat="48.85721" lon="2.35005">
        <ele>43.400001525879</ele>
        <time>2015-11-30T21:32:42Z</time>
      </trkpt>
      <trkpt lat="48.8573" lon="2.34976">
        <ele>45.79999923706</ele>
        <time>2015-11-30T21:32:46Z</time>
      </trkpt>
      <trkpt lat="48.85737" lon="2.3495">
        <ele>46.20000076294</ele>
        <time>2015-11-30T21:32:49Z</time>
      </trkpt>
      <trkpt lat="48.85742" lon="2.34931">
        <ele>44.20000076294</ele>
        <time>2015-11-30T21:32:51Z</time>
      </trkpt>
      <trkpt lat="48.85751" lon="2.34903">
        <ele>42.599998474121</ele>
        <time>2015-11-30T21:32:54Z</time>
      </trkpt>
      <trkpt lat="48.85757" lon="2.34883">
        <ele>41.79999923706</ele>
        <time>2015-11-30T21:32:56Z</time>
      </trkpt>
      <trkpt lat="48.85765" lon="2.34851">
        <ele>39.599998474121</ele>
        <time>2015-11-30T21:32:59Z</time>
      </trkpt>
      <trkpt lat="48.85774" lon="2.34819">
        <ele>38.400001525879</ele>
        <time>2015-11-30T21:33:02Z</time>
      </trkpt>
      <trkpt lat="48.85776" lon="2.34809">
        <ele>38.79999923706</ele>
        <time>2015-11-30T21:33:03Z</time>
      </trkpt>
      <trkpt lat="48.8578" lon="2.34779">
        <ele>40.20000076294</ele>
        <time>2015-11-30T21:33:06Z</time>
      </trkpt>
      <trkpt lat="48.85783" lon="2.3476">
        <ele>41</ele>
        <time>2015-11-30T21:33:08Z</time>
      </trkpt>
      <trkpt lat="48.8579" lon="2.34736">
        <ele>41</ele>
        <time>2015-11-30T21:33:11Z</time>
      </trkpt>
      <trkpt lat="48.85811" lon="2.34726">
        <ele>42.400001525879</ele>
        <time>2015-11-30T21:33:15Z</time>
      </trkpt>
      <trkpt lat="48.85817" lon="2.34727">
        <ele>43</ele>
        <time>2015-11-30T21:33:16Z</time>
      </trkpt>
      <trkpt lat="48.8584" lon="2.3473">
        <ele>45.20000076294</ele>
        <time>2015-11-30T21:33:20Z</time>
      </trkpt>
      <trkpt lat="48.85861" lon="2.34734">
        <ele>47.20000076294</ele>
        <time>2015-11-30T21:33:24Z</time>
      </trkpt>
      <trkpt lat="48.85871" lon="2.34734">
        <ele>46.79999923706</ele>
        <time>2015-11-30T21:33:26Z</time>
      </trkpt>
      <trkpt lat="48.85885" lon="2.3473">
        <ele>46.400001525879</ele>
        <time>2015-11-30T21:33:29Z</time>
      </trkpt>
      <trkpt lat="48.85893" lon="2.34725">
        <ele>46.20000076294</ele>
        <time>2015-11-30T21:33:31Z</time>
      </trkpt>
      <trkpt lat="48.85913" lon="2.34712">
        <ele>46</ele>
        <time>2015-11-30T21:33:35Z</time>
      </trkpt>
      <trkpt lat="48.8593" lon="2.34699">
        <ele>46</ele>
        <time>2015-11-30T21:33:39Z</time>
      </trkpt>
      <trkpt lat="48.85936" lon="2.34696">
        <ele>46</ele>
        <time>2015-11-30T21:33:41Z</time>
      </trkpt>
      <trkpt lat="48.85945" lon="2.34695">
        <ele>46</ele>
        <time>2015-11-30T21:33:45Z</time>
      </trkpt>
      <trkpt lat="48.85945" lon="2.34694">
        <ele>46</ele>
        <time>2015-11-30T21:33:46Z</time>
      </trkpt>
      <trkpt lat="48.85948" lon="2.34705">
        <ele>45.599998474121</ele>
        <time>2015-11-30T21:33:59Z</time>
      </trkpt>
      <trkpt lat="48.85959" lon="2.3471">
        <ele>45.599998474121</ele>
        <time>2015-11-30T21:34:30Z</time>
      </trkpt>
      <trkpt lat="48.85957" lon="2.34713">
        <ele>45.400001525879</ele>
        <time>2015-11-30T21:34:55Z</time>
      </trkpt>
    </trkseg>
  </trk>
  <trk>
    <name><![CDATA[lundi 2015 11 23]]></name>
    <extensions>
      <line xmlns="http://www.topografix.com/GPX/gpx_style/0/2">
        <color>000000</color>
      </line>
    </extensions>
    <trkseg>
      <trkpt lat="48.85741" lon="2.34723">
        <ele>40.400001525879</ele>
        <time>2015-11-23T19:21:07Z</time>
      </trkpt>
      <trkpt lat="48.85738" lon="2.34696">
        <ele>39.79999923706</ele>
        <time>2015-11-23T19:21:38Z</time>
      </trkpt>
      <trkpt lat="48.85719" lon="2.34691">
        <ele>40.599998474121</ele>
        <time>2015-11-23T19:21:58Z</time>
      </trkpt>
      <trkpt lat="48.85701" lon="2.34683">
        <ele>40.79999923706</ele>
        <time>2015-11-23T19:22:04Z</time>
      </trkpt>
      <trkpt lat="48.85683" lon="2.34671">
        <ele>41.599998474121</ele>
        <time>2015-11-23T19:22:10Z</time>
      </trkpt>
      <trkpt lat="48.85665" lon="2.34661">
        <ele>43</ele>
        <time>2015-11-23T19:22:16Z</time>
      </trkpt>
      <trkpt lat="48.85646" lon="2.3465">
        <ele>44.599998474121</ele>
        <time>2015-11-23T19:22:22Z</time>
      </trkpt>
      <trkpt lat="48.85627" lon="2.34639">
        <ele>46.20000076294</ele>
        <time>2015-11-23T19:22:28Z</time>
      </trkpt>
      <trkpt lat="48.85606" lon="2.34634">
        <ele>48</ele>
        <time>2015-11-23T19:22:34Z</time>
      </trkpt>
      <trkpt lat="48.85589" lon="2.34623">
        <ele>47.79999923706</ele>
        <time>2015-11-23T19:22:39Z</time>
      </trkpt>
      <trkpt lat="48.8557" lon="2.34613">
        <ele>47.599998474121</ele>
        <time>2015-11-23T19:22:43Z</time>
      </trkpt>
      <trkpt lat="48.85552" lon="2.34603">
        <ele>47.400001525879</ele>
        <time>2015-11-23T19:22:47Z</time>
      </trkpt>
      <trkpt lat="48.85534" lon="2.34589">
        <ele>47.20000076294</ele>
        <time>2015-11-23T19:22:51Z</time>
      </trkpt>
      <trkpt lat="48.85515" lon="2.34575">
        <ele>46.400001525879</ele>
        <time>2015-11-23T19:22:56Z</time>
      </trkpt>
      <trkpt lat="48.85495" lon="2.34562">
        <ele>45</ele>
        <time>2015-11-23T19:23:01Z</time>
      </trkpt>
      <trkpt lat="48.85477" lon="2.34546">
        <ele>43.79999923706</ele>
        <time>2015-11-23T19:23:06Z</time>
      </trkpt>
      <trkpt lat="48.85458" lon="2.34529">
        <ele>42.400001525879</ele>
        <time>2015-11-23T19:23:11Z</time>
      </trkpt>
      <trkpt lat="48.8544" lon="2.34514">
        <ele>41</ele>
        <time>2015-11-23T19:23:16Z</time>
      </trkpt>
      <trkpt lat="48.85436" lon="2.34512">
        <ele>41.20000076294</ele>
        <time>2015-11-23T19:23:17Z</time>
      </trkpt>
      <trkpt lat="48.85423" lon="2.34485">
        <ele>41.599998474121</ele>
        <time>2015-11-23T19:23:23Z</time>
      </trkpt>
      <trkpt lat="48.8542" lon="2.34481">
        <ele>41.599998474121</ele>
        <time>2015-11-23T19:23:24Z</time>
      </trkpt>
      <trkpt lat="48.85406" lon="2.34458">
        <ele>42</ele>
        <time>2015-11-23T19:23:30Z</time>
      </trkpt>
      <trkpt lat="48.85392" lon="2.34439">
        <ele>42.20000076294</ele>
        <time>2015-11-23T19:23:37Z</time>
      </trkpt>
      <trkpt lat="48.85383" lon="2.3443">
        <ele>42.599998474121</ele>
        <time>2015-11-23T19:23:47Z</time>
      </trkpt>
      <trkpt lat="48.85375" lon="2.34414">
        <ele>42.599998474121</ele>
        <time>2015-11-23T19:24:19Z</time>
      </trkpt>
      <trkpt lat="48.85362" lon="2.34395">
        <ele>44.20000076294</ele>
        <time>2015-11-23T19:24:24Z</time>
      </trkpt>
      <trkpt lat="48.85348" lon="2.34377">
        <ele>45.599998474121</ele>
        <time>2015-11-23T19:24:28Z</time>
      </trkpt>
      <trkpt lat="48.85335" lon="2.34355">
        <ele>46.599998474121</ele>
        <time>2015-11-23T19:24:32Z</time>
      </trkpt>
      <trkpt lat="48.85323" lon="2.34331">
        <ele>47.79999923706</ele>
        <time>2015-11-23T19:24:37Z</time>
      </trkpt>
      <trkpt lat="48.85323" lon="2.34301">
        <ele>48.20000076294</ele>
        <time>2015-11-23T19:24:44Z</time>
      </trkpt>
      <trkpt lat="48.85325" lon="2.34273">
        <ele>48.20000076294</ele>
        <time>2015-11-23T19:24:50Z</time>
      </trkpt>
      <trkpt lat="48.85329" lon="2.34241">
        <ele>47.599998474121</ele>
        <time>2015-11-23T19:24:55Z</time>
      </trkpt>
      <trkpt lat="48.85331" lon="2.34213">
        <ele>46</ele>
        <time>2015-11-23T19:24:59Z</time>
      </trkpt>
      <trkpt lat="48.85331" lon="2.34186">
        <ele>44.599998474121</ele>
        <time>2015-11-23T19:25:03Z</time>
      </trkpt>
      <trkpt lat="48.85337" lon="2.34155">
        <ele>43.400001525879</ele>
        <time>2015-11-23T19:25:09Z</time>
      </trkpt>
      <trkpt lat="48.85333" lon="2.34141">
        <ele>43.20000076294</ele>
        <time>2015-11-23T19:25:14Z</time>
      </trkpt>
      <trkpt lat="48.85331" lon="2.34111">
        <ele>43.599998474121</ele>
        <time>2015-11-23T19:25:21Z</time>
      </trkpt>
      <trkpt lat="48.85317" lon="2.34099">
        <ele>43.79999923706</ele>
        <time>2015-11-23T19:25:25Z</time>
      </trkpt>
      <trkpt lat="48.85299" lon="2.34085">
        <ele>44</ele>
        <time>2015-11-23T19:25:30Z</time>
      </trkpt>
      <trkpt lat="48.85281" lon="2.34074">
        <ele>44</ele>
        <time>2015-11-23T19:25:36Z</time>
      </trkpt>
      <trkpt lat="48.85262" lon="2.34064">
        <ele>44.400001525879</ele>
        <time>2015-11-23T19:25:41Z</time>
      </trkpt>
      <trkpt lat="48.85242" lon="2.34061">
        <ele>44.79999923706</ele>
        <time>2015-11-23T19:25:46Z</time>
      </trkpt>
      <trkpt lat="48.85236" lon="2.34058">
        <ele>45</ele>
        <time>2015-11-23T19:25:48Z</time>
      </trkpt>
      <trkpt lat="48.85221" lon="2.34057">
        <ele>45.20000076294</ele>
        <time>2015-11-23T19:25:56Z</time>
      </trkpt>
      <trkpt lat="48.85217" lon="2.34048">
        <ele>45.400001525879</ele>
        <time>2015-11-23T19:26:01Z</time>
      </trkpt>
      <trkpt lat="48.85216" lon="2.34045">
        <ele>45.599998474121</ele>
        <time>2015-11-23T19:26:02Z</time>
      </trkpt>
      <trkpt lat="48.85216" lon="2.34043">
        <ele>45.599998474121</ele>
        <time>2015-11-23T19:26:06Z</time>
      </trkpt>
      <trkpt lat="48.85211" lon="2.34018">
        <ele>46.20000076294</ele>
        <time>2015-11-23T19:26:51Z</time>
      </trkpt>
      <trkpt lat="48.85199" lon="2.33995">
        <ele>46.79999923706</ele>
        <time>2015-11-23T19:26:57Z</time>
      </trkpt>
      <trkpt lat="48.85182" lon="2.33982">
        <ele>48</ele>
        <time>2015-11-23T19:27:02Z</time>
      </trkpt>
      <trkpt lat="48.85165" lon="2.33987">
        <ele>48</ele>
        <time>2015-11-23T19:27:07Z</time>
      </trkpt>
      <trkpt lat="48.85149" lon="2.34008">
        <ele>47.20000076294</ele>
        <time>2015-11-23T19:27:14Z</time>
      </trkpt>
      <trkpt lat="48.85145" lon="2.3401">
        <ele>47.20000076294</ele>
        <time>2015-11-23T19:27:15Z</time>
      </trkpt>
      <trkpt lat="48.85128" lon="2.33998">
        <ele>47.79999923706</ele>
        <time>2015-11-23T19:27:20Z</time>
      </trkpt>
      <trkpt lat="48.85114" lon="2.3398">
        <ele>49.20000076294</ele>
        <time>2015-11-23T19:27:25Z</time>
      </trkpt>
      <trkpt lat="48.85105" lon="2.33971">
        <ele>50</ele>
        <time>2015-11-23T19:27:31Z</time>
      </trkpt>
      <trkpt lat="48.85096" lon="2.33954">
        <ele>51.400001525879</ele>
        <time>2015-11-23T19:27:49Z</time>
      </trkpt>
      <trkpt lat="48.85075" lon="2.33951">
        <ele>52.400001525879</ele>
        <time>2015-11-23T19:28:01Z</time>
      </trkpt>
      <trkpt lat="48.85056" lon="2.33941">
        <ele>53.79999923706</ele>
        <time>2015-11-23T19:28:06Z</time>
      </trkpt>
      <trkpt lat="48.85036" lon="2.33933">
        <ele>55.20000076294</ele>
        <time>2015-11-23T19:28:11Z</time>
      </trkpt>
      <trkpt lat="48.85015" lon="2.33929">
        <ele>56.20000076294</ele>
        <time>2015-11-23T19:28:16Z</time>
      </trkpt>
      <trkpt lat="48.84998" lon="2.33918">
        <ele>56.599998474121</ele>
        <time>2015-11-23T19:28:23Z</time>
      </trkpt>
      <trkpt lat="48.84993" lon="2.33908">
        <ele>56.20000076294</ele>
        <time>2015-11-23T19:28:27Z</time>
      </trkpt>
      <trkpt lat="48.84997" lon="2.33881">
        <ele>54.400001525879</ele>
        <time>2015-11-23T19:28:37Z</time>
      </trkpt>
      <trkpt lat="48.8499" lon="2.33856">
        <ele>53.20000076294</ele>
        <time>2015-11-23T19:28:43Z</time>
      </trkpt>
      <trkpt lat="48.84981" lon="2.33844">
        <ele>52.400001525879</ele>
        <time>2015-11-23T19:28:47Z</time>
      </trkpt>
      <trkpt lat="48.84977" lon="2.33835">
        <ele>51.79999923706</ele>
        <time>2015-11-23T19:28:50Z</time>
      </trkpt>
      <trkpt lat="48.84982" lon="2.33807">
        <ele>53</ele>
        <time>2015-11-23T19:28:56Z</time>
      </trkpt>
      <trkpt lat="48.8498" lon="2.33801">
        <ele>53</ele>
        <time>2015-11-23T19:28:58Z</time>
      </trkpt>
      <trkpt lat="48.84961" lon="2.33794">
        <ele>52</ele>
        <time>2015-11-23T19:29:03Z</time>
      </trkpt>
      <trkpt lat="48.84942" lon="2.33791">
        <ele>50.599998474121</ele>
        <time>2015-11-23T19:29:08Z</time>
      </trkpt>
      <trkpt lat="48.8493" lon="2.33784">
        <ele>51.20000076294</ele>
        <time>2015-11-23T19:29:13Z</time>
      </trkpt>
      <trkpt lat="48.84928" lon="2.33752">
        <ele>52.400001525879</ele>
        <time>2015-11-23T19:29:19Z</time>
      </trkpt>
      <trkpt lat="48.84927" lon="2.33721">
        <ele>52.20000076294</ele>
        <time>2015-11-23T19:29:24Z</time>
      </trkpt>
      <trkpt lat="48.84927" lon="2.33693">
        <ele>52.20000076294</ele>
        <time>2015-11-23T19:29:28Z</time>
      </trkpt>
      <trkpt lat="48.8493" lon="2.33662">
        <ele>52</ele>
        <time>2015-11-23T19:29:33Z</time>
      </trkpt>
      <trkpt lat="48.84929" lon="2.33633">
        <ele>51.599998474121</ele>
        <time>2015-11-23T19:29:37Z</time>
      </trkpt>
      <trkpt lat="48.84929" lon="2.33603">
        <ele>51.20000076294</ele>
        <time>2015-11-23T19:29:41Z</time>
      </trkpt>
      <trkpt lat="48.84926" lon="2.33582">
        <ele>51</ele>
        <time>2015-11-23T19:29:44Z</time>
      </trkpt>
      <trkpt lat="48.84924" lon="2.33563">
        <ele>50.599998474121</ele>
        <time>2015-11-23T19:29:47Z</time>
      </trkpt>
      <trkpt lat="48.84918" lon="2.33535">
        <ele>49</ele>
        <time>2015-11-23T19:29:51Z</time>
      </trkpt>
      <trkpt lat="48.84915" lon="2.33519">
        <ele>48.20000076294</ele>
        <time>2015-11-23T19:29:53Z</time>
      </trkpt>
      <trkpt lat="48.84908" lon="2.33486">
        <ele>46.79999923706</ele>
        <time>2015-11-23T19:29:57Z</time>
      </trkpt>
      <trkpt lat="48.84902" lon="2.33459">
        <ele>46.400001525879</ele>
        <time>2015-11-23T19:30:01Z</time>
      </trkpt>
      <trkpt lat="48.849" lon="2.33447">
        <ele>46.79999923706</ele>
        <time>2015-11-23T19:30:03Z</time>
      </trkpt>
      <trkpt lat="48.84895" lon="2.33419">
        <ele>47.79999923706</ele>
        <time>2015-11-23T19:30:07Z</time>
      </trkpt>
      <trkpt lat="48.84894" lon="2.33412">
        <ele>48</ele>
        <time>2015-11-23T19:30:08Z</time>
      </trkpt>
      <trkpt lat="48.84888" lon="2.3339">
        <ele>49</ele>
        <time>2015-11-23T19:30:11Z</time>
      </trkpt>
      <trkpt lat="48.84881" lon="2.33363">
        <ele>50</ele>
        <time>2015-11-23T19:30:15Z</time>
      </trkpt>
      <trkpt lat="48.84873" lon="2.33336">
        <ele>51</ele>
        <time>2015-11-23T19:30:20Z</time>
      </trkpt>
      <trkpt lat="48.84867" lon="2.3331">
        <ele>51.400001525879</ele>
        <time>2015-11-23T19:30:25Z</time>
      </trkpt>
      <trkpt lat="48.84864" lon="2.333">
        <ele>51.400001525879</ele>
        <time>2015-11-23T19:30:27Z</time>
      </trkpt>
      <trkpt lat="48.84857" lon="2.33284">
        <ele>51.599998474121</ele>
        <time>2015-11-23T19:30:31Z</time>
      </trkpt>
      <trkpt lat="48.84852" lon="2.33276">
        <ele>51.599998474121</ele>
        <time>2015-11-23T19:30:33Z</time>
      </trkpt>
      <trkpt lat="48.84838" lon="2.33267">
        <ele>51.599998474121</ele>
        <time>2015-11-23T19:30:37Z</time>
      </trkpt>
      <trkpt lat="48.84834" lon="2.33266">
        <ele>51.599998474121</ele>
        <time>2015-11-23T19:30:38Z</time>
      </trkpt>
      <trkpt lat="48.84813" lon="2.33263">
        <ele>51.20000076294</ele>
        <time>2015-11-23T19:30:43Z</time>
      </trkpt>
      <trkpt lat="48.84805" lon="2.33261">
        <ele>51.20000076294</ele>
        <time>2015-11-23T19:30:45Z</time>
      </trkpt>
      <trkpt lat="48.84783" lon="2.33255">
        <ele>51</ele>
        <time>2015-11-23T19:30:50Z</time>
      </trkpt>
      <trkpt lat="48.84764" lon="2.33255">
        <ele>51.20000076294</ele>
        <time>2015-11-23T19:30:54Z</time>
      </trkpt>
      <trkpt lat="48.84746" lon="2.33253">
        <ele>51.79999923706</ele>
        <time>2015-11-23T19:30:58Z</time>
      </trkpt>
      <trkpt lat="48.84727" lon="2.33252">
        <ele>52.599998474121</ele>
        <time>2015-11-23T19:31:02Z</time>
      </trkpt>
      <trkpt lat="48.84722" lon="2.33252">
        <ele>52.599998474121</ele>
        <time>2015-11-23T19:31:03Z</time>
      </trkpt>
      <trkpt lat="48.8471" lon="2.33251">
        <ele>53.20000076294</ele>
        <time>2015-11-23T19:31:06Z</time>
      </trkpt>
      <trkpt lat="48.84701" lon="2.33251">
        <ele>53.400001525879</ele>
        <time>2015-11-23T19:31:08Z</time>
      </trkpt>
      <trkpt lat="48.84689" lon="2.33247">
        <ele>54</ele>
        <time>2015-11-23T19:31:11Z</time>
      </trkpt>
      <trkpt lat="48.84674" lon="2.33246">
        <ele>54</ele>
        <time>2015-11-23T19:31:15Z</time>
      </trkpt>
      <trkpt lat="48.84656" lon="2.33245">
        <ele>54</ele>
        <time>2015-11-23T19:31:19Z</time>
      </trkpt>
      <trkpt lat="48.84641" lon="2.33245">
        <ele>54</ele>
        <time>2015-11-23T19:31:22Z</time>
      </trkpt>
      <trkpt lat="48.84623" lon="2.33244">
        <ele>54</ele>
        <time>2015-11-23T19:31:26Z</time>
      </trkpt>
      <trkpt lat="48.84613" lon="2.33244">
        <ele>54</ele>
        <time>2015-11-23T19:31:28Z</time>
      </trkpt>
      <trkpt lat="48.84594" lon="2.33242">
        <ele>53.79999923706</ele>
        <time>2015-11-23T19:31:32Z</time>
      </trkpt>
      <trkpt lat="48.84576" lon="2.33241">
        <ele>53.20000076294</ele>
        <time>2015-11-23T19:31:36Z</time>
      </trkpt>
      <trkpt lat="48.84554" lon="2.33238">
        <ele>52.79999923706</ele>
        <time>2015-11-23T19:31:41Z</time>
      </trkpt>
      <trkpt lat="48.84543" lon="2.33238">
        <ele>52.20000076294</ele>
        <time>2015-11-23T19:31:44Z</time>
      </trkpt>
      <trkpt lat="48.84529" lon="2.33238">
        <ele>51.79999923706</ele>
        <time>2015-11-23T19:31:48Z</time>
      </trkpt>
      <trkpt lat="48.84516" lon="2.33236">
        <ele>51.599998474121</ele>
        <time>2015-11-23T19:31:52Z</time>
      </trkpt>
      <trkpt lat="48.84497" lon="2.33232">
        <ele>52.400001525879</ele>
        <time>2015-11-23T19:31:59Z</time>
      </trkpt>
      <trkpt lat="48.84495" lon="2.33232">
        <ele>52.400001525879</ele>
        <time>2015-11-23T19:32:00Z</time>
      </trkpt>
      <trkpt lat="48.84476" lon="2.33227">
        <ele>53.400001525879</ele>
        <time>2015-11-23T19:32:11Z</time>
      </trkpt>
      <trkpt lat="48.84466" lon="2.33201">
        <ele>54.20000076294</ele>
        <time>2015-11-23T19:32:20Z</time>
      </trkpt>
      <trkpt lat="48.8445" lon="2.33187">
        <ele>55.20000076294</ele>
        <time>2015-11-23T19:32:25Z</time>
      </trkpt>
      <trkpt lat="48.84437" lon="2.33168">
        <ele>56</ele>
        <time>2015-11-23T19:32:30Z</time>
      </trkpt>
      <trkpt lat="48.84424" lon="2.33142">
        <ele>56.400001525879</ele>
        <time>2015-11-23T19:32:36Z</time>
      </trkpt>
      <trkpt lat="48.84412" lon="2.33115">
        <ele>56.79999923706</ele>
        <time>2015-11-23T19:32:42Z</time>
      </trkpt>
      <trkpt lat="48.84402" lon="2.33087">
        <ele>57.400001525879</ele>
        <time>2015-11-23T19:32:46Z</time>
      </trkpt>
      <trkpt lat="48.84389" lon="2.33066">
        <ele>57.79999923706</ele>
        <time>2015-11-23T19:32:53Z</time>
      </trkpt>
      <trkpt lat="48.84373" lon="2.33052">
        <ele>57.79999923706</ele>
        <time>2015-11-23T19:33:00Z</time>
      </trkpt>
      <trkpt lat="48.84355" lon="2.33038">
        <ele>58</ele>
        <time>2015-11-23T19:33:06Z</time>
      </trkpt>
      <trkpt lat="48.84339" lon="2.3302">
        <ele>58.599998474121</ele>
        <time>2015-11-23T19:33:11Z</time>
      </trkpt>
      <trkpt lat="48.84324" lon="2.32997">
        <ele>59.400001525879</ele>
        <time>2015-11-23T19:33:16Z</time>
      </trkpt>
      <trkpt lat="48.84313" lon="2.32974">
        <ele>59.599998474121</ele>
        <time>2015-11-23T19:33:21Z</time>
      </trkpt>
      <trkpt lat="48.84314" lon="2.3295">
        <ele>59.599998474121</ele>
        <time>2015-11-23T19:33:27Z</time>
      </trkpt>
      <trkpt lat="48.84306" lon="2.32925">
        <ele>59.79999923706</ele>
        <time>2015-11-23T19:34:03Z</time>
      </trkpt>
      <trkpt lat="48.84299" lon="2.32919">
        <ele>60</ele>
        <time>2015-11-23T19:34:12Z</time>
      </trkpt>
      <trkpt lat="48.84289" lon="2.32921">
        <ele>60</ele>
        <time>2015-11-23T19:34:16Z</time>
      </trkpt>
      <trkpt lat="48.84271" lon="2.3293">
        <ele>60</ele>
        <time>2015-11-23T19:34:21Z</time>
      </trkpt>
      <trkpt lat="48.84252" lon="2.32937">
        <ele>60.20000076294</ele>
        <time>2015-11-23T19:34:28Z</time>
      </trkpt>
      <trkpt lat="48.84247" lon="2.32939">
        <ele>60.400001525879</ele>
        <time>2015-11-23T19:34:30Z</time>
      </trkpt>
      <trkpt lat="48.84229" lon="2.32944">
        <ele>60.599998474121</ele>
        <time>2015-11-23T19:34:36Z</time>
      </trkpt>
      <trkpt lat="48.84227" lon="2.32943">
        <ele>60.599998474121</ele>
        <time>2015-11-23T19:34:37Z</time>
      </trkpt>
      <trkpt lat="48.84209" lon="2.32935">
        <ele>60.79999923706</ele>
        <time>2015-11-23T19:34:46Z</time>
      </trkpt>
      <trkpt lat="48.84191" lon="2.32932">
        <ele>61</ele>
        <time>2015-11-23T19:34:52Z</time>
      </trkpt>
      <trkpt lat="48.84185" lon="2.32924">
        <ele>61</ele>
        <time>2015-11-23T19:34:55Z</time>
      </trkpt>
      <trkpt lat="48.84181" lon="2.32895">
        <ele>61</ele>
        <time>2015-11-23T19:35:03Z</time>
      </trkpt>
      <trkpt lat="48.84179" lon="2.32866">
        <ele>61.400001525879</ele>
        <time>2015-11-23T19:35:12Z</time>
      </trkpt>
      <trkpt lat="48.84175" lon="2.32837">
        <ele>61.599998474121</ele>
        <time>2015-11-23T19:35:20Z</time>
      </trkpt>
      <trkpt lat="48.8417" lon="2.3281">
        <ele>62.400001525879</ele>
        <time>2015-11-23T19:35:25Z</time>
      </trkpt>
      <trkpt lat="48.84167" lon="2.32783">
        <ele>62.599998474121</ele>
        <time>2015-11-23T19:35:31Z</time>
      </trkpt>
      <trkpt lat="48.84162" lon="2.32752">
        <ele>62.599998474121</ele>
        <time>2015-11-23T19:35:38Z</time>
      </trkpt>
      <trkpt lat="48.84147" lon="2.32735">
        <ele>62.599998474121</ele>
        <time>2015-11-23T19:35:46Z</time>
      </trkpt>
      <trkpt lat="48.84129" lon="2.32738">
        <ele>63.20000076294</ele>
        <time>2015-11-23T19:35:53Z</time>
      </trkpt>
      <trkpt lat="48.84109" lon="2.32746">
        <ele>63.79999923706</ele>
        <time>2015-11-23T19:36:02Z</time>
      </trkpt>
      <trkpt lat="48.8409" lon="2.32747">
        <ele>63.20000076294</ele>
        <time>2015-11-23T19:36:07Z</time>
      </trkpt>
      <trkpt lat="48.84067" lon="2.32744">
        <ele>62.20000076294</ele>
        <time>2015-11-23T19:36:10Z</time>
      </trkpt>
      <trkpt lat="48.84059" lon="2.32744">
        <ele>61.79999923706</ele>
        <time>2015-11-23T19:36:12Z</time>
      </trkpt>
      <trkpt lat="48.84057" lon="2.32732">
        <ele>61.599998474121</ele>
        <time>2015-11-23T19:36:16Z</time>
      </trkpt>
      <trkpt lat="48.84062" lon="2.327">
        <ele>61.79999923706</ele>
        <time>2015-11-23T19:36:22Z</time>
      </trkpt>
      <trkpt lat="48.84072" lon="2.3267">
        <ele>61.400001525879</ele>
        <time>2015-11-23T19:36:27Z</time>
      </trkpt>
      <trkpt lat="48.84081" lon="2.32639">
        <ele>60.79999923706</ele>
        <time>2015-11-23T19:36:32Z</time>
      </trkpt>
      <trkpt lat="48.84088" lon="2.32613">
        <ele>60.400001525879</ele>
        <time>2015-11-23T19:36:36Z</time>
      </trkpt>
      <trkpt lat="48.84096" lon="2.32587">
        <ele>60</ele>
        <time>2015-11-23T19:36:40Z</time>
      </trkpt>
      <trkpt lat="48.84104" lon="2.32558">
        <ele>60.400001525879</ele>
        <time>2015-11-23T19:36:44Z</time>
      </trkpt>
      <trkpt lat="48.84113" lon="2.32529">
        <ele>61.599998474121</ele>
        <time>2015-11-23T19:36:48Z</time>
      </trkpt>
      <trkpt lat="48.84121" lon="2.325">
        <ele>62.20000076294</ele>
        <time>2015-11-23T19:36:53Z</time>
      </trkpt>
      <trkpt lat="48.84129" lon="2.32476">
        <ele>61.79999923706</ele>
        <time>2015-11-23T19:37:02Z</time>
      </trkpt>
      <trkpt lat="48.84121" lon="2.32474">
        <ele>61.599998474121</ele>
        <time>2015-11-23T19:37:06Z</time>
      </trkpt>
      <trkpt lat="48.84113" lon="2.32465">
        <ele>61.400001525879</ele>
        <time>2015-11-23T19:37:12Z</time>
      </trkpt>
      <trkpt lat="48.84095" lon="2.32461">
        <ele>61.20000076294</ele>
        <time>2015-11-23T19:37:26Z</time>
      </trkpt>
      <trkpt lat="48.84078" lon="2.32448">
        <ele>61.20000076294</ele>
        <time>2015-11-23T19:37:33Z</time>
      </trkpt>
      <trkpt lat="48.8406" lon="2.32437">
        <ele>61</ele>
        <time>2015-11-23T19:37:39Z</time>
      </trkpt>
      <trkpt lat="48.84041" lon="2.32422">
        <ele>61</ele>
        <time>2015-11-23T19:37:45Z</time>
      </trkpt>
      <trkpt lat="48.84024" lon="2.3241">
        <ele>61.20000076294</ele>
        <time>2015-11-23T19:37:50Z</time>
      </trkpt>
      <trkpt lat="48.84006" lon="2.32398">
        <ele>62.400001525879</ele>
        <time>2015-11-23T19:37:56Z</time>
      </trkpt>
      <trkpt lat="48.83988" lon="2.32385">
        <ele>63.599998474121</ele>
        <time>2015-11-23T19:38:02Z</time>
      </trkpt>
      <trkpt lat="48.83972" lon="2.32371">
        <ele>65</ele>
        <time>2015-11-23T19:38:07Z</time>
      </trkpt>
      <trkpt lat="48.83956" lon="2.32358">
        <ele>66.199996948242</ele>
        <time>2015-11-23T19:38:12Z</time>
      </trkpt>
      <trkpt lat="48.83937" lon="2.32344">
        <ele>67.599998474121</ele>
        <time>2015-11-23T19:38:18Z</time>
      </trkpt>
      <trkpt lat="48.8392" lon="2.32331">
        <ele>68.199996948242</ele>
        <time>2015-11-23T19:38:23Z</time>
      </trkpt>
      <trkpt lat="48.83902" lon="2.32316">
        <ele>68.199996948242</ele>
        <time>2015-11-23T19:38:29Z</time>
      </trkpt>
      <trkpt lat="48.83885" lon="2.323">
        <ele>68</ele>
        <time>2015-11-23T19:38:35Z</time>
      </trkpt>
      <trkpt lat="48.83868" lon="2.32285">
        <ele>67.800003051758</ele>
        <time>2015-11-23T19:38:41Z</time>
      </trkpt>
      <trkpt lat="48.83855" lon="2.32268">
        <ele>67.599998474121</ele>
        <time>2015-11-23T19:38:50Z</time>
      </trkpt>
      <trkpt lat="48.83868" lon="2.32248">
        <ele>67.599998474121</ele>
        <time>2015-11-23T19:39:04Z</time>
      </trkpt>
      <trkpt lat="48.83889" lon="2.32239">
        <ele>69.199996948242</ele>
        <time>2015-11-23T19:39:10Z</time>
      </trkpt>
      <trkpt lat="48.83908" lon="2.32229">
        <ele>70.800003051758</ele>
        <time>2015-11-23T19:39:15Z</time>
      </trkpt>
      <trkpt lat="48.83913" lon="2.32227">
        <ele>71.199996948242</ele>
        <time>2015-11-23T19:39:16Z</time>
      </trkpt>
      <trkpt lat="48.83935" lon="2.3222">
        <ele>70.800003051758</ele>
        <time>2015-11-23T19:39:20Z</time>
      </trkpt>
      <trkpt lat="48.83952" lon="2.32209">
        <ele>69.599998474121</ele>
        <time>2015-11-23T19:39:24Z</time>
      </trkpt>
      <trkpt lat="48.8397" lon="2.32203">
        <ele>68.199996948242</ele>
        <time>2015-11-23T19:39:27Z</time>
      </trkpt>
      <trkpt lat="48.83988" lon="2.32195">
        <ele>66.599998474121</ele>
        <time>2015-11-23T19:39:33Z</time>
      </trkpt>
      <trkpt lat="48.83998" lon="2.32167">
        <ele>65.199996948242</ele>
        <time>2015-11-23T19:39:39Z</time>
      </trkpt>
      <trkpt lat="48.83985" lon="2.32146">
        <ele>65.400001525879</ele>
        <time>2015-11-23T19:39:49Z</time>
      </trkpt>
      <trkpt lat="48.83983" lon="2.32144">
        <ele>65.599998474121</ele>
        <time>2015-11-23T19:39:50Z</time>
      </trkpt>
      <trkpt lat="48.83967" lon="2.3213">
        <ele>66.400001525879</ele>
        <time>2015-11-23T19:39:57Z</time>
      </trkpt>
      <trkpt lat="48.83949" lon="2.32113">
        <ele>67.400001525879</ele>
        <time>2015-11-23T19:40:04Z</time>
      </trkpt>
      <trkpt lat="48.83936" lon="2.3209">
        <ele>67.800003051758</ele>
        <time>2015-11-23T19:40:11Z</time>
      </trkpt>
      <trkpt lat="48.83918" lon="2.32077">
        <ele>70.800003051758</ele>
        <time>2015-11-23T19:40:17Z</time>
      </trkpt>
      <trkpt lat="48.83894" lon="2.32069">
        <ele>74.800003051758</ele>
        <time>2015-11-23T19:40:21Z</time>
      </trkpt>
      <trkpt lat="48.83877" lon="2.32054">
        <ele>76.400001525879</ele>
        <time>2015-11-23T19:40:25Z</time>
      </trkpt>
      <trkpt lat="48.83859" lon="2.32034">
        <ele>77.800003051758</ele>
        <time>2015-11-23T19:40:30Z</time>
      </trkpt>
      <trkpt lat="48.83838" lon="2.32027">
        <ele>77.800003051758</ele>
        <time>2015-11-23T19:40:36Z</time>
      </trkpt>
      <trkpt lat="48.8382" lon="2.32024">
        <ele>77.599998474121</ele>
        <time>2015-11-23T19:40:42Z</time>
      </trkpt>
      <trkpt lat="48.83813" lon="2.32023">
        <ele>77.599998474121</ele>
        <time>2015-11-23T19:40:45Z</time>
      </trkpt>
      <trkpt lat="48.83797" lon="2.32007">
        <ele>76</ele>
        <time>2015-11-23T19:40:50Z</time>
      </trkpt>
      <trkpt lat="48.83795" lon="2.32006">
        <ele>75.800003051758</ele>
        <time>2015-11-23T19:40:51Z</time>
      </trkpt>
      <trkpt lat="48.8378" lon="2.3198">
        <ele>75.400001525879</ele>
        <time>2015-11-23T19:40:57Z</time>
      </trkpt>
      <trkpt lat="48.83765" lon="2.31962">
        <ele>75.400001525879</ele>
        <time>2015-11-23T19:41:02Z</time>
      </trkpt>
      <trkpt lat="48.83753" lon="2.31939">
        <ele>75.400001525879</ele>
        <time>2015-11-23T19:41:07Z</time>
      </trkpt>
      <trkpt lat="48.83744" lon="2.31912">
        <ele>75.400001525879</ele>
        <time>2015-11-23T19:41:12Z</time>
      </trkpt>
      <trkpt lat="48.83736" lon="2.31883">
        <ele>72.800003051758</ele>
        <time>2015-11-23T19:41:20Z</time>
      </trkpt>
      <trkpt lat="48.83743" lon="2.31855">
        <ele>71.800003051758</ele>
        <time>2015-11-23T19:41:27Z</time>
      </trkpt>
      <trkpt lat="48.83747" lon="2.31826">
        <ele>70.800003051758</ele>
        <time>2015-11-23T19:41:34Z</time>
      </trkpt>
      <trkpt lat="48.83758" lon="2.31799">
        <ele>71.199996948242</ele>
        <time>2015-11-23T19:41:39Z</time>
      </trkpt>
      <trkpt lat="48.83771" lon="2.31781">
        <ele>71.800003051758</ele>
        <time>2015-11-23T19:41:44Z</time>
      </trkpt>
      <trkpt lat="48.83784" lon="2.31759">
        <ele>72</ele>
        <time>2015-11-23T19:41:51Z</time>
      </trkpt>
      <trkpt lat="48.83801" lon="2.31745">
        <ele>71.199996948242</ele>
        <time>2015-11-23T19:41:59Z</time>
      </trkpt>
      <trkpt lat="48.8382" lon="2.31735">
        <ele>70.800003051758</ele>
        <time>2015-11-23T19:42:05Z</time>
      </trkpt>
      <trkpt lat="48.83834" lon="2.31717">
        <ele>70.199996948242</ele>
        <time>2015-11-23T19:42:11Z</time>
      </trkpt>
      <trkpt lat="48.83833" lon="2.31702">
        <ele>69.800003051758</ele>
        <time>2015-11-23T19:42:15Z</time>
      </trkpt>
      <trkpt lat="48.83834" lon="2.31699">
        <ele>69.800003051758</ele>
        <time>2015-11-23T19:42:16Z</time>
      </trkpt>
      <trkpt lat="48.83849" lon="2.31678">
        <ele>70</ele>
        <time>2015-11-23T19:42:23Z</time>
      </trkpt>
      <trkpt lat="48.83864" lon="2.31655">
        <ele>70.599998474121</ele>
        <time>2015-11-23T19:42:29Z</time>
      </trkpt>
      <trkpt lat="48.83866" lon="2.31634">
        <ele>70.800003051758</ele>
        <time>2015-11-23T19:42:38Z</time>
      </trkpt>
      <trkpt lat="48.83865" lon="2.31631">
        <ele>70.599998474121</ele>
        <time>2015-11-23T19:42:39Z</time>
      </trkpt>
      <trkpt lat="48.8386" lon="2.31605">
        <ele>70.199996948242</ele>
        <time>2015-11-23T19:42:45Z</time>
      </trkpt>
      <trkpt lat="48.83855" lon="2.31578">
        <ele>69.800003051758</ele>
        <time>2015-11-23T19:42:50Z</time>
      </trkpt>
      <trkpt lat="48.83865" lon="2.31551">
        <ele>69.599998474121</ele>
        <time>2015-11-23T19:42:55Z</time>
      </trkpt>
      <trkpt lat="48.83877" lon="2.31523">
        <ele>69.199996948242</ele>
        <time>2015-11-23T19:43:01Z</time>
      </trkpt>
      <trkpt lat="48.83868" lon="2.31494">
        <ele>66.400001525879</ele>
        <time>2015-11-23T19:43:08Z</time>
      </trkpt>
      <trkpt lat="48.83866" lon="2.31465">
        <ele>65.199996948242</ele>
        <time>2015-11-23T19:43:13Z</time>
      </trkpt>
      <trkpt lat="48.83864" lon="2.31437">
        <ele>64.199996948242</ele>
        <time>2015-11-23T19:43:17Z</time>
      </trkpt>
      <trkpt lat="48.83862" lon="2.31404">
        <ele>63.20000076294</ele>
        <time>2015-11-23T19:43:21Z</time>
      </trkpt>
      <trkpt lat="48.83859" lon="2.31372">
        <ele>63</ele>
        <time>2015-11-23T19:43:25Z</time>
      </trkpt>
      <trkpt lat="48.83859" lon="2.31337">
        <ele>63</ele>
        <time>2015-11-23T19:43:29Z</time>
      </trkpt>
      <trkpt lat="48.83859" lon="2.31304">
        <ele>63.400001525879</ele>
        <time>2015-11-23T19:43:33Z</time>
      </trkpt>
      <trkpt lat="48.83861" lon="2.31271">
        <ele>63.79999923706</ele>
        <time>2015-11-23T19:43:37Z</time>
      </trkpt>
      <trkpt lat="48.83863" lon="2.31238">
        <ele>64</ele>
        <time>2015-11-23T19:43:41Z</time>
      </trkpt>
      <trkpt lat="48.8386" lon="2.31213">
        <ele>64.400001525879</ele>
        <time>2015-11-23T19:43:44Z</time>
      </trkpt>
      <trkpt lat="48.83857" lon="2.31185">
        <ele>64.800003051758</ele>
        <time>2015-11-23T19:43:49Z</time>
      </trkpt>
      <trkpt lat="48.83856" lon="2.31156">
        <ele>64.800003051758</ele>
        <time>2015-11-23T19:43:55Z</time>
      </trkpt>
      <trkpt lat="48.83866" lon="2.31129">
        <ele>63.20000076294</ele>
        <time>2015-11-23T19:44:00Z</time>
      </trkpt>
      <trkpt lat="48.83877" lon="2.31099">
        <ele>61.599998474121</ele>
        <time>2015-11-23T19:44:05Z</time>
      </trkpt>
      <trkpt lat="48.83887" lon="2.31068">
        <ele>59.400001525879</ele>
        <time>2015-11-23T19:44:10Z</time>
      </trkpt>
      <trkpt lat="48.83897" lon="2.31041">
        <ele>58.400001525879</ele>
        <time>2015-11-23T19:44:14Z</time>
      </trkpt>
      <trkpt lat="48.83908" lon="2.31016">
        <ele>57.20000076294</ele>
        <time>2015-11-23T19:44:18Z</time>
      </trkpt>
      <trkpt lat="48.83919" lon="2.30992">
        <ele>55.79999923706</ele>
        <time>2015-11-23T19:44:22Z</time>
      </trkpt>
      <trkpt lat="48.83933" lon="2.3097">
        <ele>56</ele>
        <time>2015-11-23T19:44:27Z</time>
      </trkpt>
      <trkpt lat="48.83938" lon="2.30965">
        <ele>56.400001525879</ele>
        <time>2015-11-23T19:44:29Z</time>
      </trkpt>
      <trkpt lat="48.83942" lon="2.3096">
        <ele>56.599998474121</ele>
        <time>2015-11-23T19:44:31Z</time>
      </trkpt>
      <trkpt lat="48.83955" lon="2.30939">
        <ele>57.599998474121</ele>
        <time>2015-11-23T19:44:39Z</time>
      </trkpt>
      <trkpt lat="48.83958" lon="2.30935">
        <ele>57.79999923706</ele>
        <time>2015-11-23T19:44:40Z</time>
      </trkpt>
      <trkpt lat="48.83973" lon="2.30915">
        <ele>56.400001525879</ele>
        <time>2015-11-23T19:44:45Z</time>
      </trkpt>
      <trkpt lat="48.8398" lon="2.30905">
        <ele>55.599998474121</ele>
        <time>2015-11-23T19:44:47Z</time>
      </trkpt>
      <trkpt lat="48.83998" lon="2.30889">
        <ele>53.599998474121</ele>
        <time>2015-11-23T19:44:51Z</time>
      </trkpt>
      <trkpt lat="48.84012" lon="2.30876">
        <ele>52.79999923706</ele>
        <time>2015-11-23T19:44:54Z</time>
      </trkpt>
      <trkpt lat="48.84032" lon="2.30863">
        <ele>51.79999923706</ele>
        <time>2015-11-23T19:44:58Z</time>
      </trkpt>
      <trkpt lat="48.84051" lon="2.3085">
        <ele>51.20000076294</ele>
        <time>2015-11-23T19:45:02Z</time>
      </trkpt>
      <trkpt lat="48.8407" lon="2.30837">
        <ele>51</ele>
        <time>2015-11-23T19:45:06Z</time>
      </trkpt>
      <trkpt lat="48.8409" lon="2.30822">
        <ele>50.400001525879</ele>
        <time>2015-11-23T19:45:10Z</time>
      </trkpt>
      <trkpt lat="48.84106" lon="2.30803">
        <ele>50.400001525879</ele>
        <time>2015-11-23T19:45:14Z</time>
      </trkpt>
      <trkpt lat="48.8411" lon="2.30799">
        <ele>50.20000076294</ele>
        <time>2015-11-23T19:45:15Z</time>
      </trkpt>
      <trkpt lat="48.84126" lon="2.30783">
        <ele>50</ele>
        <time>2015-11-23T19:45:19Z</time>
      </trkpt>
      <trkpt lat="48.84142" lon="2.30773">
        <ele>50</ele>
        <time>2015-11-23T19:45:23Z</time>
      </trkpt>
      <trkpt lat="48.8415" lon="2.30769">
        <ele>50</ele>
        <time>2015-11-23T19:45:25Z</time>
      </trkpt>
      <trkpt lat="48.84167" lon="2.3076">
        <ele>50</ele>
        <time>2015-11-23T19:45:29Z</time>
      </trkpt>
      <trkpt lat="48.84188" lon="2.30752">
        <ele>49.79999923706</ele>
        <time>2015-11-23T19:45:34Z</time>
      </trkpt>
      <trkpt lat="48.84192" lon="2.30749">
        <ele>50</ele>
        <time>2015-11-23T19:45:35Z</time>
      </trkpt>
      <trkpt lat="48.8421" lon="2.30743">
        <ele>49</ele>
        <time>2015-11-23T19:45:39Z</time>
      </trkpt>
      <trkpt lat="48.84216" lon="2.3074">
        <ele>48.79999923706</ele>
        <time>2015-11-23T19:45:40Z</time>
      </trkpt>
      <trkpt lat="48.84237" lon="2.30731">
        <ele>47.599998474121</ele>
        <time>2015-11-23T19:45:44Z</time>
      </trkpt>
      <trkpt lat="48.84254" lon="2.30719">
        <ele>46.599998474121</ele>
        <time>2015-11-23T19:45:48Z</time>
      </trkpt>
      <trkpt lat="48.84258" lon="2.30716">
        <ele>46.599998474121</ele>
        <time>2015-11-23T19:45:49Z</time>
      </trkpt>
      <trkpt lat="48.84267" lon="2.3071">
        <ele>46.599998474121</ele>
        <time>2015-11-23T19:45:51Z</time>
      </trkpt>
      <trkpt lat="48.84284" lon="2.30692">
        <ele>46.400001525879</ele>
        <time>2015-11-23T19:45:55Z</time>
      </trkpt>
      <trkpt lat="48.84301" lon="2.30683">
        <ele>46.20000076294</ele>
        <time>2015-11-23T19:45:59Z</time>
      </trkpt>
      <trkpt lat="48.84308" lon="2.30677">
        <ele>45.79999923706</ele>
        <time>2015-11-23T19:46:01Z</time>
      </trkpt>
      <trkpt lat="48.84326" lon="2.30662">
        <ele>45.400001525879</ele>
        <time>2015-11-23T19:46:06Z</time>
      </trkpt>
      <trkpt lat="48.84341" lon="2.30646">
        <ele>45.20000076294</ele>
        <time>2015-11-23T19:46:13Z</time>
      </trkpt>
      <trkpt lat="48.84371" lon="2.30656">
        <ele>45</ele>
        <time>2015-11-23T19:46:34Z</time>
      </trkpt>
      <trkpt lat="48.84388" lon="2.30654">
        <ele>44.79999923706</ele>
        <time>2015-11-23T19:46:41Z</time>
      </trkpt>
      <trkpt lat="48.84405" lon="2.30639">
        <ele>44.79999923706</ele>
        <time>2015-11-23T19:46:46Z</time>
      </trkpt>
      <trkpt lat="48.84422" lon="2.30629">
        <ele>44.79999923706</ele>
        <time>2015-11-23T19:46:50Z</time>
      </trkpt>
      <trkpt lat="48.84425" lon="2.30626">
        <ele>44.79999923706</ele>
        <time>2015-11-23T19:46:51Z</time>
      </trkpt>
      <trkpt lat="48.84444" lon="2.30608">
        <ele>44.599998474121</ele>
        <time>2015-11-23T19:46:56Z</time>
      </trkpt>
      <trkpt lat="48.84461" lon="2.30596">
        <ele>43.20000076294</ele>
        <time>2015-11-23T19:46:59Z</time>
      </trkpt>
      <trkpt lat="48.8448" lon="2.30584">
        <ele>43.79999923706</ele>
        <time>2015-11-23T19:47:04Z</time>
      </trkpt>
      <trkpt lat="48.84498" lon="2.30574">
        <ele>43.79999923706</ele>
        <time>2015-11-23T19:47:09Z</time>
      </trkpt>
      <trkpt lat="48.84515" lon="2.30558">
        <ele>42.79999923706</ele>
        <time>2015-11-23T19:47:15Z</time>
      </trkpt>
      <trkpt lat="48.84533" lon="2.30544">
        <ele>41.20000076294</ele>
        <time>2015-11-23T19:47:21Z</time>
      </trkpt>
      <trkpt lat="48.84552" lon="2.30533">
        <ele>40.20000076294</ele>
        <time>2015-11-23T19:47:28Z</time>
      </trkpt>
      <trkpt lat="48.84571" lon="2.30525">
        <ele>41</ele>
        <time>2015-11-23T19:47:36Z</time>
      </trkpt>
      <trkpt lat="48.84588" lon="2.3051">
        <ele>42.599998474121</ele>
        <time>2015-11-23T19:47:42Z</time>
      </trkpt>
      <trkpt lat="48.84591" lon="2.30506">
        <ele>42.79999923706</ele>
        <time>2015-11-23T19:47:44Z</time>
      </trkpt>
      <trkpt lat="48.846" lon="2.30488">
        <ele>44</ele>
        <time>2015-11-23T19:47:55Z</time>
      </trkpt>
      <trkpt lat="48.84618" lon="2.30479">
        <ele>44.400001525879</ele>
        <time>2015-11-23T19:48:01Z</time>
      </trkpt>
      <trkpt lat="48.84634" lon="2.30466">
        <ele>44.79999923706</ele>
        <time>2015-11-23T19:48:08Z</time>
      </trkpt>
      <trkpt lat="48.84653" lon="2.30456">
        <ele>44.79999923706</ele>
        <time>2015-11-23T19:48:15Z</time>
      </trkpt>
      <trkpt lat="48.84671" lon="2.30442">
        <ele>43.599998474121</ele>
        <time>2015-11-23T19:48:23Z</time>
      </trkpt>
      <trkpt lat="48.84689" lon="2.3043">
        <ele>42.400001525879</ele>
        <time>2015-11-23T19:48:31Z</time>
      </trkpt>
      <trkpt lat="48.84691" lon="2.30425">
        <ele>42.400001525879</ele>
        <time>2015-11-23T19:48:33Z</time>
      </trkpt>
      <trkpt lat="48.84703" lon="2.30407">
        <ele>42.599998474121</ele>
        <time>2015-11-23T19:48:46Z</time>
      </trkpt>
      <trkpt lat="48.8471" lon="2.30382">
        <ele>42.79999923706</ele>
        <time>2015-11-23T19:48:58Z</time>
      </trkpt>
      <trkpt lat="48.8471" lon="2.30367">
        <ele>42.79999923706</ele>
        <time>2015-11-23T19:49:12Z</time>
      </trkpt>
      <trkpt lat="48.84713" lon="2.30348">
        <ele>42.599998474121</ele>
        <time>2015-11-23T19:49:19Z</time>
      </trkpt>
      <trkpt lat="48.84723" lon="2.30329">
        <ele>42</ele>
        <time>2015-11-23T19:49:33Z</time>
      </trkpt>
      <trkpt lat="48.84726" lon="2.30329">
        <ele>42</ele>
        <time>2015-11-23T19:49:38Z</time>
      </trkpt>
      <trkpt lat="48.84744" lon="2.30305">
        <ele>41.599998474121</ele>
        <time>2015-11-23T19:49:45Z</time>
      </trkpt>
      <trkpt lat="48.84757" lon="2.30283">
        <ele>41.400001525879</ele>
        <time>2015-11-23T19:49:50Z</time>
      </trkpt>
      <trkpt lat="48.84767" lon="2.30257">
        <ele>41.20000076294</ele>
        <time>2015-11-23T19:49:56Z</time>
      </trkpt>
      <trkpt lat="48.84774" lon="2.30259">
        <ele>41.20000076294</ele>
        <time>2015-11-23T19:50:00Z</time>
      </trkpt>
      <trkpt lat="48.84788" lon="2.30276">
        <ele>41.79999923706</ele>
        <time>2015-11-23T19:50:09Z</time>
      </trkpt>
      <trkpt lat="48.84802" lon="2.30277">
        <ele>42</ele>
        <time>2015-11-23T19:50:14Z</time>
      </trkpt>
      <trkpt lat="48.84812" lon="2.30263">
        <ele>41.79999923706</ele>
        <time>2015-11-23T19:50:19Z</time>
      </trkpt>
      <trkpt lat="48.84826" lon="2.30246">
        <ele>41.599998474121</ele>
        <time>2015-11-23T19:50:25Z</time>
      </trkpt>
      <trkpt lat="48.84841" lon="2.30245">
        <ele>41.79999923706</ele>
        <time>2015-11-23T19:50:29Z</time>
      </trkpt>
      <trkpt lat="48.84856" lon="2.30268">
        <ele>42.599998474121</ele>
        <time>2015-11-23T19:50:34Z</time>
      </trkpt>
      <trkpt lat="48.84873" lon="2.30291">
        <ele>43</ele>
        <time>2015-11-23T19:50:39Z</time>
      </trkpt>
      <trkpt lat="48.84888" lon="2.30314">
        <ele>43.599998474121</ele>
        <time>2015-11-23T19:50:43Z</time>
      </trkpt>
      <trkpt lat="48.84901" lon="2.30334">
        <ele>43.599998474121</ele>
        <time>2015-11-23T19:50:47Z</time>
      </trkpt>
      <trkpt lat="48.84918" lon="2.30356">
        <ele>41.79999923706</ele>
        <time>2015-11-23T19:50:52Z</time>
      </trkpt>
      <trkpt lat="48.84931" lon="2.30359">
        <ele>41.599998474121</ele>
        <time>2015-11-23T19:50:55Z</time>
      </trkpt>
      <trkpt lat="48.84948" lon="2.30341">
        <ele>42.79999923706</ele>
        <time>2015-11-23T19:51:00Z</time>
      </trkpt>
      <trkpt lat="48.84964" lon="2.30321">
        <ele>42.599998474121</ele>
        <time>2015-11-23T19:51:04Z</time>
      </trkpt>
      <trkpt lat="48.84978" lon="2.30301">
        <ele>41.599998474121</ele>
        <time>2015-11-23T19:51:07Z</time>
      </trkpt>
      <trkpt lat="48.84992" lon="2.30279">
        <ele>41.400001525879</ele>
        <time>2015-11-23T19:51:10Z</time>
      </trkpt>
      <trkpt lat="48.85006" lon="2.3026">
        <ele>41.20000076294</ele>
        <time>2015-11-23T19:51:13Z</time>
      </trkpt>
      <trkpt lat="48.85022" lon="2.30238">
        <ele>41.400001525879</ele>
        <time>2015-11-23T19:51:17Z</time>
      </trkpt>
      <trkpt lat="48.85037" lon="2.30218">
        <ele>42.20000076294</ele>
        <time>2015-11-23T19:51:21Z</time>
      </trkpt>
      <trkpt lat="48.85052" lon="2.30197">
        <ele>43</ele>
        <time>2015-11-23T19:51:25Z</time>
      </trkpt>
      <trkpt lat="48.85056" lon="2.30192">
        <ele>43.20000076294</ele>
        <time>2015-11-23T19:51:26Z</time>
      </trkpt>
      <trkpt lat="48.8507" lon="2.30169">
        <ele>44.20000076294</ele>
        <time>2015-11-23T19:51:30Z</time>
      </trkpt>
      <trkpt lat="48.85085" lon="2.30149">
        <ele>45.20000076294</ele>
        <time>2015-11-23T19:51:34Z</time>
      </trkpt>
      <trkpt lat="48.85099" lon="2.30125">
        <ele>44.79999923706</ele>
        <time>2015-11-23T19:51:39Z</time>
      </trkpt>
      <trkpt lat="48.85108" lon="2.30112">
        <ele>44.599998474121</ele>
        <time>2015-11-23T19:51:43Z</time>
      </trkpt>
      <trkpt lat="48.85111" lon="2.30106">
        <ele>44.400001525879</ele>
        <time>2015-11-23T19:51:46Z</time>
      </trkpt>
      <trkpt lat="48.85115" lon="2.301">
        <ele>44.400001525879</ele>
        <time>2015-11-23T19:51:53Z</time>
      </trkpt>
      <trkpt lat="48.85127" lon="2.30076">
        <ele>45.400001525879</ele>
        <time>2015-11-23T19:52:04Z</time>
      </trkpt>
      <trkpt lat="48.85138" lon="2.30054">
        <ele>46.400001525879</ele>
        <time>2015-11-23T19:52:09Z</time>
      </trkpt>
      <trkpt lat="48.8515" lon="2.30032">
        <ele>47.400001525879</ele>
        <time>2015-11-23T19:52:14Z</time>
      </trkpt>
      <trkpt lat="48.85158" lon="2.30017">
        <ele>48.20000076294</ele>
        <time>2015-11-23T19:52:20Z</time>
      </trkpt>
      <trkpt lat="48.85142" lon="2.29992">
        <ele>48.79999923706</ele>
        <time>2015-11-23T19:52:27Z</time>
      </trkpt>
      <trkpt lat="48.85136" lon="2.29982">
        <ele>48.79999923706</ele>
        <time>2015-11-23T19:52:29Z</time>
      </trkpt>
      <trkpt lat="48.85122" lon="2.29954">
        <ele>48.400001525879</ele>
        <time>2015-11-23T19:52:34Z</time>
      </trkpt>
      <trkpt lat="48.85106" lon="2.2994">
        <ele>48</ele>
        <time>2015-11-23T19:52:37Z</time>
      </trkpt>
      <trkpt lat="48.85089" lon="2.2992">
        <ele>47.599998474121</ele>
        <time>2015-11-23T19:52:41Z</time>
      </trkpt>
      <trkpt lat="48.85073" lon="2.29901">
        <ele>47</ele>
        <time>2015-11-23T19:52:46Z</time>
      </trkpt>
      <trkpt lat="48.85059" lon="2.29879">
        <ele>46.400001525879</ele>
        <time>2015-11-23T19:52:52Z</time>
      </trkpt>
      <trkpt lat="48.85055" lon="2.29871">
        <ele>46.20000076294</ele>
        <time>2015-11-23T19:52:54Z</time>
      </trkpt>
      <trkpt lat="48.85049" lon="2.29856">
        <ele>46</ele>
        <time>2015-11-23T19:52:57Z</time>
      </trkpt>
      <trkpt lat="48.85046" lon="2.29828">
        <ele>45.400001525879</ele>
        <time>2015-11-23T19:53:02Z</time>
      </trkpt>
      <trkpt lat="48.85046" lon="2.29807">
        <ele>44.400001525879</ele>
        <time>2015-11-23T19:53:06Z</time>
      </trkpt>
      <trkpt lat="48.85044" lon="2.29777">
        <ele>43</ele>
        <time>2015-11-23T19:53:12Z</time>
      </trkpt>
      <trkpt lat="48.8504" lon="2.29772">
        <ele>42.599998474121</ele>
        <time>2015-11-23T19:53:13Z</time>
      </trkpt>
      <trkpt lat="48.85033" lon="2.29746">
        <ele>40.79999923706</ele>
        <time>2015-11-23T19:53:18Z</time>
      </trkpt>
      <trkpt lat="48.85028" lon="2.29718">
        <ele>41.20000076294</ele>
        <time>2015-11-23T19:53:23Z</time>
      </trkpt>
      <trkpt lat="48.85023" lon="2.29689">
        <ele>41.599998474121</ele>
        <time>2015-11-23T19:53:28Z</time>
      </trkpt>
      <trkpt lat="48.85016" lon="2.29662">
        <ele>42.20000076294</ele>
        <time>2015-11-23T19:53:33Z</time>
      </trkpt>
      <trkpt lat="48.85009" lon="2.29648">
        <ele>42</ele>
        <time>2015-11-23T19:53:39Z</time>
      </trkpt>
      <trkpt lat="48.85013" lon="2.29653">
        <ele>42</ele>
        <time>2015-11-23T19:53:43Z</time>
      </trkpt>
      <trkpt lat="48.85017" lon="2.29652">
        <ele>42</ele>
        <time>2015-11-23T19:53:46Z</time>
      </trkpt>
      <trkpt lat="48.8503" lon="2.29629">
        <ele>41.400001525879</ele>
        <time>2015-11-23T19:53:51Z</time>
      </trkpt>
      <trkpt lat="48.85044" lon="2.29604">
        <ele>40.599998474121</ele>
        <time>2015-11-23T19:53:56Z</time>
      </trkpt>
      <trkpt lat="48.85055" lon="2.29583">
        <ele>41</ele>
        <time>2015-11-23T19:54:01Z</time>
      </trkpt>
      <trkpt lat="48.85068" lon="2.29564">
        <ele>41</ele>
        <time>2015-11-23T19:54:11Z</time>
      </trkpt>
      <trkpt lat="48.85083" lon="2.29546">
        <ele>41</ele>
        <time>2015-11-23T19:54:17Z</time>
      </trkpt>
      <trkpt lat="48.85098" lon="2.29528">
        <ele>41</ele>
        <time>2015-11-23T19:54:22Z</time>
      </trkpt>
      <trkpt lat="48.85099" lon="2.29497">
        <ele>41</ele>
        <time>2015-11-23T19:54:30Z</time>
      </trkpt>
      <trkpt lat="48.85106" lon="2.29472">
        <ele>41.599998474121</ele>
        <time>2015-11-23T19:54:35Z</time>
      </trkpt>
      <trkpt lat="48.85117" lon="2.29448">
        <ele>41.79999923706</ele>
        <time>2015-11-23T19:54:39Z</time>
      </trkpt>
      <trkpt lat="48.85127" lon="2.29419">
        <ele>42.20000076294</ele>
        <time>2015-11-23T19:54:43Z</time>
      </trkpt>
      <trkpt lat="48.85135" lon="2.29389">
        <ele>42</ele>
        <time>2015-11-23T19:54:47Z</time>
      </trkpt>
      <trkpt lat="48.85141" lon="2.29361">
        <ele>41.79999923706</ele>
        <time>2015-11-23T19:54:51Z</time>
      </trkpt>
      <trkpt lat="48.85148" lon="2.29334">
        <ele>42.79999923706</ele>
        <time>2015-11-23T19:54:55Z</time>
      </trkpt>
      <trkpt lat="48.85153" lon="2.29305">
        <ele>42.20000076294</ele>
        <time>2015-11-23T19:55:00Z</time>
      </trkpt>
      <trkpt lat="48.85157" lon="2.29276">
        <ele>41.79999923706</ele>
        <time>2015-11-23T19:55:06Z</time>
      </trkpt>
      <trkpt lat="48.85161" lon="2.29249">
        <ele>41.599998474121</ele>
        <time>2015-11-23T19:55:11Z</time>
      </trkpt>
      <trkpt lat="48.85161" lon="2.29218">
        <ele>41.599998474121</ele>
        <time>2015-11-23T19:55:17Z</time>
      </trkpt>
      <trkpt lat="48.85155" lon="2.29204">
        <ele>41.20000076294</ele>
        <time>2015-11-23T19:55:23Z</time>
      </trkpt>
      <trkpt lat="48.85139" lon="2.29189">
        <ele>40.400001525879</ele>
        <time>2015-11-23T19:55:43Z</time>
      </trkpt>
      <trkpt lat="48.85121" lon="2.29189">
        <ele>39.79999923706</ele>
        <time>2015-11-23T19:55:59Z</time>
      </trkpt>
      <trkpt lat="48.85114" lon="2.29169">
        <ele>39.400001525879</ele>
        <time>2015-11-23T19:56:09Z</time>
      </trkpt>
      <trkpt lat="48.85122" lon="2.29139">
        <ele>39.400001525879</ele>
        <time>2015-11-23T19:56:15Z</time>
      </trkpt>
      <trkpt lat="48.85134" lon="2.29113">
        <ele>39.599998474121</ele>
        <time>2015-11-23T19:56:20Z</time>
      </trkpt>
      <trkpt lat="48.85146" lon="2.29085">
        <ele>38.79999923706</ele>
        <time>2015-11-23T19:56:25Z</time>
      </trkpt>
      <trkpt lat="48.85156" lon="2.2906">
        <ele>37.599998474121</ele>
        <time>2015-11-23T19:56:30Z</time>
      </trkpt>
      <trkpt lat="48.85165" lon="2.29029">
        <ele>37</ele>
        <time>2015-11-23T19:56:35Z</time>
      </trkpt>
      <trkpt lat="48.8517" lon="2.28997">
        <ele>36.79999923706</ele>
        <time>2015-11-23T19:56:40Z</time>
      </trkpt>
      <trkpt lat="48.85177" lon="2.28969">
        <ele>37.599998474121</ele>
        <time>2015-11-23T19:56:45Z</time>
      </trkpt>
      <trkpt lat="48.85191" lon="2.28943">
        <ele>38.400001525879</ele>
        <time>2015-11-23T19:56:50Z</time>
      </trkpt>
      <trkpt lat="48.85204" lon="2.28922">
        <ele>39</ele>
        <time>2015-11-23T19:56:54Z</time>
      </trkpt>
      <trkpt lat="48.85211" lon="2.28914">
        <ele>39.20000076294</ele>
        <time>2015-11-23T19:56:56Z</time>
      </trkpt>
      <trkpt lat="48.85219" lon="2.28896">
        <ele>39.400001525879</ele>
        <time>2015-11-23T19:56:59Z</time>
      </trkpt>
      <trkpt lat="48.85218" lon="2.28867">
        <ele>39.400001525879</ele>
        <time>2015-11-23T19:57:03Z</time>
      </trkpt>
      <trkpt lat="48.85224" lon="2.28847">
        <ele>39.20000076294</ele>
        <time>2015-11-23T19:57:06Z</time>
      </trkpt>
      <trkpt lat="48.85233" lon="2.28819">
        <ele>39</ele>
        <time>2015-11-23T19:57:10Z</time>
      </trkpt>
      <trkpt lat="48.85245" lon="2.28792">
        <ele>38.79999923706</ele>
        <time>2015-11-23T19:57:14Z</time>
      </trkpt>
      <trkpt lat="48.85253" lon="2.28766">
        <ele>38</ele>
        <time>2015-11-23T19:57:18Z</time>
      </trkpt>
      <trkpt lat="48.85258" lon="2.28742">
        <ele>37.599998474121</ele>
        <time>2015-11-23T19:57:22Z</time>
      </trkpt>
      <trkpt lat="48.85261" lon="2.28732">
        <ele>37.79999923706</ele>
        <time>2015-11-23T19:57:24Z</time>
      </trkpt>
      <trkpt lat="48.8527" lon="2.28705">
        <ele>38</ele>
        <time>2015-11-23T19:57:30Z</time>
      </trkpt>
      <trkpt lat="48.85276" lon="2.28678">
        <ele>38.79999923706</ele>
        <time>2015-11-23T19:57:37Z</time>
      </trkpt>
      <trkpt lat="48.85276" lon="2.28665">
        <ele>39</ele>
        <time>2015-11-23T19:57:40Z</time>
      </trkpt>
      <trkpt lat="48.85269" lon="2.28639">
        <ele>38.599998474121</ele>
        <time>2015-11-23T19:57:46Z</time>
      </trkpt>
      <trkpt lat="48.85252" lon="2.28625">
        <ele>40</ele>
        <time>2015-11-23T19:57:52Z</time>
      </trkpt>
      <trkpt lat="48.85235" lon="2.28609">
        <ele>41.599998474121</ele>
        <time>2015-11-23T19:57:58Z</time>
      </trkpt>
      <trkpt lat="48.85217" lon="2.28589">
        <ele>43</ele>
        <time>2015-11-23T19:58:03Z</time>
      </trkpt>
      <trkpt lat="48.85201" lon="2.2857">
        <ele>43.20000076294</ele>
        <time>2015-11-23T19:58:07Z</time>
      </trkpt>
      <trkpt lat="48.85185" lon="2.28551">
        <ele>41.599998474121</ele>
        <time>2015-11-23T19:58:11Z</time>
      </trkpt>
      <trkpt lat="48.85169" lon="2.28532">
        <ele>38.79999923706</ele>
        <time>2015-11-23T19:58:15Z</time>
      </trkpt>
      <trkpt lat="48.85153" lon="2.28513">
        <ele>36</ele>
        <time>2015-11-23T19:58:19Z</time>
      </trkpt>
      <trkpt lat="48.85138" lon="2.28492">
        <ele>33.599998474121</ele>
        <time>2015-11-23T19:58:23Z</time>
      </trkpt>
      <trkpt lat="48.85125" lon="2.28468">
        <ele>33.79999923706</ele>
        <time>2015-11-23T19:58:27Z</time>
      </trkpt>
      <trkpt lat="48.85112" lon="2.28444">
        <ele>34</ele>
        <time>2015-11-23T19:58:31Z</time>
      </trkpt>
      <trkpt lat="48.85097" lon="2.2842">
        <ele>35.20000076294</ele>
        <time>2015-11-23T19:58:35Z</time>
      </trkpt>
      <trkpt lat="48.85087" lon="2.28401">
        <ele>35.599998474121</ele>
        <time>2015-11-23T19:58:38Z</time>
      </trkpt>
      <trkpt lat="48.85072" lon="2.28379">
        <ele>36.400001525879</ele>
        <time>2015-11-23T19:58:41Z</time>
      </trkpt>
      <trkpt lat="48.85059" lon="2.28358">
        <ele>37</ele>
        <time>2015-11-23T19:58:44Z</time>
      </trkpt>
      <trkpt lat="48.85046" lon="2.28339">
        <ele>37.599998474121</ele>
        <time>2015-11-23T19:58:47Z</time>
      </trkpt>
      <trkpt lat="48.8503" lon="2.28316">
        <ele>37.79999923706</ele>
        <time>2015-11-23T19:58:51Z</time>
      </trkpt>
      <trkpt lat="48.85015" lon="2.28298">
        <ele>37.400001525879</ele>
        <time>2015-11-23T19:58:55Z</time>
      </trkpt>
      <trkpt lat="48.85011" lon="2.28295">
        <ele>37.20000076294</ele>
        <time>2015-11-23T19:58:56Z</time>
      </trkpt>
      <trkpt lat="48.84995" lon="2.28279">
        <ele>36.400001525879</ele>
        <time>2015-11-23T19:59:00Z</time>
      </trkpt>
      <trkpt lat="48.8498" lon="2.28262">
        <ele>35.599998474121</ele>
        <time>2015-11-23T19:59:04Z</time>
      </trkpt>
      <trkpt lat="48.84965" lon="2.28239">
        <ele>34.400001525879</ele>
        <time>2015-11-23T19:59:09Z</time>
      </trkpt>
      <trkpt lat="48.84948" lon="2.28222">
        <ele>34.20000076294</ele>
        <time>2015-11-23T19:59:14Z</time>
      </trkpt>
      <trkpt lat="48.84946" lon="2.28219">
        <ele>34</ele>
        <time>2015-11-23T19:59:15Z</time>
      </trkpt>
      <trkpt lat="48.84943" lon="2.28211">
        <ele>33.79999923706</ele>
        <time>2015-11-23T19:59:17Z</time>
      </trkpt>
      <trkpt lat="48.84934" lon="2.28189">
        <ele>33.400001525879</ele>
        <time>2015-11-23T19:59:25Z</time>
      </trkpt>
      <trkpt lat="48.84941" lon="2.28149">
        <ele>31.200000762939</ele>
        <time>2015-11-23T19:59:50Z</time>
      </trkpt>
      <trkpt lat="48.84952" lon="2.28124">
        <ele>31</ele>
        <time>2015-11-23T19:59:56Z</time>
      </trkpt>
      <trkpt lat="48.84968" lon="2.28101">
        <ele>30.39999961853</ele>
        <time>2015-11-23T20:00:02Z</time>
      </trkpt>
      <trkpt lat="48.84984" lon="2.28081">
        <ele>28.39999961853</ele>
        <time>2015-11-23T20:00:07Z</time>
      </trkpt>
      <trkpt lat="48.84999" lon="2.2806">
        <ele>27</ele>
        <time>2015-11-23T20:00:12Z</time>
      </trkpt>
      <trkpt lat="48.85013" lon="2.28039">
        <ele>27.60000038147</ele>
        <time>2015-11-23T20:00:17Z</time>
      </trkpt>
      <trkpt lat="48.85027" lon="2.28018">
        <ele>29</ele>
        <time>2015-11-23T20:00:22Z</time>
      </trkpt>
      <trkpt lat="48.85042" lon="2.27996">
        <ele>29.60000038147</ele>
        <time>2015-11-23T20:00:27Z</time>
      </trkpt>
      <trkpt lat="48.85055" lon="2.27976">
        <ele>30.39999961853</ele>
        <time>2015-11-23T20:00:31Z</time>
      </trkpt>
      <trkpt lat="48.85068" lon="2.27955">
        <ele>31.39999961853</ele>
        <time>2015-11-23T20:00:35Z</time>
      </trkpt>
      <trkpt lat="48.85081" lon="2.27935">
        <ele>31.799999237061</ele>
        <time>2015-11-23T20:00:39Z</time>
      </trkpt>
      <trkpt lat="48.85096" lon="2.27912">
        <ele>32.400001525879</ele>
        <time>2015-11-23T20:00:44Z</time>
      </trkpt>
      <trkpt lat="48.85109" lon="2.27891">
        <ele>33.599998474121</ele>
        <time>2015-11-23T20:00:49Z</time>
      </trkpt>
      <trkpt lat="48.85112" lon="2.27887">
        <ele>33.79999923706</ele>
        <time>2015-11-23T20:00:50Z</time>
      </trkpt>
      <trkpt lat="48.85117" lon="2.27878">
        <ele>34.599998474121</ele>
        <time>2015-11-23T20:00:53Z</time>
      </trkpt>
      <trkpt lat="48.85126" lon="2.27865">
        <ele>35.79999923706</ele>
        <time>2015-11-23T20:00:58Z</time>
      </trkpt>
      <trkpt lat="48.8513" lon="2.27857">
        <ele>36.400001525879</ele>
        <time>2015-11-23T20:01:03Z</time>
      </trkpt>
      <trkpt lat="48.85142" lon="2.27842">
        <ele>36.79999923706</ele>
        <time>2015-11-23T20:01:29Z</time>
      </trkpt>
      <trkpt lat="48.85146" lon="2.27832">
        <ele>37</ele>
        <time>2015-11-23T20:01:34Z</time>
      </trkpt>
      <trkpt lat="48.85146" lon="2.27825">
        <ele>37</ele>
        <time>2015-11-23T20:01:38Z</time>
      </trkpt>
      <trkpt lat="48.85146" lon="2.27824">
        <ele>37</ele>
        <time>2015-11-23T20:01:39Z</time>
      </trkpt>
      <trkpt lat="48.8514" lon="2.27798">
        <ele>37</ele>
        <time>2015-11-23T20:01:50Z</time>
      </trkpt>
      <trkpt lat="48.85138" lon="2.27765">
        <ele>37.400001525879</ele>
        <time>2015-11-23T20:01:55Z</time>
      </trkpt>
      <trkpt lat="48.85138" lon="2.27738">
        <ele>38.400001525879</ele>
        <time>2015-11-23T20:01:59Z</time>
      </trkpt>
      <trkpt lat="48.85137" lon="2.27709">
        <ele>39</ele>
        <time>2015-11-23T20:02:03Z</time>
      </trkpt>
      <trkpt lat="48.85132" lon="2.2768">
        <ele>39.79999923706</ele>
        <time>2015-11-23T20:02:07Z</time>
      </trkpt>
      <trkpt lat="48.85129" lon="2.27653">
        <ele>40.20000076294</ele>
        <time>2015-11-23T20:02:11Z</time>
      </trkpt>
      <trkpt lat="48.85127" lon="2.27626">
        <ele>39.400001525879</ele>
        <time>2015-11-23T20:02:15Z</time>
      </trkpt>
      <trkpt lat="48.8512" lon="2.276">
        <ele>38.400001525879</ele>
        <time>2015-11-23T20:02:19Z</time>
      </trkpt>
      <trkpt lat="48.85119" lon="2.27581">
        <ele>37.79999923706</ele>
        <time>2015-11-23T20:02:22Z</time>
      </trkpt>
      <trkpt lat="48.85119" lon="2.27568">
        <ele>38</ele>
        <time>2015-11-23T20:02:24Z</time>
      </trkpt>
      <trkpt lat="48.85117" lon="2.27541">
        <ele>38.599998474121</ele>
        <time>2015-11-23T20:02:29Z</time>
      </trkpt>
      <trkpt lat="48.85116" lon="2.27525">
        <ele>39</ele>
        <time>2015-11-23T20:02:32Z</time>
      </trkpt>
      <trkpt lat="48.85122" lon="2.27498">
        <ele>38.79999923706</ele>
        <time>2015-11-23T20:02:38Z</time>
      </trkpt>
      <trkpt lat="48.85127" lon="2.2749">
        <ele>39</ele>
        <time>2015-11-23T20:02:40Z</time>
      </trkpt>
      <trkpt lat="48.85138" lon="2.27463">
        <ele>40.599998474121</ele>
        <time>2015-11-23T20:02:45Z</time>
      </trkpt>
      <trkpt lat="48.85147" lon="2.27433">
        <ele>42.400001525879</ele>
        <time>2015-11-23T20:02:50Z</time>
      </trkpt>
      <trkpt lat="48.85163" lon="2.27412">
        <ele>43</ele>
        <time>2015-11-23T20:02:54Z</time>
      </trkpt>
      <trkpt lat="48.85177" lon="2.2739">
        <ele>42.79999923706</ele>
        <time>2015-11-23T20:02:59Z</time>
      </trkpt>
      <trkpt lat="48.85191" lon="2.27368">
        <ele>43</ele>
        <time>2015-11-23T20:03:04Z</time>
      </trkpt>
      <trkpt lat="48.852" lon="2.27356">
        <ele>43.20000076294</ele>
        <time>2015-11-23T20:03:07Z</time>
      </trkpt>
      <trkpt lat="48.85214" lon="2.27336">
        <ele>42</ele>
        <time>2015-11-23T20:03:12Z</time>
      </trkpt>
      <trkpt lat="48.85219" lon="2.27328">
        <ele>41.20000076294</ele>
        <time>2015-11-23T20:03:14Z</time>
      </trkpt>
      <trkpt lat="48.85229" lon="2.27305">
        <ele>40.20000076294</ele>
        <time>2015-11-23T20:03:19Z</time>
      </trkpt>
      <trkpt lat="48.85242" lon="2.2728">
        <ele>39.79999923706</ele>
        <time>2015-11-23T20:03:25Z</time>
      </trkpt>
      <trkpt lat="48.85253" lon="2.27259">
        <ele>40.400001525879</ele>
        <time>2015-11-23T20:03:30Z</time>
      </trkpt>
      <trkpt lat="48.85263" lon="2.27235">
        <ele>40.400001525879</ele>
        <time>2015-11-23T20:03:35Z</time>
      </trkpt>
      <trkpt lat="48.85275" lon="2.27212">
        <ele>42.599998474121</ele>
        <time>2015-11-23T20:03:40Z</time>
      </trkpt>
      <trkpt lat="48.85288" lon="2.27192">
        <ele>44.79999923706</ele>
        <time>2015-11-23T20:03:45Z</time>
      </trkpt>
      <trkpt lat="48.85306" lon="2.27177">
        <ele>47</ele>
        <time>2015-11-23T20:03:49Z</time>
      </trkpt>
      <trkpt lat="48.85321" lon="2.27161">
        <ele>49</ele>
        <time>2015-11-23T20:03:54Z</time>
      </trkpt>
      <trkpt lat="48.85332" lon="2.27138">
        <ele>49.20000076294</ele>
        <time>2015-11-23T20:04:00Z</time>
      </trkpt>
      <trkpt lat="48.85333" lon="2.27132">
        <ele>49.400001525879</ele>
        <time>2015-11-23T20:04:02Z</time>
      </trkpt>
      <trkpt lat="48.85333" lon="2.27119">
        <ele>49.599998474121</ele>
        <time>2015-11-23T20:04:08Z</time>
      </trkpt>
      <trkpt lat="48.85332" lon="2.27112">
        <ele>49.599998474121</ele>
        <time>2015-11-23T20:04:13Z</time>
      </trkpt>
      <trkpt lat="48.85331" lon="2.27096">
        <ele>49.79999923706</ele>
        <time>2015-11-23T20:05:08Z</time>
      </trkpt>
      <trkpt lat="48.85332" lon="2.27068">
        <ele>49.79999923706</ele>
        <time>2015-11-23T20:05:17Z</time>
      </trkpt>
      <trkpt lat="48.85337" lon="2.27053">
        <ele>49.599998474121</ele>
        <time>2015-11-23T20:05:21Z</time>
      </trkpt>
      <trkpt lat="48.85345" lon="2.27027">
        <ele>49.400001525879</ele>
        <time>2015-11-23T20:05:26Z</time>
      </trkpt>
      <trkpt lat="48.85356" lon="2.26999">
        <ele>49.20000076294</ele>
        <time>2015-11-23T20:05:31Z</time>
      </trkpt>
      <trkpt lat="48.85364" lon="2.26975">
        <ele>49.599998474121</ele>
        <time>2015-11-23T20:05:35Z</time>
      </trkpt>
      <trkpt lat="48.85375" lon="2.26949">
        <ele>50.400001525879</ele>
        <time>2015-11-23T20:05:39Z</time>
      </trkpt>
      <trkpt lat="48.85389" lon="2.26927">
        <ele>51.400001525879</ele>
        <time>2015-11-23T20:05:44Z</time>
      </trkpt>
      <trkpt lat="48.85396" lon="2.26902">
        <ele>53</ele>
        <time>2015-11-23T20:05:53Z</time>
      </trkpt>
      <trkpt lat="48.85386" lon="2.26893">
        <ele>53</ele>
        <time>2015-11-23T20:05:59Z</time>
      </trkpt>
      <trkpt lat="48.85368" lon="2.26878">
        <ele>53.20000076294</ele>
        <time>2015-11-23T20:06:05Z</time>
      </trkpt>
      <trkpt lat="48.85349" lon="2.26868">
        <ele>52.79999923706</ele>
        <time>2015-11-23T20:06:12Z</time>
      </trkpt>
      <trkpt lat="48.85339" lon="2.26846">
        <ele>54.20000076294</ele>
        <time>2015-11-23T20:06:20Z</time>
      </trkpt>
      <trkpt lat="48.85337" lon="2.26816">
        <ele>56.400001525879</ele>
        <time>2015-11-23T20:06:31Z</time>
      </trkpt>
      <trkpt lat="48.85321" lon="2.26799">
        <ele>56.400001525879</ele>
        <time>2015-11-23T20:06:37Z</time>
      </trkpt>
      <trkpt lat="48.85316" lon="2.26786">
        <ele>56.599998474121</ele>
        <time>2015-11-23T20:06:41Z</time>
      </trkpt>
      <trkpt lat="48.85326" lon="2.26758">
        <ele>57.20000076294</ele>
        <time>2015-11-23T20:06:47Z</time>
      </trkpt>
      <trkpt lat="48.85333" lon="2.26723">
        <ele>57.20000076294</ele>
        <time>2015-11-23T20:06:53Z</time>
      </trkpt>
      <trkpt lat="48.85332" lon="2.26685">
        <ele>56.599998474121</ele>
        <time>2015-11-23T20:06:59Z</time>
      </trkpt>
      <trkpt lat="48.85344" lon="2.2666">
        <ele>56.79999923706</ele>
        <time>2015-11-23T20:07:04Z</time>
      </trkpt>
      <trkpt lat="48.85359" lon="2.26641">
        <ele>56.599998474121</ele>
        <time>2015-11-23T20:07:11Z</time>
      </trkpt>
      <trkpt lat="48.85356" lon="2.26631">
        <ele>56.599998474121</ele>
        <time>2015-11-23T20:07:16Z</time>
      </trkpt>
      <trkpt lat="48.85343" lon="2.26605">
        <ele>56.400001525879</ele>
        <time>2015-11-23T20:07:24Z</time>
      </trkpt>
      <trkpt lat="48.8533" lon="2.2658">
        <ele>56.400001525879</ele>
        <time>2015-11-23T20:07:31Z</time>
      </trkpt>
      <trkpt lat="48.85307" lon="2.26576">
        <ele>56.599998474121</ele>
        <time>2015-11-23T20:07:32Z</time>
      </trkpt>
      <trkpt lat="48.85286" lon="2.26568">
        <ele>56.79999923706</ele>
        <time>2015-11-23T20:07:34Z</time>
      </trkpt>
      <trkpt lat="48.85281" lon="2.26557">
        <ele>56.79999923706</ele>
        <time>2015-11-23T20:07:36Z</time>
      </trkpt>
      <trkpt lat="48.85285" lon="2.26525">
        <ele>56.79999923706</ele>
        <time>2015-11-23T20:07:46Z</time>
      </trkpt>
      <trkpt lat="48.85294" lon="2.26498">
        <ele>56.20000076294</ele>
        <time>2015-11-23T20:07:54Z</time>
      </trkpt>
      <trkpt lat="48.85294" lon="2.26496">
        <ele>56.20000076294</ele>
        <time>2015-11-23T20:07:55Z</time>
      </trkpt>
      <trkpt lat="48.85277" lon="2.26482">
        <ele>57.599998474121</ele>
        <time>2015-11-23T20:08:02Z</time>
      </trkpt>
      <trkpt lat="48.85271" lon="2.26476">
        <ele>58.20000076294</ele>
        <time>2015-11-23T20:08:05Z</time>
      </trkpt>
      <trkpt lat="48.85254" lon="2.26465">
        <ele>58.20000076294</ele>
        <time>2015-11-23T20:08:09Z</time>
      </trkpt>
      <trkpt lat="48.85237" lon="2.2645">
        <ele>58.400001525879</ele>
        <time>2015-11-23T20:08:15Z</time>
      </trkpt>
      <trkpt lat="48.85235" lon="2.26445">
        <ele>58.599998474121</ele>
        <time>2015-11-23T20:08:17Z</time>
      </trkpt>
      <trkpt lat="48.8524" lon="2.26421">
        <ele>60.400001525879</ele>
        <time>2015-11-23T20:08:23Z</time>
      </trkpt>
      <trkpt lat="48.8525" lon="2.2639">
        <ele>61</ele>
        <time>2015-11-23T20:08:30Z</time>
      </trkpt>
      <trkpt lat="48.85263" lon="2.26364">
        <ele>62</ele>
        <time>2015-11-23T20:08:34Z</time>
      </trkpt>
      <trkpt lat="48.85277" lon="2.26338">
        <ele>62.79999923706</ele>
        <time>2015-11-23T20:08:39Z</time>
      </trkpt>
      <trkpt lat="48.85277" lon="2.26333">
        <ele>63</ele>
        <time>2015-11-23T20:08:40Z</time>
      </trkpt>
      <trkpt lat="48.8528" lon="2.26304">
        <ele>63.599998474121</ele>
        <time>2015-11-23T20:08:45Z</time>
      </trkpt>
      <trkpt lat="48.85284" lon="2.26288">
        <ele>64.199996948242</ele>
        <time>2015-11-23T20:08:48Z</time>
      </trkpt>
      <trkpt lat="48.85273" lon="2.2625">
        <ele>65</ele>
        <time>2015-11-23T20:09:00Z</time>
      </trkpt>
      <trkpt lat="48.8527" lon="2.2625">
        <ele>64.800003051758</ele>
        <time>2015-11-23T20:09:13Z</time>
      </trkpt>
      <trkpt lat="48.85251" lon="2.26245">
        <ele>63.400001525879</ele>
        <time>2015-11-23T20:09:21Z</time>
      </trkpt>
      <trkpt lat="48.85229" lon="2.26241">
        <ele>62</ele>
        <time>2015-11-23T20:09:26Z</time>
      </trkpt>
      <trkpt lat="48.85209" lon="2.26235">
        <ele>60.79999923706</ele>
        <time>2015-11-23T20:09:31Z</time>
      </trkpt>
      <trkpt lat="48.85188" lon="2.26235">
        <ele>59.400001525879</ele>
        <time>2015-11-23T20:09:36Z</time>
      </trkpt>
      <trkpt lat="48.85167" lon="2.2623">
        <ele>59.79999923706</ele>
        <time>2015-11-23T20:09:41Z</time>
      </trkpt>
      <trkpt lat="48.85149" lon="2.26224">
        <ele>60.20000076294</ele>
        <time>2015-11-23T20:09:45Z</time>
      </trkpt>
      <trkpt lat="48.85128" lon="2.26224">
        <ele>60.599998474121</ele>
        <time>2015-11-23T20:09:49Z</time>
      </trkpt>
      <trkpt lat="48.85108" lon="2.26216">
        <ele>61</ele>
        <time>2015-11-23T20:09:53Z</time>
      </trkpt>
      <trkpt lat="48.85089" lon="2.26211">
        <ele>60.400001525879</ele>
        <time>2015-11-23T20:09:56Z</time>
      </trkpt>
      <trkpt lat="48.85067" lon="2.26203">
        <ele>59.599998474121</ele>
        <time>2015-11-23T20:10:00Z</time>
      </trkpt>
      <trkpt lat="48.85055" lon="2.26198">
        <ele>59.20000076294</ele>
        <time>2015-11-23T20:10:03Z</time>
      </trkpt>
      <trkpt lat="48.85036" lon="2.26184">
        <ele>58.599998474121</ele>
        <time>2015-11-23T20:10:08Z</time>
      </trkpt>
      <trkpt lat="48.85025" lon="2.26162">
        <ele>59.20000076294</ele>
        <time>2015-11-23T20:10:14Z</time>
      </trkpt>
      <trkpt lat="48.85022" lon="2.26159">
        <ele>59</ele>
        <time>2015-11-23T20:10:15Z</time>
      </trkpt>
      <trkpt lat="48.85011" lon="2.26143">
        <ele>58.20000076294</ele>
        <time>2015-11-23T20:10:19Z</time>
      </trkpt>
      <trkpt lat="48.84977" lon="2.2613">
        <ele>55.599998474121</ele>
        <time>2015-11-23T20:10:22Z</time>
      </trkpt>
      <trkpt lat="48.84965" lon="2.26126">
        <ele>54.599998474121</ele>
        <time>2015-11-23T20:10:23Z</time>
      </trkpt>
      <trkpt lat="48.84938" lon="2.26118">
        <ele>52.599998474121</ele>
        <time>2015-11-23T20:10:26Z</time>
      </trkpt>
      <trkpt lat="48.84916" lon="2.26106">
        <ele>52.400001525879</ele>
        <time>2015-11-23T20:10:29Z</time>
      </trkpt>
      <trkpt lat="48.84893" lon="2.26089">
        <ele>52.400001525879</ele>
        <time>2015-11-23T20:10:32Z</time>
      </trkpt>
      <trkpt lat="48.84875" lon="2.26076">
        <ele>52.20000076294</ele>
        <time>2015-11-23T20:10:35Z</time>
      </trkpt>
      <trkpt lat="48.84865" lon="2.2607">
        <ele>51.79999923706</ele>
        <time>2015-11-23T20:10:37Z</time>
      </trkpt>
      <trkpt lat="48.84848" lon="2.26063">
        <ele>51.79999923706</ele>
        <time>2015-11-23T20:10:41Z</time>
      </trkpt>
      <trkpt lat="48.84844" lon="2.26062">
        <ele>51.79999923706</ele>
        <time>2015-11-23T20:10:42Z</time>
      </trkpt>
      <trkpt lat="48.84837" lon="2.26058">
        <ele>52</ele>
        <time>2015-11-23T20:10:46Z</time>
      </trkpt>
      <trkpt lat="48.84821" lon="2.26049">
        <ele>52</ele>
        <time>2015-11-23T20:11:33Z</time>
      </trkpt>
      <trkpt lat="48.84814" lon="2.26043">
        <ele>52</ele>
        <time>2015-11-23T20:11:37Z</time>
      </trkpt>
      <trkpt lat="48.84802" lon="2.26026">
        <ele>52</ele>
        <time>2015-11-23T20:11:49Z</time>
      </trkpt>
      <trkpt lat="48.84801" lon="2.26023">
        <ele>52</ele>
        <time>2015-11-23T20:11:50Z</time>
      </trkpt>
      <trkpt lat="48.848" lon="2.26022">
        <ele>52</ele>
        <time>2015-11-23T20:11:51Z</time>
      </trkpt>
      <trkpt lat="48.84788" lon="2.26017">
        <ele>52</ele>
        <time>2015-11-23T20:12:04Z</time>
      </trkpt>
      <trkpt lat="48.84769" lon="2.26008">
        <ele>52</ele>
        <time>2015-11-23T20:12:13Z</time>
      </trkpt>
      <trkpt lat="48.84749" lon="2.26006">
        <ele>51.20000076294</ele>
        <time>2015-11-23T20:12:20Z</time>
      </trkpt>
      <trkpt lat="48.84728" lon="2.26001">
        <ele>50.400001525879</ele>
        <time>2015-11-23T20:12:25Z</time>
      </trkpt>
      <trkpt lat="48.84711" lon="2.25993">
        <ele>49.79999923706</ele>
        <time>2015-11-23T20:12:29Z</time>
      </trkpt>
      <trkpt lat="48.84691" lon="2.25978">
        <ele>49.79999923706</ele>
        <time>2015-11-23T20:12:34Z</time>
      </trkpt>
      <trkpt lat="48.84673" lon="2.25971">
        <ele>49.400001525879</ele>
        <time>2015-11-23T20:12:39Z</time>
      </trkpt>
      <trkpt lat="48.84654" lon="2.25964">
        <ele>49.400001525879</ele>
        <time>2015-11-23T20:12:44Z</time>
      </trkpt>
      <trkpt lat="48.84635" lon="2.25957">
        <ele>49.79999923706</ele>
        <time>2015-11-23T20:12:49Z</time>
      </trkpt>
      <trkpt lat="48.84614" lon="2.25951">
        <ele>50.20000076294</ele>
        <time>2015-11-23T20:12:54Z</time>
      </trkpt>
      <trkpt lat="48.84597" lon="2.25941">
        <ele>50</ele>
        <time>2015-11-23T20:12:58Z</time>
      </trkpt>
      <trkpt lat="48.84578" lon="2.25931">
        <ele>49.20000076294</ele>
        <time>2015-11-23T20:13:03Z</time>
      </trkpt>
      <trkpt lat="48.84558" lon="2.2592">
        <ele>48.400001525879</ele>
        <time>2015-11-23T20:13:09Z</time>
      </trkpt>
      <trkpt lat="48.84542" lon="2.25905">
        <ele>47.79999923706</ele>
        <time>2015-11-23T20:13:17Z</time>
      </trkpt>
      <trkpt lat="48.84541" lon="2.25899">
        <ele>47.79999923706</ele>
        <time>2015-11-23T20:13:19Z</time>
      </trkpt>
      <trkpt lat="48.84543" lon="2.25885">
        <ele>48</ele>
        <time>2015-11-23T20:13:27Z</time>
      </trkpt>
      <trkpt lat="48.84542" lon="2.25883">
        <ele>48</ele>
        <time>2015-11-23T20:13:28Z</time>
      </trkpt>
      <trkpt lat="48.84538" lon="2.25858">
        <ele>48.20000076294</ele>
        <time>2015-11-23T20:13:33Z</time>
      </trkpt>
      <trkpt lat="48.84533" lon="2.2583">
        <ele>47.79999923706</ele>
        <time>2015-11-23T20:13:38Z</time>
      </trkpt>
      <trkpt lat="48.84535" lon="2.25801">
        <ele>46</ele>
        <time>2015-11-23T20:13:43Z</time>
      </trkpt>
      <trkpt lat="48.84538" lon="2.25772">
        <ele>44.20000076294</ele>
        <time>2015-11-23T20:13:51Z</time>
      </trkpt>
      <trkpt lat="48.84541" lon="2.25744">
        <ele>42.20000076294</ele>
        <time>2015-11-23T20:13:59Z</time>
      </trkpt>
      <trkpt lat="48.84541" lon="2.25712">
        <ele>41</ele>
        <time>2015-11-23T20:14:05Z</time>
      </trkpt>
      <trkpt lat="48.8454" lon="2.25678">
        <ele>40</ele>
        <time>2015-11-23T20:14:10Z</time>
      </trkpt>
      <trkpt lat="48.84539" lon="2.25651">
        <ele>39.400001525879</ele>
        <time>2015-11-23T20:14:14Z</time>
      </trkpt>
      <trkpt lat="48.8454" lon="2.25621">
        <ele>38.400001525879</ele>
        <time>2015-11-23T20:14:18Z</time>
      </trkpt>
      <trkpt lat="48.84541" lon="2.25593">
        <ele>37.400001525879</ele>
        <time>2015-11-23T20:14:22Z</time>
      </trkpt>
      <trkpt lat="48.8454" lon="2.2556">
        <ele>36.79999923706</ele>
        <time>2015-11-23T20:14:27Z</time>
      </trkpt>
      <trkpt lat="48.84542" lon="2.25527">
        <ele>36</ele>
        <time>2015-11-23T20:14:32Z</time>
      </trkpt>
      <trkpt lat="48.84541" lon="2.25497">
        <ele>34.79999923706</ele>
        <time>2015-11-23T20:14:37Z</time>
      </trkpt>
      <trkpt lat="48.84532" lon="2.25474">
        <ele>34.79999923706</ele>
        <time>2015-11-23T20:14:42Z</time>
      </trkpt>
      <trkpt lat="48.8452" lon="2.25449">
        <ele>35</ele>
        <time>2015-11-23T20:14:48Z</time>
      </trkpt>
      <trkpt lat="48.84512" lon="2.25424">
        <ele>35.20000076294</ele>
        <time>2015-11-23T20:14:54Z</time>
      </trkpt>
      <trkpt lat="48.84508" lon="2.25395">
        <ele>35.400001525879</ele>
        <time>2015-11-23T20:15:00Z</time>
      </trkpt>
      <trkpt lat="48.84504" lon="2.25369">
        <ele>35.400001525879</ele>
        <time>2015-11-23T20:15:06Z</time>
      </trkpt>
      <trkpt lat="48.84497" lon="2.25341">
        <ele>35.599998474121</ele>
        <time>2015-11-23T20:15:11Z</time>
      </trkpt>
      <trkpt lat="48.84492" lon="2.25312">
        <ele>36</ele>
        <time>2015-11-23T20:15:16Z</time>
      </trkpt>
      <trkpt lat="48.84487" lon="2.25285">
        <ele>36.599998474121</ele>
        <time>2015-11-23T20:15:21Z</time>
      </trkpt>
      <trkpt lat="48.84482" lon="2.25258">
        <ele>38</ele>
        <time>2015-11-23T20:15:26Z</time>
      </trkpt>
      <trkpt lat="48.84476" lon="2.25229">
        <ele>39.20000076294</ele>
        <time>2015-11-23T20:15:32Z</time>
      </trkpt>
      <trkpt lat="48.84461" lon="2.25211">
        <ele>40</ele>
        <time>2015-11-23T20:15:37Z</time>
      </trkpt>
      <trkpt lat="48.84443" lon="2.25201">
        <ele>40.20000076294</ele>
        <time>2015-11-23T20:15:42Z</time>
      </trkpt>
      <trkpt lat="48.84424" lon="2.25195">
        <ele>41.20000076294</ele>
        <time>2015-11-23T20:15:46Z</time>
      </trkpt>
      <trkpt lat="48.84402" lon="2.2519">
        <ele>42.400001525879</ele>
        <time>2015-11-23T20:15:50Z</time>
      </trkpt>
      <trkpt lat="48.84382" lon="2.2518">
        <ele>43.79999923706</ele>
        <time>2015-11-23T20:15:54Z</time>
      </trkpt>
      <trkpt lat="48.84362" lon="2.25173">
        <ele>44.79999923706</ele>
        <time>2015-11-23T20:15:58Z</time>
      </trkpt>
      <trkpt lat="48.84343" lon="2.25166">
        <ele>44.20000076294</ele>
        <time>2015-11-23T20:16:02Z</time>
      </trkpt>
      <trkpt lat="48.84333" lon="2.25163">
        <ele>43.599998474121</ele>
        <time>2015-11-23T20:16:04Z</time>
      </trkpt>
      <trkpt lat="48.84317" lon="2.2516">
        <ele>42.400001525879</ele>
        <time>2015-11-23T20:16:07Z</time>
      </trkpt>
      <trkpt lat="48.84298" lon="2.25155">
        <ele>41</ele>
        <time>2015-11-23T20:16:11Z</time>
      </trkpt>
      <trkpt lat="48.84289" lon="2.25154">
        <ele>40.20000076294</ele>
        <time>2015-11-23T20:16:13Z</time>
      </trkpt>
      <trkpt lat="48.8428" lon="2.25154">
        <ele>39.20000076294</ele>
        <time>2015-11-23T20:16:15Z</time>
      </trkpt>
      <trkpt lat="48.84272" lon="2.25157">
        <ele>38.400001525879</ele>
        <time>2015-11-23T20:16:17Z</time>
      </trkpt>
      <trkpt lat="48.84252" lon="2.25163">
        <ele>37.79999923706</ele>
        <time>2015-11-23T20:16:22Z</time>
      </trkpt>
      <trkpt lat="48.84247" lon="2.25165">
        <ele>37.599998474121</ele>
        <time>2015-11-23T20:16:23Z</time>
      </trkpt>
      <trkpt lat="48.84239" lon="2.25168">
        <ele>37.400001525879</ele>
        <time>2015-11-23T20:16:25Z</time>
      </trkpt>
      <trkpt lat="48.84221" lon="2.2517">
        <ele>37.20000076294</ele>
        <time>2015-11-23T20:16:29Z</time>
      </trkpt>
      <trkpt lat="48.84215" lon="2.2517">
        <ele>37</ele>
        <time>2015-11-23T20:16:30Z</time>
      </trkpt>
      <trkpt lat="48.8421" lon="2.2517">
        <ele>37</ele>
        <time>2015-11-23T20:16:31Z</time>
      </trkpt>
      <trkpt lat="48.84215" lon="2.25156">
        <ele>37.400001525879</ele>
        <time>2015-11-23T20:16:40Z</time>
      </trkpt>
      <trkpt lat="48.84225" lon="2.25152">
        <ele>37.599998474121</ele>
        <time>2015-11-23T20:16:43Z</time>
      </trkpt>
      <trkpt lat="48.84232" lon="2.25149">
        <ele>37.599998474121</ele>
        <time>2015-11-23T20:16:45Z</time>
      </trkpt>
      <trkpt lat="48.84239" lon="2.25123">
        <ele>38.400001525879</ele>
        <time>2015-11-23T20:16:50Z</time>
      </trkpt>
      <trkpt lat="48.84235" lon="2.25106">
        <ele>39.20000076294</ele>
        <time>2015-11-23T20:16:53Z</time>
      </trkpt>
      <trkpt lat="48.84229" lon="2.2508">
        <ele>40.400001525879</ele>
        <time>2015-11-23T20:17:00Z</time>
      </trkpt>
      <trkpt lat="48.84229" lon="2.25078">
        <ele>40.400001525879</ele>
        <time>2015-11-23T20:17:01Z</time>
      </trkpt>
      <trkpt lat="48.84239" lon="2.25067">
        <ele>41.400001525879</ele>
        <time>2015-11-23T20:18:37Z</time>
      </trkpt>
      <trkpt lat="48.84231" lon="2.25057">
        <ele>41.400001525879</ele>
        <time>2015-11-23T20:19:41Z</time>
      </trkpt>
      <trkpt lat="48.84215" lon="2.25044">
        <ele>40.79999923706</ele>
        <time>2015-11-23T20:19:49Z</time>
      </trkpt>
      <trkpt lat="48.84201" lon="2.25025">
        <ele>40.599998474121</ele>
        <time>2015-11-23T20:19:55Z</time>
      </trkpt>
      <trkpt lat="48.84187" lon="2.25003">
        <ele>40.79999923706</ele>
        <time>2015-11-23T20:20:01Z</time>
      </trkpt>
      <trkpt lat="48.84171" lon="2.24986">
        <ele>41.20000076294</ele>
        <time>2015-11-23T20:20:06Z</time>
      </trkpt>
      <trkpt lat="48.84155" lon="2.2497">
        <ele>41.400001525879</ele>
        <time>2015-11-23T20:20:10Z</time>
      </trkpt>
      <trkpt lat="48.84138" lon="2.2495">
        <ele>41.599998474121</ele>
        <time>2015-11-23T20:20:15Z</time>
      </trkpt>
      <trkpt lat="48.84122" lon="2.24936">
        <ele>41.79999923706</ele>
        <time>2015-11-23T20:20:19Z</time>
      </trkpt>
      <trkpt lat="48.84104" lon="2.24916">
        <ele>42</ele>
        <time>2015-11-23T20:20:24Z</time>
      </trkpt>
      <trkpt lat="48.84085" lon="2.24897">
        <ele>42.20000076294</ele>
        <time>2015-11-23T20:20:29Z</time>
      </trkpt>
      <trkpt lat="48.84071" lon="2.24877">
        <ele>42.400001525879</ele>
        <time>2015-11-23T20:20:33Z</time>
      </trkpt>
      <trkpt lat="48.84067" lon="2.2487">
        <ele>42.599998474121</ele>
        <time>2015-11-23T20:20:34Z</time>
      </trkpt>
      <trkpt lat="48.8406" lon="2.24862">
        <ele>42.599998474121</ele>
        <time>2015-11-23T20:20:36Z</time>
      </trkpt>
      <trkpt lat="48.84047" lon="2.24841">
        <ele>42.79999923706</ele>
        <time>2015-11-23T20:20:41Z</time>
      </trkpt>
      <trkpt lat="48.84037" lon="2.24831">
        <ele>43</ele>
        <time>2015-11-23T20:20:45Z</time>
      </trkpt>
      <trkpt lat="48.84022" lon="2.24814">
        <ele>43.20000076294</ele>
        <time>2015-11-23T20:20:50Z</time>
      </trkpt>
      <trkpt lat="48.84008" lon="2.24798">
        <ele>43.400001525879</ele>
        <time>2015-11-23T20:20:57Z</time>
      </trkpt>
      <trkpt lat="48.84005" lon="2.24796">
        <ele>43.400001525879</ele>
        <time>2015-11-23T20:20:58Z</time>
      </trkpt>
      <trkpt lat="48.83986" lon="2.24789">
        <ele>43.400001525879</ele>
        <time>2015-11-23T20:21:03Z</time>
      </trkpt>
      <trkpt lat="48.83967" lon="2.24773">
        <ele>43.599998474121</ele>
        <time>2015-11-23T20:21:08Z</time>
      </trkpt>
      <trkpt lat="48.8395" lon="2.24757">
        <ele>43.79999923706</ele>
        <time>2015-11-23T20:21:13Z</time>
      </trkpt>
      <trkpt lat="48.83931" lon="2.24746">
        <ele>43.79999923706</ele>
        <time>2015-11-23T20:21:19Z</time>
      </trkpt>
      <trkpt lat="48.83914" lon="2.24726">
        <ele>43.400001525879</ele>
        <time>2015-11-23T20:21:25Z</time>
      </trkpt>
      <trkpt lat="48.83899" lon="2.24713">
        <ele>43</ele>
        <time>2015-11-23T20:21:33Z</time>
      </trkpt>
      <trkpt lat="48.83903" lon="2.24698">
        <ele>43</ele>
        <time>2015-11-23T20:21:42Z</time>
      </trkpt>
      <trkpt lat="48.83903" lon="2.24696">
        <ele>43</ele>
        <time>2015-11-23T20:21:43Z</time>
      </trkpt>
      <trkpt lat="48.83901" lon="2.24694">
        <ele>43</ele>
        <time>2015-11-23T20:22:01Z</time>
      </trkpt>
      <trkpt lat="48.83884" lon="2.24684">
        <ele>42.599998474121</ele>
        <time>2015-11-23T20:22:11Z</time>
      </trkpt>
      <trkpt lat="48.83865" lon="2.24675">
        <ele>42.20000076294</ele>
        <time>2015-11-23T20:22:16Z</time>
      </trkpt>
      <trkpt lat="48.83846" lon="2.24664">
        <ele>41.599998474121</ele>
        <time>2015-11-23T20:22:21Z</time>
      </trkpt>
      <trkpt lat="48.83827" lon="2.24653">
        <ele>40.79999923706</ele>
        <time>2015-11-23T20:22:25Z</time>
      </trkpt>
      <trkpt lat="48.83805" lon="2.24645">
        <ele>39.79999923706</ele>
        <time>2015-11-23T20:22:29Z</time>
      </trkpt>
      <trkpt lat="48.83787" lon="2.24638">
        <ele>39</ele>
        <time>2015-11-23T20:22:32Z</time>
      </trkpt>
      <trkpt lat="48.83767" lon="2.2463">
        <ele>38.20000076294</ele>
        <time>2015-11-23T20:22:36Z</time>
      </trkpt>
      <trkpt lat="48.83759" lon="2.24625">
        <ele>38</ele>
        <time>2015-11-23T20:22:38Z</time>
      </trkpt>
      <trkpt lat="48.83739" lon="2.24616">
        <ele>37.400001525879</ele>
        <time>2015-11-23T20:22:42Z</time>
      </trkpt>
      <trkpt lat="48.83728" lon="2.24614">
        <ele>37</ele>
        <time>2015-11-23T20:22:44Z</time>
      </trkpt>
      <trkpt lat="48.83704" lon="2.24605">
        <ele>36.20000076294</ele>
        <time>2015-11-23T20:22:48Z</time>
      </trkpt>
      <trkpt lat="48.83684" lon="2.24599">
        <ele>35.79999923706</ele>
        <time>2015-11-23T20:22:51Z</time>
      </trkpt>
      <trkpt lat="48.83664" lon="2.24589">
        <ele>36.20000076294</ele>
        <time>2015-11-23T20:22:55Z</time>
      </trkpt>
      <trkpt lat="48.83653" lon="2.24582">
        <ele>36.400001525879</ele>
        <time>2015-11-23T20:22:57Z</time>
      </trkpt>
      <trkpt lat="48.83633" lon="2.24573">
        <ele>36.79999923706</ele>
        <time>2015-11-23T20:23:00Z</time>
      </trkpt>
      <trkpt lat="48.83615" lon="2.24559">
        <ele>37.20000076294</ele>
        <time>2015-11-23T20:23:03Z</time>
      </trkpt>
      <trkpt lat="48.83596" lon="2.24547">
        <ele>37.400001525879</ele>
        <time>2015-11-23T20:23:06Z</time>
      </trkpt>
      <trkpt lat="48.83577" lon="2.24538">
        <ele>37.400001525879</ele>
        <time>2015-11-23T20:23:09Z</time>
      </trkpt>
      <trkpt lat="48.83555" lon="2.24525">
        <ele>37.599998474121</ele>
        <time>2015-11-23T20:23:13Z</time>
      </trkpt>
      <trkpt lat="48.83549" lon="2.24523">
        <ele>37.599998474121</ele>
        <time>2015-11-23T20:23:14Z</time>
      </trkpt>
      <trkpt lat="48.83529" lon="2.24506">
        <ele>38</ele>
        <time>2015-11-23T20:23:18Z</time>
      </trkpt>
      <trkpt lat="48.83524" lon="2.24504">
        <ele>38</ele>
        <time>2015-11-23T20:23:19Z</time>
      </trkpt>
      <trkpt lat="48.83508" lon="2.24489">
        <ele>38.400001525879</ele>
        <time>2015-11-23T20:23:23Z</time>
      </trkpt>
      <trkpt lat="48.83488" lon="2.24476">
        <ele>38.79999923706</ele>
        <time>2015-11-23T20:23:27Z</time>
      </trkpt>
      <trkpt lat="48.83469" lon="2.24461">
        <ele>39.20000076294</ele>
        <time>2015-11-23T20:23:31Z</time>
      </trkpt>
      <trkpt lat="48.83454" lon="2.24452">
        <ele>39.599998474121</ele>
        <time>2015-11-23T20:23:34Z</time>
      </trkpt>
      <trkpt lat="48.83432" lon="2.2444">
        <ele>39.79999923706</ele>
        <time>2015-11-23T20:23:38Z</time>
      </trkpt>
      <trkpt lat="48.8341" lon="2.24428">
        <ele>39</ele>
        <time>2015-11-23T20:23:42Z</time>
      </trkpt>
      <trkpt lat="48.83389" lon="2.24417">
        <ele>38.20000076294</ele>
        <time>2015-11-23T20:23:46Z</time>
      </trkpt>
      <trkpt lat="48.83372" lon="2.24409">
        <ele>37.599998474121</ele>
        <time>2015-11-23T20:23:50Z</time>
      </trkpt>
      <trkpt lat="48.83364" lon="2.24405">
        <ele>37.400001525879</ele>
        <time>2015-11-23T20:23:53Z</time>
      </trkpt>
      <trkpt lat="48.83359" lon="2.24405">
        <ele>37.20000076294</ele>
        <time>2015-11-23T20:23:57Z</time>
      </trkpt>
      <trkpt lat="48.83367" lon="2.24386">
        <ele>37.400001525879</ele>
        <time>2015-11-23T20:24:15Z</time>
      </trkpt>
      <trkpt lat="48.83363" lon="2.24366">
        <ele>37.20000076294</ele>
        <time>2015-11-23T20:24:36Z</time>
      </trkpt>
      <trkpt lat="48.83345" lon="2.24356">
        <ele>37.400001525879</ele>
        <time>2015-11-23T20:24:45Z</time>
      </trkpt>
      <trkpt lat="48.83329" lon="2.24344">
        <ele>38</ele>
        <time>2015-11-23T20:24:50Z</time>
      </trkpt>
      <trkpt lat="48.8331" lon="2.24332">
        <ele>38.599998474121</ele>
        <time>2015-11-23T20:24:57Z</time>
      </trkpt>
      <trkpt lat="48.83289" lon="2.24322">
        <ele>39.400001525879</ele>
        <time>2015-11-23T20:25:03Z</time>
      </trkpt>
      <trkpt lat="48.83264" lon="2.2432">
        <ele>39.79999923706</ele>
        <time>2015-11-23T20:25:07Z</time>
      </trkpt>
      <trkpt lat="48.83241" lon="2.24315">
        <ele>38.79999923706</ele>
        <time>2015-11-23T20:25:11Z</time>
      </trkpt>
      <trkpt lat="48.83221" lon="2.24312">
        <ele>38.20000076294</ele>
        <time>2015-11-23T20:25:15Z</time>
      </trkpt>
      <trkpt lat="48.83203" lon="2.24297">
        <ele>37.599998474121</ele>
        <time>2015-11-23T20:25:21Z</time>
      </trkpt>
      <trkpt lat="48.83195" lon="2.24286">
        <ele>37.20000076294</ele>
        <time>2015-11-23T20:25:24Z</time>
      </trkpt>
      <trkpt lat="48.83178" lon="2.24274">
        <ele>36.79999923706</ele>
        <time>2015-11-23T20:25:27Z</time>
      </trkpt>
      <trkpt lat="48.83173" lon="2.24271">
        <ele>36.79999923706</ele>
        <time>2015-11-23T20:25:28Z</time>
      </trkpt>
      <trkpt lat="48.83152" lon="2.24261">
        <ele>36.599998474121</ele>
        <time>2015-11-23T20:25:32Z</time>
      </trkpt>
      <trkpt lat="48.83137" lon="2.24241">
        <ele>36.400001525879</ele>
        <time>2015-11-23T20:25:36Z</time>
      </trkpt>
      <trkpt lat="48.83131" lon="2.24222">
        <ele>36.400001525879</ele>
        <time>2015-11-23T20:25:39Z</time>
      </trkpt>
      <trkpt lat="48.83124" lon="2.24195">
        <ele>36.20000076294</ele>
        <time>2015-11-23T20:25:43Z</time>
      </trkpt>
      <trkpt lat="48.83118" lon="2.24176">
        <ele>36.20000076294</ele>
        <time>2015-11-23T20:25:46Z</time>
      </trkpt>
      <trkpt lat="48.83106" lon="2.24149">
        <ele>36</ele>
        <time>2015-11-23T20:25:50Z</time>
      </trkpt>
      <trkpt lat="48.83094" lon="2.24128">
        <ele>36.20000076294</ele>
        <time>2015-11-23T20:25:54Z</time>
      </trkpt>
      <trkpt lat="48.83084" lon="2.24104">
        <ele>36.599998474121</ele>
        <time>2015-11-23T20:25:59Z</time>
      </trkpt>
      <trkpt lat="48.83074" lon="2.24076">
        <ele>36.79999923706</ele>
        <time>2015-11-23T20:26:05Z</time>
      </trkpt>
      <trkpt lat="48.83065" lon="2.24047">
        <ele>36.599998474121</ele>
        <time>2015-11-23T20:26:11Z</time>
      </trkpt>
      <trkpt lat="48.83054" lon="2.24025">
        <ele>36.599998474121</ele>
        <time>2015-11-23T20:26:15Z</time>
      </trkpt>
      <trkpt lat="48.83046" lon="2.23994">
        <ele>37</ele>
        <time>2015-11-23T20:26:20Z</time>
      </trkpt>
      <trkpt lat="48.83037" lon="2.23971">
        <ele>37.20000076294</ele>
        <time>2015-11-23T20:26:24Z</time>
      </trkpt>
      <trkpt lat="48.83026" lon="2.2395">
        <ele>37.599998474121</ele>
        <time>2015-11-23T20:26:28Z</time>
      </trkpt>
      <trkpt lat="48.8302" lon="2.23939">
        <ele>37.79999923706</ele>
        <time>2015-11-23T20:26:30Z</time>
      </trkpt>
      <trkpt lat="48.83017" lon="2.23935">
        <ele>38</ele>
        <time>2015-11-23T20:26:31Z</time>
      </trkpt>
      <trkpt lat="48.8301" lon="2.2392">
        <ele>38.599998474121</ele>
        <time>2015-11-23T20:26:35Z</time>
      </trkpt>
      <trkpt lat="48.83007" lon="2.23915">
        <ele>38.79999923706</ele>
        <time>2015-11-23T20:26:37Z</time>
      </trkpt>
      <trkpt lat="48.83001" lon="2.23926">
        <ele>39.20000076294</ele>
        <time>2015-11-23T20:26:44Z</time>
      </trkpt>
      <trkpt lat="48.82981" lon="2.23922">
        <ele>40.400001525879</ele>
        <time>2015-11-23T20:26:55Z</time>
      </trkpt>
      <trkpt lat="48.8296" lon="2.23923">
        <ele>41.599998474121</ele>
        <time>2015-11-23T20:27:01Z</time>
      </trkpt>
      <trkpt lat="48.82936" lon="2.2393">
        <ele>42.79999923706</ele>
        <time>2015-11-23T20:27:04Z</time>
      </trkpt>
      <trkpt lat="48.82914" lon="2.23931">
        <ele>40.20000076294</ele>
        <time>2015-11-23T20:27:08Z</time>
      </trkpt>
      <trkpt lat="48.82893" lon="2.23926">
        <ele>38</ele>
        <time>2015-11-23T20:27:12Z</time>
      </trkpt>
      <trkpt lat="48.82873" lon="2.23923">
        <ele>35.79999923706</ele>
        <time>2015-11-23T20:27:16Z</time>
      </trkpt>
      <trkpt lat="48.82853" lon="2.23921">
        <ele>34.599998474121</ele>
        <time>2015-11-23T20:27:20Z</time>
      </trkpt>
      <trkpt lat="48.82834" lon="2.23919">
        <ele>33</ele>
        <time>2015-11-23T20:27:24Z</time>
      </trkpt>
      <trkpt lat="48.82819" lon="2.23913">
        <ele>31.39999961853</ele>
        <time>2015-11-23T20:27:29Z</time>
      </trkpt>
      <trkpt lat="48.82812" lon="2.2391">
        <ele>30.799999237061</ele>
        <time>2015-11-23T20:27:32Z</time>
      </trkpt>
      <trkpt lat="48.82789" lon="2.23907">
        <ele>29.200000762939</ele>
        <time>2015-11-23T20:27:37Z</time>
      </trkpt>
      <trkpt lat="48.82766" lon="2.23907">
        <ele>28</ele>
        <time>2015-11-23T20:27:41Z</time>
      </trkpt>
      <trkpt lat="48.82745" lon="2.23907">
        <ele>29.60000038147</ele>
        <time>2015-11-23T20:27:44Z</time>
      </trkpt>
      <trkpt lat="48.82726" lon="2.23905">
        <ele>30.799999237061</ele>
        <time>2015-11-23T20:27:47Z</time>
      </trkpt>
      <trkpt lat="48.82704" lon="2.23904">
        <ele>32.400001525879</ele>
        <time>2015-11-23T20:27:51Z</time>
      </trkpt>
      <trkpt lat="48.82686" lon="2.239">
        <ele>33.400001525879</ele>
        <time>2015-11-23T20:27:55Z</time>
      </trkpt>
      <trkpt lat="48.82667" lon="2.23897">
        <ele>34.599998474121</ele>
        <time>2015-11-23T20:27:59Z</time>
      </trkpt>
      <trkpt lat="48.82647" lon="2.23894">
        <ele>35.400001525879</ele>
        <time>2015-11-23T20:28:03Z</time>
      </trkpt>
      <trkpt lat="48.82625" lon="2.23891">
        <ele>36</ele>
        <time>2015-11-23T20:28:07Z</time>
      </trkpt>
      <trkpt lat="48.82606" lon="2.23886">
        <ele>36.599998474121</ele>
        <time>2015-11-23T20:28:11Z</time>
      </trkpt>
      <trkpt lat="48.82588" lon="2.23876">
        <ele>36.599998474121</ele>
        <time>2015-11-23T20:28:15Z</time>
      </trkpt>
      <trkpt lat="48.82576" lon="2.23872">
        <ele>36.599998474121</ele>
        <time>2015-11-23T20:28:18Z</time>
      </trkpt>
      <trkpt lat="48.82567" lon="2.23872">
        <ele>36.599998474121</ele>
        <time>2015-11-23T20:28:21Z</time>
      </trkpt>
      <trkpt lat="48.82566" lon="2.23858">
        <ele>36.400001525879</ele>
        <time>2015-11-23T20:28:26Z</time>
      </trkpt>
      <trkpt lat="48.8258" lon="2.23842">
        <ele>36.20000076294</ele>
        <time>2015-11-23T20:28:48Z</time>
      </trkpt>
      <trkpt lat="48.82574" lon="2.23868">
        <ele>36.400001525879</ele>
        <time>2015-11-23T20:28:54Z</time>
      </trkpt>
      <trkpt lat="48.82559" lon="2.23888">
        <ele>36.20000076294</ele>
        <time>2015-11-23T20:29:00Z</time>
      </trkpt>
      <trkpt lat="48.82553" lon="2.23918">
        <ele>35.599998474121</ele>
        <time>2015-11-23T20:29:05Z</time>
      </trkpt>
      <trkpt lat="48.82554" lon="2.2395">
        <ele>35.400001525879</ele>
        <time>2015-11-23T20:29:08Z</time>
      </trkpt>
      <trkpt lat="48.82542" lon="2.23973">
        <ele>35.20000076294</ele>
        <time>2015-11-23T20:29:12Z</time>
      </trkpt>
      <trkpt lat="48.82524" lon="2.23984">
        <ele>35</ele>
        <time>2015-11-23T20:29:18Z</time>
      </trkpt>
      <trkpt lat="48.82509" lon="2.24003">
        <ele>35</ele>
        <time>2015-11-23T20:29:24Z</time>
      </trkpt>
      <trkpt lat="48.82497" lon="2.24031">
        <ele>33.79999923706</ele>
        <time>2015-11-23T20:29:30Z</time>
      </trkpt>
      <trkpt lat="48.82491" lon="2.2405">
        <ele>32.79999923706</ele>
        <time>2015-11-23T20:29:34Z</time>
      </trkpt>
      <trkpt lat="48.82479" lon="2.24077">
        <ele>32.599998474121</ele>
        <time>2015-11-23T20:29:40Z</time>
      </trkpt>
      <trkpt lat="48.82471" lon="2.24106">
        <ele>33</ele>
        <time>2015-11-23T20:29:45Z</time>
      </trkpt>
      <trkpt lat="48.82463" lon="2.24136">
        <ele>32</ele>
        <time>2015-11-23T20:29:50Z</time>
      </trkpt>
      <trkpt lat="48.82455" lon="2.24163">
        <ele>30.799999237061</ele>
        <time>2015-11-23T20:29:56Z</time>
      </trkpt>
      <trkpt lat="48.82455" lon="2.24167">
        <ele>30.799999237061</ele>
        <time>2015-11-23T20:29:57Z</time>
      </trkpt>
      <trkpt lat="48.82469" lon="2.24175">
        <ele>30.799999237061</ele>
        <time>2015-11-23T20:30:05Z</time>
      </trkpt>
      <trkpt lat="48.82487" lon="2.2418">
        <ele>30.60000038147</ele>
        <time>2015-11-23T20:30:13Z</time>
      </trkpt>
      <trkpt lat="48.82506" lon="2.24179">
        <ele>30.39999961853</ele>
        <time>2015-11-23T20:30:21Z</time>
      </trkpt>
      <trkpt lat="48.82524" lon="2.24188">
        <ele>30.39999961853</ele>
        <time>2015-11-23T20:30:28Z</time>
      </trkpt>
      <trkpt lat="48.82544" lon="2.24199">
        <ele>31</ele>
        <time>2015-11-23T20:30:37Z</time>
      </trkpt>
      <trkpt lat="48.82552" lon="2.24203">
        <ele>31.200000762939</ele>
        <time>2015-11-23T20:30:43Z</time>
      </trkpt>
      <trkpt lat="48.82566" lon="2.24202">
        <ele>31.799999237061</ele>
        <time>2015-11-23T20:30:56Z</time>
      </trkpt>
      <trkpt lat="48.82585" lon="2.24196">
        <ele>33</ele>
        <time>2015-11-23T20:31:04Z</time>
      </trkpt>
      <trkpt lat="48.82604" lon="2.24189">
        <ele>34.20000076294</ele>
        <time>2015-11-23T20:31:10Z</time>
      </trkpt>
      <trkpt lat="48.82624" lon="2.24185">
        <ele>35.20000076294</ele>
        <time>2015-11-23T20:31:15Z</time>
      </trkpt>
      <trkpt lat="48.82642" lon="2.24183">
        <ele>35.599998474121</ele>
        <time>2015-11-23T20:31:20Z</time>
      </trkpt>
      <trkpt lat="48.82663" lon="2.24193">
        <ele>36</ele>
        <time>2015-11-23T20:31:25Z</time>
      </trkpt>
      <trkpt lat="48.82671" lon="2.24196">
        <ele>36.20000076294</ele>
        <time>2015-11-23T20:31:28Z</time>
      </trkpt>
      <trkpt lat="48.8268" lon="2.2421">
        <ele>36.20000076294</ele>
        <time>2015-11-23T20:31:33Z</time>
      </trkpt>
      <trkpt lat="48.82688" lon="2.24231">
        <ele>36.20000076294</ele>
        <time>2015-11-23T20:31:39Z</time>
      </trkpt>
      <trkpt lat="48.82678" lon="2.24249">
        <ele>35.599998474121</ele>
        <time>2015-11-23T20:31:45Z</time>
      </trkpt>
      <trkpt lat="48.82666" lon="2.24272">
        <ele>34.79999923706</ele>
        <time>2015-11-23T20:31:51Z</time>
      </trkpt>
      <trkpt lat="48.82664" lon="2.24301">
        <ele>34.400001525879</ele>
        <time>2015-11-23T20:31:55Z</time>
      </trkpt>
      <trkpt lat="48.8266" lon="2.2433">
        <ele>33.20000076294</ele>
        <time>2015-11-23T20:32:00Z</time>
      </trkpt>
      <trkpt lat="48.82657" lon="2.24362">
        <ele>32.400001525879</ele>
        <time>2015-11-23T20:32:05Z</time>
      </trkpt>
      <trkpt lat="48.82649" lon="2.24391">
        <ele>32</ele>
        <time>2015-11-23T20:32:10Z</time>
      </trkpt>
      <trkpt lat="48.82642" lon="2.2442">
        <ele>32.400001525879</ele>
        <time>2015-11-23T20:32:15Z</time>
      </trkpt>
      <trkpt lat="48.82632" lon="2.2445">
        <ele>32.599998474121</ele>
        <time>2015-11-23T20:32:20Z</time>
      </trkpt>
      <trkpt lat="48.82625" lon="2.24477">
        <ele>33.400001525879</ele>
        <time>2015-11-23T20:32:25Z</time>
      </trkpt>
      <trkpt lat="48.82617" lon="2.24504">
        <ele>34</ele>
        <time>2015-11-23T20:32:30Z</time>
      </trkpt>
      <trkpt lat="48.82609" lon="2.2453">
        <ele>34.79999923706</ele>
        <time>2015-11-23T20:32:35Z</time>
      </trkpt>
      <trkpt lat="48.82597" lon="2.24558">
        <ele>35.599998474121</ele>
        <time>2015-11-23T20:32:40Z</time>
      </trkpt>
      <trkpt lat="48.8259" lon="2.24584">
        <ele>36.20000076294</ele>
        <time>2015-11-23T20:32:45Z</time>
      </trkpt>
      <trkpt lat="48.82581" lon="2.2461">
        <ele>36.20000076294</ele>
        <time>2015-11-23T20:32:50Z</time>
      </trkpt>
      <trkpt lat="48.82576" lon="2.24638">
        <ele>36</ele>
        <time>2015-11-23T20:32:55Z</time>
      </trkpt>
      <trkpt lat="48.82568" lon="2.24669">
        <ele>34.599998474121</ele>
        <time>2015-11-23T20:33:01Z</time>
      </trkpt>
      <trkpt lat="48.82562" lon="2.24696">
        <ele>34.400001525879</ele>
        <time>2015-11-23T20:33:06Z</time>
      </trkpt>
      <trkpt lat="48.82555" lon="2.24727">
        <ele>33.79999923706</ele>
        <time>2015-11-23T20:33:12Z</time>
      </trkpt>
      <trkpt lat="48.82546" lon="2.24751">
        <ele>33.400001525879</ele>
        <time>2015-11-23T20:33:17Z</time>
      </trkpt>
      <trkpt lat="48.82542" lon="2.24779">
        <ele>33.79999923706</ele>
        <time>2015-11-23T20:33:22Z</time>
      </trkpt>
      <trkpt lat="48.8254" lon="2.24791">
        <ele>33.79999923706</ele>
        <time>2015-11-23T20:33:25Z</time>
      </trkpt>
      <trkpt lat="48.82524" lon="2.24805">
        <ele>32.20000076294</ele>
        <time>2015-11-23T20:33:28Z</time>
      </trkpt>
      <trkpt lat="48.82521" lon="2.24808">
        <ele>31.799999237061</ele>
        <time>2015-11-23T20:33:29Z</time>
      </trkpt>
      <trkpt lat="48.825" lon="2.24822">
        <ele>31</ele>
        <time>2015-11-23T20:33:43Z</time>
      </trkpt>
      <trkpt lat="48.82486" lon="2.24842">
        <ele>30.60000038147</ele>
        <time>2015-11-23T20:34:04Z</time>
      </trkpt>
      <trkpt lat="48.82473" lon="2.24862">
        <ele>29.60000038147</ele>
        <time>2015-11-23T20:34:12Z</time>
      </trkpt>
      <trkpt lat="48.82454" lon="2.24874">
        <ele>31.200000762939</ele>
        <time>2015-11-23T20:34:20Z</time>
      </trkpt>
      <trkpt lat="48.82435" lon="2.24882">
        <ele>32.79999923706</ele>
        <time>2015-11-23T20:34:27Z</time>
      </trkpt>
      <trkpt lat="48.82418" lon="2.24891">
        <ele>34.20000076294</ele>
        <time>2015-11-23T20:34:32Z</time>
      </trkpt>
      <trkpt lat="48.824" lon="2.24899">
        <ele>35</ele>
        <time>2015-11-23T20:34:37Z</time>
      </trkpt>
      <trkpt lat="48.82382" lon="2.24911">
        <ele>36</ele>
        <time>2015-11-23T20:34:43Z</time>
      </trkpt>
      <trkpt lat="48.82362" lon="2.24924">
        <ele>37.20000076294</ele>
        <time>2015-11-23T20:34:48Z</time>
      </trkpt>
      <trkpt lat="48.82345" lon="2.24939">
        <ele>37.400001525879</ele>
        <time>2015-11-23T20:34:54Z</time>
      </trkpt>
      <trkpt lat="48.82329" lon="2.24955">
        <ele>37.400001525879</ele>
        <time>2015-11-23T20:35:02Z</time>
      </trkpt>
      <trkpt lat="48.82312" lon="2.24967">
        <ele>36.599998474121</ele>
        <time>2015-11-23T20:35:07Z</time>
      </trkpt>
      <trkpt lat="48.82292" lon="2.24979">
        <ele>34.79999923706</ele>
        <time>2015-11-23T20:35:11Z</time>
      </trkpt>
      <trkpt lat="48.82274" lon="2.24987">
        <ele>33.400001525879</ele>
        <time>2015-11-23T20:35:14Z</time>
      </trkpt>
      <trkpt lat="48.82257" lon="2.24997">
        <ele>32.599998474121</ele>
        <time>2015-11-23T20:35:18Z</time>
      </trkpt>
      <trkpt lat="48.82238" lon="2.25007">
        <ele>32.20000076294</ele>
        <time>2015-11-23T20:35:22Z</time>
      </trkpt>
      <trkpt lat="48.82225" lon="2.25012">
        <ele>31.799999237061</ele>
        <time>2015-11-23T20:35:25Z</time>
      </trkpt>
      <trkpt lat="48.82209" lon="2.25006">
        <ele>31.39999961853</ele>
        <time>2015-11-23T20:35:29Z</time>
      </trkpt>
      <trkpt lat="48.82196" lon="2.24998">
        <ele>31.200000762939</ele>
        <time>2015-11-23T20:35:33Z</time>
      </trkpt>
      <trkpt lat="48.82177" lon="2.24992">
        <ele>31.200000762939</ele>
        <time>2015-11-23T20:35:40Z</time>
      </trkpt>
      <trkpt lat="48.82162" lon="2.24993">
        <ele>31.39999961853</ele>
        <time>2015-11-23T20:35:41Z</time>
      </trkpt>
      <trkpt lat="48.82142" lon="2.24991">
        <ele>31.60000038147</ele>
        <time>2015-11-23T20:35:45Z</time>
      </trkpt>
      <trkpt lat="48.82139" lon="2.2499">
        <ele>31.60000038147</ele>
        <time>2015-11-23T20:35:47Z</time>
      </trkpt>
      <trkpt lat="48.8212" lon="2.25002">
        <ele>32</ele>
        <time>2015-11-23T20:36:00Z</time>
      </trkpt>
      <trkpt lat="48.82103" lon="2.25015">
        <ele>33.400001525879</ele>
        <time>2015-11-23T20:36:05Z</time>
      </trkpt>
      <trkpt lat="48.82097" lon="2.25041">
        <ele>35.599998474121</ele>
        <time>2015-11-23T20:36:11Z</time>
      </trkpt>
      <trkpt lat="48.82103" lon="2.25073">
        <ele>37.599998474121</ele>
        <time>2015-11-23T20:36:17Z</time>
      </trkpt>
      <trkpt lat="48.82106" lon="2.25106">
        <ele>40.599998474121</ele>
        <time>2015-11-23T20:36:22Z</time>
      </trkpt>
      <trkpt lat="48.82107" lon="2.25135">
        <ele>43.20000076294</ele>
        <time>2015-11-23T20:36:26Z</time>
      </trkpt>
      <trkpt lat="48.82114" lon="2.25161">
        <ele>44.79999923706</ele>
        <time>2015-11-23T20:36:30Z</time>
      </trkpt>
      <trkpt lat="48.82122" lon="2.25187">
        <ele>43.20000076294</ele>
        <time>2015-11-23T20:36:34Z</time>
      </trkpt>
      <trkpt lat="48.82132" lon="2.25213">
        <ele>40.79999923706</ele>
        <time>2015-11-23T20:36:38Z</time>
      </trkpt>
      <trkpt lat="48.82137" lon="2.25226">
        <ele>39.599998474121</ele>
        <time>2015-11-23T20:36:40Z</time>
      </trkpt>
      <trkpt lat="48.82142" lon="2.25256">
        <ele>37.400001525879</ele>
        <time>2015-11-23T20:36:44Z</time>
      </trkpt>
      <trkpt lat="48.82145" lon="2.25289">
        <ele>35.599998474121</ele>
        <time>2015-11-23T20:36:48Z</time>
      </trkpt>
      <trkpt lat="48.82143" lon="2.25297">
        <ele>35.400001525879</ele>
        <time>2015-11-23T20:36:49Z</time>
      </trkpt>
      <trkpt lat="48.82142" lon="2.25331">
        <ele>34.400001525879</ele>
        <time>2015-11-23T20:36:53Z</time>
      </trkpt>
      <trkpt lat="48.8214" lon="2.25363">
        <ele>34.400001525879</ele>
        <time>2015-11-23T20:36:57Z</time>
      </trkpt>
      <trkpt lat="48.82137" lon="2.25398">
        <ele>34.79999923706</ele>
        <time>2015-11-23T20:37:01Z</time>
      </trkpt>
      <trkpt lat="48.82133" lon="2.25432">
        <ele>35.599998474121</ele>
        <time>2015-11-23T20:37:05Z</time>
      </trkpt>
      <trkpt lat="48.82132" lon="2.25466">
        <ele>35.400001525879</ele>
        <time>2015-11-23T20:37:09Z</time>
      </trkpt>
      <trkpt lat="48.82132" lon="2.25481">
        <ele>35</ele>
        <time>2015-11-23T20:37:11Z</time>
      </trkpt>
      <trkpt lat="48.82133" lon="2.25512">
        <ele>34.400001525879</ele>
        <time>2015-11-23T20:37:15Z</time>
      </trkpt>
      <trkpt lat="48.82133" lon="2.25543">
        <ele>35</ele>
        <time>2015-11-23T20:37:19Z</time>
      </trkpt>
      <trkpt lat="48.82132" lon="2.25559">
        <ele>35.599998474121</ele>
        <time>2015-11-23T20:37:21Z</time>
      </trkpt>
      <trkpt lat="48.82128" lon="2.25589">
        <ele>36.20000076294</ele>
        <time>2015-11-23T20:37:25Z</time>
      </trkpt>
      <trkpt lat="48.82128" lon="2.25604">
        <ele>35.79999923706</ele>
        <time>2015-11-23T20:37:27Z</time>
      </trkpt>
      <trkpt lat="48.82128" lon="2.25634">
        <ele>34.599998474121</ele>
        <time>2015-11-23T20:37:31Z</time>
      </trkpt>
      <trkpt lat="48.82126" lon="2.25665">
        <ele>33.79999923706</ele>
        <time>2015-11-23T20:37:35Z</time>
      </trkpt>
      <trkpt lat="48.82122" lon="2.25696">
        <ele>34.400001525879</ele>
        <time>2015-11-23T20:37:39Z</time>
      </trkpt>
      <trkpt lat="48.82121" lon="2.25712">
        <ele>34.20000076294</ele>
        <time>2015-11-23T20:37:41Z</time>
      </trkpt>
      <trkpt lat="48.82119" lon="2.25743">
        <ele>33.79999923706</ele>
        <time>2015-11-23T20:37:45Z</time>
      </trkpt>
      <trkpt lat="48.82119" lon="2.2575">
        <ele>33.79999923706</ele>
        <time>2015-11-23T20:37:46Z</time>
      </trkpt>
      <trkpt lat="48.82119" lon="2.25777">
        <ele>34.20000076294</ele>
        <time>2015-11-23T20:37:50Z</time>
      </trkpt>
      <trkpt lat="48.82118" lon="2.25806">
        <ele>34.599998474121</ele>
        <time>2015-11-23T20:37:54Z</time>
      </trkpt>
      <trkpt lat="48.82117" lon="2.25821">
        <ele>34.79999923706</ele>
        <time>2015-11-23T20:37:56Z</time>
      </trkpt>
      <trkpt lat="48.82114" lon="2.2585">
        <ele>35.20000076294</ele>
        <time>2015-11-23T20:38:00Z</time>
      </trkpt>
      <trkpt lat="48.82109" lon="2.25877">
        <ele>36</ele>
        <time>2015-11-23T20:38:04Z</time>
      </trkpt>
      <trkpt lat="48.82109" lon="2.2589">
        <ele>36.400001525879</ele>
        <time>2015-11-23T20:38:06Z</time>
      </trkpt>
      <trkpt lat="48.8211" lon="2.25913">
        <ele>36.79999923706</ele>
        <time>2015-11-23T20:38:10Z</time>
      </trkpt>
      <trkpt lat="48.82117" lon="2.25942">
        <ele>37.599998474121</ele>
        <time>2015-11-23T20:38:15Z</time>
      </trkpt>
      <trkpt lat="48.82124" lon="2.25958">
        <ele>38</ele>
        <time>2015-11-23T20:38:18Z</time>
      </trkpt>
      <trkpt lat="48.82126" lon="2.25973">
        <ele>38.400001525879</ele>
        <time>2015-11-23T20:38:21Z</time>
      </trkpt>
      <trkpt lat="48.82124" lon="2.25988">
        <ele>39</ele>
        <time>2015-11-23T20:38:29Z</time>
      </trkpt>
      <trkpt lat="48.82094" lon="2.25995">
        <ele>41.400001525879</ele>
        <time>2015-11-23T20:39:08Z</time>
      </trkpt>
      <trkpt lat="48.82095" lon="2.26024">
        <ele>42.400001525879</ele>
        <time>2015-11-23T20:39:25Z</time>
      </trkpt>
      <trkpt lat="48.82093" lon="2.26044">
        <ele>43.400001525879</ele>
        <time>2015-11-23T20:39:31Z</time>
      </trkpt>
      <trkpt lat="48.82081" lon="2.26058">
        <ele>45.599998474121</ele>
        <time>2015-11-23T20:39:38Z</time>
      </trkpt>
      <trkpt lat="48.8207" lon="2.26086">
        <ele>47.79999923706</ele>
        <time>2015-11-23T20:39:55Z</time>
      </trkpt>
      <trkpt lat="48.82075" lon="2.26117">
        <ele>47.599998474121</ele>
        <time>2015-11-23T20:40:02Z</time>
      </trkpt>
      <trkpt lat="48.82081" lon="2.26143">
        <ele>47.20000076294</ele>
        <time>2015-11-23T20:40:07Z</time>
      </trkpt>
      <trkpt lat="48.82088" lon="2.26168">
        <ele>47.20000076294</ele>
        <time>2015-11-23T20:40:11Z</time>
      </trkpt>
      <trkpt lat="48.82097" lon="2.26202">
        <ele>47</ele>
        <time>2015-11-23T20:40:15Z</time>
      </trkpt>
      <trkpt lat="48.82103" lon="2.26218">
        <ele>46.400001525879</ele>
        <time>2015-11-23T20:40:17Z</time>
      </trkpt>
      <trkpt lat="48.82112" lon="2.26243">
        <ele>46.400001525879</ele>
        <time>2015-11-23T20:40:20Z</time>
      </trkpt>
      <trkpt lat="48.82116" lon="2.26262">
        <ele>46</ele>
        <time>2015-11-23T20:40:22Z</time>
      </trkpt>
      <trkpt lat="48.82121" lon="2.2628">
        <ele>46</ele>
        <time>2015-11-23T20:40:24Z</time>
      </trkpt>
      <trkpt lat="48.82125" lon="2.26308">
        <ele>46.20000076294</ele>
        <time>2015-11-23T20:40:27Z</time>
      </trkpt>
      <trkpt lat="48.82126" lon="2.26316">
        <ele>46.20000076294</ele>
        <time>2015-11-23T20:40:28Z</time>
      </trkpt>
      <trkpt lat="48.82121" lon="2.26327">
        <ele>47</ele>
        <time>2015-11-23T20:40:29Z</time>
      </trkpt>
      <trkpt lat="48.82114" lon="2.26354">
        <ele>49</ele>
        <time>2015-11-23T20:40:33Z</time>
      </trkpt>
      <trkpt lat="48.82111" lon="2.26359">
        <ele>49.599998474121</ele>
        <time>2015-11-23T20:40:34Z</time>
      </trkpt>
      <trkpt lat="48.82101" lon="2.26373">
        <ele>52</ele>
        <time>2015-11-23T20:40:37Z</time>
      </trkpt>
      <trkpt lat="48.82097" lon="2.2637">
        <ele>53</ele>
        <time>2015-11-23T20:40:59Z</time>
      </trkpt>
      <trkpt lat="48.82102" lon="2.26385">
        <ele>52.599998474121</ele>
        <time>2015-11-23T20:41:36Z</time>
      </trkpt>
      <trkpt lat="48.8211" lon="2.26414">
        <ele>52.400001525879</ele>
        <time>2015-11-23T20:41:43Z</time>
      </trkpt>
      <trkpt lat="48.82123" lon="2.26441">
        <ele>51</ele>
        <time>2015-11-23T20:41:48Z</time>
      </trkpt>
      <trkpt lat="48.82135" lon="2.26467">
        <ele>49.400001525879</ele>
        <time>2015-11-23T20:41:52Z</time>
      </trkpt>
      <trkpt lat="48.82138" lon="2.26475">
        <ele>49</ele>
        <time>2015-11-23T20:41:53Z</time>
      </trkpt>
      <trkpt lat="48.82143" lon="2.26491">
        <ele>48.400001525879</ele>
        <time>2015-11-23T20:41:55Z</time>
      </trkpt>
      <trkpt lat="48.82152" lon="2.26524">
        <ele>47.599998474121</ele>
        <time>2015-11-23T20:41:59Z</time>
      </trkpt>
      <trkpt lat="48.82157" lon="2.26551">
        <ele>47.599998474121</ele>
        <time>2015-11-23T20:42:02Z</time>
      </trkpt>
      <trkpt lat="48.82161" lon="2.26578">
        <ele>47.599998474121</ele>
        <time>2015-11-23T20:42:05Z</time>
      </trkpt>
      <trkpt lat="48.82166" lon="2.26607">
        <ele>47</ele>
        <time>2015-11-23T20:42:08Z</time>
      </trkpt>
      <trkpt lat="48.82172" lon="2.26636">
        <ele>46.20000076294</ele>
        <time>2015-11-23T20:42:11Z</time>
      </trkpt>
      <trkpt lat="48.82177" lon="2.26665">
        <ele>46.599998474121</ele>
        <time>2015-11-23T20:42:14Z</time>
      </trkpt>
      <trkpt lat="48.8218" lon="2.26694">
        <ele>46</ele>
        <time>2015-11-23T20:42:17Z</time>
      </trkpt>
      <trkpt lat="48.82183" lon="2.26723">
        <ele>45.20000076294</ele>
        <time>2015-11-23T20:42:20Z</time>
      </trkpt>
      <trkpt lat="48.82187" lon="2.26741">
        <ele>44.400001525879</ele>
        <time>2015-11-23T20:42:22Z</time>
      </trkpt>
      <trkpt lat="48.82196" lon="2.26762">
        <ele>44.400001525879</ele>
        <time>2015-11-23T20:42:25Z</time>
      </trkpt>
      <trkpt lat="48.82212" lon="2.26787">
        <ele>44.20000076294</ele>
        <time>2015-11-23T20:42:29Z</time>
      </trkpt>
      <trkpt lat="48.82228" lon="2.26799">
        <ele>43.20000076294</ele>
        <time>2015-11-23T20:42:33Z</time>
      </trkpt>
      <trkpt lat="48.82235" lon="2.26802">
        <ele>42.599998474121</ele>
        <time>2015-11-23T20:42:35Z</time>
      </trkpt>
      <trkpt lat="48.82243" lon="2.26805">
        <ele>41.79999923706</ele>
        <time>2015-11-23T20:42:37Z</time>
      </trkpt>
      <trkpt lat="48.8225" lon="2.26812">
        <ele>41.400001525879</ele>
        <time>2015-11-23T20:42:41Z</time>
      </trkpt>
      <trkpt lat="48.82251" lon="2.26813">
        <ele>41.400001525879</ele>
        <time>2015-11-23T20:42:42Z</time>
      </trkpt>
      <trkpt lat="48.82268" lon="2.26809">
        <ele>39.400001525879</ele>
        <time>2015-11-23T20:43:01Z</time>
      </trkpt>
      <trkpt lat="48.82286" lon="2.26801">
        <ele>37.79999923706</ele>
        <time>2015-11-23T20:43:09Z</time>
      </trkpt>
      <trkpt lat="48.82304" lon="2.26796">
        <ele>36.599998474121</ele>
        <time>2015-11-23T20:43:14Z</time>
      </trkpt>
      <trkpt lat="48.82324" lon="2.26792">
        <ele>35.400001525879</ele>
        <time>2015-11-23T20:43:20Z</time>
      </trkpt>
      <trkpt lat="48.82343" lon="2.26789">
        <ele>35.20000076294</ele>
        <time>2015-11-23T20:43:25Z</time>
      </trkpt>
      <trkpt lat="48.82361" lon="2.26787">
        <ele>34.79999923706</ele>
        <time>2015-11-23T20:43:30Z</time>
      </trkpt>
      <trkpt lat="48.82381" lon="2.26784">
        <ele>34.400001525879</ele>
        <time>2015-11-23T20:43:35Z</time>
      </trkpt>
      <trkpt lat="48.82389" lon="2.26792">
        <ele>34.20000076294</ele>
        <time>2015-11-23T20:43:38Z</time>
      </trkpt>
      <trkpt lat="48.82399" lon="2.26818">
        <ele>34</ele>
        <time>2015-11-23T20:43:43Z</time>
      </trkpt>
      <trkpt lat="48.82411" lon="2.26844">
        <ele>34.20000076294</ele>
        <time>2015-11-23T20:43:48Z</time>
      </trkpt>
      <trkpt lat="48.82423" lon="2.26872">
        <ele>35</ele>
        <time>2015-11-23T20:43:53Z</time>
      </trkpt>
      <trkpt lat="48.82433" lon="2.26899">
        <ele>35.599998474121</ele>
        <time>2015-11-23T20:43:57Z</time>
      </trkpt>
      <trkpt lat="48.82444" lon="2.26925">
        <ele>36</ele>
        <time>2015-11-23T20:44:01Z</time>
      </trkpt>
      <trkpt lat="48.82457" lon="2.26954">
        <ele>35.79999923706</ele>
        <time>2015-11-23T20:44:05Z</time>
      </trkpt>
      <trkpt lat="48.82464" lon="2.26979">
        <ele>35.79999923706</ele>
        <time>2015-11-23T20:44:09Z</time>
      </trkpt>
      <trkpt lat="48.82473" lon="2.27">
        <ele>35.79999923706</ele>
        <time>2015-11-23T20:44:14Z</time>
      </trkpt>
      <trkpt lat="48.82465" lon="2.27024">
        <ele>36.400001525879</ele>
        <time>2015-11-23T20:44:20Z</time>
      </trkpt>
      <trkpt lat="48.8246" lon="2.27032">
        <ele>36.599998474121</ele>
        <time>2015-11-23T20:44:22Z</time>
      </trkpt>
      <trkpt lat="48.82449" lon="2.2706">
        <ele>37.400001525879</ele>
        <time>2015-11-23T20:44:28Z</time>
      </trkpt>
      <trkpt lat="48.82455" lon="2.27088">
        <ele>37.400001525879</ele>
        <time>2015-11-23T20:44:33Z</time>
      </trkpt>
      <trkpt lat="48.82468" lon="2.27112">
        <ele>36.79999923706</ele>
        <time>2015-11-23T20:44:38Z</time>
      </trkpt>
      <trkpt lat="48.82482" lon="2.27137">
        <ele>36.20000076294</ele>
        <time>2015-11-23T20:44:43Z</time>
      </trkpt>
      <trkpt lat="48.82493" lon="2.2716">
        <ele>35.400001525879</ele>
        <time>2015-11-23T20:44:48Z</time>
      </trkpt>
      <trkpt lat="48.82505" lon="2.27183">
        <ele>36</ele>
        <time>2015-11-23T20:44:53Z</time>
      </trkpt>
      <trkpt lat="48.82515" lon="2.27206">
        <ele>36.599998474121</ele>
        <time>2015-11-23T20:44:58Z</time>
      </trkpt>
      <trkpt lat="48.82525" lon="2.27238">
        <ele>37.599998474121</ele>
        <time>2015-11-23T20:45:03Z</time>
      </trkpt>
      <trkpt lat="48.82533" lon="2.27262">
        <ele>37.599998474121</ele>
        <time>2015-11-23T20:45:07Z</time>
      </trkpt>
      <trkpt lat="48.82542" lon="2.27291">
        <ele>37.20000076294</ele>
        <time>2015-11-23T20:45:12Z</time>
      </trkpt>
      <trkpt lat="48.82549" lon="2.27321">
        <ele>36.79999923706</ele>
        <time>2015-11-23T20:45:18Z</time>
      </trkpt>
      <trkpt lat="48.82553" lon="2.27335">
        <ele>36.599998474121</ele>
        <time>2015-11-23T20:45:22Z</time>
      </trkpt>
      <trkpt lat="48.82568" lon="2.27334">
        <ele>36.400001525879</ele>
        <time>2015-11-23T20:45:28Z</time>
      </trkpt>
      <trkpt lat="48.82588" lon="2.27335">
        <ele>36.20000076294</ele>
        <time>2015-11-23T20:45:34Z</time>
      </trkpt>
      <trkpt lat="48.82608" lon="2.27341">
        <ele>35.79999923706</ele>
        <time>2015-11-23T20:45:40Z</time>
      </trkpt>
      <trkpt lat="48.82627" lon="2.27346">
        <ele>35.599998474121</ele>
        <time>2015-11-23T20:45:45Z</time>
      </trkpt>
      <trkpt lat="48.82645" lon="2.2735">
        <ele>35.20000076294</ele>
        <time>2015-11-23T20:45:49Z</time>
      </trkpt>
      <trkpt lat="48.82663" lon="2.27354">
        <ele>35</ele>
        <time>2015-11-23T20:45:53Z</time>
      </trkpt>
      <trkpt lat="48.82684" lon="2.27359">
        <ele>34.79999923706</ele>
        <time>2015-11-23T20:45:58Z</time>
      </trkpt>
      <trkpt lat="48.82704" lon="2.27362">
        <ele>34.599998474121</ele>
        <time>2015-11-23T20:46:03Z</time>
      </trkpt>
      <trkpt lat="48.82724" lon="2.27366">
        <ele>34.599998474121</ele>
        <time>2015-11-23T20:46:08Z</time>
      </trkpt>
      <trkpt lat="48.82743" lon="2.27367">
        <ele>34.599998474121</ele>
        <time>2015-11-23T20:46:14Z</time>
      </trkpt>
      <trkpt lat="48.82759" lon="2.27362">
        <ele>34.599998474121</ele>
        <time>2015-11-23T20:46:20Z</time>
      </trkpt>
      <trkpt lat="48.82764" lon="2.27369">
        <ele>34.599998474121</ele>
        <time>2015-11-23T20:46:26Z</time>
      </trkpt>
      <trkpt lat="48.82774" lon="2.27392">
        <ele>34.400001525879</ele>
        <time>2015-11-23T20:46:33Z</time>
      </trkpt>
      <trkpt lat="48.8279" lon="2.27412">
        <ele>34.599998474121</ele>
        <time>2015-11-23T20:46:41Z</time>
      </trkpt>
      <trkpt lat="48.82803" lon="2.27433">
        <ele>34.79999923706</ele>
        <time>2015-11-23T20:46:46Z</time>
      </trkpt>
      <trkpt lat="48.82816" lon="2.27457">
        <ele>35</ele>
        <time>2015-11-23T20:46:51Z</time>
      </trkpt>
      <trkpt lat="48.82831" lon="2.27478">
        <ele>35.400001525879</ele>
        <time>2015-11-23T20:46:56Z</time>
      </trkpt>
      <trkpt lat="48.82846" lon="2.275">
        <ele>35.599998474121</ele>
        <time>2015-11-23T20:47:01Z</time>
      </trkpt>
      <trkpt lat="48.82859" lon="2.27519">
        <ele>36</ele>
        <time>2015-11-23T20:47:05Z</time>
      </trkpt>
      <trkpt lat="48.82875" lon="2.27538">
        <ele>35.79999923706</ele>
        <time>2015-11-23T20:47:09Z</time>
      </trkpt>
      <trkpt lat="48.8289" lon="2.27558">
        <ele>35.599998474121</ele>
        <time>2015-11-23T20:47:13Z</time>
      </trkpt>
      <trkpt lat="48.82903" lon="2.27581">
        <ele>35.400001525879</ele>
        <time>2015-11-23T20:47:17Z</time>
      </trkpt>
      <trkpt lat="48.82917" lon="2.27604">
        <ele>35</ele>
        <time>2015-11-23T20:47:21Z</time>
      </trkpt>
      <trkpt lat="48.8293" lon="2.27628">
        <ele>34.599998474121</ele>
        <time>2015-11-23T20:47:25Z</time>
      </trkpt>
      <trkpt lat="48.82943" lon="2.27652">
        <ele>34.20000076294</ele>
        <time>2015-11-23T20:47:29Z</time>
      </trkpt>
      <trkpt lat="48.82957" lon="2.27676">
        <ele>34.20000076294</ele>
        <time>2015-11-23T20:47:33Z</time>
      </trkpt>
      <trkpt lat="48.82977" lon="2.27696">
        <ele>34.400001525879</ele>
        <time>2015-11-23T20:47:37Z</time>
      </trkpt>
      <trkpt lat="48.8299" lon="2.2771">
        <ele>34.599998474121</ele>
        <time>2015-11-23T20:47:40Z</time>
      </trkpt>
      <trkpt lat="48.83006" lon="2.27732">
        <ele>34.79999923706</ele>
        <time>2015-11-23T20:47:44Z</time>
      </trkpt>
      <trkpt lat="48.83021" lon="2.27752">
        <ele>35</ele>
        <time>2015-11-23T20:47:48Z</time>
      </trkpt>
      <trkpt lat="48.83036" lon="2.2777">
        <ele>35.20000076294</ele>
        <time>2015-11-23T20:47:52Z</time>
      </trkpt>
      <trkpt lat="48.83052" lon="2.27788">
        <ele>35.599998474121</ele>
        <time>2015-11-23T20:47:57Z</time>
      </trkpt>
      <trkpt lat="48.83058" lon="2.27796">
        <ele>35.79999923706</ele>
        <time>2015-11-23T20:47:59Z</time>
      </trkpt>
      <trkpt lat="48.83074" lon="2.27816">
        <ele>36</ele>
        <time>2015-11-23T20:48:04Z</time>
      </trkpt>
      <trkpt lat="48.83089" lon="2.27838">
        <ele>36.20000076294</ele>
        <time>2015-11-23T20:48:09Z</time>
      </trkpt>
      <trkpt lat="48.83105" lon="2.27859">
        <ele>36.20000076294</ele>
        <time>2015-11-23T20:48:14Z</time>
      </trkpt>
      <trkpt lat="48.83117" lon="2.27882">
        <ele>35.79999923706</ele>
        <time>2015-11-23T20:48:18Z</time>
      </trkpt>
      <trkpt lat="48.8313" lon="2.27905">
        <ele>35.20000076294</ele>
        <time>2015-11-23T20:48:22Z</time>
      </trkpt>
      <trkpt lat="48.83142" lon="2.27925">
        <ele>35</ele>
        <time>2015-11-23T20:48:26Z</time>
      </trkpt>
      <trkpt lat="48.83155" lon="2.27946">
        <ele>35</ele>
        <time>2015-11-23T20:48:30Z</time>
      </trkpt>
      <trkpt lat="48.83169" lon="2.27965">
        <ele>35</ele>
        <time>2015-11-23T20:48:34Z</time>
      </trkpt>
      <trkpt lat="48.83178" lon="2.27978">
        <ele>35</ele>
        <time>2015-11-23T20:48:37Z</time>
      </trkpt>
      <trkpt lat="48.83188" lon="2.28003">
        <ele>35.20000076294</ele>
        <time>2015-11-23T20:48:42Z</time>
      </trkpt>
      <trkpt lat="48.83195" lon="2.28013">
        <ele>35.400001525879</ele>
        <time>2015-11-23T20:48:45Z</time>
      </trkpt>
      <trkpt lat="48.83207" lon="2.28031">
        <ele>35.599998474121</ele>
        <time>2015-11-23T20:49:27Z</time>
      </trkpt>
      <trkpt lat="48.83217" lon="2.28056">
        <ele>36</ele>
        <time>2015-11-23T20:49:36Z</time>
      </trkpt>
      <trkpt lat="48.83234" lon="2.28069">
        <ele>36.20000076294</ele>
        <time>2015-11-23T20:49:46Z</time>
      </trkpt>
      <trkpt lat="48.83247" lon="2.28092">
        <ele>36.79999923706</ele>
        <time>2015-11-23T20:49:51Z</time>
      </trkpt>
      <trkpt lat="48.83263" lon="2.28111">
        <ele>37.20000076294</ele>
        <time>2015-11-23T20:49:56Z</time>
      </trkpt>
      <trkpt lat="48.83276" lon="2.28138">
        <ele>38.20000076294</ele>
        <time>2015-11-23T20:50:03Z</time>
      </trkpt>
      <trkpt lat="48.83288" lon="2.28159">
        <ele>39</ele>
        <time>2015-11-23T20:50:08Z</time>
      </trkpt>
      <trkpt lat="48.83299" lon="2.28183">
        <ele>39</ele>
        <time>2015-11-23T20:50:13Z</time>
      </trkpt>
      <trkpt lat="48.83316" lon="2.28201">
        <ele>39</ele>
        <time>2015-11-23T20:50:18Z</time>
      </trkpt>
      <trkpt lat="48.8333" lon="2.28223">
        <ele>39.20000076294</ele>
        <time>2015-11-23T20:50:23Z</time>
      </trkpt>
      <trkpt lat="48.83344" lon="2.28247">
        <ele>39.79999923706</ele>
        <time>2015-11-23T20:50:28Z</time>
      </trkpt>
      <trkpt lat="48.83357" lon="2.28272">
        <ele>40.20000076294</ele>
        <time>2015-11-23T20:50:33Z</time>
      </trkpt>
      <trkpt lat="48.83373" lon="2.28296">
        <ele>40.20000076294</ele>
        <time>2015-11-23T20:50:38Z</time>
      </trkpt>
      <trkpt lat="48.83387" lon="2.28321">
        <ele>40.400001525879</ele>
        <time>2015-11-23T20:50:43Z</time>
      </trkpt>
      <trkpt lat="48.83397" lon="2.28349">
        <ele>40</ele>
        <time>2015-11-23T20:50:48Z</time>
      </trkpt>
      <trkpt lat="48.83405" lon="2.28369">
        <ele>39.400001525879</ele>
        <time>2015-11-23T20:50:53Z</time>
      </trkpt>
      <trkpt lat="48.83411" lon="2.28372">
        <ele>39</ele>
        <time>2015-11-23T20:50:55Z</time>
      </trkpt>
      <trkpt lat="48.8343" lon="2.28378">
        <ele>37.599998474121</ele>
        <time>2015-11-23T20:51:03Z</time>
      </trkpt>
      <trkpt lat="48.83446" lon="2.28392">
        <ele>37.20000076294</ele>
        <time>2015-11-23T20:51:31Z</time>
      </trkpt>
      <trkpt lat="48.83459" lon="2.28418">
        <ele>37.599998474121</ele>
        <time>2015-11-23T20:51:40Z</time>
      </trkpt>
      <trkpt lat="48.83471" lon="2.28438">
        <ele>37.599998474121</ele>
        <time>2015-11-23T20:51:45Z</time>
      </trkpt>
      <trkpt lat="48.83487" lon="2.2846">
        <ele>37.599998474121</ele>
        <time>2015-11-23T20:51:51Z</time>
      </trkpt>
      <trkpt lat="48.83501" lon="2.2848">
        <ele>37.599998474121</ele>
        <time>2015-11-23T20:51:56Z</time>
      </trkpt>
      <trkpt lat="48.83515" lon="2.28504">
        <ele>38</ele>
        <time>2015-11-23T20:52:02Z</time>
      </trkpt>
      <trkpt lat="48.83527" lon="2.28526">
        <ele>38.79999923706</ele>
        <time>2015-11-23T20:52:06Z</time>
      </trkpt>
      <trkpt lat="48.8354" lon="2.2855">
        <ele>39.79999923706</ele>
        <time>2015-11-23T20:52:10Z</time>
      </trkpt>
      <trkpt lat="48.83554" lon="2.28573">
        <ele>40.599998474121</ele>
        <time>2015-11-23T20:52:14Z</time>
      </trkpt>
      <trkpt lat="48.83561" lon="2.28605">
        <ele>41.20000076294</ele>
        <time>2015-11-23T20:52:18Z</time>
      </trkpt>
      <trkpt lat="48.83568" lon="2.28639">
        <ele>41.79999923706</ele>
        <time>2015-11-23T20:52:22Z</time>
      </trkpt>
      <trkpt lat="48.8357" lon="2.28646">
        <ele>42</ele>
        <time>2015-11-23T20:52:23Z</time>
      </trkpt>
      <trkpt lat="48.83574" lon="2.2866">
        <ele>42.20000076294</ele>
        <time>2015-11-23T20:52:25Z</time>
      </trkpt>
      <trkpt lat="48.83584" lon="2.28687">
        <ele>41</ele>
        <time>2015-11-23T20:52:29Z</time>
      </trkpt>
      <trkpt lat="48.8359" lon="2.28715">
        <ele>39.599998474121</ele>
        <time>2015-11-23T20:52:33Z</time>
      </trkpt>
      <trkpt lat="48.83595" lon="2.28744">
        <ele>38.400001525879</ele>
        <time>2015-11-23T20:52:37Z</time>
      </trkpt>
      <trkpt lat="48.83597" lon="2.28759">
        <ele>38.20000076294</ele>
        <time>2015-11-23T20:52:39Z</time>
      </trkpt>
      <trkpt lat="48.83598" lon="2.28781">
        <ele>38</ele>
        <time>2015-11-23T20:52:42Z</time>
      </trkpt>
      <trkpt lat="48.836" lon="2.28811">
        <ele>37.400001525879</ele>
        <time>2015-11-23T20:52:46Z</time>
      </trkpt>
      <trkpt lat="48.83601" lon="2.28842">
        <ele>38.20000076294</ele>
        <time>2015-11-23T20:52:50Z</time>
      </trkpt>
      <trkpt lat="48.83598" lon="2.28871">
        <ele>39.79999923706</ele>
        <time>2015-11-23T20:52:54Z</time>
      </trkpt>
      <trkpt lat="48.83594" lon="2.289">
        <ele>41.599998474121</ele>
        <time>2015-11-23T20:52:58Z</time>
      </trkpt>
      <trkpt lat="48.83592" lon="2.28913">
        <ele>42.20000076294</ele>
        <time>2015-11-23T20:53:00Z</time>
      </trkpt>
      <trkpt lat="48.83589" lon="2.28944">
        <ele>42</ele>
        <time>2015-11-23T20:53:05Z</time>
      </trkpt>
      <trkpt lat="48.83588" lon="2.28961">
        <ele>42</ele>
        <time>2015-11-23T20:53:10Z</time>
      </trkpt>
      <trkpt lat="48.83586" lon="2.28969">
        <ele>42</ele>
        <time>2015-11-23T20:53:16Z</time>
      </trkpt>
      <trkpt lat="48.83585" lon="2.28971">
        <ele>42</ele>
        <time>2015-11-23T20:53:17Z</time>
      </trkpt>
      <trkpt lat="48.83592" lon="2.28998">
        <ele>41.20000076294</ele>
        <time>2015-11-23T20:53:27Z</time>
      </trkpt>
      <trkpt lat="48.83597" lon="2.29025">
        <ele>41.400001525879</ele>
        <time>2015-11-23T20:53:32Z</time>
      </trkpt>
      <trkpt lat="48.83602" lon="2.29054">
        <ele>41.79999923706</ele>
        <time>2015-11-23T20:53:37Z</time>
      </trkpt>
      <trkpt lat="48.83601" lon="2.29081">
        <ele>42.400001525879</ele>
        <time>2015-11-23T20:53:41Z</time>
      </trkpt>
      <trkpt lat="48.83602" lon="2.29108">
        <ele>43.20000076294</ele>
        <time>2015-11-23T20:53:45Z</time>
      </trkpt>
      <trkpt lat="48.83601" lon="2.29141">
        <ele>44.599998474121</ele>
        <time>2015-11-23T20:53:50Z</time>
      </trkpt>
      <trkpt lat="48.83602" lon="2.29173">
        <ele>45.400001525879</ele>
        <time>2015-11-23T20:53:55Z</time>
      </trkpt>
      <trkpt lat="48.83596" lon="2.29203">
        <ele>46.400001525879</ele>
        <time>2015-11-23T20:54:00Z</time>
      </trkpt>
      <trkpt lat="48.83598" lon="2.29226">
        <ele>46.79999923706</ele>
        <time>2015-11-23T20:54:03Z</time>
      </trkpt>
      <trkpt lat="48.83593" lon="2.29254">
        <ele>47.400001525879</ele>
        <time>2015-11-23T20:54:07Z</time>
      </trkpt>
      <trkpt lat="48.83591" lon="2.29261">
        <ele>47.599998474121</ele>
        <time>2015-11-23T20:54:08Z</time>
      </trkpt>
      <trkpt lat="48.83587" lon="2.29292">
        <ele>47.599998474121</ele>
        <time>2015-11-23T20:54:13Z</time>
      </trkpt>
      <trkpt lat="48.83586" lon="2.29321">
        <ele>47.599998474121</ele>
        <time>2015-11-23T20:54:17Z</time>
      </trkpt>
      <trkpt lat="48.83584" lon="2.29327">
        <ele>47.599998474121</ele>
        <time>2015-11-23T20:54:18Z</time>
      </trkpt>
      <trkpt lat="48.83606" lon="2.29364">
        <ele>48.20000076294</ele>
        <time>2015-11-23T20:54:27Z</time>
      </trkpt>
      <trkpt lat="48.83607" lon="2.29365">
        <ele>48.20000076294</ele>
        <time>2015-11-23T20:54:28Z</time>
      </trkpt>
      <trkpt lat="48.83614" lon="2.29392">
        <ele>49.400001525879</ele>
        <time>2015-11-23T20:54:45Z</time>
      </trkpt>
      <trkpt lat="48.83625" lon="2.29415">
        <ele>50.20000076294</ele>
        <time>2015-11-23T20:54:51Z</time>
      </trkpt>
      <trkpt lat="48.8364" lon="2.29439">
        <ele>50.20000076294</ele>
        <time>2015-11-23T20:54:57Z</time>
      </trkpt>
      <trkpt lat="48.83653" lon="2.29459">
        <ele>50</ele>
        <time>2015-11-23T20:55:02Z</time>
      </trkpt>
      <trkpt lat="48.83668" lon="2.29483">
        <ele>50</ele>
        <time>2015-11-23T20:55:08Z</time>
      </trkpt>
      <trkpt lat="48.83679" lon="2.2951">
        <ele>49.400001525879</ele>
        <time>2015-11-23T20:55:14Z</time>
      </trkpt>
      <trkpt lat="48.8369" lon="2.29536">
        <ele>48</ele>
        <time>2015-11-23T20:55:19Z</time>
      </trkpt>
      <trkpt lat="48.83701" lon="2.29562">
        <ele>46.20000076294</ele>
        <time>2015-11-23T20:55:24Z</time>
      </trkpt>
      <trkpt lat="48.83713" lon="2.2959">
        <ele>45</ele>
        <time>2015-11-23T20:55:30Z</time>
      </trkpt>
      <trkpt lat="48.83725" lon="2.29616">
        <ele>45.20000076294</ele>
        <time>2015-11-23T20:55:36Z</time>
      </trkpt>
      <trkpt lat="48.8374" lon="2.2964">
        <ele>44.599998474121</ele>
        <time>2015-11-23T20:55:42Z</time>
      </trkpt>
      <trkpt lat="48.83753" lon="2.29659">
        <ele>44.20000076294</ele>
        <time>2015-11-23T20:55:49Z</time>
      </trkpt>
      <trkpt lat="48.83766" lon="2.29687">
        <ele>45</ele>
        <time>2015-11-23T20:55:57Z</time>
      </trkpt>
      <trkpt lat="48.83776" lon="2.29712">
        <ele>45.599998474121</ele>
        <time>2015-11-23T20:56:03Z</time>
      </trkpt>
      <trkpt lat="48.83788" lon="2.29733">
        <ele>46.20000076294</ele>
        <time>2015-11-23T20:56:10Z</time>
      </trkpt>
      <trkpt lat="48.83798" lon="2.29764">
        <ele>47.599998474121</ele>
        <time>2015-11-23T20:56:15Z</time>
      </trkpt>
      <trkpt lat="48.83813" lon="2.29785">
        <ele>48.79999923706</ele>
        <time>2015-11-23T20:56:21Z</time>
      </trkpt>
      <trkpt lat="48.83824" lon="2.29808">
        <ele>50</ele>
        <time>2015-11-23T20:56:25Z</time>
      </trkpt>
      <trkpt lat="48.83835" lon="2.2983">
        <ele>51</ele>
        <time>2015-11-23T20:56:29Z</time>
      </trkpt>
      <trkpt lat="48.83847" lon="2.29853">
        <ele>51.20000076294</ele>
        <time>2015-11-23T20:56:34Z</time>
      </trkpt>
      <trkpt lat="48.83859" lon="2.29879">
        <ele>51.599998474121</ele>
        <time>2015-11-23T20:56:40Z</time>
      </trkpt>
      <trkpt lat="48.83873" lon="2.29901">
        <ele>51.400001525879</ele>
        <time>2015-11-23T20:56:46Z</time>
      </trkpt>
      <trkpt lat="48.83886" lon="2.29923">
        <ele>51.79999923706</ele>
        <time>2015-11-23T20:56:51Z</time>
      </trkpt>
      <trkpt lat="48.83897" lon="2.29948">
        <ele>52.599998474121</ele>
        <time>2015-11-23T20:56:56Z</time>
      </trkpt>
      <trkpt lat="48.83908" lon="2.29974">
        <ele>53.20000076294</ele>
        <time>2015-11-23T20:57:01Z</time>
      </trkpt>
      <trkpt lat="48.8392" lon="2.29999">
        <ele>53.599998474121</ele>
        <time>2015-11-23T20:57:04Z</time>
      </trkpt>
      <trkpt lat="48.83928" lon="2.30028">
        <ele>54.20000076294</ele>
        <time>2015-11-23T20:57:08Z</time>
      </trkpt>
      <trkpt lat="48.83936" lon="2.30057">
        <ele>54.599998474121</ele>
        <time>2015-11-23T20:57:12Z</time>
      </trkpt>
      <trkpt lat="48.83944" lon="2.30074">
        <ele>54.79999923706</ele>
        <time>2015-11-23T20:57:15Z</time>
      </trkpt>
      <trkpt lat="48.83957" lon="2.30101">
        <ele>54.400001525879</ele>
        <time>2015-11-23T20:57:20Z</time>
      </trkpt>
      <trkpt lat="48.83958" lon="2.30108">
        <ele>54.400001525879</ele>
        <time>2015-11-23T20:57:21Z</time>
      </trkpt>
      <trkpt lat="48.83966" lon="2.30133">
        <ele>53.79999923706</ele>
        <time>2015-11-23T20:57:25Z</time>
      </trkpt>
      <trkpt lat="48.83973" lon="2.30152">
        <ele>53.20000076294</ele>
        <time>2015-11-23T20:57:28Z</time>
      </trkpt>
      <trkpt lat="48.8398" lon="2.30174">
        <ele>52.79999923706</ele>
        <time>2015-11-23T20:57:31Z</time>
      </trkpt>
      <trkpt lat="48.83986" lon="2.30202">
        <ele>52.599998474121</ele>
        <time>2015-11-23T20:57:35Z</time>
      </trkpt>
      <trkpt lat="48.83993" lon="2.3023">
        <ele>52.400001525879</ele>
        <time>2015-11-23T20:57:41Z</time>
      </trkpt>
      <trkpt lat="48.84003" lon="2.30258">
        <ele>52.599998474121</ele>
        <time>2015-11-23T20:58:01Z</time>
      </trkpt>
      <trkpt lat="48.8401" lon="2.30288">
        <ele>53.20000076294</ele>
        <time>2015-11-23T20:58:06Z</time>
      </trkpt>
      <trkpt lat="48.84019" lon="2.30317">
        <ele>53.79999923706</ele>
        <time>2015-11-23T20:58:11Z</time>
      </trkpt>
      <trkpt lat="48.84028" lon="2.30348">
        <ele>53.400001525879</ele>
        <time>2015-11-23T20:58:16Z</time>
      </trkpt>
      <trkpt lat="48.84035" lon="2.3038">
        <ele>52.599998474121</ele>
        <time>2015-11-23T20:58:21Z</time>
      </trkpt>
      <trkpt lat="48.84043" lon="2.30405">
        <ele>51.79999923706</ele>
        <time>2015-11-23T20:58:25Z</time>
      </trkpt>
      <trkpt lat="48.84051" lon="2.30434">
        <ele>51.20000076294</ele>
        <time>2015-11-23T20:58:30Z</time>
      </trkpt>
      <trkpt lat="48.84054" lon="2.30453">
        <ele>51</ele>
        <time>2015-11-23T20:58:33Z</time>
      </trkpt>
      <trkpt lat="48.84064" lon="2.30478">
        <ele>50.400001525879</ele>
        <time>2015-11-23T20:58:37Z</time>
      </trkpt>
      <trkpt lat="48.84075" lon="2.30501">
        <ele>50</ele>
        <time>2015-11-23T20:58:41Z</time>
      </trkpt>
      <trkpt lat="48.84085" lon="2.30527">
        <ele>50</ele>
        <time>2015-11-23T20:58:45Z</time>
      </trkpt>
      <trkpt lat="48.84096" lon="2.30554">
        <ele>50</ele>
        <time>2015-11-23T20:58:49Z</time>
      </trkpt>
      <trkpt lat="48.84099" lon="2.30569">
        <ele>50.20000076294</ele>
        <time>2015-11-23T20:58:51Z</time>
      </trkpt>
      <trkpt lat="48.84107" lon="2.30597">
        <ele>50.400001525879</ele>
        <time>2015-11-23T20:58:55Z</time>
      </trkpt>
      <trkpt lat="48.84114" lon="2.30627">
        <ele>51</ele>
        <time>2015-11-23T20:58:59Z</time>
      </trkpt>
      <trkpt lat="48.84124" lon="2.30651">
        <ele>51</ele>
        <time>2015-11-23T20:59:03Z</time>
      </trkpt>
      <trkpt lat="48.84129" lon="2.30677">
        <ele>51.79999923706</ele>
        <time>2015-11-23T20:59:07Z</time>
      </trkpt>
      <trkpt lat="48.84133" lon="2.307">
        <ele>51.79999923706</ele>
        <time>2015-11-23T20:59:10Z</time>
      </trkpt>
      <trkpt lat="48.84142" lon="2.30729">
        <ele>51</ele>
        <time>2015-11-23T20:59:14Z</time>
      </trkpt>
      <trkpt lat="48.84147" lon="2.30751">
        <ele>50.400001525879</ele>
        <time>2015-11-23T20:59:17Z</time>
      </trkpt>
      <trkpt lat="48.84153" lon="2.30778">
        <ele>49.599998474121</ele>
        <time>2015-11-23T20:59:21Z</time>
      </trkpt>
      <trkpt lat="48.8416" lon="2.3081">
        <ele>49</ele>
        <time>2015-11-23T20:59:26Z</time>
      </trkpt>
      <trkpt lat="48.84169" lon="2.30837">
        <ele>48.599998474121</ele>
        <time>2015-11-23T20:59:30Z</time>
      </trkpt>
      <trkpt lat="48.84177" lon="2.3086">
        <ele>49</ele>
        <time>2015-11-23T20:59:34Z</time>
      </trkpt>
      <trkpt lat="48.84182" lon="2.30873">
        <ele>49.20000076294</ele>
        <time>2015-11-23T20:59:36Z</time>
      </trkpt>
      <trkpt lat="48.84188" lon="2.3089">
        <ele>49.400001525879</ele>
        <time>2015-11-23T20:59:39Z</time>
      </trkpt>
      <trkpt lat="48.84198" lon="2.30918">
        <ele>50</ele>
        <time>2015-11-23T20:59:44Z</time>
      </trkpt>
      <trkpt lat="48.842" lon="2.30923">
        <ele>50</ele>
        <time>2015-11-23T20:59:45Z</time>
      </trkpt>
      <trkpt lat="48.84207" lon="2.30949">
        <ele>50.20000076294</ele>
        <time>2015-11-23T20:59:50Z</time>
      </trkpt>
      <trkpt lat="48.84213" lon="2.30965">
        <ele>50.400001525879</ele>
        <time>2015-11-23T20:59:53Z</time>
      </trkpt>
      <trkpt lat="48.84223" lon="2.30993">
        <ele>50.599998474121</ele>
        <time>2015-11-23T20:59:58Z</time>
      </trkpt>
      <trkpt lat="48.84228" lon="2.31024">
        <ele>50.79999923706</ele>
        <time>2015-11-23T21:00:03Z</time>
      </trkpt>
      <trkpt lat="48.84228" lon="2.3103">
        <ele>51</ele>
        <time>2015-11-23T21:00:04Z</time>
      </trkpt>
      <trkpt lat="48.84233" lon="2.31061">
        <ele>51.20000076294</ele>
        <time>2015-11-23T21:00:09Z</time>
      </trkpt>
      <trkpt lat="48.84234" lon="2.31067">
        <ele>51.400001525879</ele>
        <time>2015-11-23T21:00:10Z</time>
      </trkpt>
      <trkpt lat="48.84241" lon="2.3109">
        <ele>51.400001525879</ele>
        <time>2015-11-23T21:00:14Z</time>
      </trkpt>
      <trkpt lat="48.84248" lon="2.31105">
        <ele>51.20000076294</ele>
        <time>2015-11-23T21:00:17Z</time>
      </trkpt>
      <trkpt lat="48.84256" lon="2.31119">
        <ele>51.20000076294</ele>
        <time>2015-11-23T21:00:20Z</time>
      </trkpt>
      <trkpt lat="48.84262" lon="2.3114">
        <ele>51.20000076294</ele>
        <time>2015-11-23T21:00:24Z</time>
      </trkpt>
      <trkpt lat="48.84269" lon="2.31168">
        <ele>51.20000076294</ele>
        <time>2015-11-23T21:00:29Z</time>
      </trkpt>
      <trkpt lat="48.84274" lon="2.31183">
        <ele>50.79999923706</ele>
        <time>2015-11-23T21:00:32Z</time>
      </trkpt>
      <trkpt lat="48.84284" lon="2.31211">
        <ele>50.400001525879</ele>
        <time>2015-11-23T21:00:38Z</time>
      </trkpt>
      <trkpt lat="48.84286" lon="2.31219">
        <ele>50.400001525879</ele>
        <time>2015-11-23T21:00:40Z</time>
      </trkpt>
      <trkpt lat="48.84289" lon="2.31236">
        <ele>50.20000076294</ele>
        <time>2015-11-23T21:00:45Z</time>
      </trkpt>
      <trkpt lat="48.84297" lon="2.31263">
        <ele>50</ele>
        <time>2015-11-23T21:00:54Z</time>
      </trkpt>
      <trkpt lat="48.84305" lon="2.31288">
        <ele>50.20000076294</ele>
        <time>2015-11-23T21:01:02Z</time>
      </trkpt>
      <trkpt lat="48.84314" lon="2.31315">
        <ele>50.599998474121</ele>
        <time>2015-11-23T21:01:09Z</time>
      </trkpt>
      <trkpt lat="48.84325" lon="2.31341">
        <ele>51.20000076294</ele>
        <time>2015-11-23T21:01:15Z</time>
      </trkpt>
      <trkpt lat="48.84329" lon="2.31359">
        <ele>51.599998474121</ele>
        <time>2015-11-23T21:01:19Z</time>
      </trkpt>
      <trkpt lat="48.84338" lon="2.31384">
        <ele>52.400001525879</ele>
        <time>2015-11-23T21:01:24Z</time>
      </trkpt>
      <trkpt lat="48.84348" lon="2.31412">
        <ele>53.20000076294</ele>
        <time>2015-11-23T21:01:29Z</time>
      </trkpt>
      <trkpt lat="48.84356" lon="2.3144">
        <ele>53.599998474121</ele>
        <time>2015-11-23T21:01:34Z</time>
      </trkpt>
      <trkpt lat="48.84364" lon="2.31466">
        <ele>53.599998474121</ele>
        <time>2015-11-23T21:01:39Z</time>
      </trkpt>
      <trkpt lat="48.84372" lon="2.31493">
        <ele>53.20000076294</ele>
        <time>2015-11-23T21:01:44Z</time>
      </trkpt>
      <trkpt lat="48.84384" lon="2.31519">
        <ele>52.599998474121</ele>
        <time>2015-11-23T21:01:49Z</time>
      </trkpt>
      <trkpt lat="48.84397" lon="2.31546">
        <ele>51.400001525879</ele>
        <time>2015-11-23T21:01:54Z</time>
      </trkpt>
      <trkpt lat="48.84405" lon="2.31576">
        <ele>50.599998474121</ele>
        <time>2015-11-23T21:01:59Z</time>
      </trkpt>
      <trkpt lat="48.84412" lon="2.31608">
        <ele>51</ele>
        <time>2015-11-23T21:02:04Z</time>
      </trkpt>
      <trkpt lat="48.84416" lon="2.31635">
        <ele>51.599998474121</ele>
        <time>2015-11-23T21:02:08Z</time>
      </trkpt>
      <trkpt lat="48.84423" lon="2.31667">
        <ele>51.400001525879</ele>
        <time>2015-11-23T21:02:13Z</time>
      </trkpt>
      <trkpt lat="48.84431" lon="2.31692">
        <ele>51.20000076294</ele>
        <time>2015-11-23T21:02:17Z</time>
      </trkpt>
      <trkpt lat="48.84439" lon="2.31717">
        <ele>51</ele>
        <time>2015-11-23T21:02:21Z</time>
      </trkpt>
      <trkpt lat="48.84449" lon="2.31743">
        <ele>50.599998474121</ele>
        <time>2015-11-23T21:02:25Z</time>
      </trkpt>
      <trkpt lat="48.84459" lon="2.31759">
        <ele>50.79999923706</ele>
        <time>2015-11-23T21:02:28Z</time>
      </trkpt>
      <trkpt lat="48.84463" lon="2.31792">
        <ele>52</ele>
        <time>2015-11-23T21:02:33Z</time>
      </trkpt>
      <trkpt lat="48.84468" lon="2.31819">
        <ele>52.79999923706</ele>
        <time>2015-11-23T21:02:37Z</time>
      </trkpt>
      <trkpt lat="48.84473" lon="2.31838">
        <ele>53.20000076294</ele>
        <time>2015-11-23T21:02:40Z</time>
      </trkpt>
      <trkpt lat="48.84476" lon="2.31856">
        <ele>53.20000076294</ele>
        <time>2015-11-23T21:02:43Z</time>
      </trkpt>
      <trkpt lat="48.84481" lon="2.31871">
        <ele>53</ele>
        <time>2015-11-23T21:02:46Z</time>
      </trkpt>
      <trkpt lat="48.84485" lon="2.3189">
        <ele>52.599998474121</ele>
        <time>2015-11-23T21:02:50Z</time>
      </trkpt>
      <trkpt lat="48.8449" lon="2.31911">
        <ele>52</ele>
        <time>2015-11-23T21:02:54Z</time>
      </trkpt>
      <trkpt lat="48.84499" lon="2.31937">
        <ele>51.79999923706</ele>
        <time>2015-11-23T21:02:59Z</time>
      </trkpt>
      <trkpt lat="48.84509" lon="2.31966">
        <ele>51.400001525879</ele>
        <time>2015-11-23T21:03:05Z</time>
      </trkpt>
      <trkpt lat="48.84513" lon="2.31991">
        <ele>51.20000076294</ele>
        <time>2015-11-23T21:03:11Z</time>
      </trkpt>
      <trkpt lat="48.84512" lon="2.32014">
        <ele>51.79999923706</ele>
        <time>2015-11-23T21:03:18Z</time>
      </trkpt>
      <trkpt lat="48.84506" lon="2.32043">
        <ele>52.599998474121</ele>
        <time>2015-11-23T21:03:25Z</time>
      </trkpt>
      <trkpt lat="48.84498" lon="2.32072">
        <ele>53.400001525879</ele>
        <time>2015-11-23T21:03:31Z</time>
      </trkpt>
      <trkpt lat="48.8449" lon="2.32098">
        <ele>54.20000076294</ele>
        <time>2015-11-23T21:03:36Z</time>
      </trkpt>
      <trkpt lat="48.84483" lon="2.32123">
        <ele>55</ele>
        <time>2015-11-23T21:03:41Z</time>
      </trkpt>
      <trkpt lat="48.84477" lon="2.32152">
        <ele>54.400001525879</ele>
        <time>2015-11-23T21:03:46Z</time>
      </trkpt>
      <trkpt lat="48.84473" lon="2.32182">
        <ele>54</ele>
        <time>2015-11-23T21:03:51Z</time>
      </trkpt>
      <trkpt lat="48.84466" lon="2.32211">
        <ele>54.599998474121</ele>
        <time>2015-11-23T21:03:56Z</time>
      </trkpt>
      <trkpt lat="48.84456" lon="2.32238">
        <ele>55.79999923706</ele>
        <time>2015-11-23T21:04:01Z</time>
      </trkpt>
      <trkpt lat="48.84448" lon="2.32265">
        <ele>56.400001525879</ele>
        <time>2015-11-23T21:04:06Z</time>
      </trkpt>
      <trkpt lat="48.84436" lon="2.32286">
        <ele>56.79999923706</ele>
        <time>2015-11-23T21:04:11Z</time>
      </trkpt>
      <trkpt lat="48.84424" lon="2.32299">
        <ele>57.400001525879</ele>
        <time>2015-11-23T21:04:20Z</time>
      </trkpt>
      <trkpt lat="48.84413" lon="2.32318">
        <ele>57.79999923706</ele>
        <time>2015-11-23T21:04:41Z</time>
      </trkpt>
      <trkpt lat="48.84406" lon="2.32344">
        <ele>58.400001525879</ele>
        <time>2015-11-23T21:04:46Z</time>
      </trkpt>
      <trkpt lat="48.84397" lon="2.32372">
        <ele>60</ele>
        <time>2015-11-23T21:04:51Z</time>
      </trkpt>
      <trkpt lat="48.84388" lon="2.324">
        <ele>60.599998474121</ele>
        <time>2015-11-23T21:04:57Z</time>
      </trkpt>
      <trkpt lat="48.84381" lon="2.32425">
        <ele>61.400001525879</ele>
        <time>2015-11-23T21:05:02Z</time>
      </trkpt>
      <trkpt lat="48.84377" lon="2.32454">
        <ele>62.400001525879</ele>
        <time>2015-11-23T21:05:08Z</time>
      </trkpt>
      <trkpt lat="48.84371" lon="2.32485">
        <ele>63.400001525879</ele>
        <time>2015-11-23T21:05:14Z</time>
      </trkpt>
      <trkpt lat="48.84361" lon="2.32513">
        <ele>63</ele>
        <time>2015-11-23T21:05:19Z</time>
      </trkpt>
      <trkpt lat="48.84351" lon="2.32543">
        <ele>61.79999923706</ele>
        <time>2015-11-23T21:05:24Z</time>
      </trkpt>
      <trkpt lat="48.84343" lon="2.32574">
        <ele>60.599998474121</ele>
        <time>2015-11-23T21:05:29Z</time>
      </trkpt>
      <trkpt lat="48.84333" lon="2.32603">
        <ele>60.20000076294</ele>
        <time>2015-11-23T21:05:34Z</time>
      </trkpt>
      <trkpt lat="48.84326" lon="2.32626">
        <ele>59.79999923706</ele>
        <time>2015-11-23T21:05:38Z</time>
      </trkpt>
      <trkpt lat="48.8432" lon="2.32649">
        <ele>59</ele>
        <time>2015-11-23T21:05:42Z</time>
      </trkpt>
      <trkpt lat="48.84312" lon="2.32673">
        <ele>58.599998474121</ele>
        <time>2015-11-23T21:05:46Z</time>
      </trkpt>
      <trkpt lat="48.84303" lon="2.32702">
        <ele>59.20000076294</ele>
        <time>2015-11-23T21:05:51Z</time>
      </trkpt>
      <trkpt lat="48.84294" lon="2.32724">
        <ele>59.400001525879</ele>
        <time>2015-11-23T21:05:55Z</time>
      </trkpt>
      <trkpt lat="48.84288" lon="2.32738">
        <ele>59.599998474121</ele>
        <time>2015-11-23T21:05:58Z</time>
      </trkpt>
      <trkpt lat="48.8428" lon="2.32764">
        <ele>60.20000076294</ele>
        <time>2015-11-23T21:06:03Z</time>
      </trkpt>
      <trkpt lat="48.84277" lon="2.32769">
        <ele>60.20000076294</ele>
        <time>2015-11-23T21:06:04Z</time>
      </trkpt>
      <trkpt lat="48.84266" lon="2.32793">
        <ele>60.79999923706</ele>
        <time>2015-11-23T21:06:09Z</time>
      </trkpt>
      <trkpt lat="48.84259" lon="2.32805">
        <ele>61</ele>
        <time>2015-11-23T21:06:12Z</time>
      </trkpt>
      <trkpt lat="48.84249" lon="2.32828">
        <ele>61.20000076294</ele>
        <time>2015-11-23T21:06:17Z</time>
      </trkpt>
      <trkpt lat="48.84239" lon="2.32856">
        <ele>61</ele>
        <time>2015-11-23T21:06:22Z</time>
      </trkpt>
      <trkpt lat="48.84231" lon="2.32883">
        <ele>60.79999923706</ele>
        <time>2015-11-23T21:06:26Z</time>
      </trkpt>
      <trkpt lat="48.84224" lon="2.32909">
        <ele>60.599998474121</ele>
        <time>2015-11-23T21:06:30Z</time>
      </trkpt>
      <trkpt lat="48.84216" lon="2.32935">
        <ele>60.599998474121</ele>
        <time>2015-11-23T21:06:35Z</time>
      </trkpt>
      <trkpt lat="48.84208" lon="2.32961">
        <ele>60.79999923706</ele>
        <time>2015-11-23T21:06:40Z</time>
      </trkpt>
      <trkpt lat="48.84201" lon="2.32987">
        <ele>60.79999923706</ele>
        <time>2015-11-23T21:06:45Z</time>
      </trkpt>
      <trkpt lat="48.84192" lon="2.33016">
        <ele>61</ele>
        <time>2015-11-23T21:06:50Z</time>
      </trkpt>
      <trkpt lat="48.84183" lon="2.33046">
        <ele>61.79999923706</ele>
        <time>2015-11-23T21:06:55Z</time>
      </trkpt>
      <trkpt lat="48.84173" lon="2.33075">
        <ele>62.79999923706</ele>
        <time>2015-11-23T21:06:59Z</time>
      </trkpt>
      <trkpt lat="48.84171" lon="2.33082">
        <ele>63.20000076294</ele>
        <time>2015-11-23T21:07:00Z</time>
      </trkpt>
      <trkpt lat="48.84164" lon="2.3311">
        <ele>64.199996948242</ele>
        <time>2015-11-23T21:07:04Z</time>
      </trkpt>
      <trkpt lat="48.84155" lon="2.33138">
        <ele>64.800003051758</ele>
        <time>2015-11-23T21:07:08Z</time>
      </trkpt>
      <trkpt lat="48.84153" lon="2.33146">
        <ele>64.800003051758</ele>
        <time>2015-11-23T21:07:09Z</time>
      </trkpt>
      <trkpt lat="48.84143" lon="2.33176">
        <ele>64.599998474121</ele>
        <time>2015-11-23T21:07:13Z</time>
      </trkpt>
      <trkpt lat="48.84141" lon="2.33184">
        <ele>64.599998474121</ele>
        <time>2015-11-23T21:07:14Z</time>
      </trkpt>
      <trkpt lat="48.8413" lon="2.33214">
        <ele>64.599998474121</ele>
        <time>2015-11-23T21:07:18Z</time>
      </trkpt>
      <trkpt lat="48.84118" lon="2.33241">
        <ele>64.599998474121</ele>
        <time>2015-11-23T21:07:21Z</time>
      </trkpt>
      <trkpt lat="48.84106" lon="2.33268">
        <ele>64.599998474121</ele>
        <time>2015-11-23T21:07:24Z</time>
      </trkpt>
      <trkpt lat="48.84099" lon="2.33286">
        <ele>64</ele>
        <time>2015-11-23T21:07:26Z</time>
      </trkpt>
      <trkpt lat="48.84087" lon="2.33311">
        <ele>63.400001525879</ele>
        <time>2015-11-23T21:07:29Z</time>
      </trkpt>
      <trkpt lat="48.84077" lon="2.3334">
        <ele>63.599998474121</ele>
        <time>2015-11-23T21:07:32Z</time>
      </trkpt>
      <trkpt lat="48.84068" lon="2.33368">
        <ele>63</ele>
        <time>2015-11-23T21:07:35Z</time>
      </trkpt>
      <trkpt lat="48.84058" lon="2.33396">
        <ele>63</ele>
        <time>2015-11-23T21:07:38Z</time>
      </trkpt>
      <trkpt lat="48.84051" lon="2.33423">
        <ele>64</ele>
        <time>2015-11-23T21:07:41Z</time>
      </trkpt>
      <trkpt lat="48.84042" lon="2.3345">
        <ele>65.599998474121</ele>
        <time>2015-11-23T21:07:44Z</time>
      </trkpt>
      <trkpt lat="48.84033" lon="2.33477">
        <ele>65.800003051758</ele>
        <time>2015-11-23T21:07:47Z</time>
      </trkpt>
      <trkpt lat="48.8403" lon="2.33486">
        <ele>66</ele>
        <time>2015-11-23T21:07:48Z</time>
      </trkpt>
      <trkpt lat="48.84021" lon="2.33513">
        <ele>65.599998474121</ele>
        <time>2015-11-23T21:07:51Z</time>
      </trkpt>
      <trkpt lat="48.84018" lon="2.33522">
        <ele>65.199996948242</ele>
        <time>2015-11-23T21:07:52Z</time>
      </trkpt>
      <trkpt lat="48.84012" lon="2.33538">
        <ele>64.400001525879</ele>
        <time>2015-11-23T21:07:54Z</time>
      </trkpt>
      <trkpt lat="48.84" lon="2.3357">
        <ele>63</ele>
        <time>2015-11-23T21:07:58Z</time>
      </trkpt>
      <trkpt lat="48.83991" lon="2.33597">
        <ele>61.79999923706</ele>
        <time>2015-11-23T21:08:02Z</time>
      </trkpt>
      <trkpt lat="48.83981" lon="2.33623">
        <ele>60.599998474121</ele>
        <time>2015-11-23T21:08:07Z</time>
      </trkpt>
      <trkpt lat="48.83981" lon="2.33633">
        <ele>60.79999923706</ele>
        <time>2015-11-23T21:08:11Z</time>
      </trkpt>
      <trkpt lat="48.83977" lon="2.33641">
        <ele>61</ele>
        <time>2015-11-23T21:09:06Z</time>
      </trkpt>
      <trkpt lat="48.83981" lon="2.33672">
        <ele>61.599998474121</ele>
        <time>2015-11-23T21:09:16Z</time>
      </trkpt>
      <trkpt lat="48.83998" lon="2.33688">
        <ele>62.20000076294</ele>
        <time>2015-11-23T21:09:22Z</time>
      </trkpt>
      <trkpt lat="48.84016" lon="2.33695">
        <ele>62.599998474121</ele>
        <time>2015-11-23T21:09:28Z</time>
      </trkpt>
      <trkpt lat="48.84034" lon="2.33703">
        <ele>62.599998474121</ele>
        <time>2015-11-23T21:09:33Z</time>
      </trkpt>
      <trkpt lat="48.84052" lon="2.33715">
        <ele>62.20000076294</ele>
        <time>2015-11-23T21:09:38Z</time>
      </trkpt>
      <trkpt lat="48.8407" lon="2.33726">
        <ele>61.79999923706</ele>
        <time>2015-11-23T21:09:42Z</time>
      </trkpt>
      <trkpt lat="48.84089" lon="2.33735">
        <ele>61.400001525879</ele>
        <time>2015-11-23T21:09:46Z</time>
      </trkpt>
      <trkpt lat="48.84109" lon="2.33744">
        <ele>61.20000076294</ele>
        <time>2015-11-23T21:09:50Z</time>
      </trkpt>
      <trkpt lat="48.84132" lon="2.33757">
        <ele>62.20000076294</ele>
        <time>2015-11-23T21:09:54Z</time>
      </trkpt>
      <trkpt lat="48.84149" lon="2.33767">
        <ele>63</ele>
        <time>2015-11-23T21:09:57Z</time>
      </trkpt>
      <trkpt lat="48.84166" lon="2.33775">
        <ele>63.79999923706</ele>
        <time>2015-11-23T21:10:00Z</time>
      </trkpt>
      <trkpt lat="48.84178" lon="2.33781">
        <ele>64.400001525879</ele>
        <time>2015-11-23T21:10:02Z</time>
      </trkpt>
      <trkpt lat="48.84195" lon="2.33789">
        <ele>64.599998474121</ele>
        <time>2015-11-23T21:10:05Z</time>
      </trkpt>
      <trkpt lat="48.84213" lon="2.33797">
        <ele>63.79999923706</ele>
        <time>2015-11-23T21:10:08Z</time>
      </trkpt>
      <trkpt lat="48.84236" lon="2.33805">
        <ele>62.599998474121</ele>
        <time>2015-11-23T21:10:12Z</time>
      </trkpt>
      <trkpt lat="48.84258" lon="2.33817">
        <ele>61.599998474121</ele>
        <time>2015-11-23T21:10:16Z</time>
      </trkpt>
      <trkpt lat="48.8428" lon="2.33829">
        <ele>61.20000076294</ele>
        <time>2015-11-23T21:10:20Z</time>
      </trkpt>
      <trkpt lat="48.84299" lon="2.33838">
        <ele>61.400001525879</ele>
        <time>2015-11-23T21:10:24Z</time>
      </trkpt>
      <trkpt lat="48.84309" lon="2.3384">
        <ele>61.599998474121</ele>
        <time>2015-11-23T21:10:26Z</time>
      </trkpt>
      <trkpt lat="48.84332" lon="2.33846">
        <ele>62</ele>
        <time>2015-11-23T21:10:30Z</time>
      </trkpt>
      <trkpt lat="48.84354" lon="2.33855">
        <ele>62.20000076294</ele>
        <time>2015-11-23T21:10:34Z</time>
      </trkpt>
      <trkpt lat="48.84373" lon="2.33862">
        <ele>62.599998474121</ele>
        <time>2015-11-23T21:10:37Z</time>
      </trkpt>
      <trkpt lat="48.84381" lon="2.33863">
        <ele>62.79999923706</ele>
        <time>2015-11-23T21:10:38Z</time>
      </trkpt>
      <trkpt lat="48.84401" lon="2.33871">
        <ele>62.79999923706</ele>
        <time>2015-11-23T21:10:41Z</time>
      </trkpt>
      <trkpt lat="48.84421" lon="2.33879">
        <ele>62.20000076294</ele>
        <time>2015-11-23T21:10:44Z</time>
      </trkpt>
      <trkpt lat="48.84439" lon="2.33891">
        <ele>61.79999923706</ele>
        <time>2015-11-23T21:10:47Z</time>
      </trkpt>
      <trkpt lat="48.84457" lon="2.33902">
        <ele>61.20000076294</ele>
        <time>2015-11-23T21:10:50Z</time>
      </trkpt>
      <trkpt lat="48.8448" lon="2.33913">
        <ele>60.599998474121</ele>
        <time>2015-11-23T21:10:54Z</time>
      </trkpt>
      <trkpt lat="48.84498" lon="2.33921">
        <ele>60.599998474121</ele>
        <time>2015-11-23T21:10:57Z</time>
      </trkpt>
      <trkpt lat="48.84516" lon="2.3393">
        <ele>60.599998474121</ele>
        <time>2015-11-23T21:11:00Z</time>
      </trkpt>
      <trkpt lat="48.84522" lon="2.33934">
        <ele>60.79999923706</ele>
        <time>2015-11-23T21:11:01Z</time>
      </trkpt>
      <trkpt lat="48.84539" lon="2.33947">
        <ele>61</ele>
        <time>2015-11-23T21:11:04Z</time>
      </trkpt>
      <trkpt lat="48.84556" lon="2.33957">
        <ele>61</ele>
        <time>2015-11-23T21:11:07Z</time>
      </trkpt>
      <trkpt lat="48.84578" lon="2.3397">
        <ele>61</ele>
        <time>2015-11-23T21:11:11Z</time>
      </trkpt>
      <trkpt lat="48.84597" lon="2.33983">
        <ele>61</ele>
        <time>2015-11-23T21:11:15Z</time>
      </trkpt>
      <trkpt lat="48.84614" lon="2.33996">
        <ele>60.79999923706</ele>
        <time>2015-11-23T21:11:20Z</time>
      </trkpt>
      <trkpt lat="48.84627" lon="2.34006">
        <ele>60.400001525879</ele>
        <time>2015-11-23T21:11:24Z</time>
      </trkpt>
      <trkpt lat="48.84644" lon="2.34017">
        <ele>59.599998474121</ele>
        <time>2015-11-23T21:11:29Z</time>
      </trkpt>
      <trkpt lat="48.84662" lon="2.34033">
        <ele>59.20000076294</ele>
        <time>2015-11-23T21:11:34Z</time>
      </trkpt>
      <trkpt lat="48.84668" lon="2.34038">
        <ele>59</ele>
        <time>2015-11-23T21:11:36Z</time>
      </trkpt>
      <trkpt lat="48.84683" lon="2.34051">
        <ele>58.400001525879</ele>
        <time>2015-11-23T21:11:42Z</time>
      </trkpt>
      <trkpt lat="48.84696" lon="2.34057">
        <ele>58.20000076294</ele>
        <time>2015-11-23T21:11:47Z</time>
      </trkpt>
      <trkpt lat="48.8471" lon="2.34061">
        <ele>58.20000076294</ele>
        <time>2015-11-23T21:11:52Z</time>
      </trkpt>
      <trkpt lat="48.84727" lon="2.34074">
        <ele>59</ele>
        <time>2015-11-23T21:11:59Z</time>
      </trkpt>
      <trkpt lat="48.84731" lon="2.34082">
        <ele>59.599998474121</ele>
        <time>2015-11-23T21:12:03Z</time>
      </trkpt>
      <trkpt lat="48.84725" lon="2.34112">
        <ele>60.400001525879</ele>
        <time>2015-11-23T21:12:26Z</time>
      </trkpt>
      <trkpt lat="48.84718" lon="2.3414">
        <ele>62.400001525879</ele>
        <time>2015-11-23T21:12:33Z</time>
      </trkpt>
      <trkpt lat="48.84711" lon="2.34168">
        <ele>64.599998474121</ele>
        <time>2015-11-23T21:12:39Z</time>
      </trkpt>
      <trkpt lat="48.84707" lon="2.34198">
        <ele>65.599998474121</ele>
        <time>2015-11-23T21:12:45Z</time>
      </trkpt>
      <trkpt lat="48.84701" lon="2.34223">
        <ele>66.199996948242</ele>
        <time>2015-11-23T21:12:51Z</time>
      </trkpt>
      <trkpt lat="48.84694" lon="2.34252">
        <ele>66.800003051758</ele>
        <time>2015-11-23T21:12:57Z</time>
      </trkpt>
      <trkpt lat="48.84685" lon="2.34281">
        <ele>66.800003051758</ele>
        <time>2015-11-23T21:13:03Z</time>
      </trkpt>
      <trkpt lat="48.84677" lon="2.34308">
        <ele>66.599998474121</ele>
        <time>2015-11-23T21:13:10Z</time>
      </trkpt>
      <trkpt lat="48.84672" lon="2.34337">
        <ele>66.599998474121</ele>
        <time>2015-11-23T21:13:18Z</time>
      </trkpt>
      <trkpt lat="48.84668" lon="2.34365">
        <ele>66.400001525879</ele>
        <time>2015-11-23T21:13:28Z</time>
      </trkpt>
      <trkpt lat="48.84665" lon="2.34392">
        <ele>66.199996948242</ele>
        <time>2015-11-23T21:13:35Z</time>
      </trkpt>
      <trkpt lat="48.8466" lon="2.3442">
        <ele>66</ele>
        <time>2015-11-23T21:13:42Z</time>
      </trkpt>
      <trkpt lat="48.84658" lon="2.3444">
        <ele>66.199996948242</ele>
        <time>2015-11-23T21:13:48Z</time>
      </trkpt>
      <trkpt lat="48.8467" lon="2.3446">
        <ele>65.599998474121</ele>
        <time>2015-11-23T21:13:57Z</time>
      </trkpt>
      <trkpt lat="48.84673" lon="2.34471">
        <ele>65.599998474121</ele>
        <time>2015-11-23T21:14:00Z</time>
      </trkpt>
      <trkpt lat="48.84683" lon="2.34498">
        <ele>65.199996948242</ele>
        <time>2015-11-23T21:14:07Z</time>
      </trkpt>
      <trkpt lat="48.8469" lon="2.34525">
        <ele>65.199996948242</ele>
        <time>2015-11-23T21:14:14Z</time>
      </trkpt>
      <trkpt lat="48.84695" lon="2.34552">
        <ele>65.199996948242</ele>
        <time>2015-11-23T21:14:21Z</time>
      </trkpt>
      <trkpt lat="48.84695" lon="2.34562">
        <ele>65.400001525879</ele>
        <time>2015-11-23T21:14:24Z</time>
      </trkpt>
      <trkpt lat="48.8469" lon="2.34574">
        <ele>65.800003051758</ele>
        <time>2015-11-23T21:14:28Z</time>
      </trkpt>
      <trkpt lat="48.84685" lon="2.34603">
        <ele>66.199996948242</ele>
        <time>2015-11-23T21:14:36Z</time>
      </trkpt>
      <trkpt lat="48.84677" lon="2.34631">
        <ele>66.400001525879</ele>
        <time>2015-11-23T21:14:43Z</time>
      </trkpt>
      <trkpt lat="48.84667" lon="2.34654">
        <ele>66</ele>
        <time>2015-11-23T21:14:50Z</time>
      </trkpt>
      <trkpt lat="48.84663" lon="2.34658">
        <ele>65.800003051758</ele>
        <time>2015-11-23T21:14:53Z</time>
      </trkpt>
      <trkpt lat="48.84668" lon="2.34651">
        <ele>66.199996948242</ele>
        <time>2015-11-23T21:14:59Z</time>
      </trkpt>
      <trkpt lat="48.8467" lon="2.3465">
        <ele>66.400001525879</ele>
        <time>2015-11-23T21:15:06Z</time>
      </trkpt>
      <trkpt lat="48.84673" lon="2.34651">
        <ele>66.400001525879</ele>
        <time>2015-11-23T21:15:10Z</time>
      </trkpt>
      <trkpt lat="48.84683" lon="2.34653">
        <ele>66.199996948242</ele>
        <time>2015-11-23T21:15:14Z</time>
      </trkpt>
      <trkpt lat="48.84702" lon="2.34652">
        <ele>65.199996948242</ele>
        <time>2015-11-23T21:15:22Z</time>
      </trkpt>
      <trkpt lat="48.84719" lon="2.34662">
        <ele>64.199996948242</ele>
        <time>2015-11-23T21:15:27Z</time>
      </trkpt>
      <trkpt lat="48.84737" lon="2.34674">
        <ele>63</ele>
        <time>2015-11-23T21:15:31Z</time>
      </trkpt>
      <trkpt lat="48.84757" lon="2.34684">
        <ele>61.599998474121</ele>
        <time>2015-11-23T21:15:35Z</time>
      </trkpt>
      <trkpt lat="48.84777" lon="2.34694">
        <ele>60.599998474121</ele>
        <time>2015-11-23T21:15:39Z</time>
      </trkpt>
      <trkpt lat="48.84794" lon="2.34703">
        <ele>60</ele>
        <time>2015-11-23T21:15:43Z</time>
      </trkpt>
      <trkpt lat="48.84812" lon="2.34707">
        <ele>59.599998474121</ele>
        <time>2015-11-23T21:15:50Z</time>
      </trkpt>
      <trkpt lat="48.84831" lon="2.34709">
        <ele>58.79999923706</ele>
        <time>2015-11-23T21:15:56Z</time>
      </trkpt>
      <trkpt lat="48.84849" lon="2.3472">
        <ele>58</ele>
        <time>2015-11-23T21:16:03Z</time>
      </trkpt>
      <trkpt lat="48.84867" lon="2.34737">
        <ele>57.20000076294</ele>
        <time>2015-11-23T21:16:08Z</time>
      </trkpt>
      <trkpt lat="48.84868" lon="2.3474">
        <ele>57.20000076294</ele>
        <time>2015-11-23T21:16:09Z</time>
      </trkpt>
      <trkpt lat="48.84875" lon="2.34744">
        <ele>56.79999923706</ele>
        <time>2015-11-23T21:16:13Z</time>
      </trkpt>
      <trkpt lat="48.84877" lon="2.34743">
        <ele>56.79999923706</ele>
        <time>2015-11-23T21:16:15Z</time>
      </trkpt>
      <trkpt lat="48.84879" lon="2.34749">
        <ele>56.599998474121</ele>
        <time>2015-11-23T21:17:19Z</time>
      </trkpt>
      <trkpt lat="48.84871" lon="2.34777">
        <ele>56.79999923706</ele>
        <time>2015-11-23T21:17:25Z</time>
      </trkpt>
      <trkpt lat="48.84863" lon="2.34806">
        <ele>58.599998474121</ele>
        <time>2015-11-23T21:17:30Z</time>
      </trkpt>
      <trkpt lat="48.84857" lon="2.34832">
        <ele>60</ele>
        <time>2015-11-23T21:17:34Z</time>
      </trkpt>
      <trkpt lat="48.84848" lon="2.34861">
        <ele>58.20000076294</ele>
        <time>2015-11-23T21:17:39Z</time>
      </trkpt>
      <trkpt lat="48.84837" lon="2.34888">
        <ele>56.599998474121</ele>
        <time>2015-11-23T21:17:44Z</time>
      </trkpt>
      <trkpt lat="48.84829" lon="2.34917">
        <ele>55.20000076294</ele>
        <time>2015-11-23T21:17:49Z</time>
      </trkpt>
      <trkpt lat="48.84821" lon="2.34944">
        <ele>53.599998474121</ele>
        <time>2015-11-23T21:17:54Z</time>
      </trkpt>
      <trkpt lat="48.84812" lon="2.3497">
        <ele>52.599998474121</ele>
        <time>2015-11-23T21:17:59Z</time>
      </trkpt>
      <trkpt lat="48.84802" lon="2.34995">
        <ele>52</ele>
        <time>2015-11-23T21:18:04Z</time>
      </trkpt>
      <trkpt lat="48.848" lon="2.35025">
        <ele>50.599998474121</ele>
        <time>2015-11-23T21:18:10Z</time>
      </trkpt>
      <trkpt lat="48.84799" lon="2.35032">
        <ele>50.400001525879</ele>
        <time>2015-11-23T21:18:13Z</time>
      </trkpt>
      <trkpt lat="48.84808" lon="2.35061">
        <ele>48.599998474121</ele>
        <time>2015-11-23T21:18:48Z</time>
      </trkpt>
      <trkpt lat="48.848" lon="2.35093">
        <ele>47.400001525879</ele>
        <time>2015-11-23T21:18:54Z</time>
      </trkpt>
      <trkpt lat="48.84788" lon="2.35115">
        <ele>46.20000076294</ele>
        <time>2015-11-23T21:18:58Z</time>
      </trkpt>
      <trkpt lat="48.84781" lon="2.35142">
        <ele>44.400001525879</ele>
        <time>2015-11-23T21:19:02Z</time>
      </trkpt>
      <trkpt lat="48.84772" lon="2.35168">
        <ele>43</ele>
        <time>2015-11-23T21:19:06Z</time>
      </trkpt>
      <trkpt lat="48.84762" lon="2.35191">
        <ele>42.79999923706</ele>
        <time>2015-11-23T21:19:10Z</time>
      </trkpt>
      <trkpt lat="48.84752" lon="2.35217">
        <ele>42.79999923706</ele>
        <time>2015-11-23T21:19:15Z</time>
      </trkpt>
      <trkpt lat="48.84746" lon="2.35235">
        <ele>42.79999923706</ele>
        <time>2015-11-23T21:19:19Z</time>
      </trkpt>
      <trkpt lat="48.84739" lon="2.35263">
        <ele>42.79999923706</ele>
        <time>2015-11-23T21:19:26Z</time>
      </trkpt>
      <trkpt lat="48.84733" lon="2.35272">
        <ele>43</ele>
        <time>2015-11-23T21:19:31Z</time>
      </trkpt>
      <trkpt lat="48.84739" lon="2.35281">
        <ele>42.20000076294</ele>
        <time>2015-11-23T21:21:07Z</time>
      </trkpt>
      <trkpt lat="48.84738" lon="2.35281">
        <ele>42.20000076294</ele>
        <time>2015-11-23T21:23:25Z</time>
      </trkpt>
      <trkpt lat="48.84743" lon="2.3531">
        <ele>40.79999923706</ele>
        <time>2015-11-23T21:23:33Z</time>
      </trkpt>
      <trkpt lat="48.84751" lon="2.35335">
        <ele>39.20000076294</ele>
        <time>2015-11-23T21:23:40Z</time>
      </trkpt>
      <trkpt lat="48.84767" lon="2.35355">
        <ele>38</ele>
        <time>2015-11-23T21:23:45Z</time>
      </trkpt>
      <trkpt lat="48.84781" lon="2.35376">
        <ele>37.79999923706</ele>
        <time>2015-11-23T21:23:50Z</time>
      </trkpt>
      <trkpt lat="48.84795" lon="2.35401">
        <ele>38.20000076294</ele>
        <time>2015-11-23T21:23:55Z</time>
      </trkpt>
      <trkpt lat="48.84812" lon="2.35424">
        <ele>38.79999923706</ele>
        <time>2015-11-23T21:24:00Z</time>
      </trkpt>
      <trkpt lat="48.84827" lon="2.35449">
        <ele>39.20000076294</ele>
        <time>2015-11-23T21:24:05Z</time>
      </trkpt>
      <trkpt lat="48.8484" lon="2.35469">
        <ele>39.599998474121</ele>
        <time>2015-11-23T21:24:09Z</time>
      </trkpt>
      <trkpt lat="48.84854" lon="2.35492">
        <ele>40</ele>
        <time>2015-11-23T21:24:14Z</time>
      </trkpt>
      <trkpt lat="48.84859" lon="2.35499">
        <ele>40</ele>
        <time>2015-11-23T21:24:16Z</time>
      </trkpt>
      <trkpt lat="48.84872" lon="2.35522">
        <ele>38.599998474121</ele>
        <time>2015-11-23T21:24:21Z</time>
      </trkpt>
      <trkpt lat="48.84882" lon="2.3554">
        <ele>37.599998474121</ele>
        <time>2015-11-23T21:24:26Z</time>
      </trkpt>
      <trkpt lat="48.84898" lon="2.35558">
        <ele>36.599998474121</ele>
        <time>2015-11-23T21:24:30Z</time>
      </trkpt>
      <trkpt lat="48.84912" lon="2.35568">
        <ele>36</ele>
        <time>2015-11-23T21:24:32Z</time>
      </trkpt>
      <trkpt lat="48.84926" lon="2.35584">
        <ele>35</ele>
        <time>2015-11-23T21:24:35Z</time>
      </trkpt>
      <trkpt lat="48.84931" lon="2.35592">
        <ele>34.79999923706</ele>
        <time>2015-11-23T21:24:40Z</time>
      </trkpt>
      <trkpt lat="48.84931" lon="2.35592">
        <ele>34.599998474121</ele>
        <time>2015-11-23T21:24:41Z</time>
      </trkpt>
      <trkpt lat="48.84938" lon="2.35592">
        <ele>34.599998474121</ele>
        <time>2015-11-23T21:24:53Z</time>
      </trkpt>
      <trkpt lat="48.84955" lon="2.35609">
        <ele>33.79999923706</ele>
        <time>2015-11-23T21:25:13Z</time>
      </trkpt>
      <trkpt lat="48.84966" lon="2.35605">
        <ele>33.79999923706</ele>
        <time>2015-11-23T21:25:51Z</time>
      </trkpt>
      <trkpt lat="48.84979" lon="2.35583">
        <ele>33.20000076294</ele>
        <time>2015-11-23T21:25:56Z</time>
      </trkpt>
      <trkpt lat="48.84988" lon="2.35553">
        <ele>35.79999923706</ele>
        <time>2015-11-23T21:26:01Z</time>
      </trkpt>
      <trkpt lat="48.84994" lon="2.35522">
        <ele>36.599998474121</ele>
        <time>2015-11-23T21:26:06Z</time>
      </trkpt>
      <trkpt lat="48.84999" lon="2.35492">
        <ele>37</ele>
        <time>2015-11-23T21:26:12Z</time>
      </trkpt>
      <trkpt lat="48.85007" lon="2.35464">
        <ele>37.599998474121</ele>
        <time>2015-11-23T21:26:17Z</time>
      </trkpt>
      <trkpt lat="48.85015" lon="2.35436">
        <ele>38.400001525879</ele>
        <time>2015-11-23T21:26:21Z</time>
      </trkpt>
      <trkpt lat="48.85024" lon="2.35403">
        <ele>39</ele>
        <time>2015-11-23T21:26:25Z</time>
      </trkpt>
      <trkpt lat="48.85031" lon="2.35376">
        <ele>38.599998474121</ele>
        <time>2015-11-23T21:26:28Z</time>
      </trkpt>
      <trkpt lat="48.85039" lon="2.35351">
        <ele>38.400001525879</ele>
        <time>2015-11-23T21:26:31Z</time>
      </trkpt>
      <trkpt lat="48.85047" lon="2.35326">
        <ele>36.599998474121</ele>
        <time>2015-11-23T21:26:34Z</time>
      </trkpt>
      <trkpt lat="48.85054" lon="2.353">
        <ele>36.79999923706</ele>
        <time>2015-11-23T21:26:37Z</time>
      </trkpt>
      <trkpt lat="48.85064" lon="2.35268">
        <ele>35.599998474121</ele>
        <time>2015-11-23T21:26:41Z</time>
      </trkpt>
      <trkpt lat="48.85071" lon="2.35243">
        <ele>34</ele>
        <time>2015-11-23T21:26:44Z</time>
      </trkpt>
      <trkpt lat="48.85081" lon="2.35211">
        <ele>33.599998474121</ele>
        <time>2015-11-23T21:26:48Z</time>
      </trkpt>
      <trkpt lat="48.85093" lon="2.35182">
        <ele>34.400001525879</ele>
        <time>2015-11-23T21:26:52Z</time>
      </trkpt>
      <trkpt lat="48.85102" lon="2.35153">
        <ele>34.79999923706</ele>
        <time>2015-11-23T21:26:56Z</time>
      </trkpt>
      <trkpt lat="48.85113" lon="2.35127">
        <ele>35.79999923706</ele>
        <time>2015-11-23T21:27:01Z</time>
      </trkpt>
      <trkpt lat="48.85118" lon="2.35117">
        <ele>36</ele>
        <time>2015-11-23T21:27:05Z</time>
      </trkpt>
      <trkpt lat="48.85119" lon="2.35118">
        <ele>36</ele>
        <time>2015-11-23T21:27:07Z</time>
      </trkpt>
      <trkpt lat="48.85129" lon="2.3513">
        <ele>34.599998474121</ele>
        <time>2015-11-23T21:27:14Z</time>
      </trkpt>
      <trkpt lat="48.85147" lon="2.35144">
        <ele>32.79999923706</ele>
        <time>2015-11-23T21:27:22Z</time>
      </trkpt>
      <trkpt lat="48.85164" lon="2.35151">
        <ele>31.200000762939</ele>
        <time>2015-11-23T21:27:29Z</time>
      </trkpt>
      <trkpt lat="48.85184" lon="2.35161">
        <ele>29.60000038147</ele>
        <time>2015-11-23T21:27:34Z</time>
      </trkpt>
      <trkpt lat="48.85201" lon="2.35172">
        <ele>30.39999961853</ele>
        <time>2015-11-23T21:27:39Z</time>
      </trkpt>
      <trkpt lat="48.8522" lon="2.35185">
        <ele>32.400001525879</ele>
        <time>2015-11-23T21:27:44Z</time>
      </trkpt>
      <trkpt lat="48.85239" lon="2.35198">
        <ele>34.400001525879</ele>
        <time>2015-11-23T21:27:49Z</time>
      </trkpt>
      <trkpt lat="48.85259" lon="2.35209">
        <ele>36.79999923706</ele>
        <time>2015-11-23T21:27:54Z</time>
      </trkpt>
      <trkpt lat="48.8528" lon="2.35211">
        <ele>38.400001525879</ele>
        <time>2015-11-23T21:27:59Z</time>
      </trkpt>
      <trkpt lat="48.853" lon="2.35209">
        <ele>37.79999923706</ele>
        <time>2015-11-23T21:28:03Z</time>
      </trkpt>
      <trkpt lat="48.85319" lon="2.35207">
        <ele>37.599998474121</ele>
        <time>2015-11-23T21:28:07Z</time>
      </trkpt>
      <trkpt lat="48.85338" lon="2.352">
        <ele>39.400001525879</ele>
        <time>2015-11-23T21:28:11Z</time>
      </trkpt>
      <trkpt lat="48.85354" lon="2.35194">
        <ele>41</ele>
        <time>2015-11-23T21:28:14Z</time>
      </trkpt>
      <trkpt lat="48.85371" lon="2.3518">
        <ele>41.20000076294</ele>
        <time>2015-11-23T21:28:17Z</time>
      </trkpt>
      <trkpt lat="48.85392" lon="2.35163">
        <ele>39.400001525879</ele>
        <time>2015-11-23T21:28:21Z</time>
      </trkpt>
      <trkpt lat="48.85411" lon="2.35147">
        <ele>36.599998474121</ele>
        <time>2015-11-23T21:28:25Z</time>
      </trkpt>
      <trkpt lat="48.85426" lon="2.35132">
        <ele>35.79999923706</ele>
        <time>2015-11-23T21:28:28Z</time>
      </trkpt>
      <trkpt lat="48.8544" lon="2.35113">
        <ele>36.400001525879</ele>
        <time>2015-11-23T21:28:32Z</time>
      </trkpt>
      <trkpt lat="48.85455" lon="2.35091">
        <ele>37.599998474121</ele>
        <time>2015-11-23T21:28:36Z</time>
      </trkpt>
      <trkpt lat="48.85465" lon="2.35077">
        <ele>37.79999923706</ele>
        <time>2015-11-23T21:28:39Z</time>
      </trkpt>
      <trkpt lat="48.8548" lon="2.35054">
        <ele>38.20000076294</ele>
        <time>2015-11-23T21:28:44Z</time>
      </trkpt>
      <trkpt lat="48.85493" lon="2.35034">
        <ele>39</ele>
        <time>2015-11-23T21:28:49Z</time>
      </trkpt>
      <trkpt lat="48.855" lon="2.35028">
        <ele>39.20000076294</ele>
        <time>2015-11-23T21:28:52Z</time>
      </trkpt>
      <trkpt lat="48.85507" lon="2.35024">
        <ele>39.400001525879</ele>
        <time>2015-11-23T21:28:56Z</time>
      </trkpt>
      <trkpt lat="48.8551" lon="2.35021">
        <ele>39.400001525879</ele>
        <time>2015-11-23T21:28:58Z</time>
      </trkpt>
      <trkpt lat="48.85511" lon="2.35018">
        <ele>39.599998474121</ele>
        <time>2015-11-23T21:29:17Z</time>
      </trkpt>
      <trkpt lat="48.85518" lon="2.34993">
        <ele>41.20000076294</ele>
        <time>2015-11-23T21:29:22Z</time>
      </trkpt>
      <trkpt lat="48.85527" lon="2.34964">
        <ele>41</ele>
        <time>2015-11-23T21:29:27Z</time>
      </trkpt>
      <trkpt lat="48.85535" lon="2.34936">
        <ele>40.79999923706</ele>
        <time>2015-11-23T21:29:32Z</time>
      </trkpt>
      <trkpt lat="48.85543" lon="2.34908">
        <ele>42.599998474121</ele>
        <time>2015-11-23T21:29:37Z</time>
      </trkpt>
      <trkpt lat="48.85551" lon="2.34881">
        <ele>41.79999923706</ele>
        <time>2015-11-23T21:29:42Z</time>
      </trkpt>
      <trkpt lat="48.85558" lon="2.34854">
        <ele>40</ele>
        <time>2015-11-23T21:29:48Z</time>
      </trkpt>
      <trkpt lat="48.85569" lon="2.34834">
        <ele>37.20000076294</ele>
        <time>2015-11-23T21:30:18Z</time>
      </trkpt>
      <trkpt lat="48.85572" lon="2.34806">
        <ele>35.20000076294</ele>
        <time>2015-11-23T21:30:24Z</time>
      </trkpt>
      <trkpt lat="48.8558" lon="2.34777">
        <ele>34.599998474121</ele>
        <time>2015-11-23T21:30:29Z</time>
      </trkpt>
      <trkpt lat="48.85589" lon="2.3475">
        <ele>34.79999923706</ele>
        <time>2015-11-23T21:30:33Z</time>
      </trkpt>
      <trkpt lat="48.85598" lon="2.34721">
        <ele>39</ele>
        <time>2015-11-23T21:30:37Z</time>
      </trkpt>
      <trkpt lat="48.85605" lon="2.34691">
        <ele>43.79999923706</ele>
        <time>2015-11-23T21:30:41Z</time>
      </trkpt>
      <trkpt lat="48.85614" lon="2.34664">
        <ele>47.400001525879</ele>
        <time>2015-11-23T21:30:46Z</time>
      </trkpt>
      <trkpt lat="48.85621" lon="2.34649">
        <ele>46.79999923706</ele>
        <time>2015-11-23T21:30:51Z</time>
      </trkpt>
      <trkpt lat="48.85635" lon="2.34634">
        <ele>45.599998474121</ele>
        <time>2015-11-23T21:31:00Z</time>
      </trkpt>
      <trkpt lat="48.85653" lon="2.34649">
        <ele>44</ele>
        <time>2015-11-23T21:31:06Z</time>
      </trkpt>
      <trkpt lat="48.85663" lon="2.34656">
        <ele>43.20000076294</ele>
        <time>2015-11-23T21:31:09Z</time>
      </trkpt>
      <trkpt lat="48.85684" lon="2.34668">
        <ele>41.400001525879</ele>
        <time>2015-11-23T21:31:14Z</time>
      </trkpt>
      <trkpt lat="48.85703" lon="2.3468">
        <ele>40.79999923706</ele>
        <time>2015-11-23T21:31:19Z</time>
      </trkpt>
      <trkpt lat="48.85718" lon="2.34684">
        <ele>40.400001525879</ele>
        <time>2015-11-23T21:31:23Z</time>
      </trkpt>
      <trkpt lat="48.85736" lon="2.34682">
        <ele>39.400001525879</ele>
        <time>2015-11-23T21:31:57Z</time>
      </trkpt>
      <trkpt lat="48.85755" lon="2.34692">
        <ele>38.79999923706</ele>
        <time>2015-11-23T21:32:03Z</time>
      </trkpt>
      <trkpt lat="48.85775" lon="2.34704">
        <ele>38.599998474121</ele>
        <time>2015-11-23T21:32:09Z</time>
      </trkpt>
      <trkpt lat="48.85792" lon="2.34714">
        <ele>40.400001525879</ele>
        <time>2015-11-23T21:32:13Z</time>
      </trkpt>
      <trkpt lat="48.8581" lon="2.34723">
        <ele>42.20000076294</ele>
        <time>2015-11-23T21:32:17Z</time>
      </trkpt>
      <trkpt lat="48.85831" lon="2.34727">
        <ele>44.20000076294</ele>
        <time>2015-11-23T21:32:21Z</time>
      </trkpt>
      <trkpt lat="48.8585" lon="2.34728">
        <ele>46.599998474121</ele>
        <time>2015-11-23T21:32:25Z</time>
      </trkpt>
      <trkpt lat="48.85871" lon="2.34731">
        <ele>46.79999923706</ele>
        <time>2015-11-23T21:32:29Z</time>
      </trkpt>
      <trkpt lat="48.8588" lon="2.34731">
        <ele>46.599998474121</ele>
        <time>2015-11-23T21:32:31Z</time>
      </trkpt>
      <trkpt lat="48.85892" lon="2.3473">
        <ele>46.20000076294</ele>
        <time>2015-11-23T21:32:34Z</time>
      </trkpt>
      <trkpt lat="48.85908" lon="2.34721">
        <ele>45.79999923706</ele>
        <time>2015-11-23T21:32:38Z</time>
      </trkpt>
      <trkpt lat="48.85917" lon="2.34716">
        <ele>45.599998474121</ele>
        <time>2015-11-23T21:32:40Z</time>
      </trkpt>
      <trkpt lat="48.85935" lon="2.34703">
        <ele>45.79999923706</ele>
        <time>2015-11-23T21:32:45Z</time>
      </trkpt>
      <trkpt lat="48.85944" lon="2.34701">
        <ele>45.79999923706</ele>
        <time>2015-11-23T21:32:48Z</time>
      </trkpt>
      <trkpt lat="48.85956" lon="2.34706">
        <ele>45.599998474121</ele>
        <time>2015-11-23T21:32:56Z</time>
      </trkpt>
      <trkpt lat="48.85956" lon="2.34708">
        <ele>45.599998474121</ele>
        <time>2015-11-23T21:32:57Z</time>
      </trkpt>
      <trkpt lat="48.85956" lon="2.3471">
        <ele>45.599998474121</ele>
        <time>2015-11-23T21:33:00Z</time>
      </trkpt>
    </trkseg>
  </trk>
  <trk>
    <name><![CDATA[lundi 2015 11 16]]></name>
    <extensions>
      <line xmlns="http://www.topografix.com/GPX/gpx_style/0/2">
        <color>000000</color>
      </line>
    </extensions>
    <trkseg>
      <trkpt lat="48.8571" lon="2.34689">
        <ele>40.79999923706</ele>
        <time>2015-11-16T19:19:39Z</time>
      </trkpt>
      <trkpt lat="48.85703" lon="2.34681">
        <ele>40.79999923706</ele>
        <time>2015-11-16T19:19:44Z</time>
      </trkpt>
      <trkpt lat="48.85691" lon="2.34671">
        <ele>41</ele>
        <time>2015-11-16T19:19:47Z</time>
      </trkpt>
      <trkpt lat="48.85673" lon="2.34666">
        <ele>42.400001525879</ele>
        <time>2015-11-16T19:19:53Z</time>
      </trkpt>
      <trkpt lat="48.85653" lon="2.34652">
        <ele>44</ele>
        <time>2015-11-16T19:19:59Z</time>
      </trkpt>
      <trkpt lat="48.85634" lon="2.34641">
        <ele>45.599998474121</ele>
        <time>2015-11-16T19:20:04Z</time>
      </trkpt>
      <trkpt lat="48.85615" lon="2.3463">
        <ele>47.20000076294</ele>
        <time>2015-11-16T19:20:09Z</time>
      </trkpt>
      <trkpt lat="48.85596" lon="2.34615">
        <ele>47.79999923706</ele>
        <time>2015-11-16T19:20:14Z</time>
      </trkpt>
      <trkpt lat="48.85577" lon="2.34607">
        <ele>47.599998474121</ele>
        <time>2015-11-16T19:20:18Z</time>
      </trkpt>
      <trkpt lat="48.85556" lon="2.34602">
        <ele>47.400001525879</ele>
        <time>2015-11-16T19:20:21Z</time>
      </trkpt>
      <trkpt lat="48.85539" lon="2.34592">
        <ele>47.20000076294</ele>
        <time>2015-11-16T19:20:24Z</time>
      </trkpt>
      <trkpt lat="48.85518" lon="2.34577">
        <ele>46.599998474121</ele>
        <time>2015-11-16T19:20:28Z</time>
      </trkpt>
      <trkpt lat="48.855" lon="2.34563">
        <ele>45.400001525879</ele>
        <time>2015-11-16T19:20:32Z</time>
      </trkpt>
      <trkpt lat="48.85482" lon="2.3455">
        <ele>44</ele>
        <time>2015-11-16T19:20:36Z</time>
      </trkpt>
      <trkpt lat="48.85474" lon="2.34545">
        <ele>43.400001525879</ele>
        <time>2015-11-16T19:20:38Z</time>
      </trkpt>
      <trkpt lat="48.85456" lon="2.34533">
        <ele>42.20000076294</ele>
        <time>2015-11-16T19:20:42Z</time>
      </trkpt>
      <trkpt lat="48.85443" lon="2.34516">
        <ele>41.20000076294</ele>
        <time>2015-11-16T19:20:48Z</time>
      </trkpt>
      <trkpt lat="48.85428" lon="2.34507">
        <ele>41.400001525879</ele>
        <time>2015-11-16T19:20:52Z</time>
      </trkpt>
      <trkpt lat="48.85414" lon="2.34493">
        <ele>42</ele>
        <time>2015-11-16T19:20:56Z</time>
      </trkpt>
      <trkpt lat="48.85399" lon="2.34476">
        <ele>42.400001525879</ele>
        <time>2015-11-16T19:21:01Z</time>
      </trkpt>
      <trkpt lat="48.85392" lon="2.34466">
        <ele>42.599998474121</ele>
        <time>2015-11-16T19:21:04Z</time>
      </trkpt>
      <trkpt lat="48.85387" lon="2.34441">
        <ele>42.79999923706</ele>
        <time>2015-11-16T19:21:16Z</time>
      </trkpt>
      <trkpt lat="48.85372" lon="2.34419">
        <ele>43</ele>
        <time>2015-11-16T19:21:27Z</time>
      </trkpt>
      <trkpt lat="48.85355" lon="2.34397">
        <ele>44.599998474121</ele>
        <time>2015-11-16T19:21:32Z</time>
      </trkpt>
      <trkpt lat="48.85342" lon="2.34376">
        <ele>45.599998474121</ele>
        <time>2015-11-16T19:21:36Z</time>
      </trkpt>
      <trkpt lat="48.85327" lon="2.34356">
        <ele>46.79999923706</ele>
        <time>2015-11-16T19:21:40Z</time>
      </trkpt>
      <trkpt lat="48.85311" lon="2.34337">
        <ele>47.79999923706</ele>
        <time>2015-11-16T19:21:44Z</time>
      </trkpt>
      <trkpt lat="48.85307" lon="2.34327">
        <ele>48.20000076294</ele>
        <time>2015-11-16T19:21:46Z</time>
      </trkpt>
      <trkpt lat="48.85296" lon="2.34302">
        <ele>48.79999923706</ele>
        <time>2015-11-16T19:21:51Z</time>
      </trkpt>
      <trkpt lat="48.85284" lon="2.34277">
        <ele>49.400001525879</ele>
        <time>2015-11-16T19:21:56Z</time>
      </trkpt>
      <trkpt lat="48.85281" lon="2.34274">
        <ele>49.400001525879</ele>
        <time>2015-11-16T19:21:57Z</time>
      </trkpt>
      <trkpt lat="48.85265" lon="2.34251">
        <ele>49.79999923706</ele>
        <time>2015-11-16T19:22:02Z</time>
      </trkpt>
      <trkpt lat="48.85251" lon="2.34234">
        <ele>49.20000076294</ele>
        <time>2015-11-16T19:22:06Z</time>
      </trkpt>
      <trkpt lat="48.85246" lon="2.34231">
        <ele>49.20000076294</ele>
        <time>2015-11-16T19:22:07Z</time>
      </trkpt>
      <trkpt lat="48.85229" lon="2.34219">
        <ele>48.400001525879</ele>
        <time>2015-11-16T19:22:11Z</time>
      </trkpt>
      <trkpt lat="48.85221" lon="2.34183">
        <ele>46.79999923706</ele>
        <time>2015-11-16T19:22:17Z</time>
      </trkpt>
      <trkpt lat="48.85209" lon="2.34154">
        <ele>45.599998474121</ele>
        <time>2015-11-16T19:22:22Z</time>
      </trkpt>
      <trkpt lat="48.85208" lon="2.3414">
        <ele>45.400001525879</ele>
        <time>2015-11-16T19:22:24Z</time>
      </trkpt>
      <trkpt lat="48.85204" lon="2.34118">
        <ele>45.20000076294</ele>
        <time>2015-11-16T19:22:29Z</time>
      </trkpt>
      <trkpt lat="48.85206" lon="2.34102">
        <ele>45</ele>
        <time>2015-11-16T19:22:33Z</time>
      </trkpt>
      <trkpt lat="48.8521" lon="2.34062">
        <ele>45.20000076294</ele>
        <time>2015-11-16T19:22:40Z</time>
      </trkpt>
      <trkpt lat="48.85208" lon="2.34032">
        <ele>46</ele>
        <time>2015-11-16T19:22:45Z</time>
      </trkpt>
      <trkpt lat="48.85197" lon="2.34004">
        <ele>46.79999923706</ele>
        <time>2015-11-16T19:22:50Z</time>
      </trkpt>
      <trkpt lat="48.85199" lon="2.33996">
        <ele>46.79999923706</ele>
        <time>2015-11-16T19:22:51Z</time>
      </trkpt>
      <trkpt lat="48.85207" lon="2.33969">
        <ele>47.79999923706</ele>
        <time>2015-11-16T19:22:55Z</time>
      </trkpt>
      <trkpt lat="48.8521" lon="2.33962">
        <ele>48</ele>
        <time>2015-11-16T19:22:56Z</time>
      </trkpt>
      <trkpt lat="48.8522" lon="2.33933">
        <ele>48.599998474121</ele>
        <time>2015-11-16T19:23:00Z</time>
      </trkpt>
      <trkpt lat="48.85227" lon="2.33906">
        <ele>48.20000076294</ele>
        <time>2015-11-16T19:23:04Z</time>
      </trkpt>
      <trkpt lat="48.85224" lon="2.33877">
        <ele>48</ele>
        <time>2015-11-16T19:23:09Z</time>
      </trkpt>
      <trkpt lat="48.85209" lon="2.33866">
        <ele>49</ele>
        <time>2015-11-16T19:23:13Z</time>
      </trkpt>
      <trkpt lat="48.85198" lon="2.33862">
        <ele>49.79999923706</ele>
        <time>2015-11-16T19:23:15Z</time>
      </trkpt>
      <trkpt lat="48.8518" lon="2.33855">
        <ele>50.599998474121</ele>
        <time>2015-11-16T19:23:19Z</time>
      </trkpt>
      <trkpt lat="48.85176" lon="2.33853">
        <ele>50.79999923706</ele>
        <time>2015-11-16T19:23:20Z</time>
      </trkpt>
      <trkpt lat="48.85163" lon="2.33843">
        <ele>51.20000076294</ele>
        <time>2015-11-16T19:23:23Z</time>
      </trkpt>
      <trkpt lat="48.85145" lon="2.33836">
        <ele>51.599998474121</ele>
        <time>2015-11-16T19:23:27Z</time>
      </trkpt>
      <trkpt lat="48.85127" lon="2.33824">
        <ele>52</ele>
        <time>2015-11-16T19:23:32Z</time>
      </trkpt>
      <trkpt lat="48.85126" lon="2.3379">
        <ele>51.400001525879</ele>
        <time>2015-11-16T19:23:36Z</time>
      </trkpt>
      <trkpt lat="48.85126" lon="2.33779">
        <ele>51</ele>
        <time>2015-11-16T19:23:37Z</time>
      </trkpt>
      <trkpt lat="48.85125" lon="2.33748">
        <ele>50.599998474121</ele>
        <time>2015-11-16T19:23:40Z</time>
      </trkpt>
      <trkpt lat="48.85124" lon="2.33739">
        <ele>50.20000076294</ele>
        <time>2015-11-16T19:23:41Z</time>
      </trkpt>
      <trkpt lat="48.85127" lon="2.3371">
        <ele>49.20000076294</ele>
        <time>2015-11-16T19:23:44Z</time>
      </trkpt>
      <trkpt lat="48.85127" lon="2.33679">
        <ele>48</ele>
        <time>2015-11-16T19:23:47Z</time>
      </trkpt>
      <trkpt lat="48.85125" lon="2.33648">
        <ele>47.79999923706</ele>
        <time>2015-11-16T19:23:50Z</time>
      </trkpt>
      <trkpt lat="48.85122" lon="2.3362">
        <ele>48.20000076294</ele>
        <time>2015-11-16T19:23:53Z</time>
      </trkpt>
      <trkpt lat="48.85121" lon="2.33592">
        <ele>48.599998474121</ele>
        <time>2015-11-16T19:23:56Z</time>
      </trkpt>
      <trkpt lat="48.85125" lon="2.33568">
        <ele>49.599998474121</ele>
        <time>2015-11-16T19:23:58Z</time>
      </trkpt>
      <trkpt lat="48.85129" lon="2.33541">
        <ele>51.599998474121</ele>
        <time>2015-11-16T19:24:01Z</time>
      </trkpt>
      <trkpt lat="48.8513" lon="2.33507">
        <ele>53.400001525879</ele>
        <time>2015-11-16T19:24:06Z</time>
      </trkpt>
      <trkpt lat="48.85127" lon="2.3349">
        <ele>53.599998474121</ele>
        <time>2015-11-16T19:24:08Z</time>
      </trkpt>
      <trkpt lat="48.85121" lon="2.33461">
        <ele>52.79999923706</ele>
        <time>2015-11-16T19:24:12Z</time>
      </trkpt>
      <trkpt lat="48.85118" lon="2.33431">
        <ele>51.79999923706</ele>
        <time>2015-11-16T19:24:16Z</time>
      </trkpt>
      <trkpt lat="48.85118" lon="2.33422">
        <ele>51.599998474121</ele>
        <time>2015-11-16T19:24:17Z</time>
      </trkpt>
      <trkpt lat="48.85116" lon="2.33395">
        <ele>50.79999923706</ele>
        <time>2015-11-16T19:24:20Z</time>
      </trkpt>
      <trkpt lat="48.85111" lon="2.33366">
        <ele>49.599998474121</ele>
        <time>2015-11-16T19:24:24Z</time>
      </trkpt>
      <trkpt lat="48.85111" lon="2.33338">
        <ele>48.20000076294</ele>
        <time>2015-11-16T19:24:27Z</time>
      </trkpt>
      <trkpt lat="48.85109" lon="2.3333">
        <ele>48</ele>
        <time>2015-11-16T19:24:28Z</time>
      </trkpt>
      <trkpt lat="48.85096" lon="2.3331">
        <ele>48.20000076294</ele>
        <time>2015-11-16T19:24:32Z</time>
      </trkpt>
      <trkpt lat="48.85081" lon="2.33305">
        <ele>48.79999923706</ele>
        <time>2015-11-16T19:24:35Z</time>
      </trkpt>
      <trkpt lat="48.85061" lon="2.33298">
        <ele>49.20000076294</ele>
        <time>2015-11-16T19:24:39Z</time>
      </trkpt>
      <trkpt lat="48.85041" lon="2.33292">
        <ele>49.400001525879</ele>
        <time>2015-11-16T19:24:43Z</time>
      </trkpt>
      <trkpt lat="48.85021" lon="2.33288">
        <ele>49.599998474121</ele>
        <time>2015-11-16T19:24:47Z</time>
      </trkpt>
      <trkpt lat="48.85011" lon="2.33287">
        <ele>50</ele>
        <time>2015-11-16T19:24:49Z</time>
      </trkpt>
      <trkpt lat="48.84989" lon="2.33285">
        <ele>50.79999923706</ele>
        <time>2015-11-16T19:24:53Z</time>
      </trkpt>
      <trkpt lat="48.84966" lon="2.33283">
        <ele>51.79999923706</ele>
        <time>2015-11-16T19:24:57Z</time>
      </trkpt>
      <trkpt lat="48.84942" lon="2.33281">
        <ele>53</ele>
        <time>2015-11-16T19:25:01Z</time>
      </trkpt>
      <trkpt lat="48.84919" lon="2.3328">
        <ele>52.79999923706</ele>
        <time>2015-11-16T19:25:05Z</time>
      </trkpt>
      <trkpt lat="48.84896" lon="2.33281">
        <ele>52.20000076294</ele>
        <time>2015-11-16T19:25:09Z</time>
      </trkpt>
      <trkpt lat="48.84876" lon="2.33282">
        <ele>51.79999923706</ele>
        <time>2015-11-16T19:25:13Z</time>
      </trkpt>
      <trkpt lat="48.84869" lon="2.33282">
        <ele>51.79999923706</ele>
        <time>2015-11-16T19:25:15Z</time>
      </trkpt>
      <trkpt lat="48.84859" lon="2.33272">
        <ele>51.79999923706</ele>
        <time>2015-11-16T19:25:19Z</time>
      </trkpt>
      <trkpt lat="48.84856" lon="2.33266">
        <ele>51.79999923706</ele>
        <time>2015-11-16T19:25:21Z</time>
      </trkpt>
      <trkpt lat="48.84856" lon="2.33264">
        <ele>51.79999923706</ele>
        <time>2015-11-16T19:25:24Z</time>
      </trkpt>
      <trkpt lat="48.84842" lon="2.33256">
        <ele>51.79999923706</ele>
        <time>2015-11-16T19:25:44Z</time>
      </trkpt>
      <trkpt lat="48.84822" lon="2.33255">
        <ele>51.400001525879</ele>
        <time>2015-11-16T19:25:49Z</time>
      </trkpt>
      <trkpt lat="48.84801" lon="2.33255">
        <ele>51.20000076294</ele>
        <time>2015-11-16T19:25:53Z</time>
      </trkpt>
      <trkpt lat="48.84777" lon="2.33255">
        <ele>51</ele>
        <time>2015-11-16T19:25:57Z</time>
      </trkpt>
      <trkpt lat="48.84758" lon="2.33255">
        <ele>51.400001525879</ele>
        <time>2015-11-16T19:26:00Z</time>
      </trkpt>
      <trkpt lat="48.84739" lon="2.33257">
        <ele>52</ele>
        <time>2015-11-16T19:26:03Z</time>
      </trkpt>
      <trkpt lat="48.8472" lon="2.33256">
        <ele>52.599998474121</ele>
        <time>2015-11-16T19:26:06Z</time>
      </trkpt>
      <trkpt lat="48.84702" lon="2.33252">
        <ele>53.400001525879</ele>
        <time>2015-11-16T19:26:09Z</time>
      </trkpt>
      <trkpt lat="48.84691" lon="2.33251">
        <ele>53.79999923706</ele>
        <time>2015-11-16T19:26:11Z</time>
      </trkpt>
      <trkpt lat="48.84668" lon="2.33252">
        <ele>53.599998474121</ele>
        <time>2015-11-16T19:26:15Z</time>
      </trkpt>
      <trkpt lat="48.84645" lon="2.33251">
        <ele>53.79999923706</ele>
        <time>2015-11-16T19:26:19Z</time>
      </trkpt>
      <trkpt lat="48.84625" lon="2.33249">
        <ele>53.79999923706</ele>
        <time>2015-11-16T19:26:22Z</time>
      </trkpt>
      <trkpt lat="48.84605" lon="2.33247">
        <ele>54</ele>
        <time>2015-11-16T19:26:25Z</time>
      </trkpt>
      <trkpt lat="48.84592" lon="2.33245">
        <ele>53.599998474121</ele>
        <time>2015-11-16T19:26:27Z</time>
      </trkpt>
      <trkpt lat="48.8457" lon="2.33243">
        <ele>53</ele>
        <time>2015-11-16T19:26:30Z</time>
      </trkpt>
      <trkpt lat="48.84552" lon="2.3324">
        <ele>52.599998474121</ele>
        <time>2015-11-16T19:26:33Z</time>
      </trkpt>
      <trkpt lat="48.84529" lon="2.33237">
        <ele>51.79999923706</ele>
        <time>2015-11-16T19:26:37Z</time>
      </trkpt>
      <trkpt lat="48.84514" lon="2.33233">
        <ele>51.79999923706</ele>
        <time>2015-11-16T19:26:40Z</time>
      </trkpt>
      <trkpt lat="48.84497" lon="2.33228">
        <ele>52.400001525879</ele>
        <time>2015-11-16T19:26:45Z</time>
      </trkpt>
      <trkpt lat="48.84482" lon="2.33225">
        <ele>53.20000076294</ele>
        <time>2015-11-16T19:26:52Z</time>
      </trkpt>
      <trkpt lat="48.84475" lon="2.33216">
        <ele>53.599998474121</ele>
        <time>2015-11-16T19:26:55Z</time>
      </trkpt>
      <trkpt lat="48.84467" lon="2.332">
        <ele>54.20000076294</ele>
        <time>2015-11-16T19:26:59Z</time>
      </trkpt>
      <trkpt lat="48.84458" lon="2.33188">
        <ele>54.79999923706</ele>
        <time>2015-11-16T19:27:03Z</time>
      </trkpt>
      <trkpt lat="48.84441" lon="2.33174">
        <ele>55.79999923706</ele>
        <time>2015-11-16T19:27:10Z</time>
      </trkpt>
      <trkpt lat="48.84426" lon="2.33152">
        <ele>56.20000076294</ele>
        <time>2015-11-16T19:27:17Z</time>
      </trkpt>
      <trkpt lat="48.84411" lon="2.33133">
        <ele>56.400001525879</ele>
        <time>2015-11-16T19:27:23Z</time>
      </trkpt>
      <trkpt lat="48.84397" lon="2.3311">
        <ele>56.79999923706</ele>
        <time>2015-11-16T19:27:31Z</time>
      </trkpt>
      <trkpt lat="48.84383" lon="2.33091">
        <ele>57</ele>
        <time>2015-11-16T19:27:39Z</time>
      </trkpt>
      <trkpt lat="48.84386" lon="2.33083">
        <ele>57.400001525879</ele>
        <time>2015-11-16T19:27:41Z</time>
      </trkpt>
      <trkpt lat="48.84393" lon="2.33064">
        <ele>57.79999923706</ele>
        <time>2015-11-16T19:27:50Z</time>
      </trkpt>
      <trkpt lat="48.84394" lon="2.33063">
        <ele>57.79999923706</ele>
        <time>2015-11-16T19:27:51Z</time>
      </trkpt>
      <trkpt lat="48.84384" lon="2.33076">
        <ele>57.400001525879</ele>
        <time>2015-11-16T19:28:00Z</time>
      </trkpt>
      <trkpt lat="48.84367" lon="2.33094">
        <ele>57</ele>
        <time>2015-11-16T19:28:05Z</time>
      </trkpt>
      <trkpt lat="48.84349" lon="2.33108">
        <ele>57.79999923706</ele>
        <time>2015-11-16T19:28:10Z</time>
      </trkpt>
      <trkpt lat="48.84332" lon="2.33123">
        <ele>58.400001525879</ele>
        <time>2015-11-16T19:28:15Z</time>
      </trkpt>
      <trkpt lat="48.84316" lon="2.33141">
        <ele>59</ele>
        <time>2015-11-16T19:28:21Z</time>
      </trkpt>
      <trkpt lat="48.84298" lon="2.33149">
        <ele>59.400001525879</ele>
        <time>2015-11-16T19:28:28Z</time>
      </trkpt>
      <trkpt lat="48.84277" lon="2.33158">
        <ele>59.79999923706</ele>
        <time>2015-11-16T19:28:33Z</time>
      </trkpt>
      <trkpt lat="48.8426" lon="2.33172">
        <ele>60.400001525879</ele>
        <time>2015-11-16T19:28:37Z</time>
      </trkpt>
      <trkpt lat="48.84241" lon="2.33182">
        <ele>61.20000076294</ele>
        <time>2015-11-16T19:28:41Z</time>
      </trkpt>
      <trkpt lat="48.84223" lon="2.33193">
        <ele>61.79999923706</ele>
        <time>2015-11-16T19:28:45Z</time>
      </trkpt>
      <trkpt lat="48.84205" lon="2.33204">
        <ele>62.20000076294</ele>
        <time>2015-11-16T19:28:49Z</time>
      </trkpt>
      <trkpt lat="48.84189" lon="2.33217">
        <ele>62.400001525879</ele>
        <time>2015-11-16T19:28:53Z</time>
      </trkpt>
      <trkpt lat="48.84172" lon="2.33231">
        <ele>62.79999923706</ele>
        <time>2015-11-16T19:28:57Z</time>
      </trkpt>
      <trkpt lat="48.84156" lon="2.33252">
        <ele>63.20000076294</ele>
        <time>2015-11-16T19:29:02Z</time>
      </trkpt>
      <trkpt lat="48.84144" lon="2.33274">
        <ele>63.599998474121</ele>
        <time>2015-11-16T19:29:06Z</time>
      </trkpt>
      <trkpt lat="48.84132" lon="2.33297">
        <ele>63.599998474121</ele>
        <time>2015-11-16T19:29:10Z</time>
      </trkpt>
      <trkpt lat="48.84128" lon="2.33302">
        <ele>63.400001525879</ele>
        <time>2015-11-16T19:29:11Z</time>
      </trkpt>
      <trkpt lat="48.84114" lon="2.33326">
        <ele>63</ele>
        <time>2015-11-16T19:29:15Z</time>
      </trkpt>
      <trkpt lat="48.84108" lon="2.33354">
        <ele>62.20000076294</ele>
        <time>2015-11-16T19:29:19Z</time>
      </trkpt>
      <trkpt lat="48.84104" lon="2.3338">
        <ele>61.20000076294</ele>
        <time>2015-11-16T19:29:23Z</time>
      </trkpt>
      <trkpt lat="48.8409" lon="2.334">
        <ele>61.20000076294</ele>
        <time>2015-11-16T19:29:28Z</time>
      </trkpt>
      <trkpt lat="48.84087" lon="2.33405">
        <ele>61.20000076294</ele>
        <time>2015-11-16T19:29:29Z</time>
      </trkpt>
      <trkpt lat="48.84082" lon="2.33417">
        <ele>61.599998474121</ele>
        <time>2015-11-16T19:29:31Z</time>
      </trkpt>
      <trkpt lat="48.84075" lon="2.33436">
        <ele>63.79999923706</ele>
        <time>2015-11-16T19:29:34Z</time>
      </trkpt>
      <trkpt lat="48.84067" lon="2.33461">
        <ele>66.199996948242</ele>
        <time>2015-11-16T19:29:38Z</time>
      </trkpt>
      <trkpt lat="48.84059" lon="2.33485">
        <ele>66.199996948242</ele>
        <time>2015-11-16T19:29:42Z</time>
      </trkpt>
      <trkpt lat="48.84058" lon="2.33492">
        <ele>66.400001525879</ele>
        <time>2015-11-16T19:29:43Z</time>
      </trkpt>
      <trkpt lat="48.84056" lon="2.33519">
        <ele>67</ele>
        <time>2015-11-16T19:29:46Z</time>
      </trkpt>
      <trkpt lat="48.84048" lon="2.33537">
        <ele>66.599998474121</ele>
        <time>2015-11-16T19:29:49Z</time>
      </trkpt>
      <trkpt lat="48.84038" lon="2.33563">
        <ele>65.400001525879</ele>
        <time>2015-11-16T19:29:54Z</time>
      </trkpt>
      <trkpt lat="48.84039" lon="2.33577">
        <ele>65</ele>
        <time>2015-11-16T19:29:56Z</time>
      </trkpt>
      <trkpt lat="48.8404" lon="2.33591">
        <ele>64</ele>
        <time>2015-11-16T19:29:58Z</time>
      </trkpt>
      <trkpt lat="48.84039" lon="2.33614">
        <ele>63</ele>
        <time>2015-11-16T19:30:02Z</time>
      </trkpt>
      <trkpt lat="48.84039" lon="2.33622">
        <ele>62.79999923706</ele>
        <time>2015-11-16T19:30:04Z</time>
      </trkpt>
      <trkpt lat="48.84038" lon="2.33632">
        <ele>62.599998474121</ele>
        <time>2015-11-16T19:30:07Z</time>
      </trkpt>
      <trkpt lat="48.84023" lon="2.33649">
        <ele>62.400001525879</ele>
        <time>2015-11-16T19:30:14Z</time>
      </trkpt>
      <trkpt lat="48.84019" lon="2.33651">
        <ele>62.20000076294</ele>
        <time>2015-11-16T19:30:15Z</time>
      </trkpt>
      <trkpt lat="48.84013" lon="2.33655">
        <ele>61.599998474121</ele>
        <time>2015-11-16T19:30:17Z</time>
      </trkpt>
      <trkpt lat="48.84" lon="2.33673">
        <ele>62</ele>
        <time>2015-11-16T19:30:33Z</time>
      </trkpt>
      <trkpt lat="48.83988" lon="2.33675">
        <ele>61.79999923706</ele>
        <time>2015-11-16T19:31:40Z</time>
      </trkpt>
      <trkpt lat="48.83988" lon="2.33667">
        <ele>61.599998474121</ele>
        <time>2015-11-16T19:31:49Z</time>
      </trkpt>
      <trkpt lat="48.83981" lon="2.33643">
        <ele>61</ele>
        <time>2015-11-16T19:32:12Z</time>
      </trkpt>
      <trkpt lat="48.83981" lon="2.33639">
        <ele>60.79999923706</ele>
        <time>2015-11-16T19:32:13Z</time>
      </trkpt>
      <trkpt lat="48.83985" lon="2.33612">
        <ele>61</ele>
        <time>2015-11-16T19:32:18Z</time>
      </trkpt>
      <trkpt lat="48.83993" lon="2.33586">
        <ele>62.20000076294</ele>
        <time>2015-11-16T19:32:22Z</time>
      </trkpt>
      <trkpt lat="48.84001" lon="2.33557">
        <ele>63.20000076294</ele>
        <time>2015-11-16T19:32:26Z</time>
      </trkpt>
      <trkpt lat="48.84008" lon="2.33526">
        <ele>64.400001525879</ele>
        <time>2015-11-16T19:32:30Z</time>
      </trkpt>
      <trkpt lat="48.84016" lon="2.33498">
        <ele>65.599998474121</ele>
        <time>2015-11-16T19:32:34Z</time>
      </trkpt>
      <trkpt lat="48.84023" lon="2.33473">
        <ele>65.800003051758</ele>
        <time>2015-11-16T19:32:38Z</time>
      </trkpt>
      <trkpt lat="48.84033" lon="2.33445">
        <ele>65.400001525879</ele>
        <time>2015-11-16T19:32:42Z</time>
      </trkpt>
      <trkpt lat="48.84041" lon="2.33417">
        <ele>64.199996948242</ele>
        <time>2015-11-16T19:32:46Z</time>
      </trkpt>
      <trkpt lat="48.84048" lon="2.33389">
        <ele>63.79999923706</ele>
        <time>2015-11-16T19:32:51Z</time>
      </trkpt>
      <trkpt lat="48.84049" lon="2.33384">
        <ele>63.79999923706</ele>
        <time>2015-11-16T19:32:52Z</time>
      </trkpt>
      <trkpt lat="48.84043" lon="2.33359">
        <ele>64.400001525879</ele>
        <time>2015-11-16T19:33:03Z</time>
      </trkpt>
      <trkpt lat="48.84027" lon="2.33341">
        <ele>65.599998474121</ele>
        <time>2015-11-16T19:33:08Z</time>
      </trkpt>
      <trkpt lat="48.84011" lon="2.33322">
        <ele>65.599998474121</ele>
        <time>2015-11-16T19:33:13Z</time>
      </trkpt>
      <trkpt lat="48.83997" lon="2.333">
        <ele>64.800003051758</ele>
        <time>2015-11-16T19:33:18Z</time>
      </trkpt>
      <trkpt lat="48.83983" lon="2.33279">
        <ele>64</ele>
        <time>2015-11-16T19:33:23Z</time>
      </trkpt>
      <trkpt lat="48.83972" lon="2.33253">
        <ele>63.20000076294</ele>
        <time>2015-11-16T19:33:28Z</time>
      </trkpt>
      <trkpt lat="48.83956" lon="2.33233">
        <ele>62.79999923706</ele>
        <time>2015-11-16T19:33:33Z</time>
      </trkpt>
      <trkpt lat="48.83942" lon="2.33216">
        <ele>62.400001525879</ele>
        <time>2015-11-16T19:33:37Z</time>
      </trkpt>
      <trkpt lat="48.83929" lon="2.33188">
        <ele>63</ele>
        <time>2015-11-16T19:33:42Z</time>
      </trkpt>
      <trkpt lat="48.83917" lon="2.33169">
        <ele>63.400001525879</ele>
        <time>2015-11-16T19:33:46Z</time>
      </trkpt>
      <trkpt lat="48.839" lon="2.3315">
        <ele>64.199996948242</ele>
        <time>2015-11-16T19:33:51Z</time>
      </trkpt>
      <trkpt lat="48.8389" lon="2.33125">
        <ele>64.599998474121</ele>
        <time>2015-11-16T19:33:57Z</time>
      </trkpt>
      <trkpt lat="48.83887" lon="2.33111">
        <ele>64.800003051758</ele>
        <time>2015-11-16T19:34:01Z</time>
      </trkpt>
      <trkpt lat="48.83893" lon="2.33089">
        <ele>65</ele>
        <time>2015-11-16T19:34:06Z</time>
      </trkpt>
      <trkpt lat="48.83909" lon="2.33066">
        <ele>63.79999923706</ele>
        <time>2015-11-16T19:34:11Z</time>
      </trkpt>
      <trkpt lat="48.83925" lon="2.33053">
        <ele>62.79999923706</ele>
        <time>2015-11-16T19:34:16Z</time>
      </trkpt>
      <trkpt lat="48.83931" lon="2.3305">
        <ele>62.599998474121</ele>
        <time>2015-11-16T19:34:18Z</time>
      </trkpt>
      <trkpt lat="48.8394" lon="2.33028">
        <ele>61.400001525879</ele>
        <time>2015-11-16T19:34:39Z</time>
      </trkpt>
      <trkpt lat="48.83945" lon="2.33002">
        <ele>60</ele>
        <time>2015-11-16T19:34:44Z</time>
      </trkpt>
      <trkpt lat="48.83953" lon="2.32977">
        <ele>58.599998474121</ele>
        <time>2015-11-16T19:34:48Z</time>
      </trkpt>
      <trkpt lat="48.83963" lon="2.32952">
        <ele>57</ele>
        <time>2015-11-16T19:34:52Z</time>
      </trkpt>
      <trkpt lat="48.83973" lon="2.32927">
        <ele>56.599998474121</ele>
        <time>2015-11-16T19:34:56Z</time>
      </trkpt>
      <trkpt lat="48.83983" lon="2.32903">
        <ele>57.20000076294</ele>
        <time>2015-11-16T19:35:00Z</time>
      </trkpt>
      <trkpt lat="48.83985" lon="2.32897">
        <ele>57.599998474121</ele>
        <time>2015-11-16T19:35:01Z</time>
      </trkpt>
      <trkpt lat="48.83996" lon="2.32868">
        <ele>58.20000076294</ele>
        <time>2015-11-16T19:35:06Z</time>
      </trkpt>
      <trkpt lat="48.84006" lon="2.32842">
        <ele>58.400001525879</ele>
        <time>2015-11-16T19:35:10Z</time>
      </trkpt>
      <trkpt lat="48.84015" lon="2.32816">
        <ele>58.79999923706</ele>
        <time>2015-11-16T19:35:14Z</time>
      </trkpt>
      <trkpt lat="48.8402" lon="2.32801">
        <ele>59.20000076294</ele>
        <time>2015-11-16T19:35:16Z</time>
      </trkpt>
      <trkpt lat="48.84028" lon="2.32777">
        <ele>59.79999923706</ele>
        <time>2015-11-16T19:35:20Z</time>
      </trkpt>
      <trkpt lat="48.84039" lon="2.32748">
        <ele>60.79999923706</ele>
        <time>2015-11-16T19:35:25Z</time>
      </trkpt>
      <trkpt lat="48.84048" lon="2.32718">
        <ele>61.20000076294</ele>
        <time>2015-11-16T19:35:30Z</time>
      </trkpt>
      <trkpt lat="48.84057" lon="2.32688">
        <ele>61.400001525879</ele>
        <time>2015-11-16T19:35:35Z</time>
      </trkpt>
      <trkpt lat="48.84065" lon="2.32661">
        <ele>61</ele>
        <time>2015-11-16T19:35:39Z</time>
      </trkpt>
      <trkpt lat="48.84068" lon="2.32655">
        <ele>60.79999923706</ele>
        <time>2015-11-16T19:35:40Z</time>
      </trkpt>
      <trkpt lat="48.84077" lon="2.32631">
        <ele>60.599998474121</ele>
        <time>2015-11-16T19:35:44Z</time>
      </trkpt>
      <trkpt lat="48.84085" lon="2.32605">
        <ele>60</ele>
        <time>2015-11-16T19:35:49Z</time>
      </trkpt>
      <trkpt lat="48.84088" lon="2.32593">
        <ele>59.79999923706</ele>
        <time>2015-11-16T19:35:52Z</time>
      </trkpt>
      <trkpt lat="48.84094" lon="2.32576">
        <ele>59.599998474121</ele>
        <time>2015-11-16T19:35:56Z</time>
      </trkpt>
      <trkpt lat="48.84103" lon="2.32551">
        <ele>60.599998474121</ele>
        <time>2015-11-16T19:36:01Z</time>
      </trkpt>
      <trkpt lat="48.84113" lon="2.32521">
        <ele>61.79999923706</ele>
        <time>2015-11-16T19:36:06Z</time>
      </trkpt>
      <trkpt lat="48.84124" lon="2.32495">
        <ele>62.20000076294</ele>
        <time>2015-11-16T19:36:11Z</time>
      </trkpt>
      <trkpt lat="48.8414" lon="2.32477">
        <ele>62</ele>
        <time>2015-11-16T19:36:16Z</time>
      </trkpt>
      <trkpt lat="48.84157" lon="2.3247">
        <ele>62</ele>
        <time>2015-11-16T19:36:20Z</time>
      </trkpt>
      <trkpt lat="48.84176" lon="2.32462">
        <ele>62.79999923706</ele>
        <time>2015-11-16T19:36:24Z</time>
      </trkpt>
      <trkpt lat="48.84195" lon="2.32457">
        <ele>63.599998474121</ele>
        <time>2015-11-16T19:36:28Z</time>
      </trkpt>
      <trkpt lat="48.84215" lon="2.32451">
        <ele>63.79999923706</ele>
        <time>2015-11-16T19:36:32Z</time>
      </trkpt>
      <trkpt lat="48.84233" lon="2.32448">
        <ele>63.79999923706</ele>
        <time>2015-11-16T19:36:36Z</time>
      </trkpt>
      <trkpt lat="48.84254" lon="2.32443">
        <ele>63.20000076294</ele>
        <time>2015-11-16T19:36:40Z</time>
      </trkpt>
      <trkpt lat="48.84274" lon="2.32438">
        <ele>62.599998474121</ele>
        <time>2015-11-16T19:36:44Z</time>
      </trkpt>
      <trkpt lat="48.84283" lon="2.32434">
        <ele>62.400001525879</ele>
        <time>2015-11-16T19:36:46Z</time>
      </trkpt>
      <trkpt lat="48.84302" lon="2.32428">
        <ele>62.400001525879</ele>
        <time>2015-11-16T19:36:51Z</time>
      </trkpt>
      <trkpt lat="48.84305" lon="2.32426">
        <ele>62.400001525879</ele>
        <time>2015-11-16T19:36:52Z</time>
      </trkpt>
      <trkpt lat="48.84326" lon="2.32428">
        <ele>62.400001525879</ele>
        <time>2015-11-16T19:36:57Z</time>
      </trkpt>
      <trkpt lat="48.84337" lon="2.32433">
        <ele>62.400001525879</ele>
        <time>2015-11-16T19:37:00Z</time>
      </trkpt>
      <trkpt lat="48.84345" lon="2.32428">
        <ele>62.400001525879</ele>
        <time>2015-11-16T19:37:07Z</time>
      </trkpt>
      <trkpt lat="48.84345" lon="2.32427">
        <ele>62.400001525879</ele>
        <time>2015-11-16T19:37:09Z</time>
      </trkpt>
      <trkpt lat="48.84362" lon="2.32423">
        <ele>62</ele>
        <time>2015-11-16T19:37:19Z</time>
      </trkpt>
      <trkpt lat="48.84362" lon="2.32413">
        <ele>61.79999923706</ele>
        <time>2015-11-16T19:37:23Z</time>
      </trkpt>
      <trkpt lat="48.84362" lon="2.32412">
        <ele>61.79999923706</ele>
        <time>2015-11-16T19:37:24Z</time>
      </trkpt>
      <trkpt lat="48.84378" lon="2.32398">
        <ele>61</ele>
        <time>2015-11-16T19:37:44Z</time>
      </trkpt>
      <trkpt lat="48.84389" lon="2.32375">
        <ele>60.400001525879</ele>
        <time>2015-11-16T19:37:49Z</time>
      </trkpt>
      <trkpt lat="48.84394" lon="2.32342">
        <ele>59.20000076294</ele>
        <time>2015-11-16T19:37:55Z</time>
      </trkpt>
      <trkpt lat="48.84393" lon="2.32314">
        <ele>59.20000076294</ele>
        <time>2015-11-16T19:37:59Z</time>
      </trkpt>
      <trkpt lat="48.8439" lon="2.32285">
        <ele>60</ele>
        <time>2015-11-16T19:38:03Z</time>
      </trkpt>
      <trkpt lat="48.8439" lon="2.32265">
        <ele>60.400001525879</ele>
        <time>2015-11-16T19:38:07Z</time>
      </trkpt>
      <trkpt lat="48.84369" lon="2.32253">
        <ele>62</ele>
        <time>2015-11-16T19:38:12Z</time>
      </trkpt>
      <trkpt lat="48.8435" lon="2.32245">
        <ele>62.599998474121</ele>
        <time>2015-11-16T19:38:16Z</time>
      </trkpt>
      <trkpt lat="48.84334" lon="2.32231">
        <ele>61.20000076294</ele>
        <time>2015-11-16T19:38:20Z</time>
      </trkpt>
      <trkpt lat="48.8432" lon="2.32218">
        <ele>59.79999923706</ele>
        <time>2015-11-16T19:38:24Z</time>
      </trkpt>
      <trkpt lat="48.84302" lon="2.32202">
        <ele>58.20000076294</ele>
        <time>2015-11-16T19:38:29Z</time>
      </trkpt>
      <trkpt lat="48.84299" lon="2.32199">
        <ele>57.79999923706</ele>
        <time>2015-11-16T19:38:30Z</time>
      </trkpt>
      <trkpt lat="48.84281" lon="2.32183">
        <ele>56.20000076294</ele>
        <time>2015-11-16T19:38:36Z</time>
      </trkpt>
      <trkpt lat="48.84263" lon="2.32168">
        <ele>55</ele>
        <time>2015-11-16T19:38:41Z</time>
      </trkpt>
      <trkpt lat="48.84258" lon="2.32155">
        <ele>54.400001525879</ele>
        <time>2015-11-16T19:38:43Z</time>
      </trkpt>
      <trkpt lat="48.84257" lon="2.32127">
        <ele>54.400001525879</ele>
        <time>2015-11-16T19:38:50Z</time>
      </trkpt>
      <trkpt lat="48.84254" lon="2.32127">
        <ele>54.20000076294</ele>
        <time>2015-11-16T19:38:53Z</time>
      </trkpt>
      <trkpt lat="48.84255" lon="2.32126">
        <ele>54.20000076294</ele>
        <time>2015-11-16T19:38:55Z</time>
      </trkpt>
      <trkpt lat="48.84239" lon="2.32107">
        <ele>53.20000076294</ele>
        <time>2015-11-16T19:39:14Z</time>
      </trkpt>
      <trkpt lat="48.84224" lon="2.3209">
        <ele>52.400001525879</ele>
        <time>2015-11-16T19:39:22Z</time>
      </trkpt>
      <trkpt lat="48.84206" lon="2.32073">
        <ele>52</ele>
        <time>2015-11-16T19:39:29Z</time>
      </trkpt>
      <trkpt lat="48.84199" lon="2.32056">
        <ele>53.599998474121</ele>
        <time>2015-11-16T19:39:33Z</time>
      </trkpt>
      <trkpt lat="48.84189" lon="2.32028">
        <ele>56.400001525879</ele>
        <time>2015-11-16T19:39:37Z</time>
      </trkpt>
      <trkpt lat="48.84184" lon="2.32014">
        <ele>58.400001525879</ele>
        <time>2015-11-16T19:39:39Z</time>
      </trkpt>
      <trkpt lat="48.84178" lon="2.31991">
        <ele>61.400001525879</ele>
        <time>2015-11-16T19:39:42Z</time>
      </trkpt>
      <trkpt lat="48.84171" lon="2.31961">
        <ele>63.599998474121</ele>
        <time>2015-11-16T19:39:46Z</time>
      </trkpt>
      <trkpt lat="48.84162" lon="2.31935">
        <ele>66</ele>
        <time>2015-11-16T19:39:51Z</time>
      </trkpt>
      <trkpt lat="48.84156" lon="2.3193">
        <ele>66.800003051758</ele>
        <time>2015-11-16T19:39:53Z</time>
      </trkpt>
      <trkpt lat="48.8414" lon="2.31918">
        <ele>68.599998474121</ele>
        <time>2015-11-16T19:39:57Z</time>
      </trkpt>
      <trkpt lat="48.84138" lon="2.31879">
        <ele>68.599998474121</ele>
        <time>2015-11-16T19:40:01Z</time>
      </trkpt>
      <trkpt lat="48.84136" lon="2.31871">
        <ele>68.599998474121</ele>
        <time>2015-11-16T19:40:02Z</time>
      </trkpt>
      <trkpt lat="48.8413" lon="2.31848">
        <ele>69</ele>
        <time>2015-11-16T19:40:05Z</time>
      </trkpt>
      <trkpt lat="48.84118" lon="2.31827">
        <ele>69.400001525879</ele>
        <time>2015-11-16T19:40:09Z</time>
      </trkpt>
      <trkpt lat="48.84111" lon="2.31798">
        <ele>68.599998474121</ele>
        <time>2015-11-16T19:40:15Z</time>
      </trkpt>
      <trkpt lat="48.84099" lon="2.31785">
        <ele>68.400001525879</ele>
        <time>2015-11-16T19:40:19Z</time>
      </trkpt>
      <trkpt lat="48.84085" lon="2.3176">
        <ele>67.800003051758</ele>
        <time>2015-11-16T19:40:24Z</time>
      </trkpt>
      <trkpt lat="48.84076" lon="2.3175">
        <ele>67.400001525879</ele>
        <time>2015-11-16T19:40:27Z</time>
      </trkpt>
      <trkpt lat="48.8407" lon="2.31718">
        <ele>66</ele>
        <time>2015-11-16T19:40:31Z</time>
      </trkpt>
      <trkpt lat="48.84066" lon="2.31702">
        <ele>65.400001525879</ele>
        <time>2015-11-16T19:40:33Z</time>
      </trkpt>
      <trkpt lat="48.84061" lon="2.31666">
        <ele>64.599998474121</ele>
        <time>2015-11-16T19:40:37Z</time>
      </trkpt>
      <trkpt lat="48.8406" lon="2.31658">
        <ele>64.599998474121</ele>
        <time>2015-11-16T19:40:38Z</time>
      </trkpt>
      <trkpt lat="48.84053" lon="2.3163">
        <ele>65.199996948242</ele>
        <time>2015-11-16T19:40:42Z</time>
      </trkpt>
      <trkpt lat="48.84052" lon="2.31623">
        <ele>65.400001525879</ele>
        <time>2015-11-16T19:40:43Z</time>
      </trkpt>
      <trkpt lat="48.84051" lon="2.316">
        <ele>65.400001525879</ele>
        <time>2015-11-16T19:40:46Z</time>
      </trkpt>
      <trkpt lat="48.8405" lon="2.31578">
        <ele>65</ele>
        <time>2015-11-16T19:40:50Z</time>
      </trkpt>
      <trkpt lat="48.8405" lon="2.31557">
        <ele>64.800003051758</ele>
        <time>2015-11-16T19:40:53Z</time>
      </trkpt>
      <trkpt lat="48.84054" lon="2.31527">
        <ele>64.199996948242</ele>
        <time>2015-11-16T19:40:57Z</time>
      </trkpt>
      <trkpt lat="48.84066" lon="2.31502">
        <ele>64</ele>
        <time>2015-11-16T19:41:00Z</time>
      </trkpt>
      <trkpt lat="48.84081" lon="2.31483">
        <ele>63.400001525879</ele>
        <time>2015-11-16T19:41:03Z</time>
      </trkpt>
      <trkpt lat="48.84085" lon="2.31477">
        <ele>63.20000076294</ele>
        <time>2015-11-16T19:41:04Z</time>
      </trkpt>
      <trkpt lat="48.84103" lon="2.31456">
        <ele>62.20000076294</ele>
        <time>2015-11-16T19:41:08Z</time>
      </trkpt>
      <trkpt lat="48.84119" lon="2.31435">
        <ele>61.20000076294</ele>
        <time>2015-11-16T19:41:12Z</time>
      </trkpt>
      <trkpt lat="48.84133" lon="2.31417">
        <ele>60.400001525879</ele>
        <time>2015-11-16T19:41:16Z</time>
      </trkpt>
      <trkpt lat="48.8414" lon="2.31409">
        <ele>60</ele>
        <time>2015-11-16T19:41:18Z</time>
      </trkpt>
      <trkpt lat="48.8415" lon="2.31395">
        <ele>59.20000076294</ele>
        <time>2015-11-16T19:41:22Z</time>
      </trkpt>
      <trkpt lat="48.84167" lon="2.31382">
        <ele>57.79999923706</ele>
        <time>2015-11-16T19:41:27Z</time>
      </trkpt>
      <trkpt lat="48.84179" lon="2.31368">
        <ele>55.79999923706</ele>
        <time>2015-11-16T19:41:31Z</time>
      </trkpt>
      <trkpt lat="48.84195" lon="2.31354">
        <ele>53.79999923706</ele>
        <time>2015-11-16T19:41:35Z</time>
      </trkpt>
      <trkpt lat="48.84212" lon="2.31341">
        <ele>52.400001525879</ele>
        <time>2015-11-16T19:41:39Z</time>
      </trkpt>
      <trkpt lat="48.8423" lon="2.31324">
        <ele>52</ele>
        <time>2015-11-16T19:41:43Z</time>
      </trkpt>
      <trkpt lat="48.84245" lon="2.3131">
        <ele>52</ele>
        <time>2015-11-16T19:41:46Z</time>
      </trkpt>
      <trkpt lat="48.84264" lon="2.31296">
        <ele>51.400001525879</ele>
        <time>2015-11-16T19:41:50Z</time>
      </trkpt>
      <trkpt lat="48.84283" lon="2.31279">
        <ele>50.599998474121</ele>
        <time>2015-11-16T19:41:54Z</time>
      </trkpt>
      <trkpt lat="48.84299" lon="2.31268">
        <ele>50</ele>
        <time>2015-11-16T19:41:57Z</time>
      </trkpt>
      <trkpt lat="48.84317" lon="2.31255">
        <ele>50</ele>
        <time>2015-11-16T19:42:00Z</time>
      </trkpt>
      <trkpt lat="48.84335" lon="2.31242">
        <ele>50</ele>
        <time>2015-11-16T19:42:03Z</time>
      </trkpt>
      <trkpt lat="48.84356" lon="2.31229">
        <ele>49.79999923706</ele>
        <time>2015-11-16T19:42:06Z</time>
      </trkpt>
      <trkpt lat="48.84376" lon="2.31215">
        <ele>49.599998474121</ele>
        <time>2015-11-16T19:42:09Z</time>
      </trkpt>
      <trkpt lat="48.84394" lon="2.31202">
        <ele>49.400001525879</ele>
        <time>2015-11-16T19:42:12Z</time>
      </trkpt>
      <trkpt lat="48.84412" lon="2.31188">
        <ele>48.20000076294</ele>
        <time>2015-11-16T19:42:15Z</time>
      </trkpt>
      <trkpt lat="48.84429" lon="2.31173">
        <ele>46.79999923706</ele>
        <time>2015-11-16T19:42:18Z</time>
      </trkpt>
      <trkpt lat="48.84449" lon="2.31154">
        <ele>45.20000076294</ele>
        <time>2015-11-16T19:42:22Z</time>
      </trkpt>
      <trkpt lat="48.8447" lon="2.31138">
        <ele>44</ele>
        <time>2015-11-16T19:42:26Z</time>
      </trkpt>
      <trkpt lat="48.84487" lon="2.31126">
        <ele>42.79999923706</ele>
        <time>2015-11-16T19:42:30Z</time>
      </trkpt>
      <trkpt lat="48.84501" lon="2.31116">
        <ele>43.20000076294</ele>
        <time>2015-11-16T19:42:35Z</time>
      </trkpt>
      <trkpt lat="48.84504" lon="2.31112">
        <ele>43.20000076294</ele>
        <time>2015-11-16T19:42:37Z</time>
      </trkpt>
      <trkpt lat="48.84512" lon="2.3111">
        <ele>43.20000076294</ele>
        <time>2015-11-16T19:42:49Z</time>
      </trkpt>
      <trkpt lat="48.84528" lon="2.31094">
        <ele>43.79999923706</ele>
        <time>2015-11-16T19:43:04Z</time>
      </trkpt>
      <trkpt lat="48.84538" lon="2.31068">
        <ele>44.20000076294</ele>
        <time>2015-11-16T19:43:11Z</time>
      </trkpt>
      <trkpt lat="48.84546" lon="2.31039">
        <ele>44.20000076294</ele>
        <time>2015-11-16T19:43:17Z</time>
      </trkpt>
      <trkpt lat="48.84555" lon="2.31013">
        <ele>44.599998474121</ele>
        <time>2015-11-16T19:43:22Z</time>
      </trkpt>
      <trkpt lat="48.84563" lon="2.30986">
        <ele>45</ele>
        <time>2015-11-16T19:43:26Z</time>
      </trkpt>
      <trkpt lat="48.84573" lon="2.30961">
        <ele>45.20000076294</ele>
        <time>2015-11-16T19:43:30Z</time>
      </trkpt>
      <trkpt lat="48.84583" lon="2.30933">
        <ele>44.400001525879</ele>
        <time>2015-11-16T19:43:35Z</time>
      </trkpt>
      <trkpt lat="48.84591" lon="2.30905">
        <ele>44</ele>
        <time>2015-11-16T19:43:40Z</time>
      </trkpt>
      <trkpt lat="48.84599" lon="2.30876">
        <ele>43</ele>
        <time>2015-11-16T19:43:46Z</time>
      </trkpt>
      <trkpt lat="48.84609" lon="2.30851">
        <ele>41.79999923706</ele>
        <time>2015-11-16T19:43:51Z</time>
      </trkpt>
      <trkpt lat="48.84629" lon="2.30842">
        <ele>42.79999923706</ele>
        <time>2015-11-16T19:43:57Z</time>
      </trkpt>
      <trkpt lat="48.84647" lon="2.30824">
        <ele>44</ele>
        <time>2015-11-16T19:44:02Z</time>
      </trkpt>
      <trkpt lat="48.84664" lon="2.30801">
        <ele>45.599998474121</ele>
        <time>2015-11-16T19:44:07Z</time>
      </trkpt>
      <trkpt lat="48.84676" lon="2.30781">
        <ele>46.599998474121</ele>
        <time>2015-11-16T19:44:11Z</time>
      </trkpt>
      <trkpt lat="48.84691" lon="2.30755">
        <ele>48</ele>
        <time>2015-11-16T19:44:16Z</time>
      </trkpt>
      <trkpt lat="48.84705" lon="2.30736">
        <ele>48.400001525879</ele>
        <time>2015-11-16T19:44:21Z</time>
      </trkpt>
      <trkpt lat="48.84707" lon="2.30732">
        <ele>48.400001525879</ele>
        <time>2015-11-16T19:44:22Z</time>
      </trkpt>
      <trkpt lat="48.84714" lon="2.30718">
        <ele>48.599998474121</ele>
        <time>2015-11-16T19:44:29Z</time>
      </trkpt>
      <trkpt lat="48.84729" lon="2.30695">
        <ele>49</ele>
        <time>2015-11-16T19:44:39Z</time>
      </trkpt>
      <trkpt lat="48.84744" lon="2.30673">
        <ele>49.599998474121</ele>
        <time>2015-11-16T19:44:44Z</time>
      </trkpt>
      <trkpt lat="48.84758" lon="2.30649">
        <ele>49.79999923706</ele>
        <time>2015-11-16T19:44:49Z</time>
      </trkpt>
      <trkpt lat="48.84772" lon="2.30626">
        <ele>49.20000076294</ele>
        <time>2015-11-16T19:44:54Z</time>
      </trkpt>
      <trkpt lat="48.84786" lon="2.30606">
        <ele>47.400001525879</ele>
        <time>2015-11-16T19:44:59Z</time>
      </trkpt>
      <trkpt lat="48.848" lon="2.30584">
        <ele>45.79999923706</ele>
        <time>2015-11-16T19:45:04Z</time>
      </trkpt>
      <trkpt lat="48.84814" lon="2.30564">
        <ele>44.79999923706</ele>
        <time>2015-11-16T19:45:08Z</time>
      </trkpt>
      <trkpt lat="48.84827" lon="2.30543">
        <ele>44.20000076294</ele>
        <time>2015-11-16T19:45:12Z</time>
      </trkpt>
      <trkpt lat="48.84841" lon="2.30519">
        <ele>44.599998474121</ele>
        <time>2015-11-16T19:45:16Z</time>
      </trkpt>
      <trkpt lat="48.84855" lon="2.30495">
        <ele>45</ele>
        <time>2015-11-16T19:45:20Z</time>
      </trkpt>
      <trkpt lat="48.84869" lon="2.30472">
        <ele>43.599998474121</ele>
        <time>2015-11-16T19:45:24Z</time>
      </trkpt>
      <trkpt lat="48.84883" lon="2.30449">
        <ele>42</ele>
        <time>2015-11-16T19:45:28Z</time>
      </trkpt>
      <trkpt lat="48.84898" lon="2.30427">
        <ele>40.79999923706</ele>
        <time>2015-11-16T19:45:32Z</time>
      </trkpt>
      <trkpt lat="48.84909" lon="2.30412">
        <ele>39.79999923706</ele>
        <time>2015-11-16T19:45:35Z</time>
      </trkpt>
      <trkpt lat="48.8492" lon="2.30394">
        <ele>38.599998474121</ele>
        <time>2015-11-16T19:45:39Z</time>
      </trkpt>
      <trkpt lat="48.84924" lon="2.30387">
        <ele>39.20000076294</ele>
        <time>2015-11-16T19:45:41Z</time>
      </trkpt>
      <trkpt lat="48.84932" lon="2.30378">
        <ele>40</ele>
        <time>2015-11-16T19:45:46Z</time>
      </trkpt>
      <trkpt lat="48.84945" lon="2.3036">
        <ele>41.400001525879</ele>
        <time>2015-11-16T19:45:59Z</time>
      </trkpt>
      <trkpt lat="48.8496" lon="2.30341">
        <ele>42.20000076294</ele>
        <time>2015-11-16T19:46:04Z</time>
      </trkpt>
      <trkpt lat="48.84974" lon="2.30321">
        <ele>42</ele>
        <time>2015-11-16T19:46:08Z</time>
      </trkpt>
      <trkpt lat="48.84987" lon="2.30299">
        <ele>41.20000076294</ele>
        <time>2015-11-16T19:46:12Z</time>
      </trkpt>
      <trkpt lat="48.85002" lon="2.30276">
        <ele>41</ele>
        <time>2015-11-16T19:46:16Z</time>
      </trkpt>
      <trkpt lat="48.85016" lon="2.30252">
        <ele>41.20000076294</ele>
        <time>2015-11-16T19:46:20Z</time>
      </trkpt>
      <trkpt lat="48.85029" lon="2.3023">
        <ele>41.79999923706</ele>
        <time>2015-11-16T19:46:24Z</time>
      </trkpt>
      <trkpt lat="48.85041" lon="2.30208">
        <ele>42.599998474121</ele>
        <time>2015-11-16T19:46:28Z</time>
      </trkpt>
      <trkpt lat="48.85052" lon="2.30193">
        <ele>43.20000076294</ele>
        <time>2015-11-16T19:46:31Z</time>
      </trkpt>
      <trkpt lat="48.85067" lon="2.30171">
        <ele>44.20000076294</ele>
        <time>2015-11-16T19:46:35Z</time>
      </trkpt>
      <trkpt lat="48.85081" lon="2.30147">
        <ele>45.20000076294</ele>
        <time>2015-11-16T19:46:39Z</time>
      </trkpt>
      <trkpt lat="48.85095" lon="2.30124">
        <ele>45.20000076294</ele>
        <time>2015-11-16T19:46:43Z</time>
      </trkpt>
      <trkpt lat="48.85107" lon="2.30103">
        <ele>44.79999923706</ele>
        <time>2015-11-16T19:46:47Z</time>
      </trkpt>
      <trkpt lat="48.85117" lon="2.30079">
        <ele>45.20000076294</ele>
        <time>2015-11-16T19:46:51Z</time>
      </trkpt>
      <trkpt lat="48.85127" lon="2.30055">
        <ele>46.20000076294</ele>
        <time>2015-11-16T19:46:55Z</time>
      </trkpt>
      <trkpt lat="48.85142" lon="2.30032">
        <ele>47.20000076294</ele>
        <time>2015-11-16T19:47:00Z</time>
      </trkpt>
      <trkpt lat="48.85156" lon="2.3001">
        <ele>48.599998474121</ele>
        <time>2015-11-16T19:47:06Z</time>
      </trkpt>
      <trkpt lat="48.8516" lon="2.30004">
        <ele>49</ele>
        <time>2015-11-16T19:47:08Z</time>
      </trkpt>
      <trkpt lat="48.85168" lon="2.29992">
        <ele>49.400001525879</ele>
        <time>2015-11-16T19:47:12Z</time>
      </trkpt>
      <trkpt lat="48.8518" lon="2.2997">
        <ele>49.400001525879</ele>
        <time>2015-11-16T19:47:18Z</time>
      </trkpt>
      <trkpt lat="48.85192" lon="2.29944">
        <ele>48.599998474121</ele>
        <time>2015-11-16T19:47:23Z</time>
      </trkpt>
      <trkpt lat="48.85205" lon="2.29924">
        <ele>47.79999923706</ele>
        <time>2015-11-16T19:47:27Z</time>
      </trkpt>
      <trkpt lat="48.8522" lon="2.299">
        <ele>47.79999923706</ele>
        <time>2015-11-16T19:47:32Z</time>
      </trkpt>
      <trkpt lat="48.85235" lon="2.29875">
        <ele>47.20000076294</ele>
        <time>2015-11-16T19:47:37Z</time>
      </trkpt>
      <trkpt lat="48.8525" lon="2.29851">
        <ele>45</ele>
        <time>2015-11-16T19:47:41Z</time>
      </trkpt>
      <trkpt lat="48.85254" lon="2.29845">
        <ele>44.400001525879</ele>
        <time>2015-11-16T19:47:42Z</time>
      </trkpt>
      <trkpt lat="48.85271" lon="2.29822">
        <ele>42.599998474121</ele>
        <time>2015-11-16T19:47:46Z</time>
      </trkpt>
      <trkpt lat="48.85287" lon="2.298">
        <ele>41.599998474121</ele>
        <time>2015-11-16T19:47:50Z</time>
      </trkpt>
      <trkpt lat="48.85304" lon="2.29779">
        <ele>41.20000076294</ele>
        <time>2015-11-16T19:47:54Z</time>
      </trkpt>
      <trkpt lat="48.85307" lon="2.29772">
        <ele>41.599998474121</ele>
        <time>2015-11-16T19:47:55Z</time>
      </trkpt>
      <trkpt lat="48.8532" lon="2.29749">
        <ele>43.20000076294</ele>
        <time>2015-11-16T19:47:59Z</time>
      </trkpt>
      <trkpt lat="48.85335" lon="2.29726">
        <ele>45.599998474121</ele>
        <time>2015-11-16T19:48:03Z</time>
      </trkpt>
      <trkpt lat="48.85351" lon="2.29701">
        <ele>44</ele>
        <time>2015-11-16T19:48:07Z</time>
      </trkpt>
      <trkpt lat="48.85366" lon="2.29678">
        <ele>42.20000076294</ele>
        <time>2015-11-16T19:48:11Z</time>
      </trkpt>
      <trkpt lat="48.85381" lon="2.29658">
        <ele>42</ele>
        <time>2015-11-16T19:48:15Z</time>
      </trkpt>
      <trkpt lat="48.85395" lon="2.29638">
        <ele>42.20000076294</ele>
        <time>2015-11-16T19:48:19Z</time>
      </trkpt>
      <trkpt lat="48.8541" lon="2.29615">
        <ele>42.400001525879</ele>
        <time>2015-11-16T19:48:23Z</time>
      </trkpt>
      <trkpt lat="48.85426" lon="2.29591">
        <ele>42.599998474121</ele>
        <time>2015-11-16T19:48:27Z</time>
      </trkpt>
      <trkpt lat="48.85441" lon="2.29565">
        <ele>43.20000076294</ele>
        <time>2015-11-16T19:48:31Z</time>
      </trkpt>
      <trkpt lat="48.85456" lon="2.29541">
        <ele>42.79999923706</ele>
        <time>2015-11-16T19:48:35Z</time>
      </trkpt>
      <trkpt lat="48.85471" lon="2.29516">
        <ele>43.400001525879</ele>
        <time>2015-11-16T19:48:39Z</time>
      </trkpt>
      <trkpt lat="48.85486" lon="2.29491">
        <ele>45</ele>
        <time>2015-11-16T19:48:43Z</time>
      </trkpt>
      <trkpt lat="48.85503" lon="2.29467">
        <ele>44.599998474121</ele>
        <time>2015-11-16T19:48:47Z</time>
      </trkpt>
      <trkpt lat="48.85518" lon="2.29444">
        <ele>44</ele>
        <time>2015-11-16T19:48:51Z</time>
      </trkpt>
      <trkpt lat="48.85522" lon="2.29437">
        <ele>43.79999923706</ele>
        <time>2015-11-16T19:48:52Z</time>
      </trkpt>
      <trkpt lat="48.85537" lon="2.29411">
        <ele>44</ele>
        <time>2015-11-16T19:48:56Z</time>
      </trkpt>
      <trkpt lat="48.85551" lon="2.29385">
        <ele>43.599998474121</ele>
        <time>2015-11-16T19:49:00Z</time>
      </trkpt>
      <trkpt lat="48.85565" lon="2.2936">
        <ele>43.400001525879</ele>
        <time>2015-11-16T19:49:04Z</time>
      </trkpt>
      <trkpt lat="48.85579" lon="2.29335">
        <ele>42.79999923706</ele>
        <time>2015-11-16T19:49:08Z</time>
      </trkpt>
      <trkpt lat="48.85591" lon="2.29313">
        <ele>43</ele>
        <time>2015-11-16T19:49:12Z</time>
      </trkpt>
      <trkpt lat="48.85605" lon="2.29294">
        <ele>41.79999923706</ele>
        <time>2015-11-16T19:49:16Z</time>
      </trkpt>
      <trkpt lat="48.85615" lon="2.29281">
        <ele>41.400001525879</ele>
        <time>2015-11-16T19:49:19Z</time>
      </trkpt>
      <trkpt lat="48.85631" lon="2.29264">
        <ele>41.20000076294</ele>
        <time>2015-11-16T19:49:23Z</time>
      </trkpt>
      <trkpt lat="48.85649" lon="2.29243">
        <ele>43.20000076294</ele>
        <time>2015-11-16T19:49:28Z</time>
      </trkpt>
      <trkpt lat="48.85663" lon="2.29226">
        <ele>44.79999923706</ele>
        <time>2015-11-16T19:49:32Z</time>
      </trkpt>
      <trkpt lat="48.85673" lon="2.29212">
        <ele>45</ele>
        <time>2015-11-16T19:49:35Z</time>
      </trkpt>
      <trkpt lat="48.85688" lon="2.29193">
        <ele>45</ele>
        <time>2015-11-16T19:49:39Z</time>
      </trkpt>
      <trkpt lat="48.85704" lon="2.29169">
        <ele>43.79999923706</ele>
        <time>2015-11-16T19:49:44Z</time>
      </trkpt>
      <trkpt lat="48.85714" lon="2.29157">
        <ele>43</ele>
        <time>2015-11-16T19:49:47Z</time>
      </trkpt>
      <trkpt lat="48.85731" lon="2.29142">
        <ele>41.400001525879</ele>
        <time>2015-11-16T19:49:53Z</time>
      </trkpt>
      <trkpt lat="48.85733" lon="2.29141">
        <ele>41.400001525879</ele>
        <time>2015-11-16T19:49:54Z</time>
      </trkpt>
      <trkpt lat="48.85741" lon="2.29128">
        <ele>40.20000076294</ele>
        <time>2015-11-16T19:49:58Z</time>
      </trkpt>
      <trkpt lat="48.85746" lon="2.29116">
        <ele>38.79999923706</ele>
        <time>2015-11-16T19:50:01Z</time>
      </trkpt>
      <trkpt lat="48.85744" lon="2.29089">
        <ele>36.400001525879</ele>
        <time>2015-11-16T19:50:06Z</time>
      </trkpt>
      <trkpt lat="48.85738" lon="2.29079">
        <ele>35.599998474121</ele>
        <time>2015-11-16T19:50:09Z</time>
      </trkpt>
      <trkpt lat="48.85735" lon="2.29072">
        <ele>35.79999923706</ele>
        <time>2015-11-16T19:50:12Z</time>
      </trkpt>
      <trkpt lat="48.85734" lon="2.2907">
        <ele>35.79999923706</ele>
        <time>2015-11-16T19:50:14Z</time>
      </trkpt>
      <trkpt lat="48.85748" lon="2.29076">
        <ele>35.20000076294</ele>
        <time>2015-11-16T19:51:55Z</time>
      </trkpt>
      <trkpt lat="48.85729" lon="2.2906">
        <ele>36.20000076294</ele>
        <time>2015-11-16T19:52:14Z</time>
      </trkpt>
      <trkpt lat="48.85714" lon="2.29043">
        <ele>36.79999923706</ele>
        <time>2015-11-16T19:52:19Z</time>
      </trkpt>
      <trkpt lat="48.85698" lon="2.29026">
        <ele>37.599998474121</ele>
        <time>2015-11-16T19:52:24Z</time>
      </trkpt>
      <trkpt lat="48.85682" lon="2.29013">
        <ele>37.400001525879</ele>
        <time>2015-11-16T19:52:28Z</time>
      </trkpt>
      <trkpt lat="48.85665" lon="2.29001">
        <ele>36.20000076294</ele>
        <time>2015-11-16T19:52:32Z</time>
      </trkpt>
      <trkpt lat="48.85643" lon="2.28989">
        <ele>34.20000076294</ele>
        <time>2015-11-16T19:52:37Z</time>
      </trkpt>
      <trkpt lat="48.85625" lon="2.28981">
        <ele>32.400001525879</ele>
        <time>2015-11-16T19:52:41Z</time>
      </trkpt>
      <trkpt lat="48.85608" lon="2.28973">
        <ele>30.799999237061</ele>
        <time>2015-11-16T19:52:45Z</time>
      </trkpt>
      <trkpt lat="48.8559" lon="2.28966">
        <ele>32.400001525879</ele>
        <time>2015-11-16T19:52:49Z</time>
      </trkpt>
      <trkpt lat="48.85572" lon="2.28958">
        <ele>34.599998474121</ele>
        <time>2015-11-16T19:52:53Z</time>
      </trkpt>
      <trkpt lat="48.85553" lon="2.28951">
        <ele>36.599998474121</ele>
        <time>2015-11-16T19:52:57Z</time>
      </trkpt>
      <trkpt lat="48.85536" lon="2.28941">
        <ele>38</ele>
        <time>2015-11-16T19:53:01Z</time>
      </trkpt>
      <trkpt lat="48.85523" lon="2.28932">
        <ele>39.20000076294</ele>
        <time>2015-11-16T19:53:05Z</time>
      </trkpt>
      <trkpt lat="48.8551" lon="2.28922">
        <ele>39.79999923706</ele>
        <time>2015-11-16T19:53:09Z</time>
      </trkpt>
      <trkpt lat="48.85491" lon="2.28906">
        <ele>40.599998474121</ele>
        <time>2015-11-16T19:53:14Z</time>
      </trkpt>
      <trkpt lat="48.85474" lon="2.28888">
        <ele>41</ele>
        <time>2015-11-16T19:53:20Z</time>
      </trkpt>
      <trkpt lat="48.85473" lon="2.28884">
        <ele>41</ele>
        <time>2015-11-16T19:53:21Z</time>
      </trkpt>
      <trkpt lat="48.8548" lon="2.28858">
        <ele>39.599998474121</ele>
        <time>2015-11-16T19:53:27Z</time>
      </trkpt>
      <trkpt lat="48.85487" lon="2.28851">
        <ele>39</ele>
        <time>2015-11-16T19:53:29Z</time>
      </trkpt>
      <trkpt lat="48.85506" lon="2.28831">
        <ele>37</ele>
        <time>2015-11-16T19:53:34Z</time>
      </trkpt>
      <trkpt lat="48.85525" lon="2.28811">
        <ele>35.20000076294</ele>
        <time>2015-11-16T19:53:38Z</time>
      </trkpt>
      <trkpt lat="48.85543" lon="2.28794">
        <ele>34</ele>
        <time>2015-11-16T19:53:42Z</time>
      </trkpt>
      <trkpt lat="48.85558" lon="2.28777">
        <ele>33</ele>
        <time>2015-11-16T19:53:46Z</time>
      </trkpt>
      <trkpt lat="48.85564" lon="2.28769">
        <ele>33</ele>
        <time>2015-11-16T19:53:49Z</time>
      </trkpt>
      <trkpt lat="48.85569" lon="2.28767">
        <ele>33</ele>
        <time>2015-11-16T19:53:51Z</time>
      </trkpt>
      <trkpt lat="48.85572" lon="2.28764">
        <ele>33</ele>
        <time>2015-11-16T19:53:53Z</time>
      </trkpt>
      <trkpt lat="48.85567" lon="2.28758">
        <ele>33</ele>
        <time>2015-11-16T19:54:00Z</time>
      </trkpt>
      <trkpt lat="48.85551" lon="2.28753">
        <ele>33</ele>
        <time>2015-11-16T19:54:12Z</time>
      </trkpt>
      <trkpt lat="48.85549" lon="2.28747">
        <ele>33</ele>
        <time>2015-11-16T19:54:18Z</time>
      </trkpt>
      <trkpt lat="48.85546" lon="2.28742">
        <ele>32.79999923706</ele>
        <time>2015-11-16T19:55:41Z</time>
      </trkpt>
      <trkpt lat="48.85535" lon="2.28725">
        <ele>32.400001525879</ele>
        <time>2015-11-16T19:56:16Z</time>
      </trkpt>
      <trkpt lat="48.85521" lon="2.28706">
        <ele>32</ele>
        <time>2015-11-16T19:56:23Z</time>
      </trkpt>
      <trkpt lat="48.85508" lon="2.28682">
        <ele>31.39999961853</ele>
        <time>2015-11-16T19:56:30Z</time>
      </trkpt>
      <trkpt lat="48.85492" lon="2.28663">
        <ele>31</ele>
        <time>2015-11-16T19:56:36Z</time>
      </trkpt>
      <trkpt lat="48.85476" lon="2.28642">
        <ele>31.200000762939</ele>
        <time>2015-11-16T19:56:42Z</time>
      </trkpt>
      <trkpt lat="48.85463" lon="2.28621">
        <ele>31.60000038147</ele>
        <time>2015-11-16T19:56:48Z</time>
      </trkpt>
      <trkpt lat="48.85448" lon="2.28602">
        <ele>31.799999237061</ele>
        <time>2015-11-16T19:56:54Z</time>
      </trkpt>
      <trkpt lat="48.85432" lon="2.2858">
        <ele>31.799999237061</ele>
        <time>2015-11-16T19:57:00Z</time>
      </trkpt>
      <trkpt lat="48.85416" lon="2.2856">
        <ele>31</ele>
        <time>2015-11-16T19:57:07Z</time>
      </trkpt>
      <trkpt lat="48.85402" lon="2.2854">
        <ele>30.39999961853</ele>
        <time>2015-11-16T19:57:14Z</time>
      </trkpt>
      <trkpt lat="48.85389" lon="2.28519">
        <ele>30.39999961853</ele>
        <time>2015-11-16T19:57:22Z</time>
      </trkpt>
      <trkpt lat="48.85375" lon="2.28498">
        <ele>30.200000762939</ele>
        <time>2015-11-16T19:57:30Z</time>
      </trkpt>
      <trkpt lat="48.85361" lon="2.2848">
        <ele>28.60000038147</ele>
        <time>2015-11-16T19:57:35Z</time>
      </trkpt>
      <trkpt lat="48.85347" lon="2.28458">
        <ele>27.799999237061</ele>
        <time>2015-11-16T19:57:40Z</time>
      </trkpt>
      <trkpt lat="48.85331" lon="2.28435">
        <ele>27.799999237061</ele>
        <time>2015-11-16T19:57:45Z</time>
      </trkpt>
      <trkpt lat="48.85317" lon="2.28416">
        <ele>27.60000038147</ele>
        <time>2015-11-16T19:57:50Z</time>
      </trkpt>
      <trkpt lat="48.85303" lon="2.28396">
        <ele>27.200000762939</ele>
        <time>2015-11-16T19:57:56Z</time>
      </trkpt>
      <trkpt lat="48.85288" lon="2.28376">
        <ele>26.799999237061</ele>
        <time>2015-11-16T19:58:02Z</time>
      </trkpt>
      <trkpt lat="48.85274" lon="2.28356">
        <ele>26.39999961853</ele>
        <time>2015-11-16T19:58:08Z</time>
      </trkpt>
      <trkpt lat="48.8526" lon="2.28335">
        <ele>26.799999237061</ele>
        <time>2015-11-16T19:58:14Z</time>
      </trkpt>
      <trkpt lat="48.85247" lon="2.28316">
        <ele>27.200000762939</ele>
        <time>2015-11-16T19:58:20Z</time>
      </trkpt>
      <trkpt lat="48.85233" lon="2.28296">
        <ele>27.60000038147</ele>
        <time>2015-11-16T19:58:25Z</time>
      </trkpt>
      <trkpt lat="48.85218" lon="2.28275">
        <ele>28</ele>
        <time>2015-11-16T19:58:30Z</time>
      </trkpt>
      <trkpt lat="48.85204" lon="2.28256">
        <ele>28.60000038147</ele>
        <time>2015-11-16T19:58:36Z</time>
      </trkpt>
      <trkpt lat="48.8519" lon="2.28235">
        <ele>29.39999961853</ele>
        <time>2015-11-16T19:58:43Z</time>
      </trkpt>
      <trkpt lat="48.85176" lon="2.28216">
        <ele>30.200000762939</ele>
        <time>2015-11-16T19:58:49Z</time>
      </trkpt>
      <trkpt lat="48.85162" lon="2.28197">
        <ele>30.799999237061</ele>
        <time>2015-11-16T19:58:55Z</time>
      </trkpt>
      <trkpt lat="48.85147" lon="2.28175">
        <ele>31.60000038147</ele>
        <time>2015-11-16T19:59:01Z</time>
      </trkpt>
      <trkpt lat="48.85132" lon="2.28155">
        <ele>32</ele>
        <time>2015-11-16T19:59:06Z</time>
      </trkpt>
      <trkpt lat="48.85116" lon="2.28135">
        <ele>32</ele>
        <time>2015-11-16T19:59:12Z</time>
      </trkpt>
      <trkpt lat="48.85101" lon="2.28114">
        <ele>31.60000038147</ele>
        <time>2015-11-16T19:59:18Z</time>
      </trkpt>
      <trkpt lat="48.85087" lon="2.28092">
        <ele>30.39999961853</ele>
        <time>2015-11-16T19:59:23Z</time>
      </trkpt>
      <trkpt lat="48.85072" lon="2.28074">
        <ele>29.39999961853</ele>
        <time>2015-11-16T19:59:29Z</time>
      </trkpt>
      <trkpt lat="48.85058" lon="2.28053">
        <ele>29.60000038147</ele>
        <time>2015-11-16T19:59:36Z</time>
      </trkpt>
      <trkpt lat="48.85046" lon="2.28034">
        <ele>29.60000038147</ele>
        <time>2015-11-16T19:59:43Z</time>
      </trkpt>
      <trkpt lat="48.85036" lon="2.28017">
        <ele>30</ele>
        <time>2015-11-16T19:59:53Z</time>
      </trkpt>
      <trkpt lat="48.8504" lon="2.28015">
        <ele>30.39999961853</ele>
        <time>2015-11-16T20:01:37Z</time>
      </trkpt>
      <trkpt lat="48.85048" lon="2.27997">
        <ele>29.39999961853</ele>
        <time>2015-11-16T20:02:17Z</time>
      </trkpt>
      <trkpt lat="48.85062" lon="2.27975">
        <ele>30.39999961853</ele>
        <time>2015-11-16T20:02:23Z</time>
      </trkpt>
      <trkpt lat="48.85078" lon="2.27952">
        <ele>31.200000762939</ele>
        <time>2015-11-16T20:02:29Z</time>
      </trkpt>
      <trkpt lat="48.85091" lon="2.2793">
        <ele>31.799999237061</ele>
        <time>2015-11-16T20:02:35Z</time>
      </trkpt>
      <trkpt lat="48.85105" lon="2.27909">
        <ele>32.20000076294</ele>
        <time>2015-11-16T20:02:42Z</time>
      </trkpt>
      <trkpt lat="48.85118" lon="2.27885">
        <ele>34.20000076294</ele>
        <time>2015-11-16T20:02:49Z</time>
      </trkpt>
      <trkpt lat="48.85132" lon="2.27863">
        <ele>36.20000076294</ele>
        <time>2015-11-16T20:02:56Z</time>
      </trkpt>
      <trkpt lat="48.85134" lon="2.2786">
        <ele>36.599998474121</ele>
        <time>2015-11-16T20:02:58Z</time>
      </trkpt>
      <trkpt lat="48.85144" lon="2.27852">
        <ele>36.79999923706</ele>
        <time>2015-11-16T20:03:48Z</time>
      </trkpt>
      <trkpt lat="48.85153" lon="2.27829">
        <ele>37</ele>
        <time>2015-11-16T20:03:55Z</time>
      </trkpt>
      <trkpt lat="48.85163" lon="2.27805">
        <ele>37</ele>
        <time>2015-11-16T20:04:01Z</time>
      </trkpt>
      <trkpt lat="48.85175" lon="2.27779">
        <ele>38.400001525879</ele>
        <time>2015-11-16T20:04:07Z</time>
      </trkpt>
      <trkpt lat="48.85185" lon="2.27755">
        <ele>39.599998474121</ele>
        <time>2015-11-16T20:04:12Z</time>
      </trkpt>
      <trkpt lat="48.85198" lon="2.27728">
        <ele>41.20000076294</ele>
        <time>2015-11-16T20:04:17Z</time>
      </trkpt>
      <trkpt lat="48.8521" lon="2.27702">
        <ele>43.20000076294</ele>
        <time>2015-11-16T20:04:22Z</time>
      </trkpt>
      <trkpt lat="48.85221" lon="2.27678">
        <ele>43.20000076294</ele>
        <time>2015-11-16T20:04:27Z</time>
      </trkpt>
      <trkpt lat="48.85232" lon="2.27651">
        <ele>41.599998474121</ele>
        <time>2015-11-16T20:04:32Z</time>
      </trkpt>
      <trkpt lat="48.85246" lon="2.2763">
        <ele>40.599998474121</ele>
        <time>2015-11-16T20:04:36Z</time>
      </trkpt>
      <trkpt lat="48.85259" lon="2.27604">
        <ele>39.79999923706</ele>
        <time>2015-11-16T20:04:41Z</time>
      </trkpt>
      <trkpt lat="48.85265" lon="2.27597">
        <ele>39.400001525879</ele>
        <time>2015-11-16T20:04:43Z</time>
      </trkpt>
      <trkpt lat="48.85275" lon="2.27587">
        <ele>39.20000076294</ele>
        <time>2015-11-16T20:04:47Z</time>
      </trkpt>
      <trkpt lat="48.85278" lon="2.27583">
        <ele>39.400001525879</ele>
        <time>2015-11-16T20:04:49Z</time>
      </trkpt>
      <trkpt lat="48.85289" lon="2.27577">
        <ele>40</ele>
        <time>2015-11-16T20:04:55Z</time>
      </trkpt>
      <trkpt lat="48.85309" lon="2.2757">
        <ele>41.20000076294</ele>
        <time>2015-11-16T20:05:04Z</time>
      </trkpt>
      <trkpt lat="48.8533" lon="2.27566">
        <ele>42.400001525879</ele>
        <time>2015-11-16T20:05:10Z</time>
      </trkpt>
      <trkpt lat="48.8535" lon="2.27564">
        <ele>43.400001525879</ele>
        <time>2015-11-16T20:05:15Z</time>
      </trkpt>
      <trkpt lat="48.85371" lon="2.2756">
        <ele>44.599998474121</ele>
        <time>2015-11-16T20:05:20Z</time>
      </trkpt>
      <trkpt lat="48.85392" lon="2.27556">
        <ele>46</ele>
        <time>2015-11-16T20:05:25Z</time>
      </trkpt>
      <trkpt lat="48.85408" lon="2.27562">
        <ele>47.400001525879</ele>
        <time>2015-11-16T20:05:37Z</time>
      </trkpt>
      <trkpt lat="48.85401" lon="2.27591">
        <ele>48</ele>
        <time>2015-11-16T20:05:43Z</time>
      </trkpt>
      <trkpt lat="48.85396" lon="2.27618">
        <ele>49.20000076294</ele>
        <time>2015-11-16T20:05:48Z</time>
      </trkpt>
      <trkpt lat="48.8539" lon="2.27645">
        <ele>48.599998474121</ele>
        <time>2015-11-16T20:05:53Z</time>
      </trkpt>
      <trkpt lat="48.85384" lon="2.27676">
        <ele>48</ele>
        <time>2015-11-16T20:05:58Z</time>
      </trkpt>
      <trkpt lat="48.85378" lon="2.27705">
        <ele>47.79999923706</ele>
        <time>2015-11-16T20:06:03Z</time>
      </trkpt>
      <trkpt lat="48.85366" lon="2.27726">
        <ele>46.79999923706</ele>
        <time>2015-11-16T20:06:08Z</time>
      </trkpt>
      <trkpt lat="48.85368" lon="2.27737">
        <ele>47.400001525879</ele>
        <time>2015-11-16T20:06:11Z</time>
      </trkpt>
      <trkpt lat="48.85387" lon="2.27756">
        <ele>49.79999923706</ele>
        <time>2015-11-16T20:06:27Z</time>
      </trkpt>
      <trkpt lat="48.854" lon="2.27782">
        <ele>51</ele>
        <time>2015-11-16T20:06:33Z</time>
      </trkpt>
      <trkpt lat="48.85409" lon="2.27793">
        <ele>51.79999923706</ele>
        <time>2015-11-16T20:06:36Z</time>
      </trkpt>
      <trkpt lat="48.85418" lon="2.27802">
        <ele>52.79999923706</ele>
        <time>2015-11-16T20:06:40Z</time>
      </trkpt>
      <trkpt lat="48.85431" lon="2.27821">
        <ele>54.20000076294</ele>
        <time>2015-11-16T20:06:46Z</time>
      </trkpt>
      <trkpt lat="48.85444" lon="2.2784">
        <ele>55.20000076294</ele>
        <time>2015-11-16T20:06:56Z</time>
      </trkpt>
      <trkpt lat="48.85448" lon="2.27858">
        <ele>55</ele>
        <time>2015-11-16T20:07:05Z</time>
      </trkpt>
      <trkpt lat="48.85447" lon="2.27862">
        <ele>54.599998474121</ele>
        <time>2015-11-16T20:07:09Z</time>
      </trkpt>
      <trkpt lat="48.85451" lon="2.27878">
        <ele>54.400001525879</ele>
        <time>2015-11-16T20:07:15Z</time>
      </trkpt>
      <trkpt lat="48.85459" lon="2.27892">
        <ele>55</ele>
        <time>2015-11-16T20:07:21Z</time>
      </trkpt>
      <trkpt lat="48.85469" lon="2.27906">
        <ele>55.79999923706</ele>
        <time>2015-11-16T20:07:27Z</time>
      </trkpt>
      <trkpt lat="48.85474" lon="2.27927">
        <ele>55.79999923706</ele>
        <time>2015-11-16T20:07:34Z</time>
      </trkpt>
      <trkpt lat="48.85483" lon="2.27951">
        <ele>56</ele>
        <time>2015-11-16T20:07:40Z</time>
      </trkpt>
      <trkpt lat="48.85494" lon="2.27974">
        <ele>57</ele>
        <time>2015-11-16T20:07:46Z</time>
      </trkpt>
      <trkpt lat="48.85505" lon="2.27996">
        <ele>58.20000076294</ele>
        <time>2015-11-16T20:07:51Z</time>
      </trkpt>
      <trkpt lat="48.85519" lon="2.28018">
        <ele>58.20000076294</ele>
        <time>2015-11-16T20:07:57Z</time>
      </trkpt>
      <trkpt lat="48.8553" lon="2.28043">
        <ele>58</ele>
        <time>2015-11-16T20:08:03Z</time>
      </trkpt>
      <trkpt lat="48.85545" lon="2.28058">
        <ele>58.599998474121</ele>
        <time>2015-11-16T20:08:09Z</time>
      </trkpt>
      <trkpt lat="48.85561" lon="2.28075">
        <ele>59.400001525879</ele>
        <time>2015-11-16T20:08:17Z</time>
      </trkpt>
      <trkpt lat="48.85562" lon="2.28076">
        <ele>59.400001525879</ele>
        <time>2015-11-16T20:08:18Z</time>
      </trkpt>
      <trkpt lat="48.85561" lon="2.28081">
        <ele>59</ele>
        <time>2015-11-16T20:08:23Z</time>
      </trkpt>
      <trkpt lat="48.85571" lon="2.28106">
        <ele>59</ele>
        <time>2015-11-16T20:08:50Z</time>
      </trkpt>
      <trkpt lat="48.85589" lon="2.28118">
        <ele>60.20000076294</ele>
        <time>2015-11-16T20:08:58Z</time>
      </trkpt>
      <trkpt lat="48.85606" lon="2.28134">
        <ele>61.400001525879</ele>
        <time>2015-11-16T20:09:05Z</time>
      </trkpt>
      <trkpt lat="48.85622" lon="2.28147">
        <ele>62.79999923706</ele>
        <time>2015-11-16T20:09:11Z</time>
      </trkpt>
      <trkpt lat="48.85635" lon="2.28167">
        <ele>63.400001525879</ele>
        <time>2015-11-16T20:09:17Z</time>
      </trkpt>
      <trkpt lat="48.85651" lon="2.28187">
        <ele>64.599998474121</ele>
        <time>2015-11-16T20:09:24Z</time>
      </trkpt>
      <trkpt lat="48.85663" lon="2.28192">
        <ele>65.800003051758</ele>
        <time>2015-11-16T20:09:28Z</time>
      </trkpt>
      <trkpt lat="48.85674" lon="2.28207">
        <ele>66.599998474121</ele>
        <time>2015-11-16T20:09:33Z</time>
      </trkpt>
      <trkpt lat="48.85685" lon="2.28232">
        <ele>67</ele>
        <time>2015-11-16T20:09:40Z</time>
      </trkpt>
      <trkpt lat="48.85693" lon="2.28247">
        <ele>67.199996948242</ele>
        <time>2015-11-16T20:09:44Z</time>
      </trkpt>
      <trkpt lat="48.85708" lon="2.28264">
        <ele>68.599998474121</ele>
        <time>2015-11-16T20:09:51Z</time>
      </trkpt>
      <trkpt lat="48.85723" lon="2.28282">
        <ele>69.599998474121</ele>
        <time>2015-11-16T20:09:57Z</time>
      </trkpt>
      <trkpt lat="48.85732" lon="2.28308">
        <ele>68.599998474121</ele>
        <time>2015-11-16T20:10:03Z</time>
      </trkpt>
      <trkpt lat="48.85746" lon="2.28327">
        <ele>69.199996948242</ele>
        <time>2015-11-16T20:10:09Z</time>
      </trkpt>
      <trkpt lat="48.85761" lon="2.28344">
        <ele>70</ele>
        <time>2015-11-16T20:10:15Z</time>
      </trkpt>
      <trkpt lat="48.85773" lon="2.2837">
        <ele>68.599998474121</ele>
        <time>2015-11-16T20:10:21Z</time>
      </trkpt>
      <trkpt lat="48.85789" lon="2.28391">
        <ele>66.800003051758</ele>
        <time>2015-11-16T20:10:27Z</time>
      </trkpt>
      <trkpt lat="48.85803" lon="2.2841">
        <ele>64.800003051758</ele>
        <time>2015-11-16T20:10:33Z</time>
      </trkpt>
      <trkpt lat="48.85818" lon="2.28426">
        <ele>64.800003051758</ele>
        <time>2015-11-16T20:10:39Z</time>
      </trkpt>
      <trkpt lat="48.85828" lon="2.28433">
        <ele>65</ele>
        <time>2015-11-16T20:10:45Z</time>
      </trkpt>
      <trkpt lat="48.85837" lon="2.28459">
        <ele>64.400001525879</ele>
        <time>2015-11-16T20:11:02Z</time>
      </trkpt>
      <trkpt lat="48.85849" lon="2.28483">
        <ele>64.199996948242</ele>
        <time>2015-11-16T20:11:12Z</time>
      </trkpt>
      <trkpt lat="48.85859" lon="2.28508">
        <ele>64.400001525879</ele>
        <time>2015-11-16T20:11:18Z</time>
      </trkpt>
      <trkpt lat="48.85868" lon="2.28536">
        <ele>65.199996948242</ele>
        <time>2015-11-16T20:11:24Z</time>
      </trkpt>
      <trkpt lat="48.85877" lon="2.28566">
        <ele>66</ele>
        <time>2015-11-16T20:11:30Z</time>
      </trkpt>
      <trkpt lat="48.85886" lon="2.28594">
        <ele>66</ele>
        <time>2015-11-16T20:11:35Z</time>
      </trkpt>
      <trkpt lat="48.85895" lon="2.28622">
        <ele>64.800003051758</ele>
        <time>2015-11-16T20:11:40Z</time>
      </trkpt>
      <trkpt lat="48.85903" lon="2.28649">
        <ele>63.599998474121</ele>
        <time>2015-11-16T20:11:45Z</time>
      </trkpt>
      <trkpt lat="48.8591" lon="2.28676">
        <ele>61.79999923706</ele>
        <time>2015-11-16T20:11:51Z</time>
      </trkpt>
      <trkpt lat="48.85918" lon="2.287">
        <ele>59.79999923706</ele>
        <time>2015-11-16T20:11:59Z</time>
      </trkpt>
      <trkpt lat="48.85935" lon="2.28717">
        <ele>59</ele>
        <time>2015-11-16T20:12:07Z</time>
      </trkpt>
      <trkpt lat="48.85943" lon="2.28746">
        <ele>56.20000076294</ele>
        <time>2015-11-16T20:12:15Z</time>
      </trkpt>
      <trkpt lat="48.85949" lon="2.28767">
        <ele>54.79999923706</ele>
        <time>2015-11-16T20:12:26Z</time>
      </trkpt>
      <trkpt lat="48.85961" lon="2.28788">
        <ele>53.79999923706</ele>
        <time>2015-11-16T20:12:36Z</time>
      </trkpt>
      <trkpt lat="48.85965" lon="2.28795">
        <ele>53.400001525879</ele>
        <time>2015-11-16T20:12:39Z</time>
      </trkpt>
      <trkpt lat="48.85973" lon="2.28823">
        <ele>51.79999923706</ele>
        <time>2015-11-16T20:12:48Z</time>
      </trkpt>
      <trkpt lat="48.85976" lon="2.28842">
        <ele>50.400001525879</ele>
        <time>2015-11-16T20:12:55Z</time>
      </trkpt>
      <trkpt lat="48.85982" lon="2.2887">
        <ele>48.20000076294</ele>
        <time>2015-11-16T20:13:05Z</time>
      </trkpt>
      <trkpt lat="48.85986" lon="2.28893">
        <ele>46</ele>
        <time>2015-11-16T20:13:14Z</time>
      </trkpt>
      <trkpt lat="48.85992" lon="2.28919">
        <ele>43.599998474121</ele>
        <time>2015-11-16T20:13:25Z</time>
      </trkpt>
      <trkpt lat="48.85996" lon="2.28947">
        <ele>41.20000076294</ele>
        <time>2015-11-16T20:13:38Z</time>
      </trkpt>
      <trkpt lat="48.86" lon="2.28974">
        <ele>38.79999923706</ele>
        <time>2015-11-16T20:13:51Z</time>
      </trkpt>
      <trkpt lat="48.86006" lon="2.29">
        <ele>36.79999923706</ele>
        <time>2015-11-16T20:14:03Z</time>
      </trkpt>
      <trkpt lat="48.86008" lon="2.29019">
        <ele>35.79999923706</ele>
        <time>2015-11-16T20:14:10Z</time>
      </trkpt>
      <trkpt lat="48.86002" lon="2.29042">
        <ele>34</ele>
        <time>2015-11-16T20:14:31Z</time>
      </trkpt>
      <trkpt lat="48.85998" lon="2.29048">
        <ele>33.400001525879</ele>
        <time>2015-11-16T20:14:35Z</time>
      </trkpt>
      <trkpt lat="48.85993" lon="2.29071">
        <ele>32.20000076294</ele>
        <time>2015-11-16T20:14:46Z</time>
      </trkpt>
      <trkpt lat="48.85993" lon="2.29074">
        <ele>32.20000076294</ele>
        <time>2015-11-16T20:14:48Z</time>
      </trkpt>
      <trkpt lat="48.86006" lon="2.29093">
        <ele>31.60000038147</ele>
        <time>2015-11-16T20:15:07Z</time>
      </trkpt>
      <trkpt lat="48.8602" lon="2.2911">
        <ele>31.200000762939</ele>
        <time>2015-11-16T20:15:22Z</time>
      </trkpt>
      <trkpt lat="48.86018" lon="2.29118">
        <ele>30.60000038147</ele>
        <time>2015-11-16T20:15:28Z</time>
      </trkpt>
      <trkpt lat="48.86007" lon="2.29135">
        <ele>29.200000762939</ele>
        <time>2015-11-16T20:15:52Z</time>
      </trkpt>
      <trkpt lat="48.85993" lon="2.29155">
        <ele>28.39999961853</ele>
        <time>2015-11-16T20:16:00Z</time>
      </trkpt>
      <trkpt lat="48.85979" lon="2.29177">
        <ele>28</ele>
        <time>2015-11-16T20:16:07Z</time>
      </trkpt>
      <trkpt lat="48.85965" lon="2.292">
        <ele>28.200000762939</ele>
        <time>2015-11-16T20:16:14Z</time>
      </trkpt>
      <trkpt lat="48.8595" lon="2.2922">
        <ele>30.200000762939</ele>
        <time>2015-11-16T20:16:21Z</time>
      </trkpt>
      <trkpt lat="48.85938" lon="2.29244">
        <ele>32</ele>
        <time>2015-11-16T20:16:29Z</time>
      </trkpt>
      <trkpt lat="48.85924" lon="2.29265">
        <ele>34.599998474121</ele>
        <time>2015-11-16T20:16:38Z</time>
      </trkpt>
      <trkpt lat="48.85922" lon="2.29268">
        <ele>35.20000076294</ele>
        <time>2015-11-16T20:16:40Z</time>
      </trkpt>
      <trkpt lat="48.85915" lon="2.29274">
        <ele>36</ele>
        <time>2015-11-16T20:16:44Z</time>
      </trkpt>
      <trkpt lat="48.85899" lon="2.29287">
        <ele>38.400001525879</ele>
        <time>2015-11-16T20:16:58Z</time>
      </trkpt>
      <trkpt lat="48.859" lon="2.29293">
        <ele>38.599998474121</ele>
        <time>2015-11-16T20:17:02Z</time>
      </trkpt>
      <trkpt lat="48.85902" lon="2.293">
        <ele>38.599998474121</ele>
        <time>2015-11-16T20:17:06Z</time>
      </trkpt>
      <trkpt lat="48.85909" lon="2.29312">
        <ele>38.79999923706</ele>
        <time>2015-11-16T20:17:12Z</time>
      </trkpt>
      <trkpt lat="48.85917" lon="2.29325">
        <ele>39</ele>
        <time>2015-11-16T20:17:19Z</time>
      </trkpt>
      <trkpt lat="48.85921" lon="2.29333">
        <ele>39.20000076294</ele>
        <time>2015-11-16T20:17:24Z</time>
      </trkpt>
      <trkpt lat="48.85918" lon="2.2934">
        <ele>39.400001525879</ele>
        <time>2015-11-16T20:17:28Z</time>
      </trkpt>
      <trkpt lat="48.85923" lon="2.29366">
        <ele>40.400001525879</ele>
        <time>2015-11-16T20:17:42Z</time>
      </trkpt>
      <trkpt lat="48.85932" lon="2.29395">
        <ele>41.400001525879</ele>
        <time>2015-11-16T20:17:50Z</time>
      </trkpt>
      <trkpt lat="48.85945" lon="2.29416">
        <ele>41.599998474121</ele>
        <time>2015-11-16T20:17:55Z</time>
      </trkpt>
      <trkpt lat="48.8596" lon="2.29439">
        <ele>40.79999923706</ele>
        <time>2015-11-16T20:18:00Z</time>
      </trkpt>
      <trkpt lat="48.85973" lon="2.29458">
        <ele>40</ele>
        <time>2015-11-16T20:18:04Z</time>
      </trkpt>
      <trkpt lat="48.85987" lon="2.29479">
        <ele>39</ele>
        <time>2015-11-16T20:18:08Z</time>
      </trkpt>
      <trkpt lat="48.86003" lon="2.29498">
        <ele>38.20000076294</ele>
        <time>2015-11-16T20:18:12Z</time>
      </trkpt>
      <trkpt lat="48.86017" lon="2.29517">
        <ele>39</ele>
        <time>2015-11-16T20:18:16Z</time>
      </trkpt>
      <trkpt lat="48.86033" lon="2.29537">
        <ele>38.79999923706</ele>
        <time>2015-11-16T20:18:21Z</time>
      </trkpt>
      <trkpt lat="48.86047" lon="2.29558">
        <ele>38.20000076294</ele>
        <time>2015-11-16T20:18:26Z</time>
      </trkpt>
      <trkpt lat="48.86061" lon="2.29578">
        <ele>37.599998474121</ele>
        <time>2015-11-16T20:18:32Z</time>
      </trkpt>
      <trkpt lat="48.86074" lon="2.296">
        <ele>36.400001525879</ele>
        <time>2015-11-16T20:18:37Z</time>
      </trkpt>
      <trkpt lat="48.86086" lon="2.29621">
        <ele>35.20000076294</ele>
        <time>2015-11-16T20:18:41Z</time>
      </trkpt>
      <trkpt lat="48.86099" lon="2.29643">
        <ele>33.79999923706</ele>
        <time>2015-11-16T20:18:45Z</time>
      </trkpt>
      <trkpt lat="48.86112" lon="2.29671">
        <ele>33</ele>
        <time>2015-11-16T20:18:50Z</time>
      </trkpt>
      <trkpt lat="48.86122" lon="2.29694">
        <ele>33</ele>
        <time>2015-11-16T20:18:54Z</time>
      </trkpt>
      <trkpt lat="48.86132" lon="2.29718">
        <ele>33</ele>
        <time>2015-11-16T20:18:58Z</time>
      </trkpt>
      <trkpt lat="48.86141" lon="2.29748">
        <ele>33</ele>
        <time>2015-11-16T20:19:03Z</time>
      </trkpt>
      <trkpt lat="48.8615" lon="2.29775">
        <ele>32</ele>
        <time>2015-11-16T20:19:08Z</time>
      </trkpt>
      <trkpt lat="48.86159" lon="2.29804">
        <ele>31.200000762939</ele>
        <time>2015-11-16T20:19:13Z</time>
      </trkpt>
      <trkpt lat="48.86165" lon="2.29822">
        <ele>30.799999237061</ele>
        <time>2015-11-16T20:19:16Z</time>
      </trkpt>
      <trkpt lat="48.86172" lon="2.29847">
        <ele>31.200000762939</ele>
        <time>2015-11-16T20:19:20Z</time>
      </trkpt>
      <trkpt lat="48.86181" lon="2.29878">
        <ele>32</ele>
        <time>2015-11-16T20:19:25Z</time>
      </trkpt>
      <trkpt lat="48.86187" lon="2.29908">
        <ele>32.79999923706</ele>
        <time>2015-11-16T20:19:30Z</time>
      </trkpt>
      <trkpt lat="48.86195" lon="2.29938">
        <ele>34.20000076294</ele>
        <time>2015-11-16T20:19:35Z</time>
      </trkpt>
      <trkpt lat="48.86198" lon="2.29951">
        <ele>34.599998474121</ele>
        <time>2015-11-16T20:19:37Z</time>
      </trkpt>
      <trkpt lat="48.86203" lon="2.29977">
        <ele>36</ele>
        <time>2015-11-16T20:19:41Z</time>
      </trkpt>
      <trkpt lat="48.86207" lon="2.30006">
        <ele>37.20000076294</ele>
        <time>2015-11-16T20:19:45Z</time>
      </trkpt>
      <trkpt lat="48.86212" lon="2.30034">
        <ele>38</ele>
        <time>2015-11-16T20:19:49Z</time>
      </trkpt>
      <trkpt lat="48.86215" lon="2.30063">
        <ele>38.599998474121</ele>
        <time>2015-11-16T20:19:53Z</time>
      </trkpt>
      <trkpt lat="48.86215" lon="2.30076">
        <ele>39</ele>
        <time>2015-11-16T20:19:55Z</time>
      </trkpt>
      <trkpt lat="48.86217" lon="2.30101">
        <ele>37.79999923706</ele>
        <time>2015-11-16T20:19:59Z</time>
      </trkpt>
      <trkpt lat="48.86219" lon="2.30122">
        <ele>37.599998474121</ele>
        <time>2015-11-16T20:20:03Z</time>
      </trkpt>
      <trkpt lat="48.86217" lon="2.30142">
        <ele>38.20000076294</ele>
        <time>2015-11-16T20:20:08Z</time>
      </trkpt>
      <trkpt lat="48.86216" lon="2.30162">
        <ele>38.79999923706</ele>
        <time>2015-11-16T20:20:13Z</time>
      </trkpt>
      <trkpt lat="48.86217" lon="2.30176">
        <ele>39.400001525879</ele>
        <time>2015-11-16T20:20:17Z</time>
      </trkpt>
      <trkpt lat="48.86217" lon="2.30205">
        <ele>41</ele>
        <time>2015-11-16T20:20:27Z</time>
      </trkpt>
      <trkpt lat="48.8622" lon="2.30235">
        <ele>42.20000076294</ele>
        <time>2015-11-16T20:20:33Z</time>
      </trkpt>
      <trkpt lat="48.86219" lon="2.30262">
        <ele>43.599998474121</ele>
        <time>2015-11-16T20:20:38Z</time>
      </trkpt>
      <trkpt lat="48.86217" lon="2.30292">
        <ele>44</ele>
        <time>2015-11-16T20:20:44Z</time>
      </trkpt>
      <trkpt lat="48.86218" lon="2.3032">
        <ele>43.20000076294</ele>
        <time>2015-11-16T20:20:49Z</time>
      </trkpt>
      <trkpt lat="48.86221" lon="2.30349">
        <ele>43.599998474121</ele>
        <time>2015-11-16T20:20:54Z</time>
      </trkpt>
      <trkpt lat="48.86225" lon="2.30377">
        <ele>45</ele>
        <time>2015-11-16T20:20:59Z</time>
      </trkpt>
      <trkpt lat="48.86225" lon="2.30407">
        <ele>47.20000076294</ele>
        <time>2015-11-16T20:21:04Z</time>
      </trkpt>
      <trkpt lat="48.86227" lon="2.30436">
        <ele>45.599998474121</ele>
        <time>2015-11-16T20:21:09Z</time>
      </trkpt>
      <trkpt lat="48.86232" lon="2.30467">
        <ele>43.599998474121</ele>
        <time>2015-11-16T20:21:14Z</time>
      </trkpt>
      <trkpt lat="48.86232" lon="2.30495">
        <ele>43.79999923706</ele>
        <time>2015-11-16T20:21:19Z</time>
      </trkpt>
      <trkpt lat="48.86233" lon="2.30526">
        <ele>43</ele>
        <time>2015-11-16T20:21:26Z</time>
      </trkpt>
      <trkpt lat="48.86235" lon="2.30555">
        <ele>41.79999923706</ele>
        <time>2015-11-16T20:21:31Z</time>
      </trkpt>
      <trkpt lat="48.86235" lon="2.30583">
        <ele>40.599998474121</ele>
        <time>2015-11-16T20:21:36Z</time>
      </trkpt>
      <trkpt lat="48.86236" lon="2.30612">
        <ele>40.400001525879</ele>
        <time>2015-11-16T20:21:42Z</time>
      </trkpt>
      <trkpt lat="48.86235" lon="2.30641">
        <ele>40.20000076294</ele>
        <time>2015-11-16T20:21:48Z</time>
      </trkpt>
      <trkpt lat="48.86235" lon="2.30668">
        <ele>39.79999923706</ele>
        <time>2015-11-16T20:21:53Z</time>
      </trkpt>
      <trkpt lat="48.86235" lon="2.30699">
        <ele>40</ele>
        <time>2015-11-16T20:21:58Z</time>
      </trkpt>
      <trkpt lat="48.86234" lon="2.30728">
        <ele>40</ele>
        <time>2015-11-16T20:22:03Z</time>
      </trkpt>
      <trkpt lat="48.86235" lon="2.30759">
        <ele>40.400001525879</ele>
        <time>2015-11-16T20:22:09Z</time>
      </trkpt>
      <trkpt lat="48.86232" lon="2.3079">
        <ele>42.400001525879</ele>
        <time>2015-11-16T20:22:14Z</time>
      </trkpt>
      <trkpt lat="48.86232" lon="2.3082">
        <ele>42.20000076294</ele>
        <time>2015-11-16T20:22:19Z</time>
      </trkpt>
      <trkpt lat="48.86232" lon="2.30855">
        <ele>43.20000076294</ele>
        <time>2015-11-16T20:22:24Z</time>
      </trkpt>
      <trkpt lat="48.86234" lon="2.30889">
        <ele>44.400001525879</ele>
        <time>2015-11-16T20:22:29Z</time>
      </trkpt>
      <trkpt lat="48.86236" lon="2.30921">
        <ele>45</ele>
        <time>2015-11-16T20:22:34Z</time>
      </trkpt>
      <trkpt lat="48.86238" lon="2.3095">
        <ele>44.20000076294</ele>
        <time>2015-11-16T20:22:39Z</time>
      </trkpt>
      <trkpt lat="48.86237" lon="2.3098">
        <ele>43.79999923706</ele>
        <time>2015-11-16T20:22:46Z</time>
      </trkpt>
      <trkpt lat="48.86239" lon="2.31012">
        <ele>42.79999923706</ele>
        <time>2015-11-16T20:22:53Z</time>
      </trkpt>
      <trkpt lat="48.86236" lon="2.31034">
        <ele>41.400001525879</ele>
        <time>2015-11-16T20:23:00Z</time>
      </trkpt>
      <trkpt lat="48.8624" lon="2.31064">
        <ele>39.599998474121</ele>
        <time>2015-11-16T20:23:13Z</time>
      </trkpt>
      <trkpt lat="48.86241" lon="2.31092">
        <ele>38</ele>
        <time>2015-11-16T20:23:18Z</time>
      </trkpt>
      <trkpt lat="48.86242" lon="2.31121">
        <ele>36.20000076294</ele>
        <time>2015-11-16T20:23:23Z</time>
      </trkpt>
      <trkpt lat="48.86244" lon="2.31149">
        <ele>35</ele>
        <time>2015-11-16T20:23:29Z</time>
      </trkpt>
      <trkpt lat="48.86261" lon="2.31163">
        <ele>34.20000076294</ele>
        <time>2015-11-16T20:23:37Z</time>
      </trkpt>
      <trkpt lat="48.86268" lon="2.31174">
        <ele>34</ele>
        <time>2015-11-16T20:23:41Z</time>
      </trkpt>
      <trkpt lat="48.86269" lon="2.31205">
        <ele>33.599998474121</ele>
        <time>2015-11-16T20:23:47Z</time>
      </trkpt>
      <trkpt lat="48.8627" lon="2.31238">
        <ele>33.20000076294</ele>
        <time>2015-11-16T20:23:53Z</time>
      </trkpt>
      <trkpt lat="48.8627" lon="2.31269">
        <ele>33</ele>
        <time>2015-11-16T20:23:59Z</time>
      </trkpt>
      <trkpt lat="48.86269" lon="2.313">
        <ele>33</ele>
        <time>2015-11-16T20:24:05Z</time>
      </trkpt>
      <trkpt lat="48.8627" lon="2.31324">
        <ele>33</ele>
        <time>2015-11-16T20:24:15Z</time>
      </trkpt>
      <trkpt lat="48.86252" lon="2.31329">
        <ele>32.599998474121</ele>
        <time>2015-11-16T20:24:27Z</time>
      </trkpt>
      <trkpt lat="48.86233" lon="2.31327">
        <ele>32.20000076294</ele>
        <time>2015-11-16T20:24:32Z</time>
      </trkpt>
      <trkpt lat="48.86212" lon="2.31324">
        <ele>31.60000038147</ele>
        <time>2015-11-16T20:24:37Z</time>
      </trkpt>
      <trkpt lat="48.8619" lon="2.31322">
        <ele>31.200000762939</ele>
        <time>2015-11-16T20:24:42Z</time>
      </trkpt>
      <trkpt lat="48.86169" lon="2.31319">
        <ele>32.400001525879</ele>
        <time>2015-11-16T20:24:47Z</time>
      </trkpt>
      <trkpt lat="48.86149" lon="2.31315">
        <ele>34.400001525879</ele>
        <time>2015-11-16T20:24:52Z</time>
      </trkpt>
      <trkpt lat="48.86129" lon="2.31313">
        <ele>36.400001525879</ele>
        <time>2015-11-16T20:24:57Z</time>
      </trkpt>
      <trkpt lat="48.86112" lon="2.3132">
        <ele>38.599998474121</ele>
        <time>2015-11-16T20:25:02Z</time>
      </trkpt>
      <trkpt lat="48.86102" lon="2.31345">
        <ele>38.400001525879</ele>
        <time>2015-11-16T20:25:07Z</time>
      </trkpt>
      <trkpt lat="48.86097" lon="2.31377">
        <ele>35.20000076294</ele>
        <time>2015-11-16T20:25:12Z</time>
      </trkpt>
      <trkpt lat="48.86094" lon="2.31406">
        <ele>33.20000076294</ele>
        <time>2015-11-16T20:25:16Z</time>
      </trkpt>
      <trkpt lat="48.86092" lon="2.31435">
        <ele>34.400001525879</ele>
        <time>2015-11-16T20:25:20Z</time>
      </trkpt>
      <trkpt lat="48.8609" lon="2.31464">
        <ele>36</ele>
        <time>2015-11-16T20:25:25Z</time>
      </trkpt>
      <trkpt lat="48.86089" lon="2.31493">
        <ele>38.79999923706</ele>
        <time>2015-11-16T20:25:31Z</time>
      </trkpt>
      <trkpt lat="48.86088" lon="2.31506">
        <ele>39.400001525879</ele>
        <time>2015-11-16T20:25:34Z</time>
      </trkpt>
      <trkpt lat="48.86086" lon="2.31536">
        <ele>40.20000076294</ele>
        <time>2015-11-16T20:25:40Z</time>
      </trkpt>
      <trkpt lat="48.86086" lon="2.31566">
        <ele>41</ele>
        <time>2015-11-16T20:25:45Z</time>
      </trkpt>
      <trkpt lat="48.86085" lon="2.31595">
        <ele>41.79999923706</ele>
        <time>2015-11-16T20:25:50Z</time>
      </trkpt>
      <trkpt lat="48.86084" lon="2.31625">
        <ele>41.79999923706</ele>
        <time>2015-11-16T20:25:55Z</time>
      </trkpt>
      <trkpt lat="48.86084" lon="2.31659">
        <ele>41.400001525879</ele>
        <time>2015-11-16T20:26:00Z</time>
      </trkpt>
      <trkpt lat="48.86081" lon="2.3169">
        <ele>41</ele>
        <time>2015-11-16T20:26:07Z</time>
      </trkpt>
      <trkpt lat="48.86083" lon="2.31718">
        <ele>40.599998474121</ele>
        <time>2015-11-16T20:26:14Z</time>
      </trkpt>
      <trkpt lat="48.86084" lon="2.31747">
        <ele>40.20000076294</ele>
        <time>2015-11-16T20:26:21Z</time>
      </trkpt>
      <trkpt lat="48.86087" lon="2.31774">
        <ele>39.79999923706</ele>
        <time>2015-11-16T20:26:28Z</time>
      </trkpt>
      <trkpt lat="48.86081" lon="2.31802">
        <ele>39.599998474121</ele>
        <time>2015-11-16T20:26:37Z</time>
      </trkpt>
      <trkpt lat="48.86075" lon="2.31831">
        <ele>40.400001525879</ele>
        <time>2015-11-16T20:26:45Z</time>
      </trkpt>
      <trkpt lat="48.86075" lon="2.31859">
        <ele>41.20000076294</ele>
        <time>2015-11-16T20:26:52Z</time>
      </trkpt>
      <trkpt lat="48.86077" lon="2.31883">
        <ele>41.599998474121</ele>
        <time>2015-11-16T20:27:00Z</time>
      </trkpt>
      <trkpt lat="48.86074" lon="2.31901">
        <ele>40.79999923706</ele>
        <time>2015-11-16T20:27:04Z</time>
      </trkpt>
      <trkpt lat="48.8607" lon="2.31928">
        <ele>40.400001525879</ele>
        <time>2015-11-16T20:27:09Z</time>
      </trkpt>
      <trkpt lat="48.86064" lon="2.31958">
        <ele>40.599998474121</ele>
        <time>2015-11-16T20:27:14Z</time>
      </trkpt>
      <trkpt lat="48.86058" lon="2.31984">
        <ele>40.599998474121</ele>
        <time>2015-11-16T20:27:18Z</time>
      </trkpt>
      <trkpt lat="48.8605" lon="2.32014">
        <ele>40.79999923706</ele>
        <time>2015-11-16T20:27:23Z</time>
      </trkpt>
      <trkpt lat="48.86042" lon="2.32042">
        <ele>41</ele>
        <time>2015-11-16T20:27:28Z</time>
      </trkpt>
      <trkpt lat="48.86031" lon="2.32071">
        <ele>41</ele>
        <time>2015-11-16T20:27:33Z</time>
      </trkpt>
      <trkpt lat="48.86019" lon="2.32099">
        <ele>40.599998474121</ele>
        <time>2015-11-16T20:27:38Z</time>
      </trkpt>
      <trkpt lat="48.86011" lon="2.3213">
        <ele>39.79999923706</ele>
        <time>2015-11-16T20:27:43Z</time>
      </trkpt>
      <trkpt lat="48.86001" lon="2.32159">
        <ele>38.400001525879</ele>
        <time>2015-11-16T20:27:48Z</time>
      </trkpt>
      <trkpt lat="48.85991" lon="2.32184">
        <ele>38.400001525879</ele>
        <time>2015-11-16T20:27:54Z</time>
      </trkpt>
      <trkpt lat="48.85975" lon="2.32205">
        <ele>38.599998474121</ele>
        <time>2015-11-16T20:28:00Z</time>
      </trkpt>
      <trkpt lat="48.85961" lon="2.32226">
        <ele>40.599998474121</ele>
        <time>2015-11-16T20:28:07Z</time>
      </trkpt>
      <trkpt lat="48.85949" lon="2.3225">
        <ele>42.79999923706</ele>
        <time>2015-11-16T20:28:13Z</time>
      </trkpt>
      <trkpt lat="48.85924" lon="2.32255">
        <ele>43.599998474121</ele>
        <time>2015-11-16T20:28:16Z</time>
      </trkpt>
      <trkpt lat="48.85906" lon="2.32261">
        <ele>44.20000076294</ele>
        <time>2015-11-16T20:28:19Z</time>
      </trkpt>
      <trkpt lat="48.85886" lon="2.32279">
        <ele>45</ele>
        <time>2015-11-16T20:28:24Z</time>
      </trkpt>
      <trkpt lat="48.85869" lon="2.32299">
        <ele>45</ele>
        <time>2015-11-16T20:28:29Z</time>
      </trkpt>
      <trkpt lat="48.85855" lon="2.32313">
        <ele>45</ele>
        <time>2015-11-16T20:28:33Z</time>
      </trkpt>
      <trkpt lat="48.85838" lon="2.32332">
        <ele>44</ele>
        <time>2015-11-16T20:28:38Z</time>
      </trkpt>
      <trkpt lat="48.8583" lon="2.32338">
        <ele>43.599998474121</ele>
        <time>2015-11-16T20:28:40Z</time>
      </trkpt>
      <trkpt lat="48.8581" lon="2.3235">
        <ele>42.400001525879</ele>
        <time>2015-11-16T20:28:44Z</time>
      </trkpt>
      <trkpt lat="48.85792" lon="2.32361">
        <ele>41.400001525879</ele>
        <time>2015-11-16T20:28:48Z</time>
      </trkpt>
      <trkpt lat="48.85776" lon="2.32378">
        <ele>40.20000076294</ele>
        <time>2015-11-16T20:28:52Z</time>
      </trkpt>
      <trkpt lat="48.85769" lon="2.32386">
        <ele>40</ele>
        <time>2015-11-16T20:28:54Z</time>
      </trkpt>
      <trkpt lat="48.85755" lon="2.32401">
        <ele>40.20000076294</ele>
        <time>2015-11-16T20:28:58Z</time>
      </trkpt>
      <trkpt lat="48.85736" lon="2.32416">
        <ele>41.79999923706</ele>
        <time>2015-11-16T20:29:03Z</time>
      </trkpt>
      <trkpt lat="48.85733" lon="2.3242">
        <ele>42</ele>
        <time>2015-11-16T20:29:04Z</time>
      </trkpt>
      <trkpt lat="48.85714" lon="2.32437">
        <ele>42.79999923706</ele>
        <time>2015-11-16T20:29:09Z</time>
      </trkpt>
      <trkpt lat="48.85696" lon="2.32456">
        <ele>44</ele>
        <time>2015-11-16T20:29:15Z</time>
      </trkpt>
      <trkpt lat="48.85682" lon="2.32476">
        <ele>45</ele>
        <time>2015-11-16T20:29:20Z</time>
      </trkpt>
      <trkpt lat="48.85669" lon="2.32497">
        <ele>45</ele>
        <time>2015-11-16T20:29:25Z</time>
      </trkpt>
      <trkpt lat="48.85663" lon="2.32506">
        <ele>44.79999923706</ele>
        <time>2015-11-16T20:29:27Z</time>
      </trkpt>
      <trkpt lat="48.85649" lon="2.32527">
        <ele>44.20000076294</ele>
        <time>2015-11-16T20:29:32Z</time>
      </trkpt>
      <trkpt lat="48.85643" lon="2.3254">
        <ele>44.20000076294</ele>
        <time>2015-11-16T20:29:35Z</time>
      </trkpt>
      <trkpt lat="48.85636" lon="2.32553">
        <ele>44.20000076294</ele>
        <time>2015-11-16T20:29:39Z</time>
      </trkpt>
      <trkpt lat="48.8562" lon="2.32569">
        <ele>44.599998474121</ele>
        <time>2015-11-16T20:29:46Z</time>
      </trkpt>
      <trkpt lat="48.85614" lon="2.32576">
        <ele>44.79999923706</ele>
        <time>2015-11-16T20:29:50Z</time>
      </trkpt>
      <trkpt lat="48.85598" lon="2.32561">
        <ele>45.20000076294</ele>
        <time>2015-11-16T20:30:25Z</time>
      </trkpt>
      <trkpt lat="48.85579" lon="2.32556">
        <ele>45.599998474121</ele>
        <time>2015-11-16T20:30:32Z</time>
      </trkpt>
      <trkpt lat="48.85577" lon="2.32555">
        <ele>45.79999923706</ele>
        <time>2015-11-16T20:30:34Z</time>
      </trkpt>
      <trkpt lat="48.85558" lon="2.32563">
        <ele>46.599998474121</ele>
        <time>2015-11-16T20:31:01Z</time>
      </trkpt>
      <trkpt lat="48.85538" lon="2.3257">
        <ele>47.400001525879</ele>
        <time>2015-11-16T20:31:07Z</time>
      </trkpt>
      <trkpt lat="48.85517" lon="2.32578">
        <ele>48</ele>
        <time>2015-11-16T20:31:13Z</time>
      </trkpt>
      <trkpt lat="48.85496" lon="2.32588">
        <ele>48</ele>
        <time>2015-11-16T20:31:19Z</time>
      </trkpt>
      <trkpt lat="48.85478" lon="2.32599">
        <ele>48.20000076294</ele>
        <time>2015-11-16T20:31:26Z</time>
      </trkpt>
      <trkpt lat="48.85456" lon="2.3261">
        <ele>48.599998474121</ele>
        <time>2015-11-16T20:31:34Z</time>
      </trkpt>
      <trkpt lat="48.85439" lon="2.32622">
        <ele>49</ele>
        <time>2015-11-16T20:31:40Z</time>
      </trkpt>
      <trkpt lat="48.8542" lon="2.32633">
        <ele>49</ele>
        <time>2015-11-16T20:31:46Z</time>
      </trkpt>
      <trkpt lat="48.854" lon="2.32634">
        <ele>48.599998474121</ele>
        <time>2015-11-16T20:31:54Z</time>
      </trkpt>
      <trkpt lat="48.85379" lon="2.32644">
        <ele>48.400001525879</ele>
        <time>2015-11-16T20:32:03Z</time>
      </trkpt>
      <trkpt lat="48.8536" lon="2.3265">
        <ele>48</ele>
        <time>2015-11-16T20:32:08Z</time>
      </trkpt>
      <trkpt lat="48.85342" lon="2.3266">
        <ele>48</ele>
        <time>2015-11-16T20:32:14Z</time>
      </trkpt>
      <trkpt lat="48.85321" lon="2.32668">
        <ele>48</ele>
        <time>2015-11-16T20:32:20Z</time>
      </trkpt>
      <trkpt lat="48.85297" lon="2.32662">
        <ele>48</ele>
        <time>2015-11-16T20:32:21Z</time>
      </trkpt>
      <trkpt lat="48.85276" lon="2.32663">
        <ele>48</ele>
        <time>2015-11-16T20:32:26Z</time>
      </trkpt>
      <trkpt lat="48.85256" lon="2.32664">
        <ele>47.400001525879</ele>
        <time>2015-11-16T20:32:31Z</time>
      </trkpt>
      <trkpt lat="48.85236" lon="2.32663">
        <ele>46.599998474121</ele>
        <time>2015-11-16T20:32:35Z</time>
      </trkpt>
      <trkpt lat="48.85218" lon="2.32671">
        <ele>46</ele>
        <time>2015-11-16T20:32:42Z</time>
      </trkpt>
      <trkpt lat="48.852" lon="2.32677">
        <ele>45.400001525879</ele>
        <time>2015-11-16T20:32:47Z</time>
      </trkpt>
      <trkpt lat="48.85182" lon="2.32678">
        <ele>45.400001525879</ele>
        <time>2015-11-16T20:32:50Z</time>
      </trkpt>
      <trkpt lat="48.85161" lon="2.32685">
        <ele>45.79999923706</ele>
        <time>2015-11-16T20:32:56Z</time>
      </trkpt>
      <trkpt lat="48.85142" lon="2.32688">
        <ele>46.20000076294</ele>
        <time>2015-11-16T20:33:01Z</time>
      </trkpt>
      <trkpt lat="48.85122" lon="2.32691">
        <ele>46.599998474121</ele>
        <time>2015-11-16T20:33:07Z</time>
      </trkpt>
      <trkpt lat="48.85107" lon="2.32693">
        <ele>47</ele>
        <time>2015-11-16T20:33:13Z</time>
      </trkpt>
      <trkpt lat="48.85089" lon="2.32702">
        <ele>47.400001525879</ele>
        <time>2015-11-16T20:33:22Z</time>
      </trkpt>
      <trkpt lat="48.85082" lon="2.3271">
        <ele>47.599998474121</ele>
        <time>2015-11-16T20:33:27Z</time>
      </trkpt>
      <trkpt lat="48.85069" lon="2.32714">
        <ele>47.599998474121</ele>
        <time>2015-11-16T20:33:32Z</time>
      </trkpt>
      <trkpt lat="48.85047" lon="2.32718">
        <ele>46.599998474121</ele>
        <time>2015-11-16T20:33:37Z</time>
      </trkpt>
      <trkpt lat="48.85028" lon="2.32722">
        <ele>45.599998474121</ele>
        <time>2015-11-16T20:33:42Z</time>
      </trkpt>
      <trkpt lat="48.85008" lon="2.32732">
        <ele>46.20000076294</ele>
        <time>2015-11-16T20:33:48Z</time>
      </trkpt>
      <trkpt lat="48.84989" lon="2.32744">
        <ele>46.79999923706</ele>
        <time>2015-11-16T20:33:56Z</time>
      </trkpt>
      <trkpt lat="48.8497" lon="2.3275">
        <ele>47.599998474121</ele>
        <time>2015-11-16T20:34:02Z</time>
      </trkpt>
      <trkpt lat="48.8495" lon="2.32755">
        <ele>48.79999923706</ele>
        <time>2015-11-16T20:34:08Z</time>
      </trkpt>
      <trkpt lat="48.8493" lon="2.32762">
        <ele>49.400001525879</ele>
        <time>2015-11-16T20:34:13Z</time>
      </trkpt>
      <trkpt lat="48.8491" lon="2.32771">
        <ele>49.599998474121</ele>
        <time>2015-11-16T20:34:18Z</time>
      </trkpt>
      <trkpt lat="48.84892" lon="2.3278">
        <ele>49.79999923706</ele>
        <time>2015-11-16T20:34:23Z</time>
      </trkpt>
      <trkpt lat="48.8487" lon="2.32782">
        <ele>50.400001525879</ele>
        <time>2015-11-16T20:34:27Z</time>
      </trkpt>
      <trkpt lat="48.84841" lon="2.32781">
        <ele>51.400001525879</ele>
        <time>2015-11-16T20:34:30Z</time>
      </trkpt>
      <trkpt lat="48.84819" lon="2.32781">
        <ele>52.79999923706</ele>
        <time>2015-11-16T20:34:33Z</time>
      </trkpt>
      <trkpt lat="48.84801" lon="2.32783">
        <ele>53.599998474121</ele>
        <time>2015-11-16T20:34:40Z</time>
      </trkpt>
      <trkpt lat="48.84783" lon="2.32783">
        <ele>53.599998474121</ele>
        <time>2015-11-16T20:34:46Z</time>
      </trkpt>
      <trkpt lat="48.84765" lon="2.3279">
        <ele>53.400001525879</ele>
        <time>2015-11-16T20:34:52Z</time>
      </trkpt>
      <trkpt lat="48.84749" lon="2.32794">
        <ele>52.79999923706</ele>
        <time>2015-11-16T20:34:59Z</time>
      </trkpt>
      <trkpt lat="48.84734" lon="2.32795">
        <ele>52.599998474121</ele>
        <time>2015-11-16T20:35:05Z</time>
      </trkpt>
      <trkpt lat="48.84717" lon="2.32807">
        <ele>52</ele>
        <time>2015-11-16T20:35:12Z</time>
      </trkpt>
      <trkpt lat="48.84699" lon="2.32817">
        <ele>51.400001525879</ele>
        <time>2015-11-16T20:35:20Z</time>
      </trkpt>
      <trkpt lat="48.84689" lon="2.32817">
        <ele>51.20000076294</ele>
        <time>2015-11-16T20:35:24Z</time>
      </trkpt>
      <trkpt lat="48.84679" lon="2.32817">
        <ele>51</ele>
        <time>2015-11-16T20:35:28Z</time>
      </trkpt>
      <trkpt lat="48.84661" lon="2.32827">
        <ele>51</ele>
        <time>2015-11-16T20:35:37Z</time>
      </trkpt>
      <trkpt lat="48.84642" lon="2.32833">
        <ele>51.20000076294</ele>
        <time>2015-11-16T20:35:43Z</time>
      </trkpt>
      <trkpt lat="48.8462" lon="2.32835">
        <ele>51.20000076294</ele>
        <time>2015-11-16T20:35:48Z</time>
      </trkpt>
      <trkpt lat="48.84598" lon="2.32837">
        <ele>51.599998474121</ele>
        <time>2015-11-16T20:35:53Z</time>
      </trkpt>
      <trkpt lat="48.84579" lon="2.32842">
        <ele>52.400001525879</ele>
        <time>2015-11-16T20:35:59Z</time>
      </trkpt>
      <trkpt lat="48.8456" lon="2.32844">
        <ele>53</ele>
        <time>2015-11-16T20:36:03Z</time>
      </trkpt>
      <trkpt lat="48.84542" lon="2.32855">
        <ele>53.79999923706</ele>
        <time>2015-11-16T20:36:11Z</time>
      </trkpt>
      <trkpt lat="48.84539" lon="2.32858">
        <ele>53.599998474121</ele>
        <time>2015-11-16T20:36:13Z</time>
      </trkpt>
      <trkpt lat="48.84521" lon="2.32863">
        <ele>52.599998474121</ele>
        <time>2015-11-16T20:36:22Z</time>
      </trkpt>
      <trkpt lat="48.84502" lon="2.3287">
        <ele>53.599998474121</ele>
        <time>2015-11-16T20:36:28Z</time>
      </trkpt>
      <trkpt lat="48.84483" lon="2.32874">
        <ele>54.400001525879</ele>
        <time>2015-11-16T20:36:33Z</time>
      </trkpt>
      <trkpt lat="48.84466" lon="2.32879">
        <ele>55.599998474121</ele>
        <time>2015-11-16T20:36:38Z</time>
      </trkpt>
      <trkpt lat="48.84447" lon="2.32888">
        <ele>57</ele>
        <time>2015-11-16T20:36:44Z</time>
      </trkpt>
      <trkpt lat="48.8443" lon="2.32897">
        <ele>58.20000076294</ele>
        <time>2015-11-16T20:36:51Z</time>
      </trkpt>
      <trkpt lat="48.84412" lon="2.32904">
        <ele>58.599998474121</ele>
        <time>2015-11-16T20:37:00Z</time>
      </trkpt>
      <trkpt lat="48.84393" lon="2.32907">
        <ele>59</ele>
        <time>2015-11-16T20:37:06Z</time>
      </trkpt>
      <trkpt lat="48.84381" lon="2.32915">
        <ele>59.400001525879</ele>
        <time>2015-11-16T20:37:15Z</time>
      </trkpt>
      <trkpt lat="48.84372" lon="2.32921">
        <ele>59.599998474121</ele>
        <time>2015-11-16T20:37:21Z</time>
      </trkpt>
      <trkpt lat="48.84365" lon="2.32927">
        <ele>59.79999923706</ele>
        <time>2015-11-16T20:37:24Z</time>
      </trkpt>
      <trkpt lat="48.84339" lon="2.32927">
        <ele>59.79999923706</ele>
        <time>2015-11-16T20:37:30Z</time>
      </trkpt>
      <trkpt lat="48.84319" lon="2.3293">
        <ele>59.79999923706</ele>
        <time>2015-11-16T20:37:34Z</time>
      </trkpt>
      <trkpt lat="48.84317" lon="2.32931">
        <ele>59.79999923706</ele>
        <time>2015-11-16T20:37:35Z</time>
      </trkpt>
      <trkpt lat="48.84299" lon="2.32936">
        <ele>59.79999923706</ele>
        <time>2015-11-16T20:37:43Z</time>
      </trkpt>
      <trkpt lat="48.84278" lon="2.32943">
        <ele>60</ele>
        <time>2015-11-16T20:37:51Z</time>
      </trkpt>
      <trkpt lat="48.84274" lon="2.32942">
        <ele>60</ele>
        <time>2015-11-16T20:37:52Z</time>
      </trkpt>
      <trkpt lat="48.84255" lon="2.32941">
        <ele>60.20000076294</ele>
        <time>2015-11-16T20:37:56Z</time>
      </trkpt>
      <trkpt lat="48.84235" lon="2.32936">
        <ele>60.400001525879</ele>
        <time>2015-11-16T20:37:59Z</time>
      </trkpt>
      <trkpt lat="48.84228" lon="2.32931">
        <ele>60.599998474121</ele>
        <time>2015-11-16T20:38:03Z</time>
      </trkpt>
      <trkpt lat="48.8421" lon="2.32926">
        <ele>60.79999923706</ele>
        <time>2015-11-16T20:38:29Z</time>
      </trkpt>
      <trkpt lat="48.84197" lon="2.32941">
        <ele>61</ele>
        <time>2015-11-16T20:38:39Z</time>
      </trkpt>
      <trkpt lat="48.84193" lon="2.32953">
        <ele>61</ele>
        <time>2015-11-16T20:38:46Z</time>
      </trkpt>
      <trkpt lat="48.84198" lon="2.32955">
        <ele>60.79999923706</ele>
        <time>2015-11-16T20:38:53Z</time>
      </trkpt>
      <trkpt lat="48.84185" lon="2.32967">
        <ele>61</ele>
        <time>2015-11-16T20:38:59Z</time>
      </trkpt>
      <trkpt lat="48.84166" lon="2.32977">
        <ele>61</ele>
        <time>2015-11-16T20:39:04Z</time>
      </trkpt>
      <trkpt lat="48.84152" lon="2.32984">
        <ele>61.79999923706</ele>
        <time>2015-11-16T20:39:09Z</time>
      </trkpt>
      <trkpt lat="48.84134" lon="2.32991">
        <ele>62.79999923706</ele>
        <time>2015-11-16T20:39:15Z</time>
      </trkpt>
      <trkpt lat="48.84115" lon="2.32991">
        <ele>63.400001525879</ele>
        <time>2015-11-16T20:39:22Z</time>
      </trkpt>
      <trkpt lat="48.84093" lon="2.3299">
        <ele>63.400001525879</ele>
        <time>2015-11-16T20:39:29Z</time>
      </trkpt>
      <trkpt lat="48.84072" lon="2.32992">
        <ele>62.79999923706</ele>
        <time>2015-11-16T20:39:35Z</time>
      </trkpt>
      <trkpt lat="48.84053" lon="2.32991">
        <ele>62</ele>
        <time>2015-11-16T20:39:42Z</time>
      </trkpt>
      <trkpt lat="48.84035" lon="2.32996">
        <ele>61.400001525879</ele>
        <time>2015-11-16T20:39:51Z</time>
      </trkpt>
      <trkpt lat="48.84017" lon="2.33003">
        <ele>61</ele>
        <time>2015-11-16T20:39:56Z</time>
      </trkpt>
      <trkpt lat="48.83996" lon="2.3301">
        <ele>60.599998474121</ele>
        <time>2015-11-16T20:40:02Z</time>
      </trkpt>
      <trkpt lat="48.83979" lon="2.33018">
        <ele>60.400001525879</ele>
        <time>2015-11-16T20:40:07Z</time>
      </trkpt>
      <trkpt lat="48.8396" lon="2.33033">
        <ele>61</ele>
        <time>2015-11-16T20:40:12Z</time>
      </trkpt>
      <trkpt lat="48.83942" lon="2.3305">
        <ele>62.400001525879</ele>
        <time>2015-11-16T20:40:18Z</time>
      </trkpt>
      <trkpt lat="48.83922" lon="2.33061">
        <ele>63.20000076294</ele>
        <time>2015-11-16T20:40:23Z</time>
      </trkpt>
      <trkpt lat="48.83911" lon="2.3307">
        <ele>64</ele>
        <time>2015-11-16T20:40:27Z</time>
      </trkpt>
      <trkpt lat="48.83898" lon="2.3308">
        <ele>65</ele>
        <time>2015-11-16T20:40:32Z</time>
      </trkpt>
      <trkpt lat="48.83889" lon="2.33088">
        <ele>65.199996948242</ele>
        <time>2015-11-16T20:40:37Z</time>
      </trkpt>
      <trkpt lat="48.83871" lon="2.33094">
        <ele>65.400001525879</ele>
        <time>2015-11-16T20:40:45Z</time>
      </trkpt>
      <trkpt lat="48.83852" lon="2.33101">
        <ele>65.599998474121</ele>
        <time>2015-11-16T20:40:53Z</time>
      </trkpt>
      <trkpt lat="48.83834" lon="2.33107">
        <ele>64.800003051758</ele>
        <time>2015-11-16T20:41:00Z</time>
      </trkpt>
      <trkpt lat="48.83814" lon="2.33116">
        <ele>64</ele>
        <time>2015-11-16T20:41:07Z</time>
      </trkpt>
      <trkpt lat="48.83795" lon="2.33122">
        <ele>64</ele>
        <time>2015-11-16T20:41:13Z</time>
      </trkpt>
      <trkpt lat="48.83776" lon="2.33124">
        <ele>64</ele>
        <time>2015-11-16T20:41:20Z</time>
      </trkpt>
      <trkpt lat="48.83756" lon="2.33133">
        <ele>64.800003051758</ele>
        <time>2015-11-16T20:41:28Z</time>
      </trkpt>
      <trkpt lat="48.83746" lon="2.3314">
        <ele>65.199996948242</ele>
        <time>2015-11-16T20:41:32Z</time>
      </trkpt>
      <trkpt lat="48.83728" lon="2.33152">
        <ele>65.199996948242</ele>
        <time>2015-11-16T20:41:39Z</time>
      </trkpt>
      <trkpt lat="48.8371" lon="2.33159">
        <ele>65</ele>
        <time>2015-11-16T20:41:45Z</time>
      </trkpt>
      <trkpt lat="48.8369" lon="2.33167">
        <ele>65</ele>
        <time>2015-11-16T20:41:52Z</time>
      </trkpt>
      <trkpt lat="48.83669" lon="2.33168">
        <ele>66</ele>
        <time>2015-11-16T20:41:59Z</time>
      </trkpt>
      <trkpt lat="48.83651" lon="2.33173">
        <ele>67</ele>
        <time>2015-11-16T20:42:05Z</time>
      </trkpt>
      <trkpt lat="48.83632" lon="2.33181">
        <ele>68</ele>
        <time>2015-11-16T20:42:12Z</time>
      </trkpt>
      <trkpt lat="48.83612" lon="2.33182">
        <ele>68.800003051758</ele>
        <time>2015-11-16T20:42:20Z</time>
      </trkpt>
      <trkpt lat="48.83592" lon="2.33185">
        <ele>69.199996948242</ele>
        <time>2015-11-16T20:42:27Z</time>
      </trkpt>
      <trkpt lat="48.8357" lon="2.33186">
        <ele>69.400001525879</ele>
        <time>2015-11-16T20:42:34Z</time>
      </trkpt>
      <trkpt lat="48.83551" lon="2.33184">
        <ele>69.599998474121</ele>
        <time>2015-11-16T20:42:40Z</time>
      </trkpt>
      <trkpt lat="48.8353" lon="2.33189">
        <ele>71</ele>
        <time>2015-11-16T20:42:46Z</time>
      </trkpt>
      <trkpt lat="48.83512" lon="2.33191">
        <ele>71</ele>
        <time>2015-11-16T20:42:52Z</time>
      </trkpt>
      <trkpt lat="48.8351" lon="2.33191">
        <ele>71</ele>
        <time>2015-11-16T20:42:53Z</time>
      </trkpt>
      <trkpt lat="48.83495" lon="2.33191">
        <ele>70</ele>
        <time>2015-11-16T20:43:01Z</time>
      </trkpt>
      <trkpt lat="48.83477" lon="2.33192">
        <ele>69</ele>
        <time>2015-11-16T20:43:12Z</time>
      </trkpt>
      <trkpt lat="48.83468" lon="2.33203">
        <ele>68.599998474121</ele>
        <time>2015-11-16T20:43:35Z</time>
      </trkpt>
      <trkpt lat="48.83468" lon="2.33214">
        <ele>68.800003051758</ele>
        <time>2015-11-16T20:44:44Z</time>
      </trkpt>
      <trkpt lat="48.83469" lon="2.33236">
        <ele>69</ele>
        <time>2015-11-16T20:45:25Z</time>
      </trkpt>
      <trkpt lat="48.83472" lon="2.33245">
        <ele>69.400001525879</ele>
        <time>2015-11-16T20:45:28Z</time>
      </trkpt>
      <trkpt lat="48.8347" lon="2.33271">
        <ele>69.199996948242</ele>
        <time>2015-11-16T20:45:45Z</time>
      </trkpt>
      <trkpt lat="48.83456" lon="2.33287">
        <ele>68.400001525879</ele>
        <time>2015-11-16T20:45:53Z</time>
      </trkpt>
      <trkpt lat="48.83439" lon="2.333">
        <ele>67.599998474121</ele>
        <time>2015-11-16T20:46:01Z</time>
      </trkpt>
      <trkpt lat="48.83426" lon="2.33289">
        <ele>67</ele>
        <time>2015-11-16T20:46:17Z</time>
      </trkpt>
      <trkpt lat="48.83419" lon="2.33276">
        <ele>66.599998474121</ele>
        <time>2015-11-16T20:46:24Z</time>
      </trkpt>
      <trkpt lat="48.83416" lon="2.33273">
        <ele>66.400001525879</ele>
        <time>2015-11-16T20:46:27Z</time>
      </trkpt>
      <trkpt lat="48.83407" lon="2.33284">
        <ele>66.199996948242</ele>
        <time>2015-11-16T20:46:34Z</time>
      </trkpt>
      <trkpt lat="48.83393" lon="2.33305">
        <ele>65.199996948242</ele>
        <time>2015-11-16T20:46:41Z</time>
      </trkpt>
      <trkpt lat="48.83375" lon="2.33308">
        <ele>64</ele>
        <time>2015-11-16T20:46:46Z</time>
      </trkpt>
      <trkpt lat="48.83358" lon="2.33292">
        <ele>63</ele>
        <time>2015-11-16T20:46:53Z</time>
      </trkpt>
      <trkpt lat="48.8335" lon="2.33278">
        <ele>63.400001525879</ele>
        <time>2015-11-16T20:46:59Z</time>
      </trkpt>
      <trkpt lat="48.8334" lon="2.33262">
        <ele>64</ele>
        <time>2015-11-16T20:47:16Z</time>
      </trkpt>
      <trkpt lat="48.83335" lon="2.33256">
        <ele>64.199996948242</ele>
        <time>2015-11-16T20:47:22Z</time>
      </trkpt>
      <trkpt lat="48.8333" lon="2.33259">
        <ele>64.400001525879</ele>
        <time>2015-11-16T20:47:27Z</time>
      </trkpt>
    </trkseg>
  </trk>
  <trk>
    <name><![CDATA[lundi 2015 11 09]]></name>
    <extensions>
      <line xmlns="http://www.topografix.com/GPX/gpx_style/0/2">
        <color>000000</color>
      </line>
    </extensions>
    <trkseg>
      <trkpt lat="48.85724" lon="2.34721">
        <ele>40.599998474121</ele>
        <time>2015-11-09T19:21:18Z</time>
      </trkpt>
      <trkpt lat="48.85743" lon="2.34711">
        <ele>40.20000076294</ele>
        <time>2015-11-09T19:21:44Z</time>
      </trkpt>
      <trkpt lat="48.85763" lon="2.34716">
        <ele>39.400001525879</ele>
        <time>2015-11-09T19:21:51Z</time>
      </trkpt>
      <trkpt lat="48.85783" lon="2.34717">
        <ele>39.79999923706</ele>
        <time>2015-11-09T19:21:57Z</time>
      </trkpt>
      <trkpt lat="48.85801" lon="2.34719">
        <ele>41.400001525879</ele>
        <time>2015-11-09T19:22:03Z</time>
      </trkpt>
      <trkpt lat="48.85819" lon="2.34723">
        <ele>43</ele>
        <time>2015-11-09T19:22:08Z</time>
      </trkpt>
      <trkpt lat="48.85838" lon="2.34726">
        <ele>45</ele>
        <time>2015-11-09T19:22:14Z</time>
      </trkpt>
      <trkpt lat="48.85858" lon="2.3473">
        <ele>47.400001525879</ele>
        <time>2015-11-09T19:22:18Z</time>
      </trkpt>
      <trkpt lat="48.85877" lon="2.34719">
        <ele>47</ele>
        <time>2015-11-09T19:22:24Z</time>
      </trkpt>
      <trkpt lat="48.85893" lon="2.34705">
        <ele>46.599998474121</ele>
        <time>2015-11-09T19:22:29Z</time>
      </trkpt>
      <trkpt lat="48.85912" lon="2.34692">
        <ele>46.599998474121</ele>
        <time>2015-11-09T19:22:34Z</time>
      </trkpt>
      <trkpt lat="48.8593" lon="2.34676">
        <ele>46.79999923706</ele>
        <time>2015-11-09T19:22:40Z</time>
      </trkpt>
      <trkpt lat="48.85947" lon="2.34664">
        <ele>47</ele>
        <time>2015-11-09T19:22:47Z</time>
      </trkpt>
      <trkpt lat="48.85967" lon="2.34652">
        <ele>47.20000076294</ele>
        <time>2015-11-09T19:22:53Z</time>
      </trkpt>
      <trkpt lat="48.85983" lon="2.3464">
        <ele>47.599998474121</ele>
        <time>2015-11-09T19:22:58Z</time>
      </trkpt>
      <trkpt lat="48.86" lon="2.3463">
        <ele>47.79999923706</ele>
        <time>2015-11-09T19:23:03Z</time>
      </trkpt>
      <trkpt lat="48.86021" lon="2.3462">
        <ele>47.599998474121</ele>
        <time>2015-11-09T19:23:07Z</time>
      </trkpt>
      <trkpt lat="48.8604" lon="2.34608">
        <ele>47.400001525879</ele>
        <time>2015-11-09T19:23:11Z</time>
      </trkpt>
      <trkpt lat="48.8606" lon="2.34601">
        <ele>47.79999923706</ele>
        <time>2015-11-09T19:23:16Z</time>
      </trkpt>
      <trkpt lat="48.86079" lon="2.34595">
        <ele>48.400001525879</ele>
        <time>2015-11-09T19:23:20Z</time>
      </trkpt>
      <trkpt lat="48.86324" lon="2.34812">
        <ele>44.79999923706</ele>
        <time>2015-11-09T19:25:13Z</time>
      </trkpt>
      <trkpt lat="48.86338" lon="2.34819">
        <ele>45.20000076294</ele>
        <time>2015-11-09T19:25:18Z</time>
      </trkpt>
      <trkpt lat="48.86358" lon="2.34839">
        <ele>46.20000076294</ele>
        <time>2015-11-09T19:25:23Z</time>
      </trkpt>
      <trkpt lat="48.86379" lon="2.34859">
        <ele>46.79999923706</ele>
        <time>2015-11-09T19:25:28Z</time>
      </trkpt>
      <trkpt lat="48.86384" lon="2.34874">
        <ele>47.20000076294</ele>
        <time>2015-11-09T19:25:35Z</time>
      </trkpt>
      <trkpt lat="48.86389" lon="2.34878">
        <ele>47.20000076294</ele>
        <time>2015-11-09T19:25:39Z</time>
      </trkpt>
      <trkpt lat="48.86394" lon="2.3488">
        <ele>47.400001525879</ele>
        <time>2015-11-09T19:25:46Z</time>
      </trkpt>
      <trkpt lat="48.86397" lon="2.34907">
        <ele>48.20000076294</ele>
        <time>2015-11-09T19:25:57Z</time>
      </trkpt>
      <trkpt lat="48.86396" lon="2.34936">
        <ele>48.599998474121</ele>
        <time>2015-11-09T19:26:04Z</time>
      </trkpt>
      <trkpt lat="48.86391" lon="2.34967">
        <ele>48.79999923706</ele>
        <time>2015-11-09T19:26:10Z</time>
      </trkpt>
      <trkpt lat="48.86385" lon="2.34997">
        <ele>49.400001525879</ele>
        <time>2015-11-09T19:26:15Z</time>
      </trkpt>
      <trkpt lat="48.86381" lon="2.35024">
        <ele>48.79999923706</ele>
        <time>2015-11-09T19:26:20Z</time>
      </trkpt>
      <trkpt lat="48.86372" lon="2.35055">
        <ele>48.20000076294</ele>
        <time>2015-11-09T19:26:25Z</time>
      </trkpt>
      <trkpt lat="48.86366" lon="2.35081">
        <ele>47.79999923706</ele>
        <time>2015-11-09T19:26:29Z</time>
      </trkpt>
      <trkpt lat="48.86356" lon="2.35106">
        <ele>47.599998474121</ele>
        <time>2015-11-09T19:26:33Z</time>
      </trkpt>
      <trkpt lat="48.86347" lon="2.35133">
        <ele>47.400001525879</ele>
        <time>2015-11-09T19:26:37Z</time>
      </trkpt>
      <trkpt lat="48.86339" lon="2.35154">
        <ele>47.400001525879</ele>
        <time>2015-11-09T19:26:40Z</time>
      </trkpt>
      <trkpt lat="48.86331" lon="2.35184">
        <ele>47.599998474121</ele>
        <time>2015-11-09T19:26:44Z</time>
      </trkpt>
      <trkpt lat="48.86323" lon="2.35216">
        <ele>47.599998474121</ele>
        <time>2015-11-09T19:26:48Z</time>
      </trkpt>
      <trkpt lat="48.86316" lon="2.35246">
        <ele>47</ele>
        <time>2015-11-09T19:26:52Z</time>
      </trkpt>
      <trkpt lat="48.86314" lon="2.35275">
        <ele>46.400001525879</ele>
        <time>2015-11-09T19:26:56Z</time>
      </trkpt>
      <trkpt lat="48.86313" lon="2.35281">
        <ele>46.20000076294</ele>
        <time>2015-11-09T19:26:57Z</time>
      </trkpt>
      <trkpt lat="48.86307" lon="2.35307">
        <ele>46</ele>
        <time>2015-11-09T19:27:01Z</time>
      </trkpt>
      <trkpt lat="48.86307" lon="2.35314">
        <ele>46</ele>
        <time>2015-11-09T19:27:02Z</time>
      </trkpt>
      <trkpt lat="48.86303" lon="2.35333">
        <ele>46</ele>
        <time>2015-11-09T19:27:05Z</time>
      </trkpt>
      <trkpt lat="48.86295" lon="2.35356">
        <ele>46.400001525879</ele>
        <time>2015-11-09T19:27:08Z</time>
      </trkpt>
      <trkpt lat="48.86287" lon="2.35385">
        <ele>46.20000076294</ele>
        <time>2015-11-09T19:27:13Z</time>
      </trkpt>
      <trkpt lat="48.86282" lon="2.35408">
        <ele>46</ele>
        <time>2015-11-09T19:27:18Z</time>
      </trkpt>
      <trkpt lat="48.86269" lon="2.3541">
        <ele>46.20000076294</ele>
        <time>2015-11-09T19:27:25Z</time>
      </trkpt>
      <trkpt lat="48.86249" lon="2.354">
        <ele>46.599998474121</ele>
        <time>2015-11-09T19:27:30Z</time>
      </trkpt>
      <trkpt lat="48.86228" lon="2.35391">
        <ele>47</ele>
        <time>2015-11-09T19:27:35Z</time>
      </trkpt>
      <trkpt lat="48.8621" lon="2.3538">
        <ele>47.599998474121</ele>
        <time>2015-11-09T19:27:40Z</time>
      </trkpt>
      <trkpt lat="48.8619" lon="2.35369">
        <ele>48</ele>
        <time>2015-11-09T19:27:44Z</time>
      </trkpt>
      <trkpt lat="48.86172" lon="2.35362">
        <ele>49.79999923706</ele>
        <time>2015-11-09T19:27:47Z</time>
      </trkpt>
      <trkpt lat="48.86152" lon="2.35352">
        <ele>51.599998474121</ele>
        <time>2015-11-09T19:27:51Z</time>
      </trkpt>
      <trkpt lat="48.86149" lon="2.3535">
        <ele>52</ele>
        <time>2015-11-09T19:27:52Z</time>
      </trkpt>
      <trkpt lat="48.86139" lon="2.35365">
        <ele>52.400001525879</ele>
        <time>2015-11-09T19:27:59Z</time>
      </trkpt>
      <trkpt lat="48.86137" lon="2.35377">
        <ele>51.400001525879</ele>
        <time>2015-11-09T19:28:01Z</time>
      </trkpt>
      <trkpt lat="48.86126" lon="2.35404">
        <ele>49.400001525879</ele>
        <time>2015-11-09T19:28:05Z</time>
      </trkpt>
      <trkpt lat="48.86114" lon="2.35435">
        <ele>47.599998474121</ele>
        <time>2015-11-09T19:28:09Z</time>
      </trkpt>
      <trkpt lat="48.86104" lon="2.35458">
        <ele>46.400001525879</ele>
        <time>2015-11-09T19:28:12Z</time>
      </trkpt>
      <trkpt lat="48.86091" lon="2.35485">
        <ele>44.599998474121</ele>
        <time>2015-11-09T19:28:16Z</time>
      </trkpt>
      <trkpt lat="48.86089" lon="2.35491">
        <ele>44.400001525879</ele>
        <time>2015-11-09T19:28:17Z</time>
      </trkpt>
      <trkpt lat="48.86083" lon="2.35504">
        <ele>44.400001525879</ele>
        <time>2015-11-09T19:28:19Z</time>
      </trkpt>
      <trkpt lat="48.8607" lon="2.35533">
        <ele>45.20000076294</ele>
        <time>2015-11-09T19:28:24Z</time>
      </trkpt>
      <trkpt lat="48.86064" lon="2.35547">
        <ele>45.400001525879</ele>
        <time>2015-11-09T19:28:26Z</time>
      </trkpt>
      <trkpt lat="48.86055" lon="2.35578">
        <ele>44.79999923706</ele>
        <time>2015-11-09T19:28:30Z</time>
      </trkpt>
      <trkpt lat="48.86045" lon="2.35605">
        <ele>44.79999923706</ele>
        <time>2015-11-09T19:28:34Z</time>
      </trkpt>
      <trkpt lat="48.86038" lon="2.35618">
        <ele>44.599998474121</ele>
        <time>2015-11-09T19:28:36Z</time>
      </trkpt>
      <trkpt lat="48.86032" lon="2.35637">
        <ele>44.400001525879</ele>
        <time>2015-11-09T19:28:39Z</time>
      </trkpt>
      <trkpt lat="48.86021" lon="2.35657">
        <ele>44</ele>
        <time>2015-11-09T19:28:43Z</time>
      </trkpt>
      <trkpt lat="48.8601" lon="2.35685">
        <ele>44</ele>
        <time>2015-11-09T19:28:57Z</time>
      </trkpt>
      <trkpt lat="48.86008" lon="2.35688">
        <ele>44</ele>
        <time>2015-11-09T19:28:58Z</time>
      </trkpt>
      <trkpt lat="48.85994" lon="2.35706">
        <ele>44.20000076294</ele>
        <time>2015-11-09T19:29:03Z</time>
      </trkpt>
      <trkpt lat="48.85978" lon="2.35727">
        <ele>44</ele>
        <time>2015-11-09T19:29:08Z</time>
      </trkpt>
      <trkpt lat="48.85963" lon="2.35748">
        <ele>43.79999923706</ele>
        <time>2015-11-09T19:29:13Z</time>
      </trkpt>
      <trkpt lat="48.85948" lon="2.35771">
        <ele>43.20000076294</ele>
        <time>2015-11-09T19:29:18Z</time>
      </trkpt>
      <trkpt lat="48.85932" lon="2.35785">
        <ele>42.79999923706</ele>
        <time>2015-11-09T19:29:22Z</time>
      </trkpt>
      <trkpt lat="48.85914" lon="2.35801">
        <ele>42.400001525879</ele>
        <time>2015-11-09T19:29:27Z</time>
      </trkpt>
      <trkpt lat="48.85899" lon="2.35822">
        <ele>42.20000076294</ele>
        <time>2015-11-09T19:29:32Z</time>
      </trkpt>
      <trkpt lat="48.85884" lon="2.35839">
        <ele>42.599998474121</ele>
        <time>2015-11-09T19:29:38Z</time>
      </trkpt>
      <trkpt lat="48.8587" lon="2.35859">
        <ele>42.79999923706</ele>
        <time>2015-11-09T19:29:45Z</time>
      </trkpt>
      <trkpt lat="48.85859" lon="2.35882">
        <ele>42.400001525879</ele>
        <time>2015-11-09T19:29:50Z</time>
      </trkpt>
      <trkpt lat="48.85847" lon="2.35902">
        <ele>42.400001525879</ele>
        <time>2015-11-09T19:29:54Z</time>
      </trkpt>
      <trkpt lat="48.85833" lon="2.35921">
        <ele>42.20000076294</ele>
        <time>2015-11-09T19:29:58Z</time>
      </trkpt>
      <trkpt lat="48.8582" lon="2.35942">
        <ele>42.400001525879</ele>
        <time>2015-11-09T19:30:02Z</time>
      </trkpt>
      <trkpt lat="48.85806" lon="2.35965">
        <ele>42.400001525879</ele>
        <time>2015-11-09T19:30:06Z</time>
      </trkpt>
      <trkpt lat="48.85793" lon="2.35988">
        <ele>42.20000076294</ele>
        <time>2015-11-09T19:30:10Z</time>
      </trkpt>
      <trkpt lat="48.8578" lon="2.36015">
        <ele>41.79999923706</ele>
        <time>2015-11-09T19:30:15Z</time>
      </trkpt>
      <trkpt lat="48.85768" lon="2.36043">
        <ele>41.599998474121</ele>
        <time>2015-11-09T19:30:20Z</time>
      </trkpt>
      <trkpt lat="48.85763" lon="2.36054">
        <ele>41.599998474121</ele>
        <time>2015-11-09T19:30:22Z</time>
      </trkpt>
      <trkpt lat="48.85756" lon="2.36072">
        <ele>41.599998474121</ele>
        <time>2015-11-09T19:30:25Z</time>
      </trkpt>
      <trkpt lat="48.85747" lon="2.36098">
        <ele>42</ele>
        <time>2015-11-09T19:30:29Z</time>
      </trkpt>
      <trkpt lat="48.85737" lon="2.36124">
        <ele>42.20000076294</ele>
        <time>2015-11-09T19:30:33Z</time>
      </trkpt>
      <trkpt lat="48.85729" lon="2.3615">
        <ele>41.79999923706</ele>
        <time>2015-11-09T19:30:37Z</time>
      </trkpt>
      <trkpt lat="48.85726" lon="2.36164">
        <ele>41.599998474121</ele>
        <time>2015-11-09T19:30:39Z</time>
      </trkpt>
      <trkpt lat="48.85716" lon="2.36191">
        <ele>41</ele>
        <time>2015-11-09T19:30:44Z</time>
      </trkpt>
      <trkpt lat="48.85714" lon="2.36203">
        <ele>41.20000076294</ele>
        <time>2015-11-09T19:30:46Z</time>
      </trkpt>
      <trkpt lat="48.85705" lon="2.3623">
        <ele>42</ele>
        <time>2015-11-09T19:30:51Z</time>
      </trkpt>
      <trkpt lat="48.85702" lon="2.36244">
        <ele>42.400001525879</ele>
        <time>2015-11-09T19:30:54Z</time>
      </trkpt>
      <trkpt lat="48.85697" lon="2.36258">
        <ele>42.79999923706</ele>
        <time>2015-11-09T19:30:58Z</time>
      </trkpt>
      <trkpt lat="48.85691" lon="2.36273">
        <ele>42.599998474121</ele>
        <time>2015-11-09T19:31:02Z</time>
      </trkpt>
      <trkpt lat="48.8568" lon="2.363">
        <ele>42.20000076294</ele>
        <time>2015-11-09T19:31:07Z</time>
      </trkpt>
      <trkpt lat="48.85675" lon="2.36313">
        <ele>42</ele>
        <time>2015-11-09T19:31:09Z</time>
      </trkpt>
      <trkpt lat="48.8567" lon="2.36338">
        <ele>41.79999923706</ele>
        <time>2015-11-09T19:31:13Z</time>
      </trkpt>
      <trkpt lat="48.85665" lon="2.36364">
        <ele>41.79999923706</ele>
        <time>2015-11-09T19:31:17Z</time>
      </trkpt>
      <trkpt lat="48.85658" lon="2.36393">
        <ele>42</ele>
        <time>2015-11-09T19:31:22Z</time>
      </trkpt>
      <trkpt lat="48.85654" lon="2.36415">
        <ele>42.79999923706</ele>
        <time>2015-11-09T19:31:27Z</time>
      </trkpt>
      <trkpt lat="48.85651" lon="2.36436">
        <ele>43.20000076294</ele>
        <time>2015-11-09T19:31:31Z</time>
      </trkpt>
      <trkpt lat="48.85642" lon="2.36469">
        <ele>42.400001525879</ele>
        <time>2015-11-09T19:31:36Z</time>
      </trkpt>
      <trkpt lat="48.8563" lon="2.36497">
        <ele>40.20000076294</ele>
        <time>2015-11-09T19:31:40Z</time>
      </trkpt>
      <trkpt lat="48.85626" lon="2.36524">
        <ele>40.599998474121</ele>
        <time>2015-11-09T19:31:44Z</time>
      </trkpt>
      <trkpt lat="48.85622" lon="2.36556">
        <ele>40.599998474121</ele>
        <time>2015-11-09T19:31:48Z</time>
      </trkpt>
      <trkpt lat="48.85617" lon="2.36585">
        <ele>40.599998474121</ele>
        <time>2015-11-09T19:31:52Z</time>
      </trkpt>
      <trkpt lat="48.85617" lon="2.36599">
        <ele>40.599998474121</ele>
        <time>2015-11-09T19:31:54Z</time>
      </trkpt>
      <trkpt lat="48.85613" lon="2.36624">
        <ele>40.400001525879</ele>
        <time>2015-11-09T19:31:58Z</time>
      </trkpt>
      <trkpt lat="48.85612" lon="2.36648">
        <ele>40.400001525879</ele>
        <time>2015-11-09T19:32:03Z</time>
      </trkpt>
      <trkpt lat="48.85605" lon="2.36647">
        <ele>40</ele>
        <time>2015-11-09T19:32:07Z</time>
      </trkpt>
      <trkpt lat="48.85585" lon="2.3664">
        <ele>40</ele>
        <time>2015-11-09T19:32:12Z</time>
      </trkpt>
      <trkpt lat="48.85579" lon="2.36639">
        <ele>40</ele>
        <time>2015-11-09T19:32:13Z</time>
      </trkpt>
      <trkpt lat="48.8556" lon="2.36632">
        <ele>40.599998474121</ele>
        <time>2015-11-09T19:32:17Z</time>
      </trkpt>
      <trkpt lat="48.85541" lon="2.36624">
        <ele>41.20000076294</ele>
        <time>2015-11-09T19:32:20Z</time>
      </trkpt>
      <trkpt lat="48.85532" lon="2.3662">
        <ele>41.400001525879</ele>
        <time>2015-11-09T19:32:22Z</time>
      </trkpt>
      <trkpt lat="48.8552" lon="2.36614">
        <ele>41.599998474121</ele>
        <time>2015-11-09T19:32:25Z</time>
      </trkpt>
      <trkpt lat="48.85514" lon="2.36589">
        <ele>40.599998474121</ele>
        <time>2015-11-09T19:32:30Z</time>
      </trkpt>
      <trkpt lat="48.85515" lon="2.36583">
        <ele>40.20000076294</ele>
        <time>2015-11-09T19:32:31Z</time>
      </trkpt>
      <trkpt lat="48.85516" lon="2.3656">
        <ele>40.400001525879</ele>
        <time>2015-11-09T19:32:35Z</time>
      </trkpt>
      <trkpt lat="48.85517" lon="2.36545">
        <ele>40.599998474121</ele>
        <time>2015-11-09T19:32:38Z</time>
      </trkpt>
      <trkpt lat="48.85506" lon="2.36528">
        <ele>41.20000076294</ele>
        <time>2015-11-09T19:32:45Z</time>
      </trkpt>
      <trkpt lat="48.85503" lon="2.36527">
        <ele>41.400001525879</ele>
        <time>2015-11-09T19:32:46Z</time>
      </trkpt>
      <trkpt lat="48.85486" lon="2.3652">
        <ele>42</ele>
        <time>2015-11-09T19:32:50Z</time>
      </trkpt>
      <trkpt lat="48.85467" lon="2.36514">
        <ele>42.79999923706</ele>
        <time>2015-11-09T19:32:53Z</time>
      </trkpt>
      <trkpt lat="48.85446" lon="2.36506">
        <ele>43.599998474121</ele>
        <time>2015-11-09T19:32:57Z</time>
      </trkpt>
      <trkpt lat="48.85427" lon="2.36499">
        <ele>44</ele>
        <time>2015-11-09T19:33:01Z</time>
      </trkpt>
      <trkpt lat="48.85423" lon="2.36498">
        <ele>44</ele>
        <time>2015-11-09T19:33:02Z</time>
      </trkpt>
      <trkpt lat="48.85403" lon="2.36498">
        <ele>44</ele>
        <time>2015-11-09T19:33:04Z</time>
      </trkpt>
      <trkpt lat="48.85386" lon="2.36494">
        <ele>44.20000076294</ele>
        <time>2015-11-09T19:33:08Z</time>
      </trkpt>
      <trkpt lat="48.85384" lon="2.36486">
        <ele>44.400001525879</ele>
        <time>2015-11-09T19:33:11Z</time>
      </trkpt>
      <trkpt lat="48.85376" lon="2.36469">
        <ele>45</ele>
        <time>2015-11-09T19:33:16Z</time>
      </trkpt>
      <trkpt lat="48.85371" lon="2.36462">
        <ele>45.20000076294</ele>
        <time>2015-11-09T19:33:19Z</time>
      </trkpt>
      <trkpt lat="48.85357" lon="2.3645">
        <ele>45.79999923706</ele>
        <time>2015-11-09T19:33:26Z</time>
      </trkpt>
      <trkpt lat="48.85343" lon="2.36426">
        <ele>46.20000076294</ele>
        <time>2015-11-09T19:33:32Z</time>
      </trkpt>
      <trkpt lat="48.8533" lon="2.36407">
        <ele>45.599998474121</ele>
        <time>2015-11-09T19:33:37Z</time>
      </trkpt>
      <trkpt lat="48.85315" lon="2.36387">
        <ele>44.20000076294</ele>
        <time>2015-11-09T19:33:42Z</time>
      </trkpt>
      <trkpt lat="48.85301" lon="2.36368">
        <ele>42.79999923706</ele>
        <time>2015-11-09T19:33:47Z</time>
      </trkpt>
      <trkpt lat="48.85285" lon="2.36352">
        <ele>41.400001525879</ele>
        <time>2015-11-09T19:33:52Z</time>
      </trkpt>
      <trkpt lat="48.85269" lon="2.36334">
        <ele>40.400001525879</ele>
        <time>2015-11-09T19:33:57Z</time>
      </trkpt>
      <trkpt lat="48.85255" lon="2.36314">
        <ele>40.20000076294</ele>
        <time>2015-11-09T19:34:02Z</time>
      </trkpt>
      <trkpt lat="48.85238" lon="2.36293">
        <ele>40.599998474121</ele>
        <time>2015-11-09T19:34:07Z</time>
      </trkpt>
      <trkpt lat="48.85219" lon="2.36279">
        <ele>40.79999923706</ele>
        <time>2015-11-09T19:34:12Z</time>
      </trkpt>
      <trkpt lat="48.85208" lon="2.3628">
        <ele>41.20000076294</ele>
        <time>2015-11-09T19:34:15Z</time>
      </trkpt>
      <trkpt lat="48.85193" lon="2.363">
        <ele>42.79999923706</ele>
        <time>2015-11-09T19:34:21Z</time>
      </trkpt>
      <trkpt lat="48.8519" lon="2.36301">
        <ele>42.79999923706</ele>
        <time>2015-11-09T19:34:22Z</time>
      </trkpt>
      <trkpt lat="48.85174" lon="2.36283">
        <ele>41.79999923706</ele>
        <time>2015-11-09T19:34:28Z</time>
      </trkpt>
      <trkpt lat="48.85159" lon="2.36264">
        <ele>40.599998474121</ele>
        <time>2015-11-09T19:34:33Z</time>
      </trkpt>
      <trkpt lat="48.85145" lon="2.36242">
        <ele>39.20000076294</ele>
        <time>2015-11-09T19:34:40Z</time>
      </trkpt>
      <trkpt lat="48.85141" lon="2.36239">
        <ele>39</ele>
        <time>2015-11-09T19:34:42Z</time>
      </trkpt>
      <trkpt lat="48.8513" lon="2.36253">
        <ele>39</ele>
        <time>2015-11-09T19:34:49Z</time>
      </trkpt>
      <trkpt lat="48.85129" lon="2.36256">
        <ele>39.20000076294</ele>
        <time>2015-11-09T19:34:52Z</time>
      </trkpt>
      <trkpt lat="48.85114" lon="2.36255">
        <ele>38.599998474121</ele>
        <time>2015-11-09T19:35:36Z</time>
      </trkpt>
      <trkpt lat="48.85109" lon="2.36252">
        <ele>38.20000076294</ele>
        <time>2015-11-09T19:35:39Z</time>
      </trkpt>
      <trkpt lat="48.85094" lon="2.36234">
        <ele>38</ele>
        <time>2015-11-09T19:35:47Z</time>
      </trkpt>
      <trkpt lat="48.85079" lon="2.3625">
        <ele>37.400001525879</ele>
        <time>2015-11-09T19:35:53Z</time>
      </trkpt>
      <trkpt lat="48.85076" lon="2.36254">
        <ele>37.400001525879</ele>
        <time>2015-11-09T19:35:54Z</time>
      </trkpt>
      <trkpt lat="48.85059" lon="2.36276">
        <ele>37.20000076294</ele>
        <time>2015-11-09T19:35:59Z</time>
      </trkpt>
      <trkpt lat="48.85045" lon="2.36294">
        <ele>36.599998474121</ele>
        <time>2015-11-09T19:36:03Z</time>
      </trkpt>
      <trkpt lat="48.85031" lon="2.36311">
        <ele>35.599998474121</ele>
        <time>2015-11-09T19:36:07Z</time>
      </trkpt>
      <trkpt lat="48.85016" lon="2.36328">
        <ele>35.400001525879</ele>
        <time>2015-11-09T19:36:11Z</time>
      </trkpt>
      <trkpt lat="48.84999" lon="2.36348">
        <ele>37.20000076294</ele>
        <time>2015-11-09T19:36:16Z</time>
      </trkpt>
      <trkpt lat="48.84983" lon="2.36363">
        <ele>38.79999923706</ele>
        <time>2015-11-09T19:36:20Z</time>
      </trkpt>
      <trkpt lat="48.84967" lon="2.36378">
        <ele>39.599998474121</ele>
        <time>2015-11-09T19:36:24Z</time>
      </trkpt>
      <trkpt lat="48.84949" lon="2.36397">
        <ele>39.79999923706</ele>
        <time>2015-11-09T19:36:29Z</time>
      </trkpt>
      <trkpt lat="48.84935" lon="2.3641">
        <ele>39.79999923706</ele>
        <time>2015-11-09T19:36:33Z</time>
      </trkpt>
      <trkpt lat="48.84916" lon="2.36422">
        <ele>40.20000076294</ele>
        <time>2015-11-09T19:36:38Z</time>
      </trkpt>
      <trkpt lat="48.849" lon="2.36435">
        <ele>40.79999923706</ele>
        <time>2015-11-09T19:36:43Z</time>
      </trkpt>
      <trkpt lat="48.84884" lon="2.36451">
        <ele>41.400001525879</ele>
        <time>2015-11-09T19:36:49Z</time>
      </trkpt>
      <trkpt lat="48.84863" lon="2.36462">
        <ele>41.599998474121</ele>
        <time>2015-11-09T19:36:57Z</time>
      </trkpt>
      <trkpt lat="48.84844" lon="2.36471">
        <ele>41.400001525879</ele>
        <time>2015-11-09T19:37:01Z</time>
      </trkpt>
      <trkpt lat="48.84839" lon="2.36476">
        <ele>41.400001525879</ele>
        <time>2015-11-09T19:37:03Z</time>
      </trkpt>
      <trkpt lat="48.84818" lon="2.3648">
        <ele>41</ele>
        <time>2015-11-09T19:37:13Z</time>
      </trkpt>
      <trkpt lat="48.848" lon="2.36488">
        <ele>41</ele>
        <time>2015-11-09T19:37:16Z</time>
      </trkpt>
      <trkpt lat="48.84783" lon="2.36501">
        <ele>41.20000076294</ele>
        <time>2015-11-09T19:37:20Z</time>
      </trkpt>
      <trkpt lat="48.84771" lon="2.36522">
        <ele>37.599998474121</ele>
        <time>2015-11-09T19:37:24Z</time>
      </trkpt>
      <trkpt lat="48.84758" lon="2.36545">
        <ele>33.599998474121</ele>
        <time>2015-11-09T19:37:29Z</time>
      </trkpt>
      <trkpt lat="48.84745" lon="2.36566">
        <ele>31.200000762939</ele>
        <time>2015-11-09T19:37:34Z</time>
      </trkpt>
      <trkpt lat="48.8473" lon="2.36585">
        <ele>31.39999961853</ele>
        <time>2015-11-09T19:37:39Z</time>
      </trkpt>
      <trkpt lat="48.84716" lon="2.36607">
        <ele>30.799999237061</ele>
        <time>2015-11-09T19:37:44Z</time>
      </trkpt>
      <trkpt lat="48.847" lon="2.36628">
        <ele>34.20000076294</ele>
        <time>2015-11-09T19:37:49Z</time>
      </trkpt>
      <trkpt lat="48.84685" lon="2.36646">
        <ele>36.79999923706</ele>
        <time>2015-11-09T19:37:54Z</time>
      </trkpt>
      <trkpt lat="48.84671" lon="2.36662">
        <ele>37.400001525879</ele>
        <time>2015-11-09T19:37:59Z</time>
      </trkpt>
      <trkpt lat="48.84653" lon="2.36682">
        <ele>38.20000076294</ele>
        <time>2015-11-09T19:38:04Z</time>
      </trkpt>
      <trkpt lat="48.84636" lon="2.36703">
        <ele>39.400001525879</ele>
        <time>2015-11-09T19:38:09Z</time>
      </trkpt>
      <trkpt lat="48.84621" lon="2.36723">
        <ele>42</ele>
        <time>2015-11-09T19:38:13Z</time>
      </trkpt>
      <trkpt lat="48.84606" lon="2.3674">
        <ele>44.20000076294</ele>
        <time>2015-11-09T19:38:17Z</time>
      </trkpt>
      <trkpt lat="48.84595" lon="2.36757">
        <ele>44.400001525879</ele>
        <time>2015-11-09T19:38:21Z</time>
      </trkpt>
      <trkpt lat="48.84592" lon="2.36767">
        <ele>44.20000076294</ele>
        <time>2015-11-09T19:38:23Z</time>
      </trkpt>
      <trkpt lat="48.84577" lon="2.3679">
        <ele>43.400001525879</ele>
        <time>2015-11-09T19:38:29Z</time>
      </trkpt>
      <trkpt lat="48.84571" lon="2.36798">
        <ele>43.20000076294</ele>
        <time>2015-11-09T19:38:31Z</time>
      </trkpt>
      <trkpt lat="48.8456" lon="2.36811">
        <ele>43.599998474121</ele>
        <time>2015-11-09T19:38:34Z</time>
      </trkpt>
      <trkpt lat="48.84545" lon="2.36832">
        <ele>44.599998474121</ele>
        <time>2015-11-09T19:38:39Z</time>
      </trkpt>
      <trkpt lat="48.84538" lon="2.36839">
        <ele>44</ele>
        <time>2015-11-09T19:38:43Z</time>
      </trkpt>
      <trkpt lat="48.84525" lon="2.36856">
        <ele>42.79999923706</ele>
        <time>2015-11-09T19:39:05Z</time>
      </trkpt>
      <trkpt lat="48.84509" lon="2.36871">
        <ele>40</ele>
        <time>2015-11-09T19:39:11Z</time>
      </trkpt>
      <trkpt lat="48.84494" lon="2.36892">
        <ele>37.20000076294</ele>
        <time>2015-11-09T19:39:16Z</time>
      </trkpt>
      <trkpt lat="48.84476" lon="2.3691">
        <ele>36.400001525879</ele>
        <time>2015-11-09T19:39:21Z</time>
      </trkpt>
      <trkpt lat="48.84461" lon="2.36926">
        <ele>35.20000076294</ele>
        <time>2015-11-09T19:39:27Z</time>
      </trkpt>
      <trkpt lat="48.8445" lon="2.36948">
        <ele>34.79999923706</ele>
        <time>2015-11-09T19:39:33Z</time>
      </trkpt>
      <trkpt lat="48.84434" lon="2.3697">
        <ele>34.599998474121</ele>
        <time>2015-11-09T19:39:38Z</time>
      </trkpt>
      <trkpt lat="48.84418" lon="2.36991">
        <ele>35.20000076294</ele>
        <time>2015-11-09T19:39:43Z</time>
      </trkpt>
      <trkpt lat="48.84401" lon="2.3701">
        <ele>36</ele>
        <time>2015-11-09T19:39:48Z</time>
      </trkpt>
      <trkpt lat="48.84385" lon="2.37028">
        <ele>36.79999923706</ele>
        <time>2015-11-09T19:39:52Z</time>
      </trkpt>
      <trkpt lat="48.84372" lon="2.37049">
        <ele>38</ele>
        <time>2015-11-09T19:39:58Z</time>
      </trkpt>
      <trkpt lat="48.84377" lon="2.37075">
        <ele>38.79999923706</ele>
        <time>2015-11-09T19:40:05Z</time>
      </trkpt>
      <trkpt lat="48.84378" lon="2.3708">
        <ele>38.79999923706</ele>
        <time>2015-11-09T19:40:07Z</time>
      </trkpt>
      <trkpt lat="48.84364" lon="2.37096">
        <ele>40.20000076294</ele>
        <time>2015-11-09T19:40:17Z</time>
      </trkpt>
      <trkpt lat="48.84362" lon="2.37098">
        <ele>40.400001525879</ele>
        <time>2015-11-09T19:40:20Z</time>
      </trkpt>
      <trkpt lat="48.84344" lon="2.37109">
        <ele>39.599998474121</ele>
        <time>2015-11-09T19:40:34Z</time>
      </trkpt>
      <trkpt lat="48.84328" lon="2.37124">
        <ele>38.20000076294</ele>
        <time>2015-11-09T19:40:40Z</time>
      </trkpt>
      <trkpt lat="48.84311" lon="2.3714">
        <ele>38.400001525879</ele>
        <time>2015-11-09T19:40:46Z</time>
      </trkpt>
      <trkpt lat="48.84299" lon="2.3715">
        <ele>39.20000076294</ele>
        <time>2015-11-09T19:40:51Z</time>
      </trkpt>
      <trkpt lat="48.84284" lon="2.37167">
        <ele>40.400001525879</ele>
        <time>2015-11-09T19:41:00Z</time>
      </trkpt>
      <trkpt lat="48.84266" lon="2.37185">
        <ele>40</ele>
        <time>2015-11-09T19:41:09Z</time>
      </trkpt>
      <trkpt lat="48.84252" lon="2.37206">
        <ele>39.20000076294</ele>
        <time>2015-11-09T19:41:15Z</time>
      </trkpt>
      <trkpt lat="48.8424" lon="2.37233">
        <ele>39</ele>
        <time>2015-11-09T19:41:20Z</time>
      </trkpt>
      <trkpt lat="48.84229" lon="2.3726">
        <ele>38.400001525879</ele>
        <time>2015-11-09T19:41:24Z</time>
      </trkpt>
      <trkpt lat="48.84212" lon="2.37275">
        <ele>36.599998474121</ele>
        <time>2015-11-09T19:41:28Z</time>
      </trkpt>
      <trkpt lat="48.84189" lon="2.37281">
        <ele>35.599998474121</ele>
        <time>2015-11-09T19:41:32Z</time>
      </trkpt>
      <trkpt lat="48.84171" lon="2.37292">
        <ele>35</ele>
        <time>2015-11-09T19:41:36Z</time>
      </trkpt>
      <trkpt lat="48.84158" lon="2.37312">
        <ele>35.400001525879</ele>
        <time>2015-11-09T19:41:41Z</time>
      </trkpt>
      <trkpt lat="48.84148" lon="2.37331">
        <ele>36</ele>
        <time>2015-11-09T19:41:46Z</time>
      </trkpt>
      <trkpt lat="48.84132" lon="2.37345">
        <ele>35.400001525879</ele>
        <time>2015-11-09T19:41:51Z</time>
      </trkpt>
      <trkpt lat="48.84125" lon="2.37352">
        <ele>35.20000076294</ele>
        <time>2015-11-09T19:41:53Z</time>
      </trkpt>
      <trkpt lat="48.84109" lon="2.37372">
        <ele>36</ele>
        <time>2015-11-09T19:41:59Z</time>
      </trkpt>
      <trkpt lat="48.84092" lon="2.37381">
        <ele>35.79999923706</ele>
        <time>2015-11-09T19:42:20Z</time>
      </trkpt>
      <trkpt lat="48.84077" lon="2.37398">
        <ele>36</ele>
        <time>2015-11-09T19:42:30Z</time>
      </trkpt>
      <trkpt lat="48.84061" lon="2.37416">
        <ele>36</ele>
        <time>2015-11-09T19:42:37Z</time>
      </trkpt>
      <trkpt lat="48.84045" lon="2.37434">
        <ele>36.400001525879</ele>
        <time>2015-11-09T19:42:43Z</time>
      </trkpt>
      <trkpt lat="48.8403" lon="2.37451">
        <ele>36.20000076294</ele>
        <time>2015-11-09T19:42:48Z</time>
      </trkpt>
      <trkpt lat="48.84012" lon="2.37462">
        <ele>35.599998474121</ele>
        <time>2015-11-09T19:42:53Z</time>
      </trkpt>
      <trkpt lat="48.83995" lon="2.37475">
        <ele>35.20000076294</ele>
        <time>2015-11-09T19:42:59Z</time>
      </trkpt>
      <trkpt lat="48.8398" lon="2.37493">
        <ele>34.400001525879</ele>
        <time>2015-11-09T19:43:04Z</time>
      </trkpt>
      <trkpt lat="48.83965" lon="2.37511">
        <ele>33.400001525879</ele>
        <time>2015-11-09T19:43:09Z</time>
      </trkpt>
      <trkpt lat="48.83949" lon="2.37531">
        <ele>34.599998474121</ele>
        <time>2015-11-09T19:43:14Z</time>
      </trkpt>
      <trkpt lat="48.83935" lon="2.37549">
        <ele>37.400001525879</ele>
        <time>2015-11-09T19:43:19Z</time>
      </trkpt>
      <trkpt lat="48.83919" lon="2.37567">
        <ele>40</ele>
        <time>2015-11-09T19:43:24Z</time>
      </trkpt>
      <trkpt lat="48.83906" lon="2.37591">
        <ele>39.20000076294</ele>
        <time>2015-11-09T19:43:30Z</time>
      </trkpt>
      <trkpt lat="48.83899" lon="2.37609">
        <ele>39.20000076294</ele>
        <time>2015-11-09T19:43:36Z</time>
      </trkpt>
      <trkpt lat="48.83885" lon="2.37602">
        <ele>38.20000076294</ele>
        <time>2015-11-09T19:43:58Z</time>
      </trkpt>
      <trkpt lat="48.83872" lon="2.37582">
        <ele>37</ele>
        <time>2015-11-09T19:44:05Z</time>
      </trkpt>
      <trkpt lat="48.83862" lon="2.37568">
        <ele>36.599998474121</ele>
        <time>2015-11-09T19:44:13Z</time>
      </trkpt>
      <trkpt lat="48.8385" lon="2.37588">
        <ele>36</ele>
        <time>2015-11-09T19:44:21Z</time>
      </trkpt>
      <trkpt lat="48.83837" lon="2.37596">
        <ele>36</ele>
        <time>2015-11-09T19:44:29Z</time>
      </trkpt>
      <trkpt lat="48.83834" lon="2.37596">
        <ele>36</ele>
        <time>2015-11-09T19:44:31Z</time>
      </trkpt>
      <trkpt lat="48.83823" lon="2.37605">
        <ele>36</ele>
        <time>2015-11-09T19:45:09Z</time>
      </trkpt>
      <trkpt lat="48.83808" lon="2.37627">
        <ele>36.20000076294</ele>
        <time>2015-11-09T19:45:14Z</time>
      </trkpt>
      <trkpt lat="48.83791" lon="2.37647">
        <ele>35.599998474121</ele>
        <time>2015-11-09T19:45:19Z</time>
      </trkpt>
      <trkpt lat="48.83777" lon="2.37664">
        <ele>35.20000076294</ele>
        <time>2015-11-09T19:45:23Z</time>
      </trkpt>
      <trkpt lat="48.83761" lon="2.37681">
        <ele>36.599998474121</ele>
        <time>2015-11-09T19:45:27Z</time>
      </trkpt>
      <trkpt lat="48.83746" lon="2.37696">
        <ele>38.20000076294</ele>
        <time>2015-11-09T19:45:31Z</time>
      </trkpt>
      <trkpt lat="48.83728" lon="2.37712">
        <ele>39.20000076294</ele>
        <time>2015-11-09T19:45:36Z</time>
      </trkpt>
      <trkpt lat="48.83713" lon="2.37727">
        <ele>37.400001525879</ele>
        <time>2015-11-09T19:45:41Z</time>
      </trkpt>
      <trkpt lat="48.8371" lon="2.3773">
        <ele>37.20000076294</ele>
        <time>2015-11-09T19:45:42Z</time>
      </trkpt>
      <trkpt lat="48.83694" lon="2.37748">
        <ele>35.400001525879</ele>
        <time>2015-11-09T19:45:47Z</time>
      </trkpt>
      <trkpt lat="48.83691" lon="2.37753">
        <ele>35.20000076294</ele>
        <time>2015-11-09T19:45:48Z</time>
      </trkpt>
      <trkpt lat="48.83685" lon="2.37763">
        <ele>35.599998474121</ele>
        <time>2015-11-09T19:45:50Z</time>
      </trkpt>
      <trkpt lat="48.83672" lon="2.3778">
        <ele>36.20000076294</ele>
        <time>2015-11-09T19:45:54Z</time>
      </trkpt>
      <trkpt lat="48.83653" lon="2.378">
        <ele>36.400001525879</ele>
        <time>2015-11-09T19:45:59Z</time>
      </trkpt>
      <trkpt lat="48.83638" lon="2.37819">
        <ele>35.79999923706</ele>
        <time>2015-11-09T19:46:03Z</time>
      </trkpt>
      <trkpt lat="48.83631" lon="2.3783">
        <ele>35.400001525879</ele>
        <time>2015-11-09T19:46:05Z</time>
      </trkpt>
      <trkpt lat="48.83618" lon="2.37844">
        <ele>35.599998474121</ele>
        <time>2015-11-09T19:46:08Z</time>
      </trkpt>
      <trkpt lat="48.83604" lon="2.37863">
        <ele>38.20000076294</ele>
        <time>2015-11-09T19:46:12Z</time>
      </trkpt>
      <trkpt lat="48.83601" lon="2.37867">
        <ele>39</ele>
        <time>2015-11-09T19:46:13Z</time>
      </trkpt>
      <trkpt lat="48.83591" lon="2.37877">
        <ele>41</ele>
        <time>2015-11-09T19:46:17Z</time>
      </trkpt>
      <trkpt lat="48.83587" lon="2.37879">
        <ele>41.599998474121</ele>
        <time>2015-11-09T19:46:19Z</time>
      </trkpt>
      <trkpt lat="48.83573" lon="2.37881">
        <ele>43</ele>
        <time>2015-11-09T19:46:41Z</time>
      </trkpt>
      <trkpt lat="48.83557" lon="2.3786">
        <ele>41.400001525879</ele>
        <time>2015-11-09T19:46:47Z</time>
      </trkpt>
      <trkpt lat="48.83556" lon="2.37856">
        <ele>40.79999923706</ele>
        <time>2015-11-09T19:46:48Z</time>
      </trkpt>
      <trkpt lat="48.83544" lon="2.37833">
        <ele>38.599998474121</ele>
        <time>2015-11-09T19:46:53Z</time>
      </trkpt>
      <trkpt lat="48.83531" lon="2.37809">
        <ele>38</ele>
        <time>2015-11-09T19:46:57Z</time>
      </trkpt>
      <trkpt lat="48.83516" lon="2.37783">
        <ele>37.400001525879</ele>
        <time>2015-11-09T19:47:01Z</time>
      </trkpt>
      <trkpt lat="48.83508" lon="2.37771">
        <ele>37</ele>
        <time>2015-11-09T19:47:03Z</time>
      </trkpt>
      <trkpt lat="48.83497" lon="2.37749">
        <ele>36.400001525879</ele>
        <time>2015-11-09T19:47:07Z</time>
      </trkpt>
      <trkpt lat="48.83486" lon="2.37732">
        <ele>36.599998474121</ele>
        <time>2015-11-09T19:47:14Z</time>
      </trkpt>
      <trkpt lat="48.83486" lon="2.37727">
        <ele>36.400001525879</ele>
        <time>2015-11-09T19:47:38Z</time>
      </trkpt>
      <trkpt lat="48.83473" lon="2.37709">
        <ele>36.79999923706</ele>
        <time>2015-11-09T19:47:44Z</time>
      </trkpt>
      <trkpt lat="48.83458" lon="2.37699">
        <ele>37.599998474121</ele>
        <time>2015-11-09T19:47:56Z</time>
      </trkpt>
      <trkpt lat="48.83448" lon="2.37698">
        <ele>38</ele>
        <time>2015-11-09T19:48:02Z</time>
      </trkpt>
      <trkpt lat="48.8345" lon="2.37694">
        <ele>37.79999923706</ele>
        <time>2015-11-09T19:48:39Z</time>
      </trkpt>
      <trkpt lat="48.83459" lon="2.37679">
        <ele>37.20000076294</ele>
        <time>2015-11-09T19:48:49Z</time>
      </trkpt>
      <trkpt lat="48.83472" lon="2.3766">
        <ele>35.79999923706</ele>
        <time>2015-11-09T19:49:00Z</time>
      </trkpt>
      <trkpt lat="48.83473" lon="2.37659">
        <ele>35.79999923706</ele>
        <time>2015-11-09T19:49:02Z</time>
      </trkpt>
      <trkpt lat="48.83483" lon="2.37638">
        <ele>34</ele>
        <time>2015-11-09T19:49:14Z</time>
      </trkpt>
      <trkpt lat="48.83501" lon="2.37616">
        <ele>34.599998474121</ele>
        <time>2015-11-09T19:49:19Z</time>
      </trkpt>
      <trkpt lat="48.83516" lon="2.37595">
        <ele>36.20000076294</ele>
        <time>2015-11-09T19:49:23Z</time>
      </trkpt>
      <trkpt lat="48.83531" lon="2.37574">
        <ele>37</ele>
        <time>2015-11-09T19:49:27Z</time>
      </trkpt>
      <trkpt lat="48.83545" lon="2.37553">
        <ele>37</ele>
        <time>2015-11-09T19:49:31Z</time>
      </trkpt>
      <trkpt lat="48.8356" lon="2.37533">
        <ele>37.20000076294</ele>
        <time>2015-11-09T19:49:36Z</time>
      </trkpt>
      <trkpt lat="48.83573" lon="2.37508">
        <ele>40.20000076294</ele>
        <time>2015-11-09T19:49:41Z</time>
      </trkpt>
      <trkpt lat="48.8359" lon="2.37491">
        <ele>42.599998474121</ele>
        <time>2015-11-09T19:49:45Z</time>
      </trkpt>
      <trkpt lat="48.83609" lon="2.37475">
        <ele>42.599998474121</ele>
        <time>2015-11-09T19:49:49Z</time>
      </trkpt>
      <trkpt lat="48.83627" lon="2.37458">
        <ele>42</ele>
        <time>2015-11-09T19:49:53Z</time>
      </trkpt>
      <trkpt lat="48.83643" lon="2.37441">
        <ele>41.79999923706</ele>
        <time>2015-11-09T19:49:57Z</time>
      </trkpt>
      <trkpt lat="48.83651" lon="2.37434">
        <ele>42</ele>
        <time>2015-11-09T19:49:59Z</time>
      </trkpt>
      <trkpt lat="48.83667" lon="2.3742">
        <ele>42.599998474121</ele>
        <time>2015-11-09T19:50:03Z</time>
      </trkpt>
      <trkpt lat="48.83684" lon="2.37406">
        <ele>42.599998474121</ele>
        <time>2015-11-09T19:50:07Z</time>
      </trkpt>
      <trkpt lat="48.83688" lon="2.37403">
        <ele>42.79999923706</ele>
        <time>2015-11-09T19:50:08Z</time>
      </trkpt>
      <trkpt lat="48.83707" lon="2.37388">
        <ele>41.79999923706</ele>
        <time>2015-11-09T19:50:13Z</time>
      </trkpt>
      <trkpt lat="48.83713" lon="2.37384">
        <ele>41.400001525879</ele>
        <time>2015-11-09T19:50:15Z</time>
      </trkpt>
      <trkpt lat="48.83727" lon="2.37373">
        <ele>40.599998474121</ele>
        <time>2015-11-09T19:50:21Z</time>
      </trkpt>
      <trkpt lat="48.83744" lon="2.37355">
        <ele>39.599998474121</ele>
        <time>2015-11-09T19:50:28Z</time>
      </trkpt>
      <trkpt lat="48.83763" lon="2.37339">
        <ele>38.599998474121</ele>
        <time>2015-11-09T19:50:33Z</time>
      </trkpt>
      <trkpt lat="48.83779" lon="2.3732">
        <ele>37.400001525879</ele>
        <time>2015-11-09T19:50:37Z</time>
      </trkpt>
      <trkpt lat="48.83798" lon="2.37299">
        <ele>35.79999923706</ele>
        <time>2015-11-09T19:50:41Z</time>
      </trkpt>
      <trkpt lat="48.83813" lon="2.37283">
        <ele>34.599998474121</ele>
        <time>2015-11-09T19:50:44Z</time>
      </trkpt>
      <trkpt lat="48.83827" lon="2.37266">
        <ele>34.20000076294</ele>
        <time>2015-11-09T19:50:47Z</time>
      </trkpt>
      <trkpt lat="48.83844" lon="2.37243">
        <ele>33.400001525879</ele>
        <time>2015-11-09T19:50:51Z</time>
      </trkpt>
      <trkpt lat="48.8386" lon="2.37219">
        <ele>32.400001525879</ele>
        <time>2015-11-09T19:50:55Z</time>
      </trkpt>
      <trkpt lat="48.83873" lon="2.372">
        <ele>32</ele>
        <time>2015-11-09T19:50:58Z</time>
      </trkpt>
      <trkpt lat="48.83888" lon="2.37177">
        <ele>32.20000076294</ele>
        <time>2015-11-09T19:51:01Z</time>
      </trkpt>
      <trkpt lat="48.83903" lon="2.37153">
        <ele>32.79999923706</ele>
        <time>2015-11-09T19:51:04Z</time>
      </trkpt>
      <trkpt lat="48.83919" lon="2.37128">
        <ele>33.20000076294</ele>
        <time>2015-11-09T19:51:07Z</time>
      </trkpt>
      <trkpt lat="48.83936" lon="2.37105">
        <ele>33.79999923706</ele>
        <time>2015-11-09T19:51:10Z</time>
      </trkpt>
      <trkpt lat="48.83953" lon="2.37082">
        <ele>33.79999923706</ele>
        <time>2015-11-09T19:51:13Z</time>
      </trkpt>
      <trkpt lat="48.8397" lon="2.37058">
        <ele>33.400001525879</ele>
        <time>2015-11-09T19:51:16Z</time>
      </trkpt>
      <trkpt lat="48.83988" lon="2.37034">
        <ele>33</ele>
        <time>2015-11-09T19:51:19Z</time>
      </trkpt>
      <trkpt lat="48.84007" lon="2.37009">
        <ele>33</ele>
        <time>2015-11-09T19:51:22Z</time>
      </trkpt>
      <trkpt lat="48.84025" lon="2.36984">
        <ele>33.20000076294</ele>
        <time>2015-11-09T19:51:25Z</time>
      </trkpt>
      <trkpt lat="48.84032" lon="2.36975">
        <ele>33</ele>
        <time>2015-11-09T19:51:26Z</time>
      </trkpt>
      <trkpt lat="48.84052" lon="2.36949">
        <ele>32.79999923706</ele>
        <time>2015-11-09T19:51:29Z</time>
      </trkpt>
      <trkpt lat="48.84072" lon="2.36923">
        <ele>33.599998474121</ele>
        <time>2015-11-09T19:51:32Z</time>
      </trkpt>
      <trkpt lat="48.84091" lon="2.36897">
        <ele>34.400001525879</ele>
        <time>2015-11-09T19:51:35Z</time>
      </trkpt>
      <trkpt lat="48.84109" lon="2.36871">
        <ele>35.79999923706</ele>
        <time>2015-11-09T19:51:38Z</time>
      </trkpt>
      <trkpt lat="48.84127" lon="2.36845">
        <ele>35.79999923706</ele>
        <time>2015-11-09T19:51:41Z</time>
      </trkpt>
      <trkpt lat="48.84143" lon="2.36823">
        <ele>36.599998474121</ele>
        <time>2015-11-09T19:51:44Z</time>
      </trkpt>
      <trkpt lat="48.84157" lon="2.36804">
        <ele>35.79999923706</ele>
        <time>2015-11-09T19:51:47Z</time>
      </trkpt>
      <trkpt lat="48.84171" lon="2.36788">
        <ele>35.20000076294</ele>
        <time>2015-11-09T19:51:51Z</time>
      </trkpt>
      <trkpt lat="48.84184" lon="2.36804">
        <ele>34.79999923706</ele>
        <time>2015-11-09T19:51:58Z</time>
      </trkpt>
      <trkpt lat="48.8419" lon="2.36816">
        <ele>34.79999923706</ele>
        <time>2015-11-09T19:53:27Z</time>
      </trkpt>
      <trkpt lat="48.84191" lon="2.36821">
        <ele>34.79999923706</ele>
        <time>2015-11-09T19:54:51Z</time>
      </trkpt>
      <trkpt lat="48.84192" lon="2.36823">
        <ele>34.79999923706</ele>
        <time>2015-11-09T19:54:52Z</time>
      </trkpt>
      <trkpt lat="48.84194" lon="2.36826">
        <ele>34.599998474121</ele>
        <time>2015-11-09T19:54:53Z</time>
      </trkpt>
      <trkpt lat="48.84206" lon="2.36848">
        <ele>33.79999923706</ele>
        <time>2015-11-09T19:55:00Z</time>
      </trkpt>
      <trkpt lat="48.84219" lon="2.3687">
        <ele>32</ele>
        <time>2015-11-09T19:55:06Z</time>
      </trkpt>
      <trkpt lat="48.84232" lon="2.36895">
        <ele>29.799999237061</ele>
        <time>2015-11-09T19:55:12Z</time>
      </trkpt>
      <trkpt lat="48.84244" lon="2.36918">
        <ele>28.39999961853</ele>
        <time>2015-11-09T19:55:17Z</time>
      </trkpt>
      <trkpt lat="48.84257" lon="2.3694">
        <ele>29.200000762939</ele>
        <time>2015-11-09T19:55:22Z</time>
      </trkpt>
      <trkpt lat="48.84269" lon="2.36963">
        <ele>30</ele>
        <time>2015-11-09T19:55:27Z</time>
      </trkpt>
      <trkpt lat="48.84282" lon="2.36988">
        <ele>31.39999961853</ele>
        <time>2015-11-09T19:55:33Z</time>
      </trkpt>
      <trkpt lat="48.84294" lon="2.37011">
        <ele>33</ele>
        <time>2015-11-09T19:55:39Z</time>
      </trkpt>
      <trkpt lat="48.84306" lon="2.37029">
        <ele>34.599998474121</ele>
        <time>2015-11-09T19:55:47Z</time>
      </trkpt>
      <trkpt lat="48.84313" lon="2.37023">
        <ele>34.79999923706</ele>
        <time>2015-11-09T19:55:51Z</time>
      </trkpt>
      <trkpt lat="48.84321" lon="2.37012">
        <ele>35</ele>
        <time>2015-11-09T19:55:59Z</time>
      </trkpt>
      <trkpt lat="48.8433" lon="2.36998">
        <ele>35.20000076294</ele>
        <time>2015-11-09T19:56:45Z</time>
      </trkpt>
      <trkpt lat="48.84344" lon="2.36977">
        <ele>35.400001525879</ele>
        <time>2015-11-09T19:56:53Z</time>
      </trkpt>
      <trkpt lat="48.84361" lon="2.3696">
        <ele>35</ele>
        <time>2015-11-09T19:57:01Z</time>
      </trkpt>
      <trkpt lat="48.84375" lon="2.36942">
        <ele>33.79999923706</ele>
        <time>2015-11-09T19:57:10Z</time>
      </trkpt>
      <trkpt lat="48.84389" lon="2.3692">
        <ele>33.400001525879</ele>
        <time>2015-11-09T19:57:20Z</time>
      </trkpt>
      <trkpt lat="48.84399" lon="2.36897">
        <ele>33.79999923706</ele>
        <time>2015-11-09T19:57:29Z</time>
      </trkpt>
      <trkpt lat="48.84409" lon="2.3687">
        <ele>33.599998474121</ele>
        <time>2015-11-09T19:57:37Z</time>
      </trkpt>
      <trkpt lat="48.84421" lon="2.36843">
        <ele>32</ele>
        <time>2015-11-09T19:57:43Z</time>
      </trkpt>
      <trkpt lat="48.84424" lon="2.36838">
        <ele>31.799999237061</ele>
        <time>2015-11-09T19:57:44Z</time>
      </trkpt>
      <trkpt lat="48.84437" lon="2.36813">
        <ele>30.799999237061</ele>
        <time>2015-11-09T19:57:49Z</time>
      </trkpt>
      <trkpt lat="48.84452" lon="2.36788">
        <ele>32.400001525879</ele>
        <time>2015-11-09T19:57:54Z</time>
      </trkpt>
      <trkpt lat="48.84469" lon="2.36766">
        <ele>34.20000076294</ele>
        <time>2015-11-09T19:57:59Z</time>
      </trkpt>
      <trkpt lat="48.84482" lon="2.36745">
        <ele>34.599998474121</ele>
        <time>2015-11-09T19:58:03Z</time>
      </trkpt>
      <trkpt lat="48.84496" lon="2.36724">
        <ele>36.400001525879</ele>
        <time>2015-11-09T19:58:07Z</time>
      </trkpt>
      <trkpt lat="48.84512" lon="2.36701">
        <ele>36.20000076294</ele>
        <time>2015-11-09T19:58:11Z</time>
      </trkpt>
      <trkpt lat="48.8453" lon="2.36679">
        <ele>36.20000076294</ele>
        <time>2015-11-09T19:58:15Z</time>
      </trkpt>
      <trkpt lat="48.84543" lon="2.36656">
        <ele>34.599998474121</ele>
        <time>2015-11-09T19:58:19Z</time>
      </trkpt>
      <trkpt lat="48.84546" lon="2.36649">
        <ele>34</ele>
        <time>2015-11-09T19:58:20Z</time>
      </trkpt>
      <trkpt lat="48.84558" lon="2.36633">
        <ele>32.79999923706</ele>
        <time>2015-11-09T19:58:26Z</time>
      </trkpt>
      <trkpt lat="48.84571" lon="2.36618">
        <ele>32</ele>
        <time>2015-11-09T19:58:31Z</time>
      </trkpt>
      <trkpt lat="48.84582" lon="2.36608">
        <ele>31.799999237061</ele>
        <time>2015-11-09T19:58:35Z</time>
      </trkpt>
      <trkpt lat="48.84597" lon="2.36592">
        <ele>31.39999961853</ele>
        <time>2015-11-09T19:58:41Z</time>
      </trkpt>
      <trkpt lat="48.84613" lon="2.36577">
        <ele>30.799999237061</ele>
        <time>2015-11-09T19:58:48Z</time>
      </trkpt>
      <trkpt lat="48.84629" lon="2.3656">
        <ele>29.799999237061</ele>
        <time>2015-11-09T19:58:56Z</time>
      </trkpt>
      <trkpt lat="48.84646" lon="2.36544">
        <ele>28.799999237061</ele>
        <time>2015-11-09T19:59:03Z</time>
      </trkpt>
      <trkpt lat="48.84662" lon="2.36529">
        <ele>30.39999961853</ele>
        <time>2015-11-09T19:59:09Z</time>
      </trkpt>
      <trkpt lat="48.84678" lon="2.36514">
        <ele>32.599998474121</ele>
        <time>2015-11-09T19:59:15Z</time>
      </trkpt>
      <trkpt lat="48.8469" lon="2.36503">
        <ele>33.79999923706</ele>
        <time>2015-11-09T19:59:21Z</time>
      </trkpt>
      <trkpt lat="48.84706" lon="2.36493">
        <ele>35.20000076294</ele>
        <time>2015-11-09T19:59:44Z</time>
      </trkpt>
      <trkpt lat="48.84723" lon="2.36482">
        <ele>36.400001525879</ele>
        <time>2015-11-09T20:00:01Z</time>
      </trkpt>
      <trkpt lat="48.84737" lon="2.36465">
        <ele>37.20000076294</ele>
        <time>2015-11-09T20:00:08Z</time>
      </trkpt>
      <trkpt lat="48.84753" lon="2.3645">
        <ele>37.20000076294</ele>
        <time>2015-11-09T20:00:14Z</time>
      </trkpt>
      <trkpt lat="48.84767" lon="2.36432">
        <ele>36.79999923706</ele>
        <time>2015-11-09T20:00:19Z</time>
      </trkpt>
      <trkpt lat="48.8478" lon="2.36412">
        <ele>36.20000076294</ele>
        <time>2015-11-09T20:00:25Z</time>
      </trkpt>
      <trkpt lat="48.84786" lon="2.36385">
        <ele>33.79999923706</ele>
        <time>2015-11-09T20:00:32Z</time>
      </trkpt>
      <trkpt lat="48.848" lon="2.36364">
        <ele>32.400001525879</ele>
        <time>2015-11-09T20:00:38Z</time>
      </trkpt>
      <trkpt lat="48.84813" lon="2.36345">
        <ele>32.599998474121</ele>
        <time>2015-11-09T20:00:43Z</time>
      </trkpt>
      <trkpt lat="48.84827" lon="2.36323">
        <ele>33.400001525879</ele>
        <time>2015-11-09T20:00:48Z</time>
      </trkpt>
      <trkpt lat="48.84841" lon="2.36305">
        <ele>34.599998474121</ele>
        <time>2015-11-09T20:00:53Z</time>
      </trkpt>
      <trkpt lat="48.84856" lon="2.36285">
        <ele>34.79999923706</ele>
        <time>2015-11-09T20:00:58Z</time>
      </trkpt>
      <trkpt lat="48.84871" lon="2.36265">
        <ele>35.20000076294</ele>
        <time>2015-11-09T20:01:03Z</time>
      </trkpt>
      <trkpt lat="48.84887" lon="2.36246">
        <ele>36.20000076294</ele>
        <time>2015-11-09T20:01:09Z</time>
      </trkpt>
      <trkpt lat="48.84901" lon="2.36225">
        <ele>36.400001525879</ele>
        <time>2015-11-09T20:01:15Z</time>
      </trkpt>
      <trkpt lat="48.84915" lon="2.36204">
        <ele>37.79999923706</ele>
        <time>2015-11-09T20:01:21Z</time>
      </trkpt>
      <trkpt lat="48.84927" lon="2.36183">
        <ele>40</ele>
        <time>2015-11-09T20:01:26Z</time>
      </trkpt>
      <trkpt lat="48.84942" lon="2.36166">
        <ele>41.79999923706</ele>
        <time>2015-11-09T20:01:31Z</time>
      </trkpt>
      <trkpt lat="48.84959" lon="2.36145">
        <ele>39.400001525879</ele>
        <time>2015-11-09T20:01:37Z</time>
      </trkpt>
      <trkpt lat="48.84978" lon="2.36133">
        <ele>37.400001525879</ele>
        <time>2015-11-09T20:01:43Z</time>
      </trkpt>
      <trkpt lat="48.84999" lon="2.36133">
        <ele>37</ele>
        <time>2015-11-09T20:01:49Z</time>
      </trkpt>
      <trkpt lat="48.85018" lon="2.36134">
        <ele>37.599998474121</ele>
        <time>2015-11-09T20:01:54Z</time>
      </trkpt>
      <trkpt lat="48.85038" lon="2.36136">
        <ele>37</ele>
        <time>2015-11-09T20:02:00Z</time>
      </trkpt>
      <trkpt lat="48.85056" lon="2.36136">
        <ele>36.400001525879</ele>
        <time>2015-11-09T20:02:06Z</time>
      </trkpt>
      <trkpt lat="48.85063" lon="2.36131">
        <ele>36.20000076294</ele>
        <time>2015-11-09T20:02:10Z</time>
      </trkpt>
      <trkpt lat="48.85063" lon="2.36124">
        <ele>36</ele>
        <time>2015-11-09T20:02:14Z</time>
      </trkpt>
      <trkpt lat="48.85062" lon="2.36118">
        <ele>36.20000076294</ele>
        <time>2015-11-09T20:02:16Z</time>
      </trkpt>
      <trkpt lat="48.85056" lon="2.361">
        <ele>36.599998474121</ele>
        <time>2015-11-09T20:02:21Z</time>
      </trkpt>
      <trkpt lat="48.8505" lon="2.36073">
        <ele>36.599998474121</ele>
        <time>2015-11-09T20:02:27Z</time>
      </trkpt>
      <trkpt lat="48.85045" lon="2.36043">
        <ele>35.20000076294</ele>
        <time>2015-11-09T20:02:34Z</time>
      </trkpt>
      <trkpt lat="48.85042" lon="2.36014">
        <ele>34</ele>
        <time>2015-11-09T20:02:39Z</time>
      </trkpt>
      <trkpt lat="48.85036" lon="2.35983">
        <ele>35.20000076294</ele>
        <time>2015-11-09T20:02:44Z</time>
      </trkpt>
      <trkpt lat="48.85026" lon="2.35952">
        <ele>37.599998474121</ele>
        <time>2015-11-09T20:02:49Z</time>
      </trkpt>
      <trkpt lat="48.85018" lon="2.35925">
        <ele>39.400001525879</ele>
        <time>2015-11-09T20:02:53Z</time>
      </trkpt>
      <trkpt lat="48.8501" lon="2.359">
        <ele>39.400001525879</ele>
        <time>2015-11-09T20:02:57Z</time>
      </trkpt>
      <trkpt lat="48.85003" lon="2.35874">
        <ele>38.599998474121</ele>
        <time>2015-11-09T20:03:01Z</time>
      </trkpt>
      <trkpt lat="48.84995" lon="2.35847">
        <ele>37.599998474121</ele>
        <time>2015-11-09T20:03:05Z</time>
      </trkpt>
      <trkpt lat="48.84985" lon="2.3582">
        <ele>36.400001525879</ele>
        <time>2015-11-09T20:03:09Z</time>
      </trkpt>
      <trkpt lat="48.84977" lon="2.35794">
        <ele>35</ele>
        <time>2015-11-09T20:03:13Z</time>
      </trkpt>
      <trkpt lat="48.84969" lon="2.3577">
        <ele>33.599998474121</ele>
        <time>2015-11-09T20:03:17Z</time>
      </trkpt>
      <trkpt lat="48.8496" lon="2.35745">
        <ele>31.799999237061</ele>
        <time>2015-11-09T20:03:21Z</time>
      </trkpt>
      <trkpt lat="48.84952" lon="2.35719">
        <ele>31.799999237061</ele>
        <time>2015-11-09T20:03:25Z</time>
      </trkpt>
      <trkpt lat="48.84944" lon="2.35693">
        <ele>31.799999237061</ele>
        <time>2015-11-09T20:03:29Z</time>
      </trkpt>
      <trkpt lat="48.84941" lon="2.35676">
        <ele>32</ele>
        <time>2015-11-09T20:03:32Z</time>
      </trkpt>
      <trkpt lat="48.84945" lon="2.35657">
        <ele>32.20000076294</ele>
        <time>2015-11-09T20:03:36Z</time>
      </trkpt>
      <trkpt lat="48.84952" lon="2.35631">
        <ele>33</ele>
        <time>2015-11-09T20:03:41Z</time>
      </trkpt>
      <trkpt lat="48.84959" lon="2.35606">
        <ele>33.79999923706</ele>
        <time>2015-11-09T20:03:45Z</time>
      </trkpt>
      <trkpt lat="48.84968" lon="2.35577">
        <ele>34</ele>
        <time>2015-11-09T20:03:49Z</time>
      </trkpt>
      <trkpt lat="48.84978" lon="2.35546">
        <ele>36.79999923706</ele>
        <time>2015-11-09T20:03:53Z</time>
      </trkpt>
      <trkpt lat="48.84986" lon="2.35519">
        <ele>37.599998474121</ele>
        <time>2015-11-09T20:03:57Z</time>
      </trkpt>
      <trkpt lat="48.84991" lon="2.35507">
        <ele>37.400001525879</ele>
        <time>2015-11-09T20:03:59Z</time>
      </trkpt>
      <trkpt lat="48.85005" lon="2.35498">
        <ele>36</ele>
        <time>2015-11-09T20:04:03Z</time>
      </trkpt>
      <trkpt lat="48.85009" lon="2.35501">
        <ele>35.400001525879</ele>
        <time>2015-11-09T20:04:04Z</time>
      </trkpt>
      <trkpt lat="48.85025" lon="2.35515">
        <ele>33.599998474121</ele>
        <time>2015-11-09T20:04:07Z</time>
      </trkpt>
      <trkpt lat="48.85044" lon="2.35533">
        <ele>34.599998474121</ele>
        <time>2015-11-09T20:04:11Z</time>
      </trkpt>
      <trkpt lat="48.85056" lon="2.35544">
        <ele>35.20000076294</ele>
        <time>2015-11-09T20:04:14Z</time>
      </trkpt>
      <trkpt lat="48.85073" lon="2.3556">
        <ele>36</ele>
        <time>2015-11-09T20:04:19Z</time>
      </trkpt>
      <trkpt lat="48.85092" lon="2.35578">
        <ele>37</ele>
        <time>2015-11-09T20:04:24Z</time>
      </trkpt>
      <trkpt lat="48.85106" lon="2.35592">
        <ele>38.79999923706</ele>
        <time>2015-11-09T20:04:28Z</time>
      </trkpt>
      <trkpt lat="48.85113" lon="2.35596">
        <ele>39.20000076294</ele>
        <time>2015-11-09T20:04:30Z</time>
      </trkpt>
      <trkpt lat="48.85131" lon="2.35608">
        <ele>40.599998474121</ele>
        <time>2015-11-09T20:04:35Z</time>
      </trkpt>
      <trkpt lat="48.85147" lon="2.35622">
        <ele>42</ele>
        <time>2015-11-09T20:04:39Z</time>
      </trkpt>
      <trkpt lat="48.85165" lon="2.35634">
        <ele>43.400001525879</ele>
        <time>2015-11-09T20:04:43Z</time>
      </trkpt>
      <trkpt lat="48.85181" lon="2.35649">
        <ele>45</ele>
        <time>2015-11-09T20:04:47Z</time>
      </trkpt>
      <trkpt lat="48.85196" lon="2.35663">
        <ele>45.79999923706</ele>
        <time>2015-11-09T20:04:51Z</time>
      </trkpt>
      <trkpt lat="48.85215" lon="2.35682">
        <ele>44.20000076294</ele>
        <time>2015-11-09T20:04:56Z</time>
      </trkpt>
      <trkpt lat="48.85231" lon="2.35698">
        <ele>42.599998474121</ele>
        <time>2015-11-09T20:05:01Z</time>
      </trkpt>
      <trkpt lat="48.85234" lon="2.357">
        <ele>42.400001525879</ele>
        <time>2015-11-09T20:05:02Z</time>
      </trkpt>
      <trkpt lat="48.85246" lon="2.35716">
        <ele>41</ele>
        <time>2015-11-09T20:05:09Z</time>
      </trkpt>
      <trkpt lat="48.85249" lon="2.3572">
        <ele>40.599998474121</ele>
        <time>2015-11-09T20:05:11Z</time>
      </trkpt>
      <trkpt lat="48.85254" lon="2.35725">
        <ele>40</ele>
        <time>2015-11-09T20:05:13Z</time>
      </trkpt>
      <trkpt lat="48.8527" lon="2.3574">
        <ele>38.599998474121</ele>
        <time>2015-11-09T20:05:19Z</time>
      </trkpt>
      <trkpt lat="48.85287" lon="2.35756">
        <ele>38</ele>
        <time>2015-11-09T20:05:28Z</time>
      </trkpt>
      <trkpt lat="48.85304" lon="2.3577">
        <ele>37.79999923706</ele>
        <time>2015-11-09T20:05:35Z</time>
      </trkpt>
      <trkpt lat="48.85321" lon="2.35781">
        <ele>37.599998474121</ele>
        <time>2015-11-09T20:05:47Z</time>
      </trkpt>
      <trkpt lat="48.85327" lon="2.35785">
        <ele>37.599998474121</ele>
        <time>2015-11-09T20:05:52Z</time>
      </trkpt>
      <trkpt lat="48.85341" lon="2.35766">
        <ele>37.79999923706</ele>
        <time>2015-11-09T20:06:03Z</time>
      </trkpt>
      <trkpt lat="48.85343" lon="2.35761">
        <ele>37.79999923706</ele>
        <time>2015-11-09T20:06:04Z</time>
      </trkpt>
      <trkpt lat="48.85354" lon="2.35732">
        <ele>38.400001525879</ele>
        <time>2015-11-09T20:06:09Z</time>
      </trkpt>
      <trkpt lat="48.85364" lon="2.35706">
        <ele>38.599998474121</ele>
        <time>2015-11-09T20:06:13Z</time>
      </trkpt>
      <trkpt lat="48.85375" lon="2.35677">
        <ele>39.20000076294</ele>
        <time>2015-11-09T20:06:17Z</time>
      </trkpt>
      <trkpt lat="48.85387" lon="2.35646">
        <ele>39</ele>
        <time>2015-11-09T20:06:21Z</time>
      </trkpt>
      <trkpt lat="48.85389" lon="2.35637">
        <ele>38.79999923706</ele>
        <time>2015-11-09T20:06:22Z</time>
      </trkpt>
      <trkpt lat="48.85401" lon="2.35605">
        <ele>38.20000076294</ele>
        <time>2015-11-09T20:06:26Z</time>
      </trkpt>
      <trkpt lat="48.85412" lon="2.35574">
        <ele>38.20000076294</ele>
        <time>2015-11-09T20:06:30Z</time>
      </trkpt>
      <trkpt lat="48.85421" lon="2.35545">
        <ele>38.400001525879</ele>
        <time>2015-11-09T20:06:34Z</time>
      </trkpt>
      <trkpt lat="48.8543" lon="2.35519">
        <ele>36.599998474121</ele>
        <time>2015-11-09T20:06:38Z</time>
      </trkpt>
      <trkpt lat="48.85437" lon="2.35492">
        <ele>35</ele>
        <time>2015-11-09T20:06:43Z</time>
      </trkpt>
      <trkpt lat="48.85431" lon="2.35478">
        <ele>35</ele>
        <time>2015-11-09T20:06:47Z</time>
      </trkpt>
      <trkpt lat="48.85429" lon="2.35476">
        <ele>35.20000076294</ele>
        <time>2015-11-09T20:06:48Z</time>
      </trkpt>
      <trkpt lat="48.85413" lon="2.3546">
        <ele>36</ele>
        <time>2015-11-09T20:06:55Z</time>
      </trkpt>
      <trkpt lat="48.85397" lon="2.35442">
        <ele>37</ele>
        <time>2015-11-09T20:07:01Z</time>
      </trkpt>
      <trkpt lat="48.8538" lon="2.35426">
        <ele>38</ele>
        <time>2015-11-09T20:07:07Z</time>
      </trkpt>
      <trkpt lat="48.85364" lon="2.35411">
        <ele>38.79999923706</ele>
        <time>2015-11-09T20:07:13Z</time>
      </trkpt>
      <trkpt lat="48.85348" lon="2.35394">
        <ele>39.20000076294</ele>
        <time>2015-11-09T20:07:21Z</time>
      </trkpt>
      <trkpt lat="48.85343" lon="2.35384">
        <ele>39</ele>
        <time>2015-11-09T20:07:27Z</time>
      </trkpt>
      <trkpt lat="48.85327" lon="2.35372">
        <ele>39.79999923706</ele>
        <time>2015-11-09T20:07:37Z</time>
      </trkpt>
      <trkpt lat="48.85308" lon="2.35355">
        <ele>40.400001525879</ele>
        <time>2015-11-09T20:07:43Z</time>
      </trkpt>
      <trkpt lat="48.85293" lon="2.3534">
        <ele>40.599998474121</ele>
        <time>2015-11-09T20:07:49Z</time>
      </trkpt>
      <trkpt lat="48.85286" lon="2.35312">
        <ele>39.599998474121</ele>
        <time>2015-11-09T20:07:57Z</time>
      </trkpt>
      <trkpt lat="48.85277" lon="2.35287">
        <ele>38.79999923706</ele>
        <time>2015-11-09T20:08:03Z</time>
      </trkpt>
      <trkpt lat="48.85271" lon="2.35257">
        <ele>37.599998474121</ele>
        <time>2015-11-09T20:08:09Z</time>
      </trkpt>
      <trkpt lat="48.85267" lon="2.35229">
        <ele>37</ele>
        <time>2015-11-09T20:08:16Z</time>
      </trkpt>
      <trkpt lat="48.85266" lon="2.35224">
        <ele>37.20000076294</ele>
        <time>2015-11-09T20:08:19Z</time>
      </trkpt>
      <trkpt lat="48.85254" lon="2.35219">
        <ele>35.79999923706</ele>
        <time>2015-11-09T20:08:23Z</time>
      </trkpt>
      <trkpt lat="48.85237" lon="2.35208">
        <ele>33.79999923706</ele>
        <time>2015-11-09T20:08:27Z</time>
      </trkpt>
      <trkpt lat="48.85232" lon="2.35205">
        <ele>33.20000076294</ele>
        <time>2015-11-09T20:08:28Z</time>
      </trkpt>
      <trkpt lat="48.8521" lon="2.35192">
        <ele>31.39999961853</ele>
        <time>2015-11-09T20:08:32Z</time>
      </trkpt>
      <trkpt lat="48.85192" lon="2.35181">
        <ele>30</ele>
        <time>2015-11-09T20:08:35Z</time>
      </trkpt>
      <trkpt lat="48.85173" lon="2.35168">
        <ele>30.200000762939</ele>
        <time>2015-11-09T20:08:39Z</time>
      </trkpt>
      <trkpt lat="48.85161" lon="2.3516">
        <ele>31</ele>
        <time>2015-11-09T20:08:42Z</time>
      </trkpt>
      <trkpt lat="48.85144" lon="2.35149">
        <ele>32.599998474121</ele>
        <time>2015-11-09T20:08:47Z</time>
      </trkpt>
      <trkpt lat="48.85125" lon="2.35136">
        <ele>34.599998474121</ele>
        <time>2015-11-09T20:08:53Z</time>
      </trkpt>
      <trkpt lat="48.85123" lon="2.35134">
        <ele>34.79999923706</ele>
        <time>2015-11-09T20:08:54Z</time>
      </trkpt>
      <trkpt lat="48.85119" lon="2.35122">
        <ele>35.79999923706</ele>
        <time>2015-11-09T20:08:58Z</time>
      </trkpt>
      <trkpt lat="48.85124" lon="2.35099">
        <ele>36.79999923706</ele>
        <time>2015-11-09T20:09:35Z</time>
      </trkpt>
      <trkpt lat="48.85133" lon="2.35072">
        <ele>38</ele>
        <time>2015-11-09T20:09:41Z</time>
      </trkpt>
      <trkpt lat="48.85142" lon="2.35048">
        <ele>38.400001525879</ele>
        <time>2015-11-09T20:09:46Z</time>
      </trkpt>
      <trkpt lat="48.85152" lon="2.3502">
        <ele>38.79999923706</ele>
        <time>2015-11-09T20:09:51Z</time>
      </trkpt>
      <trkpt lat="48.85163" lon="2.34992">
        <ele>38.599998474121</ele>
        <time>2015-11-09T20:09:56Z</time>
      </trkpt>
      <trkpt lat="48.85173" lon="2.34965">
        <ele>38.20000076294</ele>
        <time>2015-11-09T20:10:00Z</time>
      </trkpt>
      <trkpt lat="48.85186" lon="2.34938">
        <ele>38.599998474121</ele>
        <time>2015-11-09T20:10:04Z</time>
      </trkpt>
      <trkpt lat="48.85198" lon="2.34911">
        <ele>39.20000076294</ele>
        <time>2015-11-09T20:10:08Z</time>
      </trkpt>
      <trkpt lat="48.85206" lon="2.34891">
        <ele>40.400001525879</ele>
        <time>2015-11-09T20:10:11Z</time>
      </trkpt>
      <trkpt lat="48.85217" lon="2.3487">
        <ele>41.400001525879</ele>
        <time>2015-11-09T20:10:15Z</time>
      </trkpt>
      <trkpt lat="48.8522" lon="2.34864">
        <ele>41.79999923706</ele>
        <time>2015-11-09T20:10:16Z</time>
      </trkpt>
      <trkpt lat="48.85231" lon="2.3484">
        <ele>39.20000076294</ele>
        <time>2015-11-09T20:10:21Z</time>
      </trkpt>
      <trkpt lat="48.85234" lon="2.34834">
        <ele>38.400001525879</ele>
        <time>2015-11-09T20:10:23Z</time>
      </trkpt>
      <trkpt lat="48.85245" lon="2.34838">
        <ele>37.599998474121</ele>
        <time>2015-11-09T20:10:27Z</time>
      </trkpt>
      <trkpt lat="48.85251" lon="2.34843">
        <ele>37.20000076294</ele>
        <time>2015-11-09T20:10:29Z</time>
      </trkpt>
      <trkpt lat="48.85258" lon="2.34849">
        <ele>37</ele>
        <time>2015-11-09T20:10:31Z</time>
      </trkpt>
      <trkpt lat="48.85264" lon="2.34855">
        <ele>36.79999923706</ele>
        <time>2015-11-09T20:10:33Z</time>
      </trkpt>
      <trkpt lat="48.85275" lon="2.34867">
        <ele>36.599998474121</ele>
        <time>2015-11-09T20:10:37Z</time>
      </trkpt>
      <trkpt lat="48.85293" lon="2.34879">
        <ele>38</ele>
        <time>2015-11-09T20:10:42Z</time>
      </trkpt>
      <trkpt lat="48.8531" lon="2.34888">
        <ele>39</ele>
        <time>2015-11-09T20:10:47Z</time>
      </trkpt>
      <trkpt lat="48.85329" lon="2.34897">
        <ele>40.20000076294</ele>
        <time>2015-11-09T20:10:53Z</time>
      </trkpt>
      <trkpt lat="48.85347" lon="2.34907">
        <ele>41.20000076294</ele>
        <time>2015-11-09T20:10:59Z</time>
      </trkpt>
      <trkpt lat="48.85365" lon="2.34915">
        <ele>42.400001525879</ele>
        <time>2015-11-09T20:11:05Z</time>
      </trkpt>
      <trkpt lat="48.85383" lon="2.34927">
        <ele>42.79999923706</ele>
        <time>2015-11-09T20:11:09Z</time>
      </trkpt>
      <trkpt lat="48.854" lon="2.34939">
        <ele>43.20000076294</ele>
        <time>2015-11-09T20:11:13Z</time>
      </trkpt>
      <trkpt lat="48.85419" lon="2.34954">
        <ele>43.79999923706</ele>
        <time>2015-11-09T20:11:17Z</time>
      </trkpt>
      <trkpt lat="48.8544" lon="2.3497">
        <ele>44.400001525879</ele>
        <time>2015-11-09T20:11:21Z</time>
      </trkpt>
      <trkpt lat="48.85456" lon="2.34983">
        <ele>43.599998474121</ele>
        <time>2015-11-09T20:11:24Z</time>
      </trkpt>
      <trkpt lat="48.85475" lon="2.34993">
        <ele>42.79999923706</ele>
        <time>2015-11-09T20:11:28Z</time>
      </trkpt>
      <trkpt lat="48.85493" lon="2.35007">
        <ele>41.20000076294</ele>
        <time>2015-11-09T20:11:32Z</time>
      </trkpt>
      <trkpt lat="48.85502" lon="2.35016">
        <ele>40.20000076294</ele>
        <time>2015-11-09T20:11:34Z</time>
      </trkpt>
      <trkpt lat="48.85519" lon="2.35028">
        <ele>38.599998474121</ele>
        <time>2015-11-09T20:11:38Z</time>
      </trkpt>
      <trkpt lat="48.85536" lon="2.35038">
        <ele>37</ele>
        <time>2015-11-09T20:11:42Z</time>
      </trkpt>
      <trkpt lat="48.85554" lon="2.35048">
        <ele>35.400001525879</ele>
        <time>2015-11-09T20:11:46Z</time>
      </trkpt>
      <trkpt lat="48.85561" lon="2.35052">
        <ele>34.599998474121</ele>
        <time>2015-11-09T20:11:48Z</time>
      </trkpt>
      <trkpt lat="48.8558" lon="2.35062">
        <ele>32.79999923706</ele>
        <time>2015-11-09T20:11:53Z</time>
      </trkpt>
      <trkpt lat="48.85589" lon="2.35063">
        <ele>32.400001525879</ele>
        <time>2015-11-09T20:11:56Z</time>
      </trkpt>
      <trkpt lat="48.85591" lon="2.35062">
        <ele>32.20000076294</ele>
        <time>2015-11-09T20:11:57Z</time>
      </trkpt>
      <trkpt lat="48.85602" lon="2.35047">
        <ele>32.20000076294</ele>
        <time>2015-11-09T20:12:02Z</time>
      </trkpt>
      <trkpt lat="48.8561" lon="2.35029">
        <ele>33.400001525879</ele>
        <time>2015-11-09T20:12:06Z</time>
      </trkpt>
      <trkpt lat="48.85621" lon="2.35003">
        <ele>35.79999923706</ele>
        <time>2015-11-09T20:12:11Z</time>
      </trkpt>
      <trkpt lat="48.85627" lon="2.34986">
        <ele>37.79999923706</ele>
        <time>2015-11-09T20:12:14Z</time>
      </trkpt>
      <trkpt lat="48.85638" lon="2.34958">
        <ele>42</ele>
        <time>2015-11-09T20:12:19Z</time>
      </trkpt>
      <trkpt lat="48.85639" lon="2.34953">
        <ele>42.79999923706</ele>
        <time>2015-11-09T20:12:20Z</time>
      </trkpt>
      <trkpt lat="48.85647" lon="2.34931">
        <ele>44.400001525879</ele>
        <time>2015-11-09T20:12:24Z</time>
      </trkpt>
      <trkpt lat="48.85656" lon="2.34909">
        <ele>45</ele>
        <time>2015-11-09T20:12:29Z</time>
      </trkpt>
      <trkpt lat="48.85649" lon="2.34894">
        <ele>43.20000076294</ele>
        <time>2015-11-09T20:12:41Z</time>
      </trkpt>
      <trkpt lat="48.85637" lon="2.34878">
        <ele>41</ele>
        <time>2015-11-09T20:13:19Z</time>
      </trkpt>
      <trkpt lat="48.85621" lon="2.34865">
        <ele>39.400001525879</ele>
        <time>2015-11-09T20:13:25Z</time>
      </trkpt>
      <trkpt lat="48.85603" lon="2.34853">
        <ele>37.79999923706</ele>
        <time>2015-11-09T20:13:30Z</time>
      </trkpt>
      <trkpt lat="48.85584" lon="2.34842">
        <ele>37.400001525879</ele>
        <time>2015-11-09T20:13:35Z</time>
      </trkpt>
      <trkpt lat="48.85567" lon="2.3483">
        <ele>36.79999923706</ele>
        <time>2015-11-09T20:13:39Z</time>
      </trkpt>
      <trkpt lat="48.85551" lon="2.34818">
        <ele>37</ele>
        <time>2015-11-09T20:13:43Z</time>
      </trkpt>
      <trkpt lat="48.85531" lon="2.34807">
        <ele>37.20000076294</ele>
        <time>2015-11-09T20:13:47Z</time>
      </trkpt>
      <trkpt lat="48.8551" lon="2.34797">
        <ele>38.599998474121</ele>
        <time>2015-11-09T20:13:51Z</time>
      </trkpt>
      <trkpt lat="48.85488" lon="2.34787">
        <ele>40.400001525879</ele>
        <time>2015-11-09T20:13:55Z</time>
      </trkpt>
      <trkpt lat="48.85465" lon="2.34775">
        <ele>42.400001525879</ele>
        <time>2015-11-09T20:13:59Z</time>
      </trkpt>
      <trkpt lat="48.85443" lon="2.34764">
        <ele>44.20000076294</ele>
        <time>2015-11-09T20:14:03Z</time>
      </trkpt>
      <trkpt lat="48.85423" lon="2.34754">
        <ele>42.79999923706</ele>
        <time>2015-11-09T20:14:07Z</time>
      </trkpt>
      <trkpt lat="48.85405" lon="2.34742">
        <ele>41.400001525879</ele>
        <time>2015-11-09T20:14:11Z</time>
      </trkpt>
      <trkpt lat="48.85386" lon="2.34731">
        <ele>40</ele>
        <time>2015-11-09T20:14:15Z</time>
      </trkpt>
      <trkpt lat="48.85367" lon="2.34724">
        <ele>38.79999923706</ele>
        <time>2015-11-09T20:14:19Z</time>
      </trkpt>
      <trkpt lat="48.8535" lon="2.34713">
        <ele>38.599998474121</ele>
        <time>2015-11-09T20:14:23Z</time>
      </trkpt>
      <trkpt lat="48.85335" lon="2.34701">
        <ele>40.20000076294</ele>
        <time>2015-11-09T20:14:27Z</time>
      </trkpt>
      <trkpt lat="48.85329" lon="2.34696">
        <ele>40.79999923706</ele>
        <time>2015-11-09T20:14:29Z</time>
      </trkpt>
      <trkpt lat="48.85318" lon="2.34686">
        <ele>42</ele>
        <time>2015-11-09T20:14:33Z</time>
      </trkpt>
      <trkpt lat="48.85314" lon="2.34659">
        <ele>43</ele>
        <time>2015-11-09T20:14:38Z</time>
      </trkpt>
      <trkpt lat="48.85315" lon="2.34653">
        <ele>43</ele>
        <time>2015-11-09T20:14:39Z</time>
      </trkpt>
      <trkpt lat="48.85318" lon="2.34635">
        <ele>42.599998474121</ele>
        <time>2015-11-09T20:14:42Z</time>
      </trkpt>
      <trkpt lat="48.85326" lon="2.34606">
        <ele>42.79999923706</ele>
        <time>2015-11-09T20:14:46Z</time>
      </trkpt>
      <trkpt lat="48.85328" lon="2.34599">
        <ele>42.79999923706</ele>
        <time>2015-11-09T20:14:47Z</time>
      </trkpt>
      <trkpt lat="48.85336" lon="2.34569">
        <ele>43.20000076294</ele>
        <time>2015-11-09T20:14:51Z</time>
      </trkpt>
      <trkpt lat="48.85343" lon="2.34543">
        <ele>43.599998474121</ele>
        <time>2015-11-09T20:14:54Z</time>
      </trkpt>
      <trkpt lat="48.8535" lon="2.34517">
        <ele>43.79999923706</ele>
        <time>2015-11-09T20:14:57Z</time>
      </trkpt>
      <trkpt lat="48.85358" lon="2.34486">
        <ele>44</ele>
        <time>2015-11-09T20:15:01Z</time>
      </trkpt>
      <trkpt lat="48.85365" lon="2.34466">
        <ele>43.599998474121</ele>
        <time>2015-11-09T20:15:04Z</time>
      </trkpt>
      <trkpt lat="48.85372" lon="2.34445">
        <ele>43.400001525879</ele>
        <time>2015-11-09T20:15:08Z</time>
      </trkpt>
      <trkpt lat="48.85387" lon="2.3445">
        <ele>42.79999923706</ele>
        <time>2015-11-09T20:15:12Z</time>
      </trkpt>
      <trkpt lat="48.85399" lon="2.3446">
        <ele>42.400001525879</ele>
        <time>2015-11-09T20:15:15Z</time>
      </trkpt>
      <trkpt lat="48.85415" lon="2.34475">
        <ele>41.79999923706</ele>
        <time>2015-11-09T20:15:19Z</time>
      </trkpt>
      <trkpt lat="48.85432" lon="2.34492">
        <ele>41.20000076294</ele>
        <time>2015-11-09T20:15:23Z</time>
      </trkpt>
      <trkpt lat="48.8545" lon="2.34507">
        <ele>41.79999923706</ele>
        <time>2015-11-09T20:15:27Z</time>
      </trkpt>
      <trkpt lat="48.85467" lon="2.34522">
        <ele>42.79999923706</ele>
        <time>2015-11-09T20:15:31Z</time>
      </trkpt>
      <trkpt lat="48.85483" lon="2.34536">
        <ele>44</ele>
        <time>2015-11-09T20:15:35Z</time>
      </trkpt>
      <trkpt lat="48.85496" lon="2.34549">
        <ele>44.79999923706</ele>
        <time>2015-11-09T20:15:38Z</time>
      </trkpt>
      <trkpt lat="48.85509" lon="2.34559">
        <ele>45.79999923706</ele>
        <time>2015-11-09T20:15:41Z</time>
      </trkpt>
      <trkpt lat="48.8553" lon="2.34579">
        <ele>47</ele>
        <time>2015-11-09T20:15:45Z</time>
      </trkpt>
      <trkpt lat="48.85545" lon="2.34587">
        <ele>47.20000076294</ele>
        <time>2015-11-09T20:15:48Z</time>
      </trkpt>
      <trkpt lat="48.85564" lon="2.34597">
        <ele>47.400001525879</ele>
        <time>2015-11-09T20:15:52Z</time>
      </trkpt>
      <trkpt lat="48.85586" lon="2.34612">
        <ele>47.79999923706</ele>
        <time>2015-11-09T20:15:56Z</time>
      </trkpt>
      <trkpt lat="48.85599" lon="2.3462">
        <ele>48</ele>
        <time>2015-11-09T20:15:59Z</time>
      </trkpt>
      <trkpt lat="48.85612" lon="2.34627">
        <ele>47.599998474121</ele>
        <time>2015-11-09T20:16:02Z</time>
      </trkpt>
      <trkpt lat="48.8563" lon="2.34627">
        <ele>46</ele>
        <time>2015-11-09T20:16:05Z</time>
      </trkpt>
      <trkpt lat="48.85646" lon="2.34636">
        <ele>44.599998474121</ele>
        <time>2015-11-09T20:16:09Z</time>
      </trkpt>
      <trkpt lat="48.85653" lon="2.3464">
        <ele>44</ele>
        <time>2015-11-09T20:16:11Z</time>
      </trkpt>
      <trkpt lat="48.85671" lon="2.34653">
        <ele>42.599998474121</ele>
        <time>2015-11-09T20:16:17Z</time>
      </trkpt>
      <trkpt lat="48.85689" lon="2.34664">
        <ele>41</ele>
        <time>2015-11-09T20:16:23Z</time>
      </trkpt>
      <trkpt lat="48.85705" lon="2.34675">
        <ele>40.599998474121</ele>
        <time>2015-11-09T20:16:29Z</time>
      </trkpt>
      <trkpt lat="48.85715" lon="2.3468">
        <ele>40.400001525879</ele>
        <time>2015-11-09T20:16:33Z</time>
      </trkpt>
      <trkpt lat="48.85724" lon="2.34668">
        <ele>39.400001525879</ele>
        <time>2015-11-09T20:16:39Z</time>
      </trkpt>
      <trkpt lat="48.85732" lon="2.34642">
        <ele>41.20000076294</ele>
        <time>2015-11-09T20:16:45Z</time>
      </trkpt>
      <trkpt lat="48.8574" lon="2.34617">
        <ele>43.400001525879</ele>
        <time>2015-11-09T20:16:52Z</time>
      </trkpt>
      <trkpt lat="48.85746" lon="2.34589">
        <ele>45.79999923706</ele>
        <time>2015-11-09T20:16:59Z</time>
      </trkpt>
      <trkpt lat="48.85756" lon="2.34562">
        <ele>45.599998474121</ele>
        <time>2015-11-09T20:17:06Z</time>
      </trkpt>
      <trkpt lat="48.85764" lon="2.34536">
        <ele>43.20000076294</ele>
        <time>2015-11-09T20:17:13Z</time>
      </trkpt>
      <trkpt lat="48.85773" lon="2.34507">
        <ele>40.599998474121</ele>
        <time>2015-11-09T20:17:19Z</time>
      </trkpt>
      <trkpt lat="48.85781" lon="2.3448">
        <ele>41</ele>
        <time>2015-11-09T20:17:25Z</time>
      </trkpt>
      <trkpt lat="48.85788" lon="2.34454">
        <ele>42</ele>
        <time>2015-11-09T20:17:30Z</time>
      </trkpt>
      <trkpt lat="48.85793" lon="2.34427">
        <ele>42.599998474121</ele>
        <time>2015-11-09T20:17:35Z</time>
      </trkpt>
      <trkpt lat="48.85798" lon="2.34399">
        <ele>43.20000076294</ele>
        <time>2015-11-09T20:17:40Z</time>
      </trkpt>
      <trkpt lat="48.85805" lon="2.34373">
        <ele>44.400001525879</ele>
        <time>2015-11-09T20:17:46Z</time>
      </trkpt>
      <trkpt lat="48.8581" lon="2.34343">
        <ele>47</ele>
        <time>2015-11-09T20:17:52Z</time>
      </trkpt>
      <trkpt lat="48.85817" lon="2.34314">
        <ele>49.400001525879</ele>
        <time>2015-11-09T20:17:58Z</time>
      </trkpt>
      <trkpt lat="48.85823" lon="2.34288">
        <ele>51.79999923706</ele>
        <time>2015-11-09T20:18:04Z</time>
      </trkpt>
      <trkpt lat="48.85832" lon="2.34264">
        <ele>55.79999923706</ele>
        <time>2015-11-09T20:18:11Z</time>
      </trkpt>
      <trkpt lat="48.85832" lon="2.3426">
        <ele>56.20000076294</ele>
        <time>2015-11-09T20:18:12Z</time>
      </trkpt>
      <trkpt lat="48.85821" lon="2.34238">
        <ele>55</ele>
        <time>2015-11-09T20:18:19Z</time>
      </trkpt>
      <trkpt lat="48.85806" lon="2.34223">
        <ele>51.79999923706</ele>
        <time>2015-11-09T20:18:25Z</time>
      </trkpt>
      <trkpt lat="48.85788" lon="2.34207">
        <ele>48</ele>
        <time>2015-11-09T20:18:31Z</time>
      </trkpt>
      <trkpt lat="48.85773" lon="2.34194">
        <ele>44.79999923706</ele>
        <time>2015-11-09T20:18:37Z</time>
      </trkpt>
      <trkpt lat="48.85757" lon="2.34182">
        <ele>45.400001525879</ele>
        <time>2015-11-09T20:18:44Z</time>
      </trkpt>
      <trkpt lat="48.8574" lon="2.3417">
        <ele>46</ele>
        <time>2015-11-09T20:18:51Z</time>
      </trkpt>
      <trkpt lat="48.85728" lon="2.34163">
        <ele>46.599998474121</ele>
        <time>2015-11-09T20:18:56Z</time>
      </trkpt>
      <trkpt lat="48.85727" lon="2.34143">
        <ele>44.20000076294</ele>
        <time>2015-11-09T20:19:20Z</time>
      </trkpt>
      <trkpt lat="48.8572" lon="2.34132">
        <ele>43.20000076294</ele>
        <time>2015-11-09T20:19:24Z</time>
      </trkpt>
      <trkpt lat="48.85703" lon="2.34117">
        <ele>42.599998474121</ele>
        <time>2015-11-09T20:19:31Z</time>
      </trkpt>
      <trkpt lat="48.85687" lon="2.34103">
        <ele>41.79999923706</ele>
        <time>2015-11-09T20:19:37Z</time>
      </trkpt>
      <trkpt lat="48.85671" lon="2.34089">
        <ele>40.79999923706</ele>
        <time>2015-11-09T20:19:43Z</time>
      </trkpt>
      <trkpt lat="48.85655" lon="2.34074">
        <ele>41</ele>
        <time>2015-11-09T20:19:51Z</time>
      </trkpt>
      <trkpt lat="48.85638" lon="2.3406">
        <ele>42.79999923706</ele>
        <time>2015-11-09T20:20:01Z</time>
      </trkpt>
      <trkpt lat="48.85631" lon="2.34054">
        <ele>43.400001525879</ele>
        <time>2015-11-09T20:20:06Z</time>
      </trkpt>
      <trkpt lat="48.8563" lon="2.34036">
        <ele>44.599998474121</ele>
        <time>2015-11-09T20:20:23Z</time>
      </trkpt>
      <trkpt lat="48.85632" lon="2.34035">
        <ele>44.599998474121</ele>
        <time>2015-11-09T20:20:27Z</time>
      </trkpt>
      <trkpt lat="48.85634" lon="2.34015">
        <ele>44.20000076294</ele>
        <time>2015-11-09T20:20:57Z</time>
      </trkpt>
      <trkpt lat="48.85649" lon="2.33991">
        <ele>40.20000076294</ele>
        <time>2015-11-09T20:21:02Z</time>
      </trkpt>
      <trkpt lat="48.85662" lon="2.33966">
        <ele>37.79999923706</ele>
        <time>2015-11-09T20:21:06Z</time>
      </trkpt>
      <trkpt lat="48.85675" lon="2.3394">
        <ele>38.400001525879</ele>
        <time>2015-11-09T20:21:10Z</time>
      </trkpt>
      <trkpt lat="48.85689" lon="2.33914">
        <ele>39</ele>
        <time>2015-11-09T20:21:14Z</time>
      </trkpt>
      <trkpt lat="48.85703" lon="2.33888">
        <ele>37.400001525879</ele>
        <time>2015-11-09T20:21:18Z</time>
      </trkpt>
      <trkpt lat="48.85716" lon="2.33861">
        <ele>35.79999923706</ele>
        <time>2015-11-09T20:21:22Z</time>
      </trkpt>
      <trkpt lat="48.8573" lon="2.33836">
        <ele>36.599998474121</ele>
        <time>2015-11-09T20:21:26Z</time>
      </trkpt>
      <trkpt lat="48.85743" lon="2.33808">
        <ele>36</ele>
        <time>2015-11-09T20:21:30Z</time>
      </trkpt>
      <trkpt lat="48.85747" lon="2.33802">
        <ele>35.79999923706</ele>
        <time>2015-11-09T20:21:31Z</time>
      </trkpt>
      <trkpt lat="48.85754" lon="2.33773">
        <ele>36</ele>
        <time>2015-11-09T20:21:35Z</time>
      </trkpt>
      <trkpt lat="48.85761" lon="2.33746">
        <ele>36.20000076294</ele>
        <time>2015-11-09T20:21:39Z</time>
      </trkpt>
      <trkpt lat="48.85767" lon="2.33729">
        <ele>35.599998474121</ele>
        <time>2015-11-09T20:21:42Z</time>
      </trkpt>
      <trkpt lat="48.85771" lon="2.33717">
        <ele>35.20000076294</ele>
        <time>2015-11-09T20:21:45Z</time>
      </trkpt>
      <trkpt lat="48.85775" lon="2.33716">
        <ele>34.79999923706</ele>
        <time>2015-11-09T20:21:49Z</time>
      </trkpt>
      <trkpt lat="48.85776" lon="2.33717">
        <ele>34.79999923706</ele>
        <time>2015-11-09T20:21:50Z</time>
      </trkpt>
      <trkpt lat="48.85779" lon="2.3372">
        <ele>34.599998474121</ele>
        <time>2015-11-09T20:21:54Z</time>
      </trkpt>
      <trkpt lat="48.8578" lon="2.33721">
        <ele>34.400001525879</ele>
        <time>2015-11-09T20:21:55Z</time>
      </trkpt>
      <trkpt lat="48.85799" lon="2.33732">
        <ele>33</ele>
        <time>2015-11-09T20:22:04Z</time>
      </trkpt>
      <trkpt lat="48.85802" lon="2.33733">
        <ele>33</ele>
        <time>2015-11-09T20:22:05Z</time>
      </trkpt>
      <trkpt lat="48.8582" lon="2.33743">
        <ele>31.60000038147</ele>
        <time>2015-11-09T20:22:12Z</time>
      </trkpt>
      <trkpt lat="48.85838" lon="2.33752">
        <ele>30.39999961853</ele>
        <time>2015-11-09T20:22:18Z</time>
      </trkpt>
      <trkpt lat="48.85856" lon="2.33762">
        <ele>29.39999961853</ele>
        <time>2015-11-09T20:22:24Z</time>
      </trkpt>
      <trkpt lat="48.85874" lon="2.33772">
        <ele>31.200000762939</ele>
        <time>2015-11-09T20:22:30Z</time>
      </trkpt>
      <trkpt lat="48.85892" lon="2.33779">
        <ele>33</ele>
        <time>2015-11-09T20:22:36Z</time>
      </trkpt>
      <trkpt lat="48.85909" lon="2.33783">
        <ele>34.599998474121</ele>
        <time>2015-11-09T20:22:45Z</time>
      </trkpt>
      <trkpt lat="48.85911" lon="2.33781">
        <ele>34.599998474121</ele>
        <time>2015-11-09T20:22:47Z</time>
      </trkpt>
      <trkpt lat="48.85913" lon="2.33766">
        <ele>34</ele>
        <time>2015-11-09T20:23:18Z</time>
      </trkpt>
      <trkpt lat="48.85913" lon="2.33736">
        <ele>31.60000038147</ele>
        <time>2015-11-09T20:23:25Z</time>
      </trkpt>
      <trkpt lat="48.85915" lon="2.33704">
        <ele>30</ele>
        <time>2015-11-09T20:23:30Z</time>
      </trkpt>
      <trkpt lat="48.85915" lon="2.33698">
        <ele>30</ele>
        <time>2015-11-09T20:23:31Z</time>
      </trkpt>
      <trkpt lat="48.85918" lon="2.33666">
        <ele>30.60000038147</ele>
        <time>2015-11-09T20:23:36Z</time>
      </trkpt>
      <trkpt lat="48.85924" lon="2.3364">
        <ele>31.60000038147</ele>
        <time>2015-11-09T20:23:40Z</time>
      </trkpt>
      <trkpt lat="48.85933" lon="2.33612">
        <ele>36.20000076294</ele>
        <time>2015-11-09T20:23:44Z</time>
      </trkpt>
      <trkpt lat="48.8594" lon="2.33587">
        <ele>39.79999923706</ele>
        <time>2015-11-09T20:23:48Z</time>
      </trkpt>
      <trkpt lat="48.85946" lon="2.33561">
        <ele>42</ele>
        <time>2015-11-09T20:23:52Z</time>
      </trkpt>
      <trkpt lat="48.85952" lon="2.33537">
        <ele>44.400001525879</ele>
        <time>2015-11-09T20:23:56Z</time>
      </trkpt>
      <trkpt lat="48.85959" lon="2.33508">
        <ele>47</ele>
        <time>2015-11-09T20:24:01Z</time>
      </trkpt>
      <trkpt lat="48.85961" lon="2.33502">
        <ele>47.400001525879</ele>
        <time>2015-11-09T20:24:02Z</time>
      </trkpt>
      <trkpt lat="48.85967" lon="2.33475">
        <ele>49.400001525879</ele>
        <time>2015-11-09T20:24:06Z</time>
      </trkpt>
      <trkpt lat="48.85975" lon="2.33444">
        <ele>51.20000076294</ele>
        <time>2015-11-09T20:24:11Z</time>
      </trkpt>
      <trkpt lat="48.85981" lon="2.33419">
        <ele>50.599998474121</ele>
        <time>2015-11-09T20:24:15Z</time>
      </trkpt>
      <trkpt lat="48.85988" lon="2.3339">
        <ele>48.400001525879</ele>
        <time>2015-11-09T20:24:20Z</time>
      </trkpt>
      <trkpt lat="48.85992" lon="2.33366">
        <ele>47.400001525879</ele>
        <time>2015-11-09T20:24:25Z</time>
      </trkpt>
      <trkpt lat="48.85989" lon="2.33351">
        <ele>46.79999923706</ele>
        <time>2015-11-09T20:24:29Z</time>
      </trkpt>
      <trkpt lat="48.85988" lon="2.33347">
        <ele>46.79999923706</ele>
        <time>2015-11-09T20:24:30Z</time>
      </trkpt>
      <trkpt lat="48.85987" lon="2.33354">
        <ele>46.79999923706</ele>
        <time>2015-11-09T20:24:50Z</time>
      </trkpt>
      <trkpt lat="48.85986" lon="2.33341">
        <ele>46.400001525879</ele>
        <time>2015-11-09T20:24:59Z</time>
      </trkpt>
      <trkpt lat="48.85974" lon="2.33333">
        <ele>45.79999923706</ele>
        <time>2015-11-09T20:25:03Z</time>
      </trkpt>
      <trkpt lat="48.85955" lon="2.33323">
        <ele>43.79999923706</ele>
        <time>2015-11-09T20:25:09Z</time>
      </trkpt>
      <trkpt lat="48.85937" lon="2.33314">
        <ele>42.20000076294</ele>
        <time>2015-11-09T20:25:15Z</time>
      </trkpt>
      <trkpt lat="48.85917" lon="2.33302">
        <ele>42.599998474121</ele>
        <time>2015-11-09T20:25:22Z</time>
      </trkpt>
      <trkpt lat="48.859" lon="2.33291">
        <ele>43</ele>
        <time>2015-11-09T20:25:27Z</time>
      </trkpt>
      <trkpt lat="48.85883" lon="2.33279">
        <ele>42.79999923706</ele>
        <time>2015-11-09T20:25:32Z</time>
      </trkpt>
      <trkpt lat="48.85868" lon="2.3327">
        <ele>42.400001525879</ele>
        <time>2015-11-09T20:25:39Z</time>
      </trkpt>
      <trkpt lat="48.8587" lon="2.33256">
        <ele>41.599998474121</ele>
        <time>2015-11-09T20:25:45Z</time>
      </trkpt>
      <trkpt lat="48.85871" lon="2.3325">
        <ele>41</ele>
        <time>2015-11-09T20:25:48Z</time>
      </trkpt>
      <trkpt lat="48.85873" lon="2.33223">
        <ele>41</ele>
        <time>2015-11-09T20:26:00Z</time>
      </trkpt>
      <trkpt lat="48.8588" lon="2.33197">
        <ele>40.79999923706</ele>
        <time>2015-11-09T20:26:06Z</time>
      </trkpt>
      <trkpt lat="48.85889" lon="2.33169">
        <ele>39.599998474121</ele>
        <time>2015-11-09T20:26:11Z</time>
      </trkpt>
      <trkpt lat="48.85895" lon="2.33152">
        <ele>39.400001525879</ele>
        <time>2015-11-09T20:26:14Z</time>
      </trkpt>
      <trkpt lat="48.85904" lon="2.33122">
        <ele>39.79999923706</ele>
        <time>2015-11-09T20:26:19Z</time>
      </trkpt>
      <trkpt lat="48.85912" lon="2.33096">
        <ele>40.400001525879</ele>
        <time>2015-11-09T20:26:23Z</time>
      </trkpt>
      <trkpt lat="48.8592" lon="2.33069">
        <ele>40.400001525879</ele>
        <time>2015-11-09T20:26:27Z</time>
      </trkpt>
      <trkpt lat="48.8593" lon="2.33039">
        <ele>40</ele>
        <time>2015-11-09T20:26:32Z</time>
      </trkpt>
      <trkpt lat="48.85938" lon="2.33009">
        <ele>39.79999923706</ele>
        <time>2015-11-09T20:26:37Z</time>
      </trkpt>
      <trkpt lat="48.85944" lon="2.32981">
        <ele>40.79999923706</ele>
        <time>2015-11-09T20:26:42Z</time>
      </trkpt>
      <trkpt lat="48.85949" lon="2.32966">
        <ele>41.400001525879</ele>
        <time>2015-11-09T20:26:45Z</time>
      </trkpt>
      <trkpt lat="48.85958" lon="2.32956">
        <ele>42</ele>
        <time>2015-11-09T20:26:49Z</time>
      </trkpt>
      <trkpt lat="48.85972" lon="2.3295">
        <ele>42.20000076294</ele>
        <time>2015-11-09T20:26:54Z</time>
      </trkpt>
      <trkpt lat="48.8598" lon="2.3295">
        <ele>42</ele>
        <time>2015-11-09T20:26:57Z</time>
      </trkpt>
      <trkpt lat="48.85997" lon="2.32965">
        <ele>41.20000076294</ele>
        <time>2015-11-09T20:27:05Z</time>
      </trkpt>
      <trkpt lat="48.86014" lon="2.3298">
        <ele>40.400001525879</ele>
        <time>2015-11-09T20:27:13Z</time>
      </trkpt>
      <trkpt lat="48.86032" lon="2.32995">
        <ele>40.400001525879</ele>
        <time>2015-11-09T20:27:19Z</time>
      </trkpt>
      <trkpt lat="48.8605" lon="2.33009">
        <ele>40.599998474121</ele>
        <time>2015-11-09T20:27:24Z</time>
      </trkpt>
      <trkpt lat="48.86061" lon="2.33014">
        <ele>40.79999923706</ele>
        <time>2015-11-09T20:27:27Z</time>
      </trkpt>
      <trkpt lat="48.86077" lon="2.33001">
        <ele>42.400001525879</ele>
        <time>2015-11-09T20:27:34Z</time>
      </trkpt>
      <trkpt lat="48.86079" lon="2.32993">
        <ele>42.599998474121</ele>
        <time>2015-11-09T20:27:39Z</time>
      </trkpt>
      <trkpt lat="48.86086" lon="2.32976">
        <ele>42.599998474121</ele>
        <time>2015-11-09T20:28:13Z</time>
      </trkpt>
      <trkpt lat="48.86096" lon="2.32951">
        <ele>38.599998474121</ele>
        <time>2015-11-09T20:28:18Z</time>
      </trkpt>
      <trkpt lat="48.86106" lon="2.32921">
        <ele>34</ele>
        <time>2015-11-09T20:28:23Z</time>
      </trkpt>
      <trkpt lat="48.86115" lon="2.32895">
        <ele>31.799999237061</ele>
        <time>2015-11-09T20:28:27Z</time>
      </trkpt>
      <trkpt lat="48.86124" lon="2.32868">
        <ele>30</ele>
        <time>2015-11-09T20:28:31Z</time>
      </trkpt>
      <trkpt lat="48.86133" lon="2.3284">
        <ele>29.39999961853</ele>
        <time>2015-11-09T20:28:35Z</time>
      </trkpt>
      <trkpt lat="48.86143" lon="2.32813">
        <ele>30.60000038147</ele>
        <time>2015-11-09T20:28:39Z</time>
      </trkpt>
      <trkpt lat="48.86153" lon="2.32786">
        <ele>31.60000038147</ele>
        <time>2015-11-09T20:28:43Z</time>
      </trkpt>
      <trkpt lat="48.86158" lon="2.32772">
        <ele>31.200000762939</ele>
        <time>2015-11-09T20:28:45Z</time>
      </trkpt>
      <trkpt lat="48.86167" lon="2.32744">
        <ele>30.799999237061</ele>
        <time>2015-11-09T20:28:49Z</time>
      </trkpt>
      <trkpt lat="48.86176" lon="2.32718">
        <ele>31</ele>
        <time>2015-11-09T20:28:53Z</time>
      </trkpt>
      <trkpt lat="48.86185" lon="2.32691">
        <ele>30</ele>
        <time>2015-11-09T20:28:57Z</time>
      </trkpt>
      <trkpt lat="48.86193" lon="2.32663">
        <ele>29.200000762939</ele>
        <time>2015-11-09T20:29:01Z</time>
      </trkpt>
      <trkpt lat="48.86202" lon="2.32635">
        <ele>30</ele>
        <time>2015-11-09T20:29:05Z</time>
      </trkpt>
      <trkpt lat="48.8621" lon="2.32608">
        <ele>30.60000038147</ele>
        <time>2015-11-09T20:29:09Z</time>
      </trkpt>
      <trkpt lat="48.86213" lon="2.32601">
        <ele>30.799999237061</ele>
        <time>2015-11-09T20:29:10Z</time>
      </trkpt>
      <trkpt lat="48.86218" lon="2.32588">
        <ele>30.60000038147</ele>
        <time>2015-11-09T20:29:12Z</time>
      </trkpt>
      <trkpt lat="48.86226" lon="2.32562">
        <ele>30.200000762939</ele>
        <time>2015-11-09T20:29:16Z</time>
      </trkpt>
      <trkpt lat="48.8623" lon="2.3255">
        <ele>30.200000762939</ele>
        <time>2015-11-09T20:29:18Z</time>
      </trkpt>
      <trkpt lat="48.86238" lon="2.32523">
        <ele>29.60000038147</ele>
        <time>2015-11-09T20:29:23Z</time>
      </trkpt>
      <trkpt lat="48.86238" lon="2.32519">
        <ele>29.60000038147</ele>
        <time>2015-11-09T20:29:24Z</time>
      </trkpt>
      <trkpt lat="48.86234" lon="2.32509">
        <ele>29.200000762939</ele>
        <time>2015-11-09T20:29:28Z</time>
      </trkpt>
      <trkpt lat="48.86232" lon="2.32507">
        <ele>29.200000762939</ele>
        <time>2015-11-09T20:29:29Z</time>
      </trkpt>
      <trkpt lat="48.86221" lon="2.32494">
        <ele>29</ele>
        <time>2015-11-09T20:29:34Z</time>
      </trkpt>
      <trkpt lat="48.86205" lon="2.3248">
        <ele>28.60000038147</ele>
        <time>2015-11-09T20:29:41Z</time>
      </trkpt>
      <trkpt lat="48.86189" lon="2.32468">
        <ele>28.39999961853</ele>
        <time>2015-11-09T20:29:47Z</time>
      </trkpt>
      <trkpt lat="48.86171" lon="2.32455">
        <ele>30.39999961853</ele>
        <time>2015-11-09T20:29:53Z</time>
      </trkpt>
      <trkpt lat="48.86152" lon="2.32444">
        <ele>32.599998474121</ele>
        <time>2015-11-09T20:29:59Z</time>
      </trkpt>
      <trkpt lat="48.86133" lon="2.32432">
        <ele>34.79999923706</ele>
        <time>2015-11-09T20:30:05Z</time>
      </trkpt>
      <trkpt lat="48.86118" lon="2.32418">
        <ele>36.400001525879</ele>
        <time>2015-11-09T20:30:12Z</time>
      </trkpt>
      <trkpt lat="48.86121" lon="2.32414">
        <ele>36</ele>
        <time>2015-11-09T20:30:17Z</time>
      </trkpt>
      <trkpt lat="48.86121" lon="2.32414">
        <ele>36</ele>
        <time>2015-11-09T20:30:18Z</time>
      </trkpt>
      <trkpt lat="48.86124" lon="2.32386">
        <ele>37.599998474121</ele>
        <time>2015-11-09T20:31:27Z</time>
      </trkpt>
      <trkpt lat="48.86132" lon="2.32354">
        <ele>38.79999923706</ele>
        <time>2015-11-09T20:31:32Z</time>
      </trkpt>
      <trkpt lat="48.8614" lon="2.32321">
        <ele>37.79999923706</ele>
        <time>2015-11-09T20:31:36Z</time>
      </trkpt>
      <trkpt lat="48.86149" lon="2.32287">
        <ele>35.400001525879</ele>
        <time>2015-11-09T20:31:40Z</time>
      </trkpt>
      <trkpt lat="48.86159" lon="2.32255">
        <ele>35.599998474121</ele>
        <time>2015-11-09T20:31:44Z</time>
      </trkpt>
      <trkpt lat="48.86168" lon="2.32229">
        <ele>35.599998474121</ele>
        <time>2015-11-09T20:31:48Z</time>
      </trkpt>
      <trkpt lat="48.86178" lon="2.32199">
        <ele>37</ele>
        <time>2015-11-09T20:31:53Z</time>
      </trkpt>
      <trkpt lat="48.86186" lon="2.32174">
        <ele>38.400001525879</ele>
        <time>2015-11-09T20:31:57Z</time>
      </trkpt>
      <trkpt lat="48.86192" lon="2.32148">
        <ele>39.79999923706</ele>
        <time>2015-11-09T20:32:01Z</time>
      </trkpt>
      <trkpt lat="48.86196" lon="2.32127">
        <ele>40.79999923706</ele>
        <time>2015-11-09T20:32:04Z</time>
      </trkpt>
      <trkpt lat="48.86205" lon="2.32101">
        <ele>41.400001525879</ele>
        <time>2015-11-09T20:32:08Z</time>
      </trkpt>
      <trkpt lat="48.86213" lon="2.32073">
        <ele>40.79999923706</ele>
        <time>2015-11-09T20:32:12Z</time>
      </trkpt>
      <trkpt lat="48.86218" lon="2.32058">
        <ele>39.599998474121</ele>
        <time>2015-11-09T20:32:14Z</time>
      </trkpt>
      <trkpt lat="48.86226" lon="2.32031">
        <ele>37.79999923706</ele>
        <time>2015-11-09T20:32:18Z</time>
      </trkpt>
      <trkpt lat="48.86228" lon="2.32026">
        <ele>37.599998474121</ele>
        <time>2015-11-09T20:32:19Z</time>
      </trkpt>
      <trkpt lat="48.86232" lon="2.32014">
        <ele>36.79999923706</ele>
        <time>2015-11-09T20:32:22Z</time>
      </trkpt>
      <trkpt lat="48.86242" lon="2.31987">
        <ele>34.79999923706</ele>
        <time>2015-11-09T20:32:28Z</time>
      </trkpt>
      <trkpt lat="48.86252" lon="2.31958">
        <ele>33.400001525879</ele>
        <time>2015-11-09T20:32:34Z</time>
      </trkpt>
      <trkpt lat="48.86253" lon="2.31954">
        <ele>33.400001525879</ele>
        <time>2015-11-09T20:32:35Z</time>
      </trkpt>
      <trkpt lat="48.86257" lon="2.3194">
        <ele>33.599998474121</ele>
        <time>2015-11-09T20:32:38Z</time>
      </trkpt>
      <trkpt lat="48.86266" lon="2.31919">
        <ele>33.400001525879</ele>
        <time>2015-11-09T20:32:44Z</time>
      </trkpt>
      <trkpt lat="48.86271" lon="2.31914">
        <ele>33.20000076294</ele>
        <time>2015-11-09T20:32:47Z</time>
      </trkpt>
      <trkpt lat="48.86275" lon="2.31905">
        <ele>32.79999923706</ele>
        <time>2015-11-09T20:32:51Z</time>
      </trkpt>
      <trkpt lat="48.86294" lon="2.31907">
        <ele>31.200000762939</ele>
        <time>2015-11-09T20:32:59Z</time>
      </trkpt>
      <trkpt lat="48.86297" lon="2.31908">
        <ele>30.799999237061</ele>
        <time>2015-11-09T20:33:00Z</time>
      </trkpt>
      <trkpt lat="48.86316" lon="2.31921">
        <ele>29.60000038147</ele>
        <time>2015-11-09T20:33:06Z</time>
      </trkpt>
      <trkpt lat="48.86334" lon="2.31933">
        <ele>28.39999961853</ele>
        <time>2015-11-09T20:33:12Z</time>
      </trkpt>
      <trkpt lat="48.8635" lon="2.31945">
        <ele>27.200000762939</ele>
        <time>2015-11-09T20:33:17Z</time>
      </trkpt>
      <trkpt lat="48.86368" lon="2.31959">
        <ele>27.39999961853</ele>
        <time>2015-11-09T20:33:23Z</time>
      </trkpt>
      <trkpt lat="48.86387" lon="2.31972">
        <ele>28.200000762939</ele>
        <time>2015-11-09T20:33:30Z</time>
      </trkpt>
      <trkpt lat="48.86404" lon="2.31983">
        <ele>28.799999237061</ele>
        <time>2015-11-09T20:33:37Z</time>
      </trkpt>
      <trkpt lat="48.86409" lon="2.31984">
        <ele>29</ele>
        <time>2015-11-09T20:33:40Z</time>
      </trkpt>
      <trkpt lat="48.86414" lon="2.31973">
        <ele>28.799999237061</ele>
        <time>2015-11-09T20:33:45Z</time>
      </trkpt>
      <trkpt lat="48.86422" lon="2.31949">
        <ele>28</ele>
        <time>2015-11-09T20:33:53Z</time>
      </trkpt>
      <trkpt lat="48.86431" lon="2.31925">
        <ele>27.39999961853</ele>
        <time>2015-11-09T20:33:59Z</time>
      </trkpt>
      <trkpt lat="48.86441" lon="2.31901">
        <ele>28</ele>
        <time>2015-11-09T20:34:05Z</time>
      </trkpt>
      <trkpt lat="48.8645" lon="2.31875">
        <ele>30.200000762939</ele>
        <time>2015-11-09T20:34:11Z</time>
      </trkpt>
      <trkpt lat="48.86463" lon="2.31856">
        <ele>32.400001525879</ele>
        <time>2015-11-09T20:34:17Z</time>
      </trkpt>
      <trkpt lat="48.86471" lon="2.3184">
        <ele>33</ele>
        <time>2015-11-09T20:34:24Z</time>
      </trkpt>
      <trkpt lat="48.86472" lon="2.31822">
        <ele>34.20000076294</ele>
        <time>2015-11-09T20:34:30Z</time>
      </trkpt>
      <trkpt lat="48.86472" lon="2.31817">
        <ele>34.79999923706</ele>
        <time>2015-11-09T20:34:34Z</time>
      </trkpt>
      <trkpt lat="48.86471" lon="2.31788">
        <ele>37.400001525879</ele>
        <time>2015-11-09T20:34:44Z</time>
      </trkpt>
      <trkpt lat="48.86463" lon="2.31762">
        <ele>39</ele>
        <time>2015-11-09T20:34:49Z</time>
      </trkpt>
      <trkpt lat="48.86458" lon="2.31737">
        <ele>37.599998474121</ele>
        <time>2015-11-09T20:34:53Z</time>
      </trkpt>
      <trkpt lat="48.86456" lon="2.31708">
        <ele>32.599998474121</ele>
        <time>2015-11-09T20:34:57Z</time>
      </trkpt>
      <trkpt lat="48.86452" lon="2.31676">
        <ele>27.200000762939</ele>
        <time>2015-11-09T20:35:02Z</time>
      </trkpt>
      <trkpt lat="48.86452" lon="2.31645">
        <ele>26.39999961853</ele>
        <time>2015-11-09T20:35:06Z</time>
      </trkpt>
      <trkpt lat="48.8645" lon="2.31614">
        <ele>26.39999961853</ele>
        <time>2015-11-09T20:35:10Z</time>
      </trkpt>
      <trkpt lat="48.86448" lon="2.31587">
        <ele>26.60000038147</ele>
        <time>2015-11-09T20:35:14Z</time>
      </trkpt>
      <trkpt lat="48.86447" lon="2.31565">
        <ele>27.39999961853</ele>
        <time>2015-11-09T20:35:17Z</time>
      </trkpt>
      <trkpt lat="48.86446" lon="2.31533">
        <ele>28.39999961853</ele>
        <time>2015-11-09T20:35:21Z</time>
      </trkpt>
      <trkpt lat="48.86447" lon="2.31525">
        <ele>28.799999237061</ele>
        <time>2015-11-09T20:35:22Z</time>
      </trkpt>
      <trkpt lat="48.86447" lon="2.31493">
        <ele>30.39999961853</ele>
        <time>2015-11-09T20:35:26Z</time>
      </trkpt>
      <trkpt lat="48.86447" lon="2.31479">
        <ele>30.60000038147</ele>
        <time>2015-11-09T20:35:28Z</time>
      </trkpt>
      <trkpt lat="48.86449" lon="2.31461">
        <ele>31.200000762939</ele>
        <time>2015-11-09T20:35:30Z</time>
      </trkpt>
      <trkpt lat="48.86446" lon="2.3143">
        <ele>31</ele>
        <time>2015-11-09T20:35:33Z</time>
      </trkpt>
      <trkpt lat="48.86429" lon="2.31408">
        <ele>30.60000038147</ele>
        <time>2015-11-09T20:35:43Z</time>
      </trkpt>
      <trkpt lat="48.86431" lon="2.31392">
        <ele>30.60000038147</ele>
        <time>2015-11-09T20:36:06Z</time>
      </trkpt>
      <trkpt lat="48.86425" lon="2.31388">
        <ele>30.60000038147</ele>
        <time>2015-11-09T20:36:10Z</time>
      </trkpt>
      <trkpt lat="48.86421" lon="2.31385">
        <ele>30.60000038147</ele>
        <time>2015-11-09T20:36:12Z</time>
      </trkpt>
      <trkpt lat="48.86402" lon="2.3138">
        <ele>31.200000762939</ele>
        <time>2015-11-09T20:36:19Z</time>
      </trkpt>
      <trkpt lat="48.86382" lon="2.31378">
        <ele>33</ele>
        <time>2015-11-09T20:36:25Z</time>
      </trkpt>
      <trkpt lat="48.86361" lon="2.31373">
        <ele>34.599998474121</ele>
        <time>2015-11-09T20:36:31Z</time>
      </trkpt>
      <trkpt lat="48.86342" lon="2.3137">
        <ele>35</ele>
        <time>2015-11-09T20:36:37Z</time>
      </trkpt>
      <trkpt lat="48.86321" lon="2.31367">
        <ele>35</ele>
        <time>2015-11-09T20:36:44Z</time>
      </trkpt>
      <trkpt lat="48.86301" lon="2.31364">
        <ele>34.400001525879</ele>
        <time>2015-11-09T20:36:51Z</time>
      </trkpt>
      <trkpt lat="48.86296" lon="2.31363">
        <ele>33.79999923706</ele>
        <time>2015-11-09T20:36:56Z</time>
      </trkpt>
      <trkpt lat="48.86299" lon="2.31341">
        <ele>33.400001525879</ele>
        <time>2015-11-09T20:37:46Z</time>
      </trkpt>
      <trkpt lat="48.86293" lon="2.31313">
        <ele>32.79999923706</ele>
        <time>2015-11-09T20:37:52Z</time>
      </trkpt>
      <trkpt lat="48.8629" lon="2.31284">
        <ele>32.79999923706</ele>
        <time>2015-11-09T20:37:57Z</time>
      </trkpt>
      <trkpt lat="48.8629" lon="2.31255">
        <ele>32.599998474121</ele>
        <time>2015-11-09T20:38:01Z</time>
      </trkpt>
      <trkpt lat="48.86289" lon="2.31226">
        <ele>32.599998474121</ele>
        <time>2015-11-09T20:38:05Z</time>
      </trkpt>
      <trkpt lat="48.86289" lon="2.31193">
        <ele>33</ele>
        <time>2015-11-09T20:38:09Z</time>
      </trkpt>
      <trkpt lat="48.86287" lon="2.31162">
        <ele>33.20000076294</ele>
        <time>2015-11-09T20:38:13Z</time>
      </trkpt>
      <trkpt lat="48.86283" lon="2.31134">
        <ele>35.20000076294</ele>
        <time>2015-11-09T20:38:17Z</time>
      </trkpt>
      <trkpt lat="48.86281" lon="2.31121">
        <ele>36</ele>
        <time>2015-11-09T20:38:19Z</time>
      </trkpt>
      <trkpt lat="48.86277" lon="2.31096">
        <ele>37.79999923706</ele>
        <time>2015-11-09T20:38:23Z</time>
      </trkpt>
      <trkpt lat="48.8628" lon="2.31064">
        <ele>39</ele>
        <time>2015-11-09T20:38:29Z</time>
      </trkpt>
      <trkpt lat="48.86291" lon="2.31053">
        <ele>38.599998474121</ele>
        <time>2015-11-09T20:38:34Z</time>
      </trkpt>
      <trkpt lat="48.86293" lon="2.31052">
        <ele>38.20000076294</ele>
        <time>2015-11-09T20:38:35Z</time>
      </trkpt>
      <trkpt lat="48.86313" lon="2.31048">
        <ele>36.20000076294</ele>
        <time>2015-11-09T20:38:41Z</time>
      </trkpt>
      <trkpt lat="48.86331" lon="2.31046">
        <ele>33</ele>
        <time>2015-11-09T20:38:46Z</time>
      </trkpt>
      <trkpt lat="48.86351" lon="2.31046">
        <ele>28.39999961853</ele>
        <time>2015-11-09T20:38:51Z</time>
      </trkpt>
      <trkpt lat="48.86372" lon="2.31046">
        <ele>27</ele>
        <time>2015-11-09T20:38:56Z</time>
      </trkpt>
      <trkpt lat="48.86391" lon="2.31044">
        <ele>26.39999961853</ele>
        <time>2015-11-09T20:39:00Z</time>
      </trkpt>
      <trkpt lat="48.86408" lon="2.31036">
        <ele>26.799999237061</ele>
        <time>2015-11-09T20:39:04Z</time>
      </trkpt>
      <trkpt lat="48.86423" lon="2.31031">
        <ele>27.799999237061</ele>
        <time>2015-11-09T20:39:10Z</time>
      </trkpt>
      <trkpt lat="48.86438" lon="2.31018">
        <ele>29.200000762939</ele>
        <time>2015-11-09T20:39:33Z</time>
      </trkpt>
      <trkpt lat="48.86449" lon="2.31009">
        <ele>30.60000038147</ele>
        <time>2015-11-09T20:39:37Z</time>
      </trkpt>
      <trkpt lat="48.86454" lon="2.30981">
        <ele>32</ele>
        <time>2015-11-09T20:39:42Z</time>
      </trkpt>
      <trkpt lat="48.86454" lon="2.30974">
        <ele>32</ele>
        <time>2015-11-09T20:39:43Z</time>
      </trkpt>
      <trkpt lat="48.86454" lon="2.30945">
        <ele>31.799999237061</ele>
        <time>2015-11-09T20:39:47Z</time>
      </trkpt>
      <trkpt lat="48.86452" lon="2.30913">
        <ele>31.60000038147</ele>
        <time>2015-11-09T20:39:52Z</time>
      </trkpt>
      <trkpt lat="48.86447" lon="2.30878">
        <ele>32</ele>
        <time>2015-11-09T20:39:56Z</time>
      </trkpt>
      <trkpt lat="48.86445" lon="2.30849">
        <ele>32.400001525879</ele>
        <time>2015-11-09T20:39:59Z</time>
      </trkpt>
      <trkpt lat="48.86443" lon="2.30817">
        <ele>32.400001525879</ele>
        <time>2015-11-09T20:40:03Z</time>
      </trkpt>
      <trkpt lat="48.86442" lon="2.3081">
        <ele>32.400001525879</ele>
        <time>2015-11-09T20:40:04Z</time>
      </trkpt>
      <trkpt lat="48.86439" lon="2.30778">
        <ele>32</ele>
        <time>2015-11-09T20:40:08Z</time>
      </trkpt>
      <trkpt lat="48.86437" lon="2.30749">
        <ele>32.20000076294</ele>
        <time>2015-11-09T20:40:12Z</time>
      </trkpt>
      <trkpt lat="48.86434" lon="2.30719">
        <ele>32.400001525879</ele>
        <time>2015-11-09T20:40:16Z</time>
      </trkpt>
      <trkpt lat="48.86434" lon="2.30712">
        <ele>32.599998474121</ele>
        <time>2015-11-09T20:40:17Z</time>
      </trkpt>
      <trkpt lat="48.86434" lon="2.30681">
        <ele>33.400001525879</ele>
        <time>2015-11-09T20:40:21Z</time>
      </trkpt>
      <trkpt lat="48.86436" lon="2.30653">
        <ele>33.400001525879</ele>
        <time>2015-11-09T20:40:25Z</time>
      </trkpt>
      <trkpt lat="48.86436" lon="2.30646">
        <ele>33.20000076294</ele>
        <time>2015-11-09T20:40:26Z</time>
      </trkpt>
      <trkpt lat="48.86439" lon="2.30618">
        <ele>32.79999923706</ele>
        <time>2015-11-09T20:40:30Z</time>
      </trkpt>
      <trkpt lat="48.86439" lon="2.30611">
        <ele>32.599998474121</ele>
        <time>2015-11-09T20:40:31Z</time>
      </trkpt>
      <trkpt lat="48.86441" lon="2.30583">
        <ele>32.20000076294</ele>
        <time>2015-11-09T20:40:35Z</time>
      </trkpt>
      <trkpt lat="48.86441" lon="2.30578">
        <ele>32.20000076294</ele>
        <time>2015-11-09T20:40:36Z</time>
      </trkpt>
      <trkpt lat="48.8644" lon="2.30549">
        <ele>31.799999237061</ele>
        <time>2015-11-09T20:40:40Z</time>
      </trkpt>
      <trkpt lat="48.8644" lon="2.30526">
        <ele>31.39999961853</ele>
        <time>2015-11-09T20:40:43Z</time>
      </trkpt>
      <trkpt lat="48.8644" lon="2.30498">
        <ele>31</ele>
        <time>2015-11-09T20:40:46Z</time>
      </trkpt>
      <trkpt lat="48.86438" lon="2.3048">
        <ele>31.39999961853</ele>
        <time>2015-11-09T20:40:48Z</time>
      </trkpt>
      <trkpt lat="48.86434" lon="2.30448">
        <ele>31.799999237061</ele>
        <time>2015-11-09T20:40:52Z</time>
      </trkpt>
      <trkpt lat="48.86429" lon="2.30415">
        <ele>32.20000076294</ele>
        <time>2015-11-09T20:40:56Z</time>
      </trkpt>
      <trkpt lat="48.86425" lon="2.30389">
        <ele>31.799999237061</ele>
        <time>2015-11-09T20:41:00Z</time>
      </trkpt>
      <trkpt lat="48.86424" lon="2.30382">
        <ele>31.799999237061</ele>
        <time>2015-11-09T20:41:01Z</time>
      </trkpt>
      <trkpt lat="48.86421" lon="2.30356">
        <ele>31.200000762939</ele>
        <time>2015-11-09T20:41:05Z</time>
      </trkpt>
      <trkpt lat="48.86418" lon="2.30324">
        <ele>30.799999237061</ele>
        <time>2015-11-09T20:41:10Z</time>
      </trkpt>
      <trkpt lat="48.86418" lon="2.30297">
        <ele>30.799999237061</ele>
        <time>2015-11-09T20:41:14Z</time>
      </trkpt>
      <trkpt lat="48.86417" lon="2.30269">
        <ele>29.799999237061</ele>
        <time>2015-11-09T20:41:18Z</time>
      </trkpt>
      <trkpt lat="48.86416" lon="2.30239">
        <ele>28.799999237061</ele>
        <time>2015-11-09T20:41:23Z</time>
      </trkpt>
      <trkpt lat="48.86413" lon="2.30211">
        <ele>27.799999237061</ele>
        <time>2015-11-09T20:41:29Z</time>
      </trkpt>
      <trkpt lat="48.8641" lon="2.302">
        <ele>27.200000762939</ele>
        <time>2015-11-09T20:41:33Z</time>
      </trkpt>
      <trkpt lat="48.86404" lon="2.30182">
        <ele>26.39999961853</ele>
        <time>2015-11-09T20:42:04Z</time>
      </trkpt>
      <trkpt lat="48.86402" lon="2.30154">
        <ele>25.60000038147</ele>
        <time>2015-11-09T20:42:13Z</time>
      </trkpt>
      <trkpt lat="48.86397" lon="2.30148">
        <ele>25.799999237061</ele>
        <time>2015-11-09T20:42:16Z</time>
      </trkpt>
      <trkpt lat="48.86383" lon="2.30146">
        <ele>26.39999961853</ele>
        <time>2015-11-09T20:42:45Z</time>
      </trkpt>
      <trkpt lat="48.86362" lon="2.30147">
        <ele>27.200000762939</ele>
        <time>2015-11-09T20:42:52Z</time>
      </trkpt>
      <trkpt lat="48.86341" lon="2.30149">
        <ele>29.200000762939</ele>
        <time>2015-11-09T20:42:58Z</time>
      </trkpt>
      <trkpt lat="48.86323" lon="2.3015">
        <ele>30.60000038147</ele>
        <time>2015-11-09T20:43:03Z</time>
      </trkpt>
      <trkpt lat="48.86303" lon="2.30153">
        <ele>32.20000076294</ele>
        <time>2015-11-09T20:43:08Z</time>
      </trkpt>
      <trkpt lat="48.86283" lon="2.30152">
        <ele>33.79999923706</ele>
        <time>2015-11-09T20:43:13Z</time>
      </trkpt>
      <trkpt lat="48.86266" lon="2.30142">
        <ele>35.20000076294</ele>
        <time>2015-11-09T20:43:19Z</time>
      </trkpt>
      <trkpt lat="48.86259" lon="2.30137">
        <ele>35.599998474121</ele>
        <time>2015-11-09T20:43:23Z</time>
      </trkpt>
      <trkpt lat="48.86245" lon="2.30119">
        <ele>36.599998474121</ele>
        <time>2015-11-09T20:43:51Z</time>
      </trkpt>
      <trkpt lat="48.86243" lon="2.30115">
        <ele>37</ele>
        <time>2015-11-09T20:43:53Z</time>
      </trkpt>
      <trkpt lat="48.86242" lon="2.30086">
        <ele>38.599998474121</ele>
        <time>2015-11-09T20:43:59Z</time>
      </trkpt>
      <trkpt lat="48.86239" lon="2.30057">
        <ele>38.400001525879</ele>
        <time>2015-11-09T20:44:04Z</time>
      </trkpt>
      <trkpt lat="48.86237" lon="2.30026">
        <ele>37.400001525879</ele>
        <time>2015-11-09T20:44:09Z</time>
      </trkpt>
      <trkpt lat="48.86236" lon="2.30019">
        <ele>37.20000076294</ele>
        <time>2015-11-09T20:44:10Z</time>
      </trkpt>
      <trkpt lat="48.86232" lon="2.2999">
        <ele>36.20000076294</ele>
        <time>2015-11-09T20:44:14Z</time>
      </trkpt>
      <trkpt lat="48.86228" lon="2.29961">
        <ele>34.79999923706</ele>
        <time>2015-11-09T20:44:18Z</time>
      </trkpt>
      <trkpt lat="48.86222" lon="2.2993">
        <ele>32.20000076294</ele>
        <time>2015-11-09T20:44:22Z</time>
      </trkpt>
      <trkpt lat="48.86216" lon="2.29899">
        <ele>30.200000762939</ele>
        <time>2015-11-09T20:44:26Z</time>
      </trkpt>
      <trkpt lat="48.86209" lon="2.29868">
        <ele>29.799999237061</ele>
        <time>2015-11-09T20:44:30Z</time>
      </trkpt>
      <trkpt lat="48.862" lon="2.29835">
        <ele>29.60000038147</ele>
        <time>2015-11-09T20:44:34Z</time>
      </trkpt>
      <trkpt lat="48.86193" lon="2.29809">
        <ele>30.60000038147</ele>
        <time>2015-11-09T20:44:37Z</time>
      </trkpt>
      <trkpt lat="48.86183" lon="2.29777">
        <ele>31.799999237061</ele>
        <time>2015-11-09T20:44:41Z</time>
      </trkpt>
      <trkpt lat="48.86172" lon="2.29749">
        <ele>33</ele>
        <time>2015-11-09T20:44:45Z</time>
      </trkpt>
      <trkpt lat="48.8616" lon="2.29719">
        <ele>33</ele>
        <time>2015-11-09T20:44:49Z</time>
      </trkpt>
      <trkpt lat="48.86149" lon="2.29697">
        <ele>32.79999923706</ele>
        <time>2015-11-09T20:44:52Z</time>
      </trkpt>
      <trkpt lat="48.86138" lon="2.29672">
        <ele>32.79999923706</ele>
        <time>2015-11-09T20:44:55Z</time>
      </trkpt>
      <trkpt lat="48.86125" lon="2.29648">
        <ele>33.20000076294</ele>
        <time>2015-11-09T20:44:58Z</time>
      </trkpt>
      <trkpt lat="48.86121" lon="2.29639">
        <ele>33.400001525879</ele>
        <time>2015-11-09T20:44:59Z</time>
      </trkpt>
      <trkpt lat="48.86108" lon="2.29613">
        <ele>34.20000076294</ele>
        <time>2015-11-09T20:45:02Z</time>
      </trkpt>
      <trkpt lat="48.86096" lon="2.29591">
        <ele>35.400001525879</ele>
        <time>2015-11-09T20:45:05Z</time>
      </trkpt>
      <trkpt lat="48.86081" lon="2.29568">
        <ele>36.400001525879</ele>
        <time>2015-11-09T20:45:09Z</time>
      </trkpt>
      <trkpt lat="48.86078" lon="2.29564">
        <ele>36.599998474121</ele>
        <time>2015-11-09T20:45:10Z</time>
      </trkpt>
      <trkpt lat="48.86063" lon="2.2954">
        <ele>37.20000076294</ele>
        <time>2015-11-09T20:45:15Z</time>
      </trkpt>
      <trkpt lat="48.86047" lon="2.29517">
        <ele>37.79999923706</ele>
        <time>2015-11-09T20:45:20Z</time>
      </trkpt>
      <trkpt lat="48.8604" lon="2.29509">
        <ele>38</ele>
        <time>2015-11-09T20:45:22Z</time>
      </trkpt>
      <trkpt lat="48.86024" lon="2.29493">
        <ele>38.79999923706</ele>
        <time>2015-11-09T20:45:27Z</time>
      </trkpt>
      <trkpt lat="48.8602" lon="2.2949">
        <ele>38.79999923706</ele>
        <time>2015-11-09T20:45:28Z</time>
      </trkpt>
      <trkpt lat="48.86014" lon="2.29484">
        <ele>39.20000076294</ele>
        <time>2015-11-09T20:45:30Z</time>
      </trkpt>
      <trkpt lat="48.86001" lon="2.29467">
        <ele>39.400001525879</ele>
        <time>2015-11-09T20:45:34Z</time>
      </trkpt>
      <trkpt lat="48.85985" lon="2.29443">
        <ele>39.400001525879</ele>
        <time>2015-11-09T20:45:39Z</time>
      </trkpt>
      <trkpt lat="48.85972" lon="2.29424">
        <ele>39.400001525879</ele>
        <time>2015-11-09T20:45:43Z</time>
      </trkpt>
      <trkpt lat="48.85956" lon="2.294">
        <ele>40</ele>
        <time>2015-11-09T20:45:48Z</time>
      </trkpt>
      <trkpt lat="48.85942" lon="2.29378">
        <ele>40.599998474121</ele>
        <time>2015-11-09T20:45:53Z</time>
      </trkpt>
      <trkpt lat="48.85931" lon="2.29361">
        <ele>40.20000076294</ele>
        <time>2015-11-09T20:45:57Z</time>
      </trkpt>
      <trkpt lat="48.85931" lon="2.29338">
        <ele>39.20000076294</ele>
        <time>2015-11-09T20:46:01Z</time>
      </trkpt>
      <trkpt lat="48.85934" lon="2.29316">
        <ele>38.20000076294</ele>
        <time>2015-11-09T20:46:05Z</time>
      </trkpt>
      <trkpt lat="48.85943" lon="2.29292">
        <ele>35.400001525879</ele>
        <time>2015-11-09T20:46:10Z</time>
      </trkpt>
      <trkpt lat="48.85946" lon="2.29287">
        <ele>34.599998474121</ele>
        <time>2015-11-09T20:46:11Z</time>
      </trkpt>
      <trkpt lat="48.85959" lon="2.29272">
        <ele>32</ele>
        <time>2015-11-09T20:46:15Z</time>
      </trkpt>
      <trkpt lat="48.85972" lon="2.29251">
        <ele>29.60000038147</ele>
        <time>2015-11-09T20:46:20Z</time>
      </trkpt>
      <trkpt lat="48.85985" lon="2.29231">
        <ele>27.60000038147</ele>
        <time>2015-11-09T20:46:25Z</time>
      </trkpt>
      <trkpt lat="48.85998" lon="2.29208">
        <ele>26.60000038147</ele>
        <time>2015-11-09T20:46:30Z</time>
      </trkpt>
      <trkpt lat="48.86012" lon="2.29185">
        <ele>27.39999961853</ele>
        <time>2015-11-09T20:46:35Z</time>
      </trkpt>
      <trkpt lat="48.86026" lon="2.29163">
        <ele>28.200000762939</ele>
        <time>2015-11-09T20:46:40Z</time>
      </trkpt>
      <trkpt lat="48.86039" lon="2.29141">
        <ele>30.200000762939</ele>
        <time>2015-11-09T20:46:46Z</time>
      </trkpt>
      <trkpt lat="48.86043" lon="2.29138">
        <ele>30.39999961853</ele>
        <time>2015-11-09T20:46:48Z</time>
      </trkpt>
      <trkpt lat="48.86054" lon="2.29154">
        <ele>30</ele>
        <time>2015-11-09T20:46:53Z</time>
      </trkpt>
      <trkpt lat="48.8607" lon="2.29175">
        <ele>30.200000762939</ele>
        <time>2015-11-09T20:46:58Z</time>
      </trkpt>
      <trkpt lat="48.86084" lon="2.29195">
        <ele>30.60000038147</ele>
        <time>2015-11-09T20:47:02Z</time>
      </trkpt>
      <trkpt lat="48.86098" lon="2.29214">
        <ele>31</ele>
        <time>2015-11-09T20:47:06Z</time>
      </trkpt>
      <trkpt lat="48.86112" lon="2.2923">
        <ele>31.60000038147</ele>
        <time>2015-11-09T20:47:10Z</time>
      </trkpt>
      <trkpt lat="48.86127" lon="2.29254">
        <ele>31.60000038147</ele>
        <time>2015-11-09T20:47:15Z</time>
      </trkpt>
      <trkpt lat="48.86134" lon="2.29263">
        <ele>31.39999961853</ele>
        <time>2015-11-09T20:47:17Z</time>
      </trkpt>
      <trkpt lat="48.8615" lon="2.29286">
        <ele>30.799999237061</ele>
        <time>2015-11-09T20:47:22Z</time>
      </trkpt>
      <trkpt lat="48.86153" lon="2.2929">
        <ele>30.60000038147</ele>
        <time>2015-11-09T20:47:23Z</time>
      </trkpt>
      <trkpt lat="48.86167" lon="2.29309">
        <ele>30.200000762939</ele>
        <time>2015-11-09T20:47:27Z</time>
      </trkpt>
      <trkpt lat="48.8617" lon="2.29314">
        <ele>30</ele>
        <time>2015-11-09T20:47:28Z</time>
      </trkpt>
      <trkpt lat="48.86185" lon="2.29331">
        <ele>29.799999237061</ele>
        <time>2015-11-09T20:47:32Z</time>
      </trkpt>
      <trkpt lat="48.86202" lon="2.29351">
        <ele>31</ele>
        <time>2015-11-09T20:47:36Z</time>
      </trkpt>
      <trkpt lat="48.86209" lon="2.2936">
        <ele>31.60000038147</ele>
        <time>2015-11-09T20:47:38Z</time>
      </trkpt>
      <trkpt lat="48.86225" lon="2.29378">
        <ele>33</ele>
        <time>2015-11-09T20:47:42Z</time>
      </trkpt>
      <trkpt lat="48.86235" lon="2.29397">
        <ele>33.79999923706</ele>
        <time>2015-11-09T20:47:46Z</time>
      </trkpt>
      <trkpt lat="48.86237" lon="2.29402">
        <ele>34</ele>
        <time>2015-11-09T20:47:47Z</time>
      </trkpt>
      <trkpt lat="48.86251" lon="2.29427">
        <ele>34.400001525879</ele>
        <time>2015-11-09T20:47:52Z</time>
      </trkpt>
      <trkpt lat="48.86255" lon="2.29438">
        <ele>34.400001525879</ele>
        <time>2015-11-09T20:47:54Z</time>
      </trkpt>
      <trkpt lat="48.86256" lon="2.29443">
        <ele>34.20000076294</ele>
        <time>2015-11-09T20:47:55Z</time>
      </trkpt>
      <trkpt lat="48.86262" lon="2.29471">
        <ele>33.20000076294</ele>
        <time>2015-11-09T20:48:00Z</time>
      </trkpt>
      <trkpt lat="48.8627" lon="2.29498">
        <ele>32.79999923706</ele>
        <time>2015-11-09T20:48:05Z</time>
      </trkpt>
      <trkpt lat="48.86278" lon="2.29526">
        <ele>32.599998474121</ele>
        <time>2015-11-09T20:48:10Z</time>
      </trkpt>
      <trkpt lat="48.86287" lon="2.29553">
        <ele>32.400001525879</ele>
        <time>2015-11-09T20:48:15Z</time>
      </trkpt>
      <trkpt lat="48.86289" lon="2.29564">
        <ele>32.20000076294</ele>
        <time>2015-11-09T20:48:17Z</time>
      </trkpt>
      <trkpt lat="48.86296" lon="2.29591">
        <ele>32</ele>
        <time>2015-11-09T20:48:23Z</time>
      </trkpt>
      <trkpt lat="48.86302" lon="2.29607">
        <ele>32</ele>
        <time>2015-11-09T20:48:29Z</time>
      </trkpt>
      <trkpt lat="48.86297" lon="2.29578">
        <ele>32.20000076294</ele>
        <time>2015-11-09T20:48:38Z</time>
      </trkpt>
      <trkpt lat="48.86289" lon="2.2955">
        <ele>32.599998474121</ele>
        <time>2015-11-09T20:48:45Z</time>
      </trkpt>
      <trkpt lat="48.86282" lon="2.29523">
        <ele>32.79999923706</ele>
        <time>2015-11-09T20:48:51Z</time>
      </trkpt>
      <trkpt lat="48.86275" lon="2.29495">
        <ele>33.20000076294</ele>
        <time>2015-11-09T20:48:59Z</time>
      </trkpt>
      <trkpt lat="48.86267" lon="2.29466">
        <ele>34</ele>
        <time>2015-11-09T20:49:07Z</time>
      </trkpt>
      <trkpt lat="48.86258" lon="2.29437">
        <ele>34.599998474121</ele>
        <time>2015-11-09T20:49:13Z</time>
      </trkpt>
      <trkpt lat="48.86246" lon="2.29413">
        <ele>34.79999923706</ele>
        <time>2015-11-09T20:49:18Z</time>
      </trkpt>
      <trkpt lat="48.86232" lon="2.29388">
        <ele>33.599998474121</ele>
        <time>2015-11-09T20:49:23Z</time>
      </trkpt>
      <trkpt lat="48.86217" lon="2.29366">
        <ele>32.400001525879</ele>
        <time>2015-11-09T20:49:28Z</time>
      </trkpt>
      <trkpt lat="48.86201" lon="2.29344">
        <ele>31</ele>
        <time>2015-11-09T20:49:33Z</time>
      </trkpt>
      <trkpt lat="48.86185" lon="2.29324">
        <ele>30.200000762939</ele>
        <time>2015-11-09T20:49:38Z</time>
      </trkpt>
      <trkpt lat="48.8617" lon="2.29307">
        <ele>30.60000038147</ele>
        <time>2015-11-09T20:49:43Z</time>
      </trkpt>
      <trkpt lat="48.86153" lon="2.29286">
        <ele>31</ele>
        <time>2015-11-09T20:49:48Z</time>
      </trkpt>
      <trkpt lat="48.86139" lon="2.29267">
        <ele>31.60000038147</ele>
        <time>2015-11-09T20:49:53Z</time>
      </trkpt>
      <trkpt lat="48.86126" lon="2.29248">
        <ele>32</ele>
        <time>2015-11-09T20:49:58Z</time>
      </trkpt>
      <trkpt lat="48.8611" lon="2.29229">
        <ele>31.39999961853</ele>
        <time>2015-11-09T20:50:03Z</time>
      </trkpt>
      <trkpt lat="48.86093" lon="2.29211">
        <ele>30.799999237061</ele>
        <time>2015-11-09T20:50:09Z</time>
      </trkpt>
      <trkpt lat="48.86078" lon="2.2919">
        <ele>30.39999961853</ele>
        <time>2015-11-09T20:50:15Z</time>
      </trkpt>
      <trkpt lat="48.86072" lon="2.29183">
        <ele>30.200000762939</ele>
        <time>2015-11-09T20:50:19Z</time>
      </trkpt>
      <trkpt lat="48.86058" lon="2.29165">
        <ele>29.60000038147</ele>
        <time>2015-11-09T20:50:28Z</time>
      </trkpt>
      <trkpt lat="48.86044" lon="2.29147">
        <ele>30</ele>
        <time>2015-11-09T20:50:35Z</time>
      </trkpt>
      <trkpt lat="48.8604" lon="2.29145">
        <ele>30</ele>
        <time>2015-11-09T20:50:37Z</time>
      </trkpt>
      <trkpt lat="48.8603" lon="2.29158">
        <ele>28.60000038147</ele>
        <time>2015-11-09T20:50:42Z</time>
      </trkpt>
      <trkpt lat="48.86016" lon="2.29181">
        <ele>27.39999961853</ele>
        <time>2015-11-09T20:50:48Z</time>
      </trkpt>
      <trkpt lat="48.86001" lon="2.29206">
        <ele>26.799999237061</ele>
        <time>2015-11-09T20:50:53Z</time>
      </trkpt>
      <trkpt lat="48.85987" lon="2.29226">
        <ele>27.200000762939</ele>
        <time>2015-11-09T20:50:57Z</time>
      </trkpt>
      <trkpt lat="48.85973" lon="2.29248">
        <ele>29.200000762939</ele>
        <time>2015-11-09T20:51:01Z</time>
      </trkpt>
      <trkpt lat="48.8596" lon="2.29269">
        <ele>31.60000038147</ele>
        <time>2015-11-09T20:51:05Z</time>
      </trkpt>
      <trkpt lat="48.85947" lon="2.29287">
        <ele>34.599998474121</ele>
        <time>2015-11-09T20:51:09Z</time>
      </trkpt>
      <trkpt lat="48.85932" lon="2.29307">
        <ele>37.599998474121</ele>
        <time>2015-11-09T20:51:14Z</time>
      </trkpt>
      <trkpt lat="48.85927" lon="2.29313">
        <ele>38.400001525879</ele>
        <time>2015-11-09T20:51:16Z</time>
      </trkpt>
      <trkpt lat="48.8591" lon="2.29318">
        <ele>38.79999923706</ele>
        <time>2015-11-09T20:51:22Z</time>
      </trkpt>
      <trkpt lat="48.85896" lon="2.29299">
        <ele>38.599998474121</ele>
        <time>2015-11-09T20:51:31Z</time>
      </trkpt>
      <trkpt lat="48.85895" lon="2.29297">
        <ele>38.599998474121</ele>
        <time>2015-11-09T20:51:33Z</time>
      </trkpt>
      <trkpt lat="48.85881" lon="2.29288">
        <ele>38.400001525879</ele>
        <time>2015-11-09T20:52:41Z</time>
      </trkpt>
      <trkpt lat="48.85867" lon="2.29267">
        <ele>38.20000076294</ele>
        <time>2015-11-09T20:52:47Z</time>
      </trkpt>
      <trkpt lat="48.85851" lon="2.29245">
        <ele>38.400001525879</ele>
        <time>2015-11-09T20:52:53Z</time>
      </trkpt>
      <trkpt lat="48.85838" lon="2.29225">
        <ele>38.599998474121</ele>
        <time>2015-11-09T20:52:58Z</time>
      </trkpt>
      <trkpt lat="48.85825" lon="2.29206">
        <ele>38.599998474121</ele>
        <time>2015-11-09T20:53:03Z</time>
      </trkpt>
      <trkpt lat="48.85812" lon="2.29186">
        <ele>38.599998474121</ele>
        <time>2015-11-09T20:53:07Z</time>
      </trkpt>
      <trkpt lat="48.85798" lon="2.29164">
        <ele>38.400001525879</ele>
        <time>2015-11-09T20:53:11Z</time>
      </trkpt>
      <trkpt lat="48.85784" lon="2.29141">
        <ele>38.20000076294</ele>
        <time>2015-11-09T20:53:15Z</time>
      </trkpt>
      <trkpt lat="48.8577" lon="2.29117">
        <ele>37.79999923706</ele>
        <time>2015-11-09T20:53:19Z</time>
      </trkpt>
      <trkpt lat="48.85753" lon="2.29094">
        <ele>36.20000076294</ele>
        <time>2015-11-09T20:53:23Z</time>
      </trkpt>
      <trkpt lat="48.85738" lon="2.29074">
        <ele>35.599998474121</ele>
        <time>2015-11-09T20:53:26Z</time>
      </trkpt>
      <trkpt lat="48.85722" lon="2.29053">
        <ele>36.400001525879</ele>
        <time>2015-11-09T20:53:29Z</time>
      </trkpt>
      <trkpt lat="48.85707" lon="2.29031">
        <ele>37.20000076294</ele>
        <time>2015-11-09T20:53:32Z</time>
      </trkpt>
      <trkpt lat="48.85701" lon="2.29025">
        <ele>37.400001525879</ele>
        <time>2015-11-09T20:53:33Z</time>
      </trkpt>
      <trkpt lat="48.85683" lon="2.29007">
        <ele>37.599998474121</ele>
        <time>2015-11-09T20:53:36Z</time>
      </trkpt>
      <trkpt lat="48.85664" lon="2.28993">
        <ele>36</ele>
        <time>2015-11-09T20:53:39Z</time>
      </trkpt>
      <trkpt lat="48.85645" lon="2.28983">
        <ele>34</ele>
        <time>2015-11-09T20:53:42Z</time>
      </trkpt>
      <trkpt lat="48.85625" lon="2.28974">
        <ele>32</ele>
        <time>2015-11-09T20:53:45Z</time>
      </trkpt>
      <trkpt lat="48.85608" lon="2.28964">
        <ele>30.200000762939</ele>
        <time>2015-11-09T20:53:48Z</time>
      </trkpt>
      <trkpt lat="48.85596" lon="2.28958">
        <ele>31.200000762939</ele>
        <time>2015-11-09T20:53:50Z</time>
      </trkpt>
      <trkpt lat="48.85573" lon="2.28947">
        <ele>33.79999923706</ele>
        <time>2015-11-09T20:53:54Z</time>
      </trkpt>
      <trkpt lat="48.85551" lon="2.28937">
        <ele>36.20000076294</ele>
        <time>2015-11-09T20:53:58Z</time>
      </trkpt>
      <trkpt lat="48.85532" lon="2.28924">
        <ele>38.20000076294</ele>
        <time>2015-11-09T20:54:02Z</time>
      </trkpt>
      <trkpt lat="48.85513" lon="2.28915">
        <ele>39.599998474121</ele>
        <time>2015-11-09T20:54:06Z</time>
      </trkpt>
      <trkpt lat="48.85493" lon="2.28901">
        <ele>40.400001525879</ele>
        <time>2015-11-09T20:54:11Z</time>
      </trkpt>
      <trkpt lat="48.85479" lon="2.28885">
        <ele>40.599998474121</ele>
        <time>2015-11-09T20:54:16Z</time>
      </trkpt>
      <trkpt lat="48.85484" lon="2.28862">
        <ele>39.599998474121</ele>
        <time>2015-11-09T20:54:28Z</time>
      </trkpt>
      <trkpt lat="48.85485" lon="2.28861">
        <ele>39.400001525879</ele>
        <time>2015-11-09T20:54:29Z</time>
      </trkpt>
      <trkpt lat="48.85493" lon="2.28852">
        <ele>38.599998474121</ele>
        <time>2015-11-09T20:54:35Z</time>
      </trkpt>
      <trkpt lat="48.85499" lon="2.2883">
        <ele>37.400001525879</ele>
        <time>2015-11-09T20:54:43Z</time>
      </trkpt>
      <trkpt lat="48.85514" lon="2.28812">
        <ele>35.20000076294</ele>
        <time>2015-11-09T20:54:51Z</time>
      </trkpt>
      <trkpt lat="48.85529" lon="2.28794">
        <ele>34.400001525879</ele>
        <time>2015-11-09T20:54:58Z</time>
      </trkpt>
      <trkpt lat="48.85547" lon="2.28776">
        <ele>33.20000076294</ele>
        <time>2015-11-09T20:55:07Z</time>
      </trkpt>
      <trkpt lat="48.85564" lon="2.28764">
        <ele>33</ele>
        <time>2015-11-09T20:55:12Z</time>
      </trkpt>
      <trkpt lat="48.85581" lon="2.28749">
        <ele>33</ele>
        <time>2015-11-09T20:55:17Z</time>
      </trkpt>
      <trkpt lat="48.856" lon="2.28732">
        <ele>32.79999923706</ele>
        <time>2015-11-09T20:55:22Z</time>
      </trkpt>
      <trkpt lat="48.85617" lon="2.28712">
        <ele>32.400001525879</ele>
        <time>2015-11-09T20:55:27Z</time>
      </trkpt>
      <trkpt lat="48.85635" lon="2.28695">
        <ele>31.60000038147</ele>
        <time>2015-11-09T20:55:32Z</time>
      </trkpt>
      <trkpt lat="48.85649" lon="2.28683">
        <ele>34.400001525879</ele>
        <time>2015-11-09T20:55:38Z</time>
      </trkpt>
      <trkpt lat="48.85651" lon="2.28674">
        <ele>36</ele>
        <time>2015-11-09T20:55:42Z</time>
      </trkpt>
      <trkpt lat="48.85648" lon="2.28658">
        <ele>37.599998474121</ele>
        <time>2015-11-09T20:55:46Z</time>
      </trkpt>
      <trkpt lat="48.85648" lon="2.28652">
        <ele>38</ele>
        <time>2015-11-09T20:55:48Z</time>
      </trkpt>
      <trkpt lat="48.8565" lon="2.28648">
        <ele>38.599998474121</ele>
        <time>2015-11-09T20:55:52Z</time>
      </trkpt>
      <trkpt lat="48.85652" lon="2.28647">
        <ele>38.79999923706</ele>
        <time>2015-11-09T20:55:54Z</time>
      </trkpt>
      <trkpt lat="48.85643" lon="2.28627">
        <ele>39.599998474121</ele>
        <time>2015-11-09T20:56:10Z</time>
      </trkpt>
      <trkpt lat="48.85628" lon="2.28609">
        <ele>39.20000076294</ele>
        <time>2015-11-09T20:56:15Z</time>
      </trkpt>
      <trkpt lat="48.85612" lon="2.28587">
        <ele>39.20000076294</ele>
        <time>2015-11-09T20:56:21Z</time>
      </trkpt>
      <trkpt lat="48.856" lon="2.28567">
        <ele>39.20000076294</ele>
        <time>2015-11-09T20:56:26Z</time>
      </trkpt>
      <trkpt lat="48.85587" lon="2.28541">
        <ele>39.599998474121</ele>
        <time>2015-11-09T20:56:32Z</time>
      </trkpt>
      <trkpt lat="48.85574" lon="2.28522">
        <ele>40</ele>
        <time>2015-11-09T20:56:40Z</time>
      </trkpt>
      <trkpt lat="48.85564" lon="2.285">
        <ele>40.400001525879</ele>
        <time>2015-11-09T20:57:19Z</time>
      </trkpt>
      <trkpt lat="48.85547" lon="2.28478">
        <ele>41.599998474121</ele>
        <time>2015-11-09T20:57:24Z</time>
      </trkpt>
      <trkpt lat="48.85531" lon="2.28461">
        <ele>42.599998474121</ele>
        <time>2015-11-09T20:57:27Z</time>
      </trkpt>
      <trkpt lat="48.85526" lon="2.28454">
        <ele>43</ele>
        <time>2015-11-09T20:57:28Z</time>
      </trkpt>
      <trkpt lat="48.8551" lon="2.28435">
        <ele>42.79999923706</ele>
        <time>2015-11-09T20:57:31Z</time>
      </trkpt>
      <trkpt lat="48.85493" lon="2.28416">
        <ele>42</ele>
        <time>2015-11-09T20:57:34Z</time>
      </trkpt>
      <trkpt lat="48.85478" lon="2.28396">
        <ele>40.599998474121</ele>
        <time>2015-11-09T20:57:37Z</time>
      </trkpt>
      <trkpt lat="48.85463" lon="2.28377">
        <ele>39.400001525879</ele>
        <time>2015-11-09T20:57:40Z</time>
      </trkpt>
      <trkpt lat="48.85449" lon="2.28357">
        <ele>38.20000076294</ele>
        <time>2015-11-09T20:57:43Z</time>
      </trkpt>
      <trkpt lat="48.85435" lon="2.28338">
        <ele>37</ele>
        <time>2015-11-09T20:57:46Z</time>
      </trkpt>
      <trkpt lat="48.85421" lon="2.28316">
        <ele>36.20000076294</ele>
        <time>2015-11-09T20:57:49Z</time>
      </trkpt>
      <trkpt lat="48.85408" lon="2.28292">
        <ele>35.20000076294</ele>
        <time>2015-11-09T20:57:52Z</time>
      </trkpt>
      <trkpt lat="48.85392" lon="2.28267">
        <ele>33.79999923706</ele>
        <time>2015-11-09T20:57:55Z</time>
      </trkpt>
      <trkpt lat="48.85376" lon="2.28242">
        <ele>33</ele>
        <time>2015-11-09T20:57:58Z</time>
      </trkpt>
      <trkpt lat="48.8536" lon="2.28216">
        <ele>34.599998474121</ele>
        <time>2015-11-09T20:58:01Z</time>
      </trkpt>
      <trkpt lat="48.85345" lon="2.2819">
        <ele>36</ele>
        <time>2015-11-09T20:58:04Z</time>
      </trkpt>
      <trkpt lat="48.8534" lon="2.28182">
        <ele>36.20000076294</ele>
        <time>2015-11-09T20:58:05Z</time>
      </trkpt>
      <trkpt lat="48.85325" lon="2.28159">
        <ele>36.79999923706</ele>
        <time>2015-11-09T20:58:08Z</time>
      </trkpt>
      <trkpt lat="48.85311" lon="2.28136">
        <ele>35.400001525879</ele>
        <time>2015-11-09T20:58:11Z</time>
      </trkpt>
      <trkpt lat="48.85298" lon="2.28113">
        <ele>34.20000076294</ele>
        <time>2015-11-09T20:58:14Z</time>
      </trkpt>
      <trkpt lat="48.8529" lon="2.28097">
        <ele>33.599998474121</ele>
        <time>2015-11-09T20:58:16Z</time>
      </trkpt>
      <trkpt lat="48.85277" lon="2.28073">
        <ele>33.400001525879</ele>
        <time>2015-11-09T20:58:19Z</time>
      </trkpt>
      <trkpt lat="48.85264" lon="2.2805">
        <ele>33.20000076294</ele>
        <time>2015-11-09T20:58:22Z</time>
      </trkpt>
      <trkpt lat="48.8525" lon="2.28027">
        <ele>33.79999923706</ele>
        <time>2015-11-09T20:58:25Z</time>
      </trkpt>
      <trkpt lat="48.85236" lon="2.28002">
        <ele>34.400001525879</ele>
        <time>2015-11-09T20:58:28Z</time>
      </trkpt>
      <trkpt lat="48.85231" lon="2.27995">
        <ele>34.599998474121</ele>
        <time>2015-11-09T20:58:29Z</time>
      </trkpt>
      <trkpt lat="48.85216" lon="2.27973">
        <ele>34.79999923706</ele>
        <time>2015-11-09T20:58:32Z</time>
      </trkpt>
      <trkpt lat="48.85211" lon="2.27966">
        <ele>34.79999923706</ele>
        <time>2015-11-09T20:58:33Z</time>
      </trkpt>
      <trkpt lat="48.85196" lon="2.27943">
        <ele>35</ele>
        <time>2015-11-09T20:58:36Z</time>
      </trkpt>
      <trkpt lat="48.85182" lon="2.27918">
        <ele>35.400001525879</ele>
        <time>2015-11-09T20:58:39Z</time>
      </trkpt>
      <trkpt lat="48.85169" lon="2.27893">
        <ele>36.20000076294</ele>
        <time>2015-11-09T20:58:42Z</time>
      </trkpt>
      <trkpt lat="48.85157" lon="2.27871">
        <ele>36.400001525879</ele>
        <time>2015-11-09T20:58:45Z</time>
      </trkpt>
      <trkpt lat="48.85154" lon="2.27865">
        <ele>36.599998474121</ele>
        <time>2015-11-09T20:58:46Z</time>
      </trkpt>
      <trkpt lat="48.85146" lon="2.27853">
        <ele>36.79999923706</ele>
        <time>2015-11-09T20:58:49Z</time>
      </trkpt>
      <trkpt lat="48.85145" lon="2.2785">
        <ele>36.79999923706</ele>
        <time>2015-11-09T20:58:52Z</time>
      </trkpt>
      <trkpt lat="48.85142" lon="2.27863">
        <ele>36.599998474121</ele>
        <time>2015-11-09T20:58:59Z</time>
      </trkpt>
      <trkpt lat="48.85137" lon="2.2787">
        <ele>36</ele>
        <time>2015-11-09T20:59:04Z</time>
      </trkpt>
      <trkpt lat="48.8512" lon="2.27881">
        <ele>34.599998474121</ele>
        <time>2015-11-09T20:59:48Z</time>
      </trkpt>
      <trkpt lat="48.85103" lon="2.27886">
        <ele>33.400001525879</ele>
        <time>2015-11-09T21:00:15Z</time>
      </trkpt>
      <trkpt lat="48.85088" lon="2.27905">
        <ele>32.599998474121</ele>
        <time>2015-11-09T21:00:20Z</time>
      </trkpt>
      <trkpt lat="48.85074" lon="2.27919">
        <ele>32.79999923706</ele>
        <time>2015-11-09T21:00:23Z</time>
      </trkpt>
      <trkpt lat="48.8506" lon="2.27941">
        <ele>32.400001525879</ele>
        <time>2015-11-09T21:00:26Z</time>
      </trkpt>
      <trkpt lat="48.85046" lon="2.27964">
        <ele>31.39999961853</ele>
        <time>2015-11-09T21:00:29Z</time>
      </trkpt>
      <trkpt lat="48.85031" lon="2.27988">
        <ele>30.39999961853</ele>
        <time>2015-11-09T21:00:32Z</time>
      </trkpt>
      <trkpt lat="48.85015" lon="2.28013">
        <ele>29.200000762939</ele>
        <time>2015-11-09T21:00:35Z</time>
      </trkpt>
      <trkpt lat="48.84999" lon="2.28039">
        <ele>28</ele>
        <time>2015-11-09T21:00:38Z</time>
      </trkpt>
      <trkpt lat="48.84984" lon="2.28063">
        <ele>28.200000762939</ele>
        <time>2015-11-09T21:00:41Z</time>
      </trkpt>
      <trkpt lat="48.84971" lon="2.28083">
        <ele>29.39999961853</ele>
        <time>2015-11-09T21:00:44Z</time>
      </trkpt>
      <trkpt lat="48.84958" lon="2.28102">
        <ele>31</ele>
        <time>2015-11-09T21:00:47Z</time>
      </trkpt>
      <trkpt lat="48.84944" lon="2.28124">
        <ele>31.39999961853</ele>
        <time>2015-11-09T21:00:51Z</time>
      </trkpt>
      <trkpt lat="48.84937" lon="2.28133">
        <ele>31.60000038147</ele>
        <time>2015-11-09T21:00:53Z</time>
      </trkpt>
      <trkpt lat="48.84932" lon="2.28139">
        <ele>32</ele>
        <time>2015-11-09T21:00:55Z</time>
      </trkpt>
      <trkpt lat="48.84919" lon="2.28136">
        <ele>33.400001525879</ele>
        <time>2015-11-09T21:01:00Z</time>
      </trkpt>
      <trkpt lat="48.84913" lon="2.28125">
        <ele>34.20000076294</ele>
        <time>2015-11-09T21:01:04Z</time>
      </trkpt>
      <trkpt lat="48.84912" lon="2.28122">
        <ele>34.400001525879</ele>
        <time>2015-11-09T21:01:08Z</time>
      </trkpt>
      <trkpt lat="48.84913" lon="2.2812">
        <ele>34.400001525879</ele>
        <time>2015-11-09T21:01:09Z</time>
      </trkpt>
      <trkpt lat="48.849" lon="2.28103">
        <ele>36</ele>
        <time>2015-11-09T21:01:48Z</time>
      </trkpt>
      <trkpt lat="48.84887" lon="2.28082">
        <ele>37.599998474121</ele>
        <time>2015-11-09T21:01:52Z</time>
      </trkpt>
      <trkpt lat="48.84869" lon="2.28057">
        <ele>38.400001525879</ele>
        <time>2015-11-09T21:01:56Z</time>
      </trkpt>
      <trkpt lat="48.84855" lon="2.28036">
        <ele>39</ele>
        <time>2015-11-09T21:01:59Z</time>
      </trkpt>
      <trkpt lat="48.84835" lon="2.28013">
        <ele>38.79999923706</ele>
        <time>2015-11-09T21:02:02Z</time>
      </trkpt>
      <trkpt lat="48.84816" lon="2.27989">
        <ele>38</ele>
        <time>2015-11-09T21:02:05Z</time>
      </trkpt>
      <trkpt lat="48.84797" lon="2.27966">
        <ele>35.79999923706</ele>
        <time>2015-11-09T21:02:08Z</time>
      </trkpt>
      <trkpt lat="48.84781" lon="2.27943">
        <ele>33.599998474121</ele>
        <time>2015-11-09T21:02:11Z</time>
      </trkpt>
      <trkpt lat="48.84766" lon="2.27923">
        <ele>32.20000076294</ele>
        <time>2015-11-09T21:02:14Z</time>
      </trkpt>
      <trkpt lat="48.84752" lon="2.27904">
        <ele>31.39999961853</ele>
        <time>2015-11-09T21:02:17Z</time>
      </trkpt>
      <trkpt lat="48.84735" lon="2.2788">
        <ele>29.799999237061</ele>
        <time>2015-11-09T21:02:21Z</time>
      </trkpt>
      <trkpt lat="48.84717" lon="2.27856">
        <ele>28.60000038147</ele>
        <time>2015-11-09T21:02:25Z</time>
      </trkpt>
      <trkpt lat="48.84703" lon="2.27833">
        <ele>27.60000038147</ele>
        <time>2015-11-09T21:02:28Z</time>
      </trkpt>
      <trkpt lat="48.84688" lon="2.2781">
        <ele>28.799999237061</ele>
        <time>2015-11-09T21:02:31Z</time>
      </trkpt>
      <trkpt lat="48.84672" lon="2.27787">
        <ele>31</ele>
        <time>2015-11-09T21:02:34Z</time>
      </trkpt>
      <trkpt lat="48.84657" lon="2.27765">
        <ele>33</ele>
        <time>2015-11-09T21:02:37Z</time>
      </trkpt>
      <trkpt lat="48.84643" lon="2.27744">
        <ele>34.79999923706</ele>
        <time>2015-11-09T21:02:40Z</time>
      </trkpt>
      <trkpt lat="48.8463" lon="2.27723">
        <ele>34.599998474121</ele>
        <time>2015-11-09T21:02:43Z</time>
      </trkpt>
      <trkpt lat="48.84621" lon="2.27711">
        <ele>34.599998474121</ele>
        <time>2015-11-09T21:02:45Z</time>
      </trkpt>
      <trkpt lat="48.8461" lon="2.27684">
        <ele>33.79999923706</ele>
        <time>2015-11-09T21:02:49Z</time>
      </trkpt>
      <trkpt lat="48.8462" lon="2.27661">
        <ele>32.20000076294</ele>
        <time>2015-11-09T21:02:53Z</time>
      </trkpt>
      <trkpt lat="48.84632" lon="2.27637">
        <ele>30.39999961853</ele>
        <time>2015-11-09T21:02:58Z</time>
      </trkpt>
      <trkpt lat="48.84642" lon="2.27612">
        <ele>28.799999237061</ele>
        <time>2015-11-09T21:03:03Z</time>
      </trkpt>
      <trkpt lat="48.84648" lon="2.27598">
        <ele>27.60000038147</ele>
        <time>2015-11-09T21:03:06Z</time>
      </trkpt>
      <trkpt lat="48.84652" lon="2.27589">
        <ele>26.799999237061</ele>
        <time>2015-11-09T21:03:08Z</time>
      </trkpt>
      <trkpt lat="48.84662" lon="2.27565">
        <ele>25.799999237061</ele>
        <time>2015-11-09T21:03:13Z</time>
      </trkpt>
      <trkpt lat="48.84665" lon="2.2756">
        <ele>25.799999237061</ele>
        <time>2015-11-09T21:03:14Z</time>
      </trkpt>
      <trkpt lat="48.84676" lon="2.27534">
        <ele>27.60000038147</ele>
        <time>2015-11-09T21:03:19Z</time>
      </trkpt>
      <trkpt lat="48.84688" lon="2.27507">
        <ele>30</ele>
        <time>2015-11-09T21:03:24Z</time>
      </trkpt>
      <trkpt lat="48.847" lon="2.2748">
        <ele>34.20000076294</ele>
        <time>2015-11-09T21:03:29Z</time>
      </trkpt>
      <trkpt lat="48.84702" lon="2.27475">
        <ele>35</ele>
        <time>2015-11-09T21:03:30Z</time>
      </trkpt>
      <trkpt lat="48.84709" lon="2.27461">
        <ele>37.400001525879</ele>
        <time>2015-11-09T21:03:34Z</time>
      </trkpt>
      <trkpt lat="48.84711" lon="2.27456">
        <ele>38.20000076294</ele>
        <time>2015-11-09T21:05:10Z</time>
      </trkpt>
      <trkpt lat="48.84719" lon="2.27428">
        <ele>40.400001525879</ele>
        <time>2015-11-09T21:05:23Z</time>
      </trkpt>
      <trkpt lat="48.8473" lon="2.27402">
        <ele>40.599998474121</ele>
        <time>2015-11-09T21:05:29Z</time>
      </trkpt>
      <trkpt lat="48.84734" lon="2.27372">
        <ele>41.20000076294</ele>
        <time>2015-11-09T21:05:35Z</time>
      </trkpt>
      <trkpt lat="48.84731" lon="2.27358">
        <ele>41.599998474121</ele>
        <time>2015-11-09T21:05:41Z</time>
      </trkpt>
      <trkpt lat="48.84717" lon="2.27334">
        <ele>41.400001525879</ele>
        <time>2015-11-09T21:05:48Z</time>
      </trkpt>
      <trkpt lat="48.84696" lon="2.27322">
        <ele>40.79999923706</ele>
        <time>2015-11-09T21:05:53Z</time>
      </trkpt>
      <trkpt lat="48.84677" lon="2.2731">
        <ele>40</ele>
        <time>2015-11-09T21:05:57Z</time>
      </trkpt>
      <trkpt lat="48.84658" lon="2.27293">
        <ele>38.79999923706</ele>
        <time>2015-11-09T21:06:01Z</time>
      </trkpt>
      <trkpt lat="48.84638" lon="2.27275">
        <ele>37.79999923706</ele>
        <time>2015-11-09T21:06:05Z</time>
      </trkpt>
      <trkpt lat="48.84627" lon="2.27263">
        <ele>37.20000076294</ele>
        <time>2015-11-09T21:06:07Z</time>
      </trkpt>
      <trkpt lat="48.84611" lon="2.27245">
        <ele>36.599998474121</ele>
        <time>2015-11-09T21:06:10Z</time>
      </trkpt>
      <trkpt lat="48.84593" lon="2.27229">
        <ele>37.400001525879</ele>
        <time>2015-11-09T21:06:13Z</time>
      </trkpt>
      <trkpt lat="48.84576" lon="2.27209">
        <ele>39</ele>
        <time>2015-11-09T21:06:16Z</time>
      </trkpt>
      <trkpt lat="48.84559" lon="2.2719">
        <ele>40.400001525879</ele>
        <time>2015-11-09T21:06:19Z</time>
      </trkpt>
      <trkpt lat="48.84543" lon="2.27173">
        <ele>41.599998474121</ele>
        <time>2015-11-09T21:06:22Z</time>
      </trkpt>
      <trkpt lat="48.84538" lon="2.27167">
        <ele>42</ele>
        <time>2015-11-09T21:06:23Z</time>
      </trkpt>
      <trkpt lat="48.84519" lon="2.27147">
        <ele>41.79999923706</ele>
        <time>2015-11-09T21:06:27Z</time>
      </trkpt>
      <trkpt lat="48.84502" lon="2.27133">
        <ele>42.79999923706</ele>
        <time>2015-11-09T21:06:30Z</time>
      </trkpt>
      <trkpt lat="48.84485" lon="2.27118">
        <ele>43.599998474121</ele>
        <time>2015-11-09T21:06:33Z</time>
      </trkpt>
      <trkpt lat="48.84466" lon="2.27105">
        <ele>44.599998474121</ele>
        <time>2015-11-09T21:06:36Z</time>
      </trkpt>
      <trkpt lat="48.84447" lon="2.2709">
        <ele>45.599998474121</ele>
        <time>2015-11-09T21:06:39Z</time>
      </trkpt>
      <trkpt lat="48.84429" lon="2.27076">
        <ele>46</ele>
        <time>2015-11-09T21:06:42Z</time>
      </trkpt>
      <trkpt lat="48.84411" lon="2.27058">
        <ele>46.20000076294</ele>
        <time>2015-11-09T21:06:45Z</time>
      </trkpt>
      <trkpt lat="48.84392" lon="2.27041">
        <ele>46.400001525879</ele>
        <time>2015-11-09T21:06:48Z</time>
      </trkpt>
      <trkpt lat="48.84373" lon="2.27023">
        <ele>46.599998474121</ele>
        <time>2015-11-09T21:06:51Z</time>
      </trkpt>
      <trkpt lat="48.84354" lon="2.27007">
        <ele>46.79999923706</ele>
        <time>2015-11-09T21:06:54Z</time>
      </trkpt>
      <trkpt lat="48.84349" lon="2.27002">
        <ele>46.20000076294</ele>
        <time>2015-11-09T21:06:55Z</time>
      </trkpt>
      <trkpt lat="48.84332" lon="2.26984">
        <ele>45.400001525879</ele>
        <time>2015-11-09T21:06:58Z</time>
      </trkpt>
      <trkpt lat="48.84315" lon="2.26968">
        <ele>44.79999923706</ele>
        <time>2015-11-09T21:07:01Z</time>
      </trkpt>
      <trkpt lat="48.84298" lon="2.26949">
        <ele>44.20000076294</ele>
        <time>2015-11-09T21:07:04Z</time>
      </trkpt>
      <trkpt lat="48.8428" lon="2.26929">
        <ele>43.79999923706</ele>
        <time>2015-11-09T21:07:07Z</time>
      </trkpt>
      <trkpt lat="48.8427" lon="2.26912">
        <ele>43.79999923706</ele>
        <time>2015-11-09T21:07:09Z</time>
      </trkpt>
      <trkpt lat="48.84258" lon="2.26883">
        <ele>43.20000076294</ele>
        <time>2015-11-09T21:07:12Z</time>
      </trkpt>
      <trkpt lat="48.84244" lon="2.26853">
        <ele>42.400001525879</ele>
        <time>2015-11-09T21:07:15Z</time>
      </trkpt>
      <trkpt lat="48.84232" lon="2.26825">
        <ele>42</ele>
        <time>2015-11-09T21:07:18Z</time>
      </trkpt>
      <trkpt lat="48.84219" lon="2.26798">
        <ele>42.400001525879</ele>
        <time>2015-11-09T21:07:21Z</time>
      </trkpt>
      <trkpt lat="48.84205" lon="2.26769">
        <ele>43</ele>
        <time>2015-11-09T21:07:24Z</time>
      </trkpt>
      <trkpt lat="48.84192" lon="2.26743">
        <ele>43</ele>
        <time>2015-11-09T21:07:27Z</time>
      </trkpt>
      <trkpt lat="48.84181" lon="2.26717">
        <ele>43.599998474121</ele>
        <time>2015-11-09T21:07:30Z</time>
      </trkpt>
      <trkpt lat="48.84169" lon="2.26692">
        <ele>44</ele>
        <time>2015-11-09T21:07:33Z</time>
      </trkpt>
      <trkpt lat="48.84158" lon="2.26667">
        <ele>44.599998474121</ele>
        <time>2015-11-09T21:07:36Z</time>
      </trkpt>
      <trkpt lat="48.84147" lon="2.26643">
        <ele>44.79999923706</ele>
        <time>2015-11-09T21:07:39Z</time>
      </trkpt>
      <trkpt lat="48.84137" lon="2.26618">
        <ele>45</ele>
        <time>2015-11-09T21:07:42Z</time>
      </trkpt>
      <trkpt lat="48.84124" lon="2.26592">
        <ele>45</ele>
        <time>2015-11-09T21:07:46Z</time>
      </trkpt>
      <trkpt lat="48.84113" lon="2.26566">
        <ele>45</ele>
        <time>2015-11-09T21:07:50Z</time>
      </trkpt>
      <trkpt lat="48.8411" lon="2.26561">
        <ele>45</ele>
        <time>2015-11-09T21:07:51Z</time>
      </trkpt>
      <trkpt lat="48.841" lon="2.26546">
        <ele>45.20000076294</ele>
        <time>2015-11-09T21:07:55Z</time>
      </trkpt>
      <trkpt lat="48.84091" lon="2.26537">
        <ele>45.599998474121</ele>
        <time>2015-11-09T21:08:00Z</time>
      </trkpt>
      <trkpt lat="48.84089" lon="2.26535">
        <ele>45.79999923706</ele>
        <time>2015-11-09T21:08:02Z</time>
      </trkpt>
      <trkpt lat="48.84097" lon="2.26532">
        <ele>45.400001525879</ele>
        <time>2015-11-09T21:09:10Z</time>
      </trkpt>
      <trkpt lat="48.84091" lon="2.26514">
        <ele>45.79999923706</ele>
        <time>2015-11-09T21:09:33Z</time>
      </trkpt>
      <trkpt lat="48.84079" lon="2.26498">
        <ele>46.20000076294</ele>
        <time>2015-11-09T21:09:42Z</time>
      </trkpt>
      <trkpt lat="48.84064" lon="2.26515">
        <ele>47</ele>
        <time>2015-11-09T21:10:00Z</time>
      </trkpt>
      <trkpt lat="48.84054" lon="2.26542">
        <ele>47.400001525879</ele>
        <time>2015-11-09T21:10:05Z</time>
      </trkpt>
      <trkpt lat="48.84043" lon="2.26568">
        <ele>47.400001525879</ele>
        <time>2015-11-09T21:10:09Z</time>
      </trkpt>
      <trkpt lat="48.84032" lon="2.26591">
        <ele>47.400001525879</ele>
        <time>2015-11-09T21:10:12Z</time>
      </trkpt>
      <trkpt lat="48.84022" lon="2.26616">
        <ele>45.79999923706</ele>
        <time>2015-11-09T21:10:15Z</time>
      </trkpt>
      <trkpt lat="48.84011" lon="2.26641">
        <ele>43.400001525879</ele>
        <time>2015-11-09T21:10:18Z</time>
      </trkpt>
      <trkpt lat="48.84" lon="2.26665">
        <ele>42.599998474121</ele>
        <time>2015-11-09T21:10:21Z</time>
      </trkpt>
      <trkpt lat="48.83988" lon="2.26692">
        <ele>41.79999923706</ele>
        <time>2015-11-09T21:10:25Z</time>
      </trkpt>
      <trkpt lat="48.83978" lon="2.26716">
        <ele>40.599998474121</ele>
        <time>2015-11-09T21:10:29Z</time>
      </trkpt>
      <trkpt lat="48.83969" lon="2.26742">
        <ele>38</ele>
        <time>2015-11-09T21:10:33Z</time>
      </trkpt>
      <trkpt lat="48.83961" lon="2.26761">
        <ele>36.20000076294</ele>
        <time>2015-11-09T21:10:36Z</time>
      </trkpt>
      <trkpt lat="48.83949" lon="2.26785">
        <ele>33.79999923706</ele>
        <time>2015-11-09T21:10:40Z</time>
      </trkpt>
      <trkpt lat="48.83938" lon="2.26808">
        <ele>31.39999961853</ele>
        <time>2015-11-09T21:10:44Z</time>
      </trkpt>
      <trkpt lat="48.83928" lon="2.26825">
        <ele>29.799999237061</ele>
        <time>2015-11-09T21:10:47Z</time>
      </trkpt>
      <trkpt lat="48.83918" lon="2.26848">
        <ele>28.60000038147</ele>
        <time>2015-11-09T21:10:51Z</time>
      </trkpt>
      <trkpt lat="48.83908" lon="2.26871">
        <ele>27.39999961853</ele>
        <time>2015-11-09T21:10:55Z</time>
      </trkpt>
      <trkpt lat="48.83897" lon="2.26896">
        <ele>27.60000038147</ele>
        <time>2015-11-09T21:11:00Z</time>
      </trkpt>
      <trkpt lat="48.83884" lon="2.26922">
        <ele>29</ele>
        <time>2015-11-09T21:11:06Z</time>
      </trkpt>
      <trkpt lat="48.83872" lon="2.26943">
        <ele>31.200000762939</ele>
        <time>2015-11-09T21:11:12Z</time>
      </trkpt>
      <trkpt lat="48.83862" lon="2.26965">
        <ele>33.79999923706</ele>
        <time>2015-11-09T21:11:19Z</time>
      </trkpt>
      <trkpt lat="48.8386" lon="2.2697">
        <ele>34.400001525879</ele>
        <time>2015-11-09T21:11:22Z</time>
      </trkpt>
      <trkpt lat="48.83865" lon="2.26976">
        <ele>34.79999923706</ele>
        <time>2015-11-09T21:12:55Z</time>
      </trkpt>
      <trkpt lat="48.83867" lon="2.26985">
        <ele>35.599998474121</ele>
        <time>2015-11-09T21:12:59Z</time>
      </trkpt>
      <trkpt lat="48.83873" lon="2.26994">
        <ele>36.20000076294</ele>
        <time>2015-11-09T21:13:03Z</time>
      </trkpt>
      <trkpt lat="48.83889" lon="2.27009">
        <ele>37.599998474121</ele>
        <time>2015-11-09T21:13:11Z</time>
      </trkpt>
      <trkpt lat="48.83884" lon="2.27011">
        <ele>37.79999923706</ele>
        <time>2015-11-09T21:13:19Z</time>
      </trkpt>
      <trkpt lat="48.83895" lon="2.27033">
        <ele>40.400001525879</ele>
        <time>2015-11-09T21:13:29Z</time>
      </trkpt>
      <trkpt lat="48.83897" lon="2.27037">
        <ele>40.79999923706</ele>
        <time>2015-11-09T21:13:30Z</time>
      </trkpt>
      <trkpt lat="48.83913" lon="2.27059">
        <ele>42.79999923706</ele>
        <time>2015-11-09T21:13:36Z</time>
      </trkpt>
      <trkpt lat="48.83929" lon="2.2708">
        <ele>44.400001525879</ele>
        <time>2015-11-09T21:13:42Z</time>
      </trkpt>
      <trkpt lat="48.83943" lon="2.27094">
        <ele>44</ele>
        <time>2015-11-09T21:13:49Z</time>
      </trkpt>
      <trkpt lat="48.83944" lon="2.27101">
        <ele>43.79999923706</ele>
        <time>2015-11-09T21:13:53Z</time>
      </trkpt>
      <trkpt lat="48.83951" lon="2.27115">
        <ele>42.400001525879</ele>
        <time>2015-11-09T21:14:43Z</time>
      </trkpt>
      <trkpt lat="48.83959" lon="2.27116">
        <ele>41.599998474121</ele>
        <time>2015-11-09T21:15:22Z</time>
      </trkpt>
      <trkpt lat="48.83964" lon="2.27132">
        <ele>40.400001525879</ele>
        <time>2015-11-09T21:16:03Z</time>
      </trkpt>
      <trkpt lat="48.8396" lon="2.27135">
        <ele>40.79999923706</ele>
        <time>2015-11-09T21:16:09Z</time>
      </trkpt>
      <trkpt lat="48.83962" lon="2.27143">
        <ele>40.20000076294</ele>
        <time>2015-11-09T21:16:15Z</time>
      </trkpt>
      <trkpt lat="48.83962" lon="2.27168">
        <ele>39.599998474121</ele>
        <time>2015-11-09T21:16:25Z</time>
      </trkpt>
      <trkpt lat="48.83975" lon="2.27168">
        <ele>38.20000076294</ele>
        <time>2015-11-09T21:16:28Z</time>
      </trkpt>
      <trkpt lat="48.83979" lon="2.27172">
        <ele>38</ele>
        <time>2015-11-09T21:16:31Z</time>
      </trkpt>
      <trkpt lat="48.83982" lon="2.27172">
        <ele>37.599998474121</ele>
        <time>2015-11-09T21:16:34Z</time>
      </trkpt>
      <trkpt lat="48.83983" lon="2.27178">
        <ele>37.599998474121</ele>
        <time>2015-11-09T21:17:00Z</time>
      </trkpt>
      <trkpt lat="48.83994" lon="2.27167">
        <ele>36.20000076294</ele>
        <time>2015-11-09T21:17:14Z</time>
      </trkpt>
      <trkpt lat="48.84007" lon="2.27151">
        <ele>35</ele>
        <time>2015-11-09T21:17:38Z</time>
      </trkpt>
      <trkpt lat="48.8402" lon="2.27132">
        <ele>34</ele>
        <time>2015-11-09T21:17:44Z</time>
      </trkpt>
      <trkpt lat="48.84026" lon="2.2712">
        <ele>33.79999923706</ele>
        <time>2015-11-09T21:17:50Z</time>
      </trkpt>
      <trkpt lat="48.84027" lon="2.27114">
        <ele>34</ele>
        <time>2015-11-09T21:17:55Z</time>
      </trkpt>
      <trkpt lat="48.84028" lon="2.27112">
        <ele>34</ele>
        <time>2015-11-09T21:17:57Z</time>
      </trkpt>
      <trkpt lat="48.84032" lon="2.27126">
        <ele>33.400001525879</ele>
        <time>2015-11-09T21:18:07Z</time>
      </trkpt>
      <trkpt lat="48.84043" lon="2.27121">
        <ele>33</ele>
        <time>2015-11-09T21:18:12Z</time>
      </trkpt>
      <trkpt lat="48.8406" lon="2.27122">
        <ele>32.20000076294</ele>
        <time>2015-11-09T21:18:20Z</time>
      </trkpt>
      <trkpt lat="48.84078" lon="2.27137">
        <ele>31</ele>
        <time>2015-11-09T21:18:28Z</time>
      </trkpt>
      <trkpt lat="48.84094" lon="2.27152">
        <ele>29.799999237061</ele>
        <time>2015-11-09T21:18:34Z</time>
      </trkpt>
      <trkpt lat="48.84109" lon="2.27166">
        <ele>29.200000762939</ele>
        <time>2015-11-09T21:18:40Z</time>
      </trkpt>
      <trkpt lat="48.84126" lon="2.27178">
        <ele>30</ele>
        <time>2015-11-09T21:18:46Z</time>
      </trkpt>
      <trkpt lat="48.84141" lon="2.27192">
        <ele>31</ele>
        <time>2015-11-09T21:18:53Z</time>
      </trkpt>
      <trkpt lat="48.8416" lon="2.27195">
        <ele>31.39999961853</ele>
        <time>2015-11-09T21:19:00Z</time>
      </trkpt>
      <trkpt lat="48.84179" lon="2.27201">
        <ele>32.20000076294</ele>
        <time>2015-11-09T21:19:07Z</time>
      </trkpt>
      <trkpt lat="48.84197" lon="2.27216">
        <ele>32.79999923706</ele>
        <time>2015-11-09T21:19:15Z</time>
      </trkpt>
      <trkpt lat="48.84214" lon="2.27229">
        <ele>33.400001525879</ele>
        <time>2015-11-09T21:19:22Z</time>
      </trkpt>
      <trkpt lat="48.84231" lon="2.27244">
        <ele>34</ele>
        <time>2015-11-09T21:19:29Z</time>
      </trkpt>
      <trkpt lat="48.84247" lon="2.27264">
        <ele>33</ele>
        <time>2015-11-09T21:19:36Z</time>
      </trkpt>
      <trkpt lat="48.84257" lon="2.27291">
        <ele>31.39999961853</ele>
        <time>2015-11-09T21:19:43Z</time>
      </trkpt>
      <trkpt lat="48.84271" lon="2.27309">
        <ele>30.200000762939</ele>
        <time>2015-11-09T21:19:50Z</time>
      </trkpt>
      <trkpt lat="48.84288" lon="2.27325">
        <ele>29</ele>
        <time>2015-11-09T21:19:57Z</time>
      </trkpt>
      <trkpt lat="48.84306" lon="2.27341">
        <ele>28.799999237061</ele>
        <time>2015-11-09T21:20:03Z</time>
      </trkpt>
      <trkpt lat="48.84321" lon="2.27359">
        <ele>29.200000762939</ele>
        <time>2015-11-09T21:20:08Z</time>
      </trkpt>
      <trkpt lat="48.84338" lon="2.27376">
        <ele>29.39999961853</ele>
        <time>2015-11-09T21:20:13Z</time>
      </trkpt>
      <trkpt lat="48.84354" lon="2.27393">
        <ele>29.60000038147</ele>
        <time>2015-11-09T21:20:18Z</time>
      </trkpt>
      <trkpt lat="48.8437" lon="2.27408">
        <ele>29.60000038147</ele>
        <time>2015-11-09T21:20:27Z</time>
      </trkpt>
      <trkpt lat="48.84384" lon="2.27427">
        <ele>30.60000038147</ele>
        <time>2015-11-09T21:20:33Z</time>
      </trkpt>
      <trkpt lat="48.844" lon="2.27445">
        <ele>32</ele>
        <time>2015-11-09T21:20:38Z</time>
      </trkpt>
      <trkpt lat="48.84415" lon="2.27462">
        <ele>33.20000076294</ele>
        <time>2015-11-09T21:20:42Z</time>
      </trkpt>
      <trkpt lat="48.84433" lon="2.27478">
        <ele>34.400001525879</ele>
        <time>2015-11-09T21:20:46Z</time>
      </trkpt>
      <trkpt lat="48.8445" lon="2.27494">
        <ele>35</ele>
        <time>2015-11-09T21:20:50Z</time>
      </trkpt>
      <trkpt lat="48.84468" lon="2.27508">
        <ele>34.20000076294</ele>
        <time>2015-11-09T21:20:54Z</time>
      </trkpt>
      <trkpt lat="48.84487" lon="2.27524">
        <ele>33.20000076294</ele>
        <time>2015-11-09T21:20:59Z</time>
      </trkpt>
      <trkpt lat="48.84505" lon="2.27541">
        <ele>32.400001525879</ele>
        <time>2015-11-09T21:21:04Z</time>
      </trkpt>
      <trkpt lat="48.84525" lon="2.27558">
        <ele>31.39999961853</ele>
        <time>2015-11-09T21:21:09Z</time>
      </trkpt>
      <trkpt lat="48.84544" lon="2.27568">
        <ele>31</ele>
        <time>2015-11-09T21:21:14Z</time>
      </trkpt>
      <trkpt lat="48.84552" lon="2.27574">
        <ele>30.799999237061</ele>
        <time>2015-11-09T21:21:17Z</time>
      </trkpt>
      <trkpt lat="48.8456" lon="2.27585">
        <ele>31</ele>
        <time>2015-11-09T21:22:32Z</time>
      </trkpt>
      <trkpt lat="48.84576" lon="2.27598">
        <ele>31</ele>
        <time>2015-11-09T21:22:50Z</time>
      </trkpt>
      <trkpt lat="48.84592" lon="2.27615">
        <ele>31.200000762939</ele>
        <time>2015-11-09T21:22:57Z</time>
      </trkpt>
      <trkpt lat="48.84607" lon="2.27633">
        <ele>31.39999961853</ele>
        <time>2015-11-09T21:23:03Z</time>
      </trkpt>
      <trkpt lat="48.84624" lon="2.27651">
        <ele>31.60000038147</ele>
        <time>2015-11-09T21:23:09Z</time>
      </trkpt>
      <trkpt lat="48.8464" lon="2.27674">
        <ele>31.60000038147</ele>
        <time>2015-11-09T21:23:15Z</time>
      </trkpt>
      <trkpt lat="48.84656" lon="2.27695">
        <ele>31.39999961853</ele>
        <time>2015-11-09T21:23:20Z</time>
      </trkpt>
      <trkpt lat="48.8467" lon="2.27712">
        <ele>31</ele>
        <time>2015-11-09T21:23:24Z</time>
      </trkpt>
      <trkpt lat="48.84687" lon="2.27732">
        <ele>30.799999237061</ele>
        <time>2015-11-09T21:23:29Z</time>
      </trkpt>
      <trkpt lat="48.84701" lon="2.27755">
        <ele>30</ele>
        <time>2015-11-09T21:23:34Z</time>
      </trkpt>
      <trkpt lat="48.84714" lon="2.27779">
        <ele>29</ele>
        <time>2015-11-09T21:23:39Z</time>
      </trkpt>
      <trkpt lat="48.84729" lon="2.27801">
        <ele>27.60000038147</ele>
        <time>2015-11-09T21:23:44Z</time>
      </trkpt>
      <trkpt lat="48.84735" lon="2.2781">
        <ele>27</ele>
        <time>2015-11-09T21:23:46Z</time>
      </trkpt>
      <trkpt lat="48.84749" lon="2.27833">
        <ele>26</ele>
        <time>2015-11-09T21:23:51Z</time>
      </trkpt>
      <trkpt lat="48.84763" lon="2.27854">
        <ele>26.799999237061</ele>
        <time>2015-11-09T21:23:56Z</time>
      </trkpt>
      <trkpt lat="48.84777" lon="2.27874">
        <ele>27.60000038147</ele>
        <time>2015-11-09T21:24:01Z</time>
      </trkpt>
      <trkpt lat="48.84794" lon="2.27897">
        <ele>28.799999237061</ele>
        <time>2015-11-09T21:24:06Z</time>
      </trkpt>
      <trkpt lat="48.84808" lon="2.27916">
        <ele>29.799999237061</ele>
        <time>2015-11-09T21:24:10Z</time>
      </trkpt>
      <trkpt lat="48.84823" lon="2.27934">
        <ele>31.39999961853</ele>
        <time>2015-11-09T21:24:14Z</time>
      </trkpt>
      <trkpt lat="48.84826" lon="2.27938">
        <ele>31.799999237061</ele>
        <time>2015-11-09T21:24:15Z</time>
      </trkpt>
      <trkpt lat="48.84839" lon="2.27958">
        <ele>33.599998474121</ele>
        <time>2015-11-09T21:24:19Z</time>
      </trkpt>
      <trkpt lat="48.84853" lon="2.27976">
        <ele>35.20000076294</ele>
        <time>2015-11-09T21:24:23Z</time>
      </trkpt>
      <trkpt lat="48.84867" lon="2.27994">
        <ele>36.20000076294</ele>
        <time>2015-11-09T21:24:27Z</time>
      </trkpt>
      <trkpt lat="48.84873" lon="2.28003">
        <ele>36</ele>
        <time>2015-11-09T21:24:29Z</time>
      </trkpt>
      <trkpt lat="48.8488" lon="2.28012">
        <ele>35.599998474121</ele>
        <time>2015-11-09T21:24:31Z</time>
      </trkpt>
      <trkpt lat="48.84893" lon="2.28031">
        <ele>34.79999923706</ele>
        <time>2015-11-09T21:24:35Z</time>
      </trkpt>
      <trkpt lat="48.84896" lon="2.28036">
        <ele>34.599998474121</ele>
        <time>2015-11-09T21:24:36Z</time>
      </trkpt>
      <trkpt lat="48.84911" lon="2.28054">
        <ele>33.79999923706</ele>
        <time>2015-11-09T21:24:41Z</time>
      </trkpt>
      <trkpt lat="48.84917" lon="2.28061">
        <ele>33.400001525879</ele>
        <time>2015-11-09T21:24:45Z</time>
      </trkpt>
      <trkpt lat="48.84918" lon="2.28051">
        <ele>33.20000076294</ele>
        <time>2015-11-09T21:24:52Z</time>
      </trkpt>
      <trkpt lat="48.84936" lon="2.28067">
        <ele>32.20000076294</ele>
        <time>2015-11-09T21:24:59Z</time>
      </trkpt>
      <trkpt lat="48.8495" lon="2.28084">
        <ele>31.200000762939</ele>
        <time>2015-11-09T21:25:03Z</time>
      </trkpt>
      <trkpt lat="48.84967" lon="2.28099">
        <ele>30.39999961853</ele>
        <time>2015-11-09T21:25:07Z</time>
      </trkpt>
      <trkpt lat="48.84982" lon="2.28118">
        <ele>29.799999237061</ele>
        <time>2015-11-09T21:25:11Z</time>
      </trkpt>
      <trkpt lat="48.84993" lon="2.28144">
        <ele>29.200000762939</ele>
        <time>2015-11-09T21:25:15Z</time>
      </trkpt>
      <trkpt lat="48.85003" lon="2.28167">
        <ele>28.799999237061</ele>
        <time>2015-11-09T21:25:19Z</time>
      </trkpt>
      <trkpt lat="48.85018" lon="2.28189">
        <ele>29.39999961853</ele>
        <time>2015-11-09T21:25:24Z</time>
      </trkpt>
      <trkpt lat="48.85034" lon="2.28213">
        <ele>29.60000038147</ele>
        <time>2015-11-09T21:25:29Z</time>
      </trkpt>
      <trkpt lat="48.8504" lon="2.2823">
        <ele>30</ele>
        <time>2015-11-09T21:25:32Z</time>
      </trkpt>
      <trkpt lat="48.85043" lon="2.28241">
        <ele>30.200000762939</ele>
        <time>2015-11-09T21:25:34Z</time>
      </trkpt>
      <trkpt lat="48.85059" lon="2.28265">
        <ele>30.200000762939</ele>
        <time>2015-11-09T21:25:39Z</time>
      </trkpt>
      <trkpt lat="48.85066" lon="2.28275">
        <ele>30.200000762939</ele>
        <time>2015-11-09T21:25:41Z</time>
      </trkpt>
      <trkpt lat="48.85079" lon="2.28295">
        <ele>30.200000762939</ele>
        <time>2015-11-09T21:25:45Z</time>
      </trkpt>
      <trkpt lat="48.85092" lon="2.28315">
        <ele>30.200000762939</ele>
        <time>2015-11-09T21:25:49Z</time>
      </trkpt>
      <trkpt lat="48.85107" lon="2.28335">
        <ele>30.200000762939</ele>
        <time>2015-11-09T21:25:53Z</time>
      </trkpt>
      <trkpt lat="48.85114" lon="2.28344">
        <ele>30.200000762939</ele>
        <time>2015-11-09T21:25:55Z</time>
      </trkpt>
      <trkpt lat="48.85127" lon="2.28363">
        <ele>30.39999961853</ele>
        <time>2015-11-09T21:25:59Z</time>
      </trkpt>
      <trkpt lat="48.85142" lon="2.28382">
        <ele>30.39999961853</ele>
        <time>2015-11-09T21:26:03Z</time>
      </trkpt>
      <trkpt lat="48.8515" lon="2.28391">
        <ele>30.39999961853</ele>
        <time>2015-11-09T21:26:05Z</time>
      </trkpt>
      <trkpt lat="48.85167" lon="2.28405">
        <ele>30</ele>
        <time>2015-11-09T21:26:09Z</time>
      </trkpt>
      <trkpt lat="48.85183" lon="2.28426">
        <ele>30</ele>
        <time>2015-11-09T21:26:13Z</time>
      </trkpt>
      <trkpt lat="48.85199" lon="2.28448">
        <ele>30.200000762939</ele>
        <time>2015-11-09T21:26:17Z</time>
      </trkpt>
      <trkpt lat="48.85212" lon="2.28464">
        <ele>30.39999961853</ele>
        <time>2015-11-09T21:26:20Z</time>
      </trkpt>
      <trkpt lat="48.85224" lon="2.28475">
        <ele>30.200000762939</ele>
        <time>2015-11-09T21:26:23Z</time>
      </trkpt>
      <trkpt lat="48.85232" lon="2.28485">
        <ele>30.39999961853</ele>
        <time>2015-11-09T21:26:26Z</time>
      </trkpt>
      <trkpt lat="48.85245" lon="2.28505">
        <ele>31</ele>
        <time>2015-11-09T21:26:30Z</time>
      </trkpt>
      <trkpt lat="48.85253" lon="2.28522">
        <ele>32.20000076294</ele>
        <time>2015-11-09T21:26:33Z</time>
      </trkpt>
      <trkpt lat="48.85265" lon="2.28545">
        <ele>33.400001525879</ele>
        <time>2015-11-09T21:26:37Z</time>
      </trkpt>
      <trkpt lat="48.85267" lon="2.28551">
        <ele>33.79999923706</ele>
        <time>2015-11-09T21:26:38Z</time>
      </trkpt>
      <trkpt lat="48.85282" lon="2.28574">
        <ele>34.79999923706</ele>
        <time>2015-11-09T21:26:43Z</time>
      </trkpt>
      <trkpt lat="48.85297" lon="2.28598">
        <ele>35.20000076294</ele>
        <time>2015-11-09T21:26:48Z</time>
      </trkpt>
      <trkpt lat="48.85313" lon="2.28619">
        <ele>35.400001525879</ele>
        <time>2015-11-09T21:26:53Z</time>
      </trkpt>
      <trkpt lat="48.85326" lon="2.28637">
        <ele>35.400001525879</ele>
        <time>2015-11-09T21:26:57Z</time>
      </trkpt>
      <trkpt lat="48.85337" lon="2.28658">
        <ele>35.79999923706</ele>
        <time>2015-11-09T21:27:01Z</time>
      </trkpt>
      <trkpt lat="48.85341" lon="2.28663">
        <ele>35.79999923706</ele>
        <time>2015-11-09T21:27:02Z</time>
      </trkpt>
      <trkpt lat="48.85358" lon="2.28681">
        <ele>36</ele>
        <time>2015-11-09T21:27:06Z</time>
      </trkpt>
      <trkpt lat="48.85373" lon="2.28701">
        <ele>35.599998474121</ele>
        <time>2015-11-09T21:27:10Z</time>
      </trkpt>
      <trkpt lat="48.85387" lon="2.28721">
        <ele>35.400001525879</ele>
        <time>2015-11-09T21:27:14Z</time>
      </trkpt>
      <trkpt lat="48.85394" lon="2.28729">
        <ele>35.20000076294</ele>
        <time>2015-11-09T21:27:16Z</time>
      </trkpt>
      <trkpt lat="48.85406" lon="2.28745">
        <ele>35</ele>
        <time>2015-11-09T21:27:20Z</time>
      </trkpt>
      <trkpt lat="48.8542" lon="2.28765">
        <ele>35.79999923706</ele>
        <time>2015-11-09T21:27:25Z</time>
      </trkpt>
      <trkpt lat="48.8543" lon="2.28779">
        <ele>36.400001525879</ele>
        <time>2015-11-09T21:27:29Z</time>
      </trkpt>
      <trkpt lat="48.85444" lon="2.28801">
        <ele>37.599998474121</ele>
        <time>2015-11-09T21:27:35Z</time>
      </trkpt>
      <trkpt lat="48.85447" lon="2.28803">
        <ele>37.599998474121</ele>
        <time>2015-11-09T21:27:36Z</time>
      </trkpt>
      <trkpt lat="48.85458" lon="2.28817">
        <ele>38.400001525879</ele>
        <time>2015-11-09T21:27:41Z</time>
      </trkpt>
      <trkpt lat="48.85465" lon="2.28826">
        <ele>39</ele>
        <time>2015-11-09T21:27:45Z</time>
      </trkpt>
      <trkpt lat="48.85476" lon="2.28843">
        <ele>39.20000076294</ele>
        <time>2015-11-09T21:28:09Z</time>
      </trkpt>
      <trkpt lat="48.85481" lon="2.28854">
        <ele>39.400001525879</ele>
        <time>2015-11-09T21:28:16Z</time>
      </trkpt>
      <trkpt lat="48.85486" lon="2.28854">
        <ele>39</ele>
        <time>2015-11-09T21:28:21Z</time>
      </trkpt>
      <trkpt lat="48.85501" lon="2.28862">
        <ele>38.400001525879</ele>
        <time>2015-11-09T21:28:54Z</time>
      </trkpt>
      <trkpt lat="48.85518" lon="2.28876">
        <ele>38</ele>
        <time>2015-11-09T21:29:02Z</time>
      </trkpt>
      <trkpt lat="48.85534" lon="2.28887">
        <ele>36.400001525879</ele>
        <time>2015-11-09T21:29:54Z</time>
      </trkpt>
      <trkpt lat="48.85552" lon="2.28897">
        <ele>34.20000076294</ele>
        <time>2015-11-09T21:30:00Z</time>
      </trkpt>
      <trkpt lat="48.8557" lon="2.28907">
        <ele>32</ele>
        <time>2015-11-09T21:30:05Z</time>
      </trkpt>
      <trkpt lat="48.85589" lon="2.28914">
        <ele>29.39999961853</ele>
        <time>2015-11-09T21:30:11Z</time>
      </trkpt>
      <trkpt lat="48.85607" lon="2.28921">
        <ele>27.60000038147</ele>
        <time>2015-11-09T21:30:19Z</time>
      </trkpt>
      <trkpt lat="48.85621" lon="2.28924">
        <ele>28.799999237061</ele>
        <time>2015-11-09T21:30:49Z</time>
      </trkpt>
      <trkpt lat="48.85643" lon="2.28928">
        <ele>31</ele>
        <time>2015-11-09T21:30:55Z</time>
      </trkpt>
      <trkpt lat="48.85663" lon="2.28934">
        <ele>33.20000076294</ele>
        <time>2015-11-09T21:31:00Z</time>
      </trkpt>
      <trkpt lat="48.85682" lon="2.2894">
        <ele>35.400001525879</ele>
        <time>2015-11-09T21:31:05Z</time>
      </trkpt>
      <trkpt lat="48.85701" lon="2.2895">
        <ele>35.400001525879</ele>
        <time>2015-11-09T21:31:10Z</time>
      </trkpt>
      <trkpt lat="48.85719" lon="2.28966">
        <ele>34.400001525879</ele>
        <time>2015-11-09T21:31:16Z</time>
      </trkpt>
      <trkpt lat="48.85735" lon="2.28982">
        <ele>33.599998474121</ele>
        <time>2015-11-09T21:31:21Z</time>
      </trkpt>
      <trkpt lat="48.85752" lon="2.28997">
        <ele>32.79999923706</ele>
        <time>2015-11-09T21:31:26Z</time>
      </trkpt>
      <trkpt lat="48.85766" lon="2.29014">
        <ele>32.20000076294</ele>
        <time>2015-11-09T21:31:31Z</time>
      </trkpt>
      <trkpt lat="48.85781" lon="2.29031">
        <ele>31.60000038147</ele>
        <time>2015-11-09T21:31:36Z</time>
      </trkpt>
      <trkpt lat="48.85797" lon="2.29051">
        <ele>31.200000762939</ele>
        <time>2015-11-09T21:31:42Z</time>
      </trkpt>
      <trkpt lat="48.85812" lon="2.2907">
        <ele>30.799999237061</ele>
        <time>2015-11-09T21:31:48Z</time>
      </trkpt>
      <trkpt lat="48.85827" lon="2.2909">
        <ele>30.39999961853</ele>
        <time>2015-11-09T21:31:54Z</time>
      </trkpt>
      <trkpt lat="48.85841" lon="2.29112">
        <ele>29.799999237061</ele>
        <time>2015-11-09T21:32:00Z</time>
      </trkpt>
      <trkpt lat="48.85856" lon="2.29131">
        <ele>29.200000762939</ele>
        <time>2015-11-09T21:32:06Z</time>
      </trkpt>
      <trkpt lat="48.85869" lon="2.29149">
        <ele>29.39999961853</ele>
        <time>2015-11-09T21:32:11Z</time>
      </trkpt>
      <trkpt lat="48.85884" lon="2.29168">
        <ele>29.799999237061</ele>
        <time>2015-11-09T21:32:17Z</time>
      </trkpt>
      <trkpt lat="48.85893" lon="2.2919">
        <ele>30.60000038147</ele>
        <time>2015-11-09T21:32:23Z</time>
      </trkpt>
      <trkpt lat="48.859" lon="2.29216">
        <ele>31.799999237061</ele>
        <time>2015-11-09T21:32:30Z</time>
      </trkpt>
      <trkpt lat="48.85908" lon="2.29227">
        <ele>32.400001525879</ele>
        <time>2015-11-09T21:32:33Z</time>
      </trkpt>
      <trkpt lat="48.85921" lon="2.29249">
        <ele>33.599998474121</ele>
        <time>2015-11-09T21:32:39Z</time>
      </trkpt>
      <trkpt lat="48.85936" lon="2.2927">
        <ele>34.20000076294</ele>
        <time>2015-11-09T21:32:45Z</time>
      </trkpt>
      <trkpt lat="48.85951" lon="2.2929">
        <ele>34.400001525879</ele>
        <time>2015-11-09T21:32:51Z</time>
      </trkpt>
      <trkpt lat="48.85969" lon="2.29308">
        <ele>34</ele>
        <time>2015-11-09T21:32:56Z</time>
      </trkpt>
      <trkpt lat="48.85982" lon="2.29329">
        <ele>34.400001525879</ele>
        <time>2015-11-09T21:33:02Z</time>
      </trkpt>
      <trkpt lat="48.85995" lon="2.29347">
        <ele>33.79999923706</ele>
        <time>2015-11-09T21:33:11Z</time>
      </trkpt>
      <trkpt lat="48.86008" lon="2.29362">
        <ele>33.20000076294</ele>
        <time>2015-11-09T21:33:34Z</time>
      </trkpt>
      <trkpt lat="48.86019" lon="2.29376">
        <ele>32.599998474121</ele>
        <time>2015-11-09T21:33:42Z</time>
      </trkpt>
      <trkpt lat="48.86023" lon="2.29381">
        <ele>32.400001525879</ele>
        <time>2015-11-09T21:33:46Z</time>
      </trkpt>
      <trkpt lat="48.86037" lon="2.29398">
        <ele>32.20000076294</ele>
        <time>2015-11-09T21:33:59Z</time>
      </trkpt>
      <trkpt lat="48.86053" lon="2.29418">
        <ele>32.20000076294</ele>
        <time>2015-11-09T21:34:06Z</time>
      </trkpt>
      <trkpt lat="48.86068" lon="2.29436">
        <ele>32.20000076294</ele>
        <time>2015-11-09T21:34:12Z</time>
      </trkpt>
      <trkpt lat="48.86083" lon="2.29455">
        <ele>32.20000076294</ele>
        <time>2015-11-09T21:34:18Z</time>
      </trkpt>
      <trkpt lat="48.86098" lon="2.29472">
        <ele>32.20000076294</ele>
        <time>2015-11-09T21:34:24Z</time>
      </trkpt>
      <trkpt lat="48.86111" lon="2.29492">
        <ele>32.599998474121</ele>
        <time>2015-11-09T21:34:30Z</time>
      </trkpt>
      <trkpt lat="48.86125" lon="2.29516">
        <ele>32.20000076294</ele>
        <time>2015-11-09T21:34:37Z</time>
      </trkpt>
      <trkpt lat="48.86137" lon="2.29538">
        <ele>31.799999237061</ele>
        <time>2015-11-09T21:34:43Z</time>
      </trkpt>
      <trkpt lat="48.86148" lon="2.2956">
        <ele>31.60000038147</ele>
        <time>2015-11-09T21:34:49Z</time>
      </trkpt>
      <trkpt lat="48.86157" lon="2.29584">
        <ele>31.39999961853</ele>
        <time>2015-11-09T21:34:55Z</time>
      </trkpt>
      <trkpt lat="48.86164" lon="2.29595">
        <ele>31.39999961853</ele>
        <time>2015-11-09T21:34:59Z</time>
      </trkpt>
      <trkpt lat="48.86174" lon="2.29604">
        <ele>31</ele>
        <time>2015-11-09T21:35:04Z</time>
      </trkpt>
      <trkpt lat="48.86182" lon="2.2963">
        <ele>31.39999961853</ele>
        <time>2015-11-09T21:35:11Z</time>
      </trkpt>
      <trkpt lat="48.86196" lon="2.29655">
        <ele>31.39999961853</ele>
        <time>2015-11-09T21:35:18Z</time>
      </trkpt>
      <trkpt lat="48.86205" lon="2.29679">
        <ele>31</ele>
        <time>2015-11-09T21:35:24Z</time>
      </trkpt>
      <trkpt lat="48.86205" lon="2.29707">
        <ele>31.200000762939</ele>
        <time>2015-11-09T21:35:30Z</time>
      </trkpt>
      <trkpt lat="48.8621" lon="2.29736">
        <ele>31.200000762939</ele>
        <time>2015-11-09T21:35:39Z</time>
      </trkpt>
      <trkpt lat="48.86214" lon="2.29744">
        <ele>31</ele>
        <time>2015-11-09T21:35:42Z</time>
      </trkpt>
      <trkpt lat="48.86213" lon="2.29754">
        <ele>31</ele>
        <time>2015-11-09T21:35:47Z</time>
      </trkpt>
      <trkpt lat="48.86212" lon="2.29757">
        <ele>31.200000762939</ele>
        <time>2015-11-09T21:35:51Z</time>
      </trkpt>
      <trkpt lat="48.86219" lon="2.29784">
        <ele>30.200000762939</ele>
        <time>2015-11-09T21:36:00Z</time>
      </trkpt>
      <trkpt lat="48.86228" lon="2.29809">
        <ele>28.799999237061</ele>
        <time>2015-11-09T21:36:06Z</time>
      </trkpt>
      <trkpt lat="48.86236" lon="2.29837">
        <ele>27.799999237061</ele>
        <time>2015-11-09T21:36:12Z</time>
      </trkpt>
      <trkpt lat="48.86245" lon="2.29864">
        <ele>27.39999961853</ele>
        <time>2015-11-09T21:36:18Z</time>
      </trkpt>
      <trkpt lat="48.86252" lon="2.29891">
        <ele>27</ele>
        <time>2015-11-09T21:36:24Z</time>
      </trkpt>
      <trkpt lat="48.86256" lon="2.29907">
        <ele>27.200000762939</ele>
        <time>2015-11-09T21:36:29Z</time>
      </trkpt>
      <trkpt lat="48.8626" lon="2.2992">
        <ele>27.799999237061</ele>
        <time>2015-11-09T21:36:35Z</time>
      </trkpt>
      <trkpt lat="48.86267" lon="2.29945">
        <ele>30.200000762939</ele>
        <time>2015-11-09T21:36:45Z</time>
      </trkpt>
      <trkpt lat="48.86278" lon="2.2997">
        <ele>32.79999923706</ele>
        <time>2015-11-09T21:36:52Z</time>
      </trkpt>
      <trkpt lat="48.86282" lon="2.29999">
        <ele>35.79999923706</ele>
        <time>2015-11-09T21:36:59Z</time>
      </trkpt>
      <trkpt lat="48.86284" lon="2.30027">
        <ele>35.79999923706</ele>
        <time>2015-11-09T21:37:06Z</time>
      </trkpt>
      <trkpt lat="48.86285" lon="2.30055">
        <ele>36.599998474121</ele>
        <time>2015-11-09T21:37:14Z</time>
      </trkpt>
      <trkpt lat="48.86289" lon="2.30084">
        <ele>37</ele>
        <time>2015-11-09T21:37:22Z</time>
      </trkpt>
      <trkpt lat="48.8629" lon="2.30117">
        <ele>35.400001525879</ele>
        <time>2015-11-09T21:37:28Z</time>
      </trkpt>
      <trkpt lat="48.86291" lon="2.30148">
        <ele>33.400001525879</ele>
        <time>2015-11-09T21:37:33Z</time>
      </trkpt>
      <trkpt lat="48.86293" lon="2.3018">
        <ele>32.599998474121</ele>
        <time>2015-11-09T21:37:38Z</time>
      </trkpt>
      <trkpt lat="48.86296" lon="2.30211">
        <ele>34</ele>
        <time>2015-11-09T21:37:43Z</time>
      </trkpt>
      <trkpt lat="48.86294" lon="2.30244">
        <ele>36.400001525879</ele>
        <time>2015-11-09T21:37:48Z</time>
      </trkpt>
      <trkpt lat="48.86294" lon="2.30274">
        <ele>36.20000076294</ele>
        <time>2015-11-09T21:37:52Z</time>
      </trkpt>
      <trkpt lat="48.86293" lon="2.30302">
        <ele>37.599998474121</ele>
        <time>2015-11-09T21:37:56Z</time>
      </trkpt>
      <trkpt lat="48.86293" lon="2.30329">
        <ele>39</ele>
        <time>2015-11-09T21:38:00Z</time>
      </trkpt>
      <trkpt lat="48.86293" lon="2.30357">
        <ele>39.400001525879</ele>
        <time>2015-11-09T21:38:04Z</time>
      </trkpt>
      <trkpt lat="48.86293" lon="2.30386">
        <ele>40.400001525879</ele>
        <time>2015-11-09T21:38:08Z</time>
      </trkpt>
      <trkpt lat="48.86294" lon="2.30417">
        <ele>41.20000076294</ele>
        <time>2015-11-09T21:38:12Z</time>
      </trkpt>
      <trkpt lat="48.86293" lon="2.3045">
        <ele>39.20000076294</ele>
        <time>2015-11-09T21:38:16Z</time>
      </trkpt>
      <trkpt lat="48.86291" lon="2.30482">
        <ele>36.400001525879</ele>
        <time>2015-11-09T21:38:20Z</time>
      </trkpt>
      <trkpt lat="48.86292" lon="2.30503">
        <ele>34.79999923706</ele>
        <time>2015-11-09T21:38:23Z</time>
      </trkpt>
      <trkpt lat="48.86292" lon="2.30535">
        <ele>34.400001525879</ele>
        <time>2015-11-09T21:38:27Z</time>
      </trkpt>
      <trkpt lat="48.86292" lon="2.30543">
        <ele>34.20000076294</ele>
        <time>2015-11-09T21:38:28Z</time>
      </trkpt>
      <trkpt lat="48.86291" lon="2.30567">
        <ele>33.599998474121</ele>
        <time>2015-11-09T21:38:31Z</time>
      </trkpt>
      <trkpt lat="48.86293" lon="2.30589">
        <ele>34</ele>
        <time>2015-11-09T21:38:35Z</time>
      </trkpt>
      <trkpt lat="48.8629" lon="2.30622">
        <ele>35</ele>
        <time>2015-11-09T21:38:41Z</time>
      </trkpt>
      <trkpt lat="48.86291" lon="2.3065">
        <ele>34.79999923706</ele>
        <time>2015-11-09T21:38:45Z</time>
      </trkpt>
      <trkpt lat="48.86292" lon="2.30665">
        <ele>35</ele>
        <time>2015-11-09T21:38:47Z</time>
      </trkpt>
      <trkpt lat="48.86291" lon="2.30696">
        <ele>36.79999923706</ele>
        <time>2015-11-09T21:38:51Z</time>
      </trkpt>
      <trkpt lat="48.86292" lon="2.30728">
        <ele>37.20000076294</ele>
        <time>2015-11-09T21:38:55Z</time>
      </trkpt>
      <trkpt lat="48.86294" lon="2.30761">
        <ele>36.400001525879</ele>
        <time>2015-11-09T21:38:59Z</time>
      </trkpt>
      <trkpt lat="48.86295" lon="2.30794">
        <ele>37.20000076294</ele>
        <time>2015-11-09T21:39:03Z</time>
      </trkpt>
      <trkpt lat="48.86296" lon="2.3083">
        <ele>39.20000076294</ele>
        <time>2015-11-09T21:39:07Z</time>
      </trkpt>
      <trkpt lat="48.86298" lon="2.30858">
        <ele>39.400001525879</ele>
        <time>2015-11-09T21:39:10Z</time>
      </trkpt>
      <trkpt lat="48.86297" lon="2.30886">
        <ele>40.79999923706</ele>
        <time>2015-11-09T21:39:13Z</time>
      </trkpt>
      <trkpt lat="48.86298" lon="2.30896">
        <ele>41.20000076294</ele>
        <time>2015-11-09T21:39:14Z</time>
      </trkpt>
      <trkpt lat="48.86299" lon="2.30924">
        <ele>40.79999923706</ele>
        <time>2015-11-09T21:39:17Z</time>
      </trkpt>
      <trkpt lat="48.86299" lon="2.30953">
        <ele>39</ele>
        <time>2015-11-09T21:39:20Z</time>
      </trkpt>
      <trkpt lat="48.86299" lon="2.30963">
        <ele>38.79999923706</ele>
        <time>2015-11-09T21:39:21Z</time>
      </trkpt>
      <trkpt lat="48.86302" lon="2.30996">
        <ele>37.400001525879</ele>
        <time>2015-11-09T21:39:24Z</time>
      </trkpt>
      <trkpt lat="48.86302" lon="2.31007">
        <ele>38</ele>
        <time>2015-11-09T21:39:25Z</time>
      </trkpt>
      <trkpt lat="48.86303" lon="2.31041">
        <ele>37.79999923706</ele>
        <time>2015-11-09T21:39:28Z</time>
      </trkpt>
      <trkpt lat="48.86306" lon="2.31076">
        <ele>35.400001525879</ele>
        <time>2015-11-09T21:39:31Z</time>
      </trkpt>
      <trkpt lat="48.86308" lon="2.31109">
        <ele>34.79999923706</ele>
        <time>2015-11-09T21:39:34Z</time>
      </trkpt>
      <trkpt lat="48.86312" lon="2.31142">
        <ele>33</ele>
        <time>2015-11-09T21:39:37Z</time>
      </trkpt>
      <trkpt lat="48.86312" lon="2.31153">
        <ele>32.20000076294</ele>
        <time>2015-11-09T21:39:38Z</time>
      </trkpt>
      <trkpt lat="48.86313" lon="2.31186">
        <ele>31.799999237061</ele>
        <time>2015-11-09T21:39:41Z</time>
      </trkpt>
      <trkpt lat="48.86313" lon="2.31218">
        <ele>31.799999237061</ele>
        <time>2015-11-09T21:39:44Z</time>
      </trkpt>
      <trkpt lat="48.86313" lon="2.3125">
        <ele>31.60000038147</ele>
        <time>2015-11-09T21:39:47Z</time>
      </trkpt>
      <trkpt lat="48.86314" lon="2.31282">
        <ele>32.400001525879</ele>
        <time>2015-11-09T21:39:50Z</time>
      </trkpt>
      <trkpt lat="48.86316" lon="2.31314">
        <ele>32.400001525879</ele>
        <time>2015-11-09T21:39:53Z</time>
      </trkpt>
      <trkpt lat="48.86318" lon="2.31344">
        <ele>33.400001525879</ele>
        <time>2015-11-09T21:39:56Z</time>
      </trkpt>
      <trkpt lat="48.86321" lon="2.31378">
        <ele>35.79999923706</ele>
        <time>2015-11-09T21:40:00Z</time>
      </trkpt>
      <trkpt lat="48.86323" lon="2.31413">
        <ele>34.400001525879</ele>
        <time>2015-11-09T21:40:03Z</time>
      </trkpt>
      <trkpt lat="48.86322" lon="2.31445">
        <ele>32.79999923706</ele>
        <time>2015-11-09T21:40:06Z</time>
      </trkpt>
      <trkpt lat="48.86324" lon="2.31476">
        <ele>33</ele>
        <time>2015-11-09T21:40:09Z</time>
      </trkpt>
      <trkpt lat="48.86325" lon="2.31507">
        <ele>32.599998474121</ele>
        <time>2015-11-09T21:40:12Z</time>
      </trkpt>
      <trkpt lat="48.86327" lon="2.3154">
        <ele>27</ele>
        <time>2015-11-09T21:40:15Z</time>
      </trkpt>
      <trkpt lat="48.86326" lon="2.31573">
        <ele>26.799999237061</ele>
        <time>2015-11-09T21:40:18Z</time>
      </trkpt>
      <trkpt lat="48.86327" lon="2.31584">
        <ele>26.799999237061</ele>
        <time>2015-11-09T21:40:19Z</time>
      </trkpt>
      <trkpt lat="48.86326" lon="2.31617">
        <ele>25</ele>
        <time>2015-11-09T21:40:22Z</time>
      </trkpt>
      <trkpt lat="48.86325" lon="2.3165">
        <ele>23.200000762939</ele>
        <time>2015-11-09T21:40:25Z</time>
      </trkpt>
      <trkpt lat="48.86325" lon="2.31683">
        <ele>31.39999961853</ele>
        <time>2015-11-09T21:40:28Z</time>
      </trkpt>
      <trkpt lat="48.86326" lon="2.31716">
        <ele>46.599998474121</ele>
        <time>2015-11-09T21:40:31Z</time>
      </trkpt>
      <trkpt lat="48.86327" lon="2.31748">
        <ele>48.20000076294</ele>
        <time>2015-11-09T21:40:34Z</time>
      </trkpt>
      <trkpt lat="48.86329" lon="2.3178">
        <ele>44.79999923706</ele>
        <time>2015-11-09T21:40:37Z</time>
      </trkpt>
      <trkpt lat="48.86327" lon="2.3179">
        <ele>43.20000076294</ele>
        <time>2015-11-09T21:40:38Z</time>
      </trkpt>
      <trkpt lat="48.86321" lon="2.31822">
        <ele>39.400001525879</ele>
        <time>2015-11-09T21:40:41Z</time>
      </trkpt>
      <trkpt lat="48.86313" lon="2.31844">
        <ele>35</ele>
        <time>2015-11-09T21:40:43Z</time>
      </trkpt>
      <trkpt lat="48.86304" lon="2.31873">
        <ele>29.799999237061</ele>
        <time>2015-11-09T21:40:46Z</time>
      </trkpt>
      <trkpt lat="48.86294" lon="2.31903">
        <ele>31</ele>
        <time>2015-11-09T21:40:49Z</time>
      </trkpt>
      <trkpt lat="48.86283" lon="2.31933">
        <ele>32.20000076294</ele>
        <time>2015-11-09T21:40:52Z</time>
      </trkpt>
      <trkpt lat="48.86273" lon="2.31964">
        <ele>31.799999237061</ele>
        <time>2015-11-09T21:40:55Z</time>
      </trkpt>
      <trkpt lat="48.8627" lon="2.31973">
        <ele>31.799999237061</ele>
        <time>2015-11-09T21:40:56Z</time>
      </trkpt>
      <trkpt lat="48.8626" lon="2.32001">
        <ele>32.79999923706</ele>
        <time>2015-11-09T21:40:59Z</time>
      </trkpt>
      <trkpt lat="48.86252" lon="2.32027">
        <ele>34</ele>
        <time>2015-11-09T21:41:02Z</time>
      </trkpt>
      <trkpt lat="48.86245" lon="2.32055">
        <ele>35</ele>
        <time>2015-11-09T21:41:05Z</time>
      </trkpt>
      <trkpt lat="48.86238" lon="2.32083">
        <ele>36.79999923706</ele>
        <time>2015-11-09T21:41:08Z</time>
      </trkpt>
      <trkpt lat="48.86232" lon="2.32101">
        <ele>36.79999923706</ele>
        <time>2015-11-09T21:41:10Z</time>
      </trkpt>
      <trkpt lat="48.86224" lon="2.32129">
        <ele>36.599998474121</ele>
        <time>2015-11-09T21:41:13Z</time>
      </trkpt>
      <trkpt lat="48.86218" lon="2.32147">
        <ele>36</ele>
        <time>2015-11-09T21:41:15Z</time>
      </trkpt>
      <trkpt lat="48.8621" lon="2.32176">
        <ele>36.400001525879</ele>
        <time>2015-11-09T21:41:18Z</time>
      </trkpt>
      <trkpt lat="48.86206" lon="2.32184">
        <ele>36.79999923706</ele>
        <time>2015-11-09T21:41:19Z</time>
      </trkpt>
      <trkpt lat="48.86197" lon="2.32211">
        <ele>35.20000076294</ele>
        <time>2015-11-09T21:41:22Z</time>
      </trkpt>
      <trkpt lat="48.86187" lon="2.32239">
        <ele>33.79999923706</ele>
        <time>2015-11-09T21:41:25Z</time>
      </trkpt>
      <trkpt lat="48.86178" lon="2.32267">
        <ele>33.400001525879</ele>
        <time>2015-11-09T21:41:28Z</time>
      </trkpt>
      <trkpt lat="48.86175" lon="2.32277">
        <ele>33.400001525879</ele>
        <time>2015-11-09T21:41:29Z</time>
      </trkpt>
      <trkpt lat="48.86167" lon="2.32306">
        <ele>33</ele>
        <time>2015-11-09T21:41:32Z</time>
      </trkpt>
      <trkpt lat="48.86158" lon="2.32336">
        <ele>35</ele>
        <time>2015-11-09T21:41:35Z</time>
      </trkpt>
      <trkpt lat="48.8615" lon="2.32367">
        <ele>35.400001525879</ele>
        <time>2015-11-09T21:41:38Z</time>
      </trkpt>
      <trkpt lat="48.86141" lon="2.32398">
        <ele>34.599998474121</ele>
        <time>2015-11-09T21:41:41Z</time>
      </trkpt>
      <trkpt lat="48.86133" lon="2.32428">
        <ele>34.79999923706</ele>
        <time>2015-11-09T21:41:44Z</time>
      </trkpt>
      <trkpt lat="48.86124" lon="2.3246">
        <ele>35</ele>
        <time>2015-11-09T21:41:47Z</time>
      </trkpt>
      <trkpt lat="48.86115" lon="2.32493">
        <ele>34.599998474121</ele>
        <time>2015-11-09T21:41:50Z</time>
      </trkpt>
      <trkpt lat="48.86106" lon="2.32524">
        <ele>33.79999923706</ele>
        <time>2015-11-09T21:41:53Z</time>
      </trkpt>
      <trkpt lat="48.86097" lon="2.32553">
        <ele>32.79999923706</ele>
        <time>2015-11-09T21:41:56Z</time>
      </trkpt>
      <trkpt lat="48.86089" lon="2.32582">
        <ele>34.20000076294</ele>
        <time>2015-11-09T21:41:59Z</time>
      </trkpt>
      <trkpt lat="48.8608" lon="2.32613">
        <ele>35.20000076294</ele>
        <time>2015-11-09T21:42:02Z</time>
      </trkpt>
      <trkpt lat="48.86071" lon="2.32644">
        <ele>36.599998474121</ele>
        <time>2015-11-09T21:42:05Z</time>
      </trkpt>
      <trkpt lat="48.86062" lon="2.32674">
        <ele>38.599998474121</ele>
        <time>2015-11-09T21:42:08Z</time>
      </trkpt>
      <trkpt lat="48.86052" lon="2.32703">
        <ele>39.79999923706</ele>
        <time>2015-11-09T21:42:11Z</time>
      </trkpt>
      <trkpt lat="48.86042" lon="2.32731">
        <ele>39</ele>
        <time>2015-11-09T21:42:14Z</time>
      </trkpt>
      <trkpt lat="48.86032" lon="2.32754">
        <ele>39.400001525879</ele>
        <time>2015-11-09T21:42:17Z</time>
      </trkpt>
      <trkpt lat="48.86022" lon="2.32779">
        <ele>39.20000076294</ele>
        <time>2015-11-09T21:42:21Z</time>
      </trkpt>
      <trkpt lat="48.8602" lon="2.32784">
        <ele>39</ele>
        <time>2015-11-09T21:42:22Z</time>
      </trkpt>
      <trkpt lat="48.86012" lon="2.3281">
        <ele>38.20000076294</ele>
        <time>2015-11-09T21:42:28Z</time>
      </trkpt>
      <trkpt lat="48.86004" lon="2.32825">
        <ele>38.599998474121</ele>
        <time>2015-11-09T21:42:32Z</time>
      </trkpt>
      <trkpt lat="48.85992" lon="2.32853">
        <ele>40.79999923706</ele>
        <time>2015-11-09T21:42:38Z</time>
      </trkpt>
      <trkpt lat="48.85983" lon="2.32878">
        <ele>42.599998474121</ele>
        <time>2015-11-09T21:42:43Z</time>
      </trkpt>
      <trkpt lat="48.85975" lon="2.32904">
        <ele>42.20000076294</ele>
        <time>2015-11-09T21:42:48Z</time>
      </trkpt>
      <trkpt lat="48.85967" lon="2.32932">
        <ele>42.599998474121</ele>
        <time>2015-11-09T21:42:55Z</time>
      </trkpt>
      <trkpt lat="48.85967" lon="2.32934">
        <ele>42.599998474121</ele>
        <time>2015-11-09T21:42:56Z</time>
      </trkpt>
      <trkpt lat="48.85969" lon="2.3294">
        <ele>42.599998474121</ele>
        <time>2015-11-09T21:43:00Z</time>
      </trkpt>
      <trkpt lat="48.85968" lon="2.32948">
        <ele>42.400001525879</ele>
        <time>2015-11-09T21:45:14Z</time>
      </trkpt>
      <trkpt lat="48.85971" lon="2.32952">
        <ele>42.20000076294</ele>
        <time>2015-11-09T21:45:16Z</time>
      </trkpt>
      <trkpt lat="48.85983" lon="2.32962">
        <ele>41.599998474121</ele>
        <time>2015-11-09T21:45:22Z</time>
      </trkpt>
      <trkpt lat="48.86" lon="2.32972">
        <ele>41</ele>
        <time>2015-11-09T21:45:28Z</time>
      </trkpt>
      <trkpt lat="48.86019" lon="2.32986">
        <ele>40</ele>
        <time>2015-11-09T21:45:35Z</time>
      </trkpt>
      <trkpt lat="48.86037" lon="2.33001">
        <ele>40.400001525879</ele>
        <time>2015-11-09T21:45:41Z</time>
      </trkpt>
      <trkpt lat="48.86054" lon="2.33013">
        <ele>40.599998474121</ele>
        <time>2015-11-09T21:45:46Z</time>
      </trkpt>
      <trkpt lat="48.86072" lon="2.33014">
        <ele>41.400001525879</ele>
        <time>2015-11-09T21:45:52Z</time>
      </trkpt>
      <trkpt lat="48.86082" lon="2.33008">
        <ele>42.20000076294</ele>
        <time>2015-11-09T21:45:56Z</time>
      </trkpt>
      <trkpt lat="48.86097" lon="2.33">
        <ele>43.400001525879</ele>
        <time>2015-11-09T21:46:05Z</time>
      </trkpt>
      <trkpt lat="48.86105" lon="2.33005">
        <ele>43.400001525879</ele>
        <time>2015-11-09T21:46:29Z</time>
      </trkpt>
      <trkpt lat="48.86121" lon="2.33024">
        <ele>41.79999923706</ele>
        <time>2015-11-09T21:46:44Z</time>
      </trkpt>
      <trkpt lat="48.86142" lon="2.33043">
        <ele>40</ele>
        <time>2015-11-09T21:46:48Z</time>
      </trkpt>
      <trkpt lat="48.86164" lon="2.3306">
        <ele>38.20000076294</ele>
        <time>2015-11-09T21:46:51Z</time>
      </trkpt>
      <trkpt lat="48.86187" lon="2.33077">
        <ele>36.20000076294</ele>
        <time>2015-11-09T21:46:54Z</time>
      </trkpt>
      <trkpt lat="48.8621" lon="2.33094">
        <ele>36</ele>
        <time>2015-11-09T21:46:57Z</time>
      </trkpt>
      <trkpt lat="48.86227" lon="2.33106">
        <ele>36</ele>
        <time>2015-11-09T21:46:59Z</time>
      </trkpt>
      <trkpt lat="48.86321" lon="2.33181">
        <ele>39.20000076294</ele>
        <time>2015-11-09T21:47:09Z</time>
      </trkpt>
      <trkpt lat="48.86341" lon="2.3319">
        <ele>40.20000076294</ele>
        <time>2015-11-09T21:47:14Z</time>
      </trkpt>
      <trkpt lat="48.86351" lon="2.33197">
        <ele>40.79999923706</ele>
        <time>2015-11-09T21:47:17Z</time>
      </trkpt>
      <trkpt lat="48.86361" lon="2.33209">
        <ele>41.79999923706</ele>
        <time>2015-11-09T21:47:21Z</time>
      </trkpt>
      <trkpt lat="48.86367" lon="2.33214">
        <ele>42.400001525879</ele>
        <time>2015-11-09T21:47:26Z</time>
      </trkpt>
      <trkpt lat="48.8638" lon="2.33234">
        <ele>44</ele>
        <time>2015-11-09T21:47:45Z</time>
      </trkpt>
      <trkpt lat="48.86382" lon="2.33235">
        <ele>44.20000076294</ele>
        <time>2015-11-09T21:47:46Z</time>
      </trkpt>
      <trkpt lat="48.86399" lon="2.33236">
        <ele>44.79999923706</ele>
        <time>2015-11-09T21:47:54Z</time>
      </trkpt>
      <trkpt lat="48.86421" lon="2.33239">
        <ele>45.79999923706</ele>
        <time>2015-11-09T21:48:00Z</time>
      </trkpt>
      <trkpt lat="48.8644" lon="2.33241">
        <ele>46.79999923706</ele>
        <time>2015-11-09T21:48:06Z</time>
      </trkpt>
      <trkpt lat="48.8644" lon="2.33253">
        <ele>47</ele>
        <time>2015-11-09T21:48:08Z</time>
      </trkpt>
      <trkpt lat="48.86429" lon="2.33276">
        <ele>47</ele>
        <time>2015-11-09T21:48:13Z</time>
      </trkpt>
      <trkpt lat="48.86421" lon="2.33302">
        <ele>47</ele>
        <time>2015-11-09T21:48:18Z</time>
      </trkpt>
      <trkpt lat="48.86412" lon="2.33327">
        <ele>47.79999923706</ele>
        <time>2015-11-09T21:48:22Z</time>
      </trkpt>
      <trkpt lat="48.86401" lon="2.33357">
        <ele>48.599998474121</ele>
        <time>2015-11-09T21:48:27Z</time>
      </trkpt>
      <trkpt lat="48.86391" lon="2.33385">
        <ele>49.599998474121</ele>
        <time>2015-11-09T21:48:32Z</time>
      </trkpt>
      <trkpt lat="48.86382" lon="2.33411">
        <ele>50.599998474121</ele>
        <time>2015-11-09T21:48:38Z</time>
      </trkpt>
      <trkpt lat="48.86372" lon="2.33439">
        <ele>50.400001525879</ele>
        <time>2015-11-09T21:48:44Z</time>
      </trkpt>
      <trkpt lat="48.86363" lon="2.33464">
        <ele>49.400001525879</ele>
        <time>2015-11-09T21:48:48Z</time>
      </trkpt>
      <trkpt lat="48.86353" lon="2.33492">
        <ele>47.79999923706</ele>
        <time>2015-11-09T21:48:53Z</time>
      </trkpt>
      <trkpt lat="48.86344" lon="2.33518">
        <ele>47.20000076294</ele>
        <time>2015-11-09T21:48:58Z</time>
      </trkpt>
      <trkpt lat="48.86335" lon="2.33544">
        <ele>46.400001525879</ele>
        <time>2015-11-09T21:49:03Z</time>
      </trkpt>
      <trkpt lat="48.86323" lon="2.33569">
        <ele>46.79999923706</ele>
        <time>2015-11-09T21:49:08Z</time>
      </trkpt>
      <trkpt lat="48.86314" lon="2.33596">
        <ele>47</ele>
        <time>2015-11-09T21:49:12Z</time>
      </trkpt>
      <trkpt lat="48.86307" lon="2.33627">
        <ele>46.20000076294</ele>
        <time>2015-11-09T21:49:16Z</time>
      </trkpt>
      <trkpt lat="48.863" lon="2.33653">
        <ele>46.20000076294</ele>
        <time>2015-11-09T21:49:20Z</time>
      </trkpt>
      <trkpt lat="48.86292" lon="2.3368">
        <ele>46.20000076294</ele>
        <time>2015-11-09T21:49:24Z</time>
      </trkpt>
      <trkpt lat="48.86284" lon="2.33707">
        <ele>46</ele>
        <time>2015-11-09T21:49:28Z</time>
      </trkpt>
      <trkpt lat="48.86278" lon="2.3373">
        <ele>46</ele>
        <time>2015-11-09T21:49:31Z</time>
      </trkpt>
      <trkpt lat="48.86268" lon="2.33757">
        <ele>46</ele>
        <time>2015-11-09T21:49:34Z</time>
      </trkpt>
      <trkpt lat="48.86258" lon="2.33783">
        <ele>45.79999923706</ele>
        <time>2015-11-09T21:49:37Z</time>
      </trkpt>
      <trkpt lat="48.8625" lon="2.33809">
        <ele>45.599998474121</ele>
        <time>2015-11-09T21:49:40Z</time>
      </trkpt>
      <trkpt lat="48.86238" lon="2.33835">
        <ele>44.400001525879</ele>
        <time>2015-11-09T21:49:43Z</time>
      </trkpt>
      <trkpt lat="48.86228" lon="2.33866">
        <ele>45.20000076294</ele>
        <time>2015-11-09T21:49:47Z</time>
      </trkpt>
      <trkpt lat="48.86221" lon="2.33897">
        <ele>45.79999923706</ele>
        <time>2015-11-09T21:49:51Z</time>
      </trkpt>
      <trkpt lat="48.86216" lon="2.33912">
        <ele>46</ele>
        <time>2015-11-09T21:49:53Z</time>
      </trkpt>
      <trkpt lat="48.86212" lon="2.33944">
        <ele>46.79999923706</ele>
        <time>2015-11-09T21:49:57Z</time>
      </trkpt>
      <trkpt lat="48.86203" lon="2.33974">
        <ele>48</ele>
        <time>2015-11-09T21:50:01Z</time>
      </trkpt>
      <trkpt lat="48.86193" lon="2.33998">
        <ele>49</ele>
        <time>2015-11-09T21:50:04Z</time>
      </trkpt>
      <trkpt lat="48.8618" lon="2.34018">
        <ele>48.79999923706</ele>
        <time>2015-11-09T21:50:07Z</time>
      </trkpt>
      <trkpt lat="48.8617" lon="2.34028">
        <ele>48.599998474121</ele>
        <time>2015-11-09T21:50:09Z</time>
      </trkpt>
      <trkpt lat="48.86162" lon="2.34055">
        <ele>48.400001525879</ele>
        <time>2015-11-09T21:50:13Z</time>
      </trkpt>
      <trkpt lat="48.86168" lon="2.34085">
        <ele>48.20000076294</ele>
        <time>2015-11-09T21:50:17Z</time>
      </trkpt>
      <trkpt lat="48.86168" lon="2.3409">
        <ele>48.400001525879</ele>
        <time>2015-11-09T21:50:18Z</time>
      </trkpt>
      <trkpt lat="48.86174" lon="2.34112">
        <ele>48.79999923706</ele>
        <time>2015-11-09T21:50:48Z</time>
      </trkpt>
      <trkpt lat="48.86156" lon="2.34129">
        <ele>48.400001525879</ele>
        <time>2015-11-09T21:50:57Z</time>
      </trkpt>
      <trkpt lat="48.86142" lon="2.3415">
        <ele>48.599998474121</ele>
        <time>2015-11-09T21:51:01Z</time>
      </trkpt>
      <trkpt lat="48.86137" lon="2.34164">
        <ele>48.79999923706</ele>
        <time>2015-11-09T21:51:03Z</time>
      </trkpt>
      <trkpt lat="48.86131" lon="2.34191">
        <ele>48.599998474121</ele>
        <time>2015-11-09T21:51:06Z</time>
      </trkpt>
      <trkpt lat="48.86125" lon="2.34208">
        <ele>48.79999923706</ele>
        <time>2015-11-09T21:51:08Z</time>
      </trkpt>
      <trkpt lat="48.86115" lon="2.34232">
        <ele>49</ele>
        <time>2015-11-09T21:51:11Z</time>
      </trkpt>
      <trkpt lat="48.86109" lon="2.34258">
        <ele>49.20000076294</ele>
        <time>2015-11-09T21:51:14Z</time>
      </trkpt>
      <trkpt lat="48.86111" lon="2.34268">
        <ele>49.400001525879</ele>
        <time>2015-11-09T21:51:15Z</time>
      </trkpt>
      <trkpt lat="48.86104" lon="2.343">
        <ele>50.20000076294</ele>
        <time>2015-11-09T21:51:18Z</time>
      </trkpt>
      <trkpt lat="48.861" lon="2.34332">
        <ele>51.20000076294</ele>
        <time>2015-11-09T21:51:21Z</time>
      </trkpt>
      <trkpt lat="48.86098" lon="2.34362">
        <ele>50.79999923706</ele>
        <time>2015-11-09T21:51:24Z</time>
      </trkpt>
      <trkpt lat="48.86089" lon="2.34392">
        <ele>50.599998474121</ele>
        <time>2015-11-09T21:51:27Z</time>
      </trkpt>
      <trkpt lat="48.86087" lon="2.34411">
        <ele>51</ele>
        <time>2015-11-09T21:51:29Z</time>
      </trkpt>
      <trkpt lat="48.86082" lon="2.34442">
        <ele>51.400001525879</ele>
        <time>2015-11-09T21:51:32Z</time>
      </trkpt>
      <trkpt lat="48.86085" lon="2.34462">
        <ele>51.599998474121</ele>
        <time>2015-11-09T21:51:34Z</time>
      </trkpt>
      <trkpt lat="48.86083" lon="2.34474">
        <ele>51.79999923706</ele>
        <time>2015-11-09T21:51:36Z</time>
      </trkpt>
      <trkpt lat="48.86076" lon="2.34502">
        <ele>51.599998474121</ele>
        <time>2015-11-09T21:51:40Z</time>
      </trkpt>
      <trkpt lat="48.86074" lon="2.3451">
        <ele>51.599998474121</ele>
        <time>2015-11-09T21:51:41Z</time>
      </trkpt>
      <trkpt lat="48.86068" lon="2.34545">
        <ele>51.20000076294</ele>
        <time>2015-11-09T21:51:45Z</time>
      </trkpt>
      <trkpt lat="48.86066" lon="2.34563">
        <ele>50.400001525879</ele>
        <time>2015-11-09T21:51:47Z</time>
      </trkpt>
      <trkpt lat="48.86057" lon="2.34589">
        <ele>48.79999923706</ele>
        <time>2015-11-09T21:51:51Z</time>
      </trkpt>
      <trkpt lat="48.86041" lon="2.34613">
        <ele>47.20000076294</ele>
        <time>2015-11-09T21:51:56Z</time>
      </trkpt>
      <trkpt lat="48.86028" lon="2.34626">
        <ele>47.20000076294</ele>
        <time>2015-11-09T21:51:59Z</time>
      </trkpt>
      <trkpt lat="48.86018" lon="2.34639">
        <ele>47</ele>
        <time>2015-11-09T21:52:02Z</time>
      </trkpt>
      <trkpt lat="48.86011" lon="2.34646">
        <ele>47</ele>
        <time>2015-11-09T21:52:04Z</time>
      </trkpt>
      <trkpt lat="48.85995" lon="2.34661">
        <ele>46.400001525879</ele>
        <time>2015-11-09T21:52:09Z</time>
      </trkpt>
      <trkpt lat="48.85986" lon="2.34675">
        <ele>46.400001525879</ele>
        <time>2015-11-09T21:52:13Z</time>
      </trkpt>
      <trkpt lat="48.8598" lon="2.34685">
        <ele>46.20000076294</ele>
        <time>2015-11-09T21:52:17Z</time>
      </trkpt>
      <trkpt lat="48.85981" lon="2.347">
        <ele>46</ele>
        <time>2015-11-09T21:52:21Z</time>
      </trkpt>
      <trkpt lat="48.85979" lon="2.34704">
        <ele>46</ele>
        <time>2015-11-09T21:52:22Z</time>
      </trkpt>
      <trkpt lat="48.85968" lon="2.34716">
        <ele>45.400001525879</ele>
        <time>2015-11-09T21:52:26Z</time>
      </trkpt>
      <trkpt lat="48.85959" lon="2.34727">
        <ele>45</ele>
        <time>2015-11-09T21:52:35Z</time>
      </trkpt>
    </trkseg>
  </trk>
  <trk>
    <name><![CDATA[lundi 2015 11 02]]></name>
    <extensions>
      <line xmlns="http://www.topografix.com/GPX/gpx_style/0/2">
        <color>000000</color>
      </line>
    </extensions>
    <trkseg>
      <trkpt lat="48.85712" lon="2.34692">
        <ele>24</ele>
        <time>2015-11-02T19:22:11Z</time>
      </trkpt>
      <trkpt lat="48.857" lon="2.34675">
        <ele>29.39999961853</ele>
        <time>2015-11-02T19:22:20Z</time>
      </trkpt>
      <trkpt lat="48.85698" lon="2.34666">
        <ele>26.799999237061</ele>
        <time>2015-11-02T19:22:23Z</time>
      </trkpt>
      <trkpt lat="48.85679" lon="2.34663">
        <ele>24</ele>
        <time>2015-11-02T19:22:27Z</time>
      </trkpt>
      <trkpt lat="48.85681" lon="2.3466">
        <ele>24.200000762939</ele>
        <time>2015-11-02T19:22:28Z</time>
      </trkpt>
      <trkpt lat="48.85674" lon="2.34656">
        <ele>19.60000038147</ele>
        <time>2015-11-02T19:22:31Z</time>
      </trkpt>
      <trkpt lat="48.85659" lon="2.3465">
        <ele>24.799999237061</ele>
        <time>2015-11-02T19:22:35Z</time>
      </trkpt>
      <trkpt lat="48.85648" lon="2.34643">
        <ele>26.60000038147</ele>
        <time>2015-11-02T19:22:39Z</time>
      </trkpt>
      <trkpt lat="48.85645" lon="2.34642">
        <ele>27.200000762939</ele>
        <time>2015-11-02T19:22:40Z</time>
      </trkpt>
      <trkpt lat="48.85635" lon="2.34636">
        <ele>28.200000762939</ele>
        <time>2015-11-02T19:22:44Z</time>
      </trkpt>
      <trkpt lat="48.85615" lon="2.34632">
        <ele>29.60000038147</ele>
        <time>2015-11-02T19:22:49Z</time>
      </trkpt>
      <trkpt lat="48.85597" lon="2.34623">
        <ele>31.60000038147</ele>
        <time>2015-11-02T19:22:54Z</time>
      </trkpt>
      <trkpt lat="48.85577" lon="2.3462">
        <ele>34.20000076294</ele>
        <time>2015-11-02T19:23:00Z</time>
      </trkpt>
      <trkpt lat="48.85558" lon="2.3462">
        <ele>34.599998474121</ele>
        <time>2015-11-02T19:23:05Z</time>
      </trkpt>
      <trkpt lat="48.85542" lon="2.34632">
        <ele>37.599998474121</ele>
        <time>2015-11-02T19:23:12Z</time>
      </trkpt>
      <trkpt lat="48.8553" lon="2.34657">
        <ele>39</ele>
        <time>2015-11-02T19:23:18Z</time>
      </trkpt>
      <trkpt lat="48.85521" lon="2.34685">
        <ele>37.400001525879</ele>
        <time>2015-11-02T19:23:23Z</time>
      </trkpt>
      <trkpt lat="48.85511" lon="2.34707">
        <ele>38.400001525879</ele>
        <time>2015-11-02T19:23:29Z</time>
      </trkpt>
      <trkpt lat="48.85498" lon="2.34731">
        <ele>39.79999923706</ele>
        <time>2015-11-02T19:23:36Z</time>
      </trkpt>
      <trkpt lat="48.85487" lon="2.34758">
        <ele>39.20000076294</ele>
        <time>2015-11-02T19:23:43Z</time>
      </trkpt>
      <trkpt lat="48.85478" lon="2.34771">
        <ele>40.20000076294</ele>
        <time>2015-11-02T19:23:51Z</time>
      </trkpt>
      <trkpt lat="48.85459" lon="2.34768">
        <ele>45.20000076294</ele>
        <time>2015-11-02T19:24:01Z</time>
      </trkpt>
      <trkpt lat="48.8544" lon="2.34776">
        <ele>48.79999923706</ele>
        <time>2015-11-02T19:24:07Z</time>
      </trkpt>
      <trkpt lat="48.85423" lon="2.3476">
        <ele>52.599998474121</ele>
        <time>2015-11-02T19:24:15Z</time>
      </trkpt>
      <trkpt lat="48.85405" lon="2.34751">
        <ele>54.599998474121</ele>
        <time>2015-11-02T19:24:21Z</time>
      </trkpt>
      <trkpt lat="48.85385" lon="2.34745">
        <ele>56.79999923706</ele>
        <time>2015-11-02T19:24:27Z</time>
      </trkpt>
      <trkpt lat="48.85369" lon="2.34721">
        <ele>51.20000076294</ele>
        <time>2015-11-02T19:24:32Z</time>
      </trkpt>
      <trkpt lat="48.85353" lon="2.34702">
        <ele>43.20000076294</ele>
        <time>2015-11-02T19:24:36Z</time>
      </trkpt>
      <trkpt lat="48.85334" lon="2.34686">
        <ele>39.20000076294</ele>
        <time>2015-11-02T19:24:42Z</time>
      </trkpt>
      <trkpt lat="48.85316" lon="2.34676">
        <ele>38.599998474121</ele>
        <time>2015-11-02T19:24:47Z</time>
      </trkpt>
      <trkpt lat="48.85297" lon="2.3467">
        <ele>38.599998474121</ele>
        <time>2015-11-02T19:24:52Z</time>
      </trkpt>
      <trkpt lat="48.85279" lon="2.34658">
        <ele>35.599998474121</ele>
        <time>2015-11-02T19:24:59Z</time>
      </trkpt>
      <trkpt lat="48.85263" lon="2.34647">
        <ele>34.599998474121</ele>
        <time>2015-11-02T19:25:04Z</time>
      </trkpt>
      <trkpt lat="48.85241" lon="2.34641">
        <ele>35</ele>
        <time>2015-11-02T19:25:09Z</time>
      </trkpt>
      <trkpt lat="48.8522" lon="2.34638">
        <ele>37</ele>
        <time>2015-11-02T19:25:14Z</time>
      </trkpt>
      <trkpt lat="48.85201" lon="2.34628">
        <ele>40.599998474121</ele>
        <time>2015-11-02T19:25:20Z</time>
      </trkpt>
      <trkpt lat="48.85183" lon="2.34619">
        <ele>43.599998474121</ele>
        <time>2015-11-02T19:25:25Z</time>
      </trkpt>
      <trkpt lat="48.85167" lon="2.34606">
        <ele>46.400001525879</ele>
        <time>2015-11-02T19:25:31Z</time>
      </trkpt>
      <trkpt lat="48.85148" lon="2.34595">
        <ele>54.79999923706</ele>
        <time>2015-11-02T19:25:40Z</time>
      </trkpt>
      <trkpt lat="48.85126" lon="2.3459">
        <ele>63</ele>
        <time>2015-11-02T19:25:49Z</time>
      </trkpt>
      <trkpt lat="48.85105" lon="2.34593">
        <ele>63.599998474121</ele>
        <time>2015-11-02T19:25:53Z</time>
      </trkpt>
      <trkpt lat="48.85091" lon="2.3461">
        <ele>65.800003051758</ele>
        <time>2015-11-02T19:25:58Z</time>
      </trkpt>
      <trkpt lat="48.85082" lon="2.34638">
        <ele>67.800003051758</ele>
        <time>2015-11-02T19:26:03Z</time>
      </trkpt>
      <trkpt lat="48.85073" lon="2.3467">
        <ele>64.800003051758</ele>
        <time>2015-11-02T19:26:08Z</time>
      </trkpt>
      <trkpt lat="48.85066" lon="2.34699">
        <ele>63</ele>
        <time>2015-11-02T19:26:12Z</time>
      </trkpt>
      <trkpt lat="48.8506" lon="2.34729">
        <ele>61.20000076294</ele>
        <time>2015-11-02T19:26:16Z</time>
      </trkpt>
      <trkpt lat="48.85052" lon="2.3476">
        <ele>58.79999923706</ele>
        <time>2015-11-02T19:26:21Z</time>
      </trkpt>
      <trkpt lat="48.85042" lon="2.34789">
        <ele>49.400001525879</ele>
        <time>2015-11-02T19:26:26Z</time>
      </trkpt>
      <trkpt lat="48.85035" lon="2.34818">
        <ele>46</ele>
        <time>2015-11-02T19:26:31Z</time>
      </trkpt>
      <trkpt lat="48.85026" lon="2.34843">
        <ele>43.400001525879</ele>
        <time>2015-11-02T19:26:35Z</time>
      </trkpt>
      <trkpt lat="48.85018" lon="2.3487">
        <ele>41</ele>
        <time>2015-11-02T19:26:39Z</time>
      </trkpt>
      <trkpt lat="48.8501" lon="2.34896">
        <ele>38.400001525879</ele>
        <time>2015-11-02T19:26:43Z</time>
      </trkpt>
      <trkpt lat="48.85002" lon="2.34922">
        <ele>34.400001525879</ele>
        <time>2015-11-02T19:26:47Z</time>
      </trkpt>
      <trkpt lat="48.84992" lon="2.34952">
        <ele>31</ele>
        <time>2015-11-02T19:26:51Z</time>
      </trkpt>
      <trkpt lat="48.84983" lon="2.34982">
        <ele>30.200000762939</ele>
        <time>2015-11-02T19:26:55Z</time>
      </trkpt>
      <trkpt lat="48.84978" lon="2.35012">
        <ele>31.799999237061</ele>
        <time>2015-11-02T19:26:59Z</time>
      </trkpt>
      <trkpt lat="48.84971" lon="2.35045">
        <ele>30</ele>
        <time>2015-11-02T19:27:03Z</time>
      </trkpt>
      <trkpt lat="48.84964" lon="2.35073">
        <ele>29.200000762939</ele>
        <time>2015-11-02T19:27:06Z</time>
      </trkpt>
      <trkpt lat="48.84964" lon="2.35082">
        <ele>28.799999237061</ele>
        <time>2015-11-02T19:27:07Z</time>
      </trkpt>
      <trkpt lat="48.84963" lon="2.3511">
        <ele>27.799999237061</ele>
        <time>2015-11-02T19:27:10Z</time>
      </trkpt>
      <trkpt lat="48.84962" lon="2.35139">
        <ele>27</ele>
        <time>2015-11-02T19:27:13Z</time>
      </trkpt>
      <trkpt lat="48.84963" lon="2.35168">
        <ele>25.799999237061</ele>
        <time>2015-11-02T19:27:16Z</time>
      </trkpt>
      <trkpt lat="48.84962" lon="2.35197">
        <ele>24.60000038147</ele>
        <time>2015-11-02T19:27:19Z</time>
      </trkpt>
      <trkpt lat="48.8496" lon="2.35226">
        <ele>23.39999961853</ele>
        <time>2015-11-02T19:27:22Z</time>
      </trkpt>
      <trkpt lat="48.84959" lon="2.35259">
        <ele>23.39999961853</ele>
        <time>2015-11-02T19:27:26Z</time>
      </trkpt>
      <trkpt lat="48.84957" lon="2.35266">
        <ele>23.60000038147</ele>
        <time>2015-11-02T19:27:27Z</time>
      </trkpt>
      <trkpt lat="48.84942" lon="2.35278">
        <ele>24.60000038147</ele>
        <time>2015-11-02T19:27:32Z</time>
      </trkpt>
      <trkpt lat="48.84931" lon="2.3528">
        <ele>25.799999237061</ele>
        <time>2015-11-02T19:27:35Z</time>
      </trkpt>
      <trkpt lat="48.84916" lon="2.35272">
        <ele>26.60000038147</ele>
        <time>2015-11-02T19:27:39Z</time>
      </trkpt>
      <trkpt lat="48.84895" lon="2.35261">
        <ele>28</ele>
        <time>2015-11-02T19:27:44Z</time>
      </trkpt>
      <trkpt lat="48.84889" lon="2.35256">
        <ele>28.60000038147</ele>
        <time>2015-11-02T19:27:46Z</time>
      </trkpt>
      <trkpt lat="48.84872" lon="2.35243">
        <ele>30.60000038147</ele>
        <time>2015-11-02T19:27:50Z</time>
      </trkpt>
      <trkpt lat="48.84855" lon="2.35229">
        <ele>32.599998474121</ele>
        <time>2015-11-02T19:27:54Z</time>
      </trkpt>
      <trkpt lat="48.84835" lon="2.35211">
        <ele>36.400001525879</ele>
        <time>2015-11-02T19:27:59Z</time>
      </trkpt>
      <trkpt lat="48.84819" lon="2.35201">
        <ele>38.400001525879</ele>
        <time>2015-11-02T19:28:03Z</time>
      </trkpt>
      <trkpt lat="48.84804" lon="2.35189">
        <ele>41</ele>
        <time>2015-11-02T19:28:07Z</time>
      </trkpt>
      <trkpt lat="48.84798" lon="2.35183">
        <ele>42.79999923706</ele>
        <time>2015-11-02T19:28:10Z</time>
      </trkpt>
      <trkpt lat="48.84797" lon="2.35174">
        <ele>45.599998474121</ele>
        <time>2015-11-02T19:28:15Z</time>
      </trkpt>
      <trkpt lat="48.84797" lon="2.35168">
        <ele>47.20000076294</ele>
        <time>2015-11-02T19:28:17Z</time>
      </trkpt>
      <trkpt lat="48.84802" lon="2.35161">
        <ele>51.400001525879</ele>
        <time>2015-11-02T19:28:25Z</time>
      </trkpt>
      <trkpt lat="48.84803" lon="2.3516">
        <ele>52</ele>
        <time>2015-11-02T19:28:27Z</time>
      </trkpt>
      <trkpt lat="48.84792" lon="2.35182">
        <ele>56.79999923706</ele>
        <time>2015-11-02T19:28:43Z</time>
      </trkpt>
      <trkpt lat="48.84779" lon="2.35205">
        <ele>57</ele>
        <time>2015-11-02T19:28:48Z</time>
      </trkpt>
      <trkpt lat="48.84772" lon="2.35221">
        <ele>54.599998474121</ele>
        <time>2015-11-02T19:28:52Z</time>
      </trkpt>
      <trkpt lat="48.84773" lon="2.35213">
        <ele>54</ele>
        <time>2015-11-02T19:28:59Z</time>
      </trkpt>
      <trkpt lat="48.84768" lon="2.35198">
        <ele>53.20000076294</ele>
        <time>2015-11-02T19:29:06Z</time>
      </trkpt>
      <trkpt lat="48.84751" lon="2.35187">
        <ele>52.20000076294</ele>
        <time>2015-11-02T19:29:10Z</time>
      </trkpt>
      <trkpt lat="48.84747" lon="2.35185">
        <ele>52</ele>
        <time>2015-11-02T19:29:11Z</time>
      </trkpt>
      <trkpt lat="48.84733" lon="2.35179">
        <ele>52.79999923706</ele>
        <time>2015-11-02T19:29:16Z</time>
      </trkpt>
      <trkpt lat="48.84713" lon="2.35174">
        <ele>53.79999923706</ele>
        <time>2015-11-02T19:29:22Z</time>
      </trkpt>
      <trkpt lat="48.84715" lon="2.35164">
        <ele>53.20000076294</ele>
        <time>2015-11-02T19:29:23Z</time>
      </trkpt>
      <trkpt lat="48.84706" lon="2.35149">
        <ele>53</ele>
        <time>2015-11-02T19:29:28Z</time>
      </trkpt>
      <trkpt lat="48.84703" lon="2.35136">
        <ele>50.79999923706</ele>
        <time>2015-11-02T19:29:31Z</time>
      </trkpt>
      <trkpt lat="48.84694" lon="2.35116">
        <ele>47.599998474121</ele>
        <time>2015-11-02T19:29:39Z</time>
      </trkpt>
      <trkpt lat="48.84689" lon="2.35101">
        <ele>47.20000076294</ele>
        <time>2015-11-02T19:29:45Z</time>
      </trkpt>
      <trkpt lat="48.84694" lon="2.35093">
        <ele>46.20000076294</ele>
        <time>2015-11-02T19:29:55Z</time>
      </trkpt>
      <trkpt lat="48.84701" lon="2.35094">
        <ele>51.599998474121</ele>
        <time>2015-11-02T19:30:13Z</time>
      </trkpt>
      <trkpt lat="48.84691" lon="2.3509">
        <ele>54.20000076294</ele>
        <time>2015-11-02T19:30:23Z</time>
      </trkpt>
      <trkpt lat="48.84673" lon="2.35085">
        <ele>54.79999923706</ele>
        <time>2015-11-02T19:30:33Z</time>
      </trkpt>
      <trkpt lat="48.84676" lon="2.35079">
        <ele>55</ele>
        <time>2015-11-02T19:30:34Z</time>
      </trkpt>
      <trkpt lat="48.84662" lon="2.35087">
        <ele>57.79999923706</ele>
        <time>2015-11-02T19:30:51Z</time>
      </trkpt>
      <trkpt lat="48.84656" lon="2.35103">
        <ele>57.79999923706</ele>
        <time>2015-11-02T19:30:57Z</time>
      </trkpt>
      <trkpt lat="48.84638" lon="2.35102">
        <ele>54.400001525879</ele>
        <time>2015-11-02T19:31:01Z</time>
      </trkpt>
      <trkpt lat="48.84625" lon="2.35104">
        <ele>50.599998474121</ele>
        <time>2015-11-02T19:31:09Z</time>
      </trkpt>
      <trkpt lat="48.8462" lon="2.3511">
        <ele>49.20000076294</ele>
        <time>2015-11-02T19:31:16Z</time>
      </trkpt>
      <trkpt lat="48.84612" lon="2.35112">
        <ele>48.599998474121</ele>
        <time>2015-11-02T19:31:20Z</time>
      </trkpt>
      <trkpt lat="48.84612" lon="2.3511">
        <ele>48.400001525879</ele>
        <time>2015-11-02T19:31:21Z</time>
      </trkpt>
      <trkpt lat="48.84596" lon="2.35094">
        <ele>45</ele>
        <time>2015-11-02T19:31:39Z</time>
      </trkpt>
      <trkpt lat="48.8458" lon="2.35082">
        <ele>44.20000076294</ele>
        <time>2015-11-02T19:31:46Z</time>
      </trkpt>
      <trkpt lat="48.84586" lon="2.35047">
        <ele>45</ele>
        <time>2015-11-02T19:31:52Z</time>
      </trkpt>
      <trkpt lat="48.84592" lon="2.35033">
        <ele>45.400001525879</ele>
        <time>2015-11-02T19:31:54Z</time>
      </trkpt>
      <trkpt lat="48.84609" lon="2.3501">
        <ele>45.599998474121</ele>
        <time>2015-11-02T19:31:57Z</time>
      </trkpt>
      <trkpt lat="48.84618" lon="2.34993">
        <ele>45.599998474121</ele>
        <time>2015-11-02T19:31:59Z</time>
      </trkpt>
      <trkpt lat="48.84629" lon="2.34966">
        <ele>45.20000076294</ele>
        <time>2015-11-02T19:32:02Z</time>
      </trkpt>
      <trkpt lat="48.84629" lon="2.34958">
        <ele>45.599998474121</ele>
        <time>2015-11-02T19:32:03Z</time>
      </trkpt>
      <trkpt lat="48.84632" lon="2.34932">
        <ele>46.400001525879</ele>
        <time>2015-11-02T19:32:07Z</time>
      </trkpt>
      <trkpt lat="48.84627" lon="2.34911">
        <ele>48.20000076294</ele>
        <time>2015-11-02T19:32:10Z</time>
      </trkpt>
      <trkpt lat="48.84628" lon="2.349">
        <ele>49.400001525879</ele>
        <time>2015-11-02T19:32:12Z</time>
      </trkpt>
      <trkpt lat="48.84633" lon="2.3488">
        <ele>50</ele>
        <time>2015-11-02T19:32:16Z</time>
      </trkpt>
      <trkpt lat="48.84641" lon="2.34854">
        <ele>51.79999923706</ele>
        <time>2015-11-02T19:32:21Z</time>
      </trkpt>
      <trkpt lat="48.84648" lon="2.34825">
        <ele>52.400001525879</ele>
        <time>2015-11-02T19:32:26Z</time>
      </trkpt>
      <trkpt lat="48.84655" lon="2.34795">
        <ele>53.20000076294</ele>
        <time>2015-11-02T19:32:31Z</time>
      </trkpt>
      <trkpt lat="48.84665" lon="2.34767">
        <ele>54.20000076294</ele>
        <time>2015-11-02T19:32:36Z</time>
      </trkpt>
      <trkpt lat="48.84673" lon="2.34746">
        <ele>55.20000076294</ele>
        <time>2015-11-02T19:32:42Z</time>
      </trkpt>
      <trkpt lat="48.84669" lon="2.34748">
        <ele>55.79999923706</ele>
        <time>2015-11-02T19:32:46Z</time>
      </trkpt>
      <trkpt lat="48.84665" lon="2.3475">
        <ele>56.20000076294</ele>
        <time>2015-11-02T19:32:48Z</time>
      </trkpt>
      <trkpt lat="48.84658" lon="2.34749">
        <ele>58</ele>
        <time>2015-11-02T19:32:57Z</time>
      </trkpt>
      <trkpt lat="48.84656" lon="2.34743">
        <ele>57.599998474121</ele>
        <time>2015-11-02T19:33:41Z</time>
      </trkpt>
      <trkpt lat="48.84657" lon="2.34725">
        <ele>57.400001525879</ele>
        <time>2015-11-02T19:33:50Z</time>
      </trkpt>
      <trkpt lat="48.84651" lon="2.34723">
        <ele>57.599998474121</ele>
        <time>2015-11-02T19:33:54Z</time>
      </trkpt>
      <trkpt lat="48.84644" lon="2.34721">
        <ele>57.400001525879</ele>
        <time>2015-11-02T19:33:55Z</time>
      </trkpt>
      <trkpt lat="48.84625" lon="2.34712">
        <ele>56.400001525879</ele>
        <time>2015-11-02T19:33:59Z</time>
      </trkpt>
      <trkpt lat="48.84605" lon="2.34705">
        <ele>55.20000076294</ele>
        <time>2015-11-02T19:34:03Z</time>
      </trkpt>
      <trkpt lat="48.84598" lon="2.34701">
        <ele>54.400001525879</ele>
        <time>2015-11-02T19:34:05Z</time>
      </trkpt>
      <trkpt lat="48.84582" lon="2.34692">
        <ele>54.599998474121</ele>
        <time>2015-11-02T19:34:09Z</time>
      </trkpt>
      <trkpt lat="48.84564" lon="2.34688">
        <ele>55.20000076294</ele>
        <time>2015-11-02T19:34:14Z</time>
      </trkpt>
      <trkpt lat="48.84544" lon="2.34684">
        <ele>58.20000076294</ele>
        <time>2015-11-02T19:34:24Z</time>
      </trkpt>
      <trkpt lat="48.84524" lon="2.34683">
        <ele>59.79999923706</ele>
        <time>2015-11-02T19:34:31Z</time>
      </trkpt>
      <trkpt lat="48.84505" lon="2.34672">
        <ele>61</ele>
        <time>2015-11-02T19:34:39Z</time>
      </trkpt>
      <trkpt lat="48.84486" lon="2.34661">
        <ele>60.20000076294</ele>
        <time>2015-11-02T19:34:45Z</time>
      </trkpt>
      <trkpt lat="48.84468" lon="2.34653">
        <ele>57.400001525879</ele>
        <time>2015-11-02T19:34:49Z</time>
      </trkpt>
      <trkpt lat="48.8445" lon="2.34636">
        <ele>55.599998474121</ele>
        <time>2015-11-02T19:34:54Z</time>
      </trkpt>
      <trkpt lat="48.84434" lon="2.34617">
        <ele>54.79999923706</ele>
        <time>2015-11-02T19:35:00Z</time>
      </trkpt>
      <trkpt lat="48.84419" lon="2.34597">
        <ele>53.79999923706</ele>
        <time>2015-11-02T19:35:06Z</time>
      </trkpt>
      <trkpt lat="48.84405" lon="2.34581">
        <ele>54.400001525879</ele>
        <time>2015-11-02T19:35:13Z</time>
      </trkpt>
      <trkpt lat="48.84401" lon="2.34591">
        <ele>54.20000076294</ele>
        <time>2015-11-02T19:35:22Z</time>
      </trkpt>
      <trkpt lat="48.84385" lon="2.34608">
        <ele>53.400001525879</ele>
        <time>2015-11-02T19:35:29Z</time>
      </trkpt>
      <trkpt lat="48.84369" lon="2.34624">
        <ele>53.599998474121</ele>
        <time>2015-11-02T19:35:35Z</time>
      </trkpt>
      <trkpt lat="48.84351" lon="2.34637">
        <ele>58.20000076294</ele>
        <time>2015-11-02T19:35:43Z</time>
      </trkpt>
      <trkpt lat="48.84333" lon="2.34655">
        <ele>60.79999923706</ele>
        <time>2015-11-02T19:35:49Z</time>
      </trkpt>
      <trkpt lat="48.84316" lon="2.34669">
        <ele>61.20000076294</ele>
        <time>2015-11-02T19:35:53Z</time>
      </trkpt>
      <trkpt lat="48.84297" lon="2.34687">
        <ele>62.20000076294</ele>
        <time>2015-11-02T19:35:58Z</time>
      </trkpt>
      <trkpt lat="48.8428" lon="2.34705">
        <ele>62.400001525879</ele>
        <time>2015-11-02T19:36:03Z</time>
      </trkpt>
      <trkpt lat="48.84263" lon="2.34716">
        <ele>61.400001525879</ele>
        <time>2015-11-02T19:36:07Z</time>
      </trkpt>
      <trkpt lat="48.84261" lon="2.3472">
        <ele>61.400001525879</ele>
        <time>2015-11-02T19:36:08Z</time>
      </trkpt>
      <trkpt lat="48.84253" lon="2.34737">
        <ele>61.20000076294</ele>
        <time>2015-11-02T19:36:14Z</time>
      </trkpt>
      <trkpt lat="48.84235" lon="2.34749">
        <ele>58.599998474121</ele>
        <time>2015-11-02T19:36:21Z</time>
      </trkpt>
      <trkpt lat="48.84215" lon="2.34763">
        <ele>58</ele>
        <time>2015-11-02T19:36:26Z</time>
      </trkpt>
      <trkpt lat="48.84199" lon="2.3478">
        <ele>57.400001525879</ele>
        <time>2015-11-02T19:36:30Z</time>
      </trkpt>
      <trkpt lat="48.84183" lon="2.34795">
        <ele>55.599998474121</ele>
        <time>2015-11-02T19:36:36Z</time>
      </trkpt>
      <trkpt lat="48.84179" lon="2.34793">
        <ele>54</ele>
        <time>2015-11-02T19:36:41Z</time>
      </trkpt>
      <trkpt lat="48.84187" lon="2.34788">
        <ele>54.599998474121</ele>
        <time>2015-11-02T19:36:53Z</time>
      </trkpt>
      <trkpt lat="48.84192" lon="2.34782">
        <ele>55</ele>
        <time>2015-11-02T19:36:57Z</time>
      </trkpt>
      <trkpt lat="48.84193" lon="2.3478">
        <ele>55.400001525879</ele>
        <time>2015-11-02T19:36:59Z</time>
      </trkpt>
      <trkpt lat="48.84198" lon="2.34776">
        <ele>56</ele>
        <time>2015-11-02T19:37:04Z</time>
      </trkpt>
      <trkpt lat="48.84199" lon="2.34775">
        <ele>56.400001525879</ele>
        <time>2015-11-02T19:37:06Z</time>
      </trkpt>
      <trkpt lat="48.84204" lon="2.34776">
        <ele>57.20000076294</ele>
        <time>2015-11-02T19:37:12Z</time>
      </trkpt>
      <trkpt lat="48.84202" lon="2.34782">
        <ele>58</ele>
        <time>2015-11-02T19:37:16Z</time>
      </trkpt>
      <trkpt lat="48.84189" lon="2.34801">
        <ele>57.79999923706</ele>
        <time>2015-11-02T19:37:22Z</time>
      </trkpt>
      <trkpt lat="48.84172" lon="2.34816">
        <ele>57.400001525879</ele>
        <time>2015-11-02T19:37:27Z</time>
      </trkpt>
      <trkpt lat="48.84154" lon="2.34827">
        <ele>57.400001525879</ele>
        <time>2015-11-02T19:37:32Z</time>
      </trkpt>
      <trkpt lat="48.84137" lon="2.34838">
        <ele>58.20000076294</ele>
        <time>2015-11-02T19:37:38Z</time>
      </trkpt>
      <trkpt lat="48.84121" lon="2.34851">
        <ele>58.79999923706</ele>
        <time>2015-11-02T19:37:44Z</time>
      </trkpt>
      <trkpt lat="48.84102" lon="2.34861">
        <ele>59</ele>
        <time>2015-11-02T19:37:51Z</time>
      </trkpt>
      <trkpt lat="48.84094" lon="2.34865">
        <ele>59</ele>
        <time>2015-11-02T19:37:56Z</time>
      </trkpt>
      <trkpt lat="48.84082" lon="2.34872">
        <ele>59</ele>
        <time>2015-11-02T19:38:02Z</time>
      </trkpt>
      <trkpt lat="48.84074" lon="2.34884">
        <ele>56.599998474121</ele>
        <time>2015-11-02T19:38:07Z</time>
      </trkpt>
      <trkpt lat="48.84074" lon="2.34913">
        <ele>50.20000076294</ele>
        <time>2015-11-02T19:38:14Z</time>
      </trkpt>
      <trkpt lat="48.84068" lon="2.3494">
        <ele>46.20000076294</ele>
        <time>2015-11-02T19:38:22Z</time>
      </trkpt>
      <trkpt lat="48.84066" lon="2.34969">
        <ele>42.599998474121</ele>
        <time>2015-11-02T19:38:28Z</time>
      </trkpt>
      <trkpt lat="48.84062" lon="2.34998">
        <ele>40.20000076294</ele>
        <time>2015-11-02T19:38:34Z</time>
      </trkpt>
      <trkpt lat="48.84057" lon="2.35028">
        <ele>37.20000076294</ele>
        <time>2015-11-02T19:38:42Z</time>
      </trkpt>
      <trkpt lat="48.84054" lon="2.35054">
        <ele>35.599998474121</ele>
        <time>2015-11-02T19:38:52Z</time>
      </trkpt>
      <trkpt lat="48.8405" lon="2.35051">
        <ele>35</ele>
        <time>2015-11-02T19:39:37Z</time>
      </trkpt>
      <trkpt lat="48.84033" lon="2.3506">
        <ele>34.79999923706</ele>
        <time>2015-11-02T19:39:43Z</time>
      </trkpt>
      <trkpt lat="48.84034" lon="2.3509">
        <ele>36.20000076294</ele>
        <time>2015-11-02T19:39:49Z</time>
      </trkpt>
      <trkpt lat="48.84038" lon="2.351">
        <ele>36.79999923706</ele>
        <time>2015-11-02T19:39:51Z</time>
      </trkpt>
      <trkpt lat="48.84048" lon="2.35125">
        <ele>37.599998474121</ele>
        <time>2015-11-02T19:39:57Z</time>
      </trkpt>
      <trkpt lat="48.84059" lon="2.35151">
        <ele>42.79999923706</ele>
        <time>2015-11-02T19:40:05Z</time>
      </trkpt>
      <trkpt lat="48.84071" lon="2.35172">
        <ele>47.20000076294</ele>
        <time>2015-11-02T19:40:12Z</time>
      </trkpt>
      <trkpt lat="48.84075" lon="2.35175">
        <ele>48.20000076294</ele>
        <time>2015-11-02T19:40:14Z</time>
      </trkpt>
      <trkpt lat="48.8408" lon="2.35177">
        <ele>51.20000076294</ele>
        <time>2015-11-02T19:40:19Z</time>
      </trkpt>
      <trkpt lat="48.84093" lon="2.35185">
        <ele>54.20000076294</ele>
        <time>2015-11-02T19:40:36Z</time>
      </trkpt>
      <trkpt lat="48.84093" lon="2.35212">
        <ele>53.79999923706</ele>
        <time>2015-11-02T19:40:45Z</time>
      </trkpt>
      <trkpt lat="48.84093" lon="2.35242">
        <ele>55.400001525879</ele>
        <time>2015-11-02T19:40:54Z</time>
      </trkpt>
      <trkpt lat="48.8409" lon="2.35273">
        <ele>52.20000076294</ele>
        <time>2015-11-02T19:40:59Z</time>
      </trkpt>
      <trkpt lat="48.84076" lon="2.35303">
        <ele>47.400001525879</ele>
        <time>2015-11-02T19:41:03Z</time>
      </trkpt>
      <trkpt lat="48.84073" lon="2.35314">
        <ele>45</ele>
        <time>2015-11-02T19:41:07Z</time>
      </trkpt>
      <trkpt lat="48.84067" lon="2.35301">
        <ele>43.79999923706</ele>
        <time>2015-11-02T19:41:32Z</time>
      </trkpt>
      <trkpt lat="48.84063" lon="2.35295">
        <ele>43.79999923706</ele>
        <time>2015-11-02T19:41:37Z</time>
      </trkpt>
      <trkpt lat="48.84055" lon="2.35306">
        <ele>39.599998474121</ele>
        <time>2015-11-02T19:42:18Z</time>
      </trkpt>
      <trkpt lat="48.84037" lon="2.35314">
        <ele>38.79999923706</ele>
        <time>2015-11-02T19:42:24Z</time>
      </trkpt>
      <trkpt lat="48.84019" lon="2.35325">
        <ele>37.599998474121</ele>
        <time>2015-11-02T19:42:28Z</time>
      </trkpt>
      <trkpt lat="48.84002" lon="2.35336">
        <ele>36</ele>
        <time>2015-11-02T19:42:32Z</time>
      </trkpt>
      <trkpt lat="48.83988" lon="2.35357">
        <ele>35.79999923706</ele>
        <time>2015-11-02T19:42:38Z</time>
      </trkpt>
      <trkpt lat="48.83973" lon="2.35373">
        <ele>35</ele>
        <time>2015-11-02T19:42:42Z</time>
      </trkpt>
      <trkpt lat="48.83952" lon="2.35384">
        <ele>34.20000076294</ele>
        <time>2015-11-02T19:42:47Z</time>
      </trkpt>
      <trkpt lat="48.83934" lon="2.35397">
        <ele>34.20000076294</ele>
        <time>2015-11-02T19:42:51Z</time>
      </trkpt>
      <trkpt lat="48.83911" lon="2.35405">
        <ele>34.400001525879</ele>
        <time>2015-11-02T19:42:56Z</time>
      </trkpt>
      <trkpt lat="48.83904" lon="2.35404">
        <ele>34.400001525879</ele>
        <time>2015-11-02T19:42:58Z</time>
      </trkpt>
      <trkpt lat="48.83893" lon="2.35383">
        <ele>34.79999923706</ele>
        <time>2015-11-02T19:43:04Z</time>
      </trkpt>
      <trkpt lat="48.83891" lon="2.35379">
        <ele>35</ele>
        <time>2015-11-02T19:43:05Z</time>
      </trkpt>
      <trkpt lat="48.83881" lon="2.35355">
        <ele>35.599998474121</ele>
        <time>2015-11-02T19:43:12Z</time>
      </trkpt>
      <trkpt lat="48.83871" lon="2.35357">
        <ele>34.400001525879</ele>
        <time>2015-11-02T19:43:17Z</time>
      </trkpt>
      <trkpt lat="48.8385" lon="2.35364">
        <ele>32.20000076294</ele>
        <time>2015-11-02T19:43:25Z</time>
      </trkpt>
      <trkpt lat="48.83832" lon="2.3537">
        <ele>28.799999237061</ele>
        <time>2015-11-02T19:43:32Z</time>
      </trkpt>
      <trkpt lat="48.83814" lon="2.3538">
        <ele>25.799999237061</ele>
        <time>2015-11-02T19:43:40Z</time>
      </trkpt>
      <trkpt lat="48.83799" lon="2.35395">
        <ele>23.799999237061</ele>
        <time>2015-11-02T19:43:46Z</time>
      </trkpt>
      <trkpt lat="48.83784" lon="2.35416">
        <ele>22.39999961853</ele>
        <time>2015-11-02T19:43:53Z</time>
      </trkpt>
      <trkpt lat="48.83774" lon="2.35419">
        <ele>22</ele>
        <time>2015-11-02T19:44:00Z</time>
      </trkpt>
      <trkpt lat="48.8377" lon="2.35417">
        <ele>22.799999237061</ele>
        <time>2015-11-02T19:44:05Z</time>
      </trkpt>
      <trkpt lat="48.83775" lon="2.35415">
        <ele>29</ele>
        <time>2015-11-02T19:44:17Z</time>
      </trkpt>
      <trkpt lat="48.83768" lon="2.35397">
        <ele>33.599998474121</ele>
        <time>2015-11-02T19:44:36Z</time>
      </trkpt>
      <trkpt lat="48.83759" lon="2.35367">
        <ele>35.79999923706</ele>
        <time>2015-11-02T19:44:42Z</time>
      </trkpt>
      <trkpt lat="48.8375" lon="2.35339">
        <ele>38.20000076294</ele>
        <time>2015-11-02T19:44:47Z</time>
      </trkpt>
      <trkpt lat="48.83742" lon="2.35309">
        <ele>42.599998474121</ele>
        <time>2015-11-02T19:44:53Z</time>
      </trkpt>
      <trkpt lat="48.83736" lon="2.35299">
        <ele>44</ele>
        <time>2015-11-02T19:44:56Z</time>
      </trkpt>
      <trkpt lat="48.83716" lon="2.35311">
        <ele>46.20000076294</ele>
        <time>2015-11-02T19:45:10Z</time>
      </trkpt>
      <trkpt lat="48.837" lon="2.35327">
        <ele>47.599998474121</ele>
        <time>2015-11-02T19:45:17Z</time>
      </trkpt>
      <trkpt lat="48.83682" lon="2.3534">
        <ele>48.20000076294</ele>
        <time>2015-11-02T19:45:24Z</time>
      </trkpt>
      <trkpt lat="48.83664" lon="2.35345">
        <ele>49.400001525879</ele>
        <time>2015-11-02T19:45:33Z</time>
      </trkpt>
      <trkpt lat="48.8366" lon="2.35342">
        <ele>49</ele>
        <time>2015-11-02T19:45:36Z</time>
      </trkpt>
      <trkpt lat="48.83644" lon="2.35323">
        <ele>46.400001525879</ele>
        <time>2015-11-02T19:45:45Z</time>
      </trkpt>
      <trkpt lat="48.83625" lon="2.35326">
        <ele>44.400001525879</ele>
        <time>2015-11-02T19:45:47Z</time>
      </trkpt>
      <trkpt lat="48.83604" lon="2.3534">
        <ele>43.79999923706</ele>
        <time>2015-11-02T19:45:51Z</time>
      </trkpt>
      <trkpt lat="48.83586" lon="2.35355">
        <ele>43</ele>
        <time>2015-11-02T19:45:55Z</time>
      </trkpt>
      <trkpt lat="48.83569" lon="2.35372">
        <ele>42.599998474121</ele>
        <time>2015-11-02T19:45:59Z</time>
      </trkpt>
      <trkpt lat="48.83555" lon="2.35395">
        <ele>41.599998474121</ele>
        <time>2015-11-02T19:46:04Z</time>
      </trkpt>
      <trkpt lat="48.83552" lon="2.35404">
        <ele>41</ele>
        <time>2015-11-02T19:46:06Z</time>
      </trkpt>
      <trkpt lat="48.83534" lon="2.35394">
        <ele>39.20000076294</ele>
        <time>2015-11-02T19:46:12Z</time>
      </trkpt>
      <trkpt lat="48.83531" lon="2.3539">
        <ele>38.400001525879</ele>
        <time>2015-11-02T19:46:13Z</time>
      </trkpt>
      <trkpt lat="48.83515" lon="2.35371">
        <ele>35.79999923706</ele>
        <time>2015-11-02T19:46:19Z</time>
      </trkpt>
      <trkpt lat="48.835" lon="2.35352">
        <ele>35.400001525879</ele>
        <time>2015-11-02T19:46:25Z</time>
      </trkpt>
      <trkpt lat="48.83486" lon="2.35334">
        <ele>37.79999923706</ele>
        <time>2015-11-02T19:46:38Z</time>
      </trkpt>
      <trkpt lat="48.83473" lon="2.3533">
        <ele>39.20000076294</ele>
        <time>2015-11-02T19:46:44Z</time>
      </trkpt>
      <trkpt lat="48.83456" lon="2.35349">
        <ele>39</ele>
        <time>2015-11-02T19:46:49Z</time>
      </trkpt>
      <trkpt lat="48.83444" lon="2.35356">
        <ele>38.79999923706</ele>
        <time>2015-11-02T19:46:51Z</time>
      </trkpt>
      <trkpt lat="48.83432" lon="2.35363">
        <ele>39.400001525879</ele>
        <time>2015-11-02T19:46:53Z</time>
      </trkpt>
      <trkpt lat="48.83417" lon="2.35378">
        <ele>40</ele>
        <time>2015-11-02T19:46:56Z</time>
      </trkpt>
      <trkpt lat="48.83406" lon="2.35389">
        <ele>40.20000076294</ele>
        <time>2015-11-02T19:46:58Z</time>
      </trkpt>
      <trkpt lat="48.83388" lon="2.35402">
        <ele>40.599998474121</ele>
        <time>2015-11-02T19:47:01Z</time>
      </trkpt>
      <trkpt lat="48.83383" lon="2.35407">
        <ele>40.599998474121</ele>
        <time>2015-11-02T19:47:02Z</time>
      </trkpt>
      <trkpt lat="48.83363" lon="2.35423">
        <ele>40.599998474121</ele>
        <time>2015-11-02T19:47:06Z</time>
      </trkpt>
      <trkpt lat="48.83344" lon="2.35428">
        <ele>40.20000076294</ele>
        <time>2015-11-02T19:47:09Z</time>
      </trkpt>
      <trkpt lat="48.83339" lon="2.35432">
        <ele>40.400001525879</ele>
        <time>2015-11-02T19:47:10Z</time>
      </trkpt>
      <trkpt lat="48.83328" lon="2.35438">
        <ele>40.599998474121</ele>
        <time>2015-11-02T19:47:12Z</time>
      </trkpt>
      <trkpt lat="48.83307" lon="2.35454">
        <ele>41</ele>
        <time>2015-11-02T19:47:16Z</time>
      </trkpt>
      <trkpt lat="48.83286" lon="2.35464">
        <ele>44</ele>
        <time>2015-11-02T19:47:20Z</time>
      </trkpt>
      <trkpt lat="48.83272" lon="2.35475">
        <ele>44.20000076294</ele>
        <time>2015-11-02T19:47:23Z</time>
      </trkpt>
      <trkpt lat="48.83254" lon="2.35485">
        <ele>45</ele>
        <time>2015-11-02T19:47:27Z</time>
      </trkpt>
      <trkpt lat="48.83237" lon="2.35496">
        <ele>46</ele>
        <time>2015-11-02T19:47:31Z</time>
      </trkpt>
      <trkpt lat="48.83233" lon="2.35498">
        <ele>46.599998474121</ele>
        <time>2015-11-02T19:47:32Z</time>
      </trkpt>
      <trkpt lat="48.83213" lon="2.35501">
        <ele>54.20000076294</ele>
        <time>2015-11-02T19:47:39Z</time>
      </trkpt>
      <trkpt lat="48.83217" lon="2.35493">
        <ele>66</ele>
        <time>2015-11-02T19:48:35Z</time>
      </trkpt>
      <trkpt lat="48.83205" lon="2.35508">
        <ele>69.199996948242</ele>
        <time>2015-11-02T19:49:10Z</time>
      </trkpt>
      <trkpt lat="48.83191" lon="2.35506">
        <ele>67.199996948242</ele>
        <time>2015-11-02T19:49:22Z</time>
      </trkpt>
      <trkpt lat="48.83178" lon="2.35486">
        <ele>65.400001525879</ele>
        <time>2015-11-02T19:49:31Z</time>
      </trkpt>
      <trkpt lat="48.83161" lon="2.35471">
        <ele>61.79999923706</ele>
        <time>2015-11-02T19:49:40Z</time>
      </trkpt>
      <trkpt lat="48.83146" lon="2.35459">
        <ele>59</ele>
        <time>2015-11-02T19:50:08Z</time>
      </trkpt>
      <trkpt lat="48.83138" lon="2.35461">
        <ele>57</ele>
        <time>2015-11-02T19:50:28Z</time>
      </trkpt>
      <trkpt lat="48.83123" lon="2.3548">
        <ele>56.400001525879</ele>
        <time>2015-11-02T19:50:39Z</time>
      </trkpt>
      <trkpt lat="48.83108" lon="2.35497">
        <ele>56.599998474121</ele>
        <time>2015-11-02T19:50:46Z</time>
      </trkpt>
      <trkpt lat="48.83092" lon="2.35511">
        <ele>55.20000076294</ele>
        <time>2015-11-02T19:50:54Z</time>
      </trkpt>
      <trkpt lat="48.8309" lon="2.35513">
        <ele>55.20000076294</ele>
        <time>2015-11-02T19:50:55Z</time>
      </trkpt>
      <trkpt lat="48.83082" lon="2.35541">
        <ele>55.20000076294</ele>
        <time>2015-11-02T19:51:04Z</time>
      </trkpt>
      <trkpt lat="48.83081" lon="2.35558">
        <ele>55.599998474121</ele>
        <time>2015-11-02T19:51:09Z</time>
      </trkpt>
      <trkpt lat="48.83071" lon="2.35568">
        <ele>55.400001525879</ele>
        <time>2015-11-02T19:51:15Z</time>
      </trkpt>
      <trkpt lat="48.83071" lon="2.35591">
        <ele>56.400001525879</ele>
        <time>2015-11-02T19:51:38Z</time>
      </trkpt>
      <trkpt lat="48.83075" lon="2.35619">
        <ele>56</ele>
        <time>2015-11-02T19:51:45Z</time>
      </trkpt>
      <trkpt lat="48.83078" lon="2.35636">
        <ele>54.79999923706</ele>
        <time>2015-11-02T19:51:50Z</time>
      </trkpt>
      <trkpt lat="48.8309" lon="2.35661">
        <ele>54.400001525879</ele>
        <time>2015-11-02T19:51:57Z</time>
      </trkpt>
      <trkpt lat="48.83102" lon="2.35688">
        <ele>56.599998474121</ele>
        <time>2015-11-02T19:52:02Z</time>
      </trkpt>
      <trkpt lat="48.8311" lon="2.35712">
        <ele>56.79999923706</ele>
        <time>2015-11-02T19:52:06Z</time>
      </trkpt>
      <trkpt lat="48.83121" lon="2.35739">
        <ele>56</ele>
        <time>2015-11-02T19:52:10Z</time>
      </trkpt>
      <trkpt lat="48.83132" lon="2.35768">
        <ele>56.79999923706</ele>
        <time>2015-11-02T19:52:14Z</time>
      </trkpt>
      <trkpt lat="48.83142" lon="2.35795">
        <ele>58.79999923706</ele>
        <time>2015-11-02T19:52:18Z</time>
      </trkpt>
      <trkpt lat="48.83158" lon="2.35813">
        <ele>59.400001525879</ele>
        <time>2015-11-02T19:52:22Z</time>
      </trkpt>
      <trkpt lat="48.83167" lon="2.35839">
        <ele>59.599998474121</ele>
        <time>2015-11-02T19:52:26Z</time>
      </trkpt>
      <trkpt lat="48.83176" lon="2.35861">
        <ele>60</ele>
        <time>2015-11-02T19:52:29Z</time>
      </trkpt>
      <trkpt lat="48.83186" lon="2.35884">
        <ele>62.400001525879</ele>
        <time>2015-11-02T19:52:32Z</time>
      </trkpt>
      <trkpt lat="48.83194" lon="2.35909">
        <ele>63.400001525879</ele>
        <time>2015-11-02T19:52:35Z</time>
      </trkpt>
      <trkpt lat="48.83201" lon="2.35927">
        <ele>63</ele>
        <time>2015-11-02T19:52:37Z</time>
      </trkpt>
      <trkpt lat="48.83213" lon="2.35954">
        <ele>64.400001525879</ele>
        <time>2015-11-02T19:52:40Z</time>
      </trkpt>
      <trkpt lat="48.83223" lon="2.35981">
        <ele>66.400001525879</ele>
        <time>2015-11-02T19:52:43Z</time>
      </trkpt>
      <trkpt lat="48.83234" lon="2.36009">
        <ele>68.199996948242</ele>
        <time>2015-11-02T19:52:46Z</time>
      </trkpt>
      <trkpt lat="48.83245" lon="2.36036">
        <ele>70</ele>
        <time>2015-11-02T19:52:49Z</time>
      </trkpt>
      <trkpt lat="48.83255" lon="2.36061">
        <ele>71.800003051758</ele>
        <time>2015-11-02T19:52:52Z</time>
      </trkpt>
      <trkpt lat="48.83265" lon="2.36086">
        <ele>73.800003051758</ele>
        <time>2015-11-02T19:52:55Z</time>
      </trkpt>
      <trkpt lat="48.83276" lon="2.36111">
        <ele>77</ele>
        <time>2015-11-02T19:52:58Z</time>
      </trkpt>
      <trkpt lat="48.83287" lon="2.36136">
        <ele>81.400001525879</ele>
        <time>2015-11-02T19:53:01Z</time>
      </trkpt>
      <trkpt lat="48.83295" lon="2.36169">
        <ele>82.599998474121</ele>
        <time>2015-11-02T19:53:05Z</time>
      </trkpt>
      <trkpt lat="48.83303" lon="2.36197">
        <ele>81.400001525879</ele>
        <time>2015-11-02T19:53:09Z</time>
      </trkpt>
      <trkpt lat="48.8331" lon="2.36226">
        <ele>78.400001525879</ele>
        <time>2015-11-02T19:53:13Z</time>
      </trkpt>
      <trkpt lat="48.83312" lon="2.36234">
        <ele>77.599998474121</ele>
        <time>2015-11-02T19:53:14Z</time>
      </trkpt>
      <trkpt lat="48.83323" lon="2.36265">
        <ele>76.400001525879</ele>
        <time>2015-11-02T19:53:18Z</time>
      </trkpt>
      <trkpt lat="48.83334" lon="2.36296">
        <ele>77.199996948242</ele>
        <time>2015-11-02T19:53:22Z</time>
      </trkpt>
      <trkpt lat="48.83345" lon="2.36324">
        <ele>78</ele>
        <time>2015-11-02T19:53:26Z</time>
      </trkpt>
      <trkpt lat="48.83349" lon="2.36349">
        <ele>77.800003051758</ele>
        <time>2015-11-02T19:53:32Z</time>
      </trkpt>
      <trkpt lat="48.83331" lon="2.36367">
        <ele>69.599998474121</ele>
        <time>2015-11-02T19:53:44Z</time>
      </trkpt>
      <trkpt lat="48.83333" lon="2.36396">
        <ele>71</ele>
        <time>2015-11-02T19:53:54Z</time>
      </trkpt>
      <trkpt lat="48.83346" lon="2.36419">
        <ele>69</ele>
        <time>2015-11-02T19:53:58Z</time>
      </trkpt>
      <trkpt lat="48.83359" lon="2.36446">
        <ele>66.199996948242</ele>
        <time>2015-11-02T19:54:02Z</time>
      </trkpt>
      <trkpt lat="48.8337" lon="2.3647">
        <ele>64</ele>
        <time>2015-11-02T19:54:06Z</time>
      </trkpt>
      <trkpt lat="48.83385" lon="2.36492">
        <ele>62.599998474121</ele>
        <time>2015-11-02T19:54:10Z</time>
      </trkpt>
      <trkpt lat="48.83388" lon="2.36498">
        <ele>62.400001525879</ele>
        <time>2015-11-02T19:54:11Z</time>
      </trkpt>
      <trkpt lat="48.83401" lon="2.36525">
        <ele>62.400001525879</ele>
        <time>2015-11-02T19:54:15Z</time>
      </trkpt>
      <trkpt lat="48.83409" lon="2.36551">
        <ele>60.599998474121</ele>
        <time>2015-11-02T19:54:19Z</time>
      </trkpt>
      <trkpt lat="48.83417" lon="2.36581">
        <ele>58.20000076294</ele>
        <time>2015-11-02T19:54:23Z</time>
      </trkpt>
      <trkpt lat="48.83425" lon="2.3661">
        <ele>57.599998474121</ele>
        <time>2015-11-02T19:54:27Z</time>
      </trkpt>
      <trkpt lat="48.83434" lon="2.36636">
        <ele>57.20000076294</ele>
        <time>2015-11-02T19:54:30Z</time>
      </trkpt>
      <trkpt lat="48.83442" lon="2.36662">
        <ele>57.599998474121</ele>
        <time>2015-11-02T19:54:33Z</time>
      </trkpt>
      <trkpt lat="48.83452" lon="2.3669">
        <ele>57.400001525879</ele>
        <time>2015-11-02T19:54:36Z</time>
      </trkpt>
      <trkpt lat="48.83463" lon="2.36717">
        <ele>57.79999923706</ele>
        <time>2015-11-02T19:54:39Z</time>
      </trkpt>
      <trkpt lat="48.83466" lon="2.36727">
        <ele>57.79999923706</ele>
        <time>2015-11-02T19:54:40Z</time>
      </trkpt>
      <trkpt lat="48.83477" lon="2.36755">
        <ele>58.20000076294</ele>
        <time>2015-11-02T19:54:43Z</time>
      </trkpt>
      <trkpt lat="48.83488" lon="2.36783">
        <ele>57.79999923706</ele>
        <time>2015-11-02T19:54:46Z</time>
      </trkpt>
      <trkpt lat="48.83498" lon="2.3681">
        <ele>58</ele>
        <time>2015-11-02T19:54:49Z</time>
      </trkpt>
      <trkpt lat="48.8351" lon="2.36835">
        <ele>57.599998474121</ele>
        <time>2015-11-02T19:54:52Z</time>
      </trkpt>
      <trkpt lat="48.83522" lon="2.36862">
        <ele>57.20000076294</ele>
        <time>2015-11-02T19:54:55Z</time>
      </trkpt>
      <trkpt lat="48.83526" lon="2.36891">
        <ele>55.599998474121</ele>
        <time>2015-11-02T19:54:58Z</time>
      </trkpt>
      <trkpt lat="48.83534" lon="2.36919">
        <ele>54.20000076294</ele>
        <time>2015-11-02T19:55:02Z</time>
      </trkpt>
      <trkpt lat="48.83536" lon="2.36926">
        <ele>54.20000076294</ele>
        <time>2015-11-02T19:55:03Z</time>
      </trkpt>
      <trkpt lat="48.83545" lon="2.36949">
        <ele>54</ele>
        <time>2015-11-02T19:55:07Z</time>
      </trkpt>
      <trkpt lat="48.83555" lon="2.36977">
        <ele>54.20000076294</ele>
        <time>2015-11-02T19:55:11Z</time>
      </trkpt>
      <trkpt lat="48.83559" lon="2.36984">
        <ele>54.400001525879</ele>
        <time>2015-11-02T19:55:12Z</time>
      </trkpt>
      <trkpt lat="48.83573" lon="2.37015">
        <ele>55</ele>
        <time>2015-11-02T19:55:16Z</time>
      </trkpt>
      <trkpt lat="48.83586" lon="2.37038">
        <ele>56.599998474121</ele>
        <time>2015-11-02T19:55:19Z</time>
      </trkpt>
      <trkpt lat="48.83595" lon="2.37054">
        <ele>56.79999923706</ele>
        <time>2015-11-02T19:55:21Z</time>
      </trkpt>
      <trkpt lat="48.83609" lon="2.37076">
        <ele>58.20000076294</ele>
        <time>2015-11-02T19:55:24Z</time>
      </trkpt>
      <trkpt lat="48.83622" lon="2.37099">
        <ele>59.20000076294</ele>
        <time>2015-11-02T19:55:28Z</time>
      </trkpt>
      <trkpt lat="48.83633" lon="2.3712">
        <ele>59</ele>
        <time>2015-11-02T19:55:32Z</time>
      </trkpt>
      <trkpt lat="48.83641" lon="2.37135">
        <ele>59.599998474121</ele>
        <time>2015-11-02T19:55:36Z</time>
      </trkpt>
      <trkpt lat="48.83646" lon="2.37154">
        <ele>58.599998474121</ele>
        <time>2015-11-02T19:55:44Z</time>
      </trkpt>
      <trkpt lat="48.83638" lon="2.37152">
        <ele>58</ele>
        <time>2015-11-02T19:55:49Z</time>
      </trkpt>
      <trkpt lat="48.83613" lon="2.3717">
        <ele>56</ele>
        <time>2015-11-02T19:55:55Z</time>
      </trkpt>
      <trkpt lat="48.83601" lon="2.37184">
        <ele>55.400001525879</ele>
        <time>2015-11-02T19:55:58Z</time>
      </trkpt>
      <trkpt lat="48.83579" lon="2.37196">
        <ele>49.20000076294</ele>
        <time>2015-11-02T19:56:01Z</time>
      </trkpt>
      <trkpt lat="48.83559" lon="2.37215">
        <ele>47.599998474121</ele>
        <time>2015-11-02T19:56:05Z</time>
      </trkpt>
      <trkpt lat="48.83542" lon="2.37227">
        <ele>46.599998474121</ele>
        <time>2015-11-02T19:56:08Z</time>
      </trkpt>
      <trkpt lat="48.83527" lon="2.37243">
        <ele>45.79999923706</ele>
        <time>2015-11-02T19:56:11Z</time>
      </trkpt>
      <trkpt lat="48.8351" lon="2.37258">
        <ele>44.599998474121</ele>
        <time>2015-11-02T19:56:14Z</time>
      </trkpt>
      <trkpt lat="48.83493" lon="2.37272">
        <ele>44.400001525879</ele>
        <time>2015-11-02T19:56:17Z</time>
      </trkpt>
      <trkpt lat="48.83476" lon="2.37286">
        <ele>44.400001525879</ele>
        <time>2015-11-02T19:56:20Z</time>
      </trkpt>
      <trkpt lat="48.83461" lon="2.373">
        <ele>44.20000076294</ele>
        <time>2015-11-02T19:56:23Z</time>
      </trkpt>
      <trkpt lat="48.83452" lon="2.37312">
        <ele>43</ele>
        <time>2015-11-02T19:56:25Z</time>
      </trkpt>
      <trkpt lat="48.83434" lon="2.37327">
        <ele>42.599998474121</ele>
        <time>2015-11-02T19:56:29Z</time>
      </trkpt>
      <trkpt lat="48.83426" lon="2.37335">
        <ele>43.20000076294</ele>
        <time>2015-11-02T19:56:31Z</time>
      </trkpt>
      <trkpt lat="48.8341" lon="2.37352">
        <ele>43.20000076294</ele>
        <time>2015-11-02T19:56:35Z</time>
      </trkpt>
      <trkpt lat="48.83406" lon="2.37357">
        <ele>43.79999923706</ele>
        <time>2015-11-02T19:56:36Z</time>
      </trkpt>
      <trkpt lat="48.83393" lon="2.37375">
        <ele>46.400001525879</ele>
        <time>2015-11-02T19:56:40Z</time>
      </trkpt>
      <trkpt lat="48.83383" lon="2.37392">
        <ele>43.400001525879</ele>
        <time>2015-11-02T19:56:43Z</time>
      </trkpt>
      <trkpt lat="48.83366" lon="2.37409">
        <ele>42.400001525879</ele>
        <time>2015-11-02T19:56:47Z</time>
      </trkpt>
      <trkpt lat="48.83362" lon="2.37413">
        <ele>42.400001525879</ele>
        <time>2015-11-02T19:56:48Z</time>
      </trkpt>
      <trkpt lat="48.83347" lon="2.37426">
        <ele>43.20000076294</ele>
        <time>2015-11-02T19:56:51Z</time>
      </trkpt>
      <trkpt lat="48.83332" lon="2.37439">
        <ele>41.599998474121</ele>
        <time>2015-11-02T19:56:54Z</time>
      </trkpt>
      <trkpt lat="48.83314" lon="2.37455">
        <ele>41.79999923706</ele>
        <time>2015-11-02T19:56:58Z</time>
      </trkpt>
      <trkpt lat="48.83296" lon="2.37471">
        <ele>42.79999923706</ele>
        <time>2015-11-02T19:57:02Z</time>
      </trkpt>
      <trkpt lat="48.83279" lon="2.37488">
        <ele>43.79999923706</ele>
        <time>2015-11-02T19:57:06Z</time>
      </trkpt>
      <trkpt lat="48.8326" lon="2.37506">
        <ele>46.20000076294</ele>
        <time>2015-11-02T19:57:10Z</time>
      </trkpt>
      <trkpt lat="48.8324" lon="2.37525">
        <ele>46.599998474121</ele>
        <time>2015-11-02T19:57:14Z</time>
      </trkpt>
      <trkpt lat="48.8323" lon="2.37534">
        <ele>47</ele>
        <time>2015-11-02T19:57:16Z</time>
      </trkpt>
      <trkpt lat="48.83211" lon="2.37553">
        <ele>48</ele>
        <time>2015-11-02T19:57:20Z</time>
      </trkpt>
      <trkpt lat="48.83193" lon="2.37566">
        <ele>51.79999923706</ele>
        <time>2015-11-02T19:57:24Z</time>
      </trkpt>
      <trkpt lat="48.83176" lon="2.37583">
        <ele>54.400001525879</ele>
        <time>2015-11-02T19:57:29Z</time>
      </trkpt>
      <trkpt lat="48.83171" lon="2.37589">
        <ele>55.400001525879</ele>
        <time>2015-11-02T19:57:31Z</time>
      </trkpt>
      <trkpt lat="48.83155" lon="2.37579">
        <ele>59.79999923706</ele>
        <time>2015-11-02T19:57:39Z</time>
      </trkpt>
      <trkpt lat="48.83154" lon="2.37577">
        <ele>59.79999923706</ele>
        <time>2015-11-02T19:57:40Z</time>
      </trkpt>
      <trkpt lat="48.8314" lon="2.37586">
        <ele>65</ele>
        <time>2015-11-02T19:57:52Z</time>
      </trkpt>
      <trkpt lat="48.83133" lon="2.3759">
        <ele>62.400001525879</ele>
        <time>2015-11-02T19:57:53Z</time>
      </trkpt>
      <trkpt lat="48.83115" lon="2.37601">
        <ele>58.20000076294</ele>
        <time>2015-11-02T19:57:58Z</time>
      </trkpt>
      <trkpt lat="48.83098" lon="2.37617">
        <ele>56</ele>
        <time>2015-11-02T19:58:04Z</time>
      </trkpt>
      <trkpt lat="48.83082" lon="2.37637">
        <ele>55.599998474121</ele>
        <time>2015-11-02T19:58:10Z</time>
      </trkpt>
      <trkpt lat="48.83066" lon="2.37657">
        <ele>55.599998474121</ele>
        <time>2015-11-02T19:58:17Z</time>
      </trkpt>
      <trkpt lat="48.83058" lon="2.37668">
        <ele>55</ele>
        <time>2015-11-02T19:58:22Z</time>
      </trkpt>
      <trkpt lat="48.83055" lon="2.37682">
        <ele>56.20000076294</ele>
        <time>2015-11-02T19:58:37Z</time>
      </trkpt>
      <trkpt lat="48.83046" lon="2.37677">
        <ele>54.79999923706</ele>
        <time>2015-11-02T19:58:53Z</time>
      </trkpt>
      <trkpt lat="48.83027" lon="2.37692">
        <ele>54.79999923706</ele>
        <time>2015-11-02T19:59:00Z</time>
      </trkpt>
      <trkpt lat="48.83008" lon="2.37705">
        <ele>54.400001525879</ele>
        <time>2015-11-02T19:59:05Z</time>
      </trkpt>
      <trkpt lat="48.82991" lon="2.3772">
        <ele>54</ele>
        <time>2015-11-02T19:59:10Z</time>
      </trkpt>
      <trkpt lat="48.82973" lon="2.37734">
        <ele>53.20000076294</ele>
        <time>2015-11-02T19:59:14Z</time>
      </trkpt>
      <trkpt lat="48.82957" lon="2.37746">
        <ele>52.400001525879</ele>
        <time>2015-11-02T19:59:18Z</time>
      </trkpt>
      <trkpt lat="48.82939" lon="2.37762">
        <ele>50.20000076294</ele>
        <time>2015-11-02T19:59:23Z</time>
      </trkpt>
      <trkpt lat="48.82921" lon="2.37778">
        <ele>49.599998474121</ele>
        <time>2015-11-02T19:59:28Z</time>
      </trkpt>
      <trkpt lat="48.82905" lon="2.37792">
        <ele>48.20000076294</ele>
        <time>2015-11-02T19:59:33Z</time>
      </trkpt>
      <trkpt lat="48.82887" lon="2.37808">
        <ele>47</ele>
        <time>2015-11-02T19:59:38Z</time>
      </trkpt>
      <trkpt lat="48.82866" lon="2.37823">
        <ele>45.20000076294</ele>
        <time>2015-11-02T19:59:43Z</time>
      </trkpt>
      <trkpt lat="48.82851" lon="2.37839">
        <ele>42.79999923706</ele>
        <time>2015-11-02T19:59:47Z</time>
      </trkpt>
      <trkpt lat="48.82845" lon="2.37849">
        <ele>41.79999923706</ele>
        <time>2015-11-02T19:59:49Z</time>
      </trkpt>
      <trkpt lat="48.8284" lon="2.37879">
        <ele>41.20000076294</ele>
        <time>2015-11-02T19:59:53Z</time>
      </trkpt>
      <trkpt lat="48.82832" lon="2.37894">
        <ele>40.79999923706</ele>
        <time>2015-11-02T19:59:56Z</time>
      </trkpt>
      <trkpt lat="48.82827" lon="2.37902">
        <ele>41.79999923706</ele>
        <time>2015-11-02T19:59:58Z</time>
      </trkpt>
      <trkpt lat="48.82815" lon="2.37928">
        <ele>41.400001525879</ele>
        <time>2015-11-02T20:00:03Z</time>
      </trkpt>
      <trkpt lat="48.8281" lon="2.37931">
        <ele>42.400001525879</ele>
        <time>2015-11-02T20:00:04Z</time>
      </trkpt>
      <trkpt lat="48.82794" lon="2.37948">
        <ele>42.20000076294</ele>
        <time>2015-11-02T20:00:08Z</time>
      </trkpt>
      <trkpt lat="48.8278" lon="2.37966">
        <ele>43.79999923706</ele>
        <time>2015-11-02T20:00:12Z</time>
      </trkpt>
      <trkpt lat="48.82771" lon="2.37975">
        <ele>43.599998474121</ele>
        <time>2015-11-02T20:00:14Z</time>
      </trkpt>
      <trkpt lat="48.82753" lon="2.3799">
        <ele>43</ele>
        <time>2015-11-02T20:00:18Z</time>
      </trkpt>
      <trkpt lat="48.82749" lon="2.37995">
        <ele>43</ele>
        <time>2015-11-02T20:00:19Z</time>
      </trkpt>
      <trkpt lat="48.82734" lon="2.38011">
        <ele>42.79999923706</ele>
        <time>2015-11-02T20:00:23Z</time>
      </trkpt>
      <trkpt lat="48.82719" lon="2.38027">
        <ele>43</ele>
        <time>2015-11-02T20:00:27Z</time>
      </trkpt>
      <trkpt lat="48.82705" lon="2.38037">
        <ele>42.599998474121</ele>
        <time>2015-11-02T20:00:30Z</time>
      </trkpt>
      <trkpt lat="48.82686" lon="2.38049">
        <ele>42.400001525879</ele>
        <time>2015-11-02T20:00:34Z</time>
      </trkpt>
      <trkpt lat="48.82671" lon="2.38059">
        <ele>42.599998474121</ele>
        <time>2015-11-02T20:00:37Z</time>
      </trkpt>
      <trkpt lat="48.82654" lon="2.38074">
        <ele>42.400001525879</ele>
        <time>2015-11-02T20:00:41Z</time>
      </trkpt>
      <trkpt lat="48.82651" lon="2.38077">
        <ele>42.599998474121</ele>
        <time>2015-11-02T20:00:42Z</time>
      </trkpt>
      <trkpt lat="48.82639" lon="2.38087">
        <ele>43</ele>
        <time>2015-11-02T20:00:45Z</time>
      </trkpt>
      <trkpt lat="48.82621" lon="2.38105">
        <ele>44.20000076294</ele>
        <time>2015-11-02T20:00:50Z</time>
      </trkpt>
      <trkpt lat="48.82617" lon="2.38109">
        <ele>44.599998474121</ele>
        <time>2015-11-02T20:00:51Z</time>
      </trkpt>
      <trkpt lat="48.82614" lon="2.38114">
        <ele>45</ele>
        <time>2015-11-02T20:00:52Z</time>
      </trkpt>
      <trkpt lat="48.82603" lon="2.38137">
        <ele>47.79999923706</ele>
        <time>2015-11-02T20:00:57Z</time>
      </trkpt>
      <trkpt lat="48.82598" lon="2.38149">
        <ele>49</ele>
        <time>2015-11-02T20:01:00Z</time>
      </trkpt>
      <trkpt lat="48.82593" lon="2.38161">
        <ele>49.20000076294</ele>
        <time>2015-11-02T20:01:04Z</time>
      </trkpt>
      <trkpt lat="48.82589" lon="2.38168">
        <ele>49.20000076294</ele>
        <time>2015-11-02T20:01:08Z</time>
      </trkpt>
      <trkpt lat="48.82583" lon="2.38157">
        <ele>44.79999923706</ele>
        <time>2015-11-02T20:01:52Z</time>
      </trkpt>
      <trkpt lat="48.82581" lon="2.38171">
        <ele>43.599998474121</ele>
        <time>2015-11-02T20:02:19Z</time>
      </trkpt>
      <trkpt lat="48.8258" lon="2.38176">
        <ele>43.599998474121</ele>
        <time>2015-11-02T20:02:22Z</time>
      </trkpt>
      <trkpt lat="48.82574" lon="2.38202">
        <ele>43</ele>
        <time>2015-11-02T20:02:48Z</time>
      </trkpt>
      <trkpt lat="48.82581" lon="2.38228">
        <ele>43.599998474121</ele>
        <time>2015-11-02T20:02:55Z</time>
      </trkpt>
      <trkpt lat="48.82588" lon="2.38253">
        <ele>43.400001525879</ele>
        <time>2015-11-02T20:03:01Z</time>
      </trkpt>
      <trkpt lat="48.82596" lon="2.38279">
        <ele>41.79999923706</ele>
        <time>2015-11-02T20:03:07Z</time>
      </trkpt>
      <trkpt lat="48.82606" lon="2.38306">
        <ele>42.400001525879</ele>
        <time>2015-11-02T20:03:13Z</time>
      </trkpt>
      <trkpt lat="48.82615" lon="2.38332">
        <ele>41</ele>
        <time>2015-11-02T20:03:18Z</time>
      </trkpt>
      <trkpt lat="48.82628" lon="2.38359">
        <ele>39.79999923706</ele>
        <time>2015-11-02T20:03:23Z</time>
      </trkpt>
      <trkpt lat="48.82638" lon="2.38382">
        <ele>38.599998474121</ele>
        <time>2015-11-02T20:03:27Z</time>
      </trkpt>
      <trkpt lat="48.82649" lon="2.38408">
        <ele>37.79999923706</ele>
        <time>2015-11-02T20:03:31Z</time>
      </trkpt>
      <trkpt lat="48.8266" lon="2.38434">
        <ele>36.400001525879</ele>
        <time>2015-11-02T20:03:35Z</time>
      </trkpt>
      <trkpt lat="48.82671" lon="2.38463">
        <ele>36.20000076294</ele>
        <time>2015-11-02T20:03:39Z</time>
      </trkpt>
      <trkpt lat="48.82684" lon="2.38492">
        <ele>35.20000076294</ele>
        <time>2015-11-02T20:03:43Z</time>
      </trkpt>
      <trkpt lat="48.82698" lon="2.38521">
        <ele>35.599998474121</ele>
        <time>2015-11-02T20:03:47Z</time>
      </trkpt>
      <trkpt lat="48.82713" lon="2.38548">
        <ele>35.599998474121</ele>
        <time>2015-11-02T20:03:51Z</time>
      </trkpt>
      <trkpt lat="48.82727" lon="2.38571">
        <ele>35.20000076294</ele>
        <time>2015-11-02T20:03:55Z</time>
      </trkpt>
      <trkpt lat="48.82741" lon="2.38596">
        <ele>35.20000076294</ele>
        <time>2015-11-02T20:03:59Z</time>
      </trkpt>
      <trkpt lat="48.82752" lon="2.38623">
        <ele>34.400001525879</ele>
        <time>2015-11-02T20:04:03Z</time>
      </trkpt>
      <trkpt lat="48.82757" lon="2.38636">
        <ele>34</ele>
        <time>2015-11-02T20:04:05Z</time>
      </trkpt>
      <trkpt lat="48.8277" lon="2.38661">
        <ele>34.20000076294</ele>
        <time>2015-11-02T20:04:09Z</time>
      </trkpt>
      <trkpt lat="48.82784" lon="2.3869">
        <ele>34.400001525879</ele>
        <time>2015-11-02T20:04:13Z</time>
      </trkpt>
      <trkpt lat="48.82788" lon="2.38697">
        <ele>34.400001525879</ele>
        <time>2015-11-02T20:04:14Z</time>
      </trkpt>
      <trkpt lat="48.82799" lon="2.3872">
        <ele>34.400001525879</ele>
        <time>2015-11-02T20:04:17Z</time>
      </trkpt>
      <trkpt lat="48.8281" lon="2.38745">
        <ele>34.599998474121</ele>
        <time>2015-11-02T20:04:20Z</time>
      </trkpt>
      <trkpt lat="48.82823" lon="2.38769">
        <ele>33.79999923706</ele>
        <time>2015-11-02T20:04:23Z</time>
      </trkpt>
      <trkpt lat="48.82835" lon="2.38794">
        <ele>33.79999923706</ele>
        <time>2015-11-02T20:04:26Z</time>
      </trkpt>
      <trkpt lat="48.82847" lon="2.38819">
        <ele>33.20000076294</ele>
        <time>2015-11-02T20:04:29Z</time>
      </trkpt>
      <trkpt lat="48.82858" lon="2.38845">
        <ele>32.599998474121</ele>
        <time>2015-11-02T20:04:32Z</time>
      </trkpt>
      <trkpt lat="48.8287" lon="2.38871">
        <ele>31.200000762939</ele>
        <time>2015-11-02T20:04:35Z</time>
      </trkpt>
      <trkpt lat="48.82878" lon="2.38889">
        <ele>30.39999961853</ele>
        <time>2015-11-02T20:04:37Z</time>
      </trkpt>
      <trkpt lat="48.82889" lon="2.38917">
        <ele>29.799999237061</ele>
        <time>2015-11-02T20:04:40Z</time>
      </trkpt>
      <trkpt lat="48.82899" lon="2.38947">
        <ele>29</ele>
        <time>2015-11-02T20:04:43Z</time>
      </trkpt>
      <trkpt lat="48.82909" lon="2.38977">
        <ele>27.799999237061</ele>
        <time>2015-11-02T20:04:46Z</time>
      </trkpt>
      <trkpt lat="48.82918" lon="2.39007">
        <ele>28</ele>
        <time>2015-11-02T20:04:49Z</time>
      </trkpt>
      <trkpt lat="48.82927" lon="2.39035">
        <ele>28.200000762939</ele>
        <time>2015-11-02T20:04:52Z</time>
      </trkpt>
      <trkpt lat="48.82937" lon="2.39061">
        <ele>27.799999237061</ele>
        <time>2015-11-02T20:04:55Z</time>
      </trkpt>
      <trkpt lat="48.82949" lon="2.39088">
        <ele>27</ele>
        <time>2015-11-02T20:04:58Z</time>
      </trkpt>
      <trkpt lat="48.82961" lon="2.39114">
        <ele>26</ele>
        <time>2015-11-02T20:05:01Z</time>
      </trkpt>
      <trkpt lat="48.82973" lon="2.3914">
        <ele>27</ele>
        <time>2015-11-02T20:05:04Z</time>
      </trkpt>
      <trkpt lat="48.82984" lon="2.39167">
        <ele>28</ele>
        <time>2015-11-02T20:05:07Z</time>
      </trkpt>
      <trkpt lat="48.82987" lon="2.39176">
        <ele>28.200000762939</ele>
        <time>2015-11-02T20:05:08Z</time>
      </trkpt>
      <trkpt lat="48.82996" lon="2.39203">
        <ele>29.200000762939</ele>
        <time>2015-11-02T20:05:11Z</time>
      </trkpt>
      <trkpt lat="48.83006" lon="2.39234">
        <ele>29.39999961853</ele>
        <time>2015-11-02T20:05:15Z</time>
      </trkpt>
      <trkpt lat="48.83014" lon="2.39256">
        <ele>29.60000038147</ele>
        <time>2015-11-02T20:05:18Z</time>
      </trkpt>
      <trkpt lat="48.83022" lon="2.39289">
        <ele>30.200000762939</ele>
        <time>2015-11-02T20:05:22Z</time>
      </trkpt>
      <trkpt lat="48.83027" lon="2.39315">
        <ele>30.60000038147</ele>
        <time>2015-11-02T20:05:25Z</time>
      </trkpt>
      <trkpt lat="48.83032" lon="2.39343">
        <ele>31.39999961853</ele>
        <time>2015-11-02T20:05:28Z</time>
      </trkpt>
      <trkpt lat="48.83037" lon="2.3937">
        <ele>31.799999237061</ele>
        <time>2015-11-02T20:05:31Z</time>
      </trkpt>
      <trkpt lat="48.83042" lon="2.39398">
        <ele>32.599998474121</ele>
        <time>2015-11-02T20:05:34Z</time>
      </trkpt>
      <trkpt lat="48.83049" lon="2.39424">
        <ele>33</ele>
        <time>2015-11-02T20:05:37Z</time>
      </trkpt>
      <trkpt lat="48.83051" lon="2.39433">
        <ele>33.20000076294</ele>
        <time>2015-11-02T20:05:38Z</time>
      </trkpt>
      <trkpt lat="48.83057" lon="2.3946">
        <ele>34</ele>
        <time>2015-11-02T20:05:41Z</time>
      </trkpt>
      <trkpt lat="48.83064" lon="2.39487">
        <ele>34.20000076294</ele>
        <time>2015-11-02T20:05:44Z</time>
      </trkpt>
      <trkpt lat="48.83071" lon="2.39514">
        <ele>34.79999923706</ele>
        <time>2015-11-02T20:05:47Z</time>
      </trkpt>
      <trkpt lat="48.83077" lon="2.39542">
        <ele>35</ele>
        <time>2015-11-02T20:05:50Z</time>
      </trkpt>
      <trkpt lat="48.83084" lon="2.39569">
        <ele>35.400001525879</ele>
        <time>2015-11-02T20:05:53Z</time>
      </trkpt>
      <trkpt lat="48.83092" lon="2.39595">
        <ele>35.599998474121</ele>
        <time>2015-11-02T20:05:56Z</time>
      </trkpt>
      <trkpt lat="48.831" lon="2.39621">
        <ele>35.400001525879</ele>
        <time>2015-11-02T20:05:59Z</time>
      </trkpt>
      <trkpt lat="48.83108" lon="2.39645">
        <ele>35.79999923706</ele>
        <time>2015-11-02T20:06:02Z</time>
      </trkpt>
      <trkpt lat="48.8312" lon="2.39676">
        <ele>36.599998474121</ele>
        <time>2015-11-02T20:06:06Z</time>
      </trkpt>
      <trkpt lat="48.83127" lon="2.39696">
        <ele>36.599998474121</ele>
        <time>2015-11-02T20:06:09Z</time>
      </trkpt>
      <trkpt lat="48.83136" lon="2.3972">
        <ele>38.20000076294</ele>
        <time>2015-11-02T20:06:14Z</time>
      </trkpt>
      <trkpt lat="48.83143" lon="2.39737">
        <ele>39.79999923706</ele>
        <time>2015-11-02T20:06:19Z</time>
      </trkpt>
      <trkpt lat="48.83143" lon="2.39743">
        <ele>40.20000076294</ele>
        <time>2015-11-02T20:06:22Z</time>
      </trkpt>
      <trkpt lat="48.83132" lon="2.39722">
        <ele>39.20000076294</ele>
        <time>2015-11-02T20:06:44Z</time>
      </trkpt>
      <trkpt lat="48.83122" lon="2.39696">
        <ele>38.79999923706</ele>
        <time>2015-11-02T20:06:50Z</time>
      </trkpt>
      <trkpt lat="48.83111" lon="2.39667">
        <ele>38.400001525879</ele>
        <time>2015-11-02T20:06:55Z</time>
      </trkpt>
      <trkpt lat="48.83102" lon="2.39641">
        <ele>37.79999923706</ele>
        <time>2015-11-02T20:06:59Z</time>
      </trkpt>
      <trkpt lat="48.83092" lon="2.39614">
        <ele>37.599998474121</ele>
        <time>2015-11-02T20:07:03Z</time>
      </trkpt>
      <trkpt lat="48.83083" lon="2.39585">
        <ele>37.599998474121</ele>
        <time>2015-11-02T20:07:07Z</time>
      </trkpt>
      <trkpt lat="48.83079" lon="2.3957">
        <ele>37.20000076294</ele>
        <time>2015-11-02T20:07:09Z</time>
      </trkpt>
      <trkpt lat="48.83071" lon="2.3954">
        <ele>37.20000076294</ele>
        <time>2015-11-02T20:07:13Z</time>
      </trkpt>
      <trkpt lat="48.83069" lon="2.39533">
        <ele>37</ele>
        <time>2015-11-02T20:07:14Z</time>
      </trkpt>
      <trkpt lat="48.83063" lon="2.3951">
        <ele>37.599998474121</ele>
        <time>2015-11-02T20:07:17Z</time>
      </trkpt>
      <trkpt lat="48.83057" lon="2.39478">
        <ele>36.599998474121</ele>
        <time>2015-11-02T20:07:21Z</time>
      </trkpt>
      <trkpt lat="48.8305" lon="2.39446">
        <ele>35.79999923706</ele>
        <time>2015-11-02T20:07:25Z</time>
      </trkpt>
      <trkpt lat="48.83042" lon="2.39416">
        <ele>36.79999923706</ele>
        <time>2015-11-02T20:07:29Z</time>
      </trkpt>
      <trkpt lat="48.83036" lon="2.39388">
        <ele>36.400001525879</ele>
        <time>2015-11-02T20:07:33Z</time>
      </trkpt>
      <trkpt lat="48.8303" lon="2.3936">
        <ele>35.400001525879</ele>
        <time>2015-11-02T20:07:38Z</time>
      </trkpt>
      <trkpt lat="48.83023" lon="2.3933">
        <ele>36.599998474121</ele>
        <time>2015-11-02T20:07:43Z</time>
      </trkpt>
      <trkpt lat="48.83015" lon="2.393">
        <ele>39.20000076294</ele>
        <time>2015-11-02T20:07:48Z</time>
      </trkpt>
      <trkpt lat="48.83007" lon="2.39271">
        <ele>37.400001525879</ele>
        <time>2015-11-02T20:07:52Z</time>
      </trkpt>
      <trkpt lat="48.83001" lon="2.39243">
        <ele>35.400001525879</ele>
        <time>2015-11-02T20:07:56Z</time>
      </trkpt>
      <trkpt lat="48.82994" lon="2.39216">
        <ele>34.20000076294</ele>
        <time>2015-11-02T20:08:00Z</time>
      </trkpt>
      <trkpt lat="48.82985" lon="2.39189">
        <ele>33.20000076294</ele>
        <time>2015-11-02T20:08:04Z</time>
      </trkpt>
      <trkpt lat="48.82983" lon="2.39183">
        <ele>33.20000076294</ele>
        <time>2015-11-02T20:08:05Z</time>
      </trkpt>
      <trkpt lat="48.82973" lon="2.39155">
        <ele>33.400001525879</ele>
        <time>2015-11-02T20:08:10Z</time>
      </trkpt>
      <trkpt lat="48.82968" lon="2.39144">
        <ele>32.79999923706</ele>
        <time>2015-11-02T20:08:12Z</time>
      </trkpt>
      <trkpt lat="48.82957" lon="2.39121">
        <ele>32.20000076294</ele>
        <time>2015-11-02T20:08:16Z</time>
      </trkpt>
      <trkpt lat="48.82944" lon="2.39099">
        <ele>30.39999961853</ele>
        <time>2015-11-02T20:08:21Z</time>
      </trkpt>
      <trkpt lat="48.82933" lon="2.39078">
        <ele>30.200000762939</ele>
        <time>2015-11-02T20:08:28Z</time>
      </trkpt>
      <trkpt lat="48.82933" lon="2.39057">
        <ele>30.60000038147</ele>
        <time>2015-11-02T20:08:34Z</time>
      </trkpt>
      <trkpt lat="48.82933" lon="2.39028">
        <ele>31</ele>
        <time>2015-11-02T20:08:40Z</time>
      </trkpt>
      <trkpt lat="48.82925" lon="2.38999">
        <ele>29.60000038147</ele>
        <time>2015-11-02T20:08:46Z</time>
      </trkpt>
      <trkpt lat="48.82924" lon="2.38995">
        <ele>29.200000762939</ele>
        <time>2015-11-02T20:08:47Z</time>
      </trkpt>
      <trkpt lat="48.82928" lon="2.38984">
        <ele>28.60000038147</ele>
        <time>2015-11-02T20:08:52Z</time>
      </trkpt>
      <trkpt lat="48.8293" lon="2.3898">
        <ele>28</ele>
        <time>2015-11-02T20:08:54Z</time>
      </trkpt>
      <trkpt lat="48.82925" lon="2.38964">
        <ele>27.200000762939</ele>
        <time>2015-11-02T20:08:59Z</time>
      </trkpt>
      <trkpt lat="48.82913" lon="2.38936">
        <ele>27</ele>
        <time>2015-11-02T20:09:05Z</time>
      </trkpt>
      <trkpt lat="48.82903" lon="2.38911">
        <ele>27.799999237061</ele>
        <time>2015-11-02T20:09:10Z</time>
      </trkpt>
      <trkpt lat="48.82891" lon="2.38884">
        <ele>28.60000038147</ele>
        <time>2015-11-02T20:09:15Z</time>
      </trkpt>
      <trkpt lat="48.82881" lon="2.38859">
        <ele>29.39999961853</ele>
        <time>2015-11-02T20:09:21Z</time>
      </trkpt>
      <trkpt lat="48.82879" lon="2.38854">
        <ele>29.39999961853</ele>
        <time>2015-11-02T20:09:23Z</time>
      </trkpt>
      <trkpt lat="48.82895" lon="2.38842">
        <ele>30.200000762939</ele>
        <time>2015-11-02T20:09:51Z</time>
      </trkpt>
      <trkpt lat="48.82909" lon="2.3882">
        <ele>30</ele>
        <time>2015-11-02T20:09:59Z</time>
      </trkpt>
      <trkpt lat="48.82926" lon="2.38801">
        <ele>29</ele>
        <time>2015-11-02T20:10:06Z</time>
      </trkpt>
      <trkpt lat="48.82937" lon="2.3878">
        <ele>26.799999237061</ele>
        <time>2015-11-02T20:10:11Z</time>
      </trkpt>
      <trkpt lat="48.82952" lon="2.38755">
        <ele>26.39999961853</ele>
        <time>2015-11-02T20:10:16Z</time>
      </trkpt>
      <trkpt lat="48.82965" lon="2.38736">
        <ele>26.60000038147</ele>
        <time>2015-11-02T20:10:21Z</time>
      </trkpt>
      <trkpt lat="48.82976" lon="2.38726">
        <ele>26.39999961853</ele>
        <time>2015-11-02T20:10:26Z</time>
      </trkpt>
      <trkpt lat="48.82985" lon="2.3872">
        <ele>26.39999961853</ele>
        <time>2015-11-02T20:10:30Z</time>
      </trkpt>
      <trkpt lat="48.82995" lon="2.3872">
        <ele>26.60000038147</ele>
        <time>2015-11-02T20:11:11Z</time>
      </trkpt>
      <trkpt lat="48.82999" lon="2.38718">
        <ele>27.200000762939</ele>
        <time>2015-11-02T20:11:50Z</time>
      </trkpt>
      <trkpt lat="48.83017" lon="2.38702">
        <ele>27.200000762939</ele>
        <time>2015-11-02T20:11:59Z</time>
      </trkpt>
      <trkpt lat="48.83033" lon="2.38684">
        <ele>27.39999961853</ele>
        <time>2015-11-02T20:12:05Z</time>
      </trkpt>
      <trkpt lat="48.83049" lon="2.38669">
        <ele>32</ele>
        <time>2015-11-02T20:12:14Z</time>
      </trkpt>
      <trkpt lat="48.83068" lon="2.38678">
        <ele>33.79999923706</ele>
        <time>2015-11-02T20:12:20Z</time>
      </trkpt>
      <trkpt lat="48.83083" lon="2.38694">
        <ele>33.20000076294</ele>
        <time>2015-11-02T20:12:25Z</time>
      </trkpt>
      <trkpt lat="48.831" lon="2.38713">
        <ele>34.20000076294</ele>
        <time>2015-11-02T20:12:30Z</time>
      </trkpt>
      <trkpt lat="48.83116" lon="2.38731">
        <ele>34.599998474121</ele>
        <time>2015-11-02T20:12:34Z</time>
      </trkpt>
      <trkpt lat="48.83133" lon="2.38754">
        <ele>34.79999923706</ele>
        <time>2015-11-02T20:12:38Z</time>
      </trkpt>
      <trkpt lat="48.83149" lon="2.38771">
        <ele>38</ele>
        <time>2015-11-02T20:12:41Z</time>
      </trkpt>
      <trkpt lat="48.83164" lon="2.38789">
        <ele>38.400001525879</ele>
        <time>2015-11-02T20:12:44Z</time>
      </trkpt>
      <trkpt lat="48.83181" lon="2.38812">
        <ele>39.599998474121</ele>
        <time>2015-11-02T20:12:48Z</time>
      </trkpt>
      <trkpt lat="48.83197" lon="2.38837">
        <ele>38</ele>
        <time>2015-11-02T20:12:52Z</time>
      </trkpt>
      <trkpt lat="48.8321" lon="2.38864">
        <ele>36.400001525879</ele>
        <time>2015-11-02T20:12:56Z</time>
      </trkpt>
      <trkpt lat="48.8322" lon="2.38883">
        <ele>36.400001525879</ele>
        <time>2015-11-02T20:12:59Z</time>
      </trkpt>
      <trkpt lat="48.83232" lon="2.38909">
        <ele>35.400001525879</ele>
        <time>2015-11-02T20:13:03Z</time>
      </trkpt>
      <trkpt lat="48.83238" lon="2.38921">
        <ele>34.599998474121</ele>
        <time>2015-11-02T20:13:05Z</time>
      </trkpt>
      <trkpt lat="48.83245" lon="2.38934">
        <ele>33.400001525879</ele>
        <time>2015-11-02T20:13:07Z</time>
      </trkpt>
      <trkpt lat="48.83257" lon="2.38959">
        <ele>31.60000038147</ele>
        <time>2015-11-02T20:13:11Z</time>
      </trkpt>
      <trkpt lat="48.83267" lon="2.38982">
        <ele>29.39999961853</ele>
        <time>2015-11-02T20:13:15Z</time>
      </trkpt>
      <trkpt lat="48.83276" lon="2.39007">
        <ele>25.200000762939</ele>
        <time>2015-11-02T20:13:20Z</time>
      </trkpt>
      <trkpt lat="48.83282" lon="2.39024">
        <ele>24.200000762939</ele>
        <time>2015-11-02T20:13:24Z</time>
      </trkpt>
      <trkpt lat="48.8329" lon="2.39021">
        <ele>25.39999961853</ele>
        <time>2015-11-02T20:13:48Z</time>
      </trkpt>
      <trkpt lat="48.83304" lon="2.38999">
        <ele>25</ele>
        <time>2015-11-02T20:13:59Z</time>
      </trkpt>
      <trkpt lat="48.83319" lon="2.3898">
        <ele>25</ele>
        <time>2015-11-02T20:14:04Z</time>
      </trkpt>
      <trkpt lat="48.83326" lon="2.38971">
        <ele>25.200000762939</ele>
        <time>2015-11-02T20:14:06Z</time>
      </trkpt>
      <trkpt lat="48.83344" lon="2.38951">
        <ele>25.799999237061</ele>
        <time>2015-11-02T20:14:10Z</time>
      </trkpt>
      <trkpt lat="48.83363" lon="2.38929">
        <ele>25.39999961853</ele>
        <time>2015-11-02T20:14:14Z</time>
      </trkpt>
      <trkpt lat="48.83377" lon="2.3891">
        <ele>25</ele>
        <time>2015-11-02T20:14:17Z</time>
      </trkpt>
      <trkpt lat="48.83384" lon="2.38896">
        <ele>23.39999961853</ele>
        <time>2015-11-02T20:14:19Z</time>
      </trkpt>
      <trkpt lat="48.83399" lon="2.38871">
        <ele>22.39999961853</ele>
        <time>2015-11-02T20:14:23Z</time>
      </trkpt>
      <trkpt lat="48.83416" lon="2.38847">
        <ele>21.60000038147</ele>
        <time>2015-11-02T20:14:27Z</time>
      </trkpt>
      <trkpt lat="48.83432" lon="2.38823">
        <ele>21</ele>
        <time>2015-11-02T20:14:31Z</time>
      </trkpt>
      <trkpt lat="48.83447" lon="2.38804">
        <ele>20.60000038147</ele>
        <time>2015-11-02T20:14:35Z</time>
      </trkpt>
      <trkpt lat="48.83453" lon="2.38794">
        <ele>19.39999961853</ele>
        <time>2015-11-02T20:14:37Z</time>
      </trkpt>
      <trkpt lat="48.83467" lon="2.38769">
        <ele>17.60000038147</ele>
        <time>2015-11-02T20:14:42Z</time>
      </trkpt>
      <trkpt lat="48.83481" lon="2.3875">
        <ele>16.200000762939</ele>
        <time>2015-11-02T20:14:46Z</time>
      </trkpt>
      <trkpt lat="48.83489" lon="2.38743">
        <ele>17</ele>
        <time>2015-11-02T20:14:48Z</time>
      </trkpt>
      <trkpt lat="48.83503" lon="2.38726">
        <ele>18</ele>
        <time>2015-11-02T20:14:53Z</time>
      </trkpt>
      <trkpt lat="48.8352" lon="2.38709">
        <ele>18.799999237061</ele>
        <time>2015-11-02T20:14:59Z</time>
      </trkpt>
      <trkpt lat="48.83525" lon="2.38702">
        <ele>19.200000762939</ele>
        <time>2015-11-02T20:15:01Z</time>
      </trkpt>
      <trkpt lat="48.83538" lon="2.38688">
        <ele>19.39999961853</ele>
        <time>2015-11-02T20:15:05Z</time>
      </trkpt>
      <trkpt lat="48.83552" lon="2.38666">
        <ele>19.799999237061</ele>
        <time>2015-11-02T20:15:10Z</time>
      </trkpt>
      <trkpt lat="48.83566" lon="2.38648">
        <ele>19.60000038147</ele>
        <time>2015-11-02T20:15:15Z</time>
      </trkpt>
      <trkpt lat="48.8358" lon="2.38645">
        <ele>20.200000762939</ele>
        <time>2015-11-02T20:15:21Z</time>
      </trkpt>
      <trkpt lat="48.83581" lon="2.38646">
        <ele>20.200000762939</ele>
        <time>2015-11-02T20:15:24Z</time>
      </trkpt>
      <trkpt lat="48.83583" lon="2.38645">
        <ele>25.200000762939</ele>
        <time>2015-11-02T20:15:49Z</time>
      </trkpt>
      <trkpt lat="48.83594" lon="2.38667">
        <ele>27.200000762939</ele>
        <time>2015-11-02T20:15:55Z</time>
      </trkpt>
      <trkpt lat="48.83603" lon="2.38691">
        <ele>31.39999961853</ele>
        <time>2015-11-02T20:15:59Z</time>
      </trkpt>
      <trkpt lat="48.83619" lon="2.38716">
        <ele>33.599998474121</ele>
        <time>2015-11-02T20:16:03Z</time>
      </trkpt>
      <trkpt lat="48.8363" lon="2.38738">
        <ele>31.39999961853</ele>
        <time>2015-11-02T20:16:07Z</time>
      </trkpt>
      <trkpt lat="48.83641" lon="2.38763">
        <ele>31.39999961853</ele>
        <time>2015-11-02T20:16:12Z</time>
      </trkpt>
      <trkpt lat="48.83655" lon="2.38782">
        <ele>32</ele>
        <time>2015-11-02T20:16:17Z</time>
      </trkpt>
      <trkpt lat="48.83666" lon="2.38807">
        <ele>33.79999923706</ele>
        <time>2015-11-02T20:16:22Z</time>
      </trkpt>
      <trkpt lat="48.83659" lon="2.38822">
        <ele>36.400001525879</ele>
        <time>2015-11-02T20:16:27Z</time>
      </trkpt>
      <trkpt lat="48.83657" lon="2.38851">
        <ele>37.599998474121</ele>
        <time>2015-11-02T20:16:34Z</time>
      </trkpt>
      <trkpt lat="48.83656" lon="2.38859">
        <ele>38.79999923706</ele>
        <time>2015-11-02T20:16:39Z</time>
      </trkpt>
      <trkpt lat="48.83659" lon="2.38895">
        <ele>41.20000076294</ele>
        <time>2015-11-02T20:16:46Z</time>
      </trkpt>
      <trkpt lat="48.83663" lon="2.38902">
        <ele>41.400001525879</ele>
        <time>2015-11-02T20:16:47Z</time>
      </trkpt>
      <trkpt lat="48.83683" lon="2.38937">
        <ele>43</ele>
        <time>2015-11-02T20:16:49Z</time>
      </trkpt>
      <trkpt lat="48.83692" lon="2.38961">
        <ele>43</ele>
        <time>2015-11-02T20:16:51Z</time>
      </trkpt>
      <trkpt lat="48.83696" lon="2.3899">
        <ele>43.20000076294</ele>
        <time>2015-11-02T20:16:53Z</time>
      </trkpt>
      <trkpt lat="48.83706" lon="2.39014">
        <ele>42.599998474121</ele>
        <time>2015-11-02T20:16:56Z</time>
      </trkpt>
      <trkpt lat="48.83715" lon="2.39034">
        <ele>42.400001525879</ele>
        <time>2015-11-02T20:16:59Z</time>
      </trkpt>
      <trkpt lat="48.83722" lon="2.39062">
        <ele>40.79999923706</ele>
        <time>2015-11-02T20:17:03Z</time>
      </trkpt>
      <trkpt lat="48.83725" lon="2.39074">
        <ele>40.20000076294</ele>
        <time>2015-11-02T20:17:05Z</time>
      </trkpt>
      <trkpt lat="48.83728" lon="2.39085">
        <ele>39.20000076294</ele>
        <time>2015-11-02T20:17:07Z</time>
      </trkpt>
      <trkpt lat="48.8373" lon="2.39099">
        <ele>37.599998474121</ele>
        <time>2015-11-02T20:17:10Z</time>
      </trkpt>
      <trkpt lat="48.83726" lon="2.39123">
        <ele>34</ele>
        <time>2015-11-02T20:17:19Z</time>
      </trkpt>
      <trkpt lat="48.83723" lon="2.39128">
        <ele>33.599998474121</ele>
        <time>2015-11-02T20:17:20Z</time>
      </trkpt>
      <trkpt lat="48.83716" lon="2.39142">
        <ele>33.79999923706</ele>
        <time>2015-11-02T20:17:23Z</time>
      </trkpt>
      <trkpt lat="48.83703" lon="2.39168">
        <ele>35</ele>
        <time>2015-11-02T20:17:29Z</time>
      </trkpt>
      <trkpt lat="48.83701" lon="2.39173">
        <ele>35.400001525879</ele>
        <time>2015-11-02T20:17:30Z</time>
      </trkpt>
      <trkpt lat="48.83696" lon="2.3919">
        <ele>36.599998474121</ele>
        <time>2015-11-02T20:17:34Z</time>
      </trkpt>
      <trkpt lat="48.83691" lon="2.39218">
        <ele>39</ele>
        <time>2015-11-02T20:17:43Z</time>
      </trkpt>
      <trkpt lat="48.83691" lon="2.39221">
        <ele>39.599998474121</ele>
        <time>2015-11-02T20:17:45Z</time>
      </trkpt>
      <trkpt lat="48.83682" lon="2.39218">
        <ele>36.20000076294</ele>
        <time>2015-11-02T20:18:16Z</time>
      </trkpt>
      <trkpt lat="48.83678" lon="2.39215">
        <ele>36.599998474121</ele>
        <time>2015-11-02T20:18:43Z</time>
      </trkpt>
      <trkpt lat="48.83685" lon="2.39218">
        <ele>37</ele>
        <time>2015-11-02T20:18:54Z</time>
      </trkpt>
      <trkpt lat="48.83692" lon="2.39222">
        <ele>31.799999237061</ele>
        <time>2015-11-02T20:19:22Z</time>
      </trkpt>
      <trkpt lat="48.83689" lon="2.3921">
        <ele>30.39999961853</ele>
        <time>2015-11-02T20:20:11Z</time>
      </trkpt>
      <trkpt lat="48.83686" lon="2.39208">
        <ele>35.400001525879</ele>
        <time>2015-11-02T20:21:16Z</time>
      </trkpt>
      <trkpt lat="48.83687" lon="2.39226">
        <ele>35.599998474121</ele>
        <time>2015-11-02T20:21:40Z</time>
      </trkpt>
      <trkpt lat="48.83683" lon="2.39256">
        <ele>35.79999923706</ele>
        <time>2015-11-02T20:21:46Z</time>
      </trkpt>
      <trkpt lat="48.83675" lon="2.39286">
        <ele>36.599998474121</ele>
        <time>2015-11-02T20:21:52Z</time>
      </trkpt>
      <trkpt lat="48.83669" lon="2.39312">
        <ele>38</ele>
        <time>2015-11-02T20:21:59Z</time>
      </trkpt>
      <trkpt lat="48.83663" lon="2.39338">
        <ele>41</ele>
        <time>2015-11-02T20:22:04Z</time>
      </trkpt>
      <trkpt lat="48.83655" lon="2.39367">
        <ele>42.400001525879</ele>
        <time>2015-11-02T20:22:09Z</time>
      </trkpt>
      <trkpt lat="48.83646" lon="2.39397">
        <ele>45.400001525879</ele>
        <time>2015-11-02T20:22:14Z</time>
      </trkpt>
      <trkpt lat="48.83641" lon="2.3943">
        <ele>47.20000076294</ele>
        <time>2015-11-02T20:22:19Z</time>
      </trkpt>
      <trkpt lat="48.83639" lon="2.39462">
        <ele>47.599998474121</ele>
        <time>2015-11-02T20:22:23Z</time>
      </trkpt>
      <trkpt lat="48.83632" lon="2.39491">
        <ele>48.79999923706</ele>
        <time>2015-11-02T20:22:27Z</time>
      </trkpt>
      <trkpt lat="48.83624" lon="2.3952">
        <ele>51.400001525879</ele>
        <time>2015-11-02T20:22:31Z</time>
      </trkpt>
      <trkpt lat="48.83619" lon="2.39548">
        <ele>52.20000076294</ele>
        <time>2015-11-02T20:22:35Z</time>
      </trkpt>
      <trkpt lat="48.83616" lon="2.3957">
        <ele>53</ele>
        <time>2015-11-02T20:22:38Z</time>
      </trkpt>
      <trkpt lat="48.83612" lon="2.39584">
        <ele>54</ele>
        <time>2015-11-02T20:22:40Z</time>
      </trkpt>
      <trkpt lat="48.83604" lon="2.39612">
        <ele>56</ele>
        <time>2015-11-02T20:22:44Z</time>
      </trkpt>
      <trkpt lat="48.83594" lon="2.39639">
        <ele>58.20000076294</ele>
        <time>2015-11-02T20:22:48Z</time>
      </trkpt>
      <trkpt lat="48.8359" lon="2.39653">
        <ele>59.20000076294</ele>
        <time>2015-11-02T20:22:50Z</time>
      </trkpt>
      <trkpt lat="48.83586" lon="2.39683">
        <ele>59</ele>
        <time>2015-11-02T20:22:54Z</time>
      </trkpt>
      <trkpt lat="48.83583" lon="2.39711">
        <ele>58.79999923706</ele>
        <time>2015-11-02T20:22:58Z</time>
      </trkpt>
      <trkpt lat="48.83583" lon="2.39724">
        <ele>59.599998474121</ele>
        <time>2015-11-02T20:23:00Z</time>
      </trkpt>
      <trkpt lat="48.83578" lon="2.39755">
        <ele>61.599998474121</ele>
        <time>2015-11-02T20:23:05Z</time>
      </trkpt>
      <trkpt lat="48.83575" lon="2.39762">
        <ele>61.20000076294</ele>
        <time>2015-11-02T20:23:06Z</time>
      </trkpt>
      <trkpt lat="48.83572" lon="2.39792">
        <ele>62.79999923706</ele>
        <time>2015-11-02T20:23:11Z</time>
      </trkpt>
      <trkpt lat="48.83559" lon="2.39815">
        <ele>63.79999923706</ele>
        <time>2015-11-02T20:23:15Z</time>
      </trkpt>
      <trkpt lat="48.83545" lon="2.39841">
        <ele>62.400001525879</ele>
        <time>2015-11-02T20:23:19Z</time>
      </trkpt>
      <trkpt lat="48.83537" lon="2.39863">
        <ele>60.400001525879</ele>
        <time>2015-11-02T20:23:22Z</time>
      </trkpt>
      <trkpt lat="48.8353" lon="2.3989">
        <ele>60.599998474121</ele>
        <time>2015-11-02T20:23:26Z</time>
      </trkpt>
      <trkpt lat="48.8352" lon="2.39916">
        <ele>61.400001525879</ele>
        <time>2015-11-02T20:23:30Z</time>
      </trkpt>
      <trkpt lat="48.83519" lon="2.39922">
        <ele>61.20000076294</ele>
        <time>2015-11-02T20:23:31Z</time>
      </trkpt>
      <trkpt lat="48.83513" lon="2.3995">
        <ele>61</ele>
        <time>2015-11-02T20:23:35Z</time>
      </trkpt>
      <trkpt lat="48.83504" lon="2.39979">
        <ele>61.400001525879</ele>
        <time>2015-11-02T20:23:39Z</time>
      </trkpt>
      <trkpt lat="48.83494" lon="2.40006">
        <ele>61.20000076294</ele>
        <time>2015-11-02T20:23:43Z</time>
      </trkpt>
      <trkpt lat="48.83493" lon="2.40014">
        <ele>61.599998474121</ele>
        <time>2015-11-02T20:23:44Z</time>
      </trkpt>
      <trkpt lat="48.8349" lon="2.40032">
        <ele>60.79999923706</ele>
        <time>2015-11-02T20:23:47Z</time>
      </trkpt>
      <trkpt lat="48.83492" lon="2.40052">
        <ele>58.79999923706</ele>
        <time>2015-11-02T20:23:50Z</time>
      </trkpt>
      <trkpt lat="48.83488" lon="2.40071">
        <ele>56.79999923706</ele>
        <time>2015-11-02T20:23:54Z</time>
      </trkpt>
      <trkpt lat="48.83475" lon="2.40089">
        <ele>52.20000076294</ele>
        <time>2015-11-02T20:24:00Z</time>
      </trkpt>
      <trkpt lat="48.83468" lon="2.40096">
        <ele>50.79999923706</ele>
        <time>2015-11-02T20:24:02Z</time>
      </trkpt>
      <trkpt lat="48.83458" lon="2.40103">
        <ele>48.599998474121</ele>
        <time>2015-11-02T20:24:04Z</time>
      </trkpt>
      <trkpt lat="48.83444" lon="2.40117">
        <ele>45</ele>
        <time>2015-11-02T20:24:07Z</time>
      </trkpt>
      <trkpt lat="48.83434" lon="2.40124">
        <ele>42.79999923706</ele>
        <time>2015-11-02T20:24:09Z</time>
      </trkpt>
      <trkpt lat="48.83417" lon="2.40141">
        <ele>39.79999923706</ele>
        <time>2015-11-02T20:24:13Z</time>
      </trkpt>
      <trkpt lat="48.83413" lon="2.40144">
        <ele>38.79999923706</ele>
        <time>2015-11-02T20:24:14Z</time>
      </trkpt>
      <trkpt lat="48.83395" lon="2.40158">
        <ele>37.79999923706</ele>
        <time>2015-11-02T20:24:18Z</time>
      </trkpt>
      <trkpt lat="48.8338" lon="2.40169">
        <ele>35.400001525879</ele>
        <time>2015-11-02T20:24:22Z</time>
      </trkpt>
      <trkpt lat="48.83363" lon="2.40182">
        <ele>32</ele>
        <time>2015-11-02T20:24:27Z</time>
      </trkpt>
      <trkpt lat="48.83359" lon="2.40189">
        <ele>30.799999237061</ele>
        <time>2015-11-02T20:24:29Z</time>
      </trkpt>
      <trkpt lat="48.83351" lon="2.40198">
        <ele>27.200000762939</ele>
        <time>2015-11-02T20:24:38Z</time>
      </trkpt>
      <trkpt lat="48.83346" lon="2.40205">
        <ele>29.60000038147</ele>
        <time>2015-11-02T20:24:49Z</time>
      </trkpt>
      <trkpt lat="48.83341" lon="2.4021">
        <ele>30.39999961853</ele>
        <time>2015-11-02T20:24:53Z</time>
      </trkpt>
      <trkpt lat="48.83336" lon="2.40214">
        <ele>30.200000762939</ele>
        <time>2015-11-02T20:24:58Z</time>
      </trkpt>
      <trkpt lat="48.83326" lon="2.40238">
        <ele>30.200000762939</ele>
        <time>2015-11-02T20:25:11Z</time>
      </trkpt>
      <trkpt lat="48.83313" lon="2.40265">
        <ele>28.799999237061</ele>
        <time>2015-11-02T20:25:17Z</time>
      </trkpt>
      <trkpt lat="48.833" lon="2.40285">
        <ele>28.39999961853</ele>
        <time>2015-11-02T20:25:20Z</time>
      </trkpt>
      <trkpt lat="48.83289" lon="2.40301">
        <ele>28.799999237061</ele>
        <time>2015-11-02T20:25:22Z</time>
      </trkpt>
      <trkpt lat="48.83275" lon="2.40324">
        <ele>29</ele>
        <time>2015-11-02T20:25:25Z</time>
      </trkpt>
      <trkpt lat="48.83265" lon="2.4034">
        <ele>29.39999961853</ele>
        <time>2015-11-02T20:25:27Z</time>
      </trkpt>
      <trkpt lat="48.83256" lon="2.40355">
        <ele>30.200000762939</ele>
        <time>2015-11-02T20:25:29Z</time>
      </trkpt>
      <trkpt lat="48.83241" lon="2.4038">
        <ele>31</ele>
        <time>2015-11-02T20:25:33Z</time>
      </trkpt>
      <trkpt lat="48.83226" lon="2.40383">
        <ele>34.20000076294</ele>
        <time>2015-11-02T20:25:40Z</time>
      </trkpt>
      <trkpt lat="48.83217" lon="2.40368">
        <ele>34.20000076294</ele>
        <time>2015-11-02T20:25:57Z</time>
      </trkpt>
      <trkpt lat="48.83209" lon="2.40352">
        <ele>34.79999923706</ele>
        <time>2015-11-02T20:26:03Z</time>
      </trkpt>
      <trkpt lat="48.83195" lon="2.40335">
        <ele>36</ele>
        <time>2015-11-02T20:26:09Z</time>
      </trkpt>
      <trkpt lat="48.83177" lon="2.40317">
        <ele>38.20000076294</ele>
        <time>2015-11-02T20:26:15Z</time>
      </trkpt>
      <trkpt lat="48.83163" lon="2.40298">
        <ele>39.79999923706</ele>
        <time>2015-11-02T20:26:20Z</time>
      </trkpt>
      <trkpt lat="48.83147" lon="2.40274">
        <ele>41.79999923706</ele>
        <time>2015-11-02T20:26:25Z</time>
      </trkpt>
      <trkpt lat="48.83135" lon="2.40253">
        <ele>44.599998474121</ele>
        <time>2015-11-02T20:26:29Z</time>
      </trkpt>
      <trkpt lat="48.83125" lon="2.40224">
        <ele>47</ele>
        <time>2015-11-02T20:26:33Z</time>
      </trkpt>
      <trkpt lat="48.83115" lon="2.40191">
        <ele>47.79999923706</ele>
        <time>2015-11-02T20:26:37Z</time>
      </trkpt>
      <trkpt lat="48.83106" lon="2.40163">
        <ele>48</ele>
        <time>2015-11-02T20:26:40Z</time>
      </trkpt>
      <trkpt lat="48.83101" lon="2.40135">
        <ele>49.400001525879</ele>
        <time>2015-11-02T20:26:43Z</time>
      </trkpt>
      <trkpt lat="48.83096" lon="2.40106">
        <ele>50.79999923706</ele>
        <time>2015-11-02T20:26:46Z</time>
      </trkpt>
      <trkpt lat="48.83091" lon="2.40077">
        <ele>52</ele>
        <time>2015-11-02T20:26:49Z</time>
      </trkpt>
      <trkpt lat="48.8309" lon="2.40068">
        <ele>52.400001525879</ele>
        <time>2015-11-02T20:26:50Z</time>
      </trkpt>
      <trkpt lat="48.83087" lon="2.4004">
        <ele>53.79999923706</ele>
        <time>2015-11-02T20:26:53Z</time>
      </trkpt>
      <trkpt lat="48.83082" lon="2.40006">
        <ele>53.20000076294</ele>
        <time>2015-11-02T20:26:57Z</time>
      </trkpt>
      <trkpt lat="48.83078" lon="2.39977">
        <ele>52.400001525879</ele>
        <time>2015-11-02T20:27:01Z</time>
      </trkpt>
      <trkpt lat="48.83079" lon="2.39946">
        <ele>47</ele>
        <time>2015-11-02T20:27:07Z</time>
      </trkpt>
      <trkpt lat="48.83079" lon="2.39943">
        <ele>43.20000076294</ele>
        <time>2015-11-02T20:27:08Z</time>
      </trkpt>
      <trkpt lat="48.83063" lon="2.3994">
        <ele>37.599998474121</ele>
        <time>2015-11-02T20:27:28Z</time>
      </trkpt>
      <trkpt lat="48.83047" lon="2.39963">
        <ele>38</ele>
        <time>2015-11-02T20:27:34Z</time>
      </trkpt>
      <trkpt lat="48.83034" lon="2.39987">
        <ele>38.79999923706</ele>
        <time>2015-11-02T20:27:39Z</time>
      </trkpt>
      <trkpt lat="48.83022" lon="2.40008">
        <ele>38.79999923706</ele>
        <time>2015-11-02T20:27:43Z</time>
      </trkpt>
      <trkpt lat="48.83007" lon="2.40031">
        <ele>38</ele>
        <time>2015-11-02T20:27:47Z</time>
      </trkpt>
      <trkpt lat="48.82991" lon="2.40056">
        <ele>37</ele>
        <time>2015-11-02T20:27:51Z</time>
      </trkpt>
      <trkpt lat="48.82975" lon="2.40079">
        <ele>37.400001525879</ele>
        <time>2015-11-02T20:27:55Z</time>
      </trkpt>
      <trkpt lat="48.8296" lon="2.40102">
        <ele>38</ele>
        <time>2015-11-02T20:27:59Z</time>
      </trkpt>
      <trkpt lat="48.82947" lon="2.40124">
        <ele>38.400001525879</ele>
        <time>2015-11-02T20:28:03Z</time>
      </trkpt>
      <trkpt lat="48.82933" lon="2.40149">
        <ele>38</ele>
        <time>2015-11-02T20:28:07Z</time>
      </trkpt>
      <trkpt lat="48.82918" lon="2.40175">
        <ele>37.20000076294</ele>
        <time>2015-11-02T20:28:11Z</time>
      </trkpt>
      <trkpt lat="48.82903" lon="2.40199">
        <ele>37</ele>
        <time>2015-11-02T20:28:15Z</time>
      </trkpt>
      <trkpt lat="48.82887" lon="2.40222">
        <ele>36.599998474121</ele>
        <time>2015-11-02T20:28:19Z</time>
      </trkpt>
      <trkpt lat="48.82876" lon="2.40239">
        <ele>36.20000076294</ele>
        <time>2015-11-02T20:28:22Z</time>
      </trkpt>
      <trkpt lat="48.8286" lon="2.4026">
        <ele>36.20000076294</ele>
        <time>2015-11-02T20:28:26Z</time>
      </trkpt>
      <trkpt lat="48.82848" lon="2.40275">
        <ele>36</ele>
        <time>2015-11-02T20:28:29Z</time>
      </trkpt>
      <trkpt lat="48.82832" lon="2.40301">
        <ele>34.400001525879</ele>
        <time>2015-11-02T20:28:33Z</time>
      </trkpt>
      <trkpt lat="48.8282" lon="2.40321">
        <ele>33.79999923706</ele>
        <time>2015-11-02T20:28:36Z</time>
      </trkpt>
      <trkpt lat="48.82815" lon="2.40327">
        <ele>33.400001525879</ele>
        <time>2015-11-02T20:28:37Z</time>
      </trkpt>
      <trkpt lat="48.82801" lon="2.40349">
        <ele>32.79999923706</ele>
        <time>2015-11-02T20:28:40Z</time>
      </trkpt>
      <trkpt lat="48.82787" lon="2.40372">
        <ele>32</ele>
        <time>2015-11-02T20:28:43Z</time>
      </trkpt>
      <trkpt lat="48.82775" lon="2.40389">
        <ele>31.200000762939</ele>
        <time>2015-11-02T20:28:46Z</time>
      </trkpt>
      <trkpt lat="48.82765" lon="2.40404">
        <ele>33.400001525879</ele>
        <time>2015-11-02T20:29:10Z</time>
      </trkpt>
      <trkpt lat="48.82756" lon="2.40418">
        <ele>33.400001525879</ele>
        <time>2015-11-02T20:29:13Z</time>
      </trkpt>
      <trkpt lat="48.82743" lon="2.40441">
        <ele>33.599998474121</ele>
        <time>2015-11-02T20:29:16Z</time>
      </trkpt>
      <trkpt lat="48.82729" lon="2.40465">
        <ele>33.79999923706</ele>
        <time>2015-11-02T20:29:19Z</time>
      </trkpt>
      <trkpt lat="48.82716" lon="2.40485">
        <ele>33.20000076294</ele>
        <time>2015-11-02T20:29:22Z</time>
      </trkpt>
      <trkpt lat="48.827" lon="2.40511">
        <ele>32.79999923706</ele>
        <time>2015-11-02T20:29:26Z</time>
      </trkpt>
      <trkpt lat="48.82687" lon="2.40531">
        <ele>33</ele>
        <time>2015-11-02T20:29:29Z</time>
      </trkpt>
      <trkpt lat="48.82671" lon="2.40558">
        <ele>33.20000076294</ele>
        <time>2015-11-02T20:29:33Z</time>
      </trkpt>
      <trkpt lat="48.82658" lon="2.40577">
        <ele>33</ele>
        <time>2015-11-02T20:29:36Z</time>
      </trkpt>
      <trkpt lat="48.82645" lon="2.40597">
        <ele>32.79999923706</ele>
        <time>2015-11-02T20:29:39Z</time>
      </trkpt>
      <trkpt lat="48.8263" lon="2.40619">
        <ele>32</ele>
        <time>2015-11-02T20:29:42Z</time>
      </trkpt>
      <trkpt lat="48.82615" lon="2.4064">
        <ele>32.20000076294</ele>
        <time>2015-11-02T20:29:45Z</time>
      </trkpt>
      <trkpt lat="48.82598" lon="2.40661">
        <ele>33.599998474121</ele>
        <time>2015-11-02T20:29:48Z</time>
      </trkpt>
      <trkpt lat="48.82581" lon="2.40682">
        <ele>36.79999923706</ele>
        <time>2015-11-02T20:29:51Z</time>
      </trkpt>
      <trkpt lat="48.82568" lon="2.40703">
        <ele>35.79999923706</ele>
        <time>2015-11-02T20:29:54Z</time>
      </trkpt>
      <trkpt lat="48.82554" lon="2.40726">
        <ele>36.599998474121</ele>
        <time>2015-11-02T20:29:57Z</time>
      </trkpt>
      <trkpt lat="48.8254" lon="2.40749">
        <ele>36</ele>
        <time>2015-11-02T20:30:00Z</time>
      </trkpt>
      <trkpt lat="48.82527" lon="2.40772">
        <ele>35.400001525879</ele>
        <time>2015-11-02T20:30:03Z</time>
      </trkpt>
      <trkpt lat="48.82516" lon="2.40794">
        <ele>34.79999923706</ele>
        <time>2015-11-02T20:30:06Z</time>
      </trkpt>
      <trkpt lat="48.82503" lon="2.40815">
        <ele>33.20000076294</ele>
        <time>2015-11-02T20:30:09Z</time>
      </trkpt>
      <trkpt lat="48.8249" lon="2.40837">
        <ele>32.20000076294</ele>
        <time>2015-11-02T20:30:12Z</time>
      </trkpt>
      <trkpt lat="48.82478" lon="2.40858">
        <ele>31</ele>
        <time>2015-11-02T20:30:15Z</time>
      </trkpt>
      <trkpt lat="48.82463" lon="2.40886">
        <ele>28.60000038147</ele>
        <time>2015-11-02T20:30:19Z</time>
      </trkpt>
      <trkpt lat="48.8245" lon="2.40908">
        <ele>28.60000038147</ele>
        <time>2015-11-02T20:30:22Z</time>
      </trkpt>
      <trkpt lat="48.82436" lon="2.4093">
        <ele>28.60000038147</ele>
        <time>2015-11-02T20:30:25Z</time>
      </trkpt>
      <trkpt lat="48.82422" lon="2.40951">
        <ele>28.39999961853</ele>
        <time>2015-11-02T20:30:28Z</time>
      </trkpt>
      <trkpt lat="48.82409" lon="2.40974">
        <ele>26.60000038147</ele>
        <time>2015-11-02T20:30:31Z</time>
      </trkpt>
      <trkpt lat="48.82393" lon="2.40998">
        <ele>25</ele>
        <time>2015-11-02T20:30:34Z</time>
      </trkpt>
      <trkpt lat="48.82377" lon="2.41022">
        <ele>24.60000038147</ele>
        <time>2015-11-02T20:30:37Z</time>
      </trkpt>
      <trkpt lat="48.82372" lon="2.4103">
        <ele>24.200000762939</ele>
        <time>2015-11-02T20:30:38Z</time>
      </trkpt>
      <trkpt lat="48.82357" lon="2.4105">
        <ele>23.60000038147</ele>
        <time>2015-11-02T20:30:41Z</time>
      </trkpt>
      <trkpt lat="48.82343" lon="2.41071">
        <ele>23.60000038147</ele>
        <time>2015-11-02T20:30:44Z</time>
      </trkpt>
      <trkpt lat="48.8233" lon="2.4109">
        <ele>24</ele>
        <time>2015-11-02T20:30:47Z</time>
      </trkpt>
      <trkpt lat="48.82313" lon="2.41113">
        <ele>25.200000762939</ele>
        <time>2015-11-02T20:30:51Z</time>
      </trkpt>
      <trkpt lat="48.82297" lon="2.41135">
        <ele>25</ele>
        <time>2015-11-02T20:30:55Z</time>
      </trkpt>
      <trkpt lat="48.8228" lon="2.4116">
        <ele>25.39999961853</ele>
        <time>2015-11-02T20:30:59Z</time>
      </trkpt>
      <trkpt lat="48.82267" lon="2.41182">
        <ele>25.799999237061</ele>
        <time>2015-11-02T20:31:02Z</time>
      </trkpt>
      <trkpt lat="48.82252" lon="2.41204">
        <ele>27</ele>
        <time>2015-11-02T20:31:05Z</time>
      </trkpt>
      <trkpt lat="48.82238" lon="2.41227">
        <ele>27.39999961853</ele>
        <time>2015-11-02T20:31:08Z</time>
      </trkpt>
      <trkpt lat="48.82223" lon="2.41248">
        <ele>30.200000762939</ele>
        <time>2015-11-02T20:31:11Z</time>
      </trkpt>
      <trkpt lat="48.82209" lon="2.41271">
        <ele>30.60000038147</ele>
        <time>2015-11-02T20:31:14Z</time>
      </trkpt>
      <trkpt lat="48.82197" lon="2.41292">
        <ele>30.799999237061</ele>
        <time>2015-11-02T20:31:17Z</time>
      </trkpt>
      <trkpt lat="48.82186" lon="2.41313">
        <ele>30.39999961853</ele>
        <time>2015-11-02T20:31:20Z</time>
      </trkpt>
      <trkpt lat="48.82172" lon="2.41337">
        <ele>31.39999961853</ele>
        <time>2015-11-02T20:31:24Z</time>
      </trkpt>
      <trkpt lat="48.82159" lon="2.41359">
        <ele>32.20000076294</ele>
        <time>2015-11-02T20:31:28Z</time>
      </trkpt>
      <trkpt lat="48.82149" lon="2.41375">
        <ele>32.400001525879</ele>
        <time>2015-11-02T20:31:31Z</time>
      </trkpt>
      <trkpt lat="48.82144" lon="2.41384">
        <ele>32.20000076294</ele>
        <time>2015-11-02T20:31:33Z</time>
      </trkpt>
      <trkpt lat="48.82132" lon="2.414">
        <ele>32.400001525879</ele>
        <time>2015-11-02T20:31:40Z</time>
      </trkpt>
      <trkpt lat="48.82128" lon="2.41388">
        <ele>32</ele>
        <time>2015-11-02T20:31:51Z</time>
      </trkpt>
      <trkpt lat="48.82122" lon="2.41404">
        <ele>34.79999923706</ele>
        <time>2015-11-02T20:32:35Z</time>
      </trkpt>
      <trkpt lat="48.82107" lon="2.41428">
        <ele>34.20000076294</ele>
        <time>2015-11-02T20:32:43Z</time>
      </trkpt>
      <trkpt lat="48.82095" lon="2.41451">
        <ele>33.599998474121</ele>
        <time>2015-11-02T20:32:50Z</time>
      </trkpt>
      <trkpt lat="48.82081" lon="2.41468">
        <ele>32.400001525879</ele>
        <time>2015-11-02T20:32:57Z</time>
      </trkpt>
      <trkpt lat="48.82062" lon="2.41462">
        <ele>29.39999961853</ele>
        <time>2015-11-02T20:33:03Z</time>
      </trkpt>
      <trkpt lat="48.82043" lon="2.41448">
        <ele>28.799999237061</ele>
        <time>2015-11-02T20:33:08Z</time>
      </trkpt>
      <trkpt lat="48.82028" lon="2.41434">
        <ele>27.60000038147</ele>
        <time>2015-11-02T20:33:12Z</time>
      </trkpt>
      <trkpt lat="48.8201" lon="2.41422">
        <ele>27.39999961853</ele>
        <time>2015-11-02T20:33:16Z</time>
      </trkpt>
      <trkpt lat="48.81993" lon="2.41408">
        <ele>26.799999237061</ele>
        <time>2015-11-02T20:33:20Z</time>
      </trkpt>
      <trkpt lat="48.81971" lon="2.41397">
        <ele>27.60000038147</ele>
        <time>2015-11-02T20:33:24Z</time>
      </trkpt>
      <trkpt lat="48.81954" lon="2.41391">
        <ele>28</ele>
        <time>2015-11-02T20:33:27Z</time>
      </trkpt>
      <trkpt lat="48.81931" lon="2.414">
        <ele>28.799999237061</ele>
        <time>2015-11-02T20:33:30Z</time>
      </trkpt>
      <trkpt lat="48.8191" lon="2.41423">
        <ele>29.39999961853</ele>
        <time>2015-11-02T20:33:33Z</time>
      </trkpt>
      <trkpt lat="48.81888" lon="2.41439">
        <ele>29</ele>
        <time>2015-11-02T20:33:36Z</time>
      </trkpt>
      <trkpt lat="48.81869" lon="2.4146">
        <ele>29</ele>
        <time>2015-11-02T20:33:39Z</time>
      </trkpt>
      <trkpt lat="48.81852" lon="2.41481">
        <ele>25.200000762939</ele>
        <time>2015-11-02T20:33:42Z</time>
      </trkpt>
      <trkpt lat="48.81833" lon="2.41498">
        <ele>24.799999237061</ele>
        <time>2015-11-02T20:33:45Z</time>
      </trkpt>
      <trkpt lat="48.81814" lon="2.41515">
        <ele>25</ele>
        <time>2015-11-02T20:33:48Z</time>
      </trkpt>
      <trkpt lat="48.81796" lon="2.41533">
        <ele>25.39999961853</ele>
        <time>2015-11-02T20:33:51Z</time>
      </trkpt>
      <trkpt lat="48.8178" lon="2.41553">
        <ele>24</ele>
        <time>2015-11-02T20:33:54Z</time>
      </trkpt>
      <trkpt lat="48.81775" lon="2.4156">
        <ele>23.60000038147</ele>
        <time>2015-11-02T20:33:55Z</time>
      </trkpt>
      <trkpt lat="48.8176" lon="2.41583">
        <ele>23.39999961853</ele>
        <time>2015-11-02T20:33:58Z</time>
      </trkpt>
      <trkpt lat="48.81751" lon="2.41597">
        <ele>23</ele>
        <time>2015-11-02T20:34:00Z</time>
      </trkpt>
      <trkpt lat="48.81738" lon="2.41619">
        <ele>22.60000038147</ele>
        <time>2015-11-02T20:34:03Z</time>
      </trkpt>
      <trkpt lat="48.81727" lon="2.41642">
        <ele>22.60000038147</ele>
        <time>2015-11-02T20:34:06Z</time>
      </trkpt>
      <trkpt lat="48.81718" lon="2.41665">
        <ele>22.200000762939</ele>
        <time>2015-11-02T20:34:09Z</time>
      </trkpt>
      <trkpt lat="48.81712" lon="2.41692">
        <ele>21.799999237061</ele>
        <time>2015-11-02T20:34:12Z</time>
      </trkpt>
      <trkpt lat="48.81709" lon="2.41724">
        <ele>21.39999961853</ele>
        <time>2015-11-02T20:34:15Z</time>
      </trkpt>
      <trkpt lat="48.81713" lon="2.41757">
        <ele>21</ele>
        <time>2015-11-02T20:34:18Z</time>
      </trkpt>
      <trkpt lat="48.8172" lon="2.41791">
        <ele>20.200000762939</ele>
        <time>2015-11-02T20:34:21Z</time>
      </trkpt>
      <trkpt lat="48.81726" lon="2.41822">
        <ele>19.60000038147</ele>
        <time>2015-11-02T20:34:24Z</time>
      </trkpt>
      <trkpt lat="48.8173" lon="2.41851">
        <ele>19.60000038147</ele>
        <time>2015-11-02T20:34:27Z</time>
      </trkpt>
      <trkpt lat="48.81734" lon="2.41885">
        <ele>19.60000038147</ele>
        <time>2015-11-02T20:34:31Z</time>
      </trkpt>
      <trkpt lat="48.81735" lon="2.41894">
        <ele>19.799999237061</ele>
        <time>2015-11-02T20:34:32Z</time>
      </trkpt>
      <trkpt lat="48.81734" lon="2.41921">
        <ele>21.799999237061</ele>
        <time>2015-11-02T20:34:36Z</time>
      </trkpt>
      <trkpt lat="48.81732" lon="2.41949">
        <ele>23.60000038147</ele>
        <time>2015-11-02T20:34:44Z</time>
      </trkpt>
      <trkpt lat="48.81732" lon="2.41956">
        <ele>25</ele>
        <time>2015-11-02T20:34:49Z</time>
      </trkpt>
      <trkpt lat="48.81716" lon="2.41954">
        <ele>28</ele>
        <time>2015-11-02T20:35:27Z</time>
      </trkpt>
      <trkpt lat="48.81696" lon="2.41953">
        <ele>28</ele>
        <time>2015-11-02T20:35:34Z</time>
      </trkpt>
      <trkpt lat="48.81676" lon="2.41954">
        <ele>27.60000038147</ele>
        <time>2015-11-02T20:35:39Z</time>
      </trkpt>
      <trkpt lat="48.81657" lon="2.41954">
        <ele>27</ele>
        <time>2015-11-02T20:35:44Z</time>
      </trkpt>
      <trkpt lat="48.81638" lon="2.41953">
        <ele>26</ele>
        <time>2015-11-02T20:35:49Z</time>
      </trkpt>
      <trkpt lat="48.8162" lon="2.41952">
        <ele>23.799999237061</ele>
        <time>2015-11-02T20:35:54Z</time>
      </trkpt>
      <trkpt lat="48.81602" lon="2.41962">
        <ele>21.799999237061</ele>
        <time>2015-11-02T20:36:01Z</time>
      </trkpt>
      <trkpt lat="48.81583" lon="2.41972">
        <ele>21.200000762939</ele>
        <time>2015-11-02T20:36:07Z</time>
      </trkpt>
      <trkpt lat="48.81566" lon="2.41984">
        <ele>20</ele>
        <time>2015-11-02T20:36:12Z</time>
      </trkpt>
      <trkpt lat="48.8155" lon="2.41997">
        <ele>19.200000762939</ele>
        <time>2015-11-02T20:36:17Z</time>
      </trkpt>
      <trkpt lat="48.81539" lon="2.42006">
        <ele>19.200000762939</ele>
        <time>2015-11-02T20:36:23Z</time>
      </trkpt>
      <trkpt lat="48.81525" lon="2.42024">
        <ele>22.200000762939</ele>
        <time>2015-11-02T20:36:54Z</time>
      </trkpt>
      <trkpt lat="48.8151" lon="2.42041">
        <ele>21.60000038147</ele>
        <time>2015-11-02T20:36:59Z</time>
      </trkpt>
      <trkpt lat="48.81494" lon="2.42052">
        <ele>21.200000762939</ele>
        <time>2015-11-02T20:37:04Z</time>
      </trkpt>
      <trkpt lat="48.81474" lon="2.42064">
        <ele>21.39999961853</ele>
        <time>2015-11-02T20:37:09Z</time>
      </trkpt>
      <trkpt lat="48.81454" lon="2.42076">
        <ele>20.60000038147</ele>
        <time>2015-11-02T20:37:14Z</time>
      </trkpt>
      <trkpt lat="48.81435" lon="2.42086">
        <ele>18</ele>
        <time>2015-11-02T20:37:19Z</time>
      </trkpt>
      <trkpt lat="48.81416" lon="2.42096">
        <ele>18.60000038147</ele>
        <time>2015-11-02T20:37:24Z</time>
      </trkpt>
      <trkpt lat="48.81397" lon="2.42109">
        <ele>19.60000038147</ele>
        <time>2015-11-02T20:37:29Z</time>
      </trkpt>
      <trkpt lat="48.8138" lon="2.42121">
        <ele>19.60000038147</ele>
        <time>2015-11-02T20:37:33Z</time>
      </trkpt>
      <trkpt lat="48.81364" lon="2.42132">
        <ele>20</ele>
        <time>2015-11-02T20:37:37Z</time>
      </trkpt>
      <trkpt lat="48.81347" lon="2.42143">
        <ele>21.60000038147</ele>
        <time>2015-11-02T20:37:41Z</time>
      </trkpt>
      <trkpt lat="48.8133" lon="2.42155">
        <ele>21.200000762939</ele>
        <time>2015-11-02T20:37:45Z</time>
      </trkpt>
      <trkpt lat="48.81314" lon="2.42166">
        <ele>22</ele>
        <time>2015-11-02T20:37:49Z</time>
      </trkpt>
      <trkpt lat="48.81294" lon="2.42179">
        <ele>21.799999237061</ele>
        <time>2015-11-02T20:37:54Z</time>
      </trkpt>
      <trkpt lat="48.81275" lon="2.42195">
        <ele>22.60000038147</ele>
        <time>2015-11-02T20:37:59Z</time>
      </trkpt>
      <trkpt lat="48.81271" lon="2.42197">
        <ele>22.799999237061</ele>
        <time>2015-11-02T20:38:00Z</time>
      </trkpt>
      <trkpt lat="48.81254" lon="2.42209">
        <ele>23.60000038147</ele>
        <time>2015-11-02T20:38:04Z</time>
      </trkpt>
      <trkpt lat="48.81237" lon="2.42221">
        <ele>23.799999237061</ele>
        <time>2015-11-02T20:38:08Z</time>
      </trkpt>
      <trkpt lat="48.81218" lon="2.42232">
        <ele>22.60000038147</ele>
        <time>2015-11-02T20:38:13Z</time>
      </trkpt>
      <trkpt lat="48.81215" lon="2.42234">
        <ele>22.60000038147</ele>
        <time>2015-11-02T20:38:14Z</time>
      </trkpt>
      <trkpt lat="48.81197" lon="2.42243">
        <ele>20.60000038147</ele>
        <time>2015-11-02T20:38:20Z</time>
      </trkpt>
      <trkpt lat="48.81194" lon="2.42244">
        <ele>20.39999961853</ele>
        <time>2015-11-02T20:38:21Z</time>
      </trkpt>
      <trkpt lat="48.81184" lon="2.4225">
        <ele>19.60000038147</ele>
        <time>2015-11-02T20:38:25Z</time>
      </trkpt>
      <trkpt lat="48.81165" lon="2.42253">
        <ele>17.60000038147</ele>
        <time>2015-11-02T20:38:35Z</time>
      </trkpt>
      <trkpt lat="48.8116" lon="2.42256">
        <ele>18.39999961853</ele>
        <time>2015-11-02T20:38:39Z</time>
      </trkpt>
      <trkpt lat="48.81148" lon="2.42266">
        <ele>19.39999961853</ele>
        <time>2015-11-02T20:38:46Z</time>
      </trkpt>
      <trkpt lat="48.8113" lon="2.42279">
        <ele>19.60000038147</ele>
        <time>2015-11-02T20:38:53Z</time>
      </trkpt>
      <trkpt lat="48.81112" lon="2.42291">
        <ele>19.60000038147</ele>
        <time>2015-11-02T20:38:58Z</time>
      </trkpt>
      <trkpt lat="48.81092" lon="2.42303">
        <ele>19.799999237061</ele>
        <time>2015-11-02T20:39:03Z</time>
      </trkpt>
      <trkpt lat="48.81071" lon="2.42318">
        <ele>20.39999961853</ele>
        <time>2015-11-02T20:39:08Z</time>
      </trkpt>
      <trkpt lat="48.81051" lon="2.42332">
        <ele>20.799999237061</ele>
        <time>2015-11-02T20:39:13Z</time>
      </trkpt>
      <trkpt lat="48.81033" lon="2.42343">
        <ele>21.39999961853</ele>
        <time>2015-11-02T20:39:17Z</time>
      </trkpt>
      <trkpt lat="48.81013" lon="2.42355">
        <ele>22</ele>
        <time>2015-11-02T20:39:21Z</time>
      </trkpt>
      <trkpt lat="48.80993" lon="2.42368">
        <ele>22.39999961853</ele>
        <time>2015-11-02T20:39:25Z</time>
      </trkpt>
      <trkpt lat="48.80971" lon="2.42382">
        <ele>22.200000762939</ele>
        <time>2015-11-02T20:39:29Z</time>
      </trkpt>
      <trkpt lat="48.80955" lon="2.42393">
        <ele>22.200000762939</ele>
        <time>2015-11-02T20:39:32Z</time>
      </trkpt>
      <trkpt lat="48.80939" lon="2.42404">
        <ele>21.799999237061</ele>
        <time>2015-11-02T20:39:35Z</time>
      </trkpt>
      <trkpt lat="48.80921" lon="2.42415">
        <ele>22.200000762939</ele>
        <time>2015-11-02T20:39:38Z</time>
      </trkpt>
      <trkpt lat="48.80903" lon="2.42426">
        <ele>22.39999961853</ele>
        <time>2015-11-02T20:39:41Z</time>
      </trkpt>
      <trkpt lat="48.80882" lon="2.4244">
        <ele>22.799999237061</ele>
        <time>2015-11-02T20:39:45Z</time>
      </trkpt>
      <trkpt lat="48.80861" lon="2.42453">
        <ele>23.200000762939</ele>
        <time>2015-11-02T20:39:49Z</time>
      </trkpt>
      <trkpt lat="48.8085" lon="2.42459">
        <ele>24.200000762939</ele>
        <time>2015-11-02T20:39:51Z</time>
      </trkpt>
      <trkpt lat="48.80829" lon="2.42471">
        <ele>24</ele>
        <time>2015-11-02T20:39:55Z</time>
      </trkpt>
      <trkpt lat="48.80807" lon="2.42486">
        <ele>23.39999961853</ele>
        <time>2015-11-02T20:39:59Z</time>
      </trkpt>
      <trkpt lat="48.8079" lon="2.42497">
        <ele>23.200000762939</ele>
        <time>2015-11-02T20:40:02Z</time>
      </trkpt>
      <trkpt lat="48.80768" lon="2.42511">
        <ele>23</ele>
        <time>2015-11-02T20:40:06Z</time>
      </trkpt>
      <trkpt lat="48.80752" lon="2.42521">
        <ele>23</ele>
        <time>2015-11-02T20:40:09Z</time>
      </trkpt>
      <trkpt lat="48.80731" lon="2.42535">
        <ele>22.60000038147</ele>
        <time>2015-11-02T20:40:13Z</time>
      </trkpt>
      <trkpt lat="48.80715" lon="2.4255">
        <ele>22.799999237061</ele>
        <time>2015-11-02T20:40:17Z</time>
      </trkpt>
      <trkpt lat="48.80711" lon="2.42553">
        <ele>22.799999237061</ele>
        <time>2015-11-02T20:40:18Z</time>
      </trkpt>
      <trkpt lat="48.80692" lon="2.42552">
        <ele>22.200000762939</ele>
        <time>2015-11-02T20:40:24Z</time>
      </trkpt>
      <trkpt lat="48.80685" lon="2.42556">
        <ele>22</ele>
        <time>2015-11-02T20:40:28Z</time>
      </trkpt>
      <trkpt lat="48.80683" lon="2.42558">
        <ele>22</ele>
        <time>2015-11-02T20:40:29Z</time>
      </trkpt>
      <trkpt lat="48.80665" lon="2.42567">
        <ele>21</ele>
        <time>2015-11-02T20:40:34Z</time>
      </trkpt>
      <trkpt lat="48.80656" lon="2.42571">
        <ele>20.39999961853</ele>
        <time>2015-11-02T20:40:37Z</time>
      </trkpt>
      <trkpt lat="48.80652" lon="2.42573">
        <ele>20.799999237061</ele>
        <time>2015-11-02T20:40:39Z</time>
      </trkpt>
      <trkpt lat="48.80643" lon="2.42578">
        <ele>20.200000762939</ele>
        <time>2015-11-02T20:40:42Z</time>
      </trkpt>
      <trkpt lat="48.8063" lon="2.42585">
        <ele>20.60000038147</ele>
        <time>2015-11-02T20:40:46Z</time>
      </trkpt>
      <trkpt lat="48.8061" lon="2.42596">
        <ele>20</ele>
        <time>2015-11-02T20:40:52Z</time>
      </trkpt>
      <trkpt lat="48.80606" lon="2.42604">
        <ele>21.200000762939</ele>
        <time>2015-11-02T20:40:54Z</time>
      </trkpt>
      <trkpt lat="48.80592" lon="2.42623">
        <ele>21.60000038147</ele>
        <time>2015-11-02T20:41:00Z</time>
      </trkpt>
      <trkpt lat="48.80588" lon="2.42625">
        <ele>21.200000762939</ele>
        <time>2015-11-02T20:41:01Z</time>
      </trkpt>
      <trkpt lat="48.80571" lon="2.42637">
        <ele>20.60000038147</ele>
        <time>2015-11-02T20:41:05Z</time>
      </trkpt>
      <trkpt lat="48.80551" lon="2.42651">
        <ele>20.799999237061</ele>
        <time>2015-11-02T20:41:09Z</time>
      </trkpt>
      <trkpt lat="48.80533" lon="2.42662">
        <ele>21.39999961853</ele>
        <time>2015-11-02T20:41:12Z</time>
      </trkpt>
      <trkpt lat="48.80516" lon="2.42675">
        <ele>21.39999961853</ele>
        <time>2015-11-02T20:41:15Z</time>
      </trkpt>
      <trkpt lat="48.80499" lon="2.42688">
        <ele>22.200000762939</ele>
        <time>2015-11-02T20:41:18Z</time>
      </trkpt>
      <trkpt lat="48.80487" lon="2.42696">
        <ele>21.799999237061</ele>
        <time>2015-11-02T20:41:20Z</time>
      </trkpt>
      <trkpt lat="48.8047" lon="2.42704">
        <ele>21.60000038147</ele>
        <time>2015-11-02T20:41:23Z</time>
      </trkpt>
      <trkpt lat="48.80451" lon="2.42716">
        <ele>21.39999961853</ele>
        <time>2015-11-02T20:41:26Z</time>
      </trkpt>
      <trkpt lat="48.80435" lon="2.4273">
        <ele>21.799999237061</ele>
        <time>2015-11-02T20:41:29Z</time>
      </trkpt>
      <trkpt lat="48.80416" lon="2.42746">
        <ele>22.39999961853</ele>
        <time>2015-11-02T20:41:33Z</time>
      </trkpt>
      <trkpt lat="48.80394" lon="2.42761">
        <ele>22.200000762939</ele>
        <time>2015-11-02T20:41:37Z</time>
      </trkpt>
      <trkpt lat="48.80385" lon="2.4277">
        <ele>22.39999961853</ele>
        <time>2015-11-02T20:41:39Z</time>
      </trkpt>
      <trkpt lat="48.80367" lon="2.42787">
        <ele>21.39999961853</ele>
        <time>2015-11-02T20:41:43Z</time>
      </trkpt>
      <trkpt lat="48.80352" lon="2.42795">
        <ele>21.200000762939</ele>
        <time>2015-11-02T20:41:46Z</time>
      </trkpt>
      <trkpt lat="48.80331" lon="2.42812">
        <ele>21.39999961853</ele>
        <time>2015-11-02T20:41:50Z</time>
      </trkpt>
      <trkpt lat="48.80319" lon="2.42819">
        <ele>20.60000038147</ele>
        <time>2015-11-02T20:41:52Z</time>
      </trkpt>
      <trkpt lat="48.80302" lon="2.42832">
        <ele>19.799999237061</ele>
        <time>2015-11-02T20:41:55Z</time>
      </trkpt>
      <trkpt lat="48.80292" lon="2.42841">
        <ele>19.60000038147</ele>
        <time>2015-11-02T20:41:57Z</time>
      </trkpt>
      <trkpt lat="48.80274" lon="2.42862">
        <ele>18.799999237061</ele>
        <time>2015-11-02T20:42:01Z</time>
      </trkpt>
      <trkpt lat="48.80258" lon="2.42886">
        <ele>18.799999237061</ele>
        <time>2015-11-02T20:42:05Z</time>
      </trkpt>
      <trkpt lat="48.80242" lon="2.42911">
        <ele>17.200000762939</ele>
        <time>2015-11-02T20:42:09Z</time>
      </trkpt>
      <trkpt lat="48.80231" lon="2.4293">
        <ele>17.200000762939</ele>
        <time>2015-11-02T20:42:12Z</time>
      </trkpt>
      <trkpt lat="48.80218" lon="2.42956">
        <ele>18.39999961853</ele>
        <time>2015-11-02T20:42:16Z</time>
      </trkpt>
      <trkpt lat="48.80209" lon="2.42975">
        <ele>18.200000762939</ele>
        <time>2015-11-02T20:42:19Z</time>
      </trkpt>
      <trkpt lat="48.80198" lon="2.43001">
        <ele>18.799999237061</ele>
        <time>2015-11-02T20:42:23Z</time>
      </trkpt>
      <trkpt lat="48.80184" lon="2.43027">
        <ele>19.39999961853</ele>
        <time>2015-11-02T20:42:27Z</time>
      </trkpt>
      <trkpt lat="48.80181" lon="2.43033">
        <ele>19.60000038147</ele>
        <time>2015-11-02T20:42:28Z</time>
      </trkpt>
      <trkpt lat="48.80168" lon="2.43059">
        <ele>21</ele>
        <time>2015-11-02T20:42:32Z</time>
      </trkpt>
      <trkpt lat="48.80155" lon="2.43083">
        <ele>21.799999237061</ele>
        <time>2015-11-02T20:42:36Z</time>
      </trkpt>
      <trkpt lat="48.80142" lon="2.43107">
        <ele>22.799999237061</ele>
        <time>2015-11-02T20:42:40Z</time>
      </trkpt>
      <trkpt lat="48.80138" lon="2.43112">
        <ele>22.799999237061</ele>
        <time>2015-11-02T20:42:41Z</time>
      </trkpt>
      <trkpt lat="48.80126" lon="2.43133">
        <ele>23.799999237061</ele>
        <time>2015-11-02T20:42:46Z</time>
      </trkpt>
      <trkpt lat="48.80122" lon="2.43144">
        <ele>23</ele>
        <time>2015-11-02T20:42:49Z</time>
      </trkpt>
      <trkpt lat="48.80122" lon="2.43157">
        <ele>23.39999961853</ele>
        <time>2015-11-02T20:42:53Z</time>
      </trkpt>
      <trkpt lat="48.80119" lon="2.43173">
        <ele>33.599998474121</ele>
        <time>2015-11-02T20:43:40Z</time>
      </trkpt>
      <trkpt lat="48.80109" lon="2.43174">
        <ele>32.599998474121</ele>
        <time>2015-11-02T20:44:37Z</time>
      </trkpt>
      <trkpt lat="48.80093" lon="2.4319">
        <ele>29.799999237061</ele>
        <time>2015-11-02T20:44:46Z</time>
      </trkpt>
      <trkpt lat="48.80074" lon="2.43198">
        <ele>27.39999961853</ele>
        <time>2015-11-02T20:44:51Z</time>
      </trkpt>
      <trkpt lat="48.80056" lon="2.43204">
        <ele>26.799999237061</ele>
        <time>2015-11-02T20:44:55Z</time>
      </trkpt>
      <trkpt lat="48.80037" lon="2.4321">
        <ele>26.60000038147</ele>
        <time>2015-11-02T20:44:59Z</time>
      </trkpt>
      <trkpt lat="48.8002" lon="2.43219">
        <ele>27</ele>
        <time>2015-11-02T20:45:03Z</time>
      </trkpt>
      <trkpt lat="48.8" lon="2.4323">
        <ele>26.60000038147</ele>
        <time>2015-11-02T20:45:08Z</time>
      </trkpt>
      <trkpt lat="48.79979" lon="2.43242">
        <ele>25.799999237061</ele>
        <time>2015-11-02T20:45:13Z</time>
      </trkpt>
      <trkpt lat="48.79962" lon="2.43253">
        <ele>23.39999961853</ele>
        <time>2015-11-02T20:45:17Z</time>
      </trkpt>
      <trkpt lat="48.79943" lon="2.43261">
        <ele>22.200000762939</ele>
        <time>2015-11-02T20:45:21Z</time>
      </trkpt>
      <trkpt lat="48.79921" lon="2.43273">
        <ele>20.799999237061</ele>
        <time>2015-11-02T20:45:26Z</time>
      </trkpt>
      <trkpt lat="48.79904" lon="2.43281">
        <ele>20.60000038147</ele>
        <time>2015-11-02T20:45:30Z</time>
      </trkpt>
      <trkpt lat="48.79886" lon="2.43288">
        <ele>21.39999961853</ele>
        <time>2015-11-02T20:45:34Z</time>
      </trkpt>
      <trkpt lat="48.79879" lon="2.43289">
        <ele>21.200000762939</ele>
        <time>2015-11-02T20:45:36Z</time>
      </trkpt>
      <trkpt lat="48.7987" lon="2.43291">
        <ele>20.200000762939</ele>
        <time>2015-11-02T20:45:38Z</time>
      </trkpt>
      <trkpt lat="48.79851" lon="2.43298">
        <ele>21.200000762939</ele>
        <time>2015-11-02T20:45:43Z</time>
      </trkpt>
      <trkpt lat="48.79844" lon="2.43301">
        <ele>21.200000762939</ele>
        <time>2015-11-02T20:45:45Z</time>
      </trkpt>
      <trkpt lat="48.79825" lon="2.43311">
        <ele>20.200000762939</ele>
        <time>2015-11-02T20:45:52Z</time>
      </trkpt>
      <trkpt lat="48.79819" lon="2.43316">
        <ele>20.39999961853</ele>
        <time>2015-11-02T20:45:56Z</time>
      </trkpt>
      <trkpt lat="48.79811" lon="2.43314">
        <ele>19.60000038147</ele>
        <time>2015-11-02T20:46:02Z</time>
      </trkpt>
      <trkpt lat="48.79794" lon="2.43314">
        <ele>17.200000762939</ele>
        <time>2015-11-02T20:46:15Z</time>
      </trkpt>
      <trkpt lat="48.79776" lon="2.43318">
        <ele>16.60000038147</ele>
        <time>2015-11-02T20:46:23Z</time>
      </trkpt>
      <trkpt lat="48.79757" lon="2.43322">
        <ele>15.800000190735</ele>
        <time>2015-11-02T20:46:29Z</time>
      </trkpt>
      <trkpt lat="48.79739" lon="2.4331">
        <ele>15.800000190735</ele>
        <time>2015-11-02T20:46:35Z</time>
      </trkpt>
      <trkpt lat="48.79732" lon="2.43285">
        <ele>15.800000190735</ele>
        <time>2015-11-02T20:46:40Z</time>
      </trkpt>
      <trkpt lat="48.79726" lon="2.43273">
        <ele>15.60000038147</ele>
        <time>2015-11-02T20:46:43Z</time>
      </trkpt>
      <trkpt lat="48.79714" lon="2.43271">
        <ele>15.60000038147</ele>
        <time>2015-11-02T20:46:47Z</time>
      </trkpt>
      <trkpt lat="48.79695" lon="2.43266">
        <ele>15.199999809265</ele>
        <time>2015-11-02T20:46:52Z</time>
      </trkpt>
      <trkpt lat="48.79676" lon="2.43251">
        <ele>15.199999809265</ele>
        <time>2015-11-02T20:46:57Z</time>
      </trkpt>
      <trkpt lat="48.7966" lon="2.43237">
        <ele>15.199999809265</ele>
        <time>2015-11-02T20:47:01Z</time>
      </trkpt>
      <trkpt lat="48.79644" lon="2.43224">
        <ele>16.39999961853</ele>
        <time>2015-11-02T20:47:05Z</time>
      </trkpt>
      <trkpt lat="48.79627" lon="2.43212">
        <ele>18.200000762939</ele>
        <time>2015-11-02T20:47:09Z</time>
      </trkpt>
      <trkpt lat="48.79613" lon="2.43207">
        <ele>19</ele>
        <time>2015-11-02T20:47:12Z</time>
      </trkpt>
      <trkpt lat="48.79594" lon="2.43209">
        <ele>20.39999961853</ele>
        <time>2015-11-02T20:47:16Z</time>
      </trkpt>
      <trkpt lat="48.79576" lon="2.43211">
        <ele>20.799999237061</ele>
        <time>2015-11-02T20:47:20Z</time>
      </trkpt>
      <trkpt lat="48.79568" lon="2.43212">
        <ele>21.200000762939</ele>
        <time>2015-11-02T20:47:22Z</time>
      </trkpt>
      <trkpt lat="48.79546" lon="2.43216">
        <ele>22</ele>
        <time>2015-11-02T20:47:27Z</time>
      </trkpt>
      <trkpt lat="48.79527" lon="2.43218">
        <ele>23.200000762939</ele>
        <time>2015-11-02T20:47:31Z</time>
      </trkpt>
      <trkpt lat="48.79508" lon="2.4322">
        <ele>24.39999961853</ele>
        <time>2015-11-02T20:47:35Z</time>
      </trkpt>
      <trkpt lat="48.795" lon="2.43221">
        <ele>25</ele>
        <time>2015-11-02T20:47:37Z</time>
      </trkpt>
      <trkpt lat="48.79477" lon="2.43224">
        <ele>26</ele>
        <time>2015-11-02T20:47:42Z</time>
      </trkpt>
      <trkpt lat="48.79458" lon="2.43226">
        <ele>27.39999961853</ele>
        <time>2015-11-02T20:47:46Z</time>
      </trkpt>
      <trkpt lat="48.79453" lon="2.43227">
        <ele>27.799999237061</ele>
        <time>2015-11-02T20:47:47Z</time>
      </trkpt>
      <trkpt lat="48.79434" lon="2.43232">
        <ele>25</ele>
        <time>2015-11-02T20:47:51Z</time>
      </trkpt>
      <trkpt lat="48.79416" lon="2.43235">
        <ele>22.799999237061</ele>
        <time>2015-11-02T20:47:55Z</time>
      </trkpt>
      <trkpt lat="48.79397" lon="2.43238">
        <ele>21.799999237061</ele>
        <time>2015-11-02T20:47:59Z</time>
      </trkpt>
      <trkpt lat="48.79387" lon="2.43239">
        <ele>21.60000038147</ele>
        <time>2015-11-02T20:48:01Z</time>
      </trkpt>
      <trkpt lat="48.79373" lon="2.43242">
        <ele>21.200000762939</ele>
        <time>2015-11-02T20:48:04Z</time>
      </trkpt>
      <trkpt lat="48.79354" lon="2.43246">
        <ele>21.200000762939</ele>
        <time>2015-11-02T20:48:08Z</time>
      </trkpt>
      <trkpt lat="48.7935" lon="2.43246">
        <ele>21.60000038147</ele>
        <time>2015-11-02T20:48:09Z</time>
      </trkpt>
      <trkpt lat="48.79331" lon="2.43247">
        <ele>22</ele>
        <time>2015-11-02T20:48:13Z</time>
      </trkpt>
      <trkpt lat="48.79312" lon="2.43251">
        <ele>22.39999961853</ele>
        <time>2015-11-02T20:48:17Z</time>
      </trkpt>
      <trkpt lat="48.79293" lon="2.43253">
        <ele>21.39999961853</ele>
        <time>2015-11-02T20:48:21Z</time>
      </trkpt>
      <trkpt lat="48.79275" lon="2.43256">
        <ele>20</ele>
        <time>2015-11-02T20:48:25Z</time>
      </trkpt>
      <trkpt lat="48.7927" lon="2.43257">
        <ele>18.60000038147</ele>
        <time>2015-11-02T20:48:26Z</time>
      </trkpt>
      <trkpt lat="48.79251" lon="2.43259">
        <ele>19.200000762939</ele>
        <time>2015-11-02T20:48:30Z</time>
      </trkpt>
      <trkpt lat="48.79232" lon="2.43261">
        <ele>17.60000038147</ele>
        <time>2015-11-02T20:48:34Z</time>
      </trkpt>
      <trkpt lat="48.79212" lon="2.43264">
        <ele>16.39999961853</ele>
        <time>2015-11-02T20:48:38Z</time>
      </trkpt>
      <trkpt lat="48.7919" lon="2.43266">
        <ele>17.799999237061</ele>
        <time>2015-11-02T20:48:42Z</time>
      </trkpt>
      <trkpt lat="48.79185" lon="2.43266">
        <ele>17.799999237061</ele>
        <time>2015-11-02T20:48:43Z</time>
      </trkpt>
      <trkpt lat="48.79165" lon="2.43269">
        <ele>15.60000038147</ele>
        <time>2015-11-02T20:48:47Z</time>
      </trkpt>
      <trkpt lat="48.79143" lon="2.43273">
        <ele>15.199999809265</ele>
        <time>2015-11-02T20:48:51Z</time>
      </trkpt>
      <trkpt lat="48.79133" lon="2.43276">
        <ele>15</ele>
        <time>2015-11-02T20:48:53Z</time>
      </trkpt>
      <trkpt lat="48.79126" lon="2.433">
        <ele>14</ele>
        <time>2015-11-02T20:48:57Z</time>
      </trkpt>
      <trkpt lat="48.7913" lon="2.43329">
        <ele>14</ele>
        <time>2015-11-02T20:49:01Z</time>
      </trkpt>
      <trkpt lat="48.79134" lon="2.43358">
        <ele>14.60000038147</ele>
        <time>2015-11-02T20:49:05Z</time>
      </trkpt>
      <trkpt lat="48.79137" lon="2.43373">
        <ele>15.199999809265</ele>
        <time>2015-11-02T20:49:07Z</time>
      </trkpt>
      <trkpt lat="48.79141" lon="2.43401">
        <ele>15.60000038147</ele>
        <time>2015-11-02T20:49:11Z</time>
      </trkpt>
      <trkpt lat="48.79141" lon="2.43409">
        <ele>15.60000038147</ele>
        <time>2015-11-02T20:49:12Z</time>
      </trkpt>
      <trkpt lat="48.79142" lon="2.43422">
        <ele>16.200000762939</ele>
        <time>2015-11-02T20:49:14Z</time>
      </trkpt>
      <trkpt lat="48.79146" lon="2.43452">
        <ele>16.39999961853</ele>
        <time>2015-11-02T20:49:19Z</time>
      </trkpt>
      <trkpt lat="48.7915" lon="2.43473">
        <ele>15.800000190735</ele>
        <time>2015-11-02T20:49:25Z</time>
      </trkpt>
      <trkpt lat="48.79135" lon="2.43483">
        <ele>15.199999809265</ele>
        <time>2015-11-02T20:49:30Z</time>
      </trkpt>
      <trkpt lat="48.79126" lon="2.43486">
        <ele>14.800000190735</ele>
        <time>2015-11-02T20:49:33Z</time>
      </trkpt>
      <trkpt lat="48.7912" lon="2.43488">
        <ele>14.60000038147</ele>
        <time>2015-11-02T20:49:35Z</time>
      </trkpt>
      <trkpt lat="48.79104" lon="2.43493">
        <ele>15.199999809265</ele>
        <time>2015-11-02T20:49:41Z</time>
      </trkpt>
      <trkpt lat="48.79085" lon="2.43499">
        <ele>16.799999237061</ele>
        <time>2015-11-02T20:49:47Z</time>
      </trkpt>
      <trkpt lat="48.79065" lon="2.43505">
        <ele>16.799999237061</ele>
        <time>2015-11-02T20:49:53Z</time>
      </trkpt>
      <trkpt lat="48.79045" lon="2.4351">
        <ele>16</ele>
        <time>2015-11-02T20:49:58Z</time>
      </trkpt>
      <trkpt lat="48.79025" lon="2.43515">
        <ele>14.60000038147</ele>
        <time>2015-11-02T20:50:03Z</time>
      </trkpt>
      <trkpt lat="48.79006" lon="2.43519">
        <ele>13.800000190735</ele>
        <time>2015-11-02T20:50:07Z</time>
      </trkpt>
      <trkpt lat="48.78988" lon="2.43524">
        <ele>13.199999809265</ele>
        <time>2015-11-02T20:50:11Z</time>
      </trkpt>
      <trkpt lat="48.78969" lon="2.43529">
        <ele>12.39999961853</ele>
        <time>2015-11-02T20:50:15Z</time>
      </trkpt>
      <trkpt lat="48.7895" lon="2.43534">
        <ele>12.39999961853</ele>
        <time>2015-11-02T20:50:19Z</time>
      </trkpt>
      <trkpt lat="48.78928" lon="2.43539">
        <ele>12</ele>
        <time>2015-11-02T20:50:23Z</time>
      </trkpt>
      <trkpt lat="48.78906" lon="2.43545">
        <ele>12</ele>
        <time>2015-11-02T20:50:27Z</time>
      </trkpt>
      <trkpt lat="48.78886" lon="2.4355">
        <ele>12.60000038147</ele>
        <time>2015-11-02T20:50:31Z</time>
      </trkpt>
      <trkpt lat="48.78864" lon="2.43557">
        <ele>12.800000190735</ele>
        <time>2015-11-02T20:50:35Z</time>
      </trkpt>
      <trkpt lat="48.78843" lon="2.43563">
        <ele>15</ele>
        <time>2015-11-02T20:50:39Z</time>
      </trkpt>
      <trkpt lat="48.7882" lon="2.43568">
        <ele>16.39999961853</ele>
        <time>2015-11-02T20:50:43Z</time>
      </trkpt>
      <trkpt lat="48.78798" lon="2.43572">
        <ele>16.799999237061</ele>
        <time>2015-11-02T20:50:47Z</time>
      </trkpt>
      <trkpt lat="48.78776" lon="2.43577">
        <ele>18</ele>
        <time>2015-11-02T20:50:51Z</time>
      </trkpt>
      <trkpt lat="48.78764" lon="2.43579">
        <ele>18.799999237061</ele>
        <time>2015-11-02T20:50:53Z</time>
      </trkpt>
      <trkpt lat="48.78743" lon="2.43585">
        <ele>19.200000762939</ele>
        <time>2015-11-02T20:50:57Z</time>
      </trkpt>
      <trkpt lat="48.7872" lon="2.43591">
        <ele>20</ele>
        <time>2015-11-02T20:51:01Z</time>
      </trkpt>
      <trkpt lat="48.78698" lon="2.43597">
        <ele>19.60000038147</ele>
        <time>2015-11-02T20:51:05Z</time>
      </trkpt>
      <trkpt lat="48.78676" lon="2.43605">
        <ele>19.200000762939</ele>
        <time>2015-11-02T20:51:09Z</time>
      </trkpt>
      <trkpt lat="48.78654" lon="2.43612">
        <ele>19.200000762939</ele>
        <time>2015-11-02T20:51:13Z</time>
      </trkpt>
      <trkpt lat="48.78631" lon="2.43618">
        <ele>18.799999237061</ele>
        <time>2015-11-02T20:51:17Z</time>
      </trkpt>
      <trkpt lat="48.78614" lon="2.43622">
        <ele>18.200000762939</ele>
        <time>2015-11-02T20:51:20Z</time>
      </trkpt>
      <trkpt lat="48.78594" lon="2.43625">
        <ele>17.60000038147</ele>
        <time>2015-11-02T20:51:23Z</time>
      </trkpt>
      <trkpt lat="48.78574" lon="2.43628">
        <ele>16.60000038147</ele>
        <time>2015-11-02T20:51:26Z</time>
      </trkpt>
      <trkpt lat="48.78555" lon="2.43632">
        <ele>16</ele>
        <time>2015-11-02T20:51:29Z</time>
      </trkpt>
      <trkpt lat="48.78535" lon="2.43636">
        <ele>15.39999961853</ele>
        <time>2015-11-02T20:51:32Z</time>
      </trkpt>
      <trkpt lat="48.78515" lon="2.4364">
        <ele>15.39999961853</ele>
        <time>2015-11-02T20:51:35Z</time>
      </trkpt>
      <trkpt lat="48.78495" lon="2.43642">
        <ele>14</ele>
        <time>2015-11-02T20:51:38Z</time>
      </trkpt>
      <trkpt lat="48.78477" lon="2.43647">
        <ele>13.60000038147</ele>
        <time>2015-11-02T20:51:41Z</time>
      </trkpt>
      <trkpt lat="48.78461" lon="2.43651">
        <ele>13.800000190735</ele>
        <time>2015-11-02T20:51:44Z</time>
      </trkpt>
      <trkpt lat="48.78443" lon="2.43645">
        <ele>14</ele>
        <time>2015-11-02T20:51:48Z</time>
      </trkpt>
      <trkpt lat="48.78424" lon="2.43651">
        <ele>15.199999809265</ele>
        <time>2015-11-02T20:51:53Z</time>
      </trkpt>
      <trkpt lat="48.7842" lon="2.43656">
        <ele>15.60000038147</ele>
        <time>2015-11-02T20:51:55Z</time>
      </trkpt>
      <trkpt lat="48.78405" lon="2.43663">
        <ele>17</ele>
        <time>2015-11-02T20:52:04Z</time>
      </trkpt>
      <trkpt lat="48.78393" lon="2.43667">
        <ele>17.200000762939</ele>
        <time>2015-11-02T20:52:08Z</time>
      </trkpt>
      <trkpt lat="48.78385" lon="2.4367">
        <ele>17.39999961853</ele>
        <time>2015-11-02T20:52:11Z</time>
      </trkpt>
      <trkpt lat="48.78379" lon="2.43672">
        <ele>17.60000038147</ele>
        <time>2015-11-02T20:52:13Z</time>
      </trkpt>
      <trkpt lat="48.78359" lon="2.43678">
        <ele>18.200000762939</ele>
        <time>2015-11-02T20:52:19Z</time>
      </trkpt>
      <trkpt lat="48.7834" lon="2.43684">
        <ele>19.200000762939</ele>
        <time>2015-11-02T20:52:24Z</time>
      </trkpt>
      <trkpt lat="48.78322" lon="2.43688">
        <ele>20.799999237061</ele>
        <time>2015-11-02T20:52:29Z</time>
      </trkpt>
      <trkpt lat="48.78302" lon="2.43693">
        <ele>21.200000762939</ele>
        <time>2015-11-02T20:52:34Z</time>
      </trkpt>
      <trkpt lat="48.78282" lon="2.43697">
        <ele>21.200000762939</ele>
        <time>2015-11-02T20:52:39Z</time>
      </trkpt>
      <trkpt lat="48.78261" lon="2.43701">
        <ele>20.60000038147</ele>
        <time>2015-11-02T20:52:44Z</time>
      </trkpt>
      <trkpt lat="48.7824" lon="2.43708">
        <ele>19.799999237061</ele>
        <time>2015-11-02T20:52:49Z</time>
      </trkpt>
      <trkpt lat="48.7822" lon="2.43713">
        <ele>20.39999961853</ele>
        <time>2015-11-02T20:52:53Z</time>
      </trkpt>
      <trkpt lat="48.78209" lon="2.43716">
        <ele>20.200000762939</ele>
        <time>2015-11-02T20:52:55Z</time>
      </trkpt>
      <trkpt lat="48.78189" lon="2.43722">
        <ele>20.39999961853</ele>
        <time>2015-11-02T20:52:59Z</time>
      </trkpt>
      <trkpt lat="48.78169" lon="2.43727">
        <ele>20.799999237061</ele>
        <time>2015-11-02T20:53:03Z</time>
      </trkpt>
      <trkpt lat="48.7815" lon="2.43732">
        <ele>21</ele>
        <time>2015-11-02T20:53:07Z</time>
      </trkpt>
      <trkpt lat="48.78138" lon="2.43733">
        <ele>21.39999961853</ele>
        <time>2015-11-02T20:53:09Z</time>
      </trkpt>
      <trkpt lat="48.7812" lon="2.43737">
        <ele>21.200000762939</ele>
        <time>2015-11-02T20:53:12Z</time>
      </trkpt>
      <trkpt lat="48.78102" lon="2.43741">
        <ele>21</ele>
        <time>2015-11-02T20:53:15Z</time>
      </trkpt>
      <trkpt lat="48.78079" lon="2.43745">
        <ele>20</ele>
        <time>2015-11-02T20:53:19Z</time>
      </trkpt>
      <trkpt lat="48.78056" lon="2.43749">
        <ele>20</ele>
        <time>2015-11-02T20:53:23Z</time>
      </trkpt>
      <trkpt lat="48.78034" lon="2.43754">
        <ele>20</ele>
        <time>2015-11-02T20:53:27Z</time>
      </trkpt>
      <trkpt lat="48.78014" lon="2.43759">
        <ele>19.799999237061</ele>
        <time>2015-11-02T20:53:31Z</time>
      </trkpt>
      <trkpt lat="48.77995" lon="2.43763">
        <ele>19</ele>
        <time>2015-11-02T20:53:35Z</time>
      </trkpt>
      <trkpt lat="48.77977" lon="2.43769">
        <ele>19.799999237061</ele>
        <time>2015-11-02T20:53:41Z</time>
      </trkpt>
      <trkpt lat="48.77958" lon="2.43773">
        <ele>23</ele>
        <time>2015-11-02T20:53:54Z</time>
      </trkpt>
      <trkpt lat="48.77938" lon="2.43781">
        <ele>23</ele>
        <time>2015-11-02T20:54:01Z</time>
      </trkpt>
      <trkpt lat="48.7792" lon="2.43788">
        <ele>22.60000038147</ele>
        <time>2015-11-02T20:54:06Z</time>
      </trkpt>
      <trkpt lat="48.779" lon="2.43796">
        <ele>22</ele>
        <time>2015-11-02T20:54:11Z</time>
      </trkpt>
      <trkpt lat="48.77878" lon="2.43803">
        <ele>21.799999237061</ele>
        <time>2015-11-02T20:54:16Z</time>
      </trkpt>
      <trkpt lat="48.77861" lon="2.43808">
        <ele>21.799999237061</ele>
        <time>2015-11-02T20:54:20Z</time>
      </trkpt>
      <trkpt lat="48.7784" lon="2.43813">
        <ele>22.200000762939</ele>
        <time>2015-11-02T20:54:24Z</time>
      </trkpt>
      <trkpt lat="48.77818" lon="2.43819">
        <ele>21.39999961853</ele>
        <time>2015-11-02T20:54:28Z</time>
      </trkpt>
      <trkpt lat="48.77795" lon="2.43825">
        <ele>20.60000038147</ele>
        <time>2015-11-02T20:54:32Z</time>
      </trkpt>
      <trkpt lat="48.77772" lon="2.43831">
        <ele>21</ele>
        <time>2015-11-02T20:54:36Z</time>
      </trkpt>
      <trkpt lat="48.7775" lon="2.43838">
        <ele>21.60000038147</ele>
        <time>2015-11-02T20:54:40Z</time>
      </trkpt>
      <trkpt lat="48.77729" lon="2.43845">
        <ele>22.39999961853</ele>
        <time>2015-11-02T20:54:44Z</time>
      </trkpt>
      <trkpt lat="48.77707" lon="2.43853">
        <ele>22.60000038147</ele>
        <time>2015-11-02T20:54:48Z</time>
      </trkpt>
      <trkpt lat="48.77688" lon="2.43856">
        <ele>22.39999961853</ele>
        <time>2015-11-02T20:54:52Z</time>
      </trkpt>
      <trkpt lat="48.77671" lon="2.43861">
        <ele>22.39999961853</ele>
        <time>2015-11-02T20:54:56Z</time>
      </trkpt>
      <trkpt lat="48.77652" lon="2.43864">
        <ele>22.200000762939</ele>
        <time>2015-11-02T20:55:00Z</time>
      </trkpt>
      <trkpt lat="48.77648" lon="2.43864">
        <ele>22.39999961853</ele>
        <time>2015-11-02T20:55:01Z</time>
      </trkpt>
      <trkpt lat="48.77637" lon="2.43862">
        <ele>22</ele>
        <time>2015-11-02T20:55:05Z</time>
      </trkpt>
      <trkpt lat="48.77633" lon="2.43861">
        <ele>21.60000038147</ele>
        <time>2015-11-02T20:55:06Z</time>
      </trkpt>
      <trkpt lat="48.77621" lon="2.43863">
        <ele>20</ele>
        <time>2015-11-02T20:55:09Z</time>
      </trkpt>
      <trkpt lat="48.776" lon="2.43866">
        <ele>18.39999961853</ele>
        <time>2015-11-02T20:55:13Z</time>
      </trkpt>
      <trkpt lat="48.77595" lon="2.43867">
        <ele>18.39999961853</ele>
        <time>2015-11-02T20:55:14Z</time>
      </trkpt>
      <trkpt lat="48.77575" lon="2.43872">
        <ele>18.200000762939</ele>
        <time>2015-11-02T20:55:18Z</time>
      </trkpt>
      <trkpt lat="48.77569" lon="2.43874">
        <ele>18.200000762939</ele>
        <time>2015-11-02T20:55:19Z</time>
      </trkpt>
      <trkpt lat="48.7755" lon="2.4388">
        <ele>18.200000762939</ele>
        <time>2015-11-02T20:55:23Z</time>
      </trkpt>
      <trkpt lat="48.77531" lon="2.43885">
        <ele>16.39999961853</ele>
        <time>2015-11-02T20:55:27Z</time>
      </trkpt>
      <trkpt lat="48.77513" lon="2.4389">
        <ele>16.39999961853</ele>
        <time>2015-11-02T20:55:31Z</time>
      </trkpt>
      <trkpt lat="48.77509" lon="2.43892">
        <ele>16.39999961853</ele>
        <time>2015-11-02T20:55:32Z</time>
      </trkpt>
      <trkpt lat="48.7749" lon="2.43897">
        <ele>17</ele>
        <time>2015-11-02T20:55:37Z</time>
      </trkpt>
      <trkpt lat="48.77474" lon="2.43901">
        <ele>18.39999961853</ele>
        <time>2015-11-02T20:55:43Z</time>
      </trkpt>
      <trkpt lat="48.77468" lon="2.43916">
        <ele>23</ele>
        <time>2015-11-02T20:56:24Z</time>
      </trkpt>
      <trkpt lat="48.77471" lon="2.43895">
        <ele>22.60000038147</ele>
        <time>2015-11-02T20:57:30Z</time>
      </trkpt>
      <trkpt lat="48.77459" lon="2.43879">
        <ele>23</ele>
        <time>2015-11-02T20:58:01Z</time>
      </trkpt>
      <trkpt lat="48.77441" lon="2.43867">
        <ele>23.200000762939</ele>
        <time>2015-11-02T20:58:09Z</time>
      </trkpt>
      <trkpt lat="48.77437" lon="2.43865">
        <ele>23.799999237061</ele>
        <time>2015-11-02T20:58:12Z</time>
      </trkpt>
      <trkpt lat="48.77419" lon="2.43872">
        <ele>24.39999961853</ele>
        <time>2015-11-02T20:58:19Z</time>
      </trkpt>
      <trkpt lat="48.77414" lon="2.43874">
        <ele>23.39999961853</ele>
        <time>2015-11-02T20:58:27Z</time>
      </trkpt>
      <trkpt lat="48.77402" lon="2.43898">
        <ele>23</ele>
        <time>2015-11-02T20:58:42Z</time>
      </trkpt>
      <trkpt lat="48.7739" lon="2.4392">
        <ele>23.39999961853</ele>
        <time>2015-11-02T20:58:51Z</time>
      </trkpt>
      <trkpt lat="48.77383" lon="2.43921">
        <ele>23</ele>
        <time>2015-11-02T20:58:56Z</time>
      </trkpt>
      <trkpt lat="48.77387" lon="2.4391">
        <ele>24.200000762939</ele>
        <time>2015-11-02T20:59:44Z</time>
      </trkpt>
      <trkpt lat="48.774" lon="2.43892">
        <ele>24.200000762939</ele>
        <time>2015-11-02T21:00:04Z</time>
      </trkpt>
      <trkpt lat="48.77401" lon="2.43871">
        <ele>23.60000038147</ele>
        <time>2015-11-02T21:00:33Z</time>
      </trkpt>
      <trkpt lat="48.77392" lon="2.43842">
        <ele>23.799999237061</ele>
        <time>2015-11-02T21:00:41Z</time>
      </trkpt>
      <trkpt lat="48.77384" lon="2.43814">
        <ele>24.799999237061</ele>
        <time>2015-11-02T21:00:47Z</time>
      </trkpt>
      <trkpt lat="48.77377" lon="2.43786">
        <ele>27.200000762939</ele>
        <time>2015-11-02T21:00:53Z</time>
      </trkpt>
      <trkpt lat="48.77369" lon="2.43761">
        <ele>28.60000038147</ele>
        <time>2015-11-02T21:01:00Z</time>
      </trkpt>
      <trkpt lat="48.77359" lon="2.43735">
        <ele>32</ele>
        <time>2015-11-02T21:01:07Z</time>
      </trkpt>
      <trkpt lat="48.77352" lon="2.43709">
        <ele>33.599998474121</ele>
        <time>2015-11-02T21:01:12Z</time>
      </trkpt>
      <trkpt lat="48.77344" lon="2.43683">
        <ele>35.79999923706</ele>
        <time>2015-11-02T21:01:17Z</time>
      </trkpt>
      <trkpt lat="48.77337" lon="2.43655">
        <ele>37.400001525879</ele>
        <time>2015-11-02T21:01:22Z</time>
      </trkpt>
      <trkpt lat="48.7733" lon="2.43629">
        <ele>37.79999923706</ele>
        <time>2015-11-02T21:01:26Z</time>
      </trkpt>
      <trkpt lat="48.77322" lon="2.436">
        <ele>38.20000076294</ele>
        <time>2015-11-02T21:01:31Z</time>
      </trkpt>
      <trkpt lat="48.77319" lon="2.43588">
        <ele>37.599998474121</ele>
        <time>2015-11-02T21:01:34Z</time>
      </trkpt>
      <trkpt lat="48.77312" lon="2.43561">
        <ele>34.79999923706</ele>
        <time>2015-11-02T21:01:40Z</time>
      </trkpt>
      <trkpt lat="48.77302" lon="2.43537">
        <ele>33</ele>
        <time>2015-11-02T21:01:46Z</time>
      </trkpt>
      <trkpt lat="48.77293" lon="2.43518">
        <ele>30.60000038147</ele>
        <time>2015-11-02T21:01:56Z</time>
      </trkpt>
      <trkpt lat="48.77291" lon="2.43516">
        <ele>30</ele>
        <time>2015-11-02T21:01:58Z</time>
      </trkpt>
      <trkpt lat="48.77286" lon="2.43494">
        <ele>32.20000076294</ele>
        <time>2015-11-02T21:02:41Z</time>
      </trkpt>
      <trkpt lat="48.77282" lon="2.43482">
        <ele>34.20000076294</ele>
        <time>2015-11-02T21:03:36Z</time>
      </trkpt>
      <trkpt lat="48.77283" lon="2.43467">
        <ele>34.20000076294</ele>
        <time>2015-11-02T21:03:40Z</time>
      </trkpt>
      <trkpt lat="48.77286" lon="2.43442">
        <ele>33.79999923706</ele>
        <time>2015-11-02T21:03:50Z</time>
      </trkpt>
      <trkpt lat="48.77292" lon="2.43436">
        <ele>34.400001525879</ele>
        <time>2015-11-02T21:03:58Z</time>
      </trkpt>
      <trkpt lat="48.77293" lon="2.4343">
        <ele>34.79999923706</ele>
        <time>2015-11-02T21:04:02Z</time>
      </trkpt>
      <trkpt lat="48.77284" lon="2.43402">
        <ele>34.599998474121</ele>
        <time>2015-11-02T21:04:09Z</time>
      </trkpt>
      <trkpt lat="48.77281" lon="2.43396">
        <ele>34.400001525879</ele>
        <time>2015-11-02T21:04:10Z</time>
      </trkpt>
      <trkpt lat="48.77273" lon="2.43378">
        <ele>34</ele>
        <time>2015-11-02T21:04:13Z</time>
      </trkpt>
      <trkpt lat="48.77264" lon="2.43354">
        <ele>33.20000076294</ele>
        <time>2015-11-02T21:04:18Z</time>
      </trkpt>
      <trkpt lat="48.7726" lon="2.43342">
        <ele>32.20000076294</ele>
        <time>2015-11-02T21:04:22Z</time>
      </trkpt>
      <trkpt lat="48.77252" lon="2.43324">
        <ele>30.60000038147</ele>
        <time>2015-11-02T21:04:27Z</time>
      </trkpt>
      <trkpt lat="48.77242" lon="2.43296">
        <ele>30</ele>
        <time>2015-11-02T21:04:31Z</time>
      </trkpt>
      <trkpt lat="48.7723" lon="2.43266">
        <ele>28.799999237061</ele>
        <time>2015-11-02T21:04:35Z</time>
      </trkpt>
      <trkpt lat="48.77221" lon="2.43242">
        <ele>27.799999237061</ele>
        <time>2015-11-02T21:04:38Z</time>
      </trkpt>
      <trkpt lat="48.77212" lon="2.43217">
        <ele>26.799999237061</ele>
        <time>2015-11-02T21:04:41Z</time>
      </trkpt>
      <trkpt lat="48.77208" lon="2.43199">
        <ele>26.200000762939</ele>
        <time>2015-11-02T21:04:43Z</time>
      </trkpt>
      <trkpt lat="48.772" lon="2.43172">
        <ele>25.200000762939</ele>
        <time>2015-11-02T21:04:46Z</time>
      </trkpt>
      <trkpt lat="48.77192" lon="2.43145">
        <ele>23.200000762939</ele>
        <time>2015-11-02T21:04:49Z</time>
      </trkpt>
      <trkpt lat="48.77187" lon="2.43127">
        <ele>22.200000762939</ele>
        <time>2015-11-02T21:04:51Z</time>
      </trkpt>
      <trkpt lat="48.77178" lon="2.43101">
        <ele>20.39999961853</ele>
        <time>2015-11-02T21:04:54Z</time>
      </trkpt>
      <trkpt lat="48.77169" lon="2.43075">
        <ele>18.200000762939</ele>
        <time>2015-11-02T21:04:57Z</time>
      </trkpt>
      <trkpt lat="48.7716" lon="2.4305">
        <ele>15.39999961853</ele>
        <time>2015-11-02T21:05:00Z</time>
      </trkpt>
      <trkpt lat="48.77153" lon="2.43022">
        <ele>15</ele>
        <time>2015-11-02T21:05:03Z</time>
      </trkpt>
      <trkpt lat="48.77151" lon="2.43014">
        <ele>14.39999961853</ele>
        <time>2015-11-02T21:05:04Z</time>
      </trkpt>
      <trkpt lat="48.77147" lon="2.42997">
        <ele>13.199999809265</ele>
        <time>2015-11-02T21:05:06Z</time>
      </trkpt>
      <trkpt lat="48.7714" lon="2.42971">
        <ele>11.39999961853</ele>
        <time>2015-11-02T21:05:09Z</time>
      </trkpt>
      <trkpt lat="48.77133" lon="2.42944">
        <ele>10.60000038147</ele>
        <time>2015-11-02T21:05:12Z</time>
      </trkpt>
      <trkpt lat="48.77126" lon="2.42919">
        <ele>9.6000003814697</ele>
        <time>2015-11-02T21:05:15Z</time>
      </trkpt>
      <trkpt lat="48.77119" lon="2.42893">
        <ele>9.3999996185303</ele>
        <time>2015-11-02T21:05:18Z</time>
      </trkpt>
      <trkpt lat="48.77111" lon="2.42867">
        <ele>9</ele>
        <time>2015-11-02T21:05:21Z</time>
      </trkpt>
      <trkpt lat="48.77104" lon="2.42839">
        <ele>8.3999996185303</ele>
        <time>2015-11-02T21:05:24Z</time>
      </trkpt>
      <trkpt lat="48.77096" lon="2.42813">
        <ele>7.1999998092651</ele>
        <time>2015-11-02T21:05:27Z</time>
      </trkpt>
      <trkpt lat="48.77089" lon="2.42789">
        <ele>6.4000000953674</ele>
        <time>2015-11-02T21:05:30Z</time>
      </trkpt>
      <trkpt lat="48.77083" lon="2.42762">
        <ele>5.5999999046326</ele>
        <time>2015-11-02T21:05:33Z</time>
      </trkpt>
      <trkpt lat="48.77076" lon="2.42734">
        <ele>4.5999999046326</ele>
        <time>2015-11-02T21:05:36Z</time>
      </trkpt>
      <trkpt lat="48.77067" lon="2.42706">
        <ele>4</ele>
        <time>2015-11-02T21:05:39Z</time>
      </trkpt>
      <trkpt lat="48.77059" lon="2.42679">
        <ele>4.8000001907349</ele>
        <time>2015-11-02T21:05:42Z</time>
      </trkpt>
      <trkpt lat="48.77051" lon="2.42652">
        <ele>5.5999999046326</ele>
        <time>2015-11-02T21:05:45Z</time>
      </trkpt>
      <trkpt lat="48.77042" lon="2.42627">
        <ele>6</ele>
        <time>2015-11-02T21:05:48Z</time>
      </trkpt>
      <trkpt lat="48.77035" lon="2.4261">
        <ele>6</ele>
        <time>2015-11-02T21:05:50Z</time>
      </trkpt>
      <trkpt lat="48.77027" lon="2.42585">
        <ele>6.4000000953674</ele>
        <time>2015-11-02T21:05:53Z</time>
      </trkpt>
      <trkpt lat="48.77021" lon="2.42568">
        <ele>6.8000001907349</ele>
        <time>2015-11-02T21:05:55Z</time>
      </trkpt>
      <trkpt lat="48.77014" lon="2.42542">
        <ele>7.5999999046326</ele>
        <time>2015-11-02T21:05:58Z</time>
      </trkpt>
      <trkpt lat="48.77008" lon="2.42516">
        <ele>9</ele>
        <time>2015-11-02T21:06:01Z</time>
      </trkpt>
      <trkpt lat="48.76999" lon="2.42485">
        <ele>11</ele>
        <time>2015-11-02T21:06:05Z</time>
      </trkpt>
      <trkpt lat="48.76989" lon="2.42453">
        <ele>12</ele>
        <time>2015-11-02T21:06:09Z</time>
      </trkpt>
      <trkpt lat="48.76984" lon="2.42421">
        <ele>12.60000038147</ele>
        <time>2015-11-02T21:06:12Z</time>
      </trkpt>
      <trkpt lat="48.76975" lon="2.42397">
        <ele>12.800000190735</ele>
        <time>2015-11-02T21:06:15Z</time>
      </trkpt>
      <trkpt lat="48.76966" lon="2.42364">
        <ele>8.3999996185303</ele>
        <time>2015-11-02T21:06:19Z</time>
      </trkpt>
      <trkpt lat="48.76957" lon="2.42331">
        <ele>4.4000000953674</ele>
        <time>2015-11-02T21:06:23Z</time>
      </trkpt>
      <trkpt lat="48.76947" lon="2.42299">
        <ele>2.2000000476837</ele>
        <time>2015-11-02T21:06:27Z</time>
      </trkpt>
      <trkpt lat="48.76937" lon="2.42266">
        <ele>-1.3999999761581</ele>
        <time>2015-11-02T21:06:31Z</time>
      </trkpt>
      <trkpt lat="48.76929" lon="2.42234">
        <ele>-3.4000000953674</ele>
        <time>2015-11-02T21:06:35Z</time>
      </trkpt>
      <trkpt lat="48.76919" lon="2.42204">
        <ele>-1.6000000238419</ele>
        <time>2015-11-02T21:06:39Z</time>
      </trkpt>
      <trkpt lat="48.76909" lon="2.42174">
        <ele>0.60000002384186</ele>
        <time>2015-11-02T21:06:43Z</time>
      </trkpt>
      <trkpt lat="48.76899" lon="2.42146">
        <ele>2.4000000953674</ele>
        <time>2015-11-02T21:06:47Z</time>
      </trkpt>
      <trkpt lat="48.76896" lon="2.42139">
        <ele>2.5999999046326</ele>
        <time>2015-11-02T21:06:48Z</time>
      </trkpt>
      <trkpt lat="48.76888" lon="2.42109">
        <ele>8.6000003814697</ele>
        <time>2015-11-02T21:06:52Z</time>
      </trkpt>
      <trkpt lat="48.76881" lon="2.42084">
        <ele>12.800000190735</ele>
        <time>2015-11-02T21:06:56Z</time>
      </trkpt>
      <trkpt lat="48.76872" lon="2.42053">
        <ele>14.199999809265</ele>
        <time>2015-11-02T21:07:01Z</time>
      </trkpt>
      <trkpt lat="48.76861" lon="2.4202">
        <ele>16.200000762939</ele>
        <time>2015-11-02T21:07:05Z</time>
      </trkpt>
      <trkpt lat="48.76852" lon="2.4199">
        <ele>17.200000762939</ele>
        <time>2015-11-02T21:07:08Z</time>
      </trkpt>
      <trkpt lat="48.76844" lon="2.41959">
        <ele>19</ele>
        <time>2015-11-02T21:07:11Z</time>
      </trkpt>
      <trkpt lat="48.76835" lon="2.41927">
        <ele>20.200000762939</ele>
        <time>2015-11-02T21:07:14Z</time>
      </trkpt>
      <trkpt lat="48.76825" lon="2.41895">
        <ele>20.39999961853</ele>
        <time>2015-11-02T21:07:17Z</time>
      </trkpt>
      <trkpt lat="48.76816" lon="2.41862">
        <ele>21.39999961853</ele>
        <time>2015-11-02T21:07:20Z</time>
      </trkpt>
      <trkpt lat="48.76805" lon="2.41829">
        <ele>22.200000762939</ele>
        <time>2015-11-02T21:07:23Z</time>
      </trkpt>
      <trkpt lat="48.76796" lon="2.41795">
        <ele>22.39999961853</ele>
        <time>2015-11-02T21:07:26Z</time>
      </trkpt>
      <trkpt lat="48.76787" lon="2.4176">
        <ele>22.39999961853</ele>
        <time>2015-11-02T21:07:29Z</time>
      </trkpt>
      <trkpt lat="48.76778" lon="2.41727">
        <ele>22.799999237061</ele>
        <time>2015-11-02T21:07:32Z</time>
      </trkpt>
      <trkpt lat="48.76768" lon="2.41695">
        <ele>24</ele>
        <time>2015-11-02T21:07:35Z</time>
      </trkpt>
      <trkpt lat="48.76758" lon="2.41664">
        <ele>24.39999961853</ele>
        <time>2015-11-02T21:07:38Z</time>
      </trkpt>
      <trkpt lat="48.7675" lon="2.41634">
        <ele>25</ele>
        <time>2015-11-02T21:07:41Z</time>
      </trkpt>
      <trkpt lat="48.76741" lon="2.41605">
        <ele>25.799999237061</ele>
        <time>2015-11-02T21:07:44Z</time>
      </trkpt>
      <trkpt lat="48.76733" lon="2.41579">
        <ele>26.60000038147</ele>
        <time>2015-11-02T21:07:47Z</time>
      </trkpt>
      <trkpt lat="48.76725" lon="2.41553">
        <ele>27.39999961853</ele>
        <time>2015-11-02T21:07:50Z</time>
      </trkpt>
      <trkpt lat="48.76718" lon="2.41531">
        <ele>27.60000038147</ele>
        <time>2015-11-02T21:07:53Z</time>
      </trkpt>
      <trkpt lat="48.76711" lon="2.41501">
        <ele>27.799999237061</ele>
        <time>2015-11-02T21:07:57Z</time>
      </trkpt>
      <trkpt lat="48.76709" lon="2.41494">
        <ele>28</ele>
        <time>2015-11-02T21:07:58Z</time>
      </trkpt>
      <trkpt lat="48.767" lon="2.4147">
        <ele>26.200000762939</ele>
        <time>2015-11-02T21:08:02Z</time>
      </trkpt>
      <trkpt lat="48.76691" lon="2.41445">
        <ele>26.799999237061</ele>
        <time>2015-11-02T21:08:06Z</time>
      </trkpt>
      <trkpt lat="48.76684" lon="2.41417">
        <ele>26.39999961853</ele>
        <time>2015-11-02T21:08:10Z</time>
      </trkpt>
      <trkpt lat="48.76677" lon="2.4139">
        <ele>25.60000038147</ele>
        <time>2015-11-02T21:08:14Z</time>
      </trkpt>
      <trkpt lat="48.7667" lon="2.41361">
        <ele>25.200000762939</ele>
        <time>2015-11-02T21:08:18Z</time>
      </trkpt>
      <trkpt lat="48.76662" lon="2.41329">
        <ele>24.200000762939</ele>
        <time>2015-11-02T21:08:22Z</time>
      </trkpt>
      <trkpt lat="48.76653" lon="2.41298">
        <ele>24.200000762939</ele>
        <time>2015-11-02T21:08:26Z</time>
      </trkpt>
      <trkpt lat="48.76645" lon="2.41268">
        <ele>21.799999237061</ele>
        <time>2015-11-02T21:08:30Z</time>
      </trkpt>
      <trkpt lat="48.76637" lon="2.41238">
        <ele>20.60000038147</ele>
        <time>2015-11-02T21:08:34Z</time>
      </trkpt>
      <trkpt lat="48.76629" lon="2.41209">
        <ele>19.60000038147</ele>
        <time>2015-11-02T21:08:38Z</time>
      </trkpt>
      <trkpt lat="48.76628" lon="2.41202">
        <ele>19.60000038147</ele>
        <time>2015-11-02T21:08:39Z</time>
      </trkpt>
      <trkpt lat="48.7662" lon="2.41172">
        <ele>18.39999961853</ele>
        <time>2015-11-02T21:08:43Z</time>
      </trkpt>
      <trkpt lat="48.76613" lon="2.41142">
        <ele>19.200000762939</ele>
        <time>2015-11-02T21:08:47Z</time>
      </trkpt>
      <trkpt lat="48.76605" lon="2.41111">
        <ele>19.799999237061</ele>
        <time>2015-11-02T21:08:51Z</time>
      </trkpt>
      <trkpt lat="48.76597" lon="2.41079">
        <ele>20.200000762939</ele>
        <time>2015-11-02T21:08:55Z</time>
      </trkpt>
      <trkpt lat="48.76589" lon="2.41049">
        <ele>20.60000038147</ele>
        <time>2015-11-02T21:08:59Z</time>
      </trkpt>
      <trkpt lat="48.76581" lon="2.41022">
        <ele>20.200000762939</ele>
        <time>2015-11-02T21:09:03Z</time>
      </trkpt>
      <trkpt lat="48.76573" lon="2.40994">
        <ele>19.39999961853</ele>
        <time>2015-11-02T21:09:07Z</time>
      </trkpt>
      <trkpt lat="48.7657" lon="2.40987">
        <ele>19.200000762939</ele>
        <time>2015-11-02T21:09:08Z</time>
      </trkpt>
      <trkpt lat="48.76566" lon="2.40965">
        <ele>19.799999237061</ele>
        <time>2015-11-02T21:09:12Z</time>
      </trkpt>
      <trkpt lat="48.7657" lon="2.40966">
        <ele>21.799999237061</ele>
        <time>2015-11-02T21:09:19Z</time>
      </trkpt>
      <trkpt lat="48.76573" lon="2.40978">
        <ele>25.799999237061</ele>
        <time>2015-11-02T21:10:22Z</time>
      </trkpt>
      <trkpt lat="48.76569" lon="2.40966">
        <ele>26</ele>
        <time>2015-11-02T21:10:27Z</time>
      </trkpt>
      <trkpt lat="48.76568" lon="2.40956">
        <ele>25.799999237061</ele>
        <time>2015-11-02T21:10:32Z</time>
      </trkpt>
      <trkpt lat="48.76567" lon="2.40952">
        <ele>26</ele>
        <time>2015-11-02T21:10:34Z</time>
      </trkpt>
      <trkpt lat="48.76567" lon="2.4095">
        <ele>26</ele>
        <time>2015-11-02T21:10:36Z</time>
      </trkpt>
      <trkpt lat="48.76572" lon="2.40963">
        <ele>26</ele>
        <time>2015-11-02T21:11:39Z</time>
      </trkpt>
      <trkpt lat="48.76579" lon="2.40969">
        <ele>25.799999237061</ele>
        <time>2015-11-02T21:11:48Z</time>
      </trkpt>
      <trkpt lat="48.76597" lon="2.40962">
        <ele>25.60000038147</ele>
        <time>2015-11-02T21:11:55Z</time>
      </trkpt>
      <trkpt lat="48.76613" lon="2.40949">
        <ele>25.799999237061</ele>
        <time>2015-11-02T21:12:00Z</time>
      </trkpt>
      <trkpt lat="48.76631" lon="2.40936">
        <ele>26.200000762939</ele>
        <time>2015-11-02T21:12:05Z</time>
      </trkpt>
      <trkpt lat="48.76648" lon="2.40922">
        <ele>28.39999961853</ele>
        <time>2015-11-02T21:12:12Z</time>
      </trkpt>
      <trkpt lat="48.76666" lon="2.40917">
        <ele>31.39999961853</ele>
        <time>2015-11-02T21:12:20Z</time>
      </trkpt>
      <trkpt lat="48.76669" lon="2.40918">
        <ele>32.79999923706</ele>
        <time>2015-11-02T21:12:22Z</time>
      </trkpt>
      <trkpt lat="48.76671" lon="2.40919">
        <ele>33.599998474121</ele>
        <time>2015-11-02T21:12:24Z</time>
      </trkpt>
      <trkpt lat="48.76662" lon="2.40921">
        <ele>29.799999237061</ele>
        <time>2015-11-02T21:12:59Z</time>
      </trkpt>
      <trkpt lat="48.76663" lon="2.40942">
        <ele>28.200000762939</ele>
        <time>2015-11-02T21:13:08Z</time>
      </trkpt>
      <trkpt lat="48.76667" lon="2.40951">
        <ele>27.60000038147</ele>
        <time>2015-11-02T21:13:11Z</time>
      </trkpt>
      <trkpt lat="48.7667" lon="2.40981">
        <ele>25.200000762939</ele>
        <time>2015-11-02T21:13:16Z</time>
      </trkpt>
      <trkpt lat="48.76679" lon="2.4101">
        <ele>24.60000038147</ele>
        <time>2015-11-02T21:13:21Z</time>
      </trkpt>
      <trkpt lat="48.76685" lon="2.4104">
        <ele>22.799999237061</ele>
        <time>2015-11-02T21:13:26Z</time>
      </trkpt>
      <trkpt lat="48.76688" lon="2.41044">
        <ele>23.200000762939</ele>
        <time>2015-11-02T21:13:27Z</time>
      </trkpt>
      <trkpt lat="48.76707" lon="2.41051">
        <ele>23.799999237061</ele>
        <time>2015-11-02T21:13:31Z</time>
      </trkpt>
      <trkpt lat="48.76725" lon="2.41048">
        <ele>26.200000762939</ele>
        <time>2015-11-02T21:13:36Z</time>
      </trkpt>
      <trkpt lat="48.76747" lon="2.41039">
        <ele>30.39999961853</ele>
        <time>2015-11-02T21:13:41Z</time>
      </trkpt>
      <trkpt lat="48.76768" lon="2.41033">
        <ele>35</ele>
        <time>2015-11-02T21:13:45Z</time>
      </trkpt>
      <trkpt lat="48.76791" lon="2.41023">
        <ele>40.20000076294</ele>
        <time>2015-11-02T21:13:49Z</time>
      </trkpt>
      <trkpt lat="48.76801" lon="2.41016">
        <ele>42.20000076294</ele>
        <time>2015-11-02T21:13:51Z</time>
      </trkpt>
      <trkpt lat="48.76818" lon="2.40995">
        <ele>45.599998474121</ele>
        <time>2015-11-02T21:13:55Z</time>
      </trkpt>
      <trkpt lat="48.76822" lon="2.40989">
        <ele>45.79999923706</ele>
        <time>2015-11-02T21:13:56Z</time>
      </trkpt>
      <trkpt lat="48.76828" lon="2.40976">
        <ele>46</ele>
        <time>2015-11-02T21:13:58Z</time>
      </trkpt>
      <trkpt lat="48.76837" lon="2.40949">
        <ele>45.20000076294</ele>
        <time>2015-11-02T21:14:02Z</time>
      </trkpt>
      <trkpt lat="48.76839" lon="2.40936">
        <ele>42.20000076294</ele>
        <time>2015-11-02T21:14:04Z</time>
      </trkpt>
      <trkpt lat="48.76841" lon="2.40924">
        <ele>42.20000076294</ele>
        <time>2015-11-02T21:14:06Z</time>
      </trkpt>
      <trkpt lat="48.76843" lon="2.40897">
        <ele>44.20000076294</ele>
        <time>2015-11-02T21:14:11Z</time>
      </trkpt>
      <trkpt lat="48.76847" lon="2.40873">
        <ele>46.79999923706</ele>
        <time>2015-11-02T21:14:19Z</time>
      </trkpt>
      <trkpt lat="48.76849" lon="2.40872">
        <ele>47.20000076294</ele>
        <time>2015-11-02T21:14:21Z</time>
      </trkpt>
      <trkpt lat="48.76857" lon="2.40887">
        <ele>48.79999923706</ele>
        <time>2015-11-02T21:14:29Z</time>
      </trkpt>
      <trkpt lat="48.76872" lon="2.40889">
        <ele>48.599998474121</ele>
        <time>2015-11-02T21:14:34Z</time>
      </trkpt>
      <trkpt lat="48.7689" lon="2.40888">
        <ele>49.20000076294</ele>
        <time>2015-11-02T21:14:39Z</time>
      </trkpt>
      <trkpt lat="48.76909" lon="2.40887">
        <ele>51.599998474121</ele>
        <time>2015-11-02T21:14:44Z</time>
      </trkpt>
      <trkpt lat="48.7693" lon="2.40885">
        <ele>51.599998474121</ele>
        <time>2015-11-02T21:14:49Z</time>
      </trkpt>
      <trkpt lat="48.76951" lon="2.40882">
        <ele>52.20000076294</ele>
        <time>2015-11-02T21:14:54Z</time>
      </trkpt>
      <trkpt lat="48.7697" lon="2.40892">
        <ele>36.79999923706</ele>
        <time>2015-11-02T21:14:57Z</time>
      </trkpt>
      <trkpt lat="48.7699" lon="2.40897">
        <ele>27.200000762939</ele>
        <time>2015-11-02T21:15:01Z</time>
      </trkpt>
      <trkpt lat="48.77011" lon="2.409">
        <ele>24.39999961853</ele>
        <time>2015-11-02T21:15:05Z</time>
      </trkpt>
      <trkpt lat="48.77031" lon="2.40902">
        <ele>22</ele>
        <time>2015-11-02T21:15:09Z</time>
      </trkpt>
      <trkpt lat="48.77049" lon="2.40904">
        <ele>23.799999237061</ele>
        <time>2015-11-02T21:15:13Z</time>
      </trkpt>
      <trkpt lat="48.7707" lon="2.40906">
        <ele>25.39999961853</ele>
        <time>2015-11-02T21:15:18Z</time>
      </trkpt>
      <trkpt lat="48.77083" lon="2.40905">
        <ele>32</ele>
        <time>2015-11-02T21:15:21Z</time>
      </trkpt>
      <trkpt lat="48.77101" lon="2.40906">
        <ele>36.400001525879</ele>
        <time>2015-11-02T21:15:25Z</time>
      </trkpt>
      <trkpt lat="48.77123" lon="2.4091">
        <ele>27.39999961853</ele>
        <time>2015-11-02T21:15:29Z</time>
      </trkpt>
      <trkpt lat="48.77141" lon="2.40911">
        <ele>25.799999237061</ele>
        <time>2015-11-02T21:15:33Z</time>
      </trkpt>
      <trkpt lat="48.77161" lon="2.40912">
        <ele>27.799999237061</ele>
        <time>2015-11-02T21:15:38Z</time>
      </trkpt>
      <trkpt lat="48.77181" lon="2.40914">
        <ele>29.799999237061</ele>
        <time>2015-11-02T21:15:42Z</time>
      </trkpt>
      <trkpt lat="48.77202" lon="2.40918">
        <ele>32.20000076294</ele>
        <time>2015-11-02T21:15:46Z</time>
      </trkpt>
      <trkpt lat="48.77217" lon="2.4092">
        <ele>35</ele>
        <time>2015-11-02T21:15:49Z</time>
      </trkpt>
      <trkpt lat="48.77235" lon="2.40919">
        <ele>43.79999923706</ele>
        <time>2015-11-02T21:15:53Z</time>
      </trkpt>
      <trkpt lat="48.77258" lon="2.4092">
        <ele>55.400001525879</ele>
        <time>2015-11-02T21:15:58Z</time>
      </trkpt>
      <trkpt lat="48.77276" lon="2.40924">
        <ele>59</ele>
        <time>2015-11-02T21:16:01Z</time>
      </trkpt>
      <trkpt lat="48.77294" lon="2.40929">
        <ele>57.400001525879</ele>
        <time>2015-11-02T21:16:04Z</time>
      </trkpt>
      <trkpt lat="48.77306" lon="2.40931">
        <ele>57</ele>
        <time>2015-11-02T21:16:06Z</time>
      </trkpt>
      <trkpt lat="48.77324" lon="2.40934">
        <ele>57.599998474121</ele>
        <time>2015-11-02T21:16:11Z</time>
      </trkpt>
      <trkpt lat="48.77337" lon="2.4094">
        <ele>54.599998474121</ele>
        <time>2015-11-02T21:16:15Z</time>
      </trkpt>
      <trkpt lat="48.77359" lon="2.40942">
        <ele>53.20000076294</ele>
        <time>2015-11-02T21:16:21Z</time>
      </trkpt>
      <trkpt lat="48.77381" lon="2.40939">
        <ele>54.599998474121</ele>
        <time>2015-11-02T21:16:26Z</time>
      </trkpt>
      <trkpt lat="48.77401" lon="2.40937">
        <ele>54.400001525879</ele>
        <time>2015-11-02T21:16:30Z</time>
      </trkpt>
      <trkpt lat="48.77422" lon="2.40932">
        <ele>55.599998474121</ele>
        <time>2015-11-02T21:16:34Z</time>
      </trkpt>
      <trkpt lat="48.7744" lon="2.40926">
        <ele>57.400001525879</ele>
        <time>2015-11-02T21:16:37Z</time>
      </trkpt>
      <trkpt lat="48.77461" lon="2.40923">
        <ele>61.400001525879</ele>
        <time>2015-11-02T21:16:41Z</time>
      </trkpt>
      <trkpt lat="48.77466" lon="2.40922">
        <ele>63</ele>
        <time>2015-11-02T21:16:42Z</time>
      </trkpt>
      <trkpt lat="48.77488" lon="2.4092">
        <ele>63.20000076294</ele>
        <time>2015-11-02T21:16:46Z</time>
      </trkpt>
      <trkpt lat="48.7751" lon="2.40915">
        <ele>65.400001525879</ele>
        <time>2015-11-02T21:16:50Z</time>
      </trkpt>
      <trkpt lat="48.77516" lon="2.40914">
        <ele>65.800003051758</ele>
        <time>2015-11-02T21:16:51Z</time>
      </trkpt>
      <trkpt lat="48.7754" lon="2.40912">
        <ele>65.800003051758</ele>
        <time>2015-11-02T21:16:55Z</time>
      </trkpt>
      <trkpt lat="48.77559" lon="2.40911">
        <ele>65.400001525879</ele>
        <time>2015-11-02T21:16:58Z</time>
      </trkpt>
      <trkpt lat="48.77577" lon="2.40909">
        <ele>64.599998474121</ele>
        <time>2015-11-02T21:17:01Z</time>
      </trkpt>
      <trkpt lat="48.77597" lon="2.40904">
        <ele>61.599998474121</ele>
        <time>2015-11-02T21:17:04Z</time>
      </trkpt>
      <trkpt lat="48.77617" lon="2.40896">
        <ele>59.20000076294</ele>
        <time>2015-11-02T21:17:07Z</time>
      </trkpt>
      <trkpt lat="48.77625" lon="2.40894">
        <ele>58.599998474121</ele>
        <time>2015-11-02T21:17:08Z</time>
      </trkpt>
      <trkpt lat="48.77648" lon="2.40887">
        <ele>56.599998474121</ele>
        <time>2015-11-02T21:17:11Z</time>
      </trkpt>
      <trkpt lat="48.77673" lon="2.40878">
        <ele>55.79999923706</ele>
        <time>2015-11-02T21:17:14Z</time>
      </trkpt>
      <trkpt lat="48.77698" lon="2.4087">
        <ele>54.599998474121</ele>
        <time>2015-11-02T21:17:17Z</time>
      </trkpt>
      <trkpt lat="48.77716" lon="2.40868">
        <ele>54.400001525879</ele>
        <time>2015-11-02T21:17:19Z</time>
      </trkpt>
      <trkpt lat="48.77735" lon="2.40867">
        <ele>46.400001525879</ele>
        <time>2015-11-02T21:17:21Z</time>
      </trkpt>
      <trkpt lat="48.77758" lon="2.4086">
        <ele>42</ele>
        <time>2015-11-02T21:17:24Z</time>
      </trkpt>
      <trkpt lat="48.7778" lon="2.40856">
        <ele>40.20000076294</ele>
        <time>2015-11-02T21:17:27Z</time>
      </trkpt>
      <trkpt lat="48.77793" lon="2.40854">
        <ele>39.400001525879</ele>
        <time>2015-11-02T21:17:29Z</time>
      </trkpt>
      <trkpt lat="48.77811" lon="2.40851">
        <ele>37.400001525879</ele>
        <time>2015-11-02T21:17:32Z</time>
      </trkpt>
      <trkpt lat="48.77833" lon="2.40847">
        <ele>34.79999923706</ele>
        <time>2015-11-02T21:17:36Z</time>
      </trkpt>
      <trkpt lat="48.77843" lon="2.40846">
        <ele>34.400001525879</ele>
        <time>2015-11-02T21:17:38Z</time>
      </trkpt>
      <trkpt lat="48.77861" lon="2.40841">
        <ele>37</ele>
        <time>2015-11-02T21:17:42Z</time>
      </trkpt>
      <trkpt lat="48.77865" lon="2.40839">
        <ele>38.599998474121</ele>
        <time>2015-11-02T21:17:43Z</time>
      </trkpt>
      <trkpt lat="48.77886" lon="2.40833">
        <ele>45</ele>
        <time>2015-11-02T21:17:48Z</time>
      </trkpt>
      <trkpt lat="48.779" lon="2.40828">
        <ele>46.599998474121</ele>
        <time>2015-11-02T21:17:51Z</time>
      </trkpt>
      <trkpt lat="48.77918" lon="2.4082">
        <ele>50</ele>
        <time>2015-11-02T21:17:55Z</time>
      </trkpt>
      <trkpt lat="48.77939" lon="2.40814">
        <ele>49.20000076294</ele>
        <time>2015-11-02T21:17:59Z</time>
      </trkpt>
      <trkpt lat="48.77962" lon="2.40807">
        <ele>49.599998474121</ele>
        <time>2015-11-02T21:18:03Z</time>
      </trkpt>
      <trkpt lat="48.77984" lon="2.40801">
        <ele>49.599998474121</ele>
        <time>2015-11-02T21:18:07Z</time>
      </trkpt>
      <trkpt lat="48.78002" lon="2.40798">
        <ele>47.79999923706</ele>
        <time>2015-11-02T21:18:10Z</time>
      </trkpt>
      <trkpt lat="48.78021" lon="2.40794">
        <ele>42.20000076294</ele>
        <time>2015-11-02T21:18:13Z</time>
      </trkpt>
      <trkpt lat="48.78041" lon="2.40789">
        <ele>38.79999923706</ele>
        <time>2015-11-02T21:18:16Z</time>
      </trkpt>
      <trkpt lat="48.78061" lon="2.40785">
        <ele>38.79999923706</ele>
        <time>2015-11-02T21:18:19Z</time>
      </trkpt>
      <trkpt lat="48.78082" lon="2.40783">
        <ele>38.20000076294</ele>
        <time>2015-11-02T21:18:22Z</time>
      </trkpt>
      <trkpt lat="48.78103" lon="2.40778">
        <ele>36.20000076294</ele>
        <time>2015-11-02T21:18:25Z</time>
      </trkpt>
      <trkpt lat="48.78122" lon="2.40773">
        <ele>34.20000076294</ele>
        <time>2015-11-02T21:18:28Z</time>
      </trkpt>
      <trkpt lat="48.78142" lon="2.40767">
        <ele>35.79999923706</ele>
        <time>2015-11-02T21:18:31Z</time>
      </trkpt>
      <trkpt lat="48.78162" lon="2.40763">
        <ele>36.20000076294</ele>
        <time>2015-11-02T21:18:34Z</time>
      </trkpt>
      <trkpt lat="48.78168" lon="2.40762">
        <ele>36.20000076294</ele>
        <time>2015-11-02T21:18:35Z</time>
      </trkpt>
      <trkpt lat="48.78187" lon="2.40757">
        <ele>36.400001525879</ele>
        <time>2015-11-02T21:18:38Z</time>
      </trkpt>
      <trkpt lat="48.78205" lon="2.40751">
        <ele>37.20000076294</ele>
        <time>2015-11-02T21:18:41Z</time>
      </trkpt>
      <trkpt lat="48.78224" lon="2.40746">
        <ele>39.400001525879</ele>
        <time>2015-11-02T21:18:44Z</time>
      </trkpt>
      <trkpt lat="48.78242" lon="2.40738">
        <ele>44.79999923706</ele>
        <time>2015-11-02T21:18:47Z</time>
      </trkpt>
      <trkpt lat="48.78265" lon="2.40731">
        <ele>48.400001525879</ele>
        <time>2015-11-02T21:18:51Z</time>
      </trkpt>
      <trkpt lat="48.78286" lon="2.40728">
        <ele>50.20000076294</ele>
        <time>2015-11-02T21:18:55Z</time>
      </trkpt>
      <trkpt lat="48.78299" lon="2.40727">
        <ele>52</ele>
        <time>2015-11-02T21:18:58Z</time>
      </trkpt>
      <trkpt lat="48.78315" lon="2.40731">
        <ele>54</ele>
        <time>2015-11-02T21:19:02Z</time>
      </trkpt>
      <trkpt lat="48.78319" lon="2.40734">
        <ele>54.400001525879</ele>
        <time>2015-11-02T21:19:03Z</time>
      </trkpt>
      <trkpt lat="48.78337" lon="2.40742">
        <ele>54.79999923706</ele>
        <time>2015-11-02T21:19:08Z</time>
      </trkpt>
      <trkpt lat="48.78353" lon="2.40741">
        <ele>52.599998474121</ele>
        <time>2015-11-02T21:19:13Z</time>
      </trkpt>
      <trkpt lat="48.7836" lon="2.40746">
        <ele>42</ele>
        <time>2015-11-02T21:19:17Z</time>
      </trkpt>
      <trkpt lat="48.78362" lon="2.4076">
        <ele>25.39999961853</ele>
        <time>2015-11-02T21:20:05Z</time>
      </trkpt>
      <trkpt lat="48.78382" lon="2.40767">
        <ele>26</ele>
        <time>2015-11-02T21:20:12Z</time>
      </trkpt>
      <trkpt lat="48.78402" lon="2.40773">
        <ele>26.799999237061</ele>
        <time>2015-11-02T21:20:17Z</time>
      </trkpt>
      <trkpt lat="48.78424" lon="2.4078">
        <ele>28.39999961853</ele>
        <time>2015-11-02T21:20:22Z</time>
      </trkpt>
      <trkpt lat="48.78445" lon="2.40788">
        <ele>28.799999237061</ele>
        <time>2015-11-02T21:20:27Z</time>
      </trkpt>
      <trkpt lat="48.78463" lon="2.40791">
        <ele>29.200000762939</ele>
        <time>2015-11-02T21:20:31Z</time>
      </trkpt>
      <trkpt lat="48.78482" lon="2.40787">
        <ele>33.79999923706</ele>
        <time>2015-11-02T21:20:35Z</time>
      </trkpt>
      <trkpt lat="48.78504" lon="2.40785">
        <ele>36</ele>
        <time>2015-11-02T21:20:39Z</time>
      </trkpt>
      <trkpt lat="48.78527" lon="2.40777">
        <ele>36.79999923706</ele>
        <time>2015-11-02T21:20:43Z</time>
      </trkpt>
      <trkpt lat="48.78544" lon="2.40769">
        <ele>38</ele>
        <time>2015-11-02T21:20:46Z</time>
      </trkpt>
      <trkpt lat="48.78562" lon="2.4076">
        <ele>38.599998474121</ele>
        <time>2015-11-02T21:20:49Z</time>
      </trkpt>
      <trkpt lat="48.7858" lon="2.4075">
        <ele>38.79999923706</ele>
        <time>2015-11-02T21:20:52Z</time>
      </trkpt>
      <trkpt lat="48.78599" lon="2.40739">
        <ele>38.599998474121</ele>
        <time>2015-11-02T21:20:55Z</time>
      </trkpt>
      <trkpt lat="48.78619" lon="2.40729">
        <ele>38.400001525879</ele>
        <time>2015-11-02T21:20:58Z</time>
      </trkpt>
      <trkpt lat="48.7864" lon="2.40718">
        <ele>36.400001525879</ele>
        <time>2015-11-02T21:21:01Z</time>
      </trkpt>
      <trkpt lat="48.78659" lon="2.40708">
        <ele>35.599998474121</ele>
        <time>2015-11-02T21:21:04Z</time>
      </trkpt>
      <trkpt lat="48.78678" lon="2.40699">
        <ele>35.20000076294</ele>
        <time>2015-11-02T21:21:07Z</time>
      </trkpt>
      <trkpt lat="48.78698" lon="2.40689">
        <ele>34.599998474121</ele>
        <time>2015-11-02T21:21:10Z</time>
      </trkpt>
      <trkpt lat="48.78716" lon="2.4068">
        <ele>35</ele>
        <time>2015-11-02T21:21:13Z</time>
      </trkpt>
      <trkpt lat="48.78729" lon="2.40676">
        <ele>35.599998474121</ele>
        <time>2015-11-02T21:21:16Z</time>
      </trkpt>
      <trkpt lat="48.78737" lon="2.40675">
        <ele>34.79999923706</ele>
        <time>2015-11-02T21:21:18Z</time>
      </trkpt>
      <trkpt lat="48.78751" lon="2.40671">
        <ele>33.400001525879</ele>
        <time>2015-11-02T21:21:22Z</time>
      </trkpt>
      <trkpt lat="48.78769" lon="2.40663">
        <ele>33.400001525879</ele>
        <time>2015-11-02T21:21:26Z</time>
      </trkpt>
      <trkpt lat="48.7879" lon="2.40654">
        <ele>31.200000762939</ele>
        <time>2015-11-02T21:21:30Z</time>
      </trkpt>
      <trkpt lat="48.78807" lon="2.40645">
        <ele>31.200000762939</ele>
        <time>2015-11-02T21:21:33Z</time>
      </trkpt>
      <trkpt lat="48.78823" lon="2.40638">
        <ele>31.200000762939</ele>
        <time>2015-11-02T21:21:36Z</time>
      </trkpt>
      <trkpt lat="48.78844" lon="2.40627">
        <ele>31.799999237061</ele>
        <time>2015-11-02T21:21:40Z</time>
      </trkpt>
      <trkpt lat="48.7885" lon="2.40624">
        <ele>31.799999237061</ele>
        <time>2015-11-02T21:21:41Z</time>
      </trkpt>
      <trkpt lat="48.78869" lon="2.40614">
        <ele>31.60000038147</ele>
        <time>2015-11-02T21:21:44Z</time>
      </trkpt>
      <trkpt lat="48.78888" lon="2.40604">
        <ele>31.60000038147</ele>
        <time>2015-11-02T21:21:47Z</time>
      </trkpt>
      <trkpt lat="48.78901" lon="2.40595">
        <ele>31.60000038147</ele>
        <time>2015-11-02T21:21:49Z</time>
      </trkpt>
      <trkpt lat="48.78922" lon="2.40579">
        <ele>31.200000762939</ele>
        <time>2015-11-02T21:21:52Z</time>
      </trkpt>
      <trkpt lat="48.78941" lon="2.40559">
        <ele>31.39999961853</ele>
        <time>2015-11-02T21:21:55Z</time>
      </trkpt>
      <trkpt lat="48.7896" lon="2.4054">
        <ele>30.60000038147</ele>
        <time>2015-11-02T21:21:58Z</time>
      </trkpt>
      <trkpt lat="48.78978" lon="2.40521">
        <ele>30</ele>
        <time>2015-11-02T21:22:01Z</time>
      </trkpt>
      <trkpt lat="48.78995" lon="2.40502">
        <ele>30</ele>
        <time>2015-11-02T21:22:04Z</time>
      </trkpt>
      <trkpt lat="48.79013" lon="2.40487">
        <ele>29.200000762939</ele>
        <time>2015-11-02T21:22:07Z</time>
      </trkpt>
      <trkpt lat="48.79031" lon="2.40474">
        <ele>29.60000038147</ele>
        <time>2015-11-02T21:22:10Z</time>
      </trkpt>
      <trkpt lat="48.79049" lon="2.40461">
        <ele>29.799999237061</ele>
        <time>2015-11-02T21:22:13Z</time>
      </trkpt>
      <trkpt lat="48.79066" lon="2.40449">
        <ele>30.39999961853</ele>
        <time>2015-11-02T21:22:16Z</time>
      </trkpt>
      <trkpt lat="48.79083" lon="2.40438">
        <ele>31.799999237061</ele>
        <time>2015-11-02T21:22:19Z</time>
      </trkpt>
      <trkpt lat="48.79104" lon="2.40422">
        <ele>32.599998474121</ele>
        <time>2015-11-02T21:22:23Z</time>
      </trkpt>
      <trkpt lat="48.79124" lon="2.40408">
        <ele>33.400001525879</ele>
        <time>2015-11-02T21:22:27Z</time>
      </trkpt>
      <trkpt lat="48.79141" lon="2.40398">
        <ele>33</ele>
        <time>2015-11-02T21:22:30Z</time>
      </trkpt>
      <trkpt lat="48.79159" lon="2.40386">
        <ele>32.20000076294</ele>
        <time>2015-11-02T21:22:33Z</time>
      </trkpt>
      <trkpt lat="48.79176" lon="2.40372">
        <ele>29.60000038147</ele>
        <time>2015-11-02T21:22:36Z</time>
      </trkpt>
      <trkpt lat="48.79193" lon="2.4036">
        <ele>29.200000762939</ele>
        <time>2015-11-02T21:22:39Z</time>
      </trkpt>
      <trkpt lat="48.79215" lon="2.40348">
        <ele>30</ele>
        <time>2015-11-02T21:22:43Z</time>
      </trkpt>
      <trkpt lat="48.79238" lon="2.40334">
        <ele>32</ele>
        <time>2015-11-02T21:22:47Z</time>
      </trkpt>
      <trkpt lat="48.79259" lon="2.40317">
        <ele>37.599998474121</ele>
        <time>2015-11-02T21:22:51Z</time>
      </trkpt>
      <trkpt lat="48.7928" lon="2.40303">
        <ele>40.599998474121</ele>
        <time>2015-11-02T21:22:55Z</time>
      </trkpt>
      <trkpt lat="48.79302" lon="2.40289">
        <ele>42.599998474121</ele>
        <time>2015-11-02T21:22:59Z</time>
      </trkpt>
      <trkpt lat="48.79323" lon="2.40275">
        <ele>44.400001525879</ele>
        <time>2015-11-02T21:23:03Z</time>
      </trkpt>
      <trkpt lat="48.79344" lon="2.40261">
        <ele>44.79999923706</ele>
        <time>2015-11-02T21:23:07Z</time>
      </trkpt>
      <trkpt lat="48.79363" lon="2.40248">
        <ele>46.79999923706</ele>
        <time>2015-11-02T21:23:11Z</time>
      </trkpt>
      <trkpt lat="48.7938" lon="2.40236">
        <ele>48.79999923706</ele>
        <time>2015-11-02T21:23:15Z</time>
      </trkpt>
      <trkpt lat="48.79397" lon="2.40225">
        <ele>51.20000076294</ele>
        <time>2015-11-02T21:23:19Z</time>
      </trkpt>
      <trkpt lat="48.79417" lon="2.40215">
        <ele>53.400001525879</ele>
        <time>2015-11-02T21:23:24Z</time>
      </trkpt>
      <trkpt lat="48.7943" lon="2.40221">
        <ele>53</ele>
        <time>2015-11-02T21:23:28Z</time>
      </trkpt>
      <trkpt lat="48.79438" lon="2.40225">
        <ele>53</ele>
        <time>2015-11-02T21:23:32Z</time>
      </trkpt>
      <trkpt lat="48.79436" lon="2.40225">
        <ele>50.79999923706</ele>
        <time>2015-11-02T21:23:40Z</time>
      </trkpt>
      <trkpt lat="48.79444" lon="2.4023">
        <ele>42</ele>
        <time>2015-11-02T21:24:52Z</time>
      </trkpt>
      <trkpt lat="48.7945" lon="2.40204">
        <ele>38</ele>
        <time>2015-11-02T21:25:07Z</time>
      </trkpt>
      <trkpt lat="48.79449" lon="2.40199">
        <ele>37.79999923706</ele>
        <time>2015-11-02T21:25:10Z</time>
      </trkpt>
      <trkpt lat="48.79444" lon="2.40198">
        <ele>35.599998474121</ele>
        <time>2015-11-02T21:25:23Z</time>
      </trkpt>
      <trkpt lat="48.7944" lon="2.40183">
        <ele>35</ele>
        <time>2015-11-02T21:25:27Z</time>
      </trkpt>
      <trkpt lat="48.79431" lon="2.40155">
        <ele>34</ele>
        <time>2015-11-02T21:25:34Z</time>
      </trkpt>
      <trkpt lat="48.79424" lon="2.40129">
        <ele>32.79999923706</ele>
        <time>2015-11-02T21:25:38Z</time>
      </trkpt>
      <trkpt lat="48.79415" lon="2.401">
        <ele>31.39999961853</ele>
        <time>2015-11-02T21:25:42Z</time>
      </trkpt>
      <trkpt lat="48.79408" lon="2.40071">
        <ele>29.799999237061</ele>
        <time>2015-11-02T21:25:46Z</time>
      </trkpt>
      <trkpt lat="48.79404" lon="2.40042">
        <ele>29.39999961853</ele>
        <time>2015-11-02T21:25:50Z</time>
      </trkpt>
      <trkpt lat="48.79399" lon="2.40013">
        <ele>28.60000038147</ele>
        <time>2015-11-02T21:25:54Z</time>
      </trkpt>
      <trkpt lat="48.79392" lon="2.39983">
        <ele>27.799999237061</ele>
        <time>2015-11-02T21:25:58Z</time>
      </trkpt>
      <trkpt lat="48.79387" lon="2.3995">
        <ele>26.799999237061</ele>
        <time>2015-11-02T21:26:02Z</time>
      </trkpt>
      <trkpt lat="48.79384" lon="2.39934">
        <ele>26.200000762939</ele>
        <time>2015-11-02T21:26:04Z</time>
      </trkpt>
      <trkpt lat="48.79378" lon="2.39901">
        <ele>24.39999961853</ele>
        <time>2015-11-02T21:26:08Z</time>
      </trkpt>
      <trkpt lat="48.79374" lon="2.39875">
        <ele>23.60000038147</ele>
        <time>2015-11-02T21:26:11Z</time>
      </trkpt>
      <trkpt lat="48.7937" lon="2.39841">
        <ele>22.39999961853</ele>
        <time>2015-11-02T21:26:15Z</time>
      </trkpt>
      <trkpt lat="48.79367" lon="2.39824">
        <ele>21.799999237061</ele>
        <time>2015-11-02T21:26:17Z</time>
      </trkpt>
      <trkpt lat="48.79363" lon="2.39799">
        <ele>21</ele>
        <time>2015-11-02T21:26:20Z</time>
      </trkpt>
      <trkpt lat="48.79361" lon="2.39782">
        <ele>21</ele>
        <time>2015-11-02T21:26:22Z</time>
      </trkpt>
      <trkpt lat="48.79353" lon="2.39749">
        <ele>21</ele>
        <time>2015-11-02T21:26:26Z</time>
      </trkpt>
      <trkpt lat="48.79346" lon="2.39715">
        <ele>22</ele>
        <time>2015-11-02T21:26:30Z</time>
      </trkpt>
      <trkpt lat="48.79339" lon="2.39681">
        <ele>22.200000762939</ele>
        <time>2015-11-02T21:26:34Z</time>
      </trkpt>
      <trkpt lat="48.79334" lon="2.39648">
        <ele>22.39999961853</ele>
        <time>2015-11-02T21:26:38Z</time>
      </trkpt>
      <trkpt lat="48.79331" lon="2.39641">
        <ele>22.200000762939</ele>
        <time>2015-11-02T21:26:39Z</time>
      </trkpt>
      <trkpt lat="48.79323" lon="2.39614">
        <ele>21.60000038147</ele>
        <time>2015-11-02T21:26:43Z</time>
      </trkpt>
      <trkpt lat="48.7932" lon="2.39597">
        <ele>22.39999961853</ele>
        <time>2015-11-02T21:26:46Z</time>
      </trkpt>
      <trkpt lat="48.79318" lon="2.39578">
        <ele>25.39999961853</ele>
        <time>2015-11-02T21:26:50Z</time>
      </trkpt>
      <trkpt lat="48.79318" lon="2.39559">
        <ele>26.60000038147</ele>
        <time>2015-11-02T21:26:54Z</time>
      </trkpt>
      <trkpt lat="48.79319" lon="2.39556">
        <ele>27.200000762939</ele>
        <time>2015-11-02T21:26:55Z</time>
      </trkpt>
      <trkpt lat="48.79306" lon="2.39537">
        <ele>33.20000076294</ele>
        <time>2015-11-02T21:27:18Z</time>
      </trkpt>
      <trkpt lat="48.79303" lon="2.39505">
        <ele>33.599998474121</ele>
        <time>2015-11-02T21:27:23Z</time>
      </trkpt>
      <trkpt lat="48.79302" lon="2.39472">
        <ele>33.20000076294</ele>
        <time>2015-11-02T21:27:27Z</time>
      </trkpt>
      <trkpt lat="48.79299" lon="2.39439">
        <ele>32.79999923706</ele>
        <time>2015-11-02T21:27:31Z</time>
      </trkpt>
      <trkpt lat="48.79297" lon="2.39412">
        <ele>32.599998474121</ele>
        <time>2015-11-02T21:27:34Z</time>
      </trkpt>
      <trkpt lat="48.79296" lon="2.39384">
        <ele>32</ele>
        <time>2015-11-02T21:27:37Z</time>
      </trkpt>
      <trkpt lat="48.79295" lon="2.3935">
        <ele>31</ele>
        <time>2015-11-02T21:27:41Z</time>
      </trkpt>
      <trkpt lat="48.79294" lon="2.39319">
        <ele>29.60000038147</ele>
        <time>2015-11-02T21:27:45Z</time>
      </trkpt>
      <trkpt lat="48.79292" lon="2.393">
        <ele>30</ele>
        <time>2015-11-02T21:27:48Z</time>
      </trkpt>
      <trkpt lat="48.7929" lon="2.39268">
        <ele>33.20000076294</ele>
        <time>2015-11-02T21:27:53Z</time>
      </trkpt>
      <trkpt lat="48.79289" lon="2.39261">
        <ele>33.79999923706</ele>
        <time>2015-11-02T21:27:54Z</time>
      </trkpt>
      <trkpt lat="48.79288" lon="2.39234">
        <ele>34</ele>
        <time>2015-11-02T21:27:58Z</time>
      </trkpt>
      <trkpt lat="48.79286" lon="2.39206">
        <ele>34.20000076294</ele>
        <time>2015-11-02T21:28:02Z</time>
      </trkpt>
      <trkpt lat="48.79285" lon="2.39178">
        <ele>34.400001525879</ele>
        <time>2015-11-02T21:28:06Z</time>
      </trkpt>
      <trkpt lat="48.79284" lon="2.3915">
        <ele>33.79999923706</ele>
        <time>2015-11-02T21:28:10Z</time>
      </trkpt>
      <trkpt lat="48.79282" lon="2.39119">
        <ele>34.400001525879</ele>
        <time>2015-11-02T21:28:15Z</time>
      </trkpt>
      <trkpt lat="48.79281" lon="2.39105">
        <ele>34.20000076294</ele>
        <time>2015-11-02T21:28:17Z</time>
      </trkpt>
      <trkpt lat="48.7928" lon="2.39076">
        <ele>32.599998474121</ele>
        <time>2015-11-02T21:28:21Z</time>
      </trkpt>
      <trkpt lat="48.79278" lon="2.39044">
        <ele>32.599998474121</ele>
        <time>2015-11-02T21:28:25Z</time>
      </trkpt>
      <trkpt lat="48.79276" lon="2.39018">
        <ele>32.79999923706</ele>
        <time>2015-11-02T21:28:28Z</time>
      </trkpt>
      <trkpt lat="48.79273" lon="2.38993">
        <ele>34</ele>
        <time>2015-11-02T21:28:31Z</time>
      </trkpt>
      <trkpt lat="48.79272" lon="2.38957">
        <ele>35.400001525879</ele>
        <time>2015-11-02T21:28:35Z</time>
      </trkpt>
      <trkpt lat="48.79271" lon="2.38939">
        <ele>36.400001525879</ele>
        <time>2015-11-02T21:28:37Z</time>
      </trkpt>
      <trkpt lat="48.7927" lon="2.38922">
        <ele>37.400001525879</ele>
        <time>2015-11-02T21:28:39Z</time>
      </trkpt>
      <trkpt lat="48.79268" lon="2.38889">
        <ele>39.599998474121</ele>
        <time>2015-11-02T21:28:43Z</time>
      </trkpt>
      <trkpt lat="48.79266" lon="2.38861">
        <ele>41</ele>
        <time>2015-11-02T21:28:47Z</time>
      </trkpt>
      <trkpt lat="48.79265" lon="2.38847">
        <ele>41.79999923706</ele>
        <time>2015-11-02T21:28:49Z</time>
      </trkpt>
      <trkpt lat="48.79264" lon="2.3882">
        <ele>44.599998474121</ele>
        <time>2015-11-02T21:28:53Z</time>
      </trkpt>
      <trkpt lat="48.79261" lon="2.38788">
        <ele>47.20000076294</ele>
        <time>2015-11-02T21:28:58Z</time>
      </trkpt>
      <trkpt lat="48.79258" lon="2.3876">
        <ele>50.20000076294</ele>
        <time>2015-11-02T21:29:03Z</time>
      </trkpt>
      <trkpt lat="48.79258" lon="2.38755">
        <ele>50.79999923706</ele>
        <time>2015-11-02T21:29:04Z</time>
      </trkpt>
      <trkpt lat="48.79255" lon="2.38724">
        <ele>52.599998474121</ele>
        <time>2015-11-02T21:29:11Z</time>
      </trkpt>
      <trkpt lat="48.79256" lon="2.38708">
        <ele>53</ele>
        <time>2015-11-02T21:29:15Z</time>
      </trkpt>
      <trkpt lat="48.7926" lon="2.38692">
        <ele>51.599998474121</ele>
        <time>2015-11-02T21:29:20Z</time>
      </trkpt>
      <trkpt lat="48.79264" lon="2.3868">
        <ele>51.599998474121</ele>
        <time>2015-11-02T21:29:25Z</time>
      </trkpt>
      <trkpt lat="48.79266" lon="2.3867">
        <ele>51.79999923706</ele>
        <time>2015-11-02T21:29:29Z</time>
      </trkpt>
      <trkpt lat="48.79269" lon="2.38664">
        <ele>51.79999923706</ele>
        <time>2015-11-02T21:29:33Z</time>
      </trkpt>
      <trkpt lat="48.7927" lon="2.3866">
        <ele>51.400001525879</ele>
        <time>2015-11-02T21:29:35Z</time>
      </trkpt>
      <trkpt lat="48.79271" lon="2.38656">
        <ele>48</ele>
        <time>2015-11-02T21:31:04Z</time>
      </trkpt>
      <trkpt lat="48.79287" lon="2.38639">
        <ele>48</ele>
        <time>2015-11-02T21:31:10Z</time>
      </trkpt>
      <trkpt lat="48.79304" lon="2.38625">
        <ele>48.599998474121</ele>
        <time>2015-11-02T21:31:14Z</time>
      </trkpt>
      <trkpt lat="48.79323" lon="2.38607">
        <ele>49</ele>
        <time>2015-11-02T21:31:18Z</time>
      </trkpt>
      <trkpt lat="48.79343" lon="2.38588">
        <ele>50.20000076294</ele>
        <time>2015-11-02T21:31:22Z</time>
      </trkpt>
      <trkpt lat="48.79362" lon="2.38571">
        <ele>50.599998474121</ele>
        <time>2015-11-02T21:31:26Z</time>
      </trkpt>
      <trkpt lat="48.79381" lon="2.38554">
        <ele>50.20000076294</ele>
        <time>2015-11-02T21:31:30Z</time>
      </trkpt>
      <trkpt lat="48.794" lon="2.38536">
        <ele>52.20000076294</ele>
        <time>2015-11-02T21:31:34Z</time>
      </trkpt>
      <trkpt lat="48.7942" lon="2.38517">
        <ele>52.599998474121</ele>
        <time>2015-11-02T21:31:38Z</time>
      </trkpt>
      <trkpt lat="48.79438" lon="2.385">
        <ele>53.79999923706</ele>
        <time>2015-11-02T21:31:42Z</time>
      </trkpt>
      <trkpt lat="48.79456" lon="2.38484">
        <ele>55.400001525879</ele>
        <time>2015-11-02T21:31:46Z</time>
      </trkpt>
      <trkpt lat="48.79473" lon="2.38468">
        <ele>57</ele>
        <time>2015-11-02T21:31:50Z</time>
      </trkpt>
      <trkpt lat="48.7949" lon="2.38454">
        <ele>58.599998474121</ele>
        <time>2015-11-02T21:31:54Z</time>
      </trkpt>
      <trkpt lat="48.79508" lon="2.38441">
        <ele>61</ele>
        <time>2015-11-02T21:31:58Z</time>
      </trkpt>
      <trkpt lat="48.79527" lon="2.38428">
        <ele>63</ele>
        <time>2015-11-02T21:32:02Z</time>
      </trkpt>
      <trkpt lat="48.79544" lon="2.38415">
        <ele>64.800003051758</ele>
        <time>2015-11-02T21:32:06Z</time>
      </trkpt>
      <trkpt lat="48.79559" lon="2.38399">
        <ele>69</ele>
        <time>2015-11-02T21:32:10Z</time>
      </trkpt>
      <trkpt lat="48.79574" lon="2.38381">
        <ele>74.599998474121</ele>
        <time>2015-11-02T21:32:14Z</time>
      </trkpt>
      <trkpt lat="48.79587" lon="2.38373">
        <ele>76.800003051758</ele>
        <time>2015-11-02T21:32:17Z</time>
      </trkpt>
      <trkpt lat="48.79602" lon="2.3836">
        <ele>79.800003051758</ele>
        <time>2015-11-02T21:32:21Z</time>
      </trkpt>
      <trkpt lat="48.79616" lon="2.3835">
        <ele>78.199996948242</ele>
        <time>2015-11-02T21:32:25Z</time>
      </trkpt>
      <trkpt lat="48.79632" lon="2.38335">
        <ele>79.400001525879</ele>
        <time>2015-11-02T21:32:29Z</time>
      </trkpt>
      <trkpt lat="48.79651" lon="2.3832">
        <ele>81</ele>
        <time>2015-11-02T21:32:33Z</time>
      </trkpt>
      <trkpt lat="48.79671" lon="2.38303">
        <ele>82.199996948242</ele>
        <time>2015-11-02T21:32:37Z</time>
      </trkpt>
      <trkpt lat="48.79692" lon="2.38287">
        <ele>83.400001525879</ele>
        <time>2015-11-02T21:32:41Z</time>
      </trkpt>
      <trkpt lat="48.79708" lon="2.38274">
        <ele>83.800003051758</ele>
        <time>2015-11-02T21:32:44Z</time>
      </trkpt>
      <trkpt lat="48.79726" lon="2.38261">
        <ele>82</ele>
        <time>2015-11-02T21:32:47Z</time>
      </trkpt>
      <trkpt lat="48.79744" lon="2.38247">
        <ele>81.599998474121</ele>
        <time>2015-11-02T21:32:50Z</time>
      </trkpt>
      <trkpt lat="48.7976" lon="2.38232">
        <ele>80.800003051758</ele>
        <time>2015-11-02T21:32:53Z</time>
      </trkpt>
      <trkpt lat="48.79777" lon="2.38218">
        <ele>80.400001525879</ele>
        <time>2015-11-02T21:32:56Z</time>
      </trkpt>
      <trkpt lat="48.79788" lon="2.38209">
        <ele>80.599998474121</ele>
        <time>2015-11-02T21:32:58Z</time>
      </trkpt>
      <trkpt lat="48.79805" lon="2.38197">
        <ele>81.400001525879</ele>
        <time>2015-11-02T21:33:01Z</time>
      </trkpt>
      <trkpt lat="48.79826" lon="2.38181">
        <ele>83.199996948242</ele>
        <time>2015-11-02T21:33:05Z</time>
      </trkpt>
      <trkpt lat="48.79846" lon="2.38164">
        <ele>81</ele>
        <time>2015-11-02T21:33:09Z</time>
      </trkpt>
      <trkpt lat="48.79863" lon="2.38152">
        <ele>78.800003051758</ele>
        <time>2015-11-02T21:33:12Z</time>
      </trkpt>
      <trkpt lat="48.79879" lon="2.3814">
        <ele>76.400001525879</ele>
        <time>2015-11-02T21:33:15Z</time>
      </trkpt>
      <trkpt lat="48.79896" lon="2.38126">
        <ele>75</ele>
        <time>2015-11-02T21:33:18Z</time>
      </trkpt>
      <trkpt lat="48.79913" lon="2.38112">
        <ele>75.800003051758</ele>
        <time>2015-11-02T21:33:21Z</time>
      </trkpt>
      <trkpt lat="48.7993" lon="2.38099">
        <ele>75.599998474121</ele>
        <time>2015-11-02T21:33:24Z</time>
      </trkpt>
      <trkpt lat="48.79948" lon="2.38085">
        <ele>74.599998474121</ele>
        <time>2015-11-02T21:33:27Z</time>
      </trkpt>
      <trkpt lat="48.79966" lon="2.38072">
        <ele>73.599998474121</ele>
        <time>2015-11-02T21:33:30Z</time>
      </trkpt>
      <trkpt lat="48.79983" lon="2.3806">
        <ele>72.800003051758</ele>
        <time>2015-11-02T21:33:33Z</time>
      </trkpt>
      <trkpt lat="48.8" lon="2.38047">
        <ele>72</ele>
        <time>2015-11-02T21:33:36Z</time>
      </trkpt>
      <trkpt lat="48.8001" lon="2.38037">
        <ele>74.800003051758</ele>
        <time>2015-11-02T21:33:38Z</time>
      </trkpt>
      <trkpt lat="48.80029" lon="2.38016">
        <ele>81</ele>
        <time>2015-11-02T21:33:42Z</time>
      </trkpt>
      <trkpt lat="48.80048" lon="2.37997">
        <ele>83.599998474121</ele>
        <time>2015-11-02T21:33:46Z</time>
      </trkpt>
      <trkpt lat="48.80064" lon="2.37981">
        <ele>83.599998474121</ele>
        <time>2015-11-02T21:33:49Z</time>
      </trkpt>
      <trkpt lat="48.80079" lon="2.37965">
        <ele>83.199996948242</ele>
        <time>2015-11-02T21:33:52Z</time>
      </trkpt>
      <trkpt lat="48.80094" lon="2.37949">
        <ele>83.400001525879</ele>
        <time>2015-11-02T21:33:55Z</time>
      </trkpt>
      <trkpt lat="48.80111" lon="2.37935">
        <ele>81.400001525879</ele>
        <time>2015-11-02T21:33:58Z</time>
      </trkpt>
      <trkpt lat="48.80129" lon="2.3792">
        <ele>78.800003051758</ele>
        <time>2015-11-02T21:34:02Z</time>
      </trkpt>
      <trkpt lat="48.80146" lon="2.37913">
        <ele>75.199996948242</ele>
        <time>2015-11-02T21:34:08Z</time>
      </trkpt>
      <trkpt lat="48.80153" lon="2.37908">
        <ele>74.400001525879</ele>
        <time>2015-11-02T21:34:10Z</time>
      </trkpt>
      <trkpt lat="48.80165" lon="2.379">
        <ele>72.800003051758</ele>
        <time>2015-11-02T21:34:13Z</time>
      </trkpt>
      <trkpt lat="48.80182" lon="2.37886">
        <ele>71</ele>
        <time>2015-11-02T21:34:17Z</time>
      </trkpt>
      <trkpt lat="48.80201" lon="2.37872">
        <ele>71.199996948242</ele>
        <time>2015-11-02T21:34:21Z</time>
      </trkpt>
      <trkpt lat="48.8022" lon="2.37856">
        <ele>72.400001525879</ele>
        <time>2015-11-02T21:34:25Z</time>
      </trkpt>
      <trkpt lat="48.80241" lon="2.3784">
        <ele>74.599998474121</ele>
        <time>2015-11-02T21:34:29Z</time>
      </trkpt>
      <trkpt lat="48.80259" lon="2.37825">
        <ele>76.800003051758</ele>
        <time>2015-11-02T21:34:32Z</time>
      </trkpt>
      <trkpt lat="48.80277" lon="2.37811">
        <ele>78.199996948242</ele>
        <time>2015-11-02T21:34:35Z</time>
      </trkpt>
      <trkpt lat="48.80288" lon="2.37801">
        <ele>78.599998474121</ele>
        <time>2015-11-02T21:34:37Z</time>
      </trkpt>
      <trkpt lat="48.80307" lon="2.37786">
        <ele>79.800003051758</ele>
        <time>2015-11-02T21:34:40Z</time>
      </trkpt>
      <trkpt lat="48.80324" lon="2.37773">
        <ele>80.599998474121</ele>
        <time>2015-11-02T21:34:43Z</time>
      </trkpt>
      <trkpt lat="48.80342" lon="2.37759">
        <ele>81.199996948242</ele>
        <time>2015-11-02T21:34:46Z</time>
      </trkpt>
      <trkpt lat="48.80359" lon="2.37747">
        <ele>81.599998474121</ele>
        <time>2015-11-02T21:34:49Z</time>
      </trkpt>
      <trkpt lat="48.80377" lon="2.37732">
        <ele>81</ele>
        <time>2015-11-02T21:34:53Z</time>
      </trkpt>
      <trkpt lat="48.80394" lon="2.37717">
        <ele>82.599998474121</ele>
        <time>2015-11-02T21:34:57Z</time>
      </trkpt>
      <trkpt lat="48.80412" lon="2.37702">
        <ele>83.800003051758</ele>
        <time>2015-11-02T21:35:01Z</time>
      </trkpt>
      <trkpt lat="48.8043" lon="2.37687">
        <ele>84.599998474121</ele>
        <time>2015-11-02T21:35:05Z</time>
      </trkpt>
      <trkpt lat="48.80449" lon="2.37673">
        <ele>85.400001525879</ele>
        <time>2015-11-02T21:35:09Z</time>
      </trkpt>
      <trkpt lat="48.80467" lon="2.37657">
        <ele>86.800003051758</ele>
        <time>2015-11-02T21:35:13Z</time>
      </trkpt>
      <trkpt lat="48.80487" lon="2.37642">
        <ele>87.800003051758</ele>
        <time>2015-11-02T21:35:17Z</time>
      </trkpt>
      <trkpt lat="48.80507" lon="2.37627">
        <ele>88.800003051758</ele>
        <time>2015-11-02T21:35:21Z</time>
      </trkpt>
      <trkpt lat="48.80528" lon="2.37612">
        <ele>90.199996948242</ele>
        <time>2015-11-02T21:35:25Z</time>
      </trkpt>
      <trkpt lat="48.80544" lon="2.37599">
        <ele>90.199996948242</ele>
        <time>2015-11-02T21:35:28Z</time>
      </trkpt>
      <trkpt lat="48.80562" lon="2.37587">
        <ele>85.800003051758</ele>
        <time>2015-11-02T21:35:31Z</time>
      </trkpt>
      <trkpt lat="48.80579" lon="2.37576">
        <ele>81.199996948242</ele>
        <time>2015-11-02T21:35:34Z</time>
      </trkpt>
      <trkpt lat="48.80596" lon="2.37565">
        <ele>77.199996948242</ele>
        <time>2015-11-02T21:35:37Z</time>
      </trkpt>
      <trkpt lat="48.80617" lon="2.37552">
        <ele>76</ele>
        <time>2015-11-02T21:35:41Z</time>
      </trkpt>
      <trkpt lat="48.80638" lon="2.37539">
        <ele>73.599998474121</ele>
        <time>2015-11-02T21:35:45Z</time>
      </trkpt>
      <trkpt lat="48.80643" lon="2.37535">
        <ele>73.800003051758</ele>
        <time>2015-11-02T21:35:46Z</time>
      </trkpt>
      <trkpt lat="48.80662" lon="2.37522">
        <ele>76.800003051758</ele>
        <time>2015-11-02T21:35:50Z</time>
      </trkpt>
      <trkpt lat="48.80672" lon="2.37517">
        <ele>76.800003051758</ele>
        <time>2015-11-02T21:35:52Z</time>
      </trkpt>
      <trkpt lat="48.80684" lon="2.37508">
        <ele>77.400001525879</ele>
        <time>2015-11-02T21:35:55Z</time>
      </trkpt>
      <trkpt lat="48.80703" lon="2.37496">
        <ele>79</ele>
        <time>2015-11-02T21:36:00Z</time>
      </trkpt>
      <trkpt lat="48.80722" lon="2.37482">
        <ele>77.400001525879</ele>
        <time>2015-11-02T21:36:05Z</time>
      </trkpt>
      <trkpt lat="48.8074" lon="2.37465">
        <ele>78.800003051758</ele>
        <time>2015-11-02T21:36:10Z</time>
      </trkpt>
      <trkpt lat="48.80748" lon="2.37459">
        <ele>78.599998474121</ele>
        <time>2015-11-02T21:36:12Z</time>
      </trkpt>
      <trkpt lat="48.80765" lon="2.37446">
        <ele>78.400001525879</ele>
        <time>2015-11-02T21:36:16Z</time>
      </trkpt>
      <trkpt lat="48.80783" lon="2.37433">
        <ele>77.199996948242</ele>
        <time>2015-11-02T21:36:20Z</time>
      </trkpt>
      <trkpt lat="48.80803" lon="2.37418">
        <ele>76.199996948242</ele>
        <time>2015-11-02T21:36:24Z</time>
      </trkpt>
      <trkpt lat="48.80822" lon="2.37403">
        <ele>76.599998474121</ele>
        <time>2015-11-02T21:36:28Z</time>
      </trkpt>
      <trkpt lat="48.80843" lon="2.37385">
        <ele>75</ele>
        <time>2015-11-02T21:36:32Z</time>
      </trkpt>
      <trkpt lat="48.80855" lon="2.37376">
        <ele>74</ele>
        <time>2015-11-02T21:36:34Z</time>
      </trkpt>
      <trkpt lat="48.80873" lon="2.37363">
        <ele>73.599998474121</ele>
        <time>2015-11-02T21:36:37Z</time>
      </trkpt>
      <trkpt lat="48.80879" lon="2.37359">
        <ele>73.400001525879</ele>
        <time>2015-11-02T21:36:38Z</time>
      </trkpt>
      <trkpt lat="48.80895" lon="2.37346">
        <ele>71.800003051758</ele>
        <time>2015-11-02T21:36:41Z</time>
      </trkpt>
      <trkpt lat="48.80912" lon="2.37334">
        <ele>70.599998474121</ele>
        <time>2015-11-02T21:36:44Z</time>
      </trkpt>
      <trkpt lat="48.80928" lon="2.37322">
        <ele>70.599998474121</ele>
        <time>2015-11-02T21:36:47Z</time>
      </trkpt>
      <trkpt lat="48.80946" lon="2.37308">
        <ele>70.599998474121</ele>
        <time>2015-11-02T21:36:50Z</time>
      </trkpt>
      <trkpt lat="48.80963" lon="2.37295">
        <ele>70.400001525879</ele>
        <time>2015-11-02T21:36:53Z</time>
      </trkpt>
      <trkpt lat="48.80982" lon="2.37281">
        <ele>68.800003051758</ele>
        <time>2015-11-02T21:36:56Z</time>
      </trkpt>
      <trkpt lat="48.81" lon="2.37267">
        <ele>68.400001525879</ele>
        <time>2015-11-02T21:36:59Z</time>
      </trkpt>
      <trkpt lat="48.81018" lon="2.37251">
        <ele>67.599998474121</ele>
        <time>2015-11-02T21:37:02Z</time>
      </trkpt>
      <trkpt lat="48.81037" lon="2.37237">
        <ele>67</ele>
        <time>2015-11-02T21:37:05Z</time>
      </trkpt>
      <trkpt lat="48.81056" lon="2.37223">
        <ele>65</ele>
        <time>2015-11-02T21:37:08Z</time>
      </trkpt>
      <trkpt lat="48.81075" lon="2.37209">
        <ele>64</ele>
        <time>2015-11-02T21:37:11Z</time>
      </trkpt>
      <trkpt lat="48.81093" lon="2.37196">
        <ele>63</ele>
        <time>2015-11-02T21:37:14Z</time>
      </trkpt>
      <trkpt lat="48.81112" lon="2.37183">
        <ele>62</ele>
        <time>2015-11-02T21:37:17Z</time>
      </trkpt>
      <trkpt lat="48.8113" lon="2.37168">
        <ele>61.599998474121</ele>
        <time>2015-11-02T21:37:20Z</time>
      </trkpt>
      <trkpt lat="48.81149" lon="2.37154">
        <ele>61.79999923706</ele>
        <time>2015-11-02T21:37:23Z</time>
      </trkpt>
      <trkpt lat="48.81168" lon="2.3714">
        <ele>61.599998474121</ele>
        <time>2015-11-02T21:37:26Z</time>
      </trkpt>
      <trkpt lat="48.81186" lon="2.37125">
        <ele>61.79999923706</ele>
        <time>2015-11-02T21:37:29Z</time>
      </trkpt>
      <trkpt lat="48.81203" lon="2.37112">
        <ele>61.400001525879</ele>
        <time>2015-11-02T21:37:32Z</time>
      </trkpt>
      <trkpt lat="48.81219" lon="2.37101">
        <ele>60.79999923706</ele>
        <time>2015-11-02T21:37:35Z</time>
      </trkpt>
      <trkpt lat="48.81239" lon="2.37085">
        <ele>60.400001525879</ele>
        <time>2015-11-02T21:37:39Z</time>
      </trkpt>
      <trkpt lat="48.81257" lon="2.37068">
        <ele>60</ele>
        <time>2015-11-02T21:37:43Z</time>
      </trkpt>
      <trkpt lat="48.81274" lon="2.37054">
        <ele>59.599998474121</ele>
        <time>2015-11-02T21:37:47Z</time>
      </trkpt>
      <trkpt lat="48.81292" lon="2.3704">
        <ele>59</ele>
        <time>2015-11-02T21:37:52Z</time>
      </trkpt>
      <trkpt lat="48.81309" lon="2.37026">
        <ele>58.599998474121</ele>
        <time>2015-11-02T21:37:57Z</time>
      </trkpt>
      <trkpt lat="48.81325" lon="2.37015">
        <ele>58.400001525879</ele>
        <time>2015-11-02T21:38:01Z</time>
      </trkpt>
      <trkpt lat="48.81342" lon="2.37001">
        <ele>58.79999923706</ele>
        <time>2015-11-02T21:38:05Z</time>
      </trkpt>
      <trkpt lat="48.81361" lon="2.36986">
        <ele>59.79999923706</ele>
        <time>2015-11-02T21:38:09Z</time>
      </trkpt>
      <trkpt lat="48.81378" lon="2.36971">
        <ele>59.79999923706</ele>
        <time>2015-11-02T21:38:12Z</time>
      </trkpt>
      <trkpt lat="48.81396" lon="2.36956">
        <ele>59.79999923706</ele>
        <time>2015-11-02T21:38:15Z</time>
      </trkpt>
      <trkpt lat="48.81416" lon="2.3694">
        <ele>59</ele>
        <time>2015-11-02T21:38:18Z</time>
      </trkpt>
      <trkpt lat="48.81435" lon="2.36924">
        <ele>58</ele>
        <time>2015-11-02T21:38:21Z</time>
      </trkpt>
      <trkpt lat="48.81454" lon="2.36908">
        <ele>57</ele>
        <time>2015-11-02T21:38:24Z</time>
      </trkpt>
      <trkpt lat="48.81474" lon="2.36893">
        <ele>57.599998474121</ele>
        <time>2015-11-02T21:38:27Z</time>
      </trkpt>
      <trkpt lat="48.81492" lon="2.3688">
        <ele>56.599998474121</ele>
        <time>2015-11-02T21:38:30Z</time>
      </trkpt>
      <trkpt lat="48.81511" lon="2.36865">
        <ele>55.20000076294</ele>
        <time>2015-11-02T21:38:33Z</time>
      </trkpt>
      <trkpt lat="48.8153" lon="2.36851">
        <ele>54.79999923706</ele>
        <time>2015-11-02T21:38:36Z</time>
      </trkpt>
      <trkpt lat="48.81536" lon="2.36847">
        <ele>55.400001525879</ele>
        <time>2015-11-02T21:38:37Z</time>
      </trkpt>
      <trkpt lat="48.81555" lon="2.36834">
        <ele>55.400001525879</ele>
        <time>2015-11-02T21:38:40Z</time>
      </trkpt>
      <trkpt lat="48.81572" lon="2.36819">
        <ele>55</ele>
        <time>2015-11-02T21:38:43Z</time>
      </trkpt>
      <trkpt lat="48.81589" lon="2.36803">
        <ele>54.20000076294</ele>
        <time>2015-11-02T21:38:46Z</time>
      </trkpt>
      <trkpt lat="48.81606" lon="2.36787">
        <ele>54.599998474121</ele>
        <time>2015-11-02T21:38:49Z</time>
      </trkpt>
      <trkpt lat="48.81623" lon="2.36773">
        <ele>54.79999923706</ele>
        <time>2015-11-02T21:38:52Z</time>
      </trkpt>
      <trkpt lat="48.81641" lon="2.36759">
        <ele>55</ele>
        <time>2015-11-02T21:38:55Z</time>
      </trkpt>
      <trkpt lat="48.81657" lon="2.36743">
        <ele>55.599998474121</ele>
        <time>2015-11-02T21:38:58Z</time>
      </trkpt>
      <trkpt lat="48.81675" lon="2.36729">
        <ele>57.400001525879</ele>
        <time>2015-11-02T21:39:01Z</time>
      </trkpt>
      <trkpt lat="48.81692" lon="2.36716">
        <ele>58.599998474121</ele>
        <time>2015-11-02T21:39:04Z</time>
      </trkpt>
      <trkpt lat="48.81711" lon="2.36701">
        <ele>59</ele>
        <time>2015-11-02T21:39:08Z</time>
      </trkpt>
      <trkpt lat="48.8173" lon="2.36688">
        <ele>59.20000076294</ele>
        <time>2015-11-02T21:39:13Z</time>
      </trkpt>
      <trkpt lat="48.8175" lon="2.36674">
        <ele>60</ele>
        <time>2015-11-02T21:39:18Z</time>
      </trkpt>
      <trkpt lat="48.81767" lon="2.3666">
        <ele>58.20000076294</ele>
        <time>2015-11-02T21:39:23Z</time>
      </trkpt>
      <trkpt lat="48.81786" lon="2.36646">
        <ele>56.599998474121</ele>
        <time>2015-11-02T21:39:28Z</time>
      </trkpt>
      <trkpt lat="48.81804" lon="2.36633">
        <ele>55.599998474121</ele>
        <time>2015-11-02T21:39:33Z</time>
      </trkpt>
      <trkpt lat="48.81821" lon="2.36619">
        <ele>54.599998474121</ele>
        <time>2015-11-02T21:39:39Z</time>
      </trkpt>
      <trkpt lat="48.81838" lon="2.36602">
        <ele>56.20000076294</ele>
        <time>2015-11-02T21:39:45Z</time>
      </trkpt>
      <trkpt lat="48.81844" lon="2.36595">
        <ele>56.79999923706</ele>
        <time>2015-11-02T21:39:47Z</time>
      </trkpt>
      <trkpt lat="48.8186" lon="2.3658">
        <ele>58.20000076294</ele>
        <time>2015-11-02T21:39:53Z</time>
      </trkpt>
      <trkpt lat="48.81876" lon="2.36563">
        <ele>61.79999923706</ele>
        <time>2015-11-02T21:39:59Z</time>
      </trkpt>
      <trkpt lat="48.81894" lon="2.36549">
        <ele>63.400001525879</ele>
        <time>2015-11-02T21:40:07Z</time>
      </trkpt>
      <trkpt lat="48.81913" lon="2.36536">
        <ele>65.199996948242</ele>
        <time>2015-11-02T21:40:14Z</time>
      </trkpt>
      <trkpt lat="48.8193" lon="2.36524">
        <ele>68</ele>
        <time>2015-11-02T21:40:20Z</time>
      </trkpt>
      <trkpt lat="48.81945" lon="2.36508">
        <ele>71.800003051758</ele>
        <time>2015-11-02T21:40:26Z</time>
      </trkpt>
      <trkpt lat="48.81963" lon="2.36494">
        <ele>78.199996948242</ele>
        <time>2015-11-02T21:40:33Z</time>
      </trkpt>
      <trkpt lat="48.81977" lon="2.36476">
        <ele>80.199996948242</ele>
        <time>2015-11-02T21:40:41Z</time>
      </trkpt>
      <trkpt lat="48.81976" lon="2.36476">
        <ele>80.199996948242</ele>
        <time>2015-11-02T21:40:43Z</time>
      </trkpt>
      <trkpt lat="48.8198" lon="2.36476">
        <ele>77.400001525879</ele>
        <time>2015-11-02T21:40:53Z</time>
      </trkpt>
      <trkpt lat="48.81995" lon="2.36475">
        <ele>73.199996948242</ele>
        <time>2015-11-02T21:41:07Z</time>
      </trkpt>
      <trkpt lat="48.82" lon="2.36476">
        <ele>71.199996948242</ele>
        <time>2015-11-02T21:41:26Z</time>
      </trkpt>
      <trkpt lat="48.81987" lon="2.36493">
        <ele>66.599998474121</ele>
        <time>2015-11-02T21:42:09Z</time>
      </trkpt>
      <trkpt lat="48.81983" lon="2.36493">
        <ele>69.199996948242</ele>
        <time>2015-11-02T21:42:49Z</time>
      </trkpt>
      <trkpt lat="48.81987" lon="2.36488">
        <ele>67</ele>
        <time>2015-11-02T21:43:48Z</time>
      </trkpt>
      <trkpt lat="48.82004" lon="2.36479">
        <ele>66</ele>
        <time>2015-11-02T21:43:58Z</time>
      </trkpt>
      <trkpt lat="48.8202" lon="2.36465">
        <ele>67.400001525879</ele>
        <time>2015-11-02T21:44:11Z</time>
      </trkpt>
      <trkpt lat="48.82037" lon="2.36453">
        <ele>72.599998474121</ele>
        <time>2015-11-02T21:44:22Z</time>
      </trkpt>
      <trkpt lat="48.82053" lon="2.36437">
        <ele>74</ele>
        <time>2015-11-02T21:44:30Z</time>
      </trkpt>
      <trkpt lat="48.82069" lon="2.3642">
        <ele>73.800003051758</ele>
        <time>2015-11-02T21:44:37Z</time>
      </trkpt>
      <trkpt lat="48.82086" lon="2.36403">
        <ele>75.800003051758</ele>
        <time>2015-11-02T21:44:46Z</time>
      </trkpt>
      <trkpt lat="48.82106" lon="2.36396">
        <ele>77.800003051758</ele>
        <time>2015-11-02T21:44:52Z</time>
      </trkpt>
      <trkpt lat="48.82123" lon="2.36386">
        <ele>77.599998474121</ele>
        <time>2015-11-02T21:45:00Z</time>
      </trkpt>
      <trkpt lat="48.82139" lon="2.36371">
        <ele>74.199996948242</ele>
        <time>2015-11-02T21:45:06Z</time>
      </trkpt>
      <trkpt lat="48.82162" lon="2.36359">
        <ele>70.199996948242</ele>
        <time>2015-11-02T21:45:12Z</time>
      </trkpt>
      <trkpt lat="48.82177" lon="2.36344">
        <ele>68.199996948242</ele>
        <time>2015-11-02T21:45:19Z</time>
      </trkpt>
      <trkpt lat="48.82196" lon="2.36329">
        <ele>68.599998474121</ele>
        <time>2015-11-02T21:45:26Z</time>
      </trkpt>
      <trkpt lat="48.82203" lon="2.36325">
        <ele>68.400001525879</ele>
        <time>2015-11-02T21:45:31Z</time>
      </trkpt>
      <trkpt lat="48.82215" lon="2.36349">
        <ele>65.599998474121</ele>
        <time>2015-11-02T21:45:43Z</time>
      </trkpt>
      <trkpt lat="48.82227" lon="2.36371">
        <ele>65</ele>
        <time>2015-11-02T21:45:49Z</time>
      </trkpt>
      <trkpt lat="48.82238" lon="2.36395">
        <ele>63.79999923706</ele>
        <time>2015-11-02T21:45:54Z</time>
      </trkpt>
      <trkpt lat="48.8225" lon="2.36417">
        <ele>62.79999923706</ele>
        <time>2015-11-02T21:45:58Z</time>
      </trkpt>
      <trkpt lat="48.82263" lon="2.36441">
        <ele>63.400001525879</ele>
        <time>2015-11-02T21:46:03Z</time>
      </trkpt>
      <trkpt lat="48.82276" lon="2.36464">
        <ele>65</ele>
        <time>2015-11-02T21:46:08Z</time>
      </trkpt>
      <trkpt lat="48.82289" lon="2.36489">
        <ele>65.400001525879</ele>
        <time>2015-11-02T21:46:13Z</time>
      </trkpt>
      <trkpt lat="48.823" lon="2.36513">
        <ele>64</ele>
        <time>2015-11-02T21:46:18Z</time>
      </trkpt>
      <trkpt lat="48.8231" lon="2.36538">
        <ele>64.400001525879</ele>
        <time>2015-11-02T21:46:24Z</time>
      </trkpt>
      <trkpt lat="48.82318" lon="2.3656">
        <ele>65.599998474121</ele>
        <time>2015-11-02T21:46:33Z</time>
      </trkpt>
      <trkpt lat="48.8233" lon="2.36553">
        <ele>68.199996948242</ele>
        <time>2015-11-02T21:46:40Z</time>
      </trkpt>
      <trkpt lat="48.82344" lon="2.36534">
        <ele>69.800003051758</ele>
        <time>2015-11-02T21:46:47Z</time>
      </trkpt>
      <trkpt lat="48.82359" lon="2.36515">
        <ele>71.599998474121</ele>
        <time>2015-11-02T21:46:53Z</time>
      </trkpt>
      <trkpt lat="48.82372" lon="2.3649">
        <ele>72.599998474121</ele>
        <time>2015-11-02T21:46:58Z</time>
      </trkpt>
      <trkpt lat="48.82387" lon="2.36465">
        <ele>73.599998474121</ele>
        <time>2015-11-02T21:47:03Z</time>
      </trkpt>
      <trkpt lat="48.824" lon="2.36437">
        <ele>74.400001525879</ele>
        <time>2015-11-02T21:47:08Z</time>
      </trkpt>
      <trkpt lat="48.82418" lon="2.36415">
        <ele>75.400001525879</ele>
        <time>2015-11-02T21:47:12Z</time>
      </trkpt>
      <trkpt lat="48.82435" lon="2.36396">
        <ele>77.599998474121</ele>
        <time>2015-11-02T21:47:17Z</time>
      </trkpt>
      <trkpt lat="48.82439" lon="2.36363">
        <ele>77.800003051758</ele>
        <time>2015-11-02T21:47:23Z</time>
      </trkpt>
      <trkpt lat="48.82453" lon="2.36336">
        <ele>78.400001525879</ele>
        <time>2015-11-02T21:47:27Z</time>
      </trkpt>
      <trkpt lat="48.82461" lon="2.36316">
        <ele>79.199996948242</ele>
        <time>2015-11-02T21:47:30Z</time>
      </trkpt>
      <trkpt lat="48.82469" lon="2.36286">
        <ele>79.599998474121</ele>
        <time>2015-11-02T21:47:33Z</time>
      </trkpt>
      <trkpt lat="48.82476" lon="2.36253">
        <ele>80.800003051758</ele>
        <time>2015-11-02T21:47:37Z</time>
      </trkpt>
      <trkpt lat="48.82488" lon="2.36229">
        <ele>81.800003051758</ele>
        <time>2015-11-02T21:47:40Z</time>
      </trkpt>
      <trkpt lat="48.82503" lon="2.36199">
        <ele>82.199996948242</ele>
        <time>2015-11-02T21:47:44Z</time>
      </trkpt>
      <trkpt lat="48.82516" lon="2.36175">
        <ele>83.199996948242</ele>
        <time>2015-11-02T21:47:47Z</time>
      </trkpt>
      <trkpt lat="48.82528" lon="2.36153">
        <ele>84.599998474121</ele>
        <time>2015-11-02T21:47:50Z</time>
      </trkpt>
      <trkpt lat="48.82541" lon="2.36133">
        <ele>85.400001525879</ele>
        <time>2015-11-02T21:47:53Z</time>
      </trkpt>
      <trkpt lat="48.82553" lon="2.36113">
        <ele>86.599998474121</ele>
        <time>2015-11-02T21:47:56Z</time>
      </trkpt>
      <trkpt lat="48.82566" lon="2.36088">
        <ele>88.199996948242</ele>
        <time>2015-11-02T21:48:00Z</time>
      </trkpt>
      <trkpt lat="48.82579" lon="2.36064">
        <ele>89.400001525879</ele>
        <time>2015-11-02T21:48:04Z</time>
      </trkpt>
      <trkpt lat="48.82591" lon="2.36035">
        <ele>88.400001525879</ele>
        <time>2015-11-02T21:48:08Z</time>
      </trkpt>
      <trkpt lat="48.82599" lon="2.36017">
        <ele>90.199996948242</ele>
        <time>2015-11-02T21:48:12Z</time>
      </trkpt>
      <trkpt lat="48.82603" lon="2.36015">
        <ele>88.800003051758</ele>
        <time>2015-11-02T21:48:15Z</time>
      </trkpt>
      <trkpt lat="48.82607" lon="2.36018">
        <ele>86.599998474121</ele>
        <time>2015-11-02T21:48:17Z</time>
      </trkpt>
      <trkpt lat="48.8261" lon="2.36021">
        <ele>84.599998474121</ele>
        <time>2015-11-02T21:48:20Z</time>
      </trkpt>
      <trkpt lat="48.82619" lon="2.36021">
        <ele>78</ele>
        <time>2015-11-02T21:48:33Z</time>
      </trkpt>
      <trkpt lat="48.82631" lon="2.35999">
        <ele>73.800003051758</ele>
        <time>2015-11-02T21:48:40Z</time>
      </trkpt>
      <trkpt lat="48.82633" lon="2.35993">
        <ele>73.599998474121</ele>
        <time>2015-11-02T21:48:42Z</time>
      </trkpt>
      <trkpt lat="48.82639" lon="2.3598">
        <ele>73.599998474121</ele>
        <time>2015-11-02T21:48:47Z</time>
      </trkpt>
      <trkpt lat="48.82654" lon="2.35963">
        <ele>75</ele>
        <time>2015-11-02T21:48:53Z</time>
      </trkpt>
      <trkpt lat="48.8267" lon="2.35948">
        <ele>76.199996948242</ele>
        <time>2015-11-02T21:48:58Z</time>
      </trkpt>
      <trkpt lat="48.82687" lon="2.35928">
        <ele>78.599998474121</ele>
        <time>2015-11-02T21:49:03Z</time>
      </trkpt>
      <trkpt lat="48.82706" lon="2.35913">
        <ele>80.800003051758</ele>
        <time>2015-11-02T21:49:08Z</time>
      </trkpt>
      <trkpt lat="48.82725" lon="2.35896">
        <ele>81.800003051758</ele>
        <time>2015-11-02T21:49:13Z</time>
      </trkpt>
      <trkpt lat="48.82745" lon="2.3588">
        <ele>78.199996948242</ele>
        <time>2015-11-02T21:49:17Z</time>
      </trkpt>
      <trkpt lat="48.82763" lon="2.35866">
        <ele>76.800003051758</ele>
        <time>2015-11-02T21:49:21Z</time>
      </trkpt>
      <trkpt lat="48.8278" lon="2.35852">
        <ele>76.599998474121</ele>
        <time>2015-11-02T21:49:25Z</time>
      </trkpt>
      <trkpt lat="48.82794" lon="2.35841">
        <ele>76.800003051758</ele>
        <time>2015-11-02T21:49:28Z</time>
      </trkpt>
      <trkpt lat="48.82812" lon="2.35826">
        <ele>77.400001525879</ele>
        <time>2015-11-02T21:49:32Z</time>
      </trkpt>
      <trkpt lat="48.82817" lon="2.35822">
        <ele>77.400001525879</ele>
        <time>2015-11-02T21:49:33Z</time>
      </trkpt>
      <trkpt lat="48.82826" lon="2.35813">
        <ele>78.199996948242</ele>
        <time>2015-11-02T21:49:35Z</time>
      </trkpt>
      <trkpt lat="48.82841" lon="2.35798">
        <ele>77.800003051758</ele>
        <time>2015-11-02T21:49:39Z</time>
      </trkpt>
      <trkpt lat="48.8286" lon="2.35781">
        <ele>77.400001525879</ele>
        <time>2015-11-02T21:49:43Z</time>
      </trkpt>
      <trkpt lat="48.82877" lon="2.35769">
        <ele>76.199996948242</ele>
        <time>2015-11-02T21:49:46Z</time>
      </trkpt>
      <trkpt lat="48.82899" lon="2.35756">
        <ele>74.400001525879</ele>
        <time>2015-11-02T21:49:49Z</time>
      </trkpt>
      <trkpt lat="48.82917" lon="2.35742">
        <ele>73.400001525879</ele>
        <time>2015-11-02T21:49:52Z</time>
      </trkpt>
      <trkpt lat="48.82937" lon="2.35729">
        <ele>73</ele>
        <time>2015-11-02T21:49:55Z</time>
      </trkpt>
      <trkpt lat="48.82954" lon="2.35716">
        <ele>72.599998474121</ele>
        <time>2015-11-02T21:49:58Z</time>
      </trkpt>
      <trkpt lat="48.82973" lon="2.35699">
        <ele>71.800003051758</ele>
        <time>2015-11-02T21:50:02Z</time>
      </trkpt>
      <trkpt lat="48.82996" lon="2.35689">
        <ele>73</ele>
        <time>2015-11-02T21:50:05Z</time>
      </trkpt>
      <trkpt lat="48.83013" lon="2.35679">
        <ele>72.599998474121</ele>
        <time>2015-11-02T21:50:08Z</time>
      </trkpt>
      <trkpt lat="48.83035" lon="2.35667">
        <ele>71</ele>
        <time>2015-11-02T21:50:12Z</time>
      </trkpt>
      <trkpt lat="48.83057" lon="2.35655">
        <ele>70.800003051758</ele>
        <time>2015-11-02T21:50:16Z</time>
      </trkpt>
      <trkpt lat="48.83069" lon="2.35639">
        <ele>70.599998474121</ele>
        <time>2015-11-02T21:50:20Z</time>
      </trkpt>
      <trkpt lat="48.83081" lon="2.35638">
        <ele>71.199996948242</ele>
        <time>2015-11-02T21:50:24Z</time>
      </trkpt>
      <trkpt lat="48.83085" lon="2.35638">
        <ele>72.199996948242</ele>
        <time>2015-11-02T21:50:26Z</time>
      </trkpt>
      <trkpt lat="48.83088" lon="2.35636">
        <ele>72.800003051758</ele>
        <time>2015-11-02T21:50:28Z</time>
      </trkpt>
      <trkpt lat="48.83095" lon="2.35628">
        <ele>79</ele>
        <time>2015-11-02T21:50:33Z</time>
      </trkpt>
      <trkpt lat="48.83105" lon="2.35621">
        <ele>84</ele>
        <time>2015-11-02T21:50:38Z</time>
      </trkpt>
      <trkpt lat="48.83116" lon="2.35626">
        <ele>82.800003051758</ele>
        <time>2015-11-02T21:50:44Z</time>
      </trkpt>
      <trkpt lat="48.83124" lon="2.35664">
        <ele>64.599998474121</ele>
        <time>2015-11-02T21:51:55Z</time>
      </trkpt>
      <trkpt lat="48.83138" lon="2.3568">
        <ele>63.79999923706</ele>
        <time>2015-11-02T21:52:00Z</time>
      </trkpt>
      <trkpt lat="48.83157" lon="2.35676">
        <ele>64.400001525879</ele>
        <time>2015-11-02T21:52:04Z</time>
      </trkpt>
      <trkpt lat="48.83178" lon="2.35666">
        <ele>65.199996948242</ele>
        <time>2015-11-02T21:52:08Z</time>
      </trkpt>
      <trkpt lat="48.83195" lon="2.35645">
        <ele>65.599998474121</ele>
        <time>2015-11-02T21:52:12Z</time>
      </trkpt>
      <trkpt lat="48.8321" lon="2.35622">
        <ele>66.400001525879</ele>
        <time>2015-11-02T21:52:16Z</time>
      </trkpt>
      <trkpt lat="48.83213" lon="2.35619">
        <ele>66</ele>
        <time>2015-11-02T21:52:17Z</time>
      </trkpt>
      <trkpt lat="48.83221" lon="2.35616">
        <ele>65.800003051758</ele>
        <time>2015-11-02T21:52:21Z</time>
      </trkpt>
      <trkpt lat="48.83223" lon="2.35615">
        <ele>66.599998474121</ele>
        <time>2015-11-02T21:52:23Z</time>
      </trkpt>
      <trkpt lat="48.83218" lon="2.35598">
        <ele>71.400001525879</ele>
        <time>2015-11-02T21:52:43Z</time>
      </trkpt>
      <trkpt lat="48.83217" lon="2.35569">
        <ele>71.199996948242</ele>
        <time>2015-11-02T21:52:49Z</time>
      </trkpt>
      <trkpt lat="48.83216" lon="2.35539">
        <ele>70.400001525879</ele>
        <time>2015-11-02T21:52:55Z</time>
      </trkpt>
      <trkpt lat="48.83217" lon="2.35521">
        <ele>69.800003051758</ele>
        <time>2015-11-02T21:52:59Z</time>
      </trkpt>
      <trkpt lat="48.8323" lon="2.35501">
        <ele>70.599998474121</ele>
        <time>2015-11-02T21:53:05Z</time>
      </trkpt>
      <trkpt lat="48.83248" lon="2.35481">
        <ele>72.400001525879</ele>
        <time>2015-11-02T21:53:10Z</time>
      </trkpt>
      <trkpt lat="48.83267" lon="2.35465">
        <ele>70.800003051758</ele>
        <time>2015-11-02T21:53:14Z</time>
      </trkpt>
      <trkpt lat="48.83288" lon="2.3545">
        <ele>68.800003051758</ele>
        <time>2015-11-02T21:53:18Z</time>
      </trkpt>
      <trkpt lat="48.83305" lon="2.35439">
        <ele>67.800003051758</ele>
        <time>2015-11-02T21:53:21Z</time>
      </trkpt>
      <trkpt lat="48.83316" lon="2.35433">
        <ele>66.800003051758</ele>
        <time>2015-11-02T21:53:23Z</time>
      </trkpt>
      <trkpt lat="48.83333" lon="2.3542">
        <ele>65.400001525879</ele>
        <time>2015-11-02T21:53:26Z</time>
      </trkpt>
      <trkpt lat="48.8335" lon="2.35405">
        <ele>64.400001525879</ele>
        <time>2015-11-02T21:53:29Z</time>
      </trkpt>
      <trkpt lat="48.8337" lon="2.3539">
        <ele>62.400001525879</ele>
        <time>2015-11-02T21:53:32Z</time>
      </trkpt>
      <trkpt lat="48.8339" lon="2.35374">
        <ele>61.599998474121</ele>
        <time>2015-11-02T21:53:35Z</time>
      </trkpt>
      <trkpt lat="48.83412" lon="2.35361">
        <ele>60.20000076294</ele>
        <time>2015-11-02T21:53:38Z</time>
      </trkpt>
      <trkpt lat="48.83435" lon="2.35346">
        <ele>57.599998474121</ele>
        <time>2015-11-02T21:53:41Z</time>
      </trkpt>
      <trkpt lat="48.83456" lon="2.35332">
        <ele>56.79999923706</ele>
        <time>2015-11-02T21:53:44Z</time>
      </trkpt>
      <trkpt lat="48.83477" lon="2.35317">
        <ele>55.599998474121</ele>
        <time>2015-11-02T21:53:47Z</time>
      </trkpt>
      <trkpt lat="48.83497" lon="2.35306">
        <ele>53</ele>
        <time>2015-11-02T21:53:50Z</time>
      </trkpt>
      <trkpt lat="48.83516" lon="2.35289">
        <ele>51</ele>
        <time>2015-11-02T21:53:53Z</time>
      </trkpt>
      <trkpt lat="48.83537" lon="2.35276">
        <ele>49.79999923706</ele>
        <time>2015-11-02T21:53:56Z</time>
      </trkpt>
      <trkpt lat="48.83559" lon="2.35262">
        <ele>49.20000076294</ele>
        <time>2015-11-02T21:53:59Z</time>
      </trkpt>
      <trkpt lat="48.83578" lon="2.35245">
        <ele>49.20000076294</ele>
        <time>2015-11-02T21:54:02Z</time>
      </trkpt>
      <trkpt lat="48.83599" lon="2.35229">
        <ele>48.79999923706</ele>
        <time>2015-11-02T21:54:05Z</time>
      </trkpt>
      <trkpt lat="48.83618" lon="2.35214">
        <ele>48</ele>
        <time>2015-11-02T21:54:08Z</time>
      </trkpt>
      <trkpt lat="48.83635" lon="2.352">
        <ele>48</ele>
        <time>2015-11-02T21:54:11Z</time>
      </trkpt>
      <trkpt lat="48.83653" lon="2.3519">
        <ele>47.20000076294</ele>
        <time>2015-11-02T21:54:15Z</time>
      </trkpt>
      <trkpt lat="48.83664" lon="2.35183">
        <ele>47.79999923706</ele>
        <time>2015-11-02T21:54:19Z</time>
      </trkpt>
      <trkpt lat="48.83674" lon="2.35177">
        <ele>49.400001525879</ele>
        <time>2015-11-02T21:54:25Z</time>
      </trkpt>
      <trkpt lat="48.83674" lon="2.3518">
        <ele>47.400001525879</ele>
        <time>2015-11-02T21:54:26Z</time>
      </trkpt>
      <trkpt lat="48.83678" lon="2.35187">
        <ele>45.20000076294</ele>
        <time>2015-11-02T21:54:35Z</time>
      </trkpt>
      <trkpt lat="48.83697" lon="2.35175">
        <ele>42.599998474121</ele>
        <time>2015-11-02T21:54:43Z</time>
      </trkpt>
      <trkpt lat="48.83717" lon="2.35162">
        <ele>41.599998474121</ele>
        <time>2015-11-02T21:54:49Z</time>
      </trkpt>
      <trkpt lat="48.83736" lon="2.35148">
        <ele>42</ele>
        <time>2015-11-02T21:54:54Z</time>
      </trkpt>
      <trkpt lat="48.83754" lon="2.35135">
        <ele>43.400001525879</ele>
        <time>2015-11-02T21:54:58Z</time>
      </trkpt>
      <trkpt lat="48.83773" lon="2.35119">
        <ele>44.79999923706</ele>
        <time>2015-11-02T21:55:02Z</time>
      </trkpt>
      <trkpt lat="48.83791" lon="2.35103">
        <ele>46</ele>
        <time>2015-11-02T21:55:06Z</time>
      </trkpt>
      <trkpt lat="48.83811" lon="2.35087">
        <ele>46.20000076294</ele>
        <time>2015-11-02T21:55:10Z</time>
      </trkpt>
      <trkpt lat="48.83831" lon="2.35071">
        <ele>46.20000076294</ele>
        <time>2015-11-02T21:55:14Z</time>
      </trkpt>
      <trkpt lat="48.83844" lon="2.35062">
        <ele>47.79999923706</ele>
        <time>2015-11-02T21:55:17Z</time>
      </trkpt>
      <trkpt lat="48.83861" lon="2.35051">
        <ele>50.79999923706</ele>
        <time>2015-11-02T21:55:22Z</time>
      </trkpt>
      <trkpt lat="48.83863" lon="2.35049">
        <ele>51.599998474121</ele>
        <time>2015-11-02T21:55:23Z</time>
      </trkpt>
      <trkpt lat="48.83868" lon="2.3504">
        <ele>56.20000076294</ele>
        <time>2015-11-02T21:55:28Z</time>
      </trkpt>
      <trkpt lat="48.83865" lon="2.35054">
        <ele>61.400001525879</ele>
        <time>2015-11-02T21:55:40Z</time>
      </trkpt>
      <trkpt lat="48.83869" lon="2.35056">
        <ele>62</ele>
        <time>2015-11-02T21:55:43Z</time>
      </trkpt>
      <trkpt lat="48.83886" lon="2.35069">
        <ele>62.599998474121</ele>
        <time>2015-11-02T21:55:50Z</time>
      </trkpt>
      <trkpt lat="48.83905" lon="2.35075">
        <ele>65.599998474121</ele>
        <time>2015-11-02T21:55:56Z</time>
      </trkpt>
      <trkpt lat="48.83924" lon="2.35086">
        <ele>70.199996948242</ele>
        <time>2015-11-02T21:56:03Z</time>
      </trkpt>
      <trkpt lat="48.83945" lon="2.35094">
        <ele>75</ele>
        <time>2015-11-02T21:56:09Z</time>
      </trkpt>
      <trkpt lat="48.83971" lon="2.351">
        <ele>69.400001525879</ele>
        <time>2015-11-02T21:56:13Z</time>
      </trkpt>
      <trkpt lat="48.83992" lon="2.35112">
        <ele>70.599998474121</ele>
        <time>2015-11-02T21:56:17Z</time>
      </trkpt>
      <trkpt lat="48.84008" lon="2.35129">
        <ele>69.599998474121</ele>
        <time>2015-11-02T21:56:21Z</time>
      </trkpt>
      <trkpt lat="48.84027" lon="2.35145">
        <ele>72.800003051758</ele>
        <time>2015-11-02T21:56:26Z</time>
      </trkpt>
      <trkpt lat="48.84049" lon="2.3516">
        <ele>73.199996948242</ele>
        <time>2015-11-02T21:56:31Z</time>
      </trkpt>
      <trkpt lat="48.84061" lon="2.35162">
        <ele>69.400001525879</ele>
        <time>2015-11-02T21:56:33Z</time>
      </trkpt>
      <trkpt lat="48.84074" lon="2.35175">
        <ele>70.199996948242</ele>
        <time>2015-11-02T21:56:39Z</time>
      </trkpt>
      <trkpt lat="48.84076" lon="2.35181">
        <ele>70.400001525879</ele>
        <time>2015-11-02T21:56:41Z</time>
      </trkpt>
      <trkpt lat="48.84078" lon="2.35191">
        <ele>69.599998474121</ele>
        <time>2015-11-02T21:56:45Z</time>
      </trkpt>
      <trkpt lat="48.8408" lon="2.35212">
        <ele>65.800003051758</ele>
        <time>2015-11-02T21:57:03Z</time>
      </trkpt>
      <trkpt lat="48.84092" lon="2.35215">
        <ele>63.400001525879</ele>
        <time>2015-11-02T21:57:11Z</time>
      </trkpt>
      <trkpt lat="48.84105" lon="2.35236">
        <ele>62.79999923706</ele>
        <time>2015-11-02T21:57:17Z</time>
      </trkpt>
      <trkpt lat="48.84116" lon="2.35262">
        <ele>63.20000076294</ele>
        <time>2015-11-02T21:57:22Z</time>
      </trkpt>
      <trkpt lat="48.84121" lon="2.35289">
        <ele>64.400001525879</ele>
        <time>2015-11-02T21:57:27Z</time>
      </trkpt>
      <trkpt lat="48.84129" lon="2.35319">
        <ele>66.599998474121</ele>
        <time>2015-11-02T21:57:33Z</time>
      </trkpt>
      <trkpt lat="48.84133" lon="2.3535">
        <ele>67</ele>
        <time>2015-11-02T21:57:38Z</time>
      </trkpt>
      <trkpt lat="48.84135" lon="2.35378">
        <ele>66.599998474121</ele>
        <time>2015-11-02T21:57:42Z</time>
      </trkpt>
      <trkpt lat="48.84136" lon="2.35405">
        <ele>65.199996948242</ele>
        <time>2015-11-02T21:57:46Z</time>
      </trkpt>
      <trkpt lat="48.84138" lon="2.35433">
        <ele>62</ele>
        <time>2015-11-02T21:57:50Z</time>
      </trkpt>
      <trkpt lat="48.84144" lon="2.35464">
        <ele>59.79999923706</ele>
        <time>2015-11-02T21:57:55Z</time>
      </trkpt>
      <trkpt lat="48.84147" lon="2.35469">
        <ele>58.599998474121</ele>
        <time>2015-11-02T21:57:57Z</time>
      </trkpt>
      <trkpt lat="48.84168" lon="2.35471">
        <ele>55.599998474121</ele>
        <time>2015-11-02T21:58:07Z</time>
      </trkpt>
      <trkpt lat="48.84177" lon="2.3547">
        <ele>54.79999923706</ele>
        <time>2015-11-02T21:58:09Z</time>
      </trkpt>
      <trkpt lat="48.84199" lon="2.35461">
        <ele>54.599998474121</ele>
        <time>2015-11-02T21:58:12Z</time>
      </trkpt>
      <trkpt lat="48.84221" lon="2.3545">
        <ele>54.400001525879</ele>
        <time>2015-11-02T21:58:16Z</time>
      </trkpt>
      <trkpt lat="48.84241" lon="2.35438">
        <ele>54.79999923706</ele>
        <time>2015-11-02T21:58:22Z</time>
      </trkpt>
      <trkpt lat="48.84261" lon="2.35432">
        <ele>54.20000076294</ele>
        <time>2015-11-02T21:58:26Z</time>
      </trkpt>
      <trkpt lat="48.8428" lon="2.35426">
        <ele>53.20000076294</ele>
        <time>2015-11-02T21:58:30Z</time>
      </trkpt>
      <trkpt lat="48.84297" lon="2.35421">
        <ele>52.599998474121</ele>
        <time>2015-11-02T21:58:34Z</time>
      </trkpt>
      <trkpt lat="48.84318" lon="2.35416">
        <ele>52.79999923706</ele>
        <time>2015-11-02T21:58:38Z</time>
      </trkpt>
      <trkpt lat="48.8434" lon="2.35413">
        <ele>54</ele>
        <time>2015-11-02T21:58:43Z</time>
      </trkpt>
      <trkpt lat="48.84354" lon="2.35421">
        <ele>54.599998474121</ele>
        <time>2015-11-02T21:58:48Z</time>
      </trkpt>
      <trkpt lat="48.84356" lon="2.35422">
        <ele>54.599998474121</ele>
        <time>2015-11-02T21:58:49Z</time>
      </trkpt>
      <trkpt lat="48.84358" lon="2.35423">
        <ele>54.400001525879</ele>
        <time>2015-11-02T21:58:52Z</time>
      </trkpt>
      <trkpt lat="48.84358" lon="2.35426">
        <ele>54.20000076294</ele>
        <time>2015-11-02T21:58:54Z</time>
      </trkpt>
      <trkpt lat="48.84359" lon="2.35456">
        <ele>52.400001525879</ele>
        <time>2015-11-02T21:59:03Z</time>
      </trkpt>
      <trkpt lat="48.84361" lon="2.35483">
        <ele>49.20000076294</ele>
        <time>2015-11-02T21:59:10Z</time>
      </trkpt>
      <trkpt lat="48.84377" lon="2.35494">
        <ele>50</ele>
        <time>2015-11-02T21:59:16Z</time>
      </trkpt>
      <trkpt lat="48.84389" lon="2.35517">
        <ele>51</ele>
        <time>2015-11-02T21:59:21Z</time>
      </trkpt>
      <trkpt lat="48.84391" lon="2.35523">
        <ele>51.400001525879</ele>
        <time>2015-11-02T21:59:22Z</time>
      </trkpt>
      <trkpt lat="48.84396" lon="2.3555">
        <ele>52</ele>
        <time>2015-11-02T21:59:26Z</time>
      </trkpt>
      <trkpt lat="48.84398" lon="2.35556">
        <ele>52.20000076294</ele>
        <time>2015-11-02T21:59:27Z</time>
      </trkpt>
      <trkpt lat="48.8441" lon="2.35578">
        <ele>53</ele>
        <time>2015-11-02T21:59:30Z</time>
      </trkpt>
      <trkpt lat="48.84424" lon="2.35597">
        <ele>54.400001525879</ele>
        <time>2015-11-02T21:59:33Z</time>
      </trkpt>
      <trkpt lat="48.84438" lon="2.35616">
        <ele>56</ele>
        <time>2015-11-02T21:59:36Z</time>
      </trkpt>
      <trkpt lat="48.8445" lon="2.35638">
        <ele>57.400001525879</ele>
        <time>2015-11-02T21:59:39Z</time>
      </trkpt>
      <trkpt lat="48.84466" lon="2.35663">
        <ele>59.599998474121</ele>
        <time>2015-11-02T21:59:43Z</time>
      </trkpt>
      <trkpt lat="48.84475" lon="2.35683">
        <ele>59.599998474121</ele>
        <time>2015-11-02T21:59:46Z</time>
      </trkpt>
      <trkpt lat="48.84485" lon="2.35702">
        <ele>60</ele>
        <time>2015-11-02T21:59:49Z</time>
      </trkpt>
      <trkpt lat="48.84497" lon="2.35725">
        <ele>65</ele>
        <time>2015-11-02T21:59:53Z</time>
      </trkpt>
      <trkpt lat="48.84512" lon="2.35748">
        <ele>67.199996948242</ele>
        <time>2015-11-02T21:59:56Z</time>
      </trkpt>
      <trkpt lat="48.84529" lon="2.35777">
        <ele>67.800003051758</ele>
        <time>2015-11-02T21:59:59Z</time>
      </trkpt>
      <trkpt lat="48.8455" lon="2.35806">
        <ele>63</ele>
        <time>2015-11-02T22:00:02Z</time>
      </trkpt>
      <trkpt lat="48.84565" lon="2.35833">
        <ele>57.599998474121</ele>
        <time>2015-11-02T22:00:04Z</time>
      </trkpt>
      <trkpt lat="48.84577" lon="2.35856">
        <ele>53.599998474121</ele>
        <time>2015-11-02T22:00:06Z</time>
      </trkpt>
      <trkpt lat="48.84589" lon="2.35889">
        <ele>51</ele>
        <time>2015-11-02T22:00:09Z</time>
      </trkpt>
      <trkpt lat="48.84605" lon="2.35918">
        <ele>48.400001525879</ele>
        <time>2015-11-02T22:00:12Z</time>
      </trkpt>
      <trkpt lat="48.84621" lon="2.35948">
        <ele>44.79999923706</ele>
        <time>2015-11-02T22:00:15Z</time>
      </trkpt>
      <trkpt lat="48.84634" lon="2.35976">
        <ele>43</ele>
        <time>2015-11-02T22:00:18Z</time>
      </trkpt>
      <trkpt lat="48.84643" lon="2.35992">
        <ele>41.79999923706</ele>
        <time>2015-11-02T22:00:20Z</time>
      </trkpt>
      <trkpt lat="48.84655" lon="2.36016">
        <ele>40.400001525879</ele>
        <time>2015-11-02T22:00:23Z</time>
      </trkpt>
      <trkpt lat="48.84666" lon="2.36039">
        <ele>39.400001525879</ele>
        <time>2015-11-02T22:00:26Z</time>
      </trkpt>
      <trkpt lat="48.84677" lon="2.36066">
        <ele>38.400001525879</ele>
        <time>2015-11-02T22:00:30Z</time>
      </trkpt>
      <trkpt lat="48.84683" lon="2.36082">
        <ele>37.599998474121</ele>
        <time>2015-11-02T22:00:33Z</time>
      </trkpt>
      <trkpt lat="48.84687" lon="2.36097">
        <ele>37</ele>
        <time>2015-11-02T22:00:38Z</time>
      </trkpt>
      <trkpt lat="48.84702" lon="2.36084">
        <ele>39.20000076294</ele>
        <time>2015-11-02T22:01:00Z</time>
      </trkpt>
      <trkpt lat="48.84718" lon="2.36064">
        <ele>39.20000076294</ele>
        <time>2015-11-02T22:01:05Z</time>
      </trkpt>
      <trkpt lat="48.84732" lon="2.36043">
        <ele>39.20000076294</ele>
        <time>2015-11-02T22:01:09Z</time>
      </trkpt>
      <trkpt lat="48.84746" lon="2.3602">
        <ele>39</ele>
        <time>2015-11-02T22:01:13Z</time>
      </trkpt>
      <trkpt lat="48.84761" lon="2.35994">
        <ele>39.20000076294</ele>
        <time>2015-11-02T22:01:17Z</time>
      </trkpt>
      <trkpt lat="48.84775" lon="2.35971">
        <ele>40.79999923706</ele>
        <time>2015-11-02T22:01:21Z</time>
      </trkpt>
      <trkpt lat="48.8479" lon="2.35949">
        <ele>42.79999923706</ele>
        <time>2015-11-02T22:01:25Z</time>
      </trkpt>
      <trkpt lat="48.84806" lon="2.35925">
        <ele>44.20000076294</ele>
        <time>2015-11-02T22:01:29Z</time>
      </trkpt>
      <trkpt lat="48.84819" lon="2.35905">
        <ele>45.400001525879</ele>
        <time>2015-11-02T22:01:32Z</time>
      </trkpt>
      <trkpt lat="48.84832" lon="2.35885">
        <ele>44.79999923706</ele>
        <time>2015-11-02T22:01:35Z</time>
      </trkpt>
      <trkpt lat="48.84848" lon="2.3586">
        <ele>46.599998474121</ele>
        <time>2015-11-02T22:01:39Z</time>
      </trkpt>
      <trkpt lat="48.84862" lon="2.35841">
        <ele>46.599998474121</ele>
        <time>2015-11-02T22:01:42Z</time>
      </trkpt>
      <trkpt lat="48.84877" lon="2.35816">
        <ele>44.599998474121</ele>
        <time>2015-11-02T22:01:46Z</time>
      </trkpt>
      <trkpt lat="48.84889" lon="2.35795">
        <ele>44.400001525879</ele>
        <time>2015-11-02T22:01:49Z</time>
      </trkpt>
      <trkpt lat="48.84903" lon="2.35776">
        <ele>46.20000076294</ele>
        <time>2015-11-02T22:01:52Z</time>
      </trkpt>
      <trkpt lat="48.84917" lon="2.35757">
        <ele>47.400001525879</ele>
        <time>2015-11-02T22:01:55Z</time>
      </trkpt>
      <trkpt lat="48.84929" lon="2.35736">
        <ele>47</ele>
        <time>2015-11-02T22:01:59Z</time>
      </trkpt>
      <trkpt lat="48.84935" lon="2.35726">
        <ele>49</ele>
        <time>2015-11-02T22:02:01Z</time>
      </trkpt>
      <trkpt lat="48.84934" lon="2.35713">
        <ele>46.79999923706</ele>
        <time>2015-11-02T22:02:04Z</time>
      </trkpt>
      <trkpt lat="48.84932" lon="2.35702">
        <ele>43.400001525879</ele>
        <time>2015-11-02T22:02:07Z</time>
      </trkpt>
      <trkpt lat="48.84932" lon="2.35692">
        <ele>42.599998474121</ele>
        <time>2015-11-02T22:02:11Z</time>
      </trkpt>
      <trkpt lat="48.84932" lon="2.35689">
        <ele>42.599998474121</ele>
        <time>2015-11-02T22:02:13Z</time>
      </trkpt>
      <trkpt lat="48.84939" lon="2.35661">
        <ele>44.599998474121</ele>
        <time>2015-11-02T22:02:24Z</time>
      </trkpt>
      <trkpt lat="48.84947" lon="2.35635">
        <ele>43.599998474121</ele>
        <time>2015-11-02T22:02:29Z</time>
      </trkpt>
      <trkpt lat="48.84956" lon="2.35607">
        <ele>43.400001525879</ele>
        <time>2015-11-02T22:02:34Z</time>
      </trkpt>
      <trkpt lat="48.84964" lon="2.35582">
        <ele>43</ele>
        <time>2015-11-02T22:02:38Z</time>
      </trkpt>
      <trkpt lat="48.84973" lon="2.35557">
        <ele>42.79999923706</ele>
        <time>2015-11-02T22:02:42Z</time>
      </trkpt>
      <trkpt lat="48.84983" lon="2.3553">
        <ele>43.599998474121</ele>
        <time>2015-11-02T22:02:46Z</time>
      </trkpt>
      <trkpt lat="48.84991" lon="2.35499">
        <ele>44.20000076294</ele>
        <time>2015-11-02T22:02:50Z</time>
      </trkpt>
      <trkpt lat="48.84998" lon="2.35468">
        <ele>44.400001525879</ele>
        <time>2015-11-02T22:02:54Z</time>
      </trkpt>
      <trkpt lat="48.85005" lon="2.35443">
        <ele>44.79999923706</ele>
        <time>2015-11-02T22:02:57Z</time>
      </trkpt>
      <trkpt lat="48.85013" lon="2.35416">
        <ele>45</ele>
        <time>2015-11-02T22:03:00Z</time>
      </trkpt>
      <trkpt lat="48.85023" lon="2.35387">
        <ele>44.79999923706</ele>
        <time>2015-11-02T22:03:03Z</time>
      </trkpt>
      <trkpt lat="48.85031" lon="2.35357">
        <ele>44.599998474121</ele>
        <time>2015-11-02T22:03:06Z</time>
      </trkpt>
      <trkpt lat="48.8504" lon="2.35326">
        <ele>44.599998474121</ele>
        <time>2015-11-02T22:03:09Z</time>
      </trkpt>
      <trkpt lat="48.85051" lon="2.35293">
        <ele>43.599998474121</ele>
        <time>2015-11-02T22:03:12Z</time>
      </trkpt>
      <trkpt lat="48.85062" lon="2.35261">
        <ele>43.400001525879</ele>
        <time>2015-11-02T22:03:15Z</time>
      </trkpt>
      <trkpt lat="48.85072" lon="2.35229">
        <ele>43.599998474121</ele>
        <time>2015-11-02T22:03:18Z</time>
      </trkpt>
      <trkpt lat="48.85081" lon="2.35199">
        <ele>44.20000076294</ele>
        <time>2015-11-02T22:03:21Z</time>
      </trkpt>
      <trkpt lat="48.8509" lon="2.35171">
        <ele>43.400001525879</ele>
        <time>2015-11-02T22:03:24Z</time>
      </trkpt>
      <trkpt lat="48.85102" lon="2.35142">
        <ele>42.400001525879</ele>
        <time>2015-11-02T22:03:28Z</time>
      </trkpt>
      <trkpt lat="48.85108" lon="2.35134">
        <ele>42.400001525879</ele>
        <time>2015-11-02T22:03:30Z</time>
      </trkpt>
      <trkpt lat="48.85115" lon="2.35128">
        <ele>42.79999923706</ele>
        <time>2015-11-02T22:03:33Z</time>
      </trkpt>
      <trkpt lat="48.85119" lon="2.35127">
        <ele>41.400001525879</ele>
        <time>2015-11-02T22:03:37Z</time>
      </trkpt>
      <trkpt lat="48.85123" lon="2.35101">
        <ele>40.599998474121</ele>
        <time>2015-11-02T22:03:57Z</time>
      </trkpt>
      <trkpt lat="48.85133" lon="2.35072">
        <ele>40.20000076294</ele>
        <time>2015-11-02T22:04:01Z</time>
      </trkpt>
      <trkpt lat="48.85144" lon="2.35042">
        <ele>40.599998474121</ele>
        <time>2015-11-02T22:04:05Z</time>
      </trkpt>
      <trkpt lat="48.85154" lon="2.35012">
        <ele>40.79999923706</ele>
        <time>2015-11-02T22:04:09Z</time>
      </trkpt>
      <trkpt lat="48.85165" lon="2.34988">
        <ele>40.400001525879</ele>
        <time>2015-11-02T22:04:12Z</time>
      </trkpt>
      <trkpt lat="48.85176" lon="2.34957">
        <ele>41</ele>
        <time>2015-11-02T22:04:16Z</time>
      </trkpt>
      <trkpt lat="48.85188" lon="2.34927">
        <ele>41.400001525879</ele>
        <time>2015-11-02T22:04:20Z</time>
      </trkpt>
      <trkpt lat="48.85201" lon="2.34901">
        <ele>42.400001525879</ele>
        <time>2015-11-02T22:04:24Z</time>
      </trkpt>
      <trkpt lat="48.85212" lon="2.34879">
        <ele>41.20000076294</ele>
        <time>2015-11-02T22:04:27Z</time>
      </trkpt>
      <trkpt lat="48.85223" lon="2.34848">
        <ele>40.400001525879</ele>
        <time>2015-11-02T22:04:31Z</time>
      </trkpt>
      <trkpt lat="48.85233" lon="2.34823">
        <ele>39.79999923706</ele>
        <time>2015-11-02T22:04:34Z</time>
      </trkpt>
      <trkpt lat="48.8524" lon="2.34808">
        <ele>38.79999923706</ele>
        <time>2015-11-02T22:04:36Z</time>
      </trkpt>
      <trkpt lat="48.85248" lon="2.34793">
        <ele>37.79999923706</ele>
        <time>2015-11-02T22:04:38Z</time>
      </trkpt>
      <trkpt lat="48.85259" lon="2.34771">
        <ele>37.400001525879</ele>
        <time>2015-11-02T22:04:41Z</time>
      </trkpt>
      <trkpt lat="48.85274" lon="2.34742">
        <ele>37.400001525879</ele>
        <time>2015-11-02T22:04:45Z</time>
      </trkpt>
      <trkpt lat="48.85289" lon="2.34715">
        <ele>36.79999923706</ele>
        <time>2015-11-02T22:04:49Z</time>
      </trkpt>
      <trkpt lat="48.85304" lon="2.34691">
        <ele>35.599998474121</ele>
        <time>2015-11-02T22:04:53Z</time>
      </trkpt>
      <trkpt lat="48.8531" lon="2.34685">
        <ele>35.20000076294</ele>
        <time>2015-11-02T22:04:55Z</time>
      </trkpt>
      <trkpt lat="48.8532" lon="2.34665">
        <ele>32.599998474121</ele>
        <time>2015-11-02T22:05:11Z</time>
      </trkpt>
      <trkpt lat="48.85326" lon="2.34638">
        <ele>32.79999923706</ele>
        <time>2015-11-02T22:05:16Z</time>
      </trkpt>
      <trkpt lat="48.85334" lon="2.34606">
        <ele>34.400001525879</ele>
        <time>2015-11-02T22:05:21Z</time>
      </trkpt>
      <trkpt lat="48.85342" lon="2.34576">
        <ele>35.400001525879</ele>
        <time>2015-11-02T22:05:25Z</time>
      </trkpt>
      <trkpt lat="48.85351" lon="2.34544">
        <ele>37</ele>
        <time>2015-11-02T22:05:29Z</time>
      </trkpt>
      <trkpt lat="48.8536" lon="2.34513">
        <ele>38.20000076294</ele>
        <time>2015-11-02T22:05:33Z</time>
      </trkpt>
      <trkpt lat="48.85365" lon="2.34482">
        <ele>38.400001525879</ele>
        <time>2015-11-02T22:05:37Z</time>
      </trkpt>
      <trkpt lat="48.85366" lon="2.34476">
        <ele>38.400001525879</ele>
        <time>2015-11-02T22:05:38Z</time>
      </trkpt>
      <trkpt lat="48.85375" lon="2.34454">
        <ele>37</ele>
        <time>2015-11-02T22:05:51Z</time>
      </trkpt>
      <trkpt lat="48.85382" lon="2.34449">
        <ele>36.20000076294</ele>
        <time>2015-11-02T22:05:57Z</time>
      </trkpt>
      <trkpt lat="48.85391" lon="2.34456">
        <ele>36.20000076294</ele>
        <time>2015-11-02T22:06:01Z</time>
      </trkpt>
      <trkpt lat="48.85406" lon="2.34471">
        <ele>36.400001525879</ele>
        <time>2015-11-02T22:06:06Z</time>
      </trkpt>
      <trkpt lat="48.85414" lon="2.34477">
        <ele>36.599998474121</ele>
        <time>2015-11-02T22:06:08Z</time>
      </trkpt>
      <trkpt lat="48.85434" lon="2.34492">
        <ele>36.400001525879</ele>
        <time>2015-11-02T22:06:13Z</time>
      </trkpt>
      <trkpt lat="48.8545" lon="2.34507">
        <ele>36.79999923706</ele>
        <time>2015-11-02T22:06:17Z</time>
      </trkpt>
      <trkpt lat="48.85466" lon="2.34523">
        <ele>37.20000076294</ele>
        <time>2015-11-02T22:06:21Z</time>
      </trkpt>
      <trkpt lat="48.85485" lon="2.34541">
        <ele>37.400001525879</ele>
        <time>2015-11-02T22:06:25Z</time>
      </trkpt>
      <trkpt lat="48.85502" lon="2.34558">
        <ele>38</ele>
        <time>2015-11-02T22:06:29Z</time>
      </trkpt>
      <trkpt lat="48.85512" lon="2.34566">
        <ele>38.599998474121</ele>
        <time>2015-11-02T22:06:31Z</time>
      </trkpt>
      <trkpt lat="48.8553" lon="2.34578">
        <ele>39.20000076294</ele>
        <time>2015-11-02T22:06:34Z</time>
      </trkpt>
      <trkpt lat="48.85536" lon="2.34581">
        <ele>39.400001525879</ele>
        <time>2015-11-02T22:06:35Z</time>
      </trkpt>
      <trkpt lat="48.85553" lon="2.34593">
        <ele>40</ele>
        <time>2015-11-02T22:06:38Z</time>
      </trkpt>
      <trkpt lat="48.85575" lon="2.34604">
        <ele>41</ele>
        <time>2015-11-02T22:06:42Z</time>
      </trkpt>
      <trkpt lat="48.85589" lon="2.34609">
        <ele>41.599998474121</ele>
        <time>2015-11-02T22:06:45Z</time>
      </trkpt>
      <trkpt lat="48.85614" lon="2.34618">
        <ele>40</ele>
        <time>2015-11-02T22:06:50Z</time>
      </trkpt>
      <trkpt lat="48.85629" lon="2.34624">
        <ele>36.79999923706</ele>
        <time>2015-11-02T22:06:53Z</time>
      </trkpt>
      <trkpt lat="48.85647" lon="2.34636">
        <ele>36.79999923706</ele>
        <time>2015-11-02T22:06:57Z</time>
      </trkpt>
      <trkpt lat="48.8566" lon="2.34643">
        <ele>37.400001525879</ele>
        <time>2015-11-02T22:07:00Z</time>
      </trkpt>
      <trkpt lat="48.85678" lon="2.34658">
        <ele>35</ele>
        <time>2015-11-02T22:07:05Z</time>
      </trkpt>
      <trkpt lat="48.85681" lon="2.3466">
        <ele>34.400001525879</ele>
        <time>2015-11-02T22:07:06Z</time>
      </trkpt>
      <trkpt lat="48.857" lon="2.34672">
        <ele>33.20000076294</ele>
        <time>2015-11-02T22:07:11Z</time>
      </trkpt>
      <trkpt lat="48.85715" lon="2.34681">
        <ele>33.20000076294</ele>
        <time>2015-11-02T22:07:15Z</time>
      </trkpt>
      <trkpt lat="48.85724" lon="2.34677">
        <ele>33.599998474121</ele>
        <time>2015-11-02T22:07:19Z</time>
      </trkpt>
      <trkpt lat="48.8574" lon="2.34683">
        <ele>39.20000076294</ele>
        <time>2015-11-02T22:08:05Z</time>
      </trkpt>
      <trkpt lat="48.85759" lon="2.34693">
        <ele>39.599998474121</ele>
        <time>2015-11-02T22:08:10Z</time>
      </trkpt>
      <trkpt lat="48.85779" lon="2.34708">
        <ele>38.400001525879</ele>
        <time>2015-11-02T22:08:15Z</time>
      </trkpt>
      <trkpt lat="48.858" lon="2.34719">
        <ele>37.599998474121</ele>
        <time>2015-11-02T22:08:20Z</time>
      </trkpt>
      <trkpt lat="48.85819" lon="2.34728">
        <ele>37</ele>
        <time>2015-11-02T22:08:24Z</time>
      </trkpt>
      <trkpt lat="48.85839" lon="2.34732">
        <ele>37.599998474121</ele>
        <time>2015-11-02T22:08:28Z</time>
      </trkpt>
      <trkpt lat="48.8586" lon="2.34736">
        <ele>38.79999923706</ele>
        <time>2015-11-02T22:08:32Z</time>
      </trkpt>
      <trkpt lat="48.85879" lon="2.34741">
        <ele>39.20000076294</ele>
        <time>2015-11-02T22:08:36Z</time>
      </trkpt>
      <trkpt lat="48.85888" lon="2.34741">
        <ele>39.400001525879</ele>
        <time>2015-11-02T22:08:38Z</time>
      </trkpt>
      <trkpt lat="48.85898" lon="2.34739">
        <ele>39.20000076294</ele>
        <time>2015-11-02T22:08:40Z</time>
      </trkpt>
      <trkpt lat="48.85915" lon="2.34727">
        <ele>38.79999923706</ele>
        <time>2015-11-02T22:08:44Z</time>
      </trkpt>
      <trkpt lat="48.85933" lon="2.34714">
        <ele>38.20000076294</ele>
        <time>2015-11-02T22:08:48Z</time>
      </trkpt>
      <trkpt lat="48.85943" lon="2.34711">
        <ele>38</ele>
        <time>2015-11-02T22:08:51Z</time>
      </trkpt>
      <trkpt lat="48.85952" lon="2.34716">
        <ele>37.79999923706</ele>
        <time>2015-11-02T22:08:54Z</time>
      </trkpt>
      <trkpt lat="48.85959" lon="2.34727">
        <ele>37.79999923706</ele>
        <time>2015-11-02T22:09:00Z</time>
      </trkpt>
      <trkpt lat="48.85958" lon="2.34729">
        <ele>37.79999923706</ele>
        <time>2015-11-02T22:09:01Z</time>
      </trkpt>
      <trkpt lat="48.85965" lon="2.34731">
        <ele>43.20000076294</ele>
        <time>2015-11-02T22:09:16Z</time>
      </trkpt>
    </trkseg>
  </trk>
  <trk>
    <name><![CDATA[lundi 2015 10 19]]></name>
    <extensions>
      <line xmlns="http://www.topografix.com/GPX/gpx_style/0/2">
        <color>000000</color>
      </line>
    </extensions>
    <trkseg>
      <trkpt lat="48.85587" lon="2.39147">
        <ele>38.79999923706</ele>
        <time>2015-10-19T18:41:46Z</time>
      </trkpt>
      <trkpt lat="48.85591" lon="2.39146">
        <ele>32.79999923706</ele>
        <time>2015-10-19T18:41:47Z</time>
      </trkpt>
      <trkpt lat="48.85595" lon="2.39172">
        <ele>29.39999961853</ele>
        <time>2015-10-19T18:41:55Z</time>
      </trkpt>
      <trkpt lat="48.85596" lon="2.39178">
        <ele>30.39999961853</ele>
        <time>2015-10-19T18:41:56Z</time>
      </trkpt>
      <trkpt lat="48.85609" lon="2.39199">
        <ele>41.400001525879</ele>
        <time>2015-10-19T18:42:00Z</time>
      </trkpt>
      <trkpt lat="48.85614" lon="2.39227">
        <ele>43.599998474121</ele>
        <time>2015-10-19T18:42:06Z</time>
      </trkpt>
      <trkpt lat="48.85621" lon="2.3924">
        <ele>44.20000076294</ele>
        <time>2015-10-19T18:42:08Z</time>
      </trkpt>
      <trkpt lat="48.85619" lon="2.39246">
        <ele>46.79999923706</ele>
        <time>2015-10-19T18:42:10Z</time>
      </trkpt>
      <trkpt lat="48.85623" lon="2.39267">
        <ele>49.599998474121</ele>
        <time>2015-10-19T18:42:14Z</time>
      </trkpt>
      <trkpt lat="48.85625" lon="2.39276">
        <ele>51</ele>
        <time>2015-10-19T18:42:16Z</time>
      </trkpt>
      <trkpt lat="48.85631" lon="2.39297">
        <ele>51</ele>
        <time>2015-10-19T18:42:20Z</time>
      </trkpt>
      <trkpt lat="48.85636" lon="2.39323">
        <ele>50</ele>
        <time>2015-10-19T18:42:25Z</time>
      </trkpt>
      <trkpt lat="48.85638" lon="2.39328">
        <ele>50</ele>
        <time>2015-10-19T18:42:26Z</time>
      </trkpt>
      <trkpt lat="48.85646" lon="2.39354">
        <ele>52</ele>
        <time>2015-10-19T18:42:31Z</time>
      </trkpt>
      <trkpt lat="48.85652" lon="2.39385">
        <ele>54.400001525879</ele>
        <time>2015-10-19T18:42:37Z</time>
      </trkpt>
      <trkpt lat="48.85655" lon="2.39412">
        <ele>59</ele>
        <time>2015-10-19T18:42:44Z</time>
      </trkpt>
      <trkpt lat="48.85661" lon="2.39441">
        <ele>65</ele>
        <time>2015-10-19T18:42:52Z</time>
      </trkpt>
      <trkpt lat="48.85666" lon="2.39471">
        <ele>64.800003051758</ele>
        <time>2015-10-19T18:42:57Z</time>
      </trkpt>
      <trkpt lat="48.85671" lon="2.39502">
        <ele>67.199996948242</ele>
        <time>2015-10-19T18:43:02Z</time>
      </trkpt>
      <trkpt lat="48.85678" lon="2.39534">
        <ele>69.800003051758</ele>
        <time>2015-10-19T18:43:07Z</time>
      </trkpt>
      <trkpt lat="48.85683" lon="2.39564">
        <ele>72.599998474121</ele>
        <time>2015-10-19T18:43:12Z</time>
      </trkpt>
      <trkpt lat="48.85684" lon="2.39594">
        <ele>74.400001525879</ele>
        <time>2015-10-19T18:43:17Z</time>
      </trkpt>
      <trkpt lat="48.85687" lon="2.39626">
        <ele>76.400001525879</ele>
        <time>2015-10-19T18:43:22Z</time>
      </trkpt>
      <trkpt lat="48.85696" lon="2.39658">
        <ele>77</ele>
        <time>2015-10-19T18:43:27Z</time>
      </trkpt>
      <trkpt lat="48.85698" lon="2.39673">
        <ele>74.800003051758</ele>
        <time>2015-10-19T18:43:29Z</time>
      </trkpt>
      <trkpt lat="48.85698" lon="2.39694">
        <ele>73.199996948242</ele>
        <time>2015-10-19T18:43:32Z</time>
      </trkpt>
      <trkpt lat="48.85697" lon="2.39727">
        <ele>72.800003051758</ele>
        <time>2015-10-19T18:43:37Z</time>
      </trkpt>
      <trkpt lat="48.85698" lon="2.39734">
        <ele>73.199996948242</ele>
        <time>2015-10-19T18:43:38Z</time>
      </trkpt>
      <trkpt lat="48.85701" lon="2.39759">
        <ele>74</ele>
        <time>2015-10-19T18:43:42Z</time>
      </trkpt>
      <trkpt lat="48.8571" lon="2.39788">
        <ele>75.599998474121</ele>
        <time>2015-10-19T18:43:47Z</time>
      </trkpt>
      <trkpt lat="48.85719" lon="2.39814">
        <ele>78.199996948242</ele>
        <time>2015-10-19T18:43:52Z</time>
      </trkpt>
      <trkpt lat="48.85729" lon="2.39844">
        <ele>81</ele>
        <time>2015-10-19T18:43:57Z</time>
      </trkpt>
      <trkpt lat="48.85734" lon="2.39863">
        <ele>82.199996948242</ele>
        <time>2015-10-19T18:44:00Z</time>
      </trkpt>
      <trkpt lat="48.85744" lon="2.39891">
        <ele>82</ele>
        <time>2015-10-19T18:44:05Z</time>
      </trkpt>
      <trkpt lat="48.85756" lon="2.39914">
        <ele>77.800003051758</ele>
        <time>2015-10-19T18:44:09Z</time>
      </trkpt>
      <trkpt lat="48.85758" lon="2.39921">
        <ele>76.599998474121</ele>
        <time>2015-10-19T18:44:10Z</time>
      </trkpt>
      <trkpt lat="48.85771" lon="2.39942">
        <ele>73.199996948242</ele>
        <time>2015-10-19T18:44:14Z</time>
      </trkpt>
      <trkpt lat="48.8578" lon="2.39966">
        <ele>71</ele>
        <time>2015-10-19T18:44:18Z</time>
      </trkpt>
      <trkpt lat="48.85785" lon="2.39976">
        <ele>69.599998474121</ele>
        <time>2015-10-19T18:44:20Z</time>
      </trkpt>
      <trkpt lat="48.85799" lon="2.39998">
        <ele>67</ele>
        <time>2015-10-19T18:44:25Z</time>
      </trkpt>
      <trkpt lat="48.8581" lon="2.40007">
        <ele>64.400001525879</ele>
        <time>2015-10-19T18:44:28Z</time>
      </trkpt>
      <trkpt lat="48.85826" lon="2.4003">
        <ele>62</ele>
        <time>2015-10-19T18:44:33Z</time>
      </trkpt>
      <trkpt lat="48.85841" lon="2.40054">
        <ele>60.20000076294</ele>
        <time>2015-10-19T18:44:38Z</time>
      </trkpt>
      <trkpt lat="48.85851" lon="2.40072">
        <ele>59.400001525879</ele>
        <time>2015-10-19T18:44:41Z</time>
      </trkpt>
      <trkpt lat="48.85864" lon="2.40096">
        <ele>59</ele>
        <time>2015-10-19T18:44:45Z</time>
      </trkpt>
      <trkpt lat="48.85877" lon="2.40124">
        <ele>58.400001525879</ele>
        <time>2015-10-19T18:44:49Z</time>
      </trkpt>
      <trkpt lat="48.85891" lon="2.4015">
        <ele>58.400001525879</ele>
        <time>2015-10-19T18:44:53Z</time>
      </trkpt>
      <trkpt lat="48.85893" lon="2.40156">
        <ele>58.20000076294</ele>
        <time>2015-10-19T18:44:54Z</time>
      </trkpt>
      <trkpt lat="48.85901" lon="2.40172">
        <ele>57.79999923706</ele>
        <time>2015-10-19T18:44:57Z</time>
      </trkpt>
      <trkpt lat="48.85915" lon="2.40193">
        <ele>58.400001525879</ele>
        <time>2015-10-19T18:45:03Z</time>
      </trkpt>
      <trkpt lat="48.85917" lon="2.40194">
        <ele>58.79999923706</ele>
        <time>2015-10-19T18:45:04Z</time>
      </trkpt>
      <trkpt lat="48.85918" lon="2.40198">
        <ele>60.599998474121</ele>
        <time>2015-10-19T18:45:09Z</time>
      </trkpt>
      <trkpt lat="48.85923" lon="2.40191">
        <ele>60.20000076294</ele>
        <time>2015-10-19T18:45:14Z</time>
      </trkpt>
      <trkpt lat="48.85929" lon="2.40216">
        <ele>60</ele>
        <time>2015-10-19T18:45:40Z</time>
      </trkpt>
      <trkpt lat="48.85941" lon="2.4024">
        <ele>60.20000076294</ele>
        <time>2015-10-19T18:45:44Z</time>
      </trkpt>
      <trkpt lat="48.85955" lon="2.40268">
        <ele>59.400001525879</ele>
        <time>2015-10-19T18:45:48Z</time>
      </trkpt>
      <trkpt lat="48.8597" lon="2.40294">
        <ele>59.400001525879</ele>
        <time>2015-10-19T18:45:52Z</time>
      </trkpt>
      <trkpt lat="48.85986" lon="2.4032">
        <ele>59.599998474121</ele>
        <time>2015-10-19T18:45:56Z</time>
      </trkpt>
      <trkpt lat="48.85997" lon="2.40341">
        <ele>59.400001525879</ele>
        <time>2015-10-19T18:45:59Z</time>
      </trkpt>
      <trkpt lat="48.8601" lon="2.40369">
        <ele>58.400001525879</ele>
        <time>2015-10-19T18:46:03Z</time>
      </trkpt>
      <trkpt lat="48.86017" lon="2.40379">
        <ele>58.20000076294</ele>
        <time>2015-10-19T18:46:05Z</time>
      </trkpt>
      <trkpt lat="48.86028" lon="2.40403">
        <ele>59</ele>
        <time>2015-10-19T18:46:09Z</time>
      </trkpt>
      <trkpt lat="48.86033" lon="2.40413">
        <ele>59.20000076294</ele>
        <time>2015-10-19T18:46:11Z</time>
      </trkpt>
      <trkpt lat="48.86047" lon="2.40426">
        <ele>59.79999923706</ele>
        <time>2015-10-19T18:46:15Z</time>
      </trkpt>
      <trkpt lat="48.86054" lon="2.40431">
        <ele>60.400001525879</ele>
        <time>2015-10-19T18:46:17Z</time>
      </trkpt>
      <trkpt lat="48.86074" lon="2.40452">
        <ele>60.79999923706</ele>
        <time>2015-10-19T18:46:22Z</time>
      </trkpt>
      <trkpt lat="48.86089" lon="2.40467">
        <ele>61.79999923706</ele>
        <time>2015-10-19T18:46:25Z</time>
      </trkpt>
      <trkpt lat="48.86103" lon="2.40486">
        <ele>62.599998474121</ele>
        <time>2015-10-19T18:46:28Z</time>
      </trkpt>
      <trkpt lat="48.86117" lon="2.40504">
        <ele>63.79999923706</ele>
        <time>2015-10-19T18:46:31Z</time>
      </trkpt>
      <trkpt lat="48.86124" lon="2.40516">
        <ele>64.599998474121</ele>
        <time>2015-10-19T18:46:33Z</time>
      </trkpt>
      <trkpt lat="48.86141" lon="2.40536">
        <ele>66.599998474121</ele>
        <time>2015-10-19T18:46:37Z</time>
      </trkpt>
      <trkpt lat="48.86151" lon="2.40543">
        <ele>67.400001525879</ele>
        <time>2015-10-19T18:46:39Z</time>
      </trkpt>
      <trkpt lat="48.8616" lon="2.4055">
        <ele>68.400001525879</ele>
        <time>2015-10-19T18:46:41Z</time>
      </trkpt>
      <trkpt lat="48.86176" lon="2.40568">
        <ele>70</ele>
        <time>2015-10-19T18:46:46Z</time>
      </trkpt>
      <trkpt lat="48.86194" lon="2.40581">
        <ele>73</ele>
        <time>2015-10-19T18:46:52Z</time>
      </trkpt>
      <trkpt lat="48.8621" lon="2.40595">
        <ele>78.800003051758</ele>
        <time>2015-10-19T18:46:58Z</time>
      </trkpt>
      <trkpt lat="48.86227" lon="2.40606">
        <ele>82.599998474121</ele>
        <time>2015-10-19T18:47:04Z</time>
      </trkpt>
      <trkpt lat="48.86244" lon="2.40615">
        <ele>88.800003051758</ele>
        <time>2015-10-19T18:47:11Z</time>
      </trkpt>
      <trkpt lat="48.8626" lon="2.40632">
        <ele>98.199996948242</ele>
        <time>2015-10-19T18:47:19Z</time>
      </trkpt>
      <trkpt lat="48.86275" lon="2.40648">
        <ele>108.40000152588</ele>
        <time>2015-10-19T18:47:27Z</time>
      </trkpt>
      <trkpt lat="48.86291" lon="2.40668">
        <ele>115.80000305176</ele>
        <time>2015-10-19T18:47:34Z</time>
      </trkpt>
      <trkpt lat="48.86307" lon="2.40683">
        <ele>123.80000305176</ele>
        <time>2015-10-19T18:47:40Z</time>
      </trkpt>
      <trkpt lat="48.86325" lon="2.40701">
        <ele>130</ele>
        <time>2015-10-19T18:47:46Z</time>
      </trkpt>
      <trkpt lat="48.86342" lon="2.40715">
        <ele>135.60000610352</ele>
        <time>2015-10-19T18:47:51Z</time>
      </trkpt>
      <trkpt lat="48.86357" lon="2.40734">
        <ele>137.60000610352</ele>
        <time>2015-10-19T18:47:55Z</time>
      </trkpt>
      <trkpt lat="48.86374" lon="2.40755">
        <ele>144.39999389648</ele>
        <time>2015-10-19T18:48:00Z</time>
      </trkpt>
      <trkpt lat="48.86381" lon="2.40769">
        <ele>151.39999389648</ele>
        <time>2015-10-19T18:48:04Z</time>
      </trkpt>
      <trkpt lat="48.86382" lon="2.40774">
        <ele>151.80000305176</ele>
        <time>2015-10-19T18:48:07Z</time>
      </trkpt>
      <trkpt lat="48.86374" lon="2.40789">
        <ele>123</ele>
        <time>2015-10-19T18:48:50Z</time>
      </trkpt>
      <trkpt lat="48.86359" lon="2.40786">
        <ele>115.59999847412</ele>
        <time>2015-10-19T18:48:57Z</time>
      </trkpt>
      <trkpt lat="48.8635" lon="2.40773">
        <ele>110.40000152588</ele>
        <time>2015-10-19T18:49:07Z</time>
      </trkpt>
      <trkpt lat="48.8636" lon="2.4076">
        <ele>103.19999694824</ele>
        <time>2015-10-19T18:49:19Z</time>
      </trkpt>
      <trkpt lat="48.86372" lon="2.40754">
        <ele>100.80000305176</ele>
        <time>2015-10-19T18:49:23Z</time>
      </trkpt>
      <trkpt lat="48.86377" lon="2.40757">
        <ele>100.19999694824</ele>
        <time>2015-10-19T18:49:25Z</time>
      </trkpt>
      <trkpt lat="48.86391" lon="2.40775">
        <ele>100.19999694824</ele>
        <time>2015-10-19T18:49:31Z</time>
      </trkpt>
      <trkpt lat="48.86406" lon="2.40791">
        <ele>100.59999847412</ele>
        <time>2015-10-19T18:49:38Z</time>
      </trkpt>
      <trkpt lat="48.86423" lon="2.40809">
        <ele>97.599998474121</ele>
        <time>2015-10-19T18:49:44Z</time>
      </trkpt>
      <trkpt lat="48.86434" lon="2.40826">
        <ele>88.800003051758</ele>
        <time>2015-10-19T18:49:49Z</time>
      </trkpt>
      <trkpt lat="48.86439" lon="2.40843">
        <ele>83.400001525879</ele>
        <time>2015-10-19T18:49:57Z</time>
      </trkpt>
      <trkpt lat="48.86438" lon="2.40845">
        <ele>83</ele>
        <time>2015-10-19T18:49:58Z</time>
      </trkpt>
      <trkpt lat="48.86429" lon="2.40851">
        <ele>80.599998474121</ele>
        <time>2015-10-19T18:50:04Z</time>
      </trkpt>
      <trkpt lat="48.86409" lon="2.40853">
        <ele>78.199996948242</ele>
        <time>2015-10-19T18:50:11Z</time>
      </trkpt>
      <trkpt lat="48.86388" lon="2.40864">
        <ele>78.199996948242</ele>
        <time>2015-10-19T18:50:17Z</time>
      </trkpt>
      <trkpt lat="48.86371" lon="2.40873">
        <ele>78</ele>
        <time>2015-10-19T18:50:21Z</time>
      </trkpt>
      <trkpt lat="48.86352" lon="2.4088">
        <ele>77.800003051758</ele>
        <time>2015-10-19T18:50:25Z</time>
      </trkpt>
      <trkpt lat="48.8633" lon="2.40888">
        <ele>78.400001525879</ele>
        <time>2015-10-19T18:50:30Z</time>
      </trkpt>
      <trkpt lat="48.86309" lon="2.40897">
        <ele>78.599998474121</ele>
        <time>2015-10-19T18:50:34Z</time>
      </trkpt>
      <trkpt lat="48.86287" lon="2.40912">
        <ele>80</ele>
        <time>2015-10-19T18:50:38Z</time>
      </trkpt>
      <trkpt lat="48.86268" lon="2.40922">
        <ele>81.199996948242</ele>
        <time>2015-10-19T18:50:41Z</time>
      </trkpt>
      <trkpt lat="48.8625" lon="2.40931">
        <ele>82.199996948242</ele>
        <time>2015-10-19T18:50:44Z</time>
      </trkpt>
      <trkpt lat="48.86227" lon="2.40941">
        <ele>83.800003051758</ele>
        <time>2015-10-19T18:50:48Z</time>
      </trkpt>
      <trkpt lat="48.86203" lon="2.40944">
        <ele>84.400001525879</ele>
        <time>2015-10-19T18:50:52Z</time>
      </trkpt>
      <trkpt lat="48.86181" lon="2.40936">
        <ele>82.599998474121</ele>
        <time>2015-10-19T18:50:56Z</time>
      </trkpt>
      <trkpt lat="48.86157" lon="2.40935">
        <ele>82.400001525879</ele>
        <time>2015-10-19T18:51:00Z</time>
      </trkpt>
      <trkpt lat="48.86139" lon="2.40938">
        <ele>82.199996948242</ele>
        <time>2015-10-19T18:51:03Z</time>
      </trkpt>
      <trkpt lat="48.86116" lon="2.40938">
        <ele>81.400001525879</ele>
        <time>2015-10-19T18:51:07Z</time>
      </trkpt>
      <trkpt lat="48.8611" lon="2.4094">
        <ele>80.800003051758</ele>
        <time>2015-10-19T18:51:08Z</time>
      </trkpt>
      <trkpt lat="48.861" lon="2.40941">
        <ele>80.199996948242</ele>
        <time>2015-10-19T18:51:10Z</time>
      </trkpt>
      <trkpt lat="48.86082" lon="2.40945">
        <ele>79.800003051758</ele>
        <time>2015-10-19T18:51:14Z</time>
      </trkpt>
      <trkpt lat="48.86063" lon="2.40943">
        <ele>78.800003051758</ele>
        <time>2015-10-19T18:51:19Z</time>
      </trkpt>
      <trkpt lat="48.86059" lon="2.40942">
        <ele>78.599998474121</ele>
        <time>2015-10-19T18:51:20Z</time>
      </trkpt>
      <trkpt lat="48.86038" lon="2.4094">
        <ele>74.599998474121</ele>
        <time>2015-10-19T18:51:26Z</time>
      </trkpt>
      <trkpt lat="48.86016" lon="2.4094">
        <ele>73.599998474121</ele>
        <time>2015-10-19T18:51:31Z</time>
      </trkpt>
      <trkpt lat="48.85995" lon="2.40945">
        <ele>72.800003051758</ele>
        <time>2015-10-19T18:51:35Z</time>
      </trkpt>
      <trkpt lat="48.85975" lon="2.40951">
        <ele>69.599998474121</ele>
        <time>2015-10-19T18:51:39Z</time>
      </trkpt>
      <trkpt lat="48.85954" lon="2.40955">
        <ele>67.400001525879</ele>
        <time>2015-10-19T18:51:43Z</time>
      </trkpt>
      <trkpt lat="48.85933" lon="2.40964">
        <ele>66.199996948242</ele>
        <time>2015-10-19T18:51:47Z</time>
      </trkpt>
      <trkpt lat="48.8591" lon="2.40974">
        <ele>64.800003051758</ele>
        <time>2015-10-19T18:51:51Z</time>
      </trkpt>
      <trkpt lat="48.85892" lon="2.40986">
        <ele>63.20000076294</ele>
        <time>2015-10-19T18:51:54Z</time>
      </trkpt>
      <trkpt lat="48.85874" lon="2.40995">
        <ele>62.20000076294</ele>
        <time>2015-10-19T18:51:57Z</time>
      </trkpt>
      <trkpt lat="48.8587" lon="2.40988">
        <ele>62</ele>
        <time>2015-10-19T18:51:58Z</time>
      </trkpt>
      <trkpt lat="48.85849" lon="2.40984">
        <ele>61.20000076294</ele>
        <time>2015-10-19T18:52:02Z</time>
      </trkpt>
      <trkpt lat="48.85826" lon="2.4099">
        <ele>60</ele>
        <time>2015-10-19T18:52:06Z</time>
      </trkpt>
      <trkpt lat="48.85804" lon="2.40999">
        <ele>58.79999923706</ele>
        <time>2015-10-19T18:52:10Z</time>
      </trkpt>
      <trkpt lat="48.85782" lon="2.41">
        <ele>58</ele>
        <time>2015-10-19T18:52:14Z</time>
      </trkpt>
      <trkpt lat="48.85764" lon="2.41005">
        <ele>57</ele>
        <time>2015-10-19T18:52:17Z</time>
      </trkpt>
      <trkpt lat="48.85745" lon="2.41009">
        <ele>55.79999923706</ele>
        <time>2015-10-19T18:52:20Z</time>
      </trkpt>
      <trkpt lat="48.85727" lon="2.41016">
        <ele>55.20000076294</ele>
        <time>2015-10-19T18:52:23Z</time>
      </trkpt>
      <trkpt lat="48.85709" lon="2.4102">
        <ele>54.20000076294</ele>
        <time>2015-10-19T18:52:26Z</time>
      </trkpt>
      <trkpt lat="48.85691" lon="2.41029">
        <ele>54.400001525879</ele>
        <time>2015-10-19T18:52:29Z</time>
      </trkpt>
      <trkpt lat="48.85673" lon="2.41033">
        <ele>53.599998474121</ele>
        <time>2015-10-19T18:52:32Z</time>
      </trkpt>
      <trkpt lat="48.85654" lon="2.41037">
        <ele>53</ele>
        <time>2015-10-19T18:52:35Z</time>
      </trkpt>
      <trkpt lat="48.85635" lon="2.41039">
        <ele>52</ele>
        <time>2015-10-19T18:52:38Z</time>
      </trkpt>
      <trkpt lat="48.85614" lon="2.41042">
        <ele>50.79999923706</ele>
        <time>2015-10-19T18:52:42Z</time>
      </trkpt>
      <trkpt lat="48.85591" lon="2.41046">
        <ele>50</ele>
        <time>2015-10-19T18:52:46Z</time>
      </trkpt>
      <trkpt lat="48.85569" lon="2.4105">
        <ele>49</ele>
        <time>2015-10-19T18:52:50Z</time>
      </trkpt>
      <trkpt lat="48.85559" lon="2.41053">
        <ele>48.400001525879</ele>
        <time>2015-10-19T18:52:52Z</time>
      </trkpt>
      <trkpt lat="48.85551" lon="2.41055">
        <ele>48.599998474121</ele>
        <time>2015-10-19T18:52:54Z</time>
      </trkpt>
      <trkpt lat="48.85531" lon="2.41058">
        <ele>48</ele>
        <time>2015-10-19T18:52:58Z</time>
      </trkpt>
      <trkpt lat="48.85511" lon="2.41062">
        <ele>46.599998474121</ele>
        <time>2015-10-19T18:53:02Z</time>
      </trkpt>
      <trkpt lat="48.85488" lon="2.41066">
        <ele>45.79999923706</ele>
        <time>2015-10-19T18:53:06Z</time>
      </trkpt>
      <trkpt lat="48.8547" lon="2.41069">
        <ele>45</ele>
        <time>2015-10-19T18:53:09Z</time>
      </trkpt>
      <trkpt lat="48.85445" lon="2.4107">
        <ele>44.20000076294</ele>
        <time>2015-10-19T18:53:13Z</time>
      </trkpt>
      <trkpt lat="48.85426" lon="2.41074">
        <ele>43.400001525879</ele>
        <time>2015-10-19T18:53:16Z</time>
      </trkpt>
      <trkpt lat="48.85407" lon="2.41079">
        <ele>42.79999923706</ele>
        <time>2015-10-19T18:53:19Z</time>
      </trkpt>
      <trkpt lat="48.85389" lon="2.41082">
        <ele>42.20000076294</ele>
        <time>2015-10-19T18:53:22Z</time>
      </trkpt>
      <trkpt lat="48.85367" lon="2.41085">
        <ele>41</ele>
        <time>2015-10-19T18:53:26Z</time>
      </trkpt>
      <trkpt lat="48.85346" lon="2.41089">
        <ele>40.400001525879</ele>
        <time>2015-10-19T18:53:30Z</time>
      </trkpt>
      <trkpt lat="48.85324" lon="2.41086">
        <ele>40.20000076294</ele>
        <time>2015-10-19T18:53:35Z</time>
      </trkpt>
      <trkpt lat="48.85303" lon="2.4109">
        <ele>42</ele>
        <time>2015-10-19T18:53:39Z</time>
      </trkpt>
      <trkpt lat="48.85284" lon="2.4109">
        <ele>42.20000076294</ele>
        <time>2015-10-19T18:53:43Z</time>
      </trkpt>
      <trkpt lat="48.85265" lon="2.41091">
        <ele>42.20000076294</ele>
        <time>2015-10-19T18:53:47Z</time>
      </trkpt>
      <trkpt lat="48.85243" lon="2.41093">
        <ele>41.79999923706</ele>
        <time>2015-10-19T18:53:51Z</time>
      </trkpt>
      <trkpt lat="48.8522" lon="2.41096">
        <ele>41.599998474121</ele>
        <time>2015-10-19T18:53:55Z</time>
      </trkpt>
      <trkpt lat="48.85202" lon="2.41097">
        <ele>41.20000076294</ele>
        <time>2015-10-19T18:53:58Z</time>
      </trkpt>
      <trkpt lat="48.85182" lon="2.411">
        <ele>40.599998474121</ele>
        <time>2015-10-19T18:54:01Z</time>
      </trkpt>
      <trkpt lat="48.85163" lon="2.41102">
        <ele>40</ele>
        <time>2015-10-19T18:54:04Z</time>
      </trkpt>
      <trkpt lat="48.85144" lon="2.41105">
        <ele>39.400001525879</ele>
        <time>2015-10-19T18:54:07Z</time>
      </trkpt>
      <trkpt lat="48.85126" lon="2.41108">
        <ele>38.79999923706</ele>
        <time>2015-10-19T18:54:10Z</time>
      </trkpt>
      <trkpt lat="48.85107" lon="2.41111">
        <ele>39.20000076294</ele>
        <time>2015-10-19T18:54:13Z</time>
      </trkpt>
      <trkpt lat="48.85084" lon="2.4112">
        <ele>40.599998474121</ele>
        <time>2015-10-19T18:54:17Z</time>
      </trkpt>
      <trkpt lat="48.85079" lon="2.4112">
        <ele>41</ele>
        <time>2015-10-19T18:54:18Z</time>
      </trkpt>
      <trkpt lat="48.85055" lon="2.41126">
        <ele>42</ele>
        <time>2015-10-19T18:54:22Z</time>
      </trkpt>
      <trkpt lat="48.85032" lon="2.41133">
        <ele>43</ele>
        <time>2015-10-19T18:54:26Z</time>
      </trkpt>
      <trkpt lat="48.85008" lon="2.41139">
        <ele>43.400001525879</ele>
        <time>2015-10-19T18:54:30Z</time>
      </trkpt>
      <trkpt lat="48.84985" lon="2.41146">
        <ele>44</ele>
        <time>2015-10-19T18:54:34Z</time>
      </trkpt>
      <trkpt lat="48.84964" lon="2.41151">
        <ele>45.400001525879</ele>
        <time>2015-10-19T18:54:38Z</time>
      </trkpt>
      <trkpt lat="48.84942" lon="2.41151">
        <ele>46.20000076294</ele>
        <time>2015-10-19T18:54:42Z</time>
      </trkpt>
      <trkpt lat="48.8492" lon="2.41154">
        <ele>46.599998474121</ele>
        <time>2015-10-19T18:54:46Z</time>
      </trkpt>
      <trkpt lat="48.84915" lon="2.41154">
        <ele>46.599998474121</ele>
        <time>2015-10-19T18:54:47Z</time>
      </trkpt>
      <trkpt lat="48.84892" lon="2.41149">
        <ele>43.79999923706</ele>
        <time>2015-10-19T18:54:52Z</time>
      </trkpt>
      <trkpt lat="48.84887" lon="2.41149">
        <ele>43.20000076294</ele>
        <time>2015-10-19T18:54:53Z</time>
      </trkpt>
      <trkpt lat="48.84867" lon="2.41151">
        <ele>41.20000076294</ele>
        <time>2015-10-19T18:54:57Z</time>
      </trkpt>
      <trkpt lat="48.84844" lon="2.41155">
        <ele>39.400001525879</ele>
        <time>2015-10-19T18:55:01Z</time>
      </trkpt>
      <trkpt lat="48.84823" lon="2.41154">
        <ele>37.599998474121</ele>
        <time>2015-10-19T18:55:05Z</time>
      </trkpt>
      <trkpt lat="48.848" lon="2.41157">
        <ele>36.599998474121</ele>
        <time>2015-10-19T18:55:09Z</time>
      </trkpt>
      <trkpt lat="48.84778" lon="2.41161">
        <ele>36.20000076294</ele>
        <time>2015-10-19T18:55:13Z</time>
      </trkpt>
      <trkpt lat="48.84759" lon="2.41164">
        <ele>35.599998474121</ele>
        <time>2015-10-19T18:55:17Z</time>
      </trkpt>
      <trkpt lat="48.84747" lon="2.41173">
        <ele>35.400001525879</ele>
        <time>2015-10-19T18:55:19Z</time>
      </trkpt>
      <trkpt lat="48.84732" lon="2.41162">
        <ele>35.79999923706</ele>
        <time>2015-10-19T18:55:23Z</time>
      </trkpt>
      <trkpt lat="48.84729" lon="2.4112">
        <ele>37</ele>
        <time>2015-10-19T18:55:28Z</time>
      </trkpt>
      <trkpt lat="48.84735" lon="2.41086">
        <ele>40</ele>
        <time>2015-10-19T18:55:33Z</time>
      </trkpt>
      <trkpt lat="48.84736" lon="2.41081">
        <ele>41</ele>
        <time>2015-10-19T18:55:34Z</time>
      </trkpt>
      <trkpt lat="48.84738" lon="2.41073">
        <ele>43.20000076294</ele>
        <time>2015-10-19T18:55:40Z</time>
      </trkpt>
      <trkpt lat="48.84743" lon="2.41064">
        <ele>53.20000076294</ele>
        <time>2015-10-19T18:57:07Z</time>
      </trkpt>
      <trkpt lat="48.84743" lon="2.41056">
        <ele>61.20000076294</ele>
        <time>2015-10-19T18:58:00Z</time>
      </trkpt>
      <trkpt lat="48.8473" lon="2.41064">
        <ele>62.79999923706</ele>
        <time>2015-10-19T18:58:33Z</time>
      </trkpt>
      <trkpt lat="48.84718" lon="2.41066">
        <ele>54.20000076294</ele>
        <time>2015-10-19T18:59:16Z</time>
      </trkpt>
      <trkpt lat="48.84708" lon="2.4106">
        <ele>53.20000076294</ele>
        <time>2015-10-19T18:59:22Z</time>
      </trkpt>
      <trkpt lat="48.84696" lon="2.4106">
        <ele>52.79999923706</ele>
        <time>2015-10-19T18:59:31Z</time>
      </trkpt>
      <trkpt lat="48.84691" lon="2.41083">
        <ele>51.79999923706</ele>
        <time>2015-10-19T18:59:47Z</time>
      </trkpt>
      <trkpt lat="48.84687" lon="2.411">
        <ele>51.400001525879</ele>
        <time>2015-10-19T18:59:52Z</time>
      </trkpt>
      <trkpt lat="48.84685" lon="2.41115">
        <ele>51.20000076294</ele>
        <time>2015-10-19T18:59:57Z</time>
      </trkpt>
      <trkpt lat="48.84687" lon="2.41145">
        <ele>51.79999923706</ele>
        <time>2015-10-19T19:00:03Z</time>
      </trkpt>
      <trkpt lat="48.8469" lon="2.41173">
        <ele>51.20000076294</ele>
        <time>2015-10-19T19:00:08Z</time>
      </trkpt>
      <trkpt lat="48.8469" lon="2.41204">
        <ele>51.599998474121</ele>
        <time>2015-10-19T19:00:13Z</time>
      </trkpt>
      <trkpt lat="48.84689" lon="2.41237">
        <ele>52.400001525879</ele>
        <time>2015-10-19T19:00:18Z</time>
      </trkpt>
      <trkpt lat="48.84686" lon="2.41267">
        <ele>52.79999923706</ele>
        <time>2015-10-19T19:00:22Z</time>
      </trkpt>
      <trkpt lat="48.84689" lon="2.41299">
        <ele>51.599998474121</ele>
        <time>2015-10-19T19:00:26Z</time>
      </trkpt>
      <trkpt lat="48.84686" lon="2.41328">
        <ele>51.400001525879</ele>
        <time>2015-10-19T19:00:30Z</time>
      </trkpt>
      <trkpt lat="48.84684" lon="2.41346">
        <ele>51.79999923706</ele>
        <time>2015-10-19T19:00:33Z</time>
      </trkpt>
      <trkpt lat="48.84676" lon="2.4137">
        <ele>52</ele>
        <time>2015-10-19T19:00:38Z</time>
      </trkpt>
      <trkpt lat="48.84671" lon="2.4138">
        <ele>52.20000076294</ele>
        <time>2015-10-19T19:00:41Z</time>
      </trkpt>
      <trkpt lat="48.84658" lon="2.414">
        <ele>51.20000076294</ele>
        <time>2015-10-19T19:00:46Z</time>
      </trkpt>
      <trkpt lat="48.84647" lon="2.41428">
        <ele>49.79999923706</ele>
        <time>2015-10-19T19:00:51Z</time>
      </trkpt>
      <trkpt lat="48.84641" lon="2.41458">
        <ele>48.400001525879</ele>
        <time>2015-10-19T19:00:56Z</time>
      </trkpt>
      <trkpt lat="48.84643" lon="2.41489">
        <ele>46.599998474121</ele>
        <time>2015-10-19T19:01:03Z</time>
      </trkpt>
      <trkpt lat="48.84652" lon="2.41514">
        <ele>45</ele>
        <time>2015-10-19T19:01:09Z</time>
      </trkpt>
      <trkpt lat="48.84659" lon="2.41543">
        <ele>45.599998474121</ele>
        <time>2015-10-19T19:01:14Z</time>
      </trkpt>
      <trkpt lat="48.84659" lon="2.41574">
        <ele>45.599998474121</ele>
        <time>2015-10-19T19:01:18Z</time>
      </trkpt>
      <trkpt lat="48.84659" lon="2.41606">
        <ele>45.79999923706</ele>
        <time>2015-10-19T19:01:22Z</time>
      </trkpt>
      <trkpt lat="48.84658" lon="2.41636">
        <ele>48.79999923706</ele>
        <time>2015-10-19T19:01:26Z</time>
      </trkpt>
      <trkpt lat="48.84655" lon="2.41666">
        <ele>51.400001525879</ele>
        <time>2015-10-19T19:01:30Z</time>
      </trkpt>
      <trkpt lat="48.84652" lon="2.41697">
        <ele>53.79999923706</ele>
        <time>2015-10-19T19:01:34Z</time>
      </trkpt>
      <trkpt lat="48.8465" lon="2.41728">
        <ele>56</ele>
        <time>2015-10-19T19:01:38Z</time>
      </trkpt>
      <trkpt lat="48.84646" lon="2.41758">
        <ele>59.20000076294</ele>
        <time>2015-10-19T19:01:42Z</time>
      </trkpt>
      <trkpt lat="48.84645" lon="2.4178">
        <ele>61</ele>
        <time>2015-10-19T19:01:45Z</time>
      </trkpt>
      <trkpt lat="48.84645" lon="2.41811">
        <ele>63</ele>
        <time>2015-10-19T19:01:49Z</time>
      </trkpt>
      <trkpt lat="48.84643" lon="2.41844">
        <ele>65.599998474121</ele>
        <time>2015-10-19T19:01:53Z</time>
      </trkpt>
      <trkpt lat="48.84639" lon="2.41877">
        <ele>67.400001525879</ele>
        <time>2015-10-19T19:01:57Z</time>
      </trkpt>
      <trkpt lat="48.84636" lon="2.41909">
        <ele>70</ele>
        <time>2015-10-19T19:02:01Z</time>
      </trkpt>
      <trkpt lat="48.84635" lon="2.41935">
        <ele>74.400001525879</ele>
        <time>2015-10-19T19:02:05Z</time>
      </trkpt>
      <trkpt lat="48.84632" lon="2.41962">
        <ele>71.400001525879</ele>
        <time>2015-10-19T19:02:10Z</time>
      </trkpt>
      <trkpt lat="48.84638" lon="2.41975">
        <ele>71.599998474121</ele>
        <time>2015-10-19T19:02:15Z</time>
      </trkpt>
      <trkpt lat="48.84652" lon="2.41996">
        <ele>77.800003051758</ele>
        <time>2015-10-19T19:02:22Z</time>
      </trkpt>
      <trkpt lat="48.84662" lon="2.42021">
        <ele>80.199996948242</ele>
        <time>2015-10-19T19:02:28Z</time>
      </trkpt>
      <trkpt lat="48.84671" lon="2.42046">
        <ele>85</ele>
        <time>2015-10-19T19:02:36Z</time>
      </trkpt>
      <trkpt lat="48.84678" lon="2.42072">
        <ele>87.400001525879</ele>
        <time>2015-10-19T19:02:43Z</time>
      </trkpt>
      <trkpt lat="48.84688" lon="2.42096">
        <ele>88.599998474121</ele>
        <time>2015-10-19T19:02:48Z</time>
      </trkpt>
      <trkpt lat="48.84697" lon="2.42126">
        <ele>89</ele>
        <time>2015-10-19T19:02:53Z</time>
      </trkpt>
      <trkpt lat="48.84709" lon="2.42154">
        <ele>91</ele>
        <time>2015-10-19T19:02:58Z</time>
      </trkpt>
      <trkpt lat="48.84716" lon="2.42186">
        <ele>91.199996948242</ele>
        <time>2015-10-19T19:03:03Z</time>
      </trkpt>
      <trkpt lat="48.84725" lon="2.42211">
        <ele>91.400001525879</ele>
        <time>2015-10-19T19:03:07Z</time>
      </trkpt>
      <trkpt lat="48.84734" lon="2.42242">
        <ele>93.800003051758</ele>
        <time>2015-10-19T19:03:12Z</time>
      </trkpt>
      <trkpt lat="48.84744" lon="2.42267">
        <ele>94.800003051758</ele>
        <time>2015-10-19T19:03:16Z</time>
      </trkpt>
      <trkpt lat="48.84753" lon="2.42292">
        <ele>96.400001525879</ele>
        <time>2015-10-19T19:03:20Z</time>
      </trkpt>
      <trkpt lat="48.84762" lon="2.4232">
        <ele>98.400001525879</ele>
        <time>2015-10-19T19:03:24Z</time>
      </trkpt>
      <trkpt lat="48.84773" lon="2.42346">
        <ele>99</ele>
        <time>2015-10-19T19:03:27Z</time>
      </trkpt>
      <trkpt lat="48.84785" lon="2.42375">
        <ele>98.599998474121</ele>
        <time>2015-10-19T19:03:31Z</time>
      </trkpt>
      <trkpt lat="48.84787" lon="2.42381">
        <ele>98.599998474121</ele>
        <time>2015-10-19T19:03:32Z</time>
      </trkpt>
      <trkpt lat="48.84796" lon="2.42412">
        <ele>98.800003051758</ele>
        <time>2015-10-19T19:03:36Z</time>
      </trkpt>
      <trkpt lat="48.848" lon="2.42426">
        <ele>99.199996948242</ele>
        <time>2015-10-19T19:03:38Z</time>
      </trkpt>
      <trkpt lat="48.84805" lon="2.42439">
        <ele>99.400001525879</ele>
        <time>2015-10-19T19:03:40Z</time>
      </trkpt>
      <trkpt lat="48.84815" lon="2.42463">
        <ele>100</ele>
        <time>2015-10-19T19:03:44Z</time>
      </trkpt>
      <trkpt lat="48.84827" lon="2.42485">
        <ele>93.599998474121</ele>
        <time>2015-10-19T19:03:47Z</time>
      </trkpt>
      <trkpt lat="48.84835" lon="2.42509">
        <ele>89.599998474121</ele>
        <time>2015-10-19T19:03:50Z</time>
      </trkpt>
      <trkpt lat="48.84843" lon="2.42534">
        <ele>84.400001525879</ele>
        <time>2015-10-19T19:03:53Z</time>
      </trkpt>
      <trkpt lat="48.84854" lon="2.42562">
        <ele>82.199996948242</ele>
        <time>2015-10-19T19:03:57Z</time>
      </trkpt>
      <trkpt lat="48.84865" lon="2.42589">
        <ele>81</ele>
        <time>2015-10-19T19:04:01Z</time>
      </trkpt>
      <trkpt lat="48.84873" lon="2.42615">
        <ele>80.199996948242</ele>
        <time>2015-10-19T19:04:05Z</time>
      </trkpt>
      <trkpt lat="48.84882" lon="2.42636">
        <ele>79.800003051758</ele>
        <time>2015-10-19T19:04:09Z</time>
      </trkpt>
      <trkpt lat="48.84886" lon="2.42644">
        <ele>80</ele>
        <time>2015-10-19T19:04:11Z</time>
      </trkpt>
      <trkpt lat="48.84889" lon="2.42654">
        <ele>81</ele>
        <time>2015-10-19T19:04:13Z</time>
      </trkpt>
      <trkpt lat="48.84889" lon="2.4267">
        <ele>82.400001525879</ele>
        <time>2015-10-19T19:04:16Z</time>
      </trkpt>
      <trkpt lat="48.84888" lon="2.42695">
        <ele>82.800003051758</ele>
        <time>2015-10-19T19:04:21Z</time>
      </trkpt>
      <trkpt lat="48.84889" lon="2.42725">
        <ele>84.199996948242</ele>
        <time>2015-10-19T19:04:26Z</time>
      </trkpt>
      <trkpt lat="48.84888" lon="2.42754">
        <ele>85.400001525879</ele>
        <time>2015-10-19T19:04:30Z</time>
      </trkpt>
      <trkpt lat="48.84888" lon="2.42781">
        <ele>87</ele>
        <time>2015-10-19T19:04:34Z</time>
      </trkpt>
      <trkpt lat="48.84887" lon="2.42814">
        <ele>89.199996948242</ele>
        <time>2015-10-19T19:04:39Z</time>
      </trkpt>
      <trkpt lat="48.84886" lon="2.42848">
        <ele>91.199996948242</ele>
        <time>2015-10-19T19:04:44Z</time>
      </trkpt>
      <trkpt lat="48.84885" lon="2.42879">
        <ele>93.199996948242</ele>
        <time>2015-10-19T19:04:49Z</time>
      </trkpt>
      <trkpt lat="48.84885" lon="2.42898">
        <ele>94.599998474121</ele>
        <time>2015-10-19T19:04:52Z</time>
      </trkpt>
      <trkpt lat="48.84882" lon="2.4293">
        <ele>96.800003051758</ele>
        <time>2015-10-19T19:04:57Z</time>
      </trkpt>
      <trkpt lat="48.8488" lon="2.42962">
        <ele>99</ele>
        <time>2015-10-19T19:05:02Z</time>
      </trkpt>
      <trkpt lat="48.84879" lon="2.4299">
        <ele>101.19999694824</ele>
        <time>2015-10-19T19:05:06Z</time>
      </trkpt>
      <trkpt lat="48.84879" lon="2.42997">
        <ele>101.59999847412</ele>
        <time>2015-10-19T19:05:07Z</time>
      </trkpt>
      <trkpt lat="48.84878" lon="2.43026">
        <ele>103.19999694824</ele>
        <time>2015-10-19T19:05:11Z</time>
      </trkpt>
      <trkpt lat="48.84877" lon="2.43055">
        <ele>104.59999847412</ele>
        <time>2015-10-19T19:05:15Z</time>
      </trkpt>
      <trkpt lat="48.84876" lon="2.43086">
        <ele>101.80000305176</ele>
        <time>2015-10-19T19:05:19Z</time>
      </trkpt>
      <trkpt lat="48.84876" lon="2.43116">
        <ele>102</ele>
        <time>2015-10-19T19:05:23Z</time>
      </trkpt>
      <trkpt lat="48.84876" lon="2.43144">
        <ele>103.59999847412</ele>
        <time>2015-10-19T19:05:27Z</time>
      </trkpt>
      <trkpt lat="48.84875" lon="2.43176">
        <ele>107.19999694824</ele>
        <time>2015-10-19T19:05:32Z</time>
      </trkpt>
      <trkpt lat="48.84872" lon="2.43206">
        <ele>111</ele>
        <time>2015-10-19T19:05:38Z</time>
      </trkpt>
      <trkpt lat="48.84871" lon="2.43212">
        <ele>112</ele>
        <time>2015-10-19T19:05:40Z</time>
      </trkpt>
      <trkpt lat="48.84871" lon="2.43217">
        <ele>112.80000305176</ele>
        <time>2015-10-19T19:05:42Z</time>
      </trkpt>
      <trkpt lat="48.84871" lon="2.43234">
        <ele>111</ele>
        <time>2015-10-19T19:05:46Z</time>
      </trkpt>
      <trkpt lat="48.84871" lon="2.43245">
        <ele>111</ele>
        <time>2015-10-19T19:05:48Z</time>
      </trkpt>
      <trkpt lat="48.84869" lon="2.43276">
        <ele>111.59999847412</ele>
        <time>2015-10-19T19:05:53Z</time>
      </trkpt>
      <trkpt lat="48.84866" lon="2.43307">
        <ele>112.80000305176</ele>
        <time>2015-10-19T19:05:58Z</time>
      </trkpt>
      <trkpt lat="48.84865" lon="2.43334">
        <ele>114</ele>
        <time>2015-10-19T19:06:02Z</time>
      </trkpt>
      <trkpt lat="48.84865" lon="2.43362">
        <ele>115</ele>
        <time>2015-10-19T19:06:06Z</time>
      </trkpt>
      <trkpt lat="48.84866" lon="2.43393">
        <ele>116.19999694824</ele>
        <time>2015-10-19T19:06:10Z</time>
      </trkpt>
      <trkpt lat="48.84867" lon="2.43423">
        <ele>117.40000152588</ele>
        <time>2015-10-19T19:06:14Z</time>
      </trkpt>
      <trkpt lat="48.84865" lon="2.43451">
        <ele>119</ele>
        <time>2015-10-19T19:06:18Z</time>
      </trkpt>
      <trkpt lat="48.84864" lon="2.43458">
        <ele>119.19999694824</ele>
        <time>2015-10-19T19:06:19Z</time>
      </trkpt>
      <trkpt lat="48.84862" lon="2.43471">
        <ele>120</ele>
        <time>2015-10-19T19:06:21Z</time>
      </trkpt>
      <trkpt lat="48.84861" lon="2.43501">
        <ele>121.80000305176</ele>
        <time>2015-10-19T19:06:25Z</time>
      </trkpt>
      <trkpt lat="48.8486" lon="2.43532">
        <ele>123.40000152588</ele>
        <time>2015-10-19T19:06:29Z</time>
      </trkpt>
      <trkpt lat="48.84859" lon="2.43565">
        <ele>125.40000152588</ele>
        <time>2015-10-19T19:06:33Z</time>
      </trkpt>
      <trkpt lat="48.84856" lon="2.43598">
        <ele>127.40000152588</ele>
        <time>2015-10-19T19:06:37Z</time>
      </trkpt>
      <trkpt lat="48.84855" lon="2.43629">
        <ele>129.60000610352</ele>
        <time>2015-10-19T19:06:41Z</time>
      </trkpt>
      <trkpt lat="48.84852" lon="2.4366">
        <ele>132</ele>
        <time>2015-10-19T19:06:46Z</time>
      </trkpt>
      <trkpt lat="48.84849" lon="2.43672">
        <ele>133.19999694824</ele>
        <time>2015-10-19T19:06:49Z</time>
      </trkpt>
      <trkpt lat="48.84846" lon="2.43678">
        <ele>134.39999389648</ele>
        <time>2015-10-19T19:06:52Z</time>
      </trkpt>
      <trkpt lat="48.84842" lon="2.43688">
        <ele>135.80000305176</ele>
        <time>2015-10-19T19:06:56Z</time>
      </trkpt>
      <trkpt lat="48.8484" lon="2.43706">
        <ele>137.19999694824</ele>
        <time>2015-10-19T19:07:00Z</time>
      </trkpt>
      <trkpt lat="48.84838" lon="2.4374">
        <ele>135.60000610352</ele>
        <time>2015-10-19T19:07:05Z</time>
      </trkpt>
      <trkpt lat="48.84836" lon="2.43771">
        <ele>131.39999389648</ele>
        <time>2015-10-19T19:07:09Z</time>
      </trkpt>
      <trkpt lat="48.84832" lon="2.43801">
        <ele>132.80000305176</ele>
        <time>2015-10-19T19:07:13Z</time>
      </trkpt>
      <trkpt lat="48.84827" lon="2.43833">
        <ele>133.80000305176</ele>
        <time>2015-10-19T19:07:17Z</time>
      </trkpt>
      <trkpt lat="48.84823" lon="2.43865">
        <ele>133.80000305176</ele>
        <time>2015-10-19T19:07:21Z</time>
      </trkpt>
      <trkpt lat="48.84818" lon="2.43897">
        <ele>133.19999694824</ele>
        <time>2015-10-19T19:07:25Z</time>
      </trkpt>
      <trkpt lat="48.84814" lon="2.43928">
        <ele>133.19999694824</ele>
        <time>2015-10-19T19:07:29Z</time>
      </trkpt>
      <trkpt lat="48.84811" lon="2.43956">
        <ele>133.60000610352</ele>
        <time>2015-10-19T19:07:33Z</time>
      </trkpt>
      <trkpt lat="48.84811" lon="2.43981">
        <ele>134.19999694824</ele>
        <time>2015-10-19T19:07:37Z</time>
      </trkpt>
      <trkpt lat="48.84795" lon="2.43991">
        <ele>136.19999694824</ele>
        <time>2015-10-19T19:07:43Z</time>
      </trkpt>
      <trkpt lat="48.8479" lon="2.43991">
        <ele>136.60000610352</ele>
        <time>2015-10-19T19:07:44Z</time>
      </trkpt>
      <trkpt lat="48.84778" lon="2.43993">
        <ele>137.80000305176</ele>
        <time>2015-10-19T19:07:47Z</time>
      </trkpt>
      <trkpt lat="48.8477" lon="2.43993">
        <ele>138.39999389648</ele>
        <time>2015-10-19T19:07:49Z</time>
      </trkpt>
      <trkpt lat="48.84759" lon="2.43993">
        <ele>139.19999694824</ele>
        <time>2015-10-19T19:07:52Z</time>
      </trkpt>
      <trkpt lat="48.8474" lon="2.43998">
        <ele>142.60000610352</ele>
        <time>2015-10-19T19:07:58Z</time>
      </trkpt>
      <trkpt lat="48.84732" lon="2.44019">
        <ele>143</ele>
        <time>2015-10-19T19:08:04Z</time>
      </trkpt>
      <trkpt lat="48.84728" lon="2.4405">
        <ele>142.39999389648</ele>
        <time>2015-10-19T19:08:09Z</time>
      </trkpt>
      <trkpt lat="48.84723" lon="2.44081">
        <ele>140.80000305176</ele>
        <time>2015-10-19T19:08:14Z</time>
      </trkpt>
      <trkpt lat="48.8472" lon="2.44112">
        <ele>140.80000305176</ele>
        <time>2015-10-19T19:08:19Z</time>
      </trkpt>
      <trkpt lat="48.84717" lon="2.44141">
        <ele>140.60000610352</ele>
        <time>2015-10-19T19:08:24Z</time>
      </trkpt>
      <trkpt lat="48.84716" lon="2.44173">
        <ele>139.60000610352</ele>
        <time>2015-10-19T19:08:30Z</time>
      </trkpt>
      <trkpt lat="48.84715" lon="2.442">
        <ele>139.39999389648</ele>
        <time>2015-10-19T19:08:34Z</time>
      </trkpt>
      <trkpt lat="48.84713" lon="2.44233">
        <ele>138.39999389648</ele>
        <time>2015-10-19T19:08:39Z</time>
      </trkpt>
      <trkpt lat="48.8471" lon="2.44266">
        <ele>138.19999694824</ele>
        <time>2015-10-19T19:08:44Z</time>
      </trkpt>
      <trkpt lat="48.84711" lon="2.44279">
        <ele>138.80000305176</ele>
        <time>2015-10-19T19:08:46Z</time>
      </trkpt>
      <trkpt lat="48.8471" lon="2.44304">
        <ele>139.19999694824</ele>
        <time>2015-10-19T19:08:50Z</time>
      </trkpt>
      <trkpt lat="48.84707" lon="2.44324">
        <ele>140.39999389648</ele>
        <time>2015-10-19T19:08:53Z</time>
      </trkpt>
      <trkpt lat="48.8471" lon="2.44359">
        <ele>138.39999389648</ele>
        <time>2015-10-19T19:08:58Z</time>
      </trkpt>
      <trkpt lat="48.84712" lon="2.44394">
        <ele>131.60000610352</ele>
        <time>2015-10-19T19:09:02Z</time>
      </trkpt>
      <trkpt lat="48.84712" lon="2.44402">
        <ele>130.60000610352</ele>
        <time>2015-10-19T19:09:03Z</time>
      </trkpt>
      <trkpt lat="48.84711" lon="2.44418">
        <ele>128.39999389648</ele>
        <time>2015-10-19T19:09:05Z</time>
      </trkpt>
      <trkpt lat="48.8471" lon="2.44452">
        <ele>123.40000152588</ele>
        <time>2015-10-19T19:09:09Z</time>
      </trkpt>
      <trkpt lat="48.84709" lon="2.44485">
        <ele>118.19999694824</ele>
        <time>2015-10-19T19:09:13Z</time>
      </trkpt>
      <trkpt lat="48.84706" lon="2.44519">
        <ele>111.80000305176</ele>
        <time>2015-10-19T19:09:17Z</time>
      </trkpt>
      <trkpt lat="48.84704" lon="2.44553">
        <ele>107.80000305176</ele>
        <time>2015-10-19T19:09:21Z</time>
      </trkpt>
      <trkpt lat="48.84701" lon="2.44583">
        <ele>105.19999694824</ele>
        <time>2015-10-19T19:09:25Z</time>
      </trkpt>
      <trkpt lat="48.84699" lon="2.44614">
        <ele>104</ele>
        <time>2015-10-19T19:09:29Z</time>
      </trkpt>
      <trkpt lat="48.84697" lon="2.44644">
        <ele>103.19999694824</ele>
        <time>2015-10-19T19:09:33Z</time>
      </trkpt>
      <trkpt lat="48.84696" lon="2.44671">
        <ele>100.59999847412</ele>
        <time>2015-10-19T19:09:37Z</time>
      </trkpt>
      <trkpt lat="48.84692" lon="2.44704">
        <ele>99.800003051758</ele>
        <time>2015-10-19T19:09:42Z</time>
      </trkpt>
      <trkpt lat="48.8469" lon="2.44737">
        <ele>98.400001525879</ele>
        <time>2015-10-19T19:09:47Z</time>
      </trkpt>
      <trkpt lat="48.84688" lon="2.44764">
        <ele>99</ele>
        <time>2015-10-19T19:09:51Z</time>
      </trkpt>
      <trkpt lat="48.84687" lon="2.44778">
        <ele>98.199996948242</ele>
        <time>2015-10-19T19:09:53Z</time>
      </trkpt>
      <trkpt lat="48.84686" lon="2.44811">
        <ele>96.199996948242</ele>
        <time>2015-10-19T19:09:58Z</time>
      </trkpt>
      <trkpt lat="48.84685" lon="2.44824">
        <ele>95.800003051758</ele>
        <time>2015-10-19T19:10:00Z</time>
      </trkpt>
      <trkpt lat="48.84683" lon="2.44857">
        <ele>94</ele>
        <time>2015-10-19T19:10:05Z</time>
      </trkpt>
      <trkpt lat="48.84682" lon="2.44887">
        <ele>94</ele>
        <time>2015-10-19T19:10:09Z</time>
      </trkpt>
      <trkpt lat="48.84679" lon="2.44917">
        <ele>93.599998474121</ele>
        <time>2015-10-19T19:10:13Z</time>
      </trkpt>
      <trkpt lat="48.84675" lon="2.44946">
        <ele>92.599998474121</ele>
        <time>2015-10-19T19:10:17Z</time>
      </trkpt>
      <trkpt lat="48.84672" lon="2.44967">
        <ele>92</ele>
        <time>2015-10-19T19:10:20Z</time>
      </trkpt>
      <trkpt lat="48.84666" lon="2.44996">
        <ele>90.800003051758</ele>
        <time>2015-10-19T19:10:24Z</time>
      </trkpt>
      <trkpt lat="48.84661" lon="2.45024">
        <ele>90.199996948242</ele>
        <time>2015-10-19T19:10:28Z</time>
      </trkpt>
      <trkpt lat="48.84657" lon="2.45055">
        <ele>90.400001525879</ele>
        <time>2015-10-19T19:10:33Z</time>
      </trkpt>
      <trkpt lat="48.84654" lon="2.45076">
        <ele>90</ele>
        <time>2015-10-19T19:10:37Z</time>
      </trkpt>
      <trkpt lat="48.84654" lon="2.45109">
        <ele>82.800003051758</ele>
        <time>2015-10-19T19:10:43Z</time>
      </trkpt>
      <trkpt lat="48.84654" lon="2.45119">
        <ele>81</ele>
        <time>2015-10-19T19:10:45Z</time>
      </trkpt>
      <trkpt lat="48.84653" lon="2.4513">
        <ele>74.800003051758</ele>
        <time>2015-10-19T19:10:49Z</time>
      </trkpt>
      <trkpt lat="48.84648" lon="2.45142">
        <ele>64.599998474121</ele>
        <time>2015-10-19T19:11:19Z</time>
      </trkpt>
      <trkpt lat="48.84664" lon="2.4516">
        <ele>65.199996948242</ele>
        <time>2015-10-19T19:11:27Z</time>
      </trkpt>
      <trkpt lat="48.84682" lon="2.45169">
        <ele>66</ele>
        <time>2015-10-19T19:11:33Z</time>
      </trkpt>
      <trkpt lat="48.84693" lon="2.45177">
        <ele>65.400001525879</ele>
        <time>2015-10-19T19:11:37Z</time>
      </trkpt>
      <trkpt lat="48.8469" lon="2.45194">
        <ele>66.800003051758</ele>
        <time>2015-10-19T19:11:45Z</time>
      </trkpt>
      <trkpt lat="48.84685" lon="2.45217">
        <ele>69</ele>
        <time>2015-10-19T19:11:53Z</time>
      </trkpt>
      <trkpt lat="48.8468" lon="2.45247">
        <ele>70.599998474121</ele>
        <time>2015-10-19T19:12:00Z</time>
      </trkpt>
      <trkpt lat="48.8468" lon="2.45275">
        <ele>72</ele>
        <time>2015-10-19T19:12:05Z</time>
      </trkpt>
      <trkpt lat="48.84683" lon="2.45306">
        <ele>72.599998474121</ele>
        <time>2015-10-19T19:12:11Z</time>
      </trkpt>
      <trkpt lat="48.84683" lon="2.45335">
        <ele>75.599998474121</ele>
        <time>2015-10-19T19:12:16Z</time>
      </trkpt>
      <trkpt lat="48.8468" lon="2.45363">
        <ele>76.800003051758</ele>
        <time>2015-10-19T19:12:20Z</time>
      </trkpt>
      <trkpt lat="48.84676" lon="2.45393">
        <ele>79.800003051758</ele>
        <time>2015-10-19T19:12:25Z</time>
      </trkpt>
      <trkpt lat="48.84669" lon="2.45422">
        <ele>84</ele>
        <time>2015-10-19T19:12:31Z</time>
      </trkpt>
      <trkpt lat="48.84667" lon="2.4545">
        <ele>88.400001525879</ele>
        <time>2015-10-19T19:12:36Z</time>
      </trkpt>
      <trkpt lat="48.84662" lon="2.4548">
        <ele>92.199996948242</ele>
        <time>2015-10-19T19:12:41Z</time>
      </trkpt>
      <trkpt lat="48.84657" lon="2.45506">
        <ele>96.199996948242</ele>
        <time>2015-10-19T19:12:45Z</time>
      </trkpt>
      <trkpt lat="48.8465" lon="2.45535">
        <ele>100</ele>
        <time>2015-10-19T19:12:50Z</time>
      </trkpt>
      <trkpt lat="48.8465" lon="2.45565">
        <ele>89.800003051758</ele>
        <time>2015-10-19T19:12:54Z</time>
      </trkpt>
      <trkpt lat="48.84634" lon="2.45589">
        <ele>89.199996948242</ele>
        <time>2015-10-19T19:12:59Z</time>
      </trkpt>
      <trkpt lat="48.84625" lon="2.45603">
        <ele>89.800003051758</ele>
        <time>2015-10-19T19:13:02Z</time>
      </trkpt>
      <trkpt lat="48.84613" lon="2.45626">
        <ele>92.199996948242</ele>
        <time>2015-10-19T19:13:07Z</time>
      </trkpt>
      <trkpt lat="48.84601" lon="2.45648">
        <ele>94.599998474121</ele>
        <time>2015-10-19T19:13:12Z</time>
      </trkpt>
      <trkpt lat="48.8459" lon="2.45672">
        <ele>98</ele>
        <time>2015-10-19T19:13:18Z</time>
      </trkpt>
      <trkpt lat="48.84583" lon="2.45683">
        <ele>102.40000152588</ele>
        <time>2015-10-19T19:13:25Z</time>
      </trkpt>
      <trkpt lat="48.84584" lon="2.45706">
        <ele>109</ele>
        <time>2015-10-19T19:13:45Z</time>
      </trkpt>
      <trkpt lat="48.84572" lon="2.45721">
        <ele>110.59999847412</ele>
        <time>2015-10-19T19:13:55Z</time>
      </trkpt>
      <trkpt lat="48.84574" lon="2.45721">
        <ele>111.40000152588</ele>
        <time>2015-10-19T19:13:59Z</time>
      </trkpt>
      <trkpt lat="48.84597" lon="2.45708">
        <ele>109.59999847412</ele>
        <time>2015-10-19T19:14:11Z</time>
      </trkpt>
      <trkpt lat="48.846" lon="2.45728">
        <ele>108.19999694824</ele>
        <time>2015-10-19T19:14:49Z</time>
      </trkpt>
      <trkpt lat="48.84591" lon="2.45751">
        <ele>109.40000152588</ele>
        <time>2015-10-19T19:14:54Z</time>
      </trkpt>
      <trkpt lat="48.84579" lon="2.45776">
        <ele>110.80000305176</ele>
        <time>2015-10-19T19:14:59Z</time>
      </trkpt>
      <trkpt lat="48.84567" lon="2.45797">
        <ele>111.59999847412</ele>
        <time>2015-10-19T19:15:03Z</time>
      </trkpt>
      <trkpt lat="48.84555" lon="2.45825">
        <ele>111.19999694824</ele>
        <time>2015-10-19T19:15:08Z</time>
      </trkpt>
      <trkpt lat="48.84545" lon="2.45851">
        <ele>111.40000152588</ele>
        <time>2015-10-19T19:15:13Z</time>
      </trkpt>
      <trkpt lat="48.84531" lon="2.45871">
        <ele>109.59999847412</ele>
        <time>2015-10-19T19:15:17Z</time>
      </trkpt>
      <trkpt lat="48.84522" lon="2.45898">
        <ele>107.19999694824</ele>
        <time>2015-10-19T19:15:23Z</time>
      </trkpt>
      <trkpt lat="48.84517" lon="2.45931">
        <ele>105.40000152588</ele>
        <time>2015-10-19T19:15:29Z</time>
      </trkpt>
      <trkpt lat="48.84513" lon="2.45957">
        <ele>103.19999694824</ele>
        <time>2015-10-19T19:15:34Z</time>
      </trkpt>
      <trkpt lat="48.84508" lon="2.45985">
        <ele>101.40000152588</ele>
        <time>2015-10-19T19:15:40Z</time>
      </trkpt>
      <trkpt lat="48.84503" lon="2.46016">
        <ele>98.199996948242</ele>
        <time>2015-10-19T19:15:46Z</time>
      </trkpt>
      <trkpt lat="48.84493" lon="2.46043">
        <ele>96.599998474121</ele>
        <time>2015-10-19T19:15:52Z</time>
      </trkpt>
      <trkpt lat="48.84482" lon="2.46066">
        <ele>93.599998474121</ele>
        <time>2015-10-19T19:15:57Z</time>
      </trkpt>
      <trkpt lat="48.84475" lon="2.46092">
        <ele>90.599998474121</ele>
        <time>2015-10-19T19:16:02Z</time>
      </trkpt>
      <trkpt lat="48.84468" lon="2.4612">
        <ele>90.800003051758</ele>
        <time>2015-10-19T19:16:07Z</time>
      </trkpt>
      <trkpt lat="48.84463" lon="2.46147">
        <ele>90.199996948242</ele>
        <time>2015-10-19T19:16:12Z</time>
      </trkpt>
      <trkpt lat="48.84458" lon="2.46175">
        <ele>90.599998474121</ele>
        <time>2015-10-19T19:16:17Z</time>
      </trkpt>
      <trkpt lat="48.84452" lon="2.46202">
        <ele>89.800003051758</ele>
        <time>2015-10-19T19:16:22Z</time>
      </trkpt>
      <trkpt lat="48.84447" lon="2.46234">
        <ele>90.599998474121</ele>
        <time>2015-10-19T19:16:28Z</time>
      </trkpt>
      <trkpt lat="48.84444" lon="2.46263">
        <ele>87.800003051758</ele>
        <time>2015-10-19T19:16:33Z</time>
      </trkpt>
      <trkpt lat="48.84439" lon="2.46292">
        <ele>89.199996948242</ele>
        <time>2015-10-19T19:16:38Z</time>
      </trkpt>
      <trkpt lat="48.84433" lon="2.46321">
        <ele>91.199996948242</ele>
        <time>2015-10-19T19:16:43Z</time>
      </trkpt>
      <trkpt lat="48.84427" lon="2.46352">
        <ele>93.199996948242</ele>
        <time>2015-10-19T19:16:48Z</time>
      </trkpt>
      <trkpt lat="48.84419" lon="2.4638">
        <ele>96</ele>
        <time>2015-10-19T19:16:53Z</time>
      </trkpt>
      <trkpt lat="48.84413" lon="2.46411">
        <ele>92.199996948242</ele>
        <time>2015-10-19T19:16:58Z</time>
      </trkpt>
      <trkpt lat="48.84406" lon="2.46442">
        <ele>91.199996948242</ele>
        <time>2015-10-19T19:17:03Z</time>
      </trkpt>
      <trkpt lat="48.84399" lon="2.46473">
        <ele>91</ele>
        <time>2015-10-19T19:17:08Z</time>
      </trkpt>
      <trkpt lat="48.84392" lon="2.46504">
        <ele>91.199996948242</ele>
        <time>2015-10-19T19:17:13Z</time>
      </trkpt>
      <trkpt lat="48.84385" lon="2.46533">
        <ele>91</ele>
        <time>2015-10-19T19:17:18Z</time>
      </trkpt>
      <trkpt lat="48.84379" lon="2.46561">
        <ele>91.199996948242</ele>
        <time>2015-10-19T19:17:23Z</time>
      </trkpt>
      <trkpt lat="48.84377" lon="2.4657">
        <ele>91</ele>
        <time>2015-10-19T19:17:25Z</time>
      </trkpt>
      <trkpt lat="48.84375" lon="2.4658">
        <ele>90.599998474121</ele>
        <time>2015-10-19T19:17:27Z</time>
      </trkpt>
      <trkpt lat="48.8436" lon="2.46582">
        <ele>84.800003051758</ele>
        <time>2015-10-19T19:17:32Z</time>
      </trkpt>
      <trkpt lat="48.84342" lon="2.46572">
        <ele>72.800003051758</ele>
        <time>2015-10-19T19:17:38Z</time>
      </trkpt>
      <trkpt lat="48.8434" lon="2.46574">
        <ele>71.199996948242</ele>
        <time>2015-10-19T19:17:39Z</time>
      </trkpt>
      <trkpt lat="48.84326" lon="2.46597">
        <ele>68.400001525879</ele>
        <time>2015-10-19T19:17:45Z</time>
      </trkpt>
      <trkpt lat="48.84314" lon="2.46621">
        <ele>67.800003051758</ele>
        <time>2015-10-19T19:17:52Z</time>
      </trkpt>
      <trkpt lat="48.84301" lon="2.4664">
        <ele>67.400001525879</ele>
        <time>2015-10-19T19:17:57Z</time>
      </trkpt>
      <trkpt lat="48.84286" lon="2.46663">
        <ele>67.199996948242</ele>
        <time>2015-10-19T19:18:02Z</time>
      </trkpt>
      <trkpt lat="48.84271" lon="2.46684">
        <ele>67.400001525879</ele>
        <time>2015-10-19T19:18:07Z</time>
      </trkpt>
      <trkpt lat="48.84254" lon="2.46704">
        <ele>68.800003051758</ele>
        <time>2015-10-19T19:18:12Z</time>
      </trkpt>
      <trkpt lat="48.84236" lon="2.46724">
        <ele>73.800003051758</ele>
        <time>2015-10-19T19:18:17Z</time>
      </trkpt>
      <trkpt lat="48.84221" lon="2.4674">
        <ele>76.599998474121</ele>
        <time>2015-10-19T19:18:22Z</time>
      </trkpt>
      <trkpt lat="48.84206" lon="2.46758">
        <ele>79.599998474121</ele>
        <time>2015-10-19T19:18:27Z</time>
      </trkpt>
      <trkpt lat="48.84188" lon="2.46779">
        <ele>82</ele>
        <time>2015-10-19T19:18:32Z</time>
      </trkpt>
      <trkpt lat="48.84172" lon="2.46794">
        <ele>83.800003051758</ele>
        <time>2015-10-19T19:18:36Z</time>
      </trkpt>
      <trkpt lat="48.84156" lon="2.46809">
        <ele>84.800003051758</ele>
        <time>2015-10-19T19:18:40Z</time>
      </trkpt>
      <trkpt lat="48.8414" lon="2.46824">
        <ele>85.400001525879</ele>
        <time>2015-10-19T19:18:44Z</time>
      </trkpt>
      <trkpt lat="48.84122" lon="2.46839">
        <ele>86.199996948242</ele>
        <time>2015-10-19T19:18:48Z</time>
      </trkpt>
      <trkpt lat="48.84103" lon="2.46854">
        <ele>86.800003051758</ele>
        <time>2015-10-19T19:18:53Z</time>
      </trkpt>
      <trkpt lat="48.84096" lon="2.46858">
        <ele>86.599998474121</ele>
        <time>2015-10-19T19:18:55Z</time>
      </trkpt>
      <trkpt lat="48.84082" lon="2.46869">
        <ele>87</ele>
        <time>2015-10-19T19:18:59Z</time>
      </trkpt>
      <trkpt lat="48.84063" lon="2.46884">
        <ele>86.400001525879</ele>
        <time>2015-10-19T19:19:03Z</time>
      </trkpt>
      <trkpt lat="48.84045" lon="2.469">
        <ele>86.199996948242</ele>
        <time>2015-10-19T19:19:07Z</time>
      </trkpt>
      <trkpt lat="48.84028" lon="2.46916">
        <ele>86.400001525879</ele>
        <time>2015-10-19T19:19:11Z</time>
      </trkpt>
      <trkpt lat="48.84015" lon="2.46928">
        <ele>86.599998474121</ele>
        <time>2015-10-19T19:19:14Z</time>
      </trkpt>
      <trkpt lat="48.83999" lon="2.46943">
        <ele>86.800003051758</ele>
        <time>2015-10-19T19:19:18Z</time>
      </trkpt>
      <trkpt lat="48.83982" lon="2.46963">
        <ele>80.199996948242</ele>
        <time>2015-10-19T19:19:22Z</time>
      </trkpt>
      <trkpt lat="48.83965" lon="2.46979">
        <ele>79.800003051758</ele>
        <time>2015-10-19T19:19:26Z</time>
      </trkpt>
      <trkpt lat="48.8395" lon="2.46995">
        <ele>76.400001525879</ele>
        <time>2015-10-19T19:19:30Z</time>
      </trkpt>
      <trkpt lat="48.83931" lon="2.47012">
        <ele>76.800003051758</ele>
        <time>2015-10-19T19:19:35Z</time>
      </trkpt>
      <trkpt lat="48.83911" lon="2.47027">
        <ele>77.400001525879</ele>
        <time>2015-10-19T19:19:40Z</time>
      </trkpt>
      <trkpt lat="48.83895" lon="2.4704">
        <ele>78.199996948242</ele>
        <time>2015-10-19T19:19:44Z</time>
      </trkpt>
      <trkpt lat="48.83876" lon="2.47057">
        <ele>77.800003051758</ele>
        <time>2015-10-19T19:19:49Z</time>
      </trkpt>
      <trkpt lat="48.83862" lon="2.4707">
        <ele>78</ele>
        <time>2015-10-19T19:19:53Z</time>
      </trkpt>
      <trkpt lat="48.83843" lon="2.47089">
        <ele>78.199996948242</ele>
        <time>2015-10-19T19:19:57Z</time>
      </trkpt>
      <trkpt lat="48.83825" lon="2.47106">
        <ele>78.199996948242</ele>
        <time>2015-10-19T19:20:01Z</time>
      </trkpt>
      <trkpt lat="48.83807" lon="2.47124">
        <ele>79</ele>
        <time>2015-10-19T19:20:06Z</time>
      </trkpt>
      <trkpt lat="48.83803" lon="2.47127">
        <ele>79.199996948242</ele>
        <time>2015-10-19T19:20:07Z</time>
      </trkpt>
      <trkpt lat="48.83783" lon="2.47143">
        <ele>78</ele>
        <time>2015-10-19T19:20:12Z</time>
      </trkpt>
      <trkpt lat="48.83776" lon="2.47149">
        <ele>77.400001525879</ele>
        <time>2015-10-19T19:20:14Z</time>
      </trkpt>
      <trkpt lat="48.83759" lon="2.47166">
        <ele>73.599998474121</ele>
        <time>2015-10-19T19:20:19Z</time>
      </trkpt>
      <trkpt lat="48.83756" lon="2.47169">
        <ele>73.400001525879</ele>
        <time>2015-10-19T19:20:20Z</time>
      </trkpt>
      <trkpt lat="48.83739" lon="2.47181">
        <ele>74.599998474121</ele>
        <time>2015-10-19T19:20:25Z</time>
      </trkpt>
      <trkpt lat="48.83736" lon="2.47184">
        <ele>74.599998474121</ele>
        <time>2015-10-19T19:20:26Z</time>
      </trkpt>
      <trkpt lat="48.83719" lon="2.47199">
        <ele>75.199996948242</ele>
        <time>2015-10-19T19:20:31Z</time>
      </trkpt>
      <trkpt lat="48.83701" lon="2.47213">
        <ele>74.800003051758</ele>
        <time>2015-10-19T19:20:36Z</time>
      </trkpt>
      <trkpt lat="48.83683" lon="2.4723">
        <ele>75.800003051758</ele>
        <time>2015-10-19T19:20:41Z</time>
      </trkpt>
      <trkpt lat="48.83666" lon="2.47246">
        <ele>76.599998474121</ele>
        <time>2015-10-19T19:20:46Z</time>
      </trkpt>
      <trkpt lat="48.83648" lon="2.47259">
        <ele>78.199996948242</ele>
        <time>2015-10-19T19:20:51Z</time>
      </trkpt>
      <trkpt lat="48.83631" lon="2.4727">
        <ele>79.800003051758</ele>
        <time>2015-10-19T19:20:56Z</time>
      </trkpt>
      <trkpt lat="48.83621" lon="2.47278">
        <ele>81</ele>
        <time>2015-10-19T19:20:59Z</time>
      </trkpt>
      <trkpt lat="48.83609" lon="2.4729">
        <ele>79.199996948242</ele>
        <time>2015-10-19T19:21:03Z</time>
      </trkpt>
      <trkpt lat="48.83595" lon="2.47305">
        <ele>80.400001525879</ele>
        <time>2015-10-19T19:21:08Z</time>
      </trkpt>
      <trkpt lat="48.83589" lon="2.47309">
        <ele>80.800003051758</ele>
        <time>2015-10-19T19:21:10Z</time>
      </trkpt>
      <trkpt lat="48.83573" lon="2.47326">
        <ele>78.800003051758</ele>
        <time>2015-10-19T19:21:19Z</time>
      </trkpt>
      <trkpt lat="48.83564" lon="2.47339">
        <ele>76.199996948242</ele>
        <time>2015-10-19T19:21:25Z</time>
      </trkpt>
      <trkpt lat="48.8356" lon="2.47367">
        <ele>76.199996948242</ele>
        <time>2015-10-19T19:21:36Z</time>
      </trkpt>
      <trkpt lat="48.83555" lon="2.47361">
        <ele>76.599998474121</ele>
        <time>2015-10-19T19:21:42Z</time>
      </trkpt>
      <trkpt lat="48.83536" lon="2.47349">
        <ele>77.400001525879</ele>
        <time>2015-10-19T19:21:48Z</time>
      </trkpt>
      <trkpt lat="48.83515" lon="2.47341">
        <ele>76.800003051758</ele>
        <time>2015-10-19T19:21:54Z</time>
      </trkpt>
      <trkpt lat="48.83496" lon="2.47337">
        <ele>76.199996948242</ele>
        <time>2015-10-19T19:21:59Z</time>
      </trkpt>
      <trkpt lat="48.83475" lon="2.47341">
        <ele>76.199996948242</ele>
        <time>2015-10-19T19:22:05Z</time>
      </trkpt>
      <trkpt lat="48.83457" lon="2.47348">
        <ele>77.199996948242</ele>
        <time>2015-10-19T19:22:10Z</time>
      </trkpt>
      <trkpt lat="48.83438" lon="2.47358">
        <ele>79.400001525879</ele>
        <time>2015-10-19T19:22:16Z</time>
      </trkpt>
      <trkpt lat="48.83419" lon="2.47368">
        <ele>78</ele>
        <time>2015-10-19T19:22:21Z</time>
      </trkpt>
      <trkpt lat="48.83402" lon="2.47382">
        <ele>75</ele>
        <time>2015-10-19T19:22:28Z</time>
      </trkpt>
      <trkpt lat="48.83385" lon="2.47402">
        <ele>72.800003051758</ele>
        <time>2015-10-19T19:22:33Z</time>
      </trkpt>
      <trkpt lat="48.8337" lon="2.47425">
        <ele>71.599998474121</ele>
        <time>2015-10-19T19:22:39Z</time>
      </trkpt>
      <trkpt lat="48.83358" lon="2.47448">
        <ele>71</ele>
        <time>2015-10-19T19:22:45Z</time>
      </trkpt>
      <trkpt lat="48.83346" lon="2.47471">
        <ele>67</ele>
        <time>2015-10-19T19:22:50Z</time>
      </trkpt>
      <trkpt lat="48.83338" lon="2.475">
        <ele>56.599998474121</ele>
        <time>2015-10-19T19:22:55Z</time>
      </trkpt>
      <trkpt lat="48.83332" lon="2.47531">
        <ele>51.599998474121</ele>
        <time>2015-10-19T19:23:02Z</time>
      </trkpt>
      <trkpt lat="48.8332" lon="2.4756">
        <ele>48.400001525879</ele>
        <time>2015-10-19T19:23:07Z</time>
      </trkpt>
      <trkpt lat="48.83314" lon="2.47586">
        <ele>43.79999923706</ele>
        <time>2015-10-19T19:23:11Z</time>
      </trkpt>
      <trkpt lat="48.83312" lon="2.47614">
        <ele>39.79999923706</ele>
        <time>2015-10-19T19:23:15Z</time>
      </trkpt>
      <trkpt lat="48.83311" lon="2.47648">
        <ele>36.79999923706</ele>
        <time>2015-10-19T19:23:20Z</time>
      </trkpt>
      <trkpt lat="48.83308" lon="2.47678">
        <ele>36.599998474121</ele>
        <time>2015-10-19T19:23:25Z</time>
      </trkpt>
      <trkpt lat="48.83289" lon="2.47693">
        <ele>34.79999923706</ele>
        <time>2015-10-19T19:23:30Z</time>
      </trkpt>
      <trkpt lat="48.83268" lon="2.47693">
        <ele>33.400001525879</ele>
        <time>2015-10-19T19:23:35Z</time>
      </trkpt>
      <trkpt lat="48.83249" lon="2.4769">
        <ele>32.599998474121</ele>
        <time>2015-10-19T19:23:41Z</time>
      </trkpt>
      <trkpt lat="48.83243" lon="2.47692">
        <ele>31</ele>
        <time>2015-10-19T19:23:44Z</time>
      </trkpt>
      <trkpt lat="48.83252" lon="2.47701">
        <ele>32.79999923706</ele>
        <time>2015-10-19T19:24:24Z</time>
      </trkpt>
      <trkpt lat="48.83244" lon="2.47687">
        <ele>35</ele>
        <time>2015-10-19T19:25:20Z</time>
      </trkpt>
      <trkpt lat="48.8323" lon="2.4767">
        <ele>34</ele>
        <time>2015-10-19T19:25:31Z</time>
      </trkpt>
      <trkpt lat="48.83214" lon="2.47653">
        <ele>32.599998474121</ele>
        <time>2015-10-19T19:25:37Z</time>
      </trkpt>
      <trkpt lat="48.83199" lon="2.4764">
        <ele>31</ele>
        <time>2015-10-19T19:25:42Z</time>
      </trkpt>
      <trkpt lat="48.83178" lon="2.47625">
        <ele>30.39999961853</ele>
        <time>2015-10-19T19:25:47Z</time>
      </trkpt>
      <trkpt lat="48.83174" lon="2.47621">
        <ele>30.39999961853</ele>
        <time>2015-10-19T19:25:48Z</time>
      </trkpt>
      <trkpt lat="48.83158" lon="2.47605">
        <ele>29.39999961853</ele>
        <time>2015-10-19T19:25:52Z</time>
      </trkpt>
      <trkpt lat="48.83142" lon="2.47589">
        <ele>27.60000038147</ele>
        <time>2015-10-19T19:25:56Z</time>
      </trkpt>
      <trkpt lat="48.8313" lon="2.47567">
        <ele>27.39999961853</ele>
        <time>2015-10-19T19:26:00Z</time>
      </trkpt>
      <trkpt lat="48.83118" lon="2.47541">
        <ele>27</ele>
        <time>2015-10-19T19:26:05Z</time>
      </trkpt>
      <trkpt lat="48.83106" lon="2.47516">
        <ele>26.799999237061</ele>
        <time>2015-10-19T19:26:09Z</time>
      </trkpt>
      <trkpt lat="48.83104" lon="2.47508">
        <ele>27</ele>
        <time>2015-10-19T19:26:10Z</time>
      </trkpt>
      <trkpt lat="48.83096" lon="2.47479">
        <ele>26.799999237061</ele>
        <time>2015-10-19T19:26:14Z</time>
      </trkpt>
      <trkpt lat="48.83087" lon="2.47455">
        <ele>26.60000038147</ele>
        <time>2015-10-19T19:26:18Z</time>
      </trkpt>
      <trkpt lat="48.83075" lon="2.47432">
        <ele>25.60000038147</ele>
        <time>2015-10-19T19:26:23Z</time>
      </trkpt>
      <trkpt lat="48.83071" lon="2.47422">
        <ele>25.60000038147</ele>
        <time>2015-10-19T19:26:25Z</time>
      </trkpt>
      <trkpt lat="48.83066" lon="2.47412">
        <ele>25.39999961853</ele>
        <time>2015-10-19T19:26:27Z</time>
      </trkpt>
      <trkpt lat="48.83056" lon="2.47384">
        <ele>25.200000762939</ele>
        <time>2015-10-19T19:26:32Z</time>
      </trkpt>
      <trkpt lat="48.83044" lon="2.47359">
        <ele>23.200000762939</ele>
        <time>2015-10-19T19:26:37Z</time>
      </trkpt>
      <trkpt lat="48.8304" lon="2.47348">
        <ele>22.799999237061</ele>
        <time>2015-10-19T19:26:39Z</time>
      </trkpt>
      <trkpt lat="48.83036" lon="2.47337">
        <ele>22.200000762939</ele>
        <time>2015-10-19T19:26:41Z</time>
      </trkpt>
      <trkpt lat="48.83033" lon="2.47326">
        <ele>22.60000038147</ele>
        <time>2015-10-19T19:26:43Z</time>
      </trkpt>
      <trkpt lat="48.83028" lon="2.4731">
        <ele>23</ele>
        <time>2015-10-19T19:26:46Z</time>
      </trkpt>
      <trkpt lat="48.83017" lon="2.47285">
        <ele>24.60000038147</ele>
        <time>2015-10-19T19:26:51Z</time>
      </trkpt>
      <trkpt lat="48.83015" lon="2.4728">
        <ele>24.799999237061</ele>
        <time>2015-10-19T19:26:52Z</time>
      </trkpt>
      <trkpt lat="48.83004" lon="2.47252">
        <ele>25.799999237061</ele>
        <time>2015-10-19T19:26:57Z</time>
      </trkpt>
      <trkpt lat="48.82994" lon="2.47224">
        <ele>27</ele>
        <time>2015-10-19T19:27:02Z</time>
      </trkpt>
      <trkpt lat="48.82981" lon="2.47198">
        <ele>27.60000038147</ele>
        <time>2015-10-19T19:27:07Z</time>
      </trkpt>
      <trkpt lat="48.82972" lon="2.47166">
        <ele>27.200000762939</ele>
        <time>2015-10-19T19:27:12Z</time>
      </trkpt>
      <trkpt lat="48.8297" lon="2.47161">
        <ele>27.200000762939</ele>
        <time>2015-10-19T19:27:13Z</time>
      </trkpt>
      <trkpt lat="48.8296" lon="2.47148">
        <ele>28</ele>
        <time>2015-10-19T19:27:16Z</time>
      </trkpt>
      <trkpt lat="48.8295" lon="2.47137">
        <ele>28.200000762939</ele>
        <time>2015-10-19T19:27:19Z</time>
      </trkpt>
      <trkpt lat="48.82932" lon="2.47117">
        <ele>29.200000762939</ele>
        <time>2015-10-19T19:27:24Z</time>
      </trkpt>
      <trkpt lat="48.82926" lon="2.47109">
        <ele>29.200000762939</ele>
        <time>2015-10-19T19:27:26Z</time>
      </trkpt>
      <trkpt lat="48.82911" lon="2.47087">
        <ele>29</ele>
        <time>2015-10-19T19:27:31Z</time>
      </trkpt>
      <trkpt lat="48.82909" lon="2.47083">
        <ele>29.200000762939</ele>
        <time>2015-10-19T19:27:32Z</time>
      </trkpt>
      <trkpt lat="48.82896" lon="2.47067">
        <ele>28.39999961853</ele>
        <time>2015-10-19T19:27:36Z</time>
      </trkpt>
      <trkpt lat="48.82887" lon="2.47052">
        <ele>28</ele>
        <time>2015-10-19T19:27:39Z</time>
      </trkpt>
      <trkpt lat="48.82872" lon="2.4703">
        <ele>26.60000038147</ele>
        <time>2015-10-19T19:27:44Z</time>
      </trkpt>
      <trkpt lat="48.8286" lon="2.47009">
        <ele>25.799999237061</ele>
        <time>2015-10-19T19:27:48Z</time>
      </trkpt>
      <trkpt lat="48.82849" lon="2.46996">
        <ele>25.200000762939</ele>
        <time>2015-10-19T19:27:51Z</time>
      </trkpt>
      <trkpt lat="48.8284" lon="2.46983">
        <ele>25</ele>
        <time>2015-10-19T19:27:54Z</time>
      </trkpt>
      <trkpt lat="48.82824" lon="2.46963">
        <ele>24.60000038147</ele>
        <time>2015-10-19T19:27:59Z</time>
      </trkpt>
      <trkpt lat="48.82821" lon="2.46959">
        <ele>24.39999961853</ele>
        <time>2015-10-19T19:28:00Z</time>
      </trkpt>
      <trkpt lat="48.82806" lon="2.46939">
        <ele>24</ele>
        <time>2015-10-19T19:28:05Z</time>
      </trkpt>
      <trkpt lat="48.828" lon="2.46932">
        <ele>24</ele>
        <time>2015-10-19T19:28:07Z</time>
      </trkpt>
      <trkpt lat="48.82789" lon="2.46922">
        <ele>23.799999237061</ele>
        <time>2015-10-19T19:28:11Z</time>
      </trkpt>
      <trkpt lat="48.82778" lon="2.46909">
        <ele>23.39999961853</ele>
        <time>2015-10-19T19:28:15Z</time>
      </trkpt>
      <trkpt lat="48.82765" lon="2.46893">
        <ele>23</ele>
        <time>2015-10-19T19:28:19Z</time>
      </trkpt>
      <trkpt lat="48.82749" lon="2.4687">
        <ele>22.799999237061</ele>
        <time>2015-10-19T19:28:24Z</time>
      </trkpt>
      <trkpt lat="48.82744" lon="2.46861">
        <ele>22.39999961853</ele>
        <time>2015-10-19T19:28:26Z</time>
      </trkpt>
      <trkpt lat="48.82731" lon="2.46843">
        <ele>21.799999237061</ele>
        <time>2015-10-19T19:28:31Z</time>
      </trkpt>
      <trkpt lat="48.82718" lon="2.46822">
        <ele>20.60000038147</ele>
        <time>2015-10-19T19:28:37Z</time>
      </trkpt>
      <trkpt lat="48.82689" lon="2.46797">
        <ele>20</ele>
        <time>2015-10-19T19:28:45Z</time>
      </trkpt>
      <trkpt lat="48.8267" lon="2.46792">
        <ele>21.200000762939</ele>
        <time>2015-10-19T19:28:49Z</time>
      </trkpt>
      <trkpt lat="48.82652" lon="2.46782">
        <ele>21.39999961853</ele>
        <time>2015-10-19T19:28:53Z</time>
      </trkpt>
      <trkpt lat="48.82635" lon="2.46775">
        <ele>22.60000038147</ele>
        <time>2015-10-19T19:28:57Z</time>
      </trkpt>
      <trkpt lat="48.82613" lon="2.46766">
        <ele>26.200000762939</ele>
        <time>2015-10-19T19:29:02Z</time>
      </trkpt>
      <trkpt lat="48.82592" lon="2.46758">
        <ele>28</ele>
        <time>2015-10-19T19:29:07Z</time>
      </trkpt>
      <trkpt lat="48.82572" lon="2.46752">
        <ele>27.39999961853</ele>
        <time>2015-10-19T19:29:12Z</time>
      </trkpt>
      <trkpt lat="48.8256" lon="2.46748">
        <ele>28.200000762939</ele>
        <time>2015-10-19T19:29:15Z</time>
      </trkpt>
      <trkpt lat="48.82539" lon="2.46745">
        <ele>28.799999237061</ele>
        <time>2015-10-19T19:29:20Z</time>
      </trkpt>
      <trkpt lat="48.82535" lon="2.46744">
        <ele>28.60000038147</ele>
        <time>2015-10-19T19:29:21Z</time>
      </trkpt>
      <trkpt lat="48.82522" lon="2.46741">
        <ele>28.39999961853</ele>
        <time>2015-10-19T19:29:24Z</time>
      </trkpt>
      <trkpt lat="48.82514" lon="2.46737">
        <ele>27.799999237061</ele>
        <time>2015-10-19T19:29:26Z</time>
      </trkpt>
      <trkpt lat="48.82496" lon="2.46731">
        <ele>26.39999961853</ele>
        <time>2015-10-19T19:29:30Z</time>
      </trkpt>
      <trkpt lat="48.82479" lon="2.46724">
        <ele>25.799999237061</ele>
        <time>2015-10-19T19:29:34Z</time>
      </trkpt>
      <trkpt lat="48.8246" lon="2.46713">
        <ele>25.200000762939</ele>
        <time>2015-10-19T19:29:39Z</time>
      </trkpt>
      <trkpt lat="48.82452" lon="2.46707">
        <ele>24.799999237061</ele>
        <time>2015-10-19T19:29:41Z</time>
      </trkpt>
      <trkpt lat="48.82432" lon="2.46694">
        <ele>24.200000762939</ele>
        <time>2015-10-19T19:29:46Z</time>
      </trkpt>
      <trkpt lat="48.82428" lon="2.46692">
        <ele>23.799999237061</ele>
        <time>2015-10-19T19:29:47Z</time>
      </trkpt>
      <trkpt lat="48.82412" lon="2.46684">
        <ele>23.200000762939</ele>
        <time>2015-10-19T19:29:51Z</time>
      </trkpt>
      <trkpt lat="48.82397" lon="2.46678">
        <ele>22.200000762939</ele>
        <time>2015-10-19T19:29:55Z</time>
      </trkpt>
      <trkpt lat="48.82379" lon="2.46672">
        <ele>23.200000762939</ele>
        <time>2015-10-19T19:29:59Z</time>
      </trkpt>
      <trkpt lat="48.82362" lon="2.46667">
        <ele>24.39999961853</ele>
        <time>2015-10-19T19:30:03Z</time>
      </trkpt>
      <trkpt lat="48.82347" lon="2.46666">
        <ele>24.200000762939</ele>
        <time>2015-10-19T19:30:06Z</time>
      </trkpt>
      <trkpt lat="48.82328" lon="2.46665">
        <ele>26.200000762939</ele>
        <time>2015-10-19T19:30:10Z</time>
      </trkpt>
      <trkpt lat="48.82308" lon="2.46664">
        <ele>28</ele>
        <time>2015-10-19T19:30:15Z</time>
      </trkpt>
      <trkpt lat="48.82288" lon="2.46669">
        <ele>30.39999961853</ele>
        <time>2015-10-19T19:30:20Z</time>
      </trkpt>
      <trkpt lat="48.82268" lon="2.46675">
        <ele>32.599998474121</ele>
        <time>2015-10-19T19:30:25Z</time>
      </trkpt>
      <trkpt lat="48.82251" lon="2.46681">
        <ele>33.599998474121</ele>
        <time>2015-10-19T19:30:29Z</time>
      </trkpt>
      <trkpt lat="48.82238" lon="2.46685">
        <ele>36.20000076294</ele>
        <time>2015-10-19T19:30:32Z</time>
      </trkpt>
      <trkpt lat="48.82225" lon="2.46689">
        <ele>38.400001525879</ele>
        <time>2015-10-19T19:30:35Z</time>
      </trkpt>
      <trkpt lat="48.82208" lon="2.46697">
        <ele>40.400001525879</ele>
        <time>2015-10-19T19:30:39Z</time>
      </trkpt>
      <trkpt lat="48.82186" lon="2.46704">
        <ele>43</ele>
        <time>2015-10-19T19:30:44Z</time>
      </trkpt>
      <trkpt lat="48.82165" lon="2.46708">
        <ele>41.599998474121</ele>
        <time>2015-10-19T19:30:48Z</time>
      </trkpt>
      <trkpt lat="48.82154" lon="2.46711">
        <ele>41.20000076294</ele>
        <time>2015-10-19T19:30:50Z</time>
      </trkpt>
      <trkpt lat="48.82134" lon="2.46718">
        <ele>42</ele>
        <time>2015-10-19T19:30:55Z</time>
      </trkpt>
      <trkpt lat="48.82114" lon="2.46726">
        <ele>40.79999923706</ele>
        <time>2015-10-19T19:31:00Z</time>
      </trkpt>
      <trkpt lat="48.8211" lon="2.46728">
        <ele>41.599998474121</ele>
        <time>2015-10-19T19:31:01Z</time>
      </trkpt>
      <trkpt lat="48.82106" lon="2.46729">
        <ele>42</ele>
        <time>2015-10-19T19:31:02Z</time>
      </trkpt>
      <trkpt lat="48.82089" lon="2.46731">
        <ele>43.599998474121</ele>
        <time>2015-10-19T19:31:06Z</time>
      </trkpt>
      <trkpt lat="48.82081" lon="2.46732">
        <ele>43.400001525879</ele>
        <time>2015-10-19T19:31:08Z</time>
      </trkpt>
      <trkpt lat="48.82063" lon="2.4673">
        <ele>41.79999923706</ele>
        <time>2015-10-19T19:31:15Z</time>
      </trkpt>
      <trkpt lat="48.82058" lon="2.4673">
        <ele>42.79999923706</ele>
        <time>2015-10-19T19:31:18Z</time>
      </trkpt>
      <trkpt lat="48.82039" lon="2.46731">
        <ele>45.20000076294</ele>
        <time>2015-10-19T19:31:28Z</time>
      </trkpt>
      <trkpt lat="48.82036" lon="2.46727">
        <ele>45.599998474121</ele>
        <time>2015-10-19T19:31:31Z</time>
      </trkpt>
      <trkpt lat="48.82036" lon="2.4672">
        <ele>43.79999923706</ele>
        <time>2015-10-19T19:32:51Z</time>
      </trkpt>
      <trkpt lat="48.8203" lon="2.46695">
        <ele>43</ele>
        <time>2015-10-19T19:33:18Z</time>
      </trkpt>
      <trkpt lat="48.8203" lon="2.46666">
        <ele>42.79999923706</ele>
        <time>2015-10-19T19:33:23Z</time>
      </trkpt>
      <trkpt lat="48.82029" lon="2.46639">
        <ele>42.599998474121</ele>
        <time>2015-10-19T19:33:27Z</time>
      </trkpt>
      <trkpt lat="48.82029" lon="2.46623">
        <ele>42.79999923706</ele>
        <time>2015-10-19T19:33:29Z</time>
      </trkpt>
      <trkpt lat="48.82026" lon="2.46599">
        <ele>43.20000076294</ele>
        <time>2015-10-19T19:33:32Z</time>
      </trkpt>
      <trkpt lat="48.8202" lon="2.46573">
        <ele>43.599998474121</ele>
        <time>2015-10-19T19:33:35Z</time>
      </trkpt>
      <trkpt lat="48.82018" lon="2.46564">
        <ele>43.79999923706</ele>
        <time>2015-10-19T19:33:36Z</time>
      </trkpt>
      <trkpt lat="48.82012" lon="2.46537">
        <ele>44.20000076294</ele>
        <time>2015-10-19T19:33:39Z</time>
      </trkpt>
      <trkpt lat="48.8201" lon="2.46528">
        <ele>44.599998474121</ele>
        <time>2015-10-19T19:33:40Z</time>
      </trkpt>
      <trkpt lat="48.82004" lon="2.46494">
        <ele>47.599998474121</ele>
        <time>2015-10-19T19:33:44Z</time>
      </trkpt>
      <trkpt lat="48.82003" lon="2.46486">
        <ele>48.599998474121</ele>
        <time>2015-10-19T19:33:45Z</time>
      </trkpt>
      <trkpt lat="48.81999" lon="2.46456">
        <ele>51.599998474121</ele>
        <time>2015-10-19T19:33:49Z</time>
      </trkpt>
      <trkpt lat="48.81994" lon="2.46441">
        <ele>53.20000076294</ele>
        <time>2015-10-19T19:33:54Z</time>
      </trkpt>
      <trkpt lat="48.81996" lon="2.46443">
        <ele>50.20000076294</ele>
        <time>2015-10-19T19:35:42Z</time>
      </trkpt>
      <trkpt lat="48.81979" lon="2.46451">
        <ele>49.79999923706</ele>
        <time>2015-10-19T19:36:03Z</time>
      </trkpt>
      <trkpt lat="48.81963" lon="2.46465">
        <ele>50.400001525879</ele>
        <time>2015-10-19T19:36:10Z</time>
      </trkpt>
      <trkpt lat="48.81948" lon="2.46487">
        <ele>51.400001525879</ele>
        <time>2015-10-19T19:36:16Z</time>
      </trkpt>
      <trkpt lat="48.81933" lon="2.46506">
        <ele>52.599998474121</ele>
        <time>2015-10-19T19:36:21Z</time>
      </trkpt>
      <trkpt lat="48.81918" lon="2.46525">
        <ele>54.79999923706</ele>
        <time>2015-10-19T19:36:26Z</time>
      </trkpt>
      <trkpt lat="48.81902" lon="2.46548">
        <ele>57.20000076294</ele>
        <time>2015-10-19T19:36:31Z</time>
      </trkpt>
      <trkpt lat="48.81887" lon="2.46567">
        <ele>59.79999923706</ele>
        <time>2015-10-19T19:36:35Z</time>
      </trkpt>
      <trkpt lat="48.8187" lon="2.46588">
        <ele>63.400001525879</ele>
        <time>2015-10-19T19:36:40Z</time>
      </trkpt>
      <trkpt lat="48.81856" lon="2.46612">
        <ele>66.400001525879</ele>
        <time>2015-10-19T19:36:45Z</time>
      </trkpt>
      <trkpt lat="48.8184" lon="2.46629">
        <ele>70.199996948242</ele>
        <time>2015-10-19T19:36:49Z</time>
      </trkpt>
      <trkpt lat="48.81824" lon="2.46645">
        <ele>73.199996948242</ele>
        <time>2015-10-19T19:36:53Z</time>
      </trkpt>
      <trkpt lat="48.81807" lon="2.46661">
        <ele>75.400001525879</ele>
        <time>2015-10-19T19:36:57Z</time>
      </trkpt>
      <trkpt lat="48.8179" lon="2.46676">
        <ele>78</ele>
        <time>2015-10-19T19:37:01Z</time>
      </trkpt>
      <trkpt lat="48.81775" lon="2.46692">
        <ele>80.800003051758</ele>
        <time>2015-10-19T19:37:05Z</time>
      </trkpt>
      <trkpt lat="48.81766" lon="2.46704">
        <ele>82.599998474121</ele>
        <time>2015-10-19T19:37:08Z</time>
      </trkpt>
      <trkpt lat="48.81749" lon="2.46711">
        <ele>87.800003051758</ele>
        <time>2015-10-19T19:37:14Z</time>
      </trkpt>
      <trkpt lat="48.81746" lon="2.4671">
        <ele>88</ele>
        <time>2015-10-19T19:37:15Z</time>
      </trkpt>
      <trkpt lat="48.8174" lon="2.46708">
        <ele>88.800003051758</ele>
        <time>2015-10-19T19:37:17Z</time>
      </trkpt>
      <trkpt lat="48.81726" lon="2.46698">
        <ele>88.599998474121</ele>
        <time>2015-10-19T19:37:22Z</time>
      </trkpt>
      <trkpt lat="48.8171" lon="2.46681">
        <ele>88.400001525879</ele>
        <time>2015-10-19T19:37:27Z</time>
      </trkpt>
      <trkpt lat="48.81695" lon="2.46664">
        <ele>87.400001525879</ele>
        <time>2015-10-19T19:37:31Z</time>
      </trkpt>
      <trkpt lat="48.81678" lon="2.46648">
        <ele>86</ele>
        <time>2015-10-19T19:37:35Z</time>
      </trkpt>
      <trkpt lat="48.81664" lon="2.46622">
        <ele>84</ele>
        <time>2015-10-19T19:37:39Z</time>
      </trkpt>
      <trkpt lat="48.81648" lon="2.46598">
        <ele>85</ele>
        <time>2015-10-19T19:37:43Z</time>
      </trkpt>
      <trkpt lat="48.81632" lon="2.46577">
        <ele>86.800003051758</ele>
        <time>2015-10-19T19:37:47Z</time>
      </trkpt>
      <trkpt lat="48.81627" lon="2.46572">
        <ele>87</ele>
        <time>2015-10-19T19:37:48Z</time>
      </trkpt>
      <trkpt lat="48.81609" lon="2.46549">
        <ele>88</ele>
        <time>2015-10-19T19:37:52Z</time>
      </trkpt>
      <trkpt lat="48.81592" lon="2.46523">
        <ele>88.800003051758</ele>
        <time>2015-10-19T19:37:56Z</time>
      </trkpt>
      <trkpt lat="48.81575" lon="2.46498">
        <ele>89.400001525879</ele>
        <time>2015-10-19T19:38:00Z</time>
      </trkpt>
      <trkpt lat="48.81562" lon="2.46478">
        <ele>89.599998474121</ele>
        <time>2015-10-19T19:38:03Z</time>
      </trkpt>
      <trkpt lat="48.81548" lon="2.4646">
        <ele>89.800003051758</ele>
        <time>2015-10-19T19:38:06Z</time>
      </trkpt>
      <trkpt lat="48.81531" lon="2.46435">
        <ele>89.400001525879</ele>
        <time>2015-10-19T19:38:10Z</time>
      </trkpt>
      <trkpt lat="48.81519" lon="2.46415">
        <ele>89.599998474121</ele>
        <time>2015-10-19T19:38:13Z</time>
      </trkpt>
      <trkpt lat="48.81504" lon="2.46386">
        <ele>89.800003051758</ele>
        <time>2015-10-19T19:38:17Z</time>
      </trkpt>
      <trkpt lat="48.81496" lon="2.46374">
        <ele>89.400001525879</ele>
        <time>2015-10-19T19:38:19Z</time>
      </trkpt>
      <trkpt lat="48.81495" lon="2.46349">
        <ele>84.800003051758</ele>
        <time>2015-10-19T19:38:21Z</time>
      </trkpt>
      <trkpt lat="48.81492" lon="2.46316">
        <ele>74.800003051758</ele>
        <time>2015-10-19T19:38:26Z</time>
      </trkpt>
      <trkpt lat="48.81493" lon="2.46312">
        <ele>73.400001525879</ele>
        <time>2015-10-19T19:38:27Z</time>
      </trkpt>
      <trkpt lat="48.81495" lon="2.46304">
        <ele>70.800003051758</ele>
        <time>2015-10-19T19:38:30Z</time>
      </trkpt>
      <trkpt lat="48.81491" lon="2.46293">
        <ele>64.800003051758</ele>
        <time>2015-10-19T19:38:38Z</time>
      </trkpt>
      <trkpt lat="48.8149" lon="2.46291">
        <ele>64.400001525879</ele>
        <time>2015-10-19T19:38:39Z</time>
      </trkpt>
      <trkpt lat="48.81474" lon="2.46276">
        <ele>62.79999923706</ele>
        <time>2015-10-19T19:38:45Z</time>
      </trkpt>
      <trkpt lat="48.81456" lon="2.4626">
        <ele>61.79999923706</ele>
        <time>2015-10-19T19:38:50Z</time>
      </trkpt>
      <trkpt lat="48.81452" lon="2.46232">
        <ele>60.79999923706</ele>
        <time>2015-10-19T19:38:55Z</time>
      </trkpt>
      <trkpt lat="48.81464" lon="2.46207">
        <ele>59.20000076294</ele>
        <time>2015-10-19T19:38:58Z</time>
      </trkpt>
      <trkpt lat="48.81477" lon="2.46183">
        <ele>56.400001525879</ele>
        <time>2015-10-19T19:39:02Z</time>
      </trkpt>
      <trkpt lat="48.8148" lon="2.46178">
        <ele>55.79999923706</ele>
        <time>2015-10-19T19:39:03Z</time>
      </trkpt>
      <trkpt lat="48.81494" lon="2.46152">
        <ele>53.20000076294</ele>
        <time>2015-10-19T19:39:08Z</time>
      </trkpt>
      <trkpt lat="48.81503" lon="2.46142">
        <ele>52.400001525879</ele>
        <time>2015-10-19T19:39:11Z</time>
      </trkpt>
      <trkpt lat="48.8151" lon="2.46129">
        <ele>51.79999923706</ele>
        <time>2015-10-19T19:39:14Z</time>
      </trkpt>
      <trkpt lat="48.81521" lon="2.46115">
        <ele>50.79999923706</ele>
        <time>2015-10-19T19:39:19Z</time>
      </trkpt>
      <trkpt lat="48.81522" lon="2.46115">
        <ele>50.400001525879</ele>
        <time>2015-10-19T19:39:20Z</time>
      </trkpt>
      <trkpt lat="48.81538" lon="2.46099">
        <ele>48.79999923706</ele>
        <time>2015-10-19T19:39:32Z</time>
      </trkpt>
      <trkpt lat="48.81553" lon="2.46078">
        <ele>49.400001525879</ele>
        <time>2015-10-19T19:39:37Z</time>
      </trkpt>
      <trkpt lat="48.81567" lon="2.46053">
        <ele>50.79999923706</ele>
        <time>2015-10-19T19:39:42Z</time>
      </trkpt>
      <trkpt lat="48.81577" lon="2.4603">
        <ele>52.400001525879</ele>
        <time>2015-10-19T19:39:46Z</time>
      </trkpt>
      <trkpt lat="48.81586" lon="2.46005">
        <ele>52</ele>
        <time>2015-10-19T19:39:50Z</time>
      </trkpt>
      <trkpt lat="48.81594" lon="2.45976">
        <ele>49.400001525879</ele>
        <time>2015-10-19T19:39:54Z</time>
      </trkpt>
      <trkpt lat="48.816" lon="2.45955">
        <ele>49</ele>
        <time>2015-10-19T19:39:57Z</time>
      </trkpt>
      <trkpt lat="48.81606" lon="2.45927">
        <ele>49.400001525879</ele>
        <time>2015-10-19T19:40:01Z</time>
      </trkpt>
      <trkpt lat="48.81608" lon="2.4592">
        <ele>49.400001525879</ele>
        <time>2015-10-19T19:40:02Z</time>
      </trkpt>
      <trkpt lat="48.81615" lon="2.45889">
        <ele>49.400001525879</ele>
        <time>2015-10-19T19:40:06Z</time>
      </trkpt>
      <trkpt lat="48.81622" lon="2.45861">
        <ele>49.20000076294</ele>
        <time>2015-10-19T19:40:10Z</time>
      </trkpt>
      <trkpt lat="48.81623" lon="2.4584">
        <ele>47.400001525879</ele>
        <time>2015-10-19T19:40:14Z</time>
      </trkpt>
      <trkpt lat="48.81626" lon="2.45826">
        <ele>47.599998474121</ele>
        <time>2015-10-19T19:40:17Z</time>
      </trkpt>
      <trkpt lat="48.8163" lon="2.45804">
        <ele>48.20000076294</ele>
        <time>2015-10-19T19:40:21Z</time>
      </trkpt>
      <trkpt lat="48.81636" lon="2.45779">
        <ele>50</ele>
        <time>2015-10-19T19:40:25Z</time>
      </trkpt>
      <trkpt lat="48.8164" lon="2.45766">
        <ele>51.20000076294</ele>
        <time>2015-10-19T19:40:27Z</time>
      </trkpt>
      <trkpt lat="48.81648" lon="2.45736">
        <ele>52.20000076294</ele>
        <time>2015-10-19T19:40:31Z</time>
      </trkpt>
      <trkpt lat="48.81654" lon="2.45707">
        <ele>49.79999923706</ele>
        <time>2015-10-19T19:40:35Z</time>
      </trkpt>
      <trkpt lat="48.81657" lon="2.45694">
        <ele>49.20000076294</ele>
        <time>2015-10-19T19:40:37Z</time>
      </trkpt>
      <trkpt lat="48.81663" lon="2.45677">
        <ele>49</ele>
        <time>2015-10-19T19:40:40Z</time>
      </trkpt>
      <trkpt lat="48.81666" lon="2.4566">
        <ele>50.79999923706</ele>
        <time>2015-10-19T19:40:43Z</time>
      </trkpt>
      <trkpt lat="48.81671" lon="2.45637">
        <ele>53</ele>
        <time>2015-10-19T19:40:47Z</time>
      </trkpt>
      <trkpt lat="48.81675" lon="2.45606">
        <ele>43.20000076294</ele>
        <time>2015-10-19T19:40:52Z</time>
      </trkpt>
      <trkpt lat="48.81681" lon="2.45574">
        <ele>41.20000076294</ele>
        <time>2015-10-19T19:40:57Z</time>
      </trkpt>
      <trkpt lat="48.81686" lon="2.45555">
        <ele>40.599998474121</ele>
        <time>2015-10-19T19:41:00Z</time>
      </trkpt>
      <trkpt lat="48.81693" lon="2.45529">
        <ele>39.400001525879</ele>
        <time>2015-10-19T19:41:04Z</time>
      </trkpt>
      <trkpt lat="48.81694" lon="2.45522">
        <ele>39</ele>
        <time>2015-10-19T19:41:05Z</time>
      </trkpt>
      <trkpt lat="48.81699" lon="2.45494">
        <ele>36.400001525879</ele>
        <time>2015-10-19T19:41:09Z</time>
      </trkpt>
      <trkpt lat="48.81703" lon="2.45465">
        <ele>34.20000076294</ele>
        <time>2015-10-19T19:41:15Z</time>
      </trkpt>
      <trkpt lat="48.81703" lon="2.45456">
        <ele>33.20000076294</ele>
        <time>2015-10-19T19:41:18Z</time>
      </trkpt>
      <trkpt lat="48.81695" lon="2.454">
        <ele>30.200000762939</ele>
        <time>2015-10-19T19:41:28Z</time>
      </trkpt>
      <trkpt lat="48.81703" lon="2.45372">
        <ele>29.39999961853</ele>
        <time>2015-10-19T19:41:31Z</time>
      </trkpt>
      <trkpt lat="48.81716" lon="2.45331">
        <ele>28</ele>
        <time>2015-10-19T19:41:35Z</time>
      </trkpt>
      <trkpt lat="48.81726" lon="2.45311">
        <ele>26.60000038147</ele>
        <time>2015-10-19T19:41:40Z</time>
      </trkpt>
      <trkpt lat="48.81731" lon="2.45315">
        <ele>25.60000038147</ele>
        <time>2015-10-19T19:41:44Z</time>
      </trkpt>
      <trkpt lat="48.81736" lon="2.45322">
        <ele>25.39999961853</ele>
        <time>2015-10-19T19:41:48Z</time>
      </trkpt>
      <trkpt lat="48.81741" lon="2.45334">
        <ele>25.39999961853</ele>
        <time>2015-10-19T19:41:55Z</time>
      </trkpt>
      <trkpt lat="48.81754" lon="2.45319">
        <ele>24.39999961853</ele>
        <time>2015-10-19T19:42:18Z</time>
      </trkpt>
      <trkpt lat="48.81764" lon="2.45293">
        <ele>24</ele>
        <time>2015-10-19T19:42:26Z</time>
      </trkpt>
      <trkpt lat="48.81771" lon="2.45264">
        <ele>22.39999961853</ele>
        <time>2015-10-19T19:42:35Z</time>
      </trkpt>
      <trkpt lat="48.81778" lon="2.45238">
        <ele>22.799999237061</ele>
        <time>2015-10-19T19:42:43Z</time>
      </trkpt>
      <trkpt lat="48.81786" lon="2.4521">
        <ele>23.39999961853</ele>
        <time>2015-10-19T19:42:51Z</time>
      </trkpt>
      <trkpt lat="48.81791" lon="2.45182">
        <ele>25</ele>
        <time>2015-10-19T19:42:58Z</time>
      </trkpt>
      <trkpt lat="48.81797" lon="2.45156">
        <ele>27.200000762939</ele>
        <time>2015-10-19T19:43:05Z</time>
      </trkpt>
      <trkpt lat="48.81804" lon="2.4513">
        <ele>30</ele>
        <time>2015-10-19T19:43:12Z</time>
      </trkpt>
      <trkpt lat="48.81812" lon="2.45103">
        <ele>33.599998474121</ele>
        <time>2015-10-19T19:43:19Z</time>
      </trkpt>
      <trkpt lat="48.81817" lon="2.45075">
        <ele>38.599998474121</ele>
        <time>2015-10-19T19:43:27Z</time>
      </trkpt>
      <trkpt lat="48.8182" lon="2.45047">
        <ele>41.79999923706</ele>
        <time>2015-10-19T19:43:37Z</time>
      </trkpt>
      <trkpt lat="48.81825" lon="2.4503">
        <ele>44.400001525879</ele>
        <time>2015-10-19T19:43:46Z</time>
      </trkpt>
      <trkpt lat="48.81829" lon="2.45015">
        <ele>42.79999923706</ele>
        <time>2015-10-19T19:44:43Z</time>
      </trkpt>
      <trkpt lat="48.81833" lon="2.44987">
        <ele>42.400001525879</ele>
        <time>2015-10-19T19:44:55Z</time>
      </trkpt>
      <trkpt lat="48.81834" lon="2.44956">
        <ele>42.599998474121</ele>
        <time>2015-10-19T19:45:05Z</time>
      </trkpt>
      <trkpt lat="48.81837" lon="2.44928">
        <ele>43</ele>
        <time>2015-10-19T19:45:14Z</time>
      </trkpt>
      <trkpt lat="48.81841" lon="2.449">
        <ele>43.599998474121</ele>
        <time>2015-10-19T19:45:22Z</time>
      </trkpt>
      <trkpt lat="48.81842" lon="2.44873">
        <ele>45</ele>
        <time>2015-10-19T19:45:33Z</time>
      </trkpt>
      <trkpt lat="48.81844" lon="2.44842">
        <ele>46.20000076294</ele>
        <time>2015-10-19T19:45:43Z</time>
      </trkpt>
      <trkpt lat="48.81845" lon="2.44814">
        <ele>47.20000076294</ele>
        <time>2015-10-19T19:45:52Z</time>
      </trkpt>
      <trkpt lat="48.81847" lon="2.44785">
        <ele>47.79999923706</ele>
        <time>2015-10-19T19:46:02Z</time>
      </trkpt>
      <trkpt lat="48.81849" lon="2.44757">
        <ele>50.599998474121</ele>
        <time>2015-10-19T19:46:10Z</time>
      </trkpt>
      <trkpt lat="48.81851" lon="2.44728">
        <ele>53.20000076294</ele>
        <time>2015-10-19T19:46:18Z</time>
      </trkpt>
      <trkpt lat="48.81852" lon="2.447">
        <ele>55.79999923706</ele>
        <time>2015-10-19T19:46:26Z</time>
      </trkpt>
      <trkpt lat="48.81854" lon="2.4467">
        <ele>59.20000076294</ele>
        <time>2015-10-19T19:46:35Z</time>
      </trkpt>
      <trkpt lat="48.81859" lon="2.44643">
        <ele>63.400001525879</ele>
        <time>2015-10-19T19:46:45Z</time>
      </trkpt>
      <trkpt lat="48.81862" lon="2.44615">
        <ele>64.800003051758</ele>
        <time>2015-10-19T19:46:55Z</time>
      </trkpt>
      <trkpt lat="48.81869" lon="2.44588">
        <ele>65.400001525879</ele>
        <time>2015-10-19T19:47:05Z</time>
      </trkpt>
      <trkpt lat="48.81866" lon="2.44578">
        <ele>63.79999923706</ele>
        <time>2015-10-19T19:47:13Z</time>
      </trkpt>
      <trkpt lat="48.8187" lon="2.44558">
        <ele>60.79999923706</ele>
        <time>2015-10-19T19:47:43Z</time>
      </trkpt>
      <trkpt lat="48.81869" lon="2.44529">
        <ele>60</ele>
        <time>2015-10-19T19:47:50Z</time>
      </trkpt>
      <trkpt lat="48.81867" lon="2.44502">
        <ele>60</ele>
        <time>2015-10-19T19:47:57Z</time>
      </trkpt>
      <trkpt lat="48.81866" lon="2.44472">
        <ele>60.400001525879</ele>
        <time>2015-10-19T19:48:04Z</time>
      </trkpt>
      <trkpt lat="48.81867" lon="2.44439">
        <ele>61.599998474121</ele>
        <time>2015-10-19T19:48:09Z</time>
      </trkpt>
      <trkpt lat="48.81867" lon="2.44407">
        <ele>61.400001525879</ele>
        <time>2015-10-19T19:48:14Z</time>
      </trkpt>
      <trkpt lat="48.81867" lon="2.44375">
        <ele>61.79999923706</ele>
        <time>2015-10-19T19:48:19Z</time>
      </trkpt>
      <trkpt lat="48.81867" lon="2.44346">
        <ele>62</ele>
        <time>2015-10-19T19:48:24Z</time>
      </trkpt>
      <trkpt lat="48.81864" lon="2.44315">
        <ele>61.400001525879</ele>
        <time>2015-10-19T19:48:30Z</time>
      </trkpt>
      <trkpt lat="48.81865" lon="2.44311">
        <ele>61.400001525879</ele>
        <time>2015-10-19T19:48:31Z</time>
      </trkpt>
      <trkpt lat="48.81876" lon="2.44318">
        <ele>60.79999923706</ele>
        <time>2015-10-19T19:48:39Z</time>
      </trkpt>
      <trkpt lat="48.8189" lon="2.4434">
        <ele>59</ele>
        <time>2015-10-19T19:48:46Z</time>
      </trkpt>
      <trkpt lat="48.81902" lon="2.44361">
        <ele>57.599998474121</ele>
        <time>2015-10-19T19:48:52Z</time>
      </trkpt>
      <trkpt lat="48.81916" lon="2.44381">
        <ele>59.599998474121</ele>
        <time>2015-10-19T19:48:59Z</time>
      </trkpt>
      <trkpt lat="48.81929" lon="2.44398">
        <ele>59.599998474121</ele>
        <time>2015-10-19T19:49:05Z</time>
      </trkpt>
      <trkpt lat="48.81945" lon="2.44414">
        <ele>62.400001525879</ele>
        <time>2015-10-19T19:49:11Z</time>
      </trkpt>
      <trkpt lat="48.81962" lon="2.44431">
        <ele>65.599998474121</ele>
        <time>2015-10-19T19:49:17Z</time>
      </trkpt>
      <trkpt lat="48.81979" lon="2.44448">
        <ele>69.199996948242</ele>
        <time>2015-10-19T19:49:23Z</time>
      </trkpt>
      <trkpt lat="48.81995" lon="2.44467">
        <ele>73.199996948242</ele>
        <time>2015-10-19T19:49:28Z</time>
      </trkpt>
      <trkpt lat="48.82013" lon="2.44486">
        <ele>74.199996948242</ele>
        <time>2015-10-19T19:49:33Z</time>
      </trkpt>
      <trkpt lat="48.82028" lon="2.44501">
        <ele>73.800003051758</ele>
        <time>2015-10-19T19:49:37Z</time>
      </trkpt>
      <trkpt lat="48.82047" lon="2.44517">
        <ele>75.199996948242</ele>
        <time>2015-10-19T19:49:43Z</time>
      </trkpt>
      <trkpt lat="48.82066" lon="2.44533">
        <ele>73.400001525879</ele>
        <time>2015-10-19T19:49:49Z</time>
      </trkpt>
      <trkpt lat="48.82086" lon="2.44547">
        <ele>71.400001525879</ele>
        <time>2015-10-19T19:49:55Z</time>
      </trkpt>
      <trkpt lat="48.82103" lon="2.44558">
        <ele>68.599998474121</ele>
        <time>2015-10-19T19:50:00Z</time>
      </trkpt>
      <trkpt lat="48.82121" lon="2.44568">
        <ele>66.599998474121</ele>
        <time>2015-10-19T19:50:05Z</time>
      </trkpt>
      <trkpt lat="48.8214" lon="2.44574">
        <ele>65.199996948242</ele>
        <time>2015-10-19T19:50:11Z</time>
      </trkpt>
      <trkpt lat="48.8216" lon="2.44582">
        <ele>62.599998474121</ele>
        <time>2015-10-19T19:50:17Z</time>
      </trkpt>
      <trkpt lat="48.82178" lon="2.44586">
        <ele>60.79999923706</ele>
        <time>2015-10-19T19:50:22Z</time>
      </trkpt>
      <trkpt lat="48.822" lon="2.44586">
        <ele>61.400001525879</ele>
        <time>2015-10-19T19:50:28Z</time>
      </trkpt>
      <trkpt lat="48.82219" lon="2.44586">
        <ele>62.20000076294</ele>
        <time>2015-10-19T19:50:33Z</time>
      </trkpt>
      <trkpt lat="48.8224" lon="2.44586">
        <ele>63.20000076294</ele>
        <time>2015-10-19T19:50:39Z</time>
      </trkpt>
      <trkpt lat="48.82262" lon="2.44587">
        <ele>63.20000076294</ele>
        <time>2015-10-19T19:50:45Z</time>
      </trkpt>
      <trkpt lat="48.8228" lon="2.4459">
        <ele>70.400001525879</ele>
        <time>2015-10-19T19:50:50Z</time>
      </trkpt>
      <trkpt lat="48.82299" lon="2.44598">
        <ele>61</ele>
        <time>2015-10-19T19:50:54Z</time>
      </trkpt>
      <trkpt lat="48.82319" lon="2.44603">
        <ele>58.20000076294</ele>
        <time>2015-10-19T19:50:59Z</time>
      </trkpt>
      <trkpt lat="48.8234" lon="2.44605">
        <ele>56.79999923706</ele>
        <time>2015-10-19T19:51:05Z</time>
      </trkpt>
      <trkpt lat="48.82361" lon="2.44606">
        <ele>55.79999923706</ele>
        <time>2015-10-19T19:51:10Z</time>
      </trkpt>
      <trkpt lat="48.82381" lon="2.44609">
        <ele>52.400001525879</ele>
        <time>2015-10-19T19:51:15Z</time>
      </trkpt>
      <trkpt lat="48.824" lon="2.4461">
        <ele>51.20000076294</ele>
        <time>2015-10-19T19:51:20Z</time>
      </trkpt>
      <trkpt lat="48.82419" lon="2.44612">
        <ele>51.20000076294</ele>
        <time>2015-10-19T19:51:24Z</time>
      </trkpt>
      <trkpt lat="48.82439" lon="2.44615">
        <ele>49</ele>
        <time>2015-10-19T19:51:29Z</time>
      </trkpt>
      <trkpt lat="48.8246" lon="2.44615">
        <ele>50.20000076294</ele>
        <time>2015-10-19T19:51:35Z</time>
      </trkpt>
      <trkpt lat="48.8248" lon="2.44611">
        <ele>53.20000076294</ele>
        <time>2015-10-19T19:51:40Z</time>
      </trkpt>
      <trkpt lat="48.825" lon="2.44613">
        <ele>45.599998474121</ele>
        <time>2015-10-19T19:51:44Z</time>
      </trkpt>
      <trkpt lat="48.82519" lon="2.44614">
        <ele>44</ele>
        <time>2015-10-19T19:51:49Z</time>
      </trkpt>
      <trkpt lat="48.82539" lon="2.44614">
        <ele>45.79999923706</ele>
        <time>2015-10-19T19:51:55Z</time>
      </trkpt>
      <trkpt lat="48.82557" lon="2.44616">
        <ele>49.400001525879</ele>
        <time>2015-10-19T19:52:00Z</time>
      </trkpt>
      <trkpt lat="48.82578" lon="2.44616">
        <ele>49.79999923706</ele>
        <time>2015-10-19T19:52:05Z</time>
      </trkpt>
      <trkpt lat="48.82598" lon="2.44616">
        <ele>50.20000076294</ele>
        <time>2015-10-19T19:52:10Z</time>
      </trkpt>
      <trkpt lat="48.82617" lon="2.44614">
        <ele>55.20000076294</ele>
        <time>2015-10-19T19:52:15Z</time>
      </trkpt>
      <trkpt lat="48.82634" lon="2.44611">
        <ele>58</ele>
        <time>2015-10-19T19:52:20Z</time>
      </trkpt>
      <trkpt lat="48.82654" lon="2.44612">
        <ele>62.400001525879</ele>
        <time>2015-10-19T19:52:25Z</time>
      </trkpt>
      <trkpt lat="48.82673" lon="2.44613">
        <ele>64.199996948242</ele>
        <time>2015-10-19T19:52:30Z</time>
      </trkpt>
      <trkpt lat="48.82692" lon="2.44616">
        <ele>65.199996948242</ele>
        <time>2015-10-19T19:52:35Z</time>
      </trkpt>
      <trkpt lat="48.82712" lon="2.44621">
        <ele>66.800003051758</ele>
        <time>2015-10-19T19:52:40Z</time>
      </trkpt>
      <trkpt lat="48.82731" lon="2.44634">
        <ele>58</ele>
        <time>2015-10-19T19:52:44Z</time>
      </trkpt>
      <trkpt lat="48.82749" lon="2.44649">
        <ele>50.400001525879</ele>
        <time>2015-10-19T19:53:00Z</time>
      </trkpt>
      <trkpt lat="48.82748" lon="2.44661">
        <ele>51</ele>
        <time>2015-10-19T19:53:31Z</time>
      </trkpt>
      <trkpt lat="48.82745" lon="2.44689">
        <ele>51</ele>
        <time>2015-10-19T19:53:37Z</time>
      </trkpt>
      <trkpt lat="48.82744" lon="2.44718">
        <ele>51.400001525879</ele>
        <time>2015-10-19T19:53:42Z</time>
      </trkpt>
      <trkpt lat="48.82741" lon="2.44749">
        <ele>51.400001525879</ele>
        <time>2015-10-19T19:53:47Z</time>
      </trkpt>
      <trkpt lat="48.82739" lon="2.44782">
        <ele>52</ele>
        <time>2015-10-19T19:53:52Z</time>
      </trkpt>
      <trkpt lat="48.82737" lon="2.4481">
        <ele>51</ele>
        <time>2015-10-19T19:53:56Z</time>
      </trkpt>
      <trkpt lat="48.82734" lon="2.4484">
        <ele>50.599998474121</ele>
        <time>2015-10-19T19:54:00Z</time>
      </trkpt>
      <trkpt lat="48.82731" lon="2.44871">
        <ele>48.400001525879</ele>
        <time>2015-10-19T19:54:04Z</time>
      </trkpt>
      <trkpt lat="48.8273" lon="2.44907">
        <ele>46.400001525879</ele>
        <time>2015-10-19T19:54:08Z</time>
      </trkpt>
      <trkpt lat="48.8273" lon="2.44942">
        <ele>44.400001525879</ele>
        <time>2015-10-19T19:54:12Z</time>
      </trkpt>
      <trkpt lat="48.82729" lon="2.4496">
        <ele>43.400001525879</ele>
        <time>2015-10-19T19:54:14Z</time>
      </trkpt>
      <trkpt lat="48.82727" lon="2.44988">
        <ele>42.599998474121</ele>
        <time>2015-10-19T19:54:17Z</time>
      </trkpt>
      <trkpt lat="48.82726" lon="2.45016">
        <ele>41.400001525879</ele>
        <time>2015-10-19T19:54:20Z</time>
      </trkpt>
      <trkpt lat="48.82726" lon="2.45042">
        <ele>40.400001525879</ele>
        <time>2015-10-19T19:54:23Z</time>
      </trkpt>
      <trkpt lat="48.82723" lon="2.45076">
        <ele>41</ele>
        <time>2015-10-19T19:54:27Z</time>
      </trkpt>
      <trkpt lat="48.82721" lon="2.4511">
        <ele>40.79999923706</ele>
        <time>2015-10-19T19:54:31Z</time>
      </trkpt>
      <trkpt lat="48.82721" lon="2.45144">
        <ele>41.400001525879</ele>
        <time>2015-10-19T19:54:35Z</time>
      </trkpt>
      <trkpt lat="48.82718" lon="2.45177">
        <ele>41.400001525879</ele>
        <time>2015-10-19T19:54:39Z</time>
      </trkpt>
      <trkpt lat="48.82718" lon="2.4521">
        <ele>42.400001525879</ele>
        <time>2015-10-19T19:54:43Z</time>
      </trkpt>
      <trkpt lat="48.82716" lon="2.45242">
        <ele>43.20000076294</ele>
        <time>2015-10-19T19:54:47Z</time>
      </trkpt>
      <trkpt lat="48.82715" lon="2.45274">
        <ele>45.400001525879</ele>
        <time>2015-10-19T19:54:51Z</time>
      </trkpt>
      <trkpt lat="48.82713" lon="2.45305">
        <ele>48.400001525879</ele>
        <time>2015-10-19T19:54:55Z</time>
      </trkpt>
      <trkpt lat="48.82712" lon="2.45312">
        <ele>48.79999923706</ele>
        <time>2015-10-19T19:54:56Z</time>
      </trkpt>
      <trkpt lat="48.82711" lon="2.4534">
        <ele>51</ele>
        <time>2015-10-19T19:55:00Z</time>
      </trkpt>
      <trkpt lat="48.8271" lon="2.45373">
        <ele>52.79999923706</ele>
        <time>2015-10-19T19:55:05Z</time>
      </trkpt>
      <trkpt lat="48.82709" lon="2.45379">
        <ele>53</ele>
        <time>2015-10-19T19:55:06Z</time>
      </trkpt>
      <trkpt lat="48.82707" lon="2.45405">
        <ele>53.400001525879</ele>
        <time>2015-10-19T19:55:11Z</time>
      </trkpt>
      <trkpt lat="48.827" lon="2.45424">
        <ele>55.20000076294</ele>
        <time>2015-10-19T19:55:17Z</time>
      </trkpt>
      <trkpt lat="48.82692" lon="2.45447">
        <ele>56.599998474121</ele>
        <time>2015-10-19T19:55:23Z</time>
      </trkpt>
      <trkpt lat="48.82693" lon="2.45463">
        <ele>57.20000076294</ele>
        <time>2015-10-19T19:55:29Z</time>
      </trkpt>
      <trkpt lat="48.82695" lon="2.45465">
        <ele>57</ele>
        <time>2015-10-19T19:55:30Z</time>
      </trkpt>
      <trkpt lat="48.82699" lon="2.45469">
        <ele>57</ele>
        <time>2015-10-19T19:55:32Z</time>
      </trkpt>
      <trkpt lat="48.82708" lon="2.45469">
        <ele>56.400001525879</ele>
        <time>2015-10-19T19:55:36Z</time>
      </trkpt>
      <trkpt lat="48.82723" lon="2.45451">
        <ele>56.79999923706</ele>
        <time>2015-10-19T19:55:47Z</time>
      </trkpt>
      <trkpt lat="48.82723" lon="2.45447">
        <ele>55.79999923706</ele>
        <time>2015-10-19T19:55:49Z</time>
      </trkpt>
      <trkpt lat="48.82723" lon="2.45441">
        <ele>54.20000076294</ele>
        <time>2015-10-19T19:55:53Z</time>
      </trkpt>
      <trkpt lat="48.82726" lon="2.45431">
        <ele>53</ele>
        <time>2015-10-19T19:56:02Z</time>
      </trkpt>
      <trkpt lat="48.82728" lon="2.45422">
        <ele>53</ele>
        <time>2015-10-19T19:56:09Z</time>
      </trkpt>
      <trkpt lat="48.82743" lon="2.45402">
        <ele>53.400001525879</ele>
        <time>2015-10-19T19:56:15Z</time>
      </trkpt>
      <trkpt lat="48.82759" lon="2.45382">
        <ele>53.599998474121</ele>
        <time>2015-10-19T19:56:20Z</time>
      </trkpt>
      <trkpt lat="48.82773" lon="2.45363">
        <ele>53.599998474121</ele>
        <time>2015-10-19T19:56:24Z</time>
      </trkpt>
      <trkpt lat="48.8279" lon="2.45341">
        <ele>52.79999923706</ele>
        <time>2015-10-19T19:56:29Z</time>
      </trkpt>
      <trkpt lat="48.82804" lon="2.45322">
        <ele>52.79999923706</ele>
        <time>2015-10-19T19:56:33Z</time>
      </trkpt>
      <trkpt lat="48.82818" lon="2.45304">
        <ele>51.79999923706</ele>
        <time>2015-10-19T19:56:37Z</time>
      </trkpt>
      <trkpt lat="48.82831" lon="2.45285">
        <ele>52.400001525879</ele>
        <time>2015-10-19T19:56:41Z</time>
      </trkpt>
      <trkpt lat="48.82844" lon="2.45265">
        <ele>53.20000076294</ele>
        <time>2015-10-19T19:56:45Z</time>
      </trkpt>
      <trkpt lat="48.82858" lon="2.45243">
        <ele>53.400001525879</ele>
        <time>2015-10-19T19:56:49Z</time>
      </trkpt>
      <trkpt lat="48.82873" lon="2.45224">
        <ele>52.79999923706</ele>
        <time>2015-10-19T19:56:53Z</time>
      </trkpt>
      <trkpt lat="48.82877" lon="2.45219">
        <ele>52.599998474121</ele>
        <time>2015-10-19T19:56:54Z</time>
      </trkpt>
      <trkpt lat="48.82891" lon="2.45198">
        <ele>51.599998474121</ele>
        <time>2015-10-19T19:56:58Z</time>
      </trkpt>
      <trkpt lat="48.82906" lon="2.45177">
        <ele>50.599998474121</ele>
        <time>2015-10-19T19:57:02Z</time>
      </trkpt>
      <trkpt lat="48.8292" lon="2.45158">
        <ele>49.400001525879</ele>
        <time>2015-10-19T19:57:06Z</time>
      </trkpt>
      <trkpt lat="48.82933" lon="2.45138">
        <ele>49</ele>
        <time>2015-10-19T19:57:10Z</time>
      </trkpt>
      <trkpt lat="48.82949" lon="2.4512">
        <ele>47.79999923706</ele>
        <time>2015-10-19T19:57:14Z</time>
      </trkpt>
      <trkpt lat="48.82964" lon="2.451">
        <ele>46.400001525879</ele>
        <time>2015-10-19T19:57:18Z</time>
      </trkpt>
      <trkpt lat="48.82975" lon="2.45086">
        <ele>44.400001525879</ele>
        <time>2015-10-19T19:57:21Z</time>
      </trkpt>
      <trkpt lat="48.8299" lon="2.45069">
        <ele>43</ele>
        <time>2015-10-19T19:57:25Z</time>
      </trkpt>
      <trkpt lat="48.83005" lon="2.45051">
        <ele>42.20000076294</ele>
        <time>2015-10-19T19:57:29Z</time>
      </trkpt>
      <trkpt lat="48.83019" lon="2.45033">
        <ele>40.79999923706</ele>
        <time>2015-10-19T19:57:33Z</time>
      </trkpt>
      <trkpt lat="48.83035" lon="2.45015">
        <ele>39.599998474121</ele>
        <time>2015-10-19T19:57:37Z</time>
      </trkpt>
      <trkpt lat="48.83051" lon="2.44998">
        <ele>38.599998474121</ele>
        <time>2015-10-19T19:57:41Z</time>
      </trkpt>
      <trkpt lat="48.83065" lon="2.44978">
        <ele>38.599998474121</ele>
        <time>2015-10-19T19:57:45Z</time>
      </trkpt>
      <trkpt lat="48.8308" lon="2.44959">
        <ele>38.79999923706</ele>
        <time>2015-10-19T19:57:49Z</time>
      </trkpt>
      <trkpt lat="48.83095" lon="2.44939">
        <ele>38.599998474121</ele>
        <time>2015-10-19T19:57:53Z</time>
      </trkpt>
      <trkpt lat="48.8311" lon="2.4492">
        <ele>38</ele>
        <time>2015-10-19T19:57:57Z</time>
      </trkpt>
      <trkpt lat="48.83124" lon="2.44901">
        <ele>38.20000076294</ele>
        <time>2015-10-19T19:58:01Z</time>
      </trkpt>
      <trkpt lat="48.83139" lon="2.44881">
        <ele>37.400001525879</ele>
        <time>2015-10-19T19:58:05Z</time>
      </trkpt>
      <trkpt lat="48.83155" lon="2.4486">
        <ele>36</ele>
        <time>2015-10-19T19:58:09Z</time>
      </trkpt>
      <trkpt lat="48.83171" lon="2.4484">
        <ele>35</ele>
        <time>2015-10-19T19:58:13Z</time>
      </trkpt>
      <trkpt lat="48.83187" lon="2.44819">
        <ele>34.20000076294</ele>
        <time>2015-10-19T19:58:17Z</time>
      </trkpt>
      <trkpt lat="48.83203" lon="2.44799">
        <ele>33</ele>
        <time>2015-10-19T19:58:21Z</time>
      </trkpt>
      <trkpt lat="48.83218" lon="2.44777">
        <ele>34.599998474121</ele>
        <time>2015-10-19T19:58:25Z</time>
      </trkpt>
      <trkpt lat="48.83233" lon="2.44754">
        <ele>37.20000076294</ele>
        <time>2015-10-19T19:58:29Z</time>
      </trkpt>
      <trkpt lat="48.83249" lon="2.44731">
        <ele>39.20000076294</ele>
        <time>2015-10-19T19:58:33Z</time>
      </trkpt>
      <trkpt lat="48.83265" lon="2.44707">
        <ele>39.79999923706</ele>
        <time>2015-10-19T19:58:37Z</time>
      </trkpt>
      <trkpt lat="48.83273" lon="2.44695">
        <ele>40.20000076294</ele>
        <time>2015-10-19T19:58:39Z</time>
      </trkpt>
      <trkpt lat="48.83288" lon="2.44669">
        <ele>40.400001525879</ele>
        <time>2015-10-19T19:58:43Z</time>
      </trkpt>
      <trkpt lat="48.83304" lon="2.44644">
        <ele>39.79999923706</ele>
        <time>2015-10-19T19:58:47Z</time>
      </trkpt>
      <trkpt lat="48.8332" lon="2.44618">
        <ele>40.20000076294</ele>
        <time>2015-10-19T19:58:51Z</time>
      </trkpt>
      <trkpt lat="48.83336" lon="2.44591">
        <ele>40</ele>
        <time>2015-10-19T19:58:55Z</time>
      </trkpt>
      <trkpt lat="48.83351" lon="2.44566">
        <ele>39.400001525879</ele>
        <time>2015-10-19T19:58:59Z</time>
      </trkpt>
      <trkpt lat="48.83366" lon="2.44544">
        <ele>39.20000076294</ele>
        <time>2015-10-19T19:59:03Z</time>
      </trkpt>
      <trkpt lat="48.83381" lon="2.44523">
        <ele>38.599998474121</ele>
        <time>2015-10-19T19:59:07Z</time>
      </trkpt>
      <trkpt lat="48.83396" lon="2.44502">
        <ele>39.400001525879</ele>
        <time>2015-10-19T19:59:11Z</time>
      </trkpt>
      <trkpt lat="48.83411" lon="2.44483">
        <ele>39</ele>
        <time>2015-10-19T19:59:15Z</time>
      </trkpt>
      <trkpt lat="48.83426" lon="2.44463">
        <ele>39</ele>
        <time>2015-10-19T19:59:19Z</time>
      </trkpt>
      <trkpt lat="48.83442" lon="2.44442">
        <ele>39</ele>
        <time>2015-10-19T19:59:23Z</time>
      </trkpt>
      <trkpt lat="48.83458" lon="2.44423">
        <ele>40</ele>
        <time>2015-10-19T19:59:27Z</time>
      </trkpt>
      <trkpt lat="48.83473" lon="2.44403">
        <ele>40.599998474121</ele>
        <time>2015-10-19T19:59:31Z</time>
      </trkpt>
      <trkpt lat="48.83489" lon="2.44383">
        <ele>40.400001525879</ele>
        <time>2015-10-19T19:59:35Z</time>
      </trkpt>
      <trkpt lat="48.83504" lon="2.44362">
        <ele>41.20000076294</ele>
        <time>2015-10-19T19:59:39Z</time>
      </trkpt>
      <trkpt lat="48.83519" lon="2.44342">
        <ele>42.20000076294</ele>
        <time>2015-10-19T19:59:43Z</time>
      </trkpt>
      <trkpt lat="48.83534" lon="2.44321">
        <ele>42.599998474121</ele>
        <time>2015-10-19T19:59:47Z</time>
      </trkpt>
      <trkpt lat="48.83549" lon="2.443">
        <ele>43</ele>
        <time>2015-10-19T19:59:51Z</time>
      </trkpt>
      <trkpt lat="48.83565" lon="2.4428">
        <ele>43</ele>
        <time>2015-10-19T19:59:55Z</time>
      </trkpt>
      <trkpt lat="48.83581" lon="2.44259">
        <ele>42.79999923706</ele>
        <time>2015-10-19T19:59:59Z</time>
      </trkpt>
      <trkpt lat="48.83597" lon="2.44236">
        <ele>43.599998474121</ele>
        <time>2015-10-19T20:00:03Z</time>
      </trkpt>
      <trkpt lat="48.83613" lon="2.44214">
        <ele>43.79999923706</ele>
        <time>2015-10-19T20:00:07Z</time>
      </trkpt>
      <trkpt lat="48.83629" lon="2.44194">
        <ele>42.599998474121</ele>
        <time>2015-10-19T20:00:11Z</time>
      </trkpt>
      <trkpt lat="48.83645" lon="2.44173">
        <ele>40.79999923706</ele>
        <time>2015-10-19T20:00:15Z</time>
      </trkpt>
      <trkpt lat="48.8366" lon="2.44153">
        <ele>39.400001525879</ele>
        <time>2015-10-19T20:00:19Z</time>
      </trkpt>
      <trkpt lat="48.83675" lon="2.44134">
        <ele>38.400001525879</ele>
        <time>2015-10-19T20:00:23Z</time>
      </trkpt>
      <trkpt lat="48.83691" lon="2.44115">
        <ele>38.599998474121</ele>
        <time>2015-10-19T20:00:27Z</time>
      </trkpt>
      <trkpt lat="48.83706" lon="2.44096">
        <ele>37.599998474121</ele>
        <time>2015-10-19T20:00:31Z</time>
      </trkpt>
      <trkpt lat="48.83721" lon="2.44076">
        <ele>36.400001525879</ele>
        <time>2015-10-19T20:00:35Z</time>
      </trkpt>
      <trkpt lat="48.83732" lon="2.44062">
        <ele>35.79999923706</ele>
        <time>2015-10-19T20:00:38Z</time>
      </trkpt>
      <trkpt lat="48.83748" lon="2.44039">
        <ele>34.400001525879</ele>
        <time>2015-10-19T20:00:43Z</time>
      </trkpt>
      <trkpt lat="48.83764" lon="2.44017">
        <ele>32.79999923706</ele>
        <time>2015-10-19T20:00:48Z</time>
      </trkpt>
      <trkpt lat="48.83779" lon="2.43994">
        <ele>33.20000076294</ele>
        <time>2015-10-19T20:00:53Z</time>
      </trkpt>
      <trkpt lat="48.83796" lon="2.43971">
        <ele>33.400001525879</ele>
        <time>2015-10-19T20:00:58Z</time>
      </trkpt>
      <trkpt lat="48.83802" lon="2.43962">
        <ele>33.599998474121</ele>
        <time>2015-10-19T20:01:00Z</time>
      </trkpt>
      <trkpt lat="48.83812" lon="2.43949">
        <ele>33.79999923706</ele>
        <time>2015-10-19T20:01:03Z</time>
      </trkpt>
      <trkpt lat="48.83824" lon="2.43933">
        <ele>34.599998474121</ele>
        <time>2015-10-19T20:01:07Z</time>
      </trkpt>
      <trkpt lat="48.83839" lon="2.43911">
        <ele>35</ele>
        <time>2015-10-19T20:01:12Z</time>
      </trkpt>
      <trkpt lat="48.83854" lon="2.43891">
        <ele>34.20000076294</ele>
        <time>2015-10-19T20:01:17Z</time>
      </trkpt>
      <trkpt lat="48.83866" lon="2.43875">
        <ele>34</ele>
        <time>2015-10-19T20:01:21Z</time>
      </trkpt>
      <trkpt lat="48.83882" lon="2.43856">
        <ele>33.79999923706</ele>
        <time>2015-10-19T20:01:26Z</time>
      </trkpt>
      <trkpt lat="48.83888" lon="2.43847">
        <ele>34</ele>
        <time>2015-10-19T20:01:28Z</time>
      </trkpt>
      <trkpt lat="48.83903" lon="2.43826">
        <ele>33.599998474121</ele>
        <time>2015-10-19T20:01:33Z</time>
      </trkpt>
      <trkpt lat="48.83918" lon="2.43805">
        <ele>33.400001525879</ele>
        <time>2015-10-19T20:01:38Z</time>
      </trkpt>
      <trkpt lat="48.83933" lon="2.43785">
        <ele>33.599998474121</ele>
        <time>2015-10-19T20:01:43Z</time>
      </trkpt>
      <trkpt lat="48.83948" lon="2.43765">
        <ele>33.599998474121</ele>
        <time>2015-10-19T20:01:48Z</time>
      </trkpt>
      <trkpt lat="48.83963" lon="2.43745">
        <ele>34.599998474121</ele>
        <time>2015-10-19T20:01:53Z</time>
      </trkpt>
      <trkpt lat="48.8397" lon="2.43734">
        <ele>35.79999923706</ele>
        <time>2015-10-19T20:01:56Z</time>
      </trkpt>
      <trkpt lat="48.8398" lon="2.4372">
        <ele>36</ele>
        <time>2015-10-19T20:02:00Z</time>
      </trkpt>
      <trkpt lat="48.83986" lon="2.43713">
        <ele>35.599998474121</ele>
        <time>2015-10-19T20:02:02Z</time>
      </trkpt>
      <trkpt lat="48.83996" lon="2.43702">
        <ele>35.400001525879</ele>
        <time>2015-10-19T20:02:06Z</time>
      </trkpt>
      <trkpt lat="48.84002" lon="2.43693">
        <ele>35.400001525879</ele>
        <time>2015-10-19T20:02:09Z</time>
      </trkpt>
      <trkpt lat="48.84011" lon="2.4368">
        <ele>36</ele>
        <time>2015-10-19T20:02:15Z</time>
      </trkpt>
      <trkpt lat="48.84013" lon="2.43674">
        <ele>36.20000076294</ele>
        <time>2015-10-19T20:02:18Z</time>
      </trkpt>
      <trkpt lat="48.84015" lon="2.43675">
        <ele>37.400001525879</ele>
        <time>2015-10-19T20:02:22Z</time>
      </trkpt>
      <trkpt lat="48.84021" lon="2.43664">
        <ele>41.400001525879</ele>
        <time>2015-10-19T20:03:33Z</time>
      </trkpt>
      <trkpt lat="48.84041" lon="2.43657">
        <ele>41.79999923706</ele>
        <time>2015-10-19T20:03:49Z</time>
      </trkpt>
      <trkpt lat="48.84058" lon="2.43639">
        <ele>43</ele>
        <time>2015-10-19T20:03:56Z</time>
      </trkpt>
      <trkpt lat="48.8407" lon="2.43618">
        <ele>42.599998474121</ele>
        <time>2015-10-19T20:04:02Z</time>
      </trkpt>
      <trkpt lat="48.84076" lon="2.43589">
        <ele>42.400001525879</ele>
        <time>2015-10-19T20:04:08Z</time>
      </trkpt>
      <trkpt lat="48.84079" lon="2.4356">
        <ele>42.599998474121</ele>
        <time>2015-10-19T20:04:13Z</time>
      </trkpt>
      <trkpt lat="48.84082" lon="2.43529">
        <ele>42.599998474121</ele>
        <time>2015-10-19T20:04:18Z</time>
      </trkpt>
      <trkpt lat="48.84084" lon="2.43495">
        <ele>42.20000076294</ele>
        <time>2015-10-19T20:04:23Z</time>
      </trkpt>
      <trkpt lat="48.84086" lon="2.43467">
        <ele>42</ele>
        <time>2015-10-19T20:04:27Z</time>
      </trkpt>
      <trkpt lat="48.84089" lon="2.43436">
        <ele>41.400001525879</ele>
        <time>2015-10-19T20:04:31Z</time>
      </trkpt>
      <trkpt lat="48.84091" lon="2.43404">
        <ele>41.20000076294</ele>
        <time>2015-10-19T20:04:35Z</time>
      </trkpt>
      <trkpt lat="48.84093" lon="2.43373">
        <ele>41</ele>
        <time>2015-10-19T20:04:39Z</time>
      </trkpt>
      <trkpt lat="48.84094" lon="2.43366">
        <ele>40.79999923706</ele>
        <time>2015-10-19T20:04:40Z</time>
      </trkpt>
      <trkpt lat="48.84105" lon="2.43339">
        <ele>40.599998474121</ele>
        <time>2015-10-19T20:04:45Z</time>
      </trkpt>
      <trkpt lat="48.84109" lon="2.43327">
        <ele>40.400001525879</ele>
        <time>2015-10-19T20:04:47Z</time>
      </trkpt>
      <trkpt lat="48.84111" lon="2.43322">
        <ele>40.20000076294</ele>
        <time>2015-10-19T20:04:48Z</time>
      </trkpt>
      <trkpt lat="48.84117" lon="2.43291">
        <ele>39.79999923706</ele>
        <time>2015-10-19T20:04:53Z</time>
      </trkpt>
      <trkpt lat="48.84118" lon="2.43281">
        <ele>40.400001525879</ele>
        <time>2015-10-19T20:04:55Z</time>
      </trkpt>
      <trkpt lat="48.84121" lon="2.4325">
        <ele>39.79999923706</ele>
        <time>2015-10-19T20:05:01Z</time>
      </trkpt>
      <trkpt lat="48.84123" lon="2.43235">
        <ele>39.400001525879</ele>
        <time>2015-10-19T20:05:04Z</time>
      </trkpt>
      <trkpt lat="48.84124" lon="2.43226">
        <ele>39.79999923706</ele>
        <time>2015-10-19T20:05:06Z</time>
      </trkpt>
      <trkpt lat="48.84126" lon="2.43203">
        <ele>40</ele>
        <time>2015-10-19T20:05:11Z</time>
      </trkpt>
      <trkpt lat="48.84128" lon="2.43171">
        <ele>41.400001525879</ele>
        <time>2015-10-19T20:05:17Z</time>
      </trkpt>
      <trkpt lat="48.8413" lon="2.43142">
        <ele>42.79999923706</ele>
        <time>2015-10-19T20:05:22Z</time>
      </trkpt>
      <trkpt lat="48.8413" lon="2.4311">
        <ele>43.400001525879</ele>
        <time>2015-10-19T20:05:27Z</time>
      </trkpt>
      <trkpt lat="48.84133" lon="2.43078">
        <ele>44.20000076294</ele>
        <time>2015-10-19T20:05:32Z</time>
      </trkpt>
      <trkpt lat="48.84136" lon="2.43045">
        <ele>44.400001525879</ele>
        <time>2015-10-19T20:05:37Z</time>
      </trkpt>
      <trkpt lat="48.84137" lon="2.43018">
        <ele>45.400001525879</ele>
        <time>2015-10-19T20:05:41Z</time>
      </trkpt>
      <trkpt lat="48.84141" lon="2.42988">
        <ele>45.400001525879</ele>
        <time>2015-10-19T20:05:45Z</time>
      </trkpt>
      <trkpt lat="48.84148" lon="2.42953">
        <ele>45.599998474121</ele>
        <time>2015-10-19T20:05:49Z</time>
      </trkpt>
      <trkpt lat="48.84151" lon="2.42921">
        <ele>46.20000076294</ele>
        <time>2015-10-19T20:05:53Z</time>
      </trkpt>
      <trkpt lat="48.84152" lon="2.42889">
        <ele>46.79999923706</ele>
        <time>2015-10-19T20:05:57Z</time>
      </trkpt>
      <trkpt lat="48.84155" lon="2.42859">
        <ele>47</ele>
        <time>2015-10-19T20:06:01Z</time>
      </trkpt>
      <trkpt lat="48.84158" lon="2.42832">
        <ele>47.79999923706</ele>
        <time>2015-10-19T20:06:05Z</time>
      </trkpt>
      <trkpt lat="48.84159" lon="2.42814">
        <ele>48.599998474121</ele>
        <time>2015-10-19T20:06:09Z</time>
      </trkpt>
      <trkpt lat="48.84162" lon="2.42788">
        <ele>49.599998474121</ele>
        <time>2015-10-19T20:06:14Z</time>
      </trkpt>
      <trkpt lat="48.84165" lon="2.42762">
        <ele>50.599998474121</ele>
        <time>2015-10-19T20:06:18Z</time>
      </trkpt>
      <trkpt lat="48.84166" lon="2.42748">
        <ele>51.20000076294</ele>
        <time>2015-10-19T20:06:20Z</time>
      </trkpt>
      <trkpt lat="48.84169" lon="2.42728">
        <ele>52.20000076294</ele>
        <time>2015-10-19T20:06:23Z</time>
      </trkpt>
      <trkpt lat="48.84171" lon="2.42701">
        <ele>54.400001525879</ele>
        <time>2015-10-19T20:06:27Z</time>
      </trkpt>
      <trkpt lat="48.84171" lon="2.42693">
        <ele>54.599998474121</ele>
        <time>2015-10-19T20:06:28Z</time>
      </trkpt>
      <trkpt lat="48.84173" lon="2.42659">
        <ele>56.400001525879</ele>
        <time>2015-10-19T20:06:32Z</time>
      </trkpt>
      <trkpt lat="48.84175" lon="2.42634">
        <ele>57.79999923706</ele>
        <time>2015-10-19T20:06:35Z</time>
      </trkpt>
      <trkpt lat="48.84179" lon="2.42604">
        <ele>59.400001525879</ele>
        <time>2015-10-19T20:06:39Z</time>
      </trkpt>
      <trkpt lat="48.84182" lon="2.42573">
        <ele>61.599998474121</ele>
        <time>2015-10-19T20:06:44Z</time>
      </trkpt>
      <trkpt lat="48.84185" lon="2.42548">
        <ele>61</ele>
        <time>2015-10-19T20:06:48Z</time>
      </trkpt>
      <trkpt lat="48.84187" lon="2.42529">
        <ele>59.20000076294</ele>
        <time>2015-10-19T20:06:51Z</time>
      </trkpt>
      <trkpt lat="48.84189" lon="2.42496">
        <ele>57.400001525879</ele>
        <time>2015-10-19T20:06:56Z</time>
      </trkpt>
      <trkpt lat="48.84192" lon="2.42475">
        <ele>55.599998474121</ele>
        <time>2015-10-19T20:06:59Z</time>
      </trkpt>
      <trkpt lat="48.84198" lon="2.42447">
        <ele>53</ele>
        <time>2015-10-19T20:07:03Z</time>
      </trkpt>
      <trkpt lat="48.84199" lon="2.4244">
        <ele>52.20000076294</ele>
        <time>2015-10-19T20:07:04Z</time>
      </trkpt>
      <trkpt lat="48.84207" lon="2.42415">
        <ele>51</ele>
        <time>2015-10-19T20:07:08Z</time>
      </trkpt>
      <trkpt lat="48.84213" lon="2.42404">
        <ele>50.20000076294</ele>
        <time>2015-10-19T20:07:10Z</time>
      </trkpt>
      <trkpt lat="48.84226" lon="2.42388">
        <ele>47</ele>
        <time>2015-10-19T20:07:13Z</time>
      </trkpt>
      <trkpt lat="48.84242" lon="2.42369">
        <ele>44.599998474121</ele>
        <time>2015-10-19T20:07:17Z</time>
      </trkpt>
      <trkpt lat="48.84251" lon="2.4236">
        <ele>44.400001525879</ele>
        <time>2015-10-19T20:07:19Z</time>
      </trkpt>
      <trkpt lat="48.84268" lon="2.42344">
        <ele>42.79999923706</ele>
        <time>2015-10-19T20:07:24Z</time>
      </trkpt>
      <trkpt lat="48.84283" lon="2.42328">
        <ele>43</ele>
        <time>2015-10-19T20:07:29Z</time>
      </trkpt>
      <trkpt lat="48.8429" lon="2.42303">
        <ele>44.20000076294</ele>
        <time>2015-10-19T20:07:36Z</time>
      </trkpt>
      <trkpt lat="48.8429" lon="2.423">
        <ele>44.20000076294</ele>
        <time>2015-10-19T20:07:37Z</time>
      </trkpt>
      <trkpt lat="48.84292" lon="2.42298">
        <ele>44.20000076294</ele>
        <time>2015-10-19T20:07:38Z</time>
      </trkpt>
      <trkpt lat="48.84304" lon="2.42273">
        <ele>43.599998474121</ele>
        <time>2015-10-19T20:07:44Z</time>
      </trkpt>
      <trkpt lat="48.84312" lon="2.42248">
        <ele>42.400001525879</ele>
        <time>2015-10-19T20:07:50Z</time>
      </trkpt>
      <trkpt lat="48.8432" lon="2.42223">
        <ele>42.79999923706</ele>
        <time>2015-10-19T20:07:56Z</time>
      </trkpt>
      <trkpt lat="48.84326" lon="2.42193">
        <ele>44</ele>
        <time>2015-10-19T20:08:03Z</time>
      </trkpt>
      <trkpt lat="48.84329" lon="2.42165">
        <ele>45.20000076294</ele>
        <time>2015-10-19T20:08:09Z</time>
      </trkpt>
      <trkpt lat="48.8433" lon="2.42135">
        <ele>46.20000076294</ele>
        <time>2015-10-19T20:08:15Z</time>
      </trkpt>
      <trkpt lat="48.84334" lon="2.42108">
        <ele>46.79999923706</ele>
        <time>2015-10-19T20:08:21Z</time>
      </trkpt>
      <trkpt lat="48.84337" lon="2.42079">
        <ele>47.79999923706</ele>
        <time>2015-10-19T20:08:27Z</time>
      </trkpt>
      <trkpt lat="48.8434" lon="2.42048">
        <ele>49.599998474121</ele>
        <time>2015-10-19T20:08:33Z</time>
      </trkpt>
      <trkpt lat="48.84343" lon="2.42016">
        <ele>51.79999923706</ele>
        <time>2015-10-19T20:08:39Z</time>
      </trkpt>
      <trkpt lat="48.8435" lon="2.41994">
        <ele>51</ele>
        <time>2015-10-19T20:08:44Z</time>
      </trkpt>
      <trkpt lat="48.8435" lon="2.41966">
        <ele>48</ele>
        <time>2015-10-19T20:08:57Z</time>
      </trkpt>
      <trkpt lat="48.84353" lon="2.41945">
        <ele>48</ele>
        <time>2015-10-19T20:09:00Z</time>
      </trkpt>
      <trkpt lat="48.84355" lon="2.41916">
        <ele>47.599998474121</ele>
        <time>2015-10-19T20:09:04Z</time>
      </trkpt>
      <trkpt lat="48.8436" lon="2.41889">
        <ele>47.599998474121</ele>
        <time>2015-10-19T20:09:08Z</time>
      </trkpt>
      <trkpt lat="48.84363" lon="2.41869">
        <ele>47.599998474121</ele>
        <time>2015-10-19T20:09:11Z</time>
      </trkpt>
      <trkpt lat="48.84371" lon="2.41841">
        <ele>46.599998474121</ele>
        <time>2015-10-19T20:09:15Z</time>
      </trkpt>
      <trkpt lat="48.84371" lon="2.4181">
        <ele>45</ele>
        <time>2015-10-19T20:09:20Z</time>
      </trkpt>
      <trkpt lat="48.84374" lon="2.41781">
        <ele>45.20000076294</ele>
        <time>2015-10-19T20:09:26Z</time>
      </trkpt>
      <trkpt lat="48.84375" lon="2.41778">
        <ele>45.400001525879</ele>
        <time>2015-10-19T20:09:27Z</time>
      </trkpt>
      <trkpt lat="48.84374" lon="2.41748">
        <ele>44</ele>
        <time>2015-10-19T20:09:44Z</time>
      </trkpt>
      <trkpt lat="48.84374" lon="2.41717">
        <ele>44.79999923706</ele>
        <time>2015-10-19T20:09:50Z</time>
      </trkpt>
      <trkpt lat="48.84378" lon="2.41687">
        <ele>47.20000076294</ele>
        <time>2015-10-19T20:09:55Z</time>
      </trkpt>
      <trkpt lat="48.84381" lon="2.41657">
        <ele>50</ele>
        <time>2015-10-19T20:10:00Z</time>
      </trkpt>
      <trkpt lat="48.84384" lon="2.41626">
        <ele>53.79999923706</ele>
        <time>2015-10-19T20:10:05Z</time>
      </trkpt>
      <trkpt lat="48.8439" lon="2.41594">
        <ele>57.79999923706</ele>
        <time>2015-10-19T20:10:10Z</time>
      </trkpt>
      <trkpt lat="48.84394" lon="2.41565">
        <ele>62.79999923706</ele>
        <time>2015-10-19T20:10:15Z</time>
      </trkpt>
      <trkpt lat="48.844" lon="2.41533">
        <ele>68.199996948242</ele>
        <time>2015-10-19T20:10:20Z</time>
      </trkpt>
      <trkpt lat="48.84404" lon="2.41501">
        <ele>70.599998474121</ele>
        <time>2015-10-19T20:10:25Z</time>
      </trkpt>
      <trkpt lat="48.84399" lon="2.41467">
        <ele>62.20000076294</ele>
        <time>2015-10-19T20:10:30Z</time>
      </trkpt>
      <trkpt lat="48.84401" lon="2.4144">
        <ele>59.79999923706</ele>
        <time>2015-10-19T20:10:34Z</time>
      </trkpt>
      <trkpt lat="48.84401" lon="2.41433">
        <ele>59</ele>
        <time>2015-10-19T20:10:35Z</time>
      </trkpt>
      <trkpt lat="48.84401" lon="2.414">
        <ele>55.599998474121</ele>
        <time>2015-10-19T20:10:40Z</time>
      </trkpt>
      <trkpt lat="48.84404" lon="2.41368">
        <ele>53.400001525879</ele>
        <time>2015-10-19T20:10:45Z</time>
      </trkpt>
      <trkpt lat="48.84407" lon="2.41336">
        <ele>51.599998474121</ele>
        <time>2015-10-19T20:10:50Z</time>
      </trkpt>
      <trkpt lat="48.84408" lon="2.41323">
        <ele>50.79999923706</ele>
        <time>2015-10-19T20:10:52Z</time>
      </trkpt>
      <trkpt lat="48.8441" lon="2.41294">
        <ele>49.599998474121</ele>
        <time>2015-10-19T20:10:57Z</time>
      </trkpt>
      <trkpt lat="48.84409" lon="2.41276">
        <ele>48.599998474121</ele>
        <time>2015-10-19T20:11:00Z</time>
      </trkpt>
      <trkpt lat="48.8441" lon="2.41271">
        <ele>48.400001525879</ele>
        <time>2015-10-19T20:11:01Z</time>
      </trkpt>
      <trkpt lat="48.8441" lon="2.41254">
        <ele>47.599998474121</ele>
        <time>2015-10-19T20:11:04Z</time>
      </trkpt>
      <trkpt lat="48.84413" lon="2.41231">
        <ele>47.599998474121</ele>
        <time>2015-10-19T20:11:08Z</time>
      </trkpt>
      <trkpt lat="48.84416" lon="2.41202">
        <ele>47.79999923706</ele>
        <time>2015-10-19T20:11:13Z</time>
      </trkpt>
      <trkpt lat="48.84419" lon="2.41172">
        <ele>48.20000076294</ele>
        <time>2015-10-19T20:11:18Z</time>
      </trkpt>
      <trkpt lat="48.84421" lon="2.41142">
        <ele>48</ele>
        <time>2015-10-19T20:11:23Z</time>
      </trkpt>
      <trkpt lat="48.84424" lon="2.41114">
        <ele>49.599998474121</ele>
        <time>2015-10-19T20:11:28Z</time>
      </trkpt>
      <trkpt lat="48.84428" lon="2.41086">
        <ele>51</ele>
        <time>2015-10-19T20:11:33Z</time>
      </trkpt>
      <trkpt lat="48.84433" lon="2.4106">
        <ele>51.400001525879</ele>
        <time>2015-10-19T20:11:40Z</time>
      </trkpt>
      <trkpt lat="48.84433" lon="2.41058">
        <ele>51</ele>
        <time>2015-10-19T20:11:41Z</time>
      </trkpt>
      <trkpt lat="48.84433" lon="2.41042">
        <ele>49.20000076294</ele>
        <time>2015-10-19T20:11:46Z</time>
      </trkpt>
      <trkpt lat="48.84433" lon="2.41033">
        <ele>48.599998474121</ele>
        <time>2015-10-19T20:11:50Z</time>
      </trkpt>
      <trkpt lat="48.84435" lon="2.41019">
        <ele>48.599998474121</ele>
        <time>2015-10-19T20:11:55Z</time>
      </trkpt>
      <trkpt lat="48.84444" lon="2.40994">
        <ele>49</ele>
        <time>2015-10-19T20:12:02Z</time>
      </trkpt>
      <trkpt lat="48.84448" lon="2.40966">
        <ele>50</ele>
        <time>2015-10-19T20:12:08Z</time>
      </trkpt>
      <trkpt lat="48.84454" lon="2.40937">
        <ele>50.599998474121</ele>
        <time>2015-10-19T20:12:14Z</time>
      </trkpt>
      <trkpt lat="48.84453" lon="2.40905">
        <ele>49.599998474121</ele>
        <time>2015-10-19T20:12:20Z</time>
      </trkpt>
      <trkpt lat="48.84457" lon="2.40878">
        <ele>50</ele>
        <time>2015-10-19T20:12:25Z</time>
      </trkpt>
      <trkpt lat="48.84462" lon="2.40849">
        <ele>51.20000076294</ele>
        <time>2015-10-19T20:12:30Z</time>
      </trkpt>
      <trkpt lat="48.84463" lon="2.40819">
        <ele>50.79999923706</ele>
        <time>2015-10-19T20:12:35Z</time>
      </trkpt>
      <trkpt lat="48.84466" lon="2.40792">
        <ele>51.20000076294</ele>
        <time>2015-10-19T20:12:39Z</time>
      </trkpt>
      <trkpt lat="48.8447" lon="2.40759">
        <ele>51.599998474121</ele>
        <time>2015-10-19T20:12:44Z</time>
      </trkpt>
      <trkpt lat="48.84474" lon="2.40731">
        <ele>52</ele>
        <time>2015-10-19T20:12:48Z</time>
      </trkpt>
      <trkpt lat="48.84478" lon="2.40702">
        <ele>53</ele>
        <time>2015-10-19T20:12:52Z</time>
      </trkpt>
      <trkpt lat="48.84481" lon="2.40673">
        <ele>53.599998474121</ele>
        <time>2015-10-19T20:12:56Z</time>
      </trkpt>
      <trkpt lat="48.84483" lon="2.40646">
        <ele>54</ele>
        <time>2015-10-19T20:13:00Z</time>
      </trkpt>
      <trkpt lat="48.84481" lon="2.40619">
        <ele>56.20000076294</ele>
        <time>2015-10-19T20:13:05Z</time>
      </trkpt>
      <trkpt lat="48.84483" lon="2.40592">
        <ele>55</ele>
        <time>2015-10-19T20:13:09Z</time>
      </trkpt>
      <trkpt lat="48.84483" lon="2.40559">
        <ele>53.599998474121</ele>
        <time>2015-10-19T20:13:14Z</time>
      </trkpt>
      <trkpt lat="48.84484" lon="2.40527">
        <ele>54.20000076294</ele>
        <time>2015-10-19T20:13:19Z</time>
      </trkpt>
      <trkpt lat="48.84483" lon="2.40507">
        <ele>55.599998474121</ele>
        <time>2015-10-19T20:13:23Z</time>
      </trkpt>
      <trkpt lat="48.84487" lon="2.40479">
        <ele>57.20000076294</ele>
        <time>2015-10-19T20:13:28Z</time>
      </trkpt>
      <trkpt lat="48.8449" lon="2.40451">
        <ele>59</ele>
        <time>2015-10-19T20:13:33Z</time>
      </trkpt>
      <trkpt lat="48.84492" lon="2.40423">
        <ele>60.400001525879</ele>
        <time>2015-10-19T20:13:38Z</time>
      </trkpt>
      <trkpt lat="48.84496" lon="2.40394">
        <ele>61</ele>
        <time>2015-10-19T20:13:43Z</time>
      </trkpt>
      <trkpt lat="48.84499" lon="2.40367">
        <ele>63</ele>
        <time>2015-10-19T20:13:48Z</time>
      </trkpt>
      <trkpt lat="48.84504" lon="2.40339">
        <ele>66.199996948242</ele>
        <time>2015-10-19T20:13:53Z</time>
      </trkpt>
      <trkpt lat="48.84509" lon="2.40311">
        <ele>68.400001525879</ele>
        <time>2015-10-19T20:13:58Z</time>
      </trkpt>
      <trkpt lat="48.84514" lon="2.4028">
        <ele>68.800003051758</ele>
        <time>2015-10-19T20:14:04Z</time>
      </trkpt>
      <trkpt lat="48.8452" lon="2.40252">
        <ele>64.800003051758</ele>
        <time>2015-10-19T20:14:11Z</time>
      </trkpt>
      <trkpt lat="48.8452" lon="2.40225">
        <ele>64.400001525879</ele>
        <time>2015-10-19T20:14:20Z</time>
      </trkpt>
      <trkpt lat="48.84513" lon="2.40201">
        <ele>64</ele>
        <time>2015-10-19T20:14:31Z</time>
      </trkpt>
      <trkpt lat="48.8451" lon="2.40175">
        <ele>66</ele>
        <time>2015-10-19T20:14:38Z</time>
      </trkpt>
      <trkpt lat="48.84516" lon="2.40145">
        <ele>66.800003051758</ele>
        <time>2015-10-19T20:14:43Z</time>
      </trkpt>
      <trkpt lat="48.84523" lon="2.40114">
        <ele>66.599998474121</ele>
        <time>2015-10-19T20:14:48Z</time>
      </trkpt>
      <trkpt lat="48.84528" lon="2.40084">
        <ele>66.199996948242</ele>
        <time>2015-10-19T20:14:53Z</time>
      </trkpt>
      <trkpt lat="48.84529" lon="2.40051">
        <ele>64.800003051758</ele>
        <time>2015-10-19T20:14:58Z</time>
      </trkpt>
      <trkpt lat="48.84529" lon="2.40018">
        <ele>63.599998474121</ele>
        <time>2015-10-19T20:15:03Z</time>
      </trkpt>
      <trkpt lat="48.8453" lon="2.39986">
        <ele>62</ele>
        <time>2015-10-19T20:15:08Z</time>
      </trkpt>
      <trkpt lat="48.84533" lon="2.39953">
        <ele>62</ele>
        <time>2015-10-19T20:15:13Z</time>
      </trkpt>
      <trkpt lat="48.84537" lon="2.39919">
        <ele>60.79999923706</ele>
        <time>2015-10-19T20:15:18Z</time>
      </trkpt>
      <trkpt lat="48.84541" lon="2.39892">
        <ele>61</ele>
        <time>2015-10-19T20:15:22Z</time>
      </trkpt>
      <trkpt lat="48.84544" lon="2.39862">
        <ele>61.400001525879</ele>
        <time>2015-10-19T20:15:27Z</time>
      </trkpt>
      <trkpt lat="48.84547" lon="2.39832">
        <ele>61.20000076294</ele>
        <time>2015-10-19T20:15:32Z</time>
      </trkpt>
      <trkpt lat="48.84549" lon="2.39802">
        <ele>63.400001525879</ele>
        <time>2015-10-19T20:15:37Z</time>
      </trkpt>
      <trkpt lat="48.84556" lon="2.39771">
        <ele>65.599998474121</ele>
        <time>2015-10-19T20:15:42Z</time>
      </trkpt>
      <trkpt lat="48.84559" lon="2.3974">
        <ele>67.800003051758</ele>
        <time>2015-10-19T20:15:47Z</time>
      </trkpt>
      <trkpt lat="48.84564" lon="2.39712">
        <ele>69.199996948242</ele>
        <time>2015-10-19T20:15:51Z</time>
      </trkpt>
      <trkpt lat="48.84568" lon="2.39678">
        <ele>70.599998474121</ele>
        <time>2015-10-19T20:15:56Z</time>
      </trkpt>
      <trkpt lat="48.8457" lon="2.39646">
        <ele>69.400001525879</ele>
        <time>2015-10-19T20:16:00Z</time>
      </trkpt>
      <trkpt lat="48.84565" lon="2.39616">
        <ele>63.79999923706</ele>
        <time>2015-10-19T20:16:04Z</time>
      </trkpt>
      <trkpt lat="48.84561" lon="2.39587">
        <ele>58.599998474121</ele>
        <time>2015-10-19T20:16:08Z</time>
      </trkpt>
      <trkpt lat="48.84562" lon="2.39579">
        <ele>58.20000076294</ele>
        <time>2015-10-19T20:16:09Z</time>
      </trkpt>
      <trkpt lat="48.84564" lon="2.39551">
        <ele>56.400001525879</ele>
        <time>2015-10-19T20:16:13Z</time>
      </trkpt>
      <trkpt lat="48.84566" lon="2.39537">
        <ele>55.599998474121</ele>
        <time>2015-10-19T20:16:16Z</time>
      </trkpt>
      <trkpt lat="48.84576" lon="2.39514">
        <ele>54.400001525879</ele>
        <time>2015-10-19T20:16:23Z</time>
      </trkpt>
      <trkpt lat="48.84579" lon="2.39511">
        <ele>53.599998474121</ele>
        <time>2015-10-19T20:16:25Z</time>
      </trkpt>
      <trkpt lat="48.84585" lon="2.395">
        <ele>53</ele>
        <time>2015-10-19T20:16:29Z</time>
      </trkpt>
      <trkpt lat="48.8459" lon="2.39493">
        <ele>52.599998474121</ele>
        <time>2015-10-19T20:16:32Z</time>
      </trkpt>
      <trkpt lat="48.84608" lon="2.39477">
        <ele>54.20000076294</ele>
        <time>2015-10-19T20:16:39Z</time>
      </trkpt>
      <trkpt lat="48.84622" lon="2.39457">
        <ele>55</ele>
        <time>2015-10-19T20:16:45Z</time>
      </trkpt>
      <trkpt lat="48.84638" lon="2.39443">
        <ele>55.79999923706</ele>
        <time>2015-10-19T20:16:50Z</time>
      </trkpt>
      <trkpt lat="48.84653" lon="2.39427">
        <ele>56.79999923706</ele>
        <time>2015-10-19T20:16:55Z</time>
      </trkpt>
      <trkpt lat="48.84667" lon="2.39409">
        <ele>57.599998474121</ele>
        <time>2015-10-19T20:17:00Z</time>
      </trkpt>
      <trkpt lat="48.84684" lon="2.39392">
        <ele>57.79999923706</ele>
        <time>2015-10-19T20:17:05Z</time>
      </trkpt>
      <trkpt lat="48.847" lon="2.39372">
        <ele>57.79999923706</ele>
        <time>2015-10-19T20:17:10Z</time>
      </trkpt>
      <trkpt lat="48.84715" lon="2.39351">
        <ele>56.599998474121</ele>
        <time>2015-10-19T20:17:15Z</time>
      </trkpt>
      <trkpt lat="48.84734" lon="2.39334">
        <ele>55.400001525879</ele>
        <time>2015-10-19T20:17:20Z</time>
      </trkpt>
      <trkpt lat="48.8475" lon="2.39319">
        <ele>54.400001525879</ele>
        <time>2015-10-19T20:17:24Z</time>
      </trkpt>
      <trkpt lat="48.84768" lon="2.39299">
        <ele>53</ele>
        <time>2015-10-19T20:17:29Z</time>
      </trkpt>
      <trkpt lat="48.84785" lon="2.39283">
        <ele>54.400001525879</ele>
        <time>2015-10-19T20:17:35Z</time>
      </trkpt>
      <trkpt lat="48.84801" lon="2.39267">
        <ele>52.599998474121</ele>
        <time>2015-10-19T20:17:40Z</time>
      </trkpt>
      <trkpt lat="48.84816" lon="2.39254">
        <ele>51.79999923706</ele>
        <time>2015-10-19T20:17:45Z</time>
      </trkpt>
      <trkpt lat="48.84832" lon="2.3924">
        <ele>50.79999923706</ele>
        <time>2015-10-19T20:17:50Z</time>
      </trkpt>
      <trkpt lat="48.84848" lon="2.39222">
        <ele>49.599998474121</ele>
        <time>2015-10-19T20:17:55Z</time>
      </trkpt>
      <trkpt lat="48.84866" lon="2.39208">
        <ele>48.599998474121</ele>
        <time>2015-10-19T20:18:00Z</time>
      </trkpt>
      <trkpt lat="48.84885" lon="2.39191">
        <ele>47.20000076294</ele>
        <time>2015-10-19T20:18:05Z</time>
      </trkpt>
      <trkpt lat="48.84895" lon="2.39163">
        <ele>45.599998474121</ele>
        <time>2015-10-19T20:18:10Z</time>
      </trkpt>
      <trkpt lat="48.84902" lon="2.39131">
        <ele>42</ele>
        <time>2015-10-19T20:18:15Z</time>
      </trkpt>
      <trkpt lat="48.84907" lon="2.39102">
        <ele>39.400001525879</ele>
        <time>2015-10-19T20:18:19Z</time>
      </trkpt>
      <trkpt lat="48.84913" lon="2.39072">
        <ele>38.20000076294</ele>
        <time>2015-10-19T20:18:23Z</time>
      </trkpt>
      <trkpt lat="48.84919" lon="2.39042">
        <ele>36.599998474121</ele>
        <time>2015-10-19T20:18:27Z</time>
      </trkpt>
      <trkpt lat="48.84927" lon="2.3901">
        <ele>35.400001525879</ele>
        <time>2015-10-19T20:18:31Z</time>
      </trkpt>
      <trkpt lat="48.84934" lon="2.38979">
        <ele>34.400001525879</ele>
        <time>2015-10-19T20:18:35Z</time>
      </trkpt>
      <trkpt lat="48.84938" lon="2.38947">
        <ele>32.599998474121</ele>
        <time>2015-10-19T20:18:39Z</time>
      </trkpt>
      <trkpt lat="48.84945" lon="2.38925">
        <ele>32</ele>
        <time>2015-10-19T20:18:42Z</time>
      </trkpt>
      <trkpt lat="48.8495" lon="2.38902">
        <ele>31.39999961853</ele>
        <time>2015-10-19T20:18:45Z</time>
      </trkpt>
      <trkpt lat="48.84958" lon="2.38872">
        <ele>30.799999237061</ele>
        <time>2015-10-19T20:18:49Z</time>
      </trkpt>
      <trkpt lat="48.84962" lon="2.38849">
        <ele>29.799999237061</ele>
        <time>2015-10-19T20:18:52Z</time>
      </trkpt>
      <trkpt lat="48.84966" lon="2.38816">
        <ele>28.39999961853</ele>
        <time>2015-10-19T20:18:56Z</time>
      </trkpt>
      <trkpt lat="48.84971" lon="2.38784">
        <ele>27.39999961853</ele>
        <time>2015-10-19T20:19:00Z</time>
      </trkpt>
      <trkpt lat="48.84976" lon="2.38761">
        <ele>26.60000038147</ele>
        <time>2015-10-19T20:19:03Z</time>
      </trkpt>
      <trkpt lat="48.84982" lon="2.38728">
        <ele>25.39999961853</ele>
        <time>2015-10-19T20:19:07Z</time>
      </trkpt>
      <trkpt lat="48.84986" lon="2.38694">
        <ele>23.39999961853</ele>
        <time>2015-10-19T20:19:11Z</time>
      </trkpt>
      <trkpt lat="48.84992" lon="2.38662">
        <ele>21.799999237061</ele>
        <time>2015-10-19T20:19:15Z</time>
      </trkpt>
      <trkpt lat="48.84998" lon="2.3863">
        <ele>21.39999961853</ele>
        <time>2015-10-19T20:19:19Z</time>
      </trkpt>
      <trkpt lat="48.85" lon="2.38596">
        <ele>20.39999961853</ele>
        <time>2015-10-19T20:19:23Z</time>
      </trkpt>
      <trkpt lat="48.85005" lon="2.38563">
        <ele>19</ele>
        <time>2015-10-19T20:19:27Z</time>
      </trkpt>
      <trkpt lat="48.85011" lon="2.38534">
        <ele>18.799999237061</ele>
        <time>2015-10-19T20:19:31Z</time>
      </trkpt>
      <trkpt lat="48.85019" lon="2.38504">
        <ele>19.799999237061</ele>
        <time>2015-10-19T20:19:35Z</time>
      </trkpt>
      <trkpt lat="48.8502" lon="2.38496">
        <ele>19.60000038147</ele>
        <time>2015-10-19T20:19:36Z</time>
      </trkpt>
      <trkpt lat="48.85026" lon="2.3847">
        <ele>20</ele>
        <time>2015-10-19T20:19:40Z</time>
      </trkpt>
      <trkpt lat="48.85028" lon="2.38445">
        <ele>19.799999237061</ele>
        <time>2015-10-19T20:19:44Z</time>
      </trkpt>
      <trkpt lat="48.85032" lon="2.38414">
        <ele>19.799999237061</ele>
        <time>2015-10-19T20:19:49Z</time>
      </trkpt>
      <trkpt lat="48.85035" lon="2.38387">
        <ele>19.60000038147</ele>
        <time>2015-10-19T20:19:53Z</time>
      </trkpt>
      <trkpt lat="48.85037" lon="2.38353">
        <ele>20</ele>
        <time>2015-10-19T20:19:58Z</time>
      </trkpt>
      <trkpt lat="48.85036" lon="2.38347">
        <ele>20</ele>
        <time>2015-10-19T20:19:59Z</time>
      </trkpt>
      <trkpt lat="48.85034" lon="2.38319">
        <ele>19.200000762939</ele>
        <time>2015-10-19T20:20:03Z</time>
      </trkpt>
      <trkpt lat="48.85035" lon="2.38311">
        <ele>19</ele>
        <time>2015-10-19T20:20:04Z</time>
      </trkpt>
      <trkpt lat="48.85039" lon="2.3828">
        <ele>21.39999961853</ele>
        <time>2015-10-19T20:20:08Z</time>
      </trkpt>
      <trkpt lat="48.8504" lon="2.38251">
        <ele>23</ele>
        <time>2015-10-19T20:20:12Z</time>
      </trkpt>
      <trkpt lat="48.85041" lon="2.3822">
        <ele>26</ele>
        <time>2015-10-19T20:20:16Z</time>
      </trkpt>
      <trkpt lat="48.85044" lon="2.38192">
        <ele>29.39999961853</ele>
        <time>2015-10-19T20:20:20Z</time>
      </trkpt>
      <trkpt lat="48.85048" lon="2.38178">
        <ele>30.60000038147</ele>
        <time>2015-10-19T20:20:22Z</time>
      </trkpt>
      <trkpt lat="48.85055" lon="2.38149">
        <ele>30.39999961853</ele>
        <time>2015-10-19T20:20:26Z</time>
      </trkpt>
      <trkpt lat="48.85057" lon="2.38135">
        <ele>30.799999237061</ele>
        <time>2015-10-19T20:20:28Z</time>
      </trkpt>
      <trkpt lat="48.85057" lon="2.38121">
        <ele>31.60000038147</ele>
        <time>2015-10-19T20:20:30Z</time>
      </trkpt>
      <trkpt lat="48.85058" lon="2.38089">
        <ele>33.79999923706</ele>
        <time>2015-10-19T20:20:35Z</time>
      </trkpt>
      <trkpt lat="48.85061" lon="2.38061">
        <ele>35.79999923706</ele>
        <time>2015-10-19T20:20:39Z</time>
      </trkpt>
      <trkpt lat="48.85063" lon="2.38046">
        <ele>36.599998474121</ele>
        <time>2015-10-19T20:20:41Z</time>
      </trkpt>
      <trkpt lat="48.85065" lon="2.38017">
        <ele>38.599998474121</ele>
        <time>2015-10-19T20:20:45Z</time>
      </trkpt>
      <trkpt lat="48.8507" lon="2.37988">
        <ele>40.599998474121</ele>
        <time>2015-10-19T20:20:49Z</time>
      </trkpt>
      <trkpt lat="48.85072" lon="2.37981">
        <ele>41</ele>
        <time>2015-10-19T20:20:50Z</time>
      </trkpt>
      <trkpt lat="48.85076" lon="2.3796">
        <ele>41.400001525879</ele>
        <time>2015-10-19T20:20:53Z</time>
      </trkpt>
      <trkpt lat="48.85078" lon="2.37931">
        <ele>40.79999923706</ele>
        <time>2015-10-19T20:20:57Z</time>
      </trkpt>
      <trkpt lat="48.85084" lon="2.37902">
        <ele>41</ele>
        <time>2015-10-19T20:21:01Z</time>
      </trkpt>
      <trkpt lat="48.85087" lon="2.37887">
        <ele>41.20000076294</ele>
        <time>2015-10-19T20:21:03Z</time>
      </trkpt>
      <trkpt lat="48.85082" lon="2.37866">
        <ele>35</ele>
        <time>2015-10-19T20:21:06Z</time>
      </trkpt>
      <trkpt lat="48.85088" lon="2.3784">
        <ele>32</ele>
        <time>2015-10-19T20:21:10Z</time>
      </trkpt>
      <trkpt lat="48.85097" lon="2.3781">
        <ele>30.60000038147</ele>
        <time>2015-10-19T20:21:14Z</time>
      </trkpt>
      <trkpt lat="48.85103" lon="2.37778">
        <ele>29</ele>
        <time>2015-10-19T20:21:18Z</time>
      </trkpt>
      <trkpt lat="48.85106" lon="2.37763">
        <ele>28.39999961853</ele>
        <time>2015-10-19T20:21:20Z</time>
      </trkpt>
      <trkpt lat="48.85112" lon="2.37735">
        <ele>27.60000038147</ele>
        <time>2015-10-19T20:21:24Z</time>
      </trkpt>
      <trkpt lat="48.85123" lon="2.37707">
        <ele>26</ele>
        <time>2015-10-19T20:21:28Z</time>
      </trkpt>
      <trkpt lat="48.85134" lon="2.37677">
        <ele>24.39999961853</ele>
        <time>2015-10-19T20:21:32Z</time>
      </trkpt>
      <trkpt lat="48.85139" lon="2.37654">
        <ele>24.200000762939</ele>
        <time>2015-10-19T20:21:35Z</time>
      </trkpt>
      <trkpt lat="48.8514" lon="2.37622">
        <ele>23.39999961853</ele>
        <time>2015-10-19T20:21:39Z</time>
      </trkpt>
      <trkpt lat="48.85141" lon="2.37616">
        <ele>22.799999237061</ele>
        <time>2015-10-19T20:21:40Z</time>
      </trkpt>
      <trkpt lat="48.85145" lon="2.37605">
        <ele>23</ele>
        <time>2015-10-19T20:21:42Z</time>
      </trkpt>
      <trkpt lat="48.85153" lon="2.37577">
        <ele>22.60000038147</ele>
        <time>2015-10-19T20:21:47Z</time>
      </trkpt>
      <trkpt lat="48.85159" lon="2.37568">
        <ele>22.200000762939</ele>
        <time>2015-10-19T20:21:49Z</time>
      </trkpt>
      <trkpt lat="48.85175" lon="2.37547">
        <ele>21.799999237061</ele>
        <time>2015-10-19T20:21:53Z</time>
      </trkpt>
      <trkpt lat="48.85184" lon="2.37514">
        <ele>21</ele>
        <time>2015-10-19T20:21:58Z</time>
      </trkpt>
      <trkpt lat="48.85192" lon="2.37487">
        <ele>19.799999237061</ele>
        <time>2015-10-19T20:22:02Z</time>
      </trkpt>
      <trkpt lat="48.85201" lon="2.3746">
        <ele>19.200000762939</ele>
        <time>2015-10-19T20:22:06Z</time>
      </trkpt>
      <trkpt lat="48.85205" lon="2.37438">
        <ele>18.799999237061</ele>
        <time>2015-10-19T20:22:09Z</time>
      </trkpt>
      <trkpt lat="48.85211" lon="2.37403">
        <ele>20</ele>
        <time>2015-10-19T20:22:14Z</time>
      </trkpt>
      <trkpt lat="48.85213" lon="2.37374">
        <ele>21.200000762939</ele>
        <time>2015-10-19T20:22:18Z</time>
      </trkpt>
      <trkpt lat="48.85216" lon="2.3736">
        <ele>21.799999237061</ele>
        <time>2015-10-19T20:22:20Z</time>
      </trkpt>
      <trkpt lat="48.85224" lon="2.37333">
        <ele>22.799999237061</ele>
        <time>2015-10-19T20:22:24Z</time>
      </trkpt>
      <trkpt lat="48.85225" lon="2.37325">
        <ele>23.200000762939</ele>
        <time>2015-10-19T20:22:25Z</time>
      </trkpt>
      <trkpt lat="48.85232" lon="2.37298">
        <ele>24.39999961853</ele>
        <time>2015-10-19T20:22:29Z</time>
      </trkpt>
      <trkpt lat="48.8524" lon="2.37273">
        <ele>25.799999237061</ele>
        <time>2015-10-19T20:22:33Z</time>
      </trkpt>
      <trkpt lat="48.85247" lon="2.37254">
        <ele>26.39999961853</ele>
        <time>2015-10-19T20:22:36Z</time>
      </trkpt>
      <trkpt lat="48.85253" lon="2.37227">
        <ele>27.200000762939</ele>
        <time>2015-10-19T20:22:40Z</time>
      </trkpt>
      <trkpt lat="48.85261" lon="2.37195">
        <ele>27.39999961853</ele>
        <time>2015-10-19T20:22:45Z</time>
      </trkpt>
      <trkpt lat="48.85266" lon="2.37166">
        <ele>28</ele>
        <time>2015-10-19T20:22:50Z</time>
      </trkpt>
      <trkpt lat="48.85274" lon="2.37136">
        <ele>30.799999237061</ele>
        <time>2015-10-19T20:22:56Z</time>
      </trkpt>
      <trkpt lat="48.85284" lon="2.3711">
        <ele>35</ele>
        <time>2015-10-19T20:23:03Z</time>
      </trkpt>
      <trkpt lat="48.85285" lon="2.37084">
        <ele>47.400001525879</ele>
        <time>2015-10-19T20:23:13Z</time>
      </trkpt>
      <trkpt lat="48.85298" lon="2.37065">
        <ele>49.79999923706</ele>
        <time>2015-10-19T20:23:19Z</time>
      </trkpt>
      <trkpt lat="48.85304" lon="2.37037">
        <ele>53.599998474121</ele>
        <time>2015-10-19T20:23:27Z</time>
      </trkpt>
      <trkpt lat="48.85315" lon="2.37013">
        <ele>56</ele>
        <time>2015-10-19T20:23:35Z</time>
      </trkpt>
      <trkpt lat="48.85317" lon="2.37001">
        <ele>56.79999923706</ele>
        <time>2015-10-19T20:23:38Z</time>
      </trkpt>
      <trkpt lat="48.85319" lon="2.36988">
        <ele>57.20000076294</ele>
        <time>2015-10-19T20:23:42Z</time>
      </trkpt>
      <trkpt lat="48.85323" lon="2.36983">
        <ele>56.400001525879</ele>
        <time>2015-10-19T20:23:45Z</time>
      </trkpt>
      <trkpt lat="48.85338" lon="2.36977">
        <ele>45.599998474121</ele>
        <time>2015-10-19T20:24:27Z</time>
      </trkpt>
      <trkpt lat="48.85346" lon="2.36979">
        <ele>41.20000076294</ele>
        <time>2015-10-19T20:24:57Z</time>
      </trkpt>
      <trkpt lat="48.85363" lon="2.36963">
        <ele>38.599998474121</ele>
        <time>2015-10-19T20:25:18Z</time>
      </trkpt>
      <trkpt lat="48.85369" lon="2.36937">
        <ele>37.599998474121</ele>
        <time>2015-10-19T20:25:28Z</time>
      </trkpt>
      <trkpt lat="48.85373" lon="2.36912">
        <ele>36</ele>
        <time>2015-10-19T20:25:37Z</time>
      </trkpt>
      <trkpt lat="48.85365" lon="2.36894">
        <ele>35.20000076294</ele>
        <time>2015-10-19T20:26:17Z</time>
      </trkpt>
      <trkpt lat="48.85371" lon="2.36876">
        <ele>36.400001525879</ele>
        <time>2015-10-19T20:26:41Z</time>
      </trkpt>
      <trkpt lat="48.85374" lon="2.36846">
        <ele>36.400001525879</ele>
        <time>2015-10-19T20:26:55Z</time>
      </trkpt>
      <trkpt lat="48.85378" lon="2.36816">
        <ele>36</ele>
        <time>2015-10-19T20:27:01Z</time>
      </trkpt>
      <trkpt lat="48.85381" lon="2.36785">
        <ele>35.79999923706</ele>
        <time>2015-10-19T20:27:06Z</time>
      </trkpt>
      <trkpt lat="48.85384" lon="2.36753">
        <ele>36</ele>
        <time>2015-10-19T20:27:11Z</time>
      </trkpt>
      <trkpt lat="48.8538" lon="2.36737">
        <ele>37</ele>
        <time>2015-10-19T20:27:15Z</time>
      </trkpt>
      <trkpt lat="48.85364" lon="2.36725">
        <ele>38.400001525879</ele>
        <time>2015-10-19T20:27:24Z</time>
      </trkpt>
      <trkpt lat="48.85351" lon="2.3672">
        <ele>41.599998474121</ele>
        <time>2015-10-19T20:27:32Z</time>
      </trkpt>
      <trkpt lat="48.85345" lon="2.3669">
        <ele>42.79999923706</ele>
        <time>2015-10-19T20:27:38Z</time>
      </trkpt>
      <trkpt lat="48.85348" lon="2.36662">
        <ele>44.20000076294</ele>
        <time>2015-10-19T20:27:42Z</time>
      </trkpt>
      <trkpt lat="48.85361" lon="2.36636">
        <ele>44.599998474121</ele>
        <time>2015-10-19T20:27:45Z</time>
      </trkpt>
      <trkpt lat="48.85369" lon="2.36609">
        <ele>44.599998474121</ele>
        <time>2015-10-19T20:27:49Z</time>
      </trkpt>
      <trkpt lat="48.85375" lon="2.36581">
        <ele>45</ele>
        <time>2015-10-19T20:27:54Z</time>
      </trkpt>
      <trkpt lat="48.85383" lon="2.36556">
        <ele>45.400001525879</ele>
        <time>2015-10-19T20:27:58Z</time>
      </trkpt>
      <trkpt lat="48.85392" lon="2.3653">
        <ele>45.400001525879</ele>
        <time>2015-10-19T20:28:02Z</time>
      </trkpt>
      <trkpt lat="48.85399" lon="2.36498">
        <ele>44.20000076294</ele>
        <time>2015-10-19T20:28:06Z</time>
      </trkpt>
      <trkpt lat="48.85399" lon="2.3649">
        <ele>43.400001525879</ele>
        <time>2015-10-19T20:28:07Z</time>
      </trkpt>
      <trkpt lat="48.85408" lon="2.36459">
        <ele>42</ele>
        <time>2015-10-19T20:28:11Z</time>
      </trkpt>
      <trkpt lat="48.85418" lon="2.36435">
        <ele>41.400001525879</ele>
        <time>2015-10-19T20:28:14Z</time>
      </trkpt>
      <trkpt lat="48.85427" lon="2.36411">
        <ele>40.599998474121</ele>
        <time>2015-10-19T20:28:17Z</time>
      </trkpt>
      <trkpt lat="48.85432" lon="2.36376">
        <ele>38.400001525879</ele>
        <time>2015-10-19T20:28:21Z</time>
      </trkpt>
      <trkpt lat="48.8544" lon="2.3635">
        <ele>37.79999923706</ele>
        <time>2015-10-19T20:28:24Z</time>
      </trkpt>
      <trkpt lat="48.85451" lon="2.36318">
        <ele>37</ele>
        <time>2015-10-19T20:28:28Z</time>
      </trkpt>
      <trkpt lat="48.85461" lon="2.36288">
        <ele>36.599998474121</ele>
        <time>2015-10-19T20:28:32Z</time>
      </trkpt>
      <trkpt lat="48.85473" lon="2.36259">
        <ele>36</ele>
        <time>2015-10-19T20:28:36Z</time>
      </trkpt>
      <trkpt lat="48.85487" lon="2.36233">
        <ele>35.79999923706</ele>
        <time>2015-10-19T20:28:40Z</time>
      </trkpt>
      <trkpt lat="48.85489" lon="2.36227">
        <ele>35.79999923706</ele>
        <time>2015-10-19T20:28:41Z</time>
      </trkpt>
      <trkpt lat="48.85496" lon="2.36201">
        <ele>35.20000076294</ele>
        <time>2015-10-19T20:28:45Z</time>
      </trkpt>
      <trkpt lat="48.85505" lon="2.36171">
        <ele>33.79999923706</ele>
        <time>2015-10-19T20:28:49Z</time>
      </trkpt>
      <trkpt lat="48.85517" lon="2.36146">
        <ele>32.79999923706</ele>
        <time>2015-10-19T20:28:53Z</time>
      </trkpt>
      <trkpt lat="48.8553" lon="2.3612">
        <ele>32.599998474121</ele>
        <time>2015-10-19T20:28:57Z</time>
      </trkpt>
      <trkpt lat="48.85538" lon="2.361">
        <ele>33.20000076294</ele>
        <time>2015-10-19T20:29:00Z</time>
      </trkpt>
      <trkpt lat="48.85547" lon="2.36072">
        <ele>33.599998474121</ele>
        <time>2015-10-19T20:29:04Z</time>
      </trkpt>
      <trkpt lat="48.85551" lon="2.36057">
        <ele>33.79999923706</ele>
        <time>2015-10-19T20:29:06Z</time>
      </trkpt>
      <trkpt lat="48.85556" lon="2.36026">
        <ele>34</ele>
        <time>2015-10-19T20:29:10Z</time>
      </trkpt>
      <trkpt lat="48.8556" lon="2.36012">
        <ele>34.20000076294</ele>
        <time>2015-10-19T20:29:12Z</time>
      </trkpt>
      <trkpt lat="48.85561" lon="2.35979">
        <ele>33.20000076294</ele>
        <time>2015-10-19T20:29:16Z</time>
      </trkpt>
      <trkpt lat="48.85563" lon="2.3597">
        <ele>33.20000076294</ele>
        <time>2015-10-19T20:29:17Z</time>
      </trkpt>
      <trkpt lat="48.85572" lon="2.3594">
        <ele>32.79999923706</ele>
        <time>2015-10-19T20:29:21Z</time>
      </trkpt>
      <trkpt lat="48.8558" lon="2.35908">
        <ele>31.60000038147</ele>
        <time>2015-10-19T20:29:25Z</time>
      </trkpt>
      <trkpt lat="48.85588" lon="2.35877">
        <ele>31</ele>
        <time>2015-10-19T20:29:29Z</time>
      </trkpt>
      <trkpt lat="48.85598" lon="2.35847">
        <ele>29.799999237061</ele>
        <time>2015-10-19T20:29:33Z</time>
      </trkpt>
      <trkpt lat="48.85607" lon="2.3582">
        <ele>29.60000038147</ele>
        <time>2015-10-19T20:29:37Z</time>
      </trkpt>
      <trkpt lat="48.85607" lon="2.35814">
        <ele>28.799999237061</ele>
        <time>2015-10-19T20:29:38Z</time>
      </trkpt>
      <trkpt lat="48.85614" lon="2.35781">
        <ele>26.39999961853</ele>
        <time>2015-10-19T20:29:43Z</time>
      </trkpt>
      <trkpt lat="48.85617" lon="2.35767">
        <ele>26.200000762939</ele>
        <time>2015-10-19T20:29:45Z</time>
      </trkpt>
      <trkpt lat="48.85624" lon="2.35748">
        <ele>26</ele>
        <time>2015-10-19T20:29:48Z</time>
      </trkpt>
      <trkpt lat="48.85635" lon="2.35723">
        <ele>25.60000038147</ele>
        <time>2015-10-19T20:29:52Z</time>
      </trkpt>
      <trkpt lat="48.8564" lon="2.35709">
        <ele>25.200000762939</ele>
        <time>2015-10-19T20:29:54Z</time>
      </trkpt>
      <trkpt lat="48.85651" lon="2.35684">
        <ele>25</ele>
        <time>2015-10-19T20:29:58Z</time>
      </trkpt>
      <trkpt lat="48.85658" lon="2.35652">
        <ele>24.60000038147</ele>
        <time>2015-10-19T20:30:03Z</time>
      </trkpt>
      <trkpt lat="48.85661" lon="2.35642">
        <ele>24.200000762939</ele>
        <time>2015-10-19T20:30:05Z</time>
      </trkpt>
      <trkpt lat="48.85671" lon="2.35619">
        <ele>24</ele>
        <time>2015-10-19T20:30:09Z</time>
      </trkpt>
      <trkpt lat="48.85667" lon="2.35598">
        <ele>21.39999961853</ele>
        <time>2015-10-19T20:30:12Z</time>
      </trkpt>
      <trkpt lat="48.85666" lon="2.35562">
        <ele>18.39999961853</ele>
        <time>2015-10-19T20:30:17Z</time>
      </trkpt>
      <trkpt lat="48.85673" lon="2.35537">
        <ele>18</ele>
        <time>2015-10-19T20:30:21Z</time>
      </trkpt>
      <trkpt lat="48.8568" lon="2.35508">
        <ele>17.799999237061</ele>
        <time>2015-10-19T20:30:25Z</time>
      </trkpt>
      <trkpt lat="48.85689" lon="2.35479">
        <ele>17.39999961853</ele>
        <time>2015-10-19T20:30:29Z</time>
      </trkpt>
      <trkpt lat="48.85699" lon="2.3545">
        <ele>17.39999961853</ele>
        <time>2015-10-19T20:30:33Z</time>
      </trkpt>
      <trkpt lat="48.8571" lon="2.35423">
        <ele>18</ele>
        <time>2015-10-19T20:30:37Z</time>
      </trkpt>
      <trkpt lat="48.85705" lon="2.35404">
        <ele>17.39999961853</ele>
        <time>2015-10-19T20:30:40Z</time>
      </trkpt>
      <trkpt lat="48.85702" lon="2.35392">
        <ele>18.200000762939</ele>
        <time>2015-10-19T20:30:44Z</time>
      </trkpt>
      <trkpt lat="48.85705" lon="2.3537">
        <ele>19.200000762939</ele>
        <time>2015-10-19T20:30:48Z</time>
      </trkpt>
      <trkpt lat="48.85712" lon="2.35343">
        <ele>19</ele>
        <time>2015-10-19T20:30:52Z</time>
      </trkpt>
      <trkpt lat="48.85718" lon="2.3532">
        <ele>19.60000038147</ele>
        <time>2015-10-19T20:30:55Z</time>
      </trkpt>
      <trkpt lat="48.85726" lon="2.35291">
        <ele>19.799999237061</ele>
        <time>2015-10-19T20:30:59Z</time>
      </trkpt>
      <trkpt lat="48.85732" lon="2.35263">
        <ele>20.799999237061</ele>
        <time>2015-10-19T20:31:03Z</time>
      </trkpt>
      <trkpt lat="48.85735" lon="2.35244">
        <ele>21.60000038147</ele>
        <time>2015-10-19T20:31:06Z</time>
      </trkpt>
      <trkpt lat="48.85737" lon="2.35232">
        <ele>21.799999237061</ele>
        <time>2015-10-19T20:31:08Z</time>
      </trkpt>
      <trkpt lat="48.85739" lon="2.35214">
        <ele>23.200000762939</ele>
        <time>2015-10-19T20:31:11Z</time>
      </trkpt>
      <trkpt lat="48.85742" lon="2.35194">
        <ele>24</ele>
        <time>2015-10-19T20:31:14Z</time>
      </trkpt>
      <trkpt lat="48.85746" lon="2.35173">
        <ele>23.799999237061</ele>
        <time>2015-10-19T20:31:17Z</time>
      </trkpt>
      <trkpt lat="48.85752" lon="2.35152">
        <ele>23.39999961853</ele>
        <time>2015-10-19T20:31:20Z</time>
      </trkpt>
      <trkpt lat="48.85762" lon="2.35124">
        <ele>25</ele>
        <time>2015-10-19T20:31:24Z</time>
      </trkpt>
      <trkpt lat="48.85773" lon="2.35094">
        <ele>23.60000038147</ele>
        <time>2015-10-19T20:31:28Z</time>
      </trkpt>
      <trkpt lat="48.85781" lon="2.35069">
        <ele>23.39999961853</ele>
        <time>2015-10-19T20:31:31Z</time>
      </trkpt>
      <trkpt lat="48.85792" lon="2.35036">
        <ele>23.60000038147</ele>
        <time>2015-10-19T20:31:35Z</time>
      </trkpt>
      <trkpt lat="48.85794" lon="2.35008">
        <ele>25.60000038147</ele>
        <time>2015-10-19T20:31:38Z</time>
      </trkpt>
      <trkpt lat="48.85805" lon="2.34983">
        <ele>27</ele>
        <time>2015-10-19T20:31:41Z</time>
      </trkpt>
      <trkpt lat="48.8581" lon="2.34966">
        <ele>27.799999237061</ele>
        <time>2015-10-19T20:31:43Z</time>
      </trkpt>
      <trkpt lat="48.85815" lon="2.34938">
        <ele>29.799999237061</ele>
        <time>2015-10-19T20:31:46Z</time>
      </trkpt>
      <trkpt lat="48.85823" lon="2.34913">
        <ele>29.799999237061</ele>
        <time>2015-10-19T20:31:49Z</time>
      </trkpt>
      <trkpt lat="48.85827" lon="2.34906">
        <ele>29.799999237061</ele>
        <time>2015-10-19T20:31:50Z</time>
      </trkpt>
      <trkpt lat="48.85835" lon="2.34882">
        <ele>28.200000762939</ele>
        <time>2015-10-19T20:31:53Z</time>
      </trkpt>
      <trkpt lat="48.85845" lon="2.34849">
        <ele>27.799999237061</ele>
        <time>2015-10-19T20:31:57Z</time>
      </trkpt>
      <trkpt lat="48.85854" lon="2.34822">
        <ele>28.799999237061</ele>
        <time>2015-10-19T20:32:01Z</time>
      </trkpt>
      <trkpt lat="48.85859" lon="2.34809">
        <ele>29.200000762939</ele>
        <time>2015-10-19T20:32:04Z</time>
      </trkpt>
      <trkpt lat="48.85868" lon="2.34784">
        <ele>31.200000762939</ele>
        <time>2015-10-19T20:32:09Z</time>
      </trkpt>
      <trkpt lat="48.85874" lon="2.34765">
        <ele>33.599998474121</ele>
        <time>2015-10-19T20:32:13Z</time>
      </trkpt>
      <trkpt lat="48.85875" lon="2.3476">
        <ele>34.20000076294</ele>
        <time>2015-10-19T20:32:14Z</time>
      </trkpt>
      <trkpt lat="48.85878" lon="2.34748">
        <ele>36.79999923706</ele>
        <time>2015-10-19T20:32:18Z</time>
      </trkpt>
      <trkpt lat="48.85885" lon="2.34742">
        <ele>38.400001525879</ele>
        <time>2015-10-19T20:32:22Z</time>
      </trkpt>
      <trkpt lat="48.85902" lon="2.34727">
        <ele>42.599998474121</ele>
        <time>2015-10-19T20:32:29Z</time>
      </trkpt>
      <trkpt lat="48.85917" lon="2.3471">
        <ele>46</ele>
        <time>2015-10-19T20:32:35Z</time>
      </trkpt>
      <trkpt lat="48.85926" lon="2.34702">
        <ele>48</ele>
        <time>2015-10-19T20:32:39Z</time>
      </trkpt>
      <trkpt lat="48.85945" lon="2.34709">
        <ele>44</ele>
        <time>2015-10-19T20:32:43Z</time>
      </trkpt>
      <trkpt lat="48.85952" lon="2.34714">
        <ele>44.599998474121</ele>
        <time>2015-10-19T20:32:46Z</time>
      </trkpt>
      <trkpt lat="48.85953" lon="2.34717">
        <ele>45.599998474121</ele>
        <time>2015-10-19T20:32:48Z</time>
      </trkpt>
      <trkpt lat="48.85951" lon="2.34722">
        <ele>48.79999923706</ele>
        <time>2015-10-19T20:32:53Z</time>
      </trkpt>
      <trkpt lat="48.85951" lon="2.34723">
        <ele>49.599998474121</ele>
        <time>2015-10-19T20:32:54Z</time>
      </trkpt>
      <trkpt lat="48.85956" lon="2.34725">
        <ele>51.20000076294</ele>
        <time>2015-10-19T20:33:02Z</time>
      </trkpt>
      <trkpt lat="48.85957" lon="2.34731">
        <ele>54.20000076294</ele>
        <time>2015-10-19T20:33:14Z</time>
      </trkpt>
      <trkpt lat="48.8596" lon="2.34728">
        <ele>54.20000076294</ele>
        <time>2015-10-19T20:33:17Z</time>
      </trkpt>
      <trkpt lat="48.85972" lon="2.34725">
        <ele>55.400001525879</ele>
        <time>2015-10-19T20:33:30Z</time>
      </trkpt>
      <trkpt lat="48.85974" lon="2.34726">
        <ele>55.79999923706</ele>
        <time>2015-10-19T20:33:33Z</time>
      </trkpt>
      <trkpt lat="48.85969" lon="2.34723">
        <ele>57.400001525879</ele>
        <time>2015-10-19T20:33:39Z</time>
      </trkpt>
      <trkpt lat="48.85964" lon="2.34721">
        <ele>57.79999923706</ele>
        <time>2015-10-19T20:33:41Z</time>
      </trkpt>
      <trkpt lat="48.85958" lon="2.34716">
        <ele>60</ele>
        <time>2015-10-19T20:33:48Z</time>
      </trkpt>
    </trkseg>
  </trk>
  <trk>
    <name><![CDATA[lundi 2015 10 12]]></name>
    <extensions>
      <line xmlns="http://www.topografix.com/GPX/gpx_style/0/2">
        <color>000000</color>
      </line>
    </extensions>
    <trkseg>
      <trkpt lat="48.8577" lon="2.35099">
        <ele>9</ele>
        <time>2015-10-12T18:22:30Z</time>
      </trkpt>
      <trkpt lat="48.85733" lon="2.35139">
        <ele>72.400001525879</ele>
        <time>2015-10-12T18:22:33Z</time>
      </trkpt>
      <trkpt lat="48.85761" lon="2.35136">
        <ele>8.8000001907349</ele>
        <time>2015-10-12T18:22:41Z</time>
      </trkpt>
      <trkpt lat="48.85765" lon="2.35144">
        <ele>13</ele>
        <time>2015-10-12T18:22:42Z</time>
      </trkpt>
      <trkpt lat="48.85753" lon="2.35157">
        <ele>24.200000762939</ele>
        <time>2015-10-12T18:22:48Z</time>
      </trkpt>
      <trkpt lat="48.85737" lon="2.35179">
        <ele>27</ele>
        <time>2015-10-12T18:22:58Z</time>
      </trkpt>
      <trkpt lat="48.85737" lon="2.35193">
        <ele>25</ele>
        <time>2015-10-12T18:23:01Z</time>
      </trkpt>
      <trkpt lat="48.85738" lon="2.35208">
        <ele>23</ele>
        <time>2015-10-12T18:23:04Z</time>
      </trkpt>
      <trkpt lat="48.8574" lon="2.35226">
        <ele>20.799999237061</ele>
        <time>2015-10-12T18:23:07Z</time>
      </trkpt>
      <trkpt lat="48.8575" lon="2.35243">
        <ele>19.60000038147</ele>
        <time>2015-10-12T18:23:11Z</time>
      </trkpt>
      <trkpt lat="48.85764" lon="2.35261">
        <ele>18.200000762939</ele>
        <time>2015-10-12T18:23:16Z</time>
      </trkpt>
      <trkpt lat="48.85779" lon="2.35281">
        <ele>15.199999809265</ele>
        <time>2015-10-12T18:23:22Z</time>
      </trkpt>
      <trkpt lat="48.85785" lon="2.35294">
        <ele>13.199999809265</ele>
        <time>2015-10-12T18:23:25Z</time>
      </trkpt>
      <trkpt lat="48.85786" lon="2.35316">
        <ele>12.199999809265</ele>
        <time>2015-10-12T18:23:29Z</time>
      </trkpt>
      <trkpt lat="48.85778" lon="2.35341">
        <ele>11.39999961853</ele>
        <time>2015-10-12T18:23:34Z</time>
      </trkpt>
      <trkpt lat="48.85767" lon="2.35368">
        <ele>12.199999809265</ele>
        <time>2015-10-12T18:23:39Z</time>
      </trkpt>
      <trkpt lat="48.85761" lon="2.35396">
        <ele>15.60000038147</ele>
        <time>2015-10-12T18:23:45Z</time>
      </trkpt>
      <trkpt lat="48.85755" lon="2.35423">
        <ele>18.60000038147</ele>
        <time>2015-10-12T18:23:53Z</time>
      </trkpt>
      <trkpt lat="48.85742" lon="2.35446">
        <ele>21</ele>
        <time>2015-10-12T18:23:59Z</time>
      </trkpt>
      <trkpt lat="48.85731" lon="2.35471">
        <ele>23.200000762939</ele>
        <time>2015-10-12T18:24:04Z</time>
      </trkpt>
      <trkpt lat="48.85721" lon="2.35495">
        <ele>26</ele>
        <time>2015-10-12T18:24:09Z</time>
      </trkpt>
      <trkpt lat="48.85709" lon="2.35524">
        <ele>27.200000762939</ele>
        <time>2015-10-12T18:24:15Z</time>
      </trkpt>
      <trkpt lat="48.85701" lon="2.35557">
        <ele>25.39999961853</ele>
        <time>2015-10-12T18:24:20Z</time>
      </trkpt>
      <trkpt lat="48.85698" lon="2.35568">
        <ele>26</ele>
        <time>2015-10-12T18:24:22Z</time>
      </trkpt>
      <trkpt lat="48.85704" lon="2.35594">
        <ele>28</ele>
        <time>2015-10-12T18:24:28Z</time>
      </trkpt>
      <trkpt lat="48.85717" lon="2.35613">
        <ele>29.200000762939</ele>
        <time>2015-10-12T18:24:33Z</time>
      </trkpt>
      <trkpt lat="48.85731" lon="2.35639">
        <ele>30.60000038147</ele>
        <time>2015-10-12T18:24:39Z</time>
      </trkpt>
      <trkpt lat="48.85745" lon="2.35658">
        <ele>31.60000038147</ele>
        <time>2015-10-12T18:24:44Z</time>
      </trkpt>
      <trkpt lat="48.85762" lon="2.35676">
        <ele>32.400001525879</ele>
        <time>2015-10-12T18:24:49Z</time>
      </trkpt>
      <trkpt lat="48.85778" lon="2.35674">
        <ele>31.799999237061</ele>
        <time>2015-10-12T18:24:52Z</time>
      </trkpt>
      <trkpt lat="48.85782" lon="2.35693">
        <ele>32</ele>
        <time>2015-10-12T18:24:57Z</time>
      </trkpt>
      <trkpt lat="48.8579" lon="2.35723">
        <ele>33.20000076294</ele>
        <time>2015-10-12T18:25:04Z</time>
      </trkpt>
      <trkpt lat="48.85803" lon="2.35744">
        <ele>34.599998474121</ele>
        <time>2015-10-12T18:25:09Z</time>
      </trkpt>
      <trkpt lat="48.85819" lon="2.35765">
        <ele>35.599998474121</ele>
        <time>2015-10-12T18:25:14Z</time>
      </trkpt>
      <trkpt lat="48.85837" lon="2.35781">
        <ele>36.20000076294</ele>
        <time>2015-10-12T18:25:19Z</time>
      </trkpt>
      <trkpt lat="48.8586" lon="2.35792">
        <ele>36.20000076294</ele>
        <time>2015-10-12T18:25:25Z</time>
      </trkpt>
      <trkpt lat="48.85846" lon="2.35814">
        <ele>36.599998474121</ele>
        <time>2015-10-12T18:25:30Z</time>
      </trkpt>
      <trkpt lat="48.85844" lon="2.3584">
        <ele>37</ele>
        <time>2015-10-12T18:25:35Z</time>
      </trkpt>
      <trkpt lat="48.85855" lon="2.35864">
        <ele>36.599998474121</ele>
        <time>2015-10-12T18:25:40Z</time>
      </trkpt>
      <trkpt lat="48.85871" lon="2.35875">
        <ele>36.79999923706</ele>
        <time>2015-10-12T18:25:45Z</time>
      </trkpt>
      <trkpt lat="48.85888" lon="2.35892">
        <ele>38.400001525879</ele>
        <time>2015-10-12T18:25:51Z</time>
      </trkpt>
      <trkpt lat="48.85902" lon="2.35912">
        <ele>39.79999923706</ele>
        <time>2015-10-12T18:25:57Z</time>
      </trkpt>
      <trkpt lat="48.85915" lon="2.35931">
        <ele>41.20000076294</ele>
        <time>2015-10-12T18:26:02Z</time>
      </trkpt>
      <trkpt lat="48.85929" lon="2.35952">
        <ele>42.400001525879</ele>
        <time>2015-10-12T18:26:07Z</time>
      </trkpt>
      <trkpt lat="48.85939" lon="2.35976">
        <ele>43.599998474121</ele>
        <time>2015-10-12T18:26:12Z</time>
      </trkpt>
      <trkpt lat="48.85953" lon="2.35995">
        <ele>44.400001525879</ele>
        <time>2015-10-12T18:26:16Z</time>
      </trkpt>
      <trkpt lat="48.85967" lon="2.36016">
        <ele>44.79999923706</ele>
        <time>2015-10-12T18:26:20Z</time>
      </trkpt>
      <trkpt lat="48.85984" lon="2.36037">
        <ele>44.599998474121</ele>
        <time>2015-10-12T18:26:24Z</time>
      </trkpt>
      <trkpt lat="48.86002" lon="2.36056">
        <ele>44.20000076294</ele>
        <time>2015-10-12T18:26:28Z</time>
      </trkpt>
      <trkpt lat="48.86012" lon="2.36078">
        <ele>43.79999923706</ele>
        <time>2015-10-12T18:26:33Z</time>
      </trkpt>
      <trkpt lat="48.86013" lon="2.36082">
        <ele>43.599998474121</ele>
        <time>2015-10-12T18:26:34Z</time>
      </trkpt>
      <trkpt lat="48.86025" lon="2.36109">
        <ele>42.599998474121</ele>
        <time>2015-10-12T18:26:40Z</time>
      </trkpt>
      <trkpt lat="48.86037" lon="2.36135">
        <ele>42.599998474121</ele>
        <time>2015-10-12T18:26:46Z</time>
      </trkpt>
      <trkpt lat="48.86047" lon="2.36162">
        <ele>43.599998474121</ele>
        <time>2015-10-12T18:26:51Z</time>
      </trkpt>
      <trkpt lat="48.86059" lon="2.36189">
        <ele>44</ele>
        <time>2015-10-12T18:26:57Z</time>
      </trkpt>
      <trkpt lat="48.8607" lon="2.36213">
        <ele>42.79999923706</ele>
        <time>2015-10-12T18:27:02Z</time>
      </trkpt>
      <trkpt lat="48.8608" lon="2.36236">
        <ele>43</ele>
        <time>2015-10-12T18:27:10Z</time>
      </trkpt>
      <trkpt lat="48.86092" lon="2.36262">
        <ele>44.400001525879</ele>
        <time>2015-10-12T18:27:17Z</time>
      </trkpt>
      <trkpt lat="48.86106" lon="2.3628">
        <ele>44.400001525879</ele>
        <time>2015-10-12T18:27:22Z</time>
      </trkpt>
      <trkpt lat="48.86118" lon="2.36305">
        <ele>44.20000076294</ele>
        <time>2015-10-12T18:27:27Z</time>
      </trkpt>
      <trkpt lat="48.86129" lon="2.36332">
        <ele>43.599998474121</ele>
        <time>2015-10-12T18:27:32Z</time>
      </trkpt>
      <trkpt lat="48.86152" lon="2.36347">
        <ele>42</ele>
        <time>2015-10-12T18:27:37Z</time>
      </trkpt>
      <trkpt lat="48.86165" lon="2.36369">
        <ele>40.79999923706</ele>
        <time>2015-10-12T18:27:42Z</time>
      </trkpt>
      <trkpt lat="48.86173" lon="2.36394">
        <ele>39.20000076294</ele>
        <time>2015-10-12T18:27:47Z</time>
      </trkpt>
      <trkpt lat="48.86184" lon="2.36418">
        <ele>38.79999923706</ele>
        <time>2015-10-12T18:27:52Z</time>
      </trkpt>
      <trkpt lat="48.862" lon="2.36443">
        <ele>38</ele>
        <time>2015-10-12T18:27:58Z</time>
      </trkpt>
      <trkpt lat="48.86212" lon="2.36467">
        <ele>37</ele>
        <time>2015-10-12T18:28:03Z</time>
      </trkpt>
      <trkpt lat="48.86226" lon="2.36488">
        <ele>36.400001525879</ele>
        <time>2015-10-12T18:28:07Z</time>
      </trkpt>
      <trkpt lat="48.86239" lon="2.36514">
        <ele>35.20000076294</ele>
        <time>2015-10-12T18:28:12Z</time>
      </trkpt>
      <trkpt lat="48.8625" lon="2.36536">
        <ele>34.79999923706</ele>
        <time>2015-10-12T18:28:16Z</time>
      </trkpt>
      <trkpt lat="48.86261" lon="2.36559">
        <ele>34.79999923706</ele>
        <time>2015-10-12T18:28:20Z</time>
      </trkpt>
      <trkpt lat="48.86271" lon="2.36589">
        <ele>33.599998474121</ele>
        <time>2015-10-12T18:28:25Z</time>
      </trkpt>
      <trkpt lat="48.86281" lon="2.36614">
        <ele>33</ele>
        <time>2015-10-12T18:28:29Z</time>
      </trkpt>
      <trkpt lat="48.86292" lon="2.3664">
        <ele>33</ele>
        <time>2015-10-12T18:28:34Z</time>
      </trkpt>
      <trkpt lat="48.863" lon="2.36653">
        <ele>32.79999923706</ele>
        <time>2015-10-12T18:28:38Z</time>
      </trkpt>
      <trkpt lat="48.86308" lon="2.36661">
        <ele>33.400001525879</ele>
        <time>2015-10-12T18:28:43Z</time>
      </trkpt>
      <trkpt lat="48.86312" lon="2.36667">
        <ele>33.400001525879</ele>
        <time>2015-10-12T18:28:47Z</time>
      </trkpt>
      <trkpt lat="48.86325" lon="2.36672">
        <ele>34.79999923706</ele>
        <time>2015-10-12T18:29:05Z</time>
      </trkpt>
      <trkpt lat="48.86342" lon="2.36662">
        <ele>33.79999923706</ele>
        <time>2015-10-12T18:29:10Z</time>
      </trkpt>
      <trkpt lat="48.8636" lon="2.36648">
        <ele>35</ele>
        <time>2015-10-12T18:29:16Z</time>
      </trkpt>
      <trkpt lat="48.86379" lon="2.36632">
        <ele>35.599998474121</ele>
        <time>2015-10-12T18:29:22Z</time>
      </trkpt>
      <trkpt lat="48.86396" lon="2.3662">
        <ele>36.20000076294</ele>
        <time>2015-10-12T18:29:27Z</time>
      </trkpt>
      <trkpt lat="48.86415" lon="2.36607">
        <ele>35.79999923706</ele>
        <time>2015-10-12T18:29:33Z</time>
      </trkpt>
      <trkpt lat="48.86435" lon="2.36594">
        <ele>35.400001525879</ele>
        <time>2015-10-12T18:29:38Z</time>
      </trkpt>
      <trkpt lat="48.86452" lon="2.36581">
        <ele>35.599998474121</ele>
        <time>2015-10-12T18:29:42Z</time>
      </trkpt>
      <trkpt lat="48.86469" lon="2.36568">
        <ele>37.599998474121</ele>
        <time>2015-10-12T18:29:46Z</time>
      </trkpt>
      <trkpt lat="48.86488" lon="2.36556">
        <ele>38.400001525879</ele>
        <time>2015-10-12T18:29:50Z</time>
      </trkpt>
      <trkpt lat="48.86507" lon="2.36544">
        <ele>39.79999923706</ele>
        <time>2015-10-12T18:29:54Z</time>
      </trkpt>
      <trkpt lat="48.86512" lon="2.36542">
        <ele>38.79999923706</ele>
        <time>2015-10-12T18:29:55Z</time>
      </trkpt>
      <trkpt lat="48.8652" lon="2.36538">
        <ele>39</ele>
        <time>2015-10-12T18:29:57Z</time>
      </trkpt>
      <trkpt lat="48.86538" lon="2.36527">
        <ele>39.20000076294</ele>
        <time>2015-10-12T18:30:01Z</time>
      </trkpt>
      <trkpt lat="48.86557" lon="2.36516">
        <ele>41.400001525879</ele>
        <time>2015-10-12T18:30:05Z</time>
      </trkpt>
      <trkpt lat="48.86577" lon="2.36505">
        <ele>40.400001525879</ele>
        <time>2015-10-12T18:30:09Z</time>
      </trkpt>
      <trkpt lat="48.86596" lon="2.36493">
        <ele>41</ele>
        <time>2015-10-12T18:30:13Z</time>
      </trkpt>
      <trkpt lat="48.86605" lon="2.36488">
        <ele>41</ele>
        <time>2015-10-12T18:30:15Z</time>
      </trkpt>
      <trkpt lat="48.86623" lon="2.36478">
        <ele>41.599998474121</ele>
        <time>2015-10-12T18:30:19Z</time>
      </trkpt>
      <trkpt lat="48.8664" lon="2.3647">
        <ele>41.599998474121</ele>
        <time>2015-10-12T18:30:24Z</time>
      </trkpt>
      <trkpt lat="48.86642" lon="2.3647">
        <ele>42</ele>
        <time>2015-10-12T18:30:25Z</time>
      </trkpt>
      <trkpt lat="48.86643" lon="2.3647">
        <ele>43</ele>
        <time>2015-10-12T18:30:27Z</time>
      </trkpt>
      <trkpt lat="48.86645" lon="2.36476">
        <ele>43.400001525879</ele>
        <time>2015-10-12T18:30:36Z</time>
      </trkpt>
      <trkpt lat="48.86657" lon="2.36482">
        <ele>42.79999923706</ele>
        <time>2015-10-12T18:31:01Z</time>
      </trkpt>
      <trkpt lat="48.86673" lon="2.36477">
        <ele>45</ele>
        <time>2015-10-12T18:31:11Z</time>
      </trkpt>
      <trkpt lat="48.86681" lon="2.36471">
        <ele>45</ele>
        <time>2015-10-12T18:31:18Z</time>
      </trkpt>
      <trkpt lat="48.86686" lon="2.36475">
        <ele>43.400001525879</ele>
        <time>2015-10-12T18:31:26Z</time>
      </trkpt>
      <trkpt lat="48.86684" lon="2.36484">
        <ele>36.79999923706</ele>
        <time>2015-10-12T18:32:22Z</time>
      </trkpt>
      <trkpt lat="48.86689" lon="2.36477">
        <ele>35.79999923706</ele>
        <time>2015-10-12T18:34:05Z</time>
      </trkpt>
      <trkpt lat="48.86693" lon="2.36469">
        <ele>34.20000076294</ele>
        <time>2015-10-12T18:35:10Z</time>
      </trkpt>
      <trkpt lat="48.86711" lon="2.36464">
        <ele>34.400001525879</ele>
        <time>2015-10-12T18:35:19Z</time>
      </trkpt>
      <trkpt lat="48.86718" lon="2.3646">
        <ele>34.20000076294</ele>
        <time>2015-10-12T18:35:22Z</time>
      </trkpt>
      <trkpt lat="48.86733" lon="2.36441">
        <ele>33.20000076294</ele>
        <time>2015-10-12T18:35:29Z</time>
      </trkpt>
      <trkpt lat="48.86752" lon="2.36433">
        <ele>29.60000038147</ele>
        <time>2015-10-12T18:35:35Z</time>
      </trkpt>
      <trkpt lat="48.8677" lon="2.36442">
        <ele>28.60000038147</ele>
        <time>2015-10-12T18:35:41Z</time>
      </trkpt>
      <trkpt lat="48.86784" lon="2.3646">
        <ele>27.60000038147</ele>
        <time>2015-10-12T18:35:46Z</time>
      </trkpt>
      <trkpt lat="48.86794" lon="2.36484">
        <ele>28.60000038147</ele>
        <time>2015-10-12T18:35:51Z</time>
      </trkpt>
      <trkpt lat="48.86804" lon="2.3651">
        <ele>33.599998474121</ele>
        <time>2015-10-12T18:35:56Z</time>
      </trkpt>
      <trkpt lat="48.86813" lon="2.36539">
        <ele>36.79999923706</ele>
        <time>2015-10-12T18:36:01Z</time>
      </trkpt>
      <trkpt lat="48.86821" lon="2.36567">
        <ele>38.20000076294</ele>
        <time>2015-10-12T18:36:06Z</time>
      </trkpt>
      <trkpt lat="48.86834" lon="2.36592">
        <ele>39.599998474121</ele>
        <time>2015-10-12T18:36:11Z</time>
      </trkpt>
      <trkpt lat="48.86845" lon="2.36619">
        <ele>40.20000076294</ele>
        <time>2015-10-12T18:36:17Z</time>
      </trkpt>
      <trkpt lat="48.86853" lon="2.36644">
        <ele>42.599998474121</ele>
        <time>2015-10-12T18:36:22Z</time>
      </trkpt>
      <trkpt lat="48.8686" lon="2.36672">
        <ele>43</ele>
        <time>2015-10-12T18:36:27Z</time>
      </trkpt>
      <trkpt lat="48.86868" lon="2.36697">
        <ele>44.20000076294</ele>
        <time>2015-10-12T18:36:34Z</time>
      </trkpt>
      <trkpt lat="48.86867" lon="2.36711">
        <ele>46.400001525879</ele>
        <time>2015-10-12T18:36:39Z</time>
      </trkpt>
      <trkpt lat="48.86874" lon="2.36728">
        <ele>45.79999923706</ele>
        <time>2015-10-12T18:36:45Z</time>
      </trkpt>
      <trkpt lat="48.8688" lon="2.36754">
        <ele>47.400001525879</ele>
        <time>2015-10-12T18:36:54Z</time>
      </trkpt>
      <trkpt lat="48.86886" lon="2.36768">
        <ele>49.599998474121</ele>
        <time>2015-10-12T18:37:02Z</time>
      </trkpt>
      <trkpt lat="48.86892" lon="2.36785">
        <ele>51.79999923706</ele>
        <time>2015-10-12T18:37:10Z</time>
      </trkpt>
      <trkpt lat="48.86891" lon="2.36786">
        <ele>52.20000076294</ele>
        <time>2015-10-12T18:37:11Z</time>
      </trkpt>
      <trkpt lat="48.86878" lon="2.36805">
        <ele>52.599998474121</ele>
        <time>2015-10-12T18:37:17Z</time>
      </trkpt>
      <trkpt lat="48.86871" lon="2.36824">
        <ele>53.400001525879</ele>
        <time>2015-10-12T18:37:21Z</time>
      </trkpt>
      <trkpt lat="48.86863" lon="2.36854">
        <ele>53.400001525879</ele>
        <time>2015-10-12T18:37:26Z</time>
      </trkpt>
      <trkpt lat="48.86858" lon="2.36884">
        <ele>54.400001525879</ele>
        <time>2015-10-12T18:37:31Z</time>
      </trkpt>
      <trkpt lat="48.86854" lon="2.36914">
        <ele>54.79999923706</ele>
        <time>2015-10-12T18:37:36Z</time>
      </trkpt>
      <trkpt lat="48.86852" lon="2.36942">
        <ele>54.400001525879</ele>
        <time>2015-10-12T18:37:41Z</time>
      </trkpt>
      <trkpt lat="48.86847" lon="2.36972">
        <ele>54.599998474121</ele>
        <time>2015-10-12T18:37:47Z</time>
      </trkpt>
      <trkpt lat="48.86839" lon="2.37002">
        <ele>57.20000076294</ele>
        <time>2015-10-12T18:37:53Z</time>
      </trkpt>
      <trkpt lat="48.86836" lon="2.37032">
        <ele>60</ele>
        <time>2015-10-12T18:37:58Z</time>
      </trkpt>
      <trkpt lat="48.86834" lon="2.37062">
        <ele>62.599998474121</ele>
        <time>2015-10-12T18:38:03Z</time>
      </trkpt>
      <trkpt lat="48.86831" lon="2.37093">
        <ele>63</ele>
        <time>2015-10-12T18:38:08Z</time>
      </trkpt>
      <trkpt lat="48.86825" lon="2.37122">
        <ele>61.79999923706</ele>
        <time>2015-10-12T18:38:13Z</time>
      </trkpt>
      <trkpt lat="48.86821" lon="2.3715">
        <ele>62.79999923706</ele>
        <time>2015-10-12T18:38:18Z</time>
      </trkpt>
      <trkpt lat="48.86817" lon="2.37179">
        <ele>63.400001525879</ele>
        <time>2015-10-12T18:38:23Z</time>
      </trkpt>
      <trkpt lat="48.86815" lon="2.37209">
        <ele>64.599998474121</ele>
        <time>2015-10-12T18:38:29Z</time>
      </trkpt>
      <trkpt lat="48.86818" lon="2.37213">
        <ele>65.400001525879</ele>
        <time>2015-10-12T18:38:32Z</time>
      </trkpt>
      <trkpt lat="48.8683" lon="2.37217">
        <ele>58.79999923706</ele>
        <time>2015-10-12T18:38:52Z</time>
      </trkpt>
      <trkpt lat="48.8685" lon="2.37207">
        <ele>57.79999923706</ele>
        <time>2015-10-12T18:39:01Z</time>
      </trkpt>
      <trkpt lat="48.86869" lon="2.37194">
        <ele>58.20000076294</ele>
        <time>2015-10-12T18:39:06Z</time>
      </trkpt>
      <trkpt lat="48.86885" lon="2.37182">
        <ele>57.20000076294</ele>
        <time>2015-10-12T18:39:10Z</time>
      </trkpt>
      <trkpt lat="48.86902" lon="2.37168">
        <ele>57.599998474121</ele>
        <time>2015-10-12T18:39:14Z</time>
      </trkpt>
      <trkpt lat="48.86921" lon="2.37155">
        <ele>57.599998474121</ele>
        <time>2015-10-12T18:39:19Z</time>
      </trkpt>
      <trkpt lat="48.86942" lon="2.37142">
        <ele>58.20000076294</ele>
        <time>2015-10-12T18:39:24Z</time>
      </trkpt>
      <trkpt lat="48.86959" lon="2.37132">
        <ele>58</ele>
        <time>2015-10-12T18:39:28Z</time>
      </trkpt>
      <trkpt lat="48.86977" lon="2.37117">
        <ele>56.79999923706</ele>
        <time>2015-10-12T18:39:32Z</time>
      </trkpt>
      <trkpt lat="48.86996" lon="2.37102">
        <ele>56.20000076294</ele>
        <time>2015-10-12T18:39:36Z</time>
      </trkpt>
      <trkpt lat="48.87015" lon="2.3709">
        <ele>54.400001525879</ele>
        <time>2015-10-12T18:39:40Z</time>
      </trkpt>
      <trkpt lat="48.87034" lon="2.37076">
        <ele>52.79999923706</ele>
        <time>2015-10-12T18:39:44Z</time>
      </trkpt>
      <trkpt lat="48.87053" lon="2.37062">
        <ele>49.79999923706</ele>
        <time>2015-10-12T18:39:48Z</time>
      </trkpt>
      <trkpt lat="48.87071" lon="2.37049">
        <ele>47</ele>
        <time>2015-10-12T18:39:52Z</time>
      </trkpt>
      <trkpt lat="48.87091" lon="2.37034">
        <ele>44.400001525879</ele>
        <time>2015-10-12T18:39:57Z</time>
      </trkpt>
      <trkpt lat="48.8711" lon="2.37021">
        <ele>40.20000076294</ele>
        <time>2015-10-12T18:40:02Z</time>
      </trkpt>
      <trkpt lat="48.8712" lon="2.37015">
        <ele>38.400001525879</ele>
        <time>2015-10-12T18:40:05Z</time>
      </trkpt>
      <trkpt lat="48.87128" lon="2.37027">
        <ele>39</ele>
        <time>2015-10-12T18:40:09Z</time>
      </trkpt>
      <trkpt lat="48.87131" lon="2.37039">
        <ele>40</ele>
        <time>2015-10-12T18:40:11Z</time>
      </trkpt>
      <trkpt lat="48.87141" lon="2.37065">
        <ele>42.20000076294</ele>
        <time>2015-10-12T18:40:16Z</time>
      </trkpt>
      <trkpt lat="48.87151" lon="2.37089">
        <ele>42.599998474121</ele>
        <time>2015-10-12T18:40:21Z</time>
      </trkpt>
      <trkpt lat="48.8716" lon="2.37112">
        <ele>42.79999923706</ele>
        <time>2015-10-12T18:40:26Z</time>
      </trkpt>
      <trkpt lat="48.87171" lon="2.37139">
        <ele>42.599998474121</ele>
        <time>2015-10-12T18:40:31Z</time>
      </trkpt>
      <trkpt lat="48.87179" lon="2.37164">
        <ele>42.400001525879</ele>
        <time>2015-10-12T18:40:36Z</time>
      </trkpt>
      <trkpt lat="48.87187" lon="2.37187">
        <ele>41</ele>
        <time>2015-10-12T18:40:49Z</time>
      </trkpt>
      <trkpt lat="48.87189" lon="2.37186">
        <ele>40.79999923706</ele>
        <time>2015-10-12T18:40:50Z</time>
      </trkpt>
      <trkpt lat="48.87205" lon="2.37172">
        <ele>41.20000076294</ele>
        <time>2015-10-12T18:40:57Z</time>
      </trkpt>
      <trkpt lat="48.87219" lon="2.37155">
        <ele>43</ele>
        <time>2015-10-12T18:41:02Z</time>
      </trkpt>
      <trkpt lat="48.87237" lon="2.37141">
        <ele>45</ele>
        <time>2015-10-12T18:41:08Z</time>
      </trkpt>
      <trkpt lat="48.87247" lon="2.37135">
        <ele>46.79999923706</ele>
        <time>2015-10-12T18:41:12Z</time>
      </trkpt>
      <trkpt lat="48.87257" lon="2.37159">
        <ele>48</ele>
        <time>2015-10-12T18:41:17Z</time>
      </trkpt>
      <trkpt lat="48.87269" lon="2.37184">
        <ele>48.79999923706</ele>
        <time>2015-10-12T18:41:22Z</time>
      </trkpt>
      <trkpt lat="48.8728" lon="2.37207">
        <ele>49.400001525879</ele>
        <time>2015-10-12T18:41:26Z</time>
      </trkpt>
      <trkpt lat="48.87291" lon="2.37232">
        <ele>49.20000076294</ele>
        <time>2015-10-12T18:41:30Z</time>
      </trkpt>
      <trkpt lat="48.87302" lon="2.3726">
        <ele>51</ele>
        <time>2015-10-12T18:41:35Z</time>
      </trkpt>
      <trkpt lat="48.87314" lon="2.37286">
        <ele>51.20000076294</ele>
        <time>2015-10-12T18:41:40Z</time>
      </trkpt>
      <trkpt lat="48.87326" lon="2.3731">
        <ele>50.79999923706</ele>
        <time>2015-10-12T18:41:45Z</time>
      </trkpt>
      <trkpt lat="48.87335" lon="2.37337">
        <ele>51.599998474121</ele>
        <time>2015-10-12T18:41:51Z</time>
      </trkpt>
      <trkpt lat="48.87349" lon="2.37359">
        <ele>53.20000076294</ele>
        <time>2015-10-12T18:42:00Z</time>
      </trkpt>
      <trkpt lat="48.87356" lon="2.37366">
        <ele>55</ele>
        <time>2015-10-12T18:42:07Z</time>
      </trkpt>
      <trkpt lat="48.87368" lon="2.37353">
        <ele>58.20000076294</ele>
        <time>2015-10-12T18:42:25Z</time>
      </trkpt>
      <trkpt lat="48.87381" lon="2.3733">
        <ele>56.79999923706</ele>
        <time>2015-10-12T18:42:32Z</time>
      </trkpt>
      <trkpt lat="48.87394" lon="2.3731">
        <ele>53.599998474121</ele>
        <time>2015-10-12T18:42:38Z</time>
      </trkpt>
      <trkpt lat="48.87409" lon="2.37289">
        <ele>52.599998474121</ele>
        <time>2015-10-12T18:42:44Z</time>
      </trkpt>
      <trkpt lat="48.87415" lon="2.37274">
        <ele>52.400001525879</ele>
        <time>2015-10-12T18:42:48Z</time>
      </trkpt>
      <trkpt lat="48.87424" lon="2.37263">
        <ele>51.599998474121</ele>
        <time>2015-10-12T18:42:55Z</time>
      </trkpt>
      <trkpt lat="48.87434" lon="2.37288">
        <ele>49.79999923706</ele>
        <time>2015-10-12T18:43:03Z</time>
      </trkpt>
      <trkpt lat="48.87446" lon="2.3731">
        <ele>49.20000076294</ele>
        <time>2015-10-12T18:43:10Z</time>
      </trkpt>
      <trkpt lat="48.87449" lon="2.3731">
        <ele>49</ele>
        <time>2015-10-12T18:43:11Z</time>
      </trkpt>
      <trkpt lat="48.87455" lon="2.37312">
        <ele>48.79999923706</ele>
        <time>2015-10-12T18:43:14Z</time>
      </trkpt>
      <trkpt lat="48.87465" lon="2.37286">
        <ele>47.400001525879</ele>
        <time>2015-10-12T18:43:21Z</time>
      </trkpt>
      <trkpt lat="48.87469" lon="2.3726">
        <ele>45.599998474121</ele>
        <time>2015-10-12T18:43:26Z</time>
      </trkpt>
      <trkpt lat="48.87472" lon="2.37232">
        <ele>43.400001525879</ele>
        <time>2015-10-12T18:43:31Z</time>
      </trkpt>
      <trkpt lat="48.87478" lon="2.37201">
        <ele>41.400001525879</ele>
        <time>2015-10-12T18:43:36Z</time>
      </trkpt>
      <trkpt lat="48.8748" lon="2.37169">
        <ele>39.79999923706</ele>
        <time>2015-10-12T18:43:41Z</time>
      </trkpt>
      <trkpt lat="48.87488" lon="2.37138">
        <ele>38</ele>
        <time>2015-10-12T18:43:46Z</time>
      </trkpt>
      <trkpt lat="48.87496" lon="2.37113">
        <ele>36.599998474121</ele>
        <time>2015-10-12T18:43:50Z</time>
      </trkpt>
      <trkpt lat="48.87504" lon="2.37087">
        <ele>34.79999923706</ele>
        <time>2015-10-12T18:43:54Z</time>
      </trkpt>
      <trkpt lat="48.87508" lon="2.37068">
        <ele>33.599998474121</ele>
        <time>2015-10-12T18:43:57Z</time>
      </trkpt>
      <trkpt lat="48.87519" lon="2.37043">
        <ele>32.400001525879</ele>
        <time>2015-10-12T18:44:02Z</time>
      </trkpt>
      <trkpt lat="48.87532" lon="2.37037">
        <ele>34.400001525879</ele>
        <time>2015-10-12T18:44:06Z</time>
      </trkpt>
      <trkpt lat="48.87535" lon="2.37036">
        <ele>35.599998474121</ele>
        <time>2015-10-12T18:44:07Z</time>
      </trkpt>
      <trkpt lat="48.87535" lon="2.37009">
        <ele>41.79999923706</ele>
        <time>2015-10-12T18:44:19Z</time>
      </trkpt>
      <trkpt lat="48.87537" lon="2.3698">
        <ele>41.599998474121</ele>
        <time>2015-10-12T18:44:24Z</time>
      </trkpt>
      <trkpt lat="48.87539" lon="2.36951">
        <ele>40.400001525879</ele>
        <time>2015-10-12T18:44:29Z</time>
      </trkpt>
      <trkpt lat="48.8754" lon="2.36924">
        <ele>40.20000076294</ele>
        <time>2015-10-12T18:44:34Z</time>
      </trkpt>
      <trkpt lat="48.87544" lon="2.36922">
        <ele>40.20000076294</ele>
        <time>2015-10-12T18:44:35Z</time>
      </trkpt>
      <trkpt lat="48.8756" lon="2.36908">
        <ele>40.79999923706</ele>
        <time>2015-10-12T18:44:41Z</time>
      </trkpt>
      <trkpt lat="48.87576" lon="2.36892">
        <ele>41</ele>
        <time>2015-10-12T18:44:47Z</time>
      </trkpt>
      <trkpt lat="48.87587" lon="2.36869">
        <ele>43.599998474121</ele>
        <time>2015-10-12T18:44:52Z</time>
      </trkpt>
      <trkpt lat="48.87604" lon="2.36855">
        <ele>44.20000076294</ele>
        <time>2015-10-12T18:44:58Z</time>
      </trkpt>
      <trkpt lat="48.87617" lon="2.36834">
        <ele>44.599998474121</ele>
        <time>2015-10-12T18:45:05Z</time>
      </trkpt>
      <trkpt lat="48.87627" lon="2.36808">
        <ele>44</ele>
        <time>2015-10-12T18:45:12Z</time>
      </trkpt>
      <trkpt lat="48.87639" lon="2.36783">
        <ele>42.400001525879</ele>
        <time>2015-10-12T18:45:17Z</time>
      </trkpt>
      <trkpt lat="48.8765" lon="2.36758">
        <ele>41.20000076294</ele>
        <time>2015-10-12T18:45:21Z</time>
      </trkpt>
      <trkpt lat="48.87661" lon="2.36732">
        <ele>39.20000076294</ele>
        <time>2015-10-12T18:45:25Z</time>
      </trkpt>
      <trkpt lat="48.87671" lon="2.36708">
        <ele>38.20000076294</ele>
        <time>2015-10-12T18:45:29Z</time>
      </trkpt>
      <trkpt lat="48.87683" lon="2.3668">
        <ele>35.79999923706</ele>
        <time>2015-10-12T18:45:34Z</time>
      </trkpt>
      <trkpt lat="48.87692" lon="2.36656">
        <ele>33.400001525879</ele>
        <time>2015-10-12T18:45:38Z</time>
      </trkpt>
      <trkpt lat="48.87702" lon="2.36632">
        <ele>32</ele>
        <time>2015-10-12T18:45:42Z</time>
      </trkpt>
      <trkpt lat="48.87705" lon="2.36627">
        <ele>31.200000762939</ele>
        <time>2015-10-12T18:45:43Z</time>
      </trkpt>
      <trkpt lat="48.87719" lon="2.3661">
        <ele>29.60000038147</ele>
        <time>2015-10-12T18:45:47Z</time>
      </trkpt>
      <trkpt lat="48.8773" lon="2.36595">
        <ele>29</ele>
        <time>2015-10-12T18:45:51Z</time>
      </trkpt>
      <trkpt lat="48.87737" lon="2.36584">
        <ele>29</ele>
        <time>2015-10-12T18:45:55Z</time>
      </trkpt>
      <trkpt lat="48.87742" lon="2.36578">
        <ele>29.200000762939</ele>
        <time>2015-10-12T18:45:58Z</time>
      </trkpt>
      <trkpt lat="48.87747" lon="2.36574">
        <ele>29.60000038147</ele>
        <time>2015-10-12T18:46:00Z</time>
      </trkpt>
      <trkpt lat="48.8776" lon="2.36552">
        <ele>30.799999237061</ele>
        <time>2015-10-12T18:46:08Z</time>
      </trkpt>
      <trkpt lat="48.87763" lon="2.36543">
        <ele>31.799999237061</ele>
        <time>2015-10-12T18:46:11Z</time>
      </trkpt>
      <trkpt lat="48.87782" lon="2.36528">
        <ele>33.20000076294</ele>
        <time>2015-10-12T18:46:18Z</time>
      </trkpt>
      <trkpt lat="48.87785" lon="2.36524">
        <ele>33.400001525879</ele>
        <time>2015-10-12T18:46:19Z</time>
      </trkpt>
      <trkpt lat="48.87802" lon="2.36503">
        <ele>33.79999923706</ele>
        <time>2015-10-12T18:46:24Z</time>
      </trkpt>
      <trkpt lat="48.87817" lon="2.36487">
        <ele>32.79999923706</ele>
        <time>2015-10-12T18:46:28Z</time>
      </trkpt>
      <trkpt lat="48.87832" lon="2.36468">
        <ele>31.200000762939</ele>
        <time>2015-10-12T18:46:33Z</time>
      </trkpt>
      <trkpt lat="48.87848" lon="2.36448">
        <ele>29.39999961853</ele>
        <time>2015-10-12T18:46:38Z</time>
      </trkpt>
      <trkpt lat="48.87863" lon="2.36425">
        <ele>26.200000762939</ele>
        <time>2015-10-12T18:46:44Z</time>
      </trkpt>
      <trkpt lat="48.87875" lon="2.36401">
        <ele>23.39999961853</ele>
        <time>2015-10-12T18:46:50Z</time>
      </trkpt>
      <trkpt lat="48.8789" lon="2.36378">
        <ele>19.60000038147</ele>
        <time>2015-10-12T18:46:56Z</time>
      </trkpt>
      <trkpt lat="48.87903" lon="2.36355">
        <ele>16.39999961853</ele>
        <time>2015-10-12T18:47:01Z</time>
      </trkpt>
      <trkpt lat="48.87915" lon="2.36331">
        <ele>14.39999961853</ele>
        <time>2015-10-12T18:47:06Z</time>
      </trkpt>
      <trkpt lat="48.87926" lon="2.36306">
        <ele>14.60000038147</ele>
        <time>2015-10-12T18:47:12Z</time>
      </trkpt>
      <trkpt lat="48.87928" lon="2.36291">
        <ele>14.800000190735</ele>
        <time>2015-10-12T18:47:18Z</time>
      </trkpt>
      <trkpt lat="48.87918" lon="2.36269">
        <ele>17.200000762939</ele>
        <time>2015-10-12T18:47:24Z</time>
      </trkpt>
      <trkpt lat="48.87909" lon="2.36252">
        <ele>17.60000038147</ele>
        <time>2015-10-12T18:47:29Z</time>
      </trkpt>
      <trkpt lat="48.87922" lon="2.36238">
        <ele>20.200000762939</ele>
        <time>2015-10-12T18:47:36Z</time>
      </trkpt>
      <trkpt lat="48.87941" lon="2.36235">
        <ele>25.200000762939</ele>
        <time>2015-10-12T18:47:43Z</time>
      </trkpt>
      <trkpt lat="48.8796" lon="2.36229">
        <ele>33.20000076294</ele>
        <time>2015-10-12T18:47:50Z</time>
      </trkpt>
      <trkpt lat="48.87981" lon="2.36226">
        <ele>40.599998474121</ele>
        <time>2015-10-12T18:47:56Z</time>
      </trkpt>
      <trkpt lat="48.88001" lon="2.36222">
        <ele>54</ele>
        <time>2015-10-12T18:48:02Z</time>
      </trkpt>
      <trkpt lat="48.8802" lon="2.3622">
        <ele>59.79999923706</ele>
        <time>2015-10-12T18:48:08Z</time>
      </trkpt>
      <trkpt lat="48.88038" lon="2.36217">
        <ele>62.79999923706</ele>
        <time>2015-10-12T18:48:14Z</time>
      </trkpt>
      <trkpt lat="48.88055" lon="2.36207">
        <ele>62</ele>
        <time>2015-10-12T18:48:20Z</time>
      </trkpt>
      <trkpt lat="48.88073" lon="2.36205">
        <ele>64.599998474121</ele>
        <time>2015-10-12T18:48:27Z</time>
      </trkpt>
      <trkpt lat="48.88093" lon="2.362">
        <ele>66.400001525879</ele>
        <time>2015-10-12T18:48:33Z</time>
      </trkpt>
      <trkpt lat="48.88114" lon="2.36191">
        <ele>65.599998474121</ele>
        <time>2015-10-12T18:48:38Z</time>
      </trkpt>
      <trkpt lat="48.8813" lon="2.36182">
        <ele>66.599998474121</ele>
        <time>2015-10-12T18:48:43Z</time>
      </trkpt>
      <trkpt lat="48.8813" lon="2.36161">
        <ele>66.800003051758</ele>
        <time>2015-10-12T18:48:49Z</time>
      </trkpt>
      <trkpt lat="48.88117" lon="2.36135">
        <ele>71.199996948242</ele>
        <time>2015-10-12T18:48:55Z</time>
      </trkpt>
      <trkpt lat="48.88105" lon="2.36111">
        <ele>71.400001525879</ele>
        <time>2015-10-12T18:49:00Z</time>
      </trkpt>
      <trkpt lat="48.88095" lon="2.36082">
        <ele>71.800003051758</ele>
        <time>2015-10-12T18:49:05Z</time>
      </trkpt>
      <trkpt lat="48.88085" lon="2.3606">
        <ele>71.199996948242</ele>
        <time>2015-10-12T18:49:09Z</time>
      </trkpt>
      <trkpt lat="48.88074" lon="2.36037">
        <ele>71.400001525879</ele>
        <time>2015-10-12T18:49:13Z</time>
      </trkpt>
      <trkpt lat="48.88064" lon="2.36013">
        <ele>71</ele>
        <time>2015-10-12T18:49:17Z</time>
      </trkpt>
      <trkpt lat="48.88054" lon="2.35989">
        <ele>70.199996948242</ele>
        <time>2015-10-12T18:49:21Z</time>
      </trkpt>
      <trkpt lat="48.88043" lon="2.35964">
        <ele>70.199996948242</ele>
        <time>2015-10-12T18:49:25Z</time>
      </trkpt>
      <trkpt lat="48.88027" lon="2.35941">
        <ele>69.800003051758</ele>
        <time>2015-10-12T18:49:29Z</time>
      </trkpt>
      <trkpt lat="48.88011" lon="2.35919">
        <ele>69.400001525879</ele>
        <time>2015-10-12T18:49:33Z</time>
      </trkpt>
      <trkpt lat="48.88002" lon="2.35901">
        <ele>69</ele>
        <time>2015-10-12T18:49:36Z</time>
      </trkpt>
      <trkpt lat="48.87989" lon="2.35881">
        <ele>70.800003051758</ele>
        <time>2015-10-12T18:49:40Z</time>
      </trkpt>
      <trkpt lat="48.87981" lon="2.35869">
        <ele>70.599998474121</ele>
        <time>2015-10-12T18:49:43Z</time>
      </trkpt>
      <trkpt lat="48.87971" lon="2.35844">
        <ele>70.199996948242</ele>
        <time>2015-10-12T18:49:50Z</time>
      </trkpt>
      <trkpt lat="48.87968" lon="2.35837">
        <ele>69.800003051758</ele>
        <time>2015-10-12T18:49:52Z</time>
      </trkpt>
      <trkpt lat="48.87965" lon="2.35834">
        <ele>69.800003051758</ele>
        <time>2015-10-12T18:49:53Z</time>
      </trkpt>
      <trkpt lat="48.87955" lon="2.35814">
        <ele>70</ele>
        <time>2015-10-12T18:49:59Z</time>
      </trkpt>
      <trkpt lat="48.87948" lon="2.35787">
        <ele>67</ele>
        <time>2015-10-12T18:50:07Z</time>
      </trkpt>
      <trkpt lat="48.87948" lon="2.35755">
        <ele>62.599998474121</ele>
        <time>2015-10-12T18:50:13Z</time>
      </trkpt>
      <trkpt lat="48.87955" lon="2.35729">
        <ele>58.79999923706</ele>
        <time>2015-10-12T18:50:19Z</time>
      </trkpt>
      <trkpt lat="48.87961" lon="2.35702">
        <ele>55.400001525879</ele>
        <time>2015-10-12T18:50:24Z</time>
      </trkpt>
      <trkpt lat="48.87971" lon="2.35671">
        <ele>51</ele>
        <time>2015-10-12T18:50:29Z</time>
      </trkpt>
      <trkpt lat="48.87978" lon="2.35644">
        <ele>48.400001525879</ele>
        <time>2015-10-12T18:50:33Z</time>
      </trkpt>
      <trkpt lat="48.87983" lon="2.35615">
        <ele>45.599998474121</ele>
        <time>2015-10-12T18:50:37Z</time>
      </trkpt>
      <trkpt lat="48.87989" lon="2.35586">
        <ele>44.20000076294</ele>
        <time>2015-10-12T18:50:41Z</time>
      </trkpt>
      <trkpt lat="48.87992" lon="2.35558">
        <ele>42.599998474121</ele>
        <time>2015-10-12T18:50:46Z</time>
      </trkpt>
      <trkpt lat="48.87992" lon="2.3553">
        <ele>40.79999923706</ele>
        <time>2015-10-12T18:50:52Z</time>
      </trkpt>
      <trkpt lat="48.87993" lon="2.35526">
        <ele>40.599998474121</ele>
        <time>2015-10-12T18:50:53Z</time>
      </trkpt>
      <trkpt lat="48.87998" lon="2.35496">
        <ele>41.79999923706</ele>
        <time>2015-10-12T18:51:01Z</time>
      </trkpt>
      <trkpt lat="48.88004" lon="2.35467">
        <ele>40.79999923706</ele>
        <time>2015-10-12T18:51:08Z</time>
      </trkpt>
      <trkpt lat="48.88009" lon="2.35438">
        <ele>44</ele>
        <time>2015-10-12T18:51:15Z</time>
      </trkpt>
      <trkpt lat="48.88015" lon="2.35411">
        <ele>42.79999923706</ele>
        <time>2015-10-12T18:51:23Z</time>
      </trkpt>
      <trkpt lat="48.88021" lon="2.35385">
        <ele>43</ele>
        <time>2015-10-12T18:51:31Z</time>
      </trkpt>
      <trkpt lat="48.88022" lon="2.35375">
        <ele>43.20000076294</ele>
        <time>2015-10-12T18:51:34Z</time>
      </trkpt>
      <trkpt lat="48.88026" lon="2.35364">
        <ele>42.400001525879</ele>
        <time>2015-10-12T18:51:38Z</time>
      </trkpt>
      <trkpt lat="48.88034" lon="2.35337">
        <ele>40.599998474121</ele>
        <time>2015-10-12T18:51:44Z</time>
      </trkpt>
      <trkpt lat="48.88042" lon="2.35308">
        <ele>39.599998474121</ele>
        <time>2015-10-12T18:51:50Z</time>
      </trkpt>
      <trkpt lat="48.88049" lon="2.35279">
        <ele>40</ele>
        <time>2015-10-12T18:51:56Z</time>
      </trkpt>
      <trkpt lat="48.88059" lon="2.35256">
        <ele>42.20000076294</ele>
        <time>2015-10-12T18:52:04Z</time>
      </trkpt>
      <trkpt lat="48.88066" lon="2.35239">
        <ele>43.400001525879</ele>
        <time>2015-10-12T18:52:12Z</time>
      </trkpt>
      <trkpt lat="48.8805" lon="2.35242">
        <ele>45</ele>
        <time>2015-10-12T18:52:32Z</time>
      </trkpt>
      <trkpt lat="48.88035" lon="2.3523">
        <ele>50.79999923706</ele>
        <time>2015-10-12T18:53:14Z</time>
      </trkpt>
      <trkpt lat="48.88018" lon="2.3522">
        <ele>52</ele>
        <time>2015-10-12T18:53:22Z</time>
      </trkpt>
      <trkpt lat="48.87998" lon="2.35216">
        <ele>52.20000076294</ele>
        <time>2015-10-12T18:53:31Z</time>
      </trkpt>
      <trkpt lat="48.87978" lon="2.35213">
        <ele>51.599998474121</ele>
        <time>2015-10-12T18:53:39Z</time>
      </trkpt>
      <trkpt lat="48.8796" lon="2.35206">
        <ele>51.400001525879</ele>
        <time>2015-10-12T18:53:46Z</time>
      </trkpt>
      <trkpt lat="48.87949" lon="2.35181">
        <ele>50.79999923706</ele>
        <time>2015-10-12T18:53:53Z</time>
      </trkpt>
      <trkpt lat="48.87936" lon="2.35164">
        <ele>50.400001525879</ele>
        <time>2015-10-12T18:53:58Z</time>
      </trkpt>
      <trkpt lat="48.87918" lon="2.35159">
        <ele>49.599998474121</ele>
        <time>2015-10-12T18:54:03Z</time>
      </trkpt>
      <trkpt lat="48.87897" lon="2.35155">
        <ele>48</ele>
        <time>2015-10-12T18:54:09Z</time>
      </trkpt>
      <trkpt lat="48.87878" lon="2.3515">
        <ele>46.20000076294</ele>
        <time>2015-10-12T18:54:16Z</time>
      </trkpt>
      <trkpt lat="48.87867" lon="2.35147">
        <ele>44.79999923706</ele>
        <time>2015-10-12T18:54:24Z</time>
      </trkpt>
      <trkpt lat="48.87865" lon="2.35147">
        <ele>44.599998474121</ele>
        <time>2015-10-12T18:54:27Z</time>
      </trkpt>
      <trkpt lat="48.87861" lon="2.35159">
        <ele>45.20000076294</ele>
        <time>2015-10-12T18:54:38Z</time>
      </trkpt>
      <trkpt lat="48.87854" lon="2.35151">
        <ele>45.79999923706</ele>
        <time>2015-10-12T18:54:54Z</time>
      </trkpt>
      <trkpt lat="48.87835" lon="2.35146">
        <ele>48.400001525879</ele>
        <time>2015-10-12T18:55:05Z</time>
      </trkpt>
      <trkpt lat="48.87828" lon="2.35136">
        <ele>48.79999923706</ele>
        <time>2015-10-12T18:55:08Z</time>
      </trkpt>
      <trkpt lat="48.87814" lon="2.35123">
        <ele>47.599998474121</ele>
        <time>2015-10-12T18:55:16Z</time>
      </trkpt>
      <trkpt lat="48.87816" lon="2.35117">
        <ele>47</ele>
        <time>2015-10-12T18:55:19Z</time>
      </trkpt>
      <trkpt lat="48.8783" lon="2.35094">
        <ele>45</ele>
        <time>2015-10-12T18:55:27Z</time>
      </trkpt>
      <trkpt lat="48.87842" lon="2.35073">
        <ele>44.400001525879</ele>
        <time>2015-10-12T18:55:33Z</time>
      </trkpt>
      <trkpt lat="48.87857" lon="2.35056">
        <ele>43.599998474121</ele>
        <time>2015-10-12T18:55:41Z</time>
      </trkpt>
      <trkpt lat="48.87858" lon="2.35056">
        <ele>43.400001525879</ele>
        <time>2015-10-12T18:55:43Z</time>
      </trkpt>
      <trkpt lat="48.87864" lon="2.3504">
        <ele>51</ele>
        <time>2015-10-12T18:56:42Z</time>
      </trkpt>
      <trkpt lat="48.87857" lon="2.35046">
        <ele>52.599998474121</ele>
        <time>2015-10-12T18:58:03Z</time>
      </trkpt>
      <trkpt lat="48.87856" lon="2.35058">
        <ele>53.79999923706</ele>
        <time>2015-10-12T18:58:56Z</time>
      </trkpt>
      <trkpt lat="48.87861" lon="2.35066">
        <ele>54</ele>
        <time>2015-10-12T18:59:02Z</time>
      </trkpt>
      <trkpt lat="48.87873" lon="2.35035">
        <ele>54.20000076294</ele>
        <time>2015-10-12T18:59:10Z</time>
      </trkpt>
      <trkpt lat="48.87874" lon="2.3503">
        <ele>54.20000076294</ele>
        <time>2015-10-12T18:59:11Z</time>
      </trkpt>
      <trkpt lat="48.87881" lon="2.35014">
        <ele>54.20000076294</ele>
        <time>2015-10-12T18:59:14Z</time>
      </trkpt>
      <trkpt lat="48.87892" lon="2.3499">
        <ele>54.400001525879</ele>
        <time>2015-10-12T18:59:20Z</time>
      </trkpt>
      <trkpt lat="48.87904" lon="2.34965">
        <ele>54</ele>
        <time>2015-10-12T18:59:26Z</time>
      </trkpt>
      <trkpt lat="48.87914" lon="2.34941">
        <ele>54.20000076294</ele>
        <time>2015-10-12T18:59:32Z</time>
      </trkpt>
      <trkpt lat="48.87919" lon="2.34934">
        <ele>54</ele>
        <time>2015-10-12T18:59:34Z</time>
      </trkpt>
      <trkpt lat="48.87937" lon="2.34937">
        <ele>53.599998474121</ele>
        <time>2015-10-12T18:59:40Z</time>
      </trkpt>
      <trkpt lat="48.8794" lon="2.34938">
        <ele>53.400001525879</ele>
        <time>2015-10-12T18:59:41Z</time>
      </trkpt>
      <trkpt lat="48.87959" lon="2.34942">
        <ele>53.20000076294</ele>
        <time>2015-10-12T18:59:47Z</time>
      </trkpt>
      <trkpt lat="48.87976" lon="2.34956">
        <ele>54</ele>
        <time>2015-10-12T18:59:53Z</time>
      </trkpt>
      <trkpt lat="48.87993" lon="2.34967">
        <ele>56.79999923706</ele>
        <time>2015-10-12T18:59:59Z</time>
      </trkpt>
      <trkpt lat="48.88012" lon="2.3498">
        <ele>59.79999923706</ele>
        <time>2015-10-12T19:00:05Z</time>
      </trkpt>
      <trkpt lat="48.88029" lon="2.34992">
        <ele>61</ele>
        <time>2015-10-12T19:00:10Z</time>
      </trkpt>
      <trkpt lat="48.8805" lon="2.34996">
        <ele>62.20000076294</ele>
        <time>2015-10-12T19:00:15Z</time>
      </trkpt>
      <trkpt lat="48.8807" lon="2.34996">
        <ele>64.800003051758</ele>
        <time>2015-10-12T19:00:20Z</time>
      </trkpt>
      <trkpt lat="48.88092" lon="2.34991">
        <ele>68</ele>
        <time>2015-10-12T19:00:25Z</time>
      </trkpt>
      <trkpt lat="48.88113" lon="2.34983">
        <ele>71.800003051758</ele>
        <time>2015-10-12T19:00:30Z</time>
      </trkpt>
      <trkpt lat="48.88131" lon="2.34978">
        <ele>76.199996948242</ele>
        <time>2015-10-12T19:00:35Z</time>
      </trkpt>
      <trkpt lat="48.8815" lon="2.34972">
        <ele>83</ele>
        <time>2015-10-12T19:00:40Z</time>
      </trkpt>
      <trkpt lat="48.88168" lon="2.34973">
        <ele>90.400001525879</ele>
        <time>2015-10-12T19:00:45Z</time>
      </trkpt>
      <trkpt lat="48.88188" lon="2.3497">
        <ele>96.199996948242</ele>
        <time>2015-10-12T19:00:50Z</time>
      </trkpt>
      <trkpt lat="48.88206" lon="2.34964">
        <ele>99.199996948242</ele>
        <time>2015-10-12T19:00:54Z</time>
      </trkpt>
      <trkpt lat="48.88225" lon="2.34951">
        <ele>101.80000305176</ele>
        <time>2015-10-12T19:00:59Z</time>
      </trkpt>
      <trkpt lat="48.88234" lon="2.34927">
        <ele>100.19999694824</ele>
        <time>2015-10-12T19:01:06Z</time>
      </trkpt>
      <trkpt lat="48.88239" lon="2.34898">
        <ele>96.599998474121</ele>
        <time>2015-10-12T19:01:13Z</time>
      </trkpt>
      <trkpt lat="48.88241" lon="2.3487">
        <ele>97</ele>
        <time>2015-10-12T19:01:19Z</time>
      </trkpt>
      <trkpt lat="48.88249" lon="2.3484">
        <ele>87.400001525879</ele>
        <time>2015-10-12T19:01:27Z</time>
      </trkpt>
      <trkpt lat="48.88252" lon="2.34809">
        <ele>80.800003051758</ele>
        <time>2015-10-12T19:01:34Z</time>
      </trkpt>
      <trkpt lat="48.88252" lon="2.34778">
        <ele>78</ele>
        <time>2015-10-12T19:01:41Z</time>
      </trkpt>
      <trkpt lat="48.88252" lon="2.3475">
        <ele>74</ele>
        <time>2015-10-12T19:01:48Z</time>
      </trkpt>
      <trkpt lat="48.88253" lon="2.34723">
        <ele>72</ele>
        <time>2015-10-12T19:01:54Z</time>
      </trkpt>
      <trkpt lat="48.88251" lon="2.34694">
        <ele>70.599998474121</ele>
        <time>2015-10-12T19:02:01Z</time>
      </trkpt>
      <trkpt lat="48.88249" lon="2.34681">
        <ele>71.199996948242</ele>
        <time>2015-10-12T19:02:08Z</time>
      </trkpt>
      <trkpt lat="48.88243" lon="2.34684">
        <ele>70.599998474121</ele>
        <time>2015-10-12T19:02:21Z</time>
      </trkpt>
      <trkpt lat="48.88226" lon="2.34675">
        <ele>69.599998474121</ele>
        <time>2015-10-12T19:02:29Z</time>
      </trkpt>
      <trkpt lat="48.88223" lon="2.34675">
        <ele>69.400001525879</ele>
        <time>2015-10-12T19:02:30Z</time>
      </trkpt>
      <trkpt lat="48.88204" lon="2.34668">
        <ele>68.400001525879</ele>
        <time>2015-10-12T19:02:36Z</time>
      </trkpt>
      <trkpt lat="48.88192" lon="2.34648">
        <ele>67</ele>
        <time>2015-10-12T19:02:41Z</time>
      </trkpt>
      <trkpt lat="48.88186" lon="2.34617">
        <ele>62.20000076294</ele>
        <time>2015-10-12T19:02:47Z</time>
      </trkpt>
      <trkpt lat="48.88181" lon="2.3459">
        <ele>57.599998474121</ele>
        <time>2015-10-12T19:02:52Z</time>
      </trkpt>
      <trkpt lat="48.88175" lon="2.3456">
        <ele>53.599998474121</ele>
        <time>2015-10-12T19:02:58Z</time>
      </trkpt>
      <trkpt lat="48.88176" lon="2.3453">
        <ele>50.79999923706</ele>
        <time>2015-10-12T19:03:03Z</time>
      </trkpt>
      <trkpt lat="48.8818" lon="2.34501">
        <ele>46.79999923706</ele>
        <time>2015-10-12T19:03:09Z</time>
      </trkpt>
      <trkpt lat="48.88175" lon="2.34475">
        <ele>48.599998474121</ele>
        <time>2015-10-12T19:03:15Z</time>
      </trkpt>
      <trkpt lat="48.88162" lon="2.34455">
        <ele>45.79999923706</ele>
        <time>2015-10-12T19:03:23Z</time>
      </trkpt>
      <trkpt lat="48.88147" lon="2.34438">
        <ele>44.20000076294</ele>
        <time>2015-10-12T19:03:32Z</time>
      </trkpt>
      <trkpt lat="48.88127" lon="2.34431">
        <ele>41.400001525879</ele>
        <time>2015-10-12T19:03:39Z</time>
      </trkpt>
      <trkpt lat="48.88106" lon="2.3442">
        <ele>39.599998474121</ele>
        <time>2015-10-12T19:03:45Z</time>
      </trkpt>
      <trkpt lat="48.88084" lon="2.34411">
        <ele>37.400001525879</ele>
        <time>2015-10-12T19:03:50Z</time>
      </trkpt>
      <trkpt lat="48.88065" lon="2.34405">
        <ele>36.400001525879</ele>
        <time>2015-10-12T19:03:54Z</time>
      </trkpt>
      <trkpt lat="48.88045" lon="2.34393">
        <ele>35.20000076294</ele>
        <time>2015-10-12T19:03:59Z</time>
      </trkpt>
      <trkpt lat="48.88025" lon="2.34384">
        <ele>35.400001525879</ele>
        <time>2015-10-12T19:04:04Z</time>
      </trkpt>
      <trkpt lat="48.88006" lon="2.34378">
        <ele>32.79999923706</ele>
        <time>2015-10-12T19:04:08Z</time>
      </trkpt>
      <trkpt lat="48.87986" lon="2.34373">
        <ele>31</ele>
        <time>2015-10-12T19:04:13Z</time>
      </trkpt>
      <trkpt lat="48.87967" lon="2.34357">
        <ele>29.799999237061</ele>
        <time>2015-10-12T19:04:18Z</time>
      </trkpt>
      <trkpt lat="48.87949" lon="2.34346">
        <ele>29.200000762939</ele>
        <time>2015-10-12T19:04:23Z</time>
      </trkpt>
      <trkpt lat="48.8793" lon="2.3433">
        <ele>29.200000762939</ele>
        <time>2015-10-12T19:04:29Z</time>
      </trkpt>
      <trkpt lat="48.87911" lon="2.34322">
        <ele>27.60000038147</ele>
        <time>2015-10-12T19:04:34Z</time>
      </trkpt>
      <trkpt lat="48.87893" lon="2.3431">
        <ele>25.799999237061</ele>
        <time>2015-10-12T19:04:39Z</time>
      </trkpt>
      <trkpt lat="48.87874" lon="2.34295">
        <ele>24</ele>
        <time>2015-10-12T19:04:44Z</time>
      </trkpt>
      <trkpt lat="48.87854" lon="2.34288">
        <ele>21.799999237061</ele>
        <time>2015-10-12T19:04:49Z</time>
      </trkpt>
      <trkpt lat="48.87835" lon="2.34279">
        <ele>18.799999237061</ele>
        <time>2015-10-12T19:04:54Z</time>
      </trkpt>
      <trkpt lat="48.87819" lon="2.34266">
        <ele>17</ele>
        <time>2015-10-12T19:04:58Z</time>
      </trkpt>
      <trkpt lat="48.87802" lon="2.34253">
        <ele>15.199999809265</ele>
        <time>2015-10-12T19:05:02Z</time>
      </trkpt>
      <trkpt lat="48.87783" lon="2.34249">
        <ele>12.60000038147</ele>
        <time>2015-10-12T19:05:06Z</time>
      </trkpt>
      <trkpt lat="48.87765" lon="2.3425">
        <ele>10.39999961853</ele>
        <time>2015-10-12T19:05:10Z</time>
      </trkpt>
      <trkpt lat="48.87753" lon="2.34253">
        <ele>9.1999998092651</ele>
        <time>2015-10-12T19:05:13Z</time>
      </trkpt>
      <trkpt lat="48.87734" lon="2.34245">
        <ele>7.5999999046326</ele>
        <time>2015-10-12T19:05:19Z</time>
      </trkpt>
      <trkpt lat="48.87715" lon="2.34242">
        <ele>10.60000038147</ele>
        <time>2015-10-12T19:05:23Z</time>
      </trkpt>
      <trkpt lat="48.87702" lon="2.34218">
        <ele>13.800000190735</ele>
        <time>2015-10-12T19:05:27Z</time>
      </trkpt>
      <trkpt lat="48.87698" lon="2.34204">
        <ele>13.60000038147</ele>
        <time>2015-10-12T19:05:29Z</time>
      </trkpt>
      <trkpt lat="48.87686" lon="2.34176">
        <ele>12.800000190735</ele>
        <time>2015-10-12T19:05:33Z</time>
      </trkpt>
      <trkpt lat="48.8767" lon="2.34154">
        <ele>15.199999809265</ele>
        <time>2015-10-12T19:05:37Z</time>
      </trkpt>
      <trkpt lat="48.87655" lon="2.34136">
        <ele>17.799999237061</ele>
        <time>2015-10-12T19:05:41Z</time>
      </trkpt>
      <trkpt lat="48.87655" lon="2.34103">
        <ele>17.200000762939</ele>
        <time>2015-10-12T19:05:45Z</time>
      </trkpt>
      <trkpt lat="48.87658" lon="2.34072">
        <ele>16</ele>
        <time>2015-10-12T19:05:49Z</time>
      </trkpt>
      <trkpt lat="48.87657" lon="2.34057">
        <ele>15.60000038147</ele>
        <time>2015-10-12T19:05:51Z</time>
      </trkpt>
      <trkpt lat="48.87654" lon="2.34026">
        <ele>15</ele>
        <time>2015-10-12T19:05:56Z</time>
      </trkpt>
      <trkpt lat="48.87659" lon="2.34004">
        <ele>14.60000038147</ele>
        <time>2015-10-12T19:06:00Z</time>
      </trkpt>
      <trkpt lat="48.87669" lon="2.33973">
        <ele>13.800000190735</ele>
        <time>2015-10-12T19:06:06Z</time>
      </trkpt>
      <trkpt lat="48.87674" lon="2.33958">
        <ele>13</ele>
        <time>2015-10-12T19:06:14Z</time>
      </trkpt>
      <trkpt lat="48.87669" lon="2.33948">
        <ele>16.200000762939</ele>
        <time>2015-10-12T19:06:29Z</time>
      </trkpt>
      <trkpt lat="48.87677" lon="2.33928">
        <ele>19.39999961853</ele>
        <time>2015-10-12T19:06:53Z</time>
      </trkpt>
      <trkpt lat="48.87686" lon="2.339">
        <ele>19.60000038147</ele>
        <time>2015-10-12T19:07:00Z</time>
      </trkpt>
      <trkpt lat="48.8769" lon="2.33868">
        <ele>20.60000038147</ele>
        <time>2015-10-12T19:07:05Z</time>
      </trkpt>
      <trkpt lat="48.87691" lon="2.33855">
        <ele>20.200000762939</ele>
        <time>2015-10-12T19:07:07Z</time>
      </trkpt>
      <trkpt lat="48.87693" lon="2.33824">
        <ele>19.60000038147</ele>
        <time>2015-10-12T19:07:11Z</time>
      </trkpt>
      <trkpt lat="48.87694" lon="2.33792">
        <ele>19</ele>
        <time>2015-10-12T19:07:15Z</time>
      </trkpt>
      <trkpt lat="48.8769" lon="2.33759">
        <ele>17.799999237061</ele>
        <time>2015-10-12T19:07:19Z</time>
      </trkpt>
      <trkpt lat="48.87683" lon="2.33726">
        <ele>16.39999961853</ele>
        <time>2015-10-12T19:07:23Z</time>
      </trkpt>
      <trkpt lat="48.87684" lon="2.33717">
        <ele>16.200000762939</ele>
        <time>2015-10-12T19:07:24Z</time>
      </trkpt>
      <trkpt lat="48.87683" lon="2.33684">
        <ele>14.60000038147</ele>
        <time>2015-10-12T19:07:28Z</time>
      </trkpt>
      <trkpt lat="48.87684" lon="2.3366">
        <ele>14.199999809265</ele>
        <time>2015-10-12T19:07:31Z</time>
      </trkpt>
      <trkpt lat="48.87682" lon="2.33629">
        <ele>13.39999961853</ele>
        <time>2015-10-12T19:07:35Z</time>
      </trkpt>
      <trkpt lat="48.87683" lon="2.33599">
        <ele>12.60000038147</ele>
        <time>2015-10-12T19:07:39Z</time>
      </trkpt>
      <trkpt lat="48.87683" lon="2.3357">
        <ele>12</ele>
        <time>2015-10-12T19:07:43Z</time>
      </trkpt>
      <trkpt lat="48.87692" lon="2.33551">
        <ele>11.39999961853</ele>
        <time>2015-10-12T19:07:46Z</time>
      </trkpt>
      <trkpt lat="48.87698" lon="2.33544">
        <ele>11.199999809265</ele>
        <time>2015-10-12T19:07:48Z</time>
      </trkpt>
      <trkpt lat="48.87704" lon="2.33542">
        <ele>10.199999809265</ele>
        <time>2015-10-12T19:07:52Z</time>
      </trkpt>
      <trkpt lat="48.87692" lon="2.33546">
        <ele>11</ele>
        <time>2015-10-12T19:08:00Z</time>
      </trkpt>
      <trkpt lat="48.8769" lon="2.33525">
        <ele>10</ele>
        <time>2015-10-12T19:08:04Z</time>
      </trkpt>
      <trkpt lat="48.87692" lon="2.33492">
        <ele>8.3999996185303</ele>
        <time>2015-10-12T19:08:09Z</time>
      </trkpt>
      <trkpt lat="48.87691" lon="2.3346">
        <ele>6.1999998092651</ele>
        <time>2015-10-12T19:08:14Z</time>
      </trkpt>
      <trkpt lat="48.87691" lon="2.33427">
        <ele>4.4000000953674</ele>
        <time>2015-10-12T19:08:19Z</time>
      </trkpt>
      <trkpt lat="48.8769" lon="2.33399">
        <ele>2.7999999523163</ele>
        <time>2015-10-12T19:08:23Z</time>
      </trkpt>
      <trkpt lat="48.87691" lon="2.33366">
        <ele>2.4000000953674</ele>
        <time>2015-10-12T19:08:27Z</time>
      </trkpt>
      <trkpt lat="48.87691" lon="2.33334">
        <ele>2.5999999046326</ele>
        <time>2015-10-12T19:08:31Z</time>
      </trkpt>
      <trkpt lat="48.8769" lon="2.33304">
        <ele>2.5999999046326</ele>
        <time>2015-10-12T19:08:35Z</time>
      </trkpt>
      <trkpt lat="48.87691" lon="2.33274">
        <ele>2.5999999046326</ele>
        <time>2015-10-12T19:08:39Z</time>
      </trkpt>
      <trkpt lat="48.87689" lon="2.33243">
        <ele>2</ele>
        <time>2015-10-12T19:08:44Z</time>
      </trkpt>
      <trkpt lat="48.87701" lon="2.33226">
        <ele>2.4000000953674</ele>
        <time>2015-10-12T19:08:52Z</time>
      </trkpt>
      <trkpt lat="48.87712" lon="2.33213">
        <ele>4.4000000953674</ele>
        <time>2015-10-12T19:08:57Z</time>
      </trkpt>
      <trkpt lat="48.87729" lon="2.33201">
        <ele>7.5999999046326</ele>
        <time>2015-10-12T19:09:05Z</time>
      </trkpt>
      <trkpt lat="48.87749" lon="2.33196">
        <ele>12</ele>
        <time>2015-10-12T19:09:15Z</time>
      </trkpt>
      <trkpt lat="48.87769" lon="2.33186">
        <ele>15.800000190735</ele>
        <time>2015-10-12T19:09:22Z</time>
      </trkpt>
      <trkpt lat="48.87778" lon="2.3316">
        <ele>17.799999237061</ele>
        <time>2015-10-12T19:09:27Z</time>
      </trkpt>
      <trkpt lat="48.87782" lon="2.33129">
        <ele>18.799999237061</ele>
        <time>2015-10-12T19:09:33Z</time>
      </trkpt>
      <trkpt lat="48.87779" lon="2.33101">
        <ele>18</ele>
        <time>2015-10-12T19:09:39Z</time>
      </trkpt>
      <trkpt lat="48.87766" lon="2.33079">
        <ele>19.60000038147</ele>
        <time>2015-10-12T19:09:45Z</time>
      </trkpt>
      <trkpt lat="48.87762" lon="2.33059">
        <ele>21.799999237061</ele>
        <time>2015-10-12T19:09:51Z</time>
      </trkpt>
      <trkpt lat="48.87772" lon="2.33037">
        <ele>23</ele>
        <time>2015-10-12T19:10:00Z</time>
      </trkpt>
      <trkpt lat="48.87792" lon="2.33027">
        <ele>24.799999237061</ele>
        <time>2015-10-12T19:10:06Z</time>
      </trkpt>
      <trkpt lat="48.87808" lon="2.33011">
        <ele>26.799999237061</ele>
        <time>2015-10-12T19:10:12Z</time>
      </trkpt>
      <trkpt lat="48.8782" lon="2.32983">
        <ele>28</ele>
        <time>2015-10-12T19:10:17Z</time>
      </trkpt>
      <trkpt lat="48.87822" lon="2.32956">
        <ele>28.799999237061</ele>
        <time>2015-10-12T19:10:21Z</time>
      </trkpt>
      <trkpt lat="48.87823" lon="2.32922">
        <ele>28.39999961853</ele>
        <time>2015-10-12T19:10:26Z</time>
      </trkpt>
      <trkpt lat="48.87821" lon="2.32895">
        <ele>28.39999961853</ele>
        <time>2015-10-12T19:10:30Z</time>
      </trkpt>
      <trkpt lat="48.87818" lon="2.32866">
        <ele>28.200000762939</ele>
        <time>2015-10-12T19:10:34Z</time>
      </trkpt>
      <trkpt lat="48.87814" lon="2.32834">
        <ele>27.60000038147</ele>
        <time>2015-10-12T19:10:39Z</time>
      </trkpt>
      <trkpt lat="48.87811" lon="2.32806">
        <ele>27</ele>
        <time>2015-10-12T19:10:43Z</time>
      </trkpt>
      <trkpt lat="48.87808" lon="2.32779">
        <ele>26.60000038147</ele>
        <time>2015-10-12T19:10:47Z</time>
      </trkpt>
      <trkpt lat="48.87805" lon="2.32752">
        <ele>26.200000762939</ele>
        <time>2015-10-12T19:10:51Z</time>
      </trkpt>
      <trkpt lat="48.87804" lon="2.32723">
        <ele>26.39999961853</ele>
        <time>2015-10-12T19:10:56Z</time>
      </trkpt>
      <trkpt lat="48.878" lon="2.32702">
        <ele>25.60000038147</ele>
        <time>2015-10-12T19:11:02Z</time>
      </trkpt>
      <trkpt lat="48.87801" lon="2.32688">
        <ele>25.200000762939</ele>
        <time>2015-10-12T19:11:06Z</time>
      </trkpt>
      <trkpt lat="48.87805" lon="2.3266">
        <ele>24.39999961853</ele>
        <time>2015-10-12T19:11:12Z</time>
      </trkpt>
      <trkpt lat="48.87814" lon="2.32631">
        <ele>23.200000762939</ele>
        <time>2015-10-12T19:11:18Z</time>
      </trkpt>
      <trkpt lat="48.87821" lon="2.32603">
        <ele>22.799999237061</ele>
        <time>2015-10-12T19:11:23Z</time>
      </trkpt>
      <trkpt lat="48.8783" lon="2.32576">
        <ele>22</ele>
        <time>2015-10-12T19:11:28Z</time>
      </trkpt>
      <trkpt lat="48.87837" lon="2.32548">
        <ele>21.60000038147</ele>
        <time>2015-10-12T19:11:34Z</time>
      </trkpt>
      <trkpt lat="48.87847" lon="2.32524">
        <ele>22</ele>
        <time>2015-10-12T19:11:39Z</time>
      </trkpt>
      <trkpt lat="48.87858" lon="2.325">
        <ele>22.39999961853</ele>
        <time>2015-10-12T19:11:44Z</time>
      </trkpt>
      <trkpt lat="48.87869" lon="2.32474">
        <ele>24.200000762939</ele>
        <time>2015-10-12T19:11:50Z</time>
      </trkpt>
      <trkpt lat="48.87878" lon="2.32448">
        <ele>25.39999961853</ele>
        <time>2015-10-12T19:11:56Z</time>
      </trkpt>
      <trkpt lat="48.87884" lon="2.32419">
        <ele>28.200000762939</ele>
        <time>2015-10-12T19:12:03Z</time>
      </trkpt>
      <trkpt lat="48.87891" lon="2.32392">
        <ele>32.599998474121</ele>
        <time>2015-10-12T19:12:09Z</time>
      </trkpt>
      <trkpt lat="48.879" lon="2.32366">
        <ele>35.599998474121</ele>
        <time>2015-10-12T19:12:15Z</time>
      </trkpt>
      <trkpt lat="48.87911" lon="2.32343">
        <ele>38.599998474121</ele>
        <time>2015-10-12T19:12:22Z</time>
      </trkpt>
      <trkpt lat="48.87916" lon="2.32311">
        <ele>40.20000076294</ele>
        <time>2015-10-12T19:12:28Z</time>
      </trkpt>
      <trkpt lat="48.87924" lon="2.32282">
        <ele>41.20000076294</ele>
        <time>2015-10-12T19:12:33Z</time>
      </trkpt>
      <trkpt lat="48.87934" lon="2.32255">
        <ele>41.400001525879</ele>
        <time>2015-10-12T19:12:38Z</time>
      </trkpt>
      <trkpt lat="48.87945" lon="2.32228">
        <ele>41.599998474121</ele>
        <time>2015-10-12T19:12:43Z</time>
      </trkpt>
      <trkpt lat="48.87955" lon="2.32205">
        <ele>42.599998474121</ele>
        <time>2015-10-12T19:12:48Z</time>
      </trkpt>
      <trkpt lat="48.87964" lon="2.32179">
        <ele>44.400001525879</ele>
        <time>2015-10-12T19:12:54Z</time>
      </trkpt>
      <trkpt lat="48.87971" lon="2.3215">
        <ele>47</ele>
        <time>2015-10-12T19:13:00Z</time>
      </trkpt>
      <trkpt lat="48.8798" lon="2.32123">
        <ele>50</ele>
        <time>2015-10-12T19:13:05Z</time>
      </trkpt>
      <trkpt lat="48.87989" lon="2.32095">
        <ele>53.79999923706</ele>
        <time>2015-10-12T19:13:10Z</time>
      </trkpt>
      <trkpt lat="48.88" lon="2.32067">
        <ele>52.599998474121</ele>
        <time>2015-10-12T19:13:16Z</time>
      </trkpt>
      <trkpt lat="48.88009" lon="2.32041">
        <ele>54.599998474121</ele>
        <time>2015-10-12T19:13:21Z</time>
      </trkpt>
      <trkpt lat="48.88017" lon="2.32011">
        <ele>55.79999923706</ele>
        <time>2015-10-12T19:13:26Z</time>
      </trkpt>
      <trkpt lat="48.88026" lon="2.31984">
        <ele>56.400001525879</ele>
        <time>2015-10-12T19:13:31Z</time>
      </trkpt>
      <trkpt lat="48.88036" lon="2.31957">
        <ele>57</ele>
        <time>2015-10-12T19:13:36Z</time>
      </trkpt>
      <trkpt lat="48.88046" lon="2.31929">
        <ele>57.20000076294</ele>
        <time>2015-10-12T19:13:41Z</time>
      </trkpt>
      <trkpt lat="48.88054" lon="2.319">
        <ele>56.400001525879</ele>
        <time>2015-10-12T19:13:46Z</time>
      </trkpt>
      <trkpt lat="48.88064" lon="2.3187">
        <ele>57.400001525879</ele>
        <time>2015-10-12T19:13:51Z</time>
      </trkpt>
      <trkpt lat="48.88072" lon="2.3184">
        <ele>57.20000076294</ele>
        <time>2015-10-12T19:13:56Z</time>
      </trkpt>
      <trkpt lat="48.88078" lon="2.31814">
        <ele>57.20000076294</ele>
        <time>2015-10-12T19:14:00Z</time>
      </trkpt>
      <trkpt lat="48.88085" lon="2.31788">
        <ele>57.400001525879</ele>
        <time>2015-10-12T19:14:04Z</time>
      </trkpt>
      <trkpt lat="48.88095" lon="2.31757">
        <ele>58.599998474121</ele>
        <time>2015-10-12T19:14:09Z</time>
      </trkpt>
      <trkpt lat="48.88104" lon="2.31728">
        <ele>58.20000076294</ele>
        <time>2015-10-12T19:14:14Z</time>
      </trkpt>
      <trkpt lat="48.88113" lon="2.31702">
        <ele>58.20000076294</ele>
        <time>2015-10-12T19:14:19Z</time>
      </trkpt>
      <trkpt lat="48.88119" lon="2.31681">
        <ele>55.79999923706</ele>
        <time>2015-10-12T19:14:25Z</time>
      </trkpt>
      <trkpt lat="48.88122" lon="2.31673">
        <ele>54.599998474121</ele>
        <time>2015-10-12T19:14:28Z</time>
      </trkpt>
      <trkpt lat="48.88122" lon="2.31666">
        <ele>52.20000076294</ele>
        <time>2015-10-12T19:14:32Z</time>
      </trkpt>
      <trkpt lat="48.88121" lon="2.31666">
        <ele>51.79999923706</ele>
        <time>2015-10-12T19:14:33Z</time>
      </trkpt>
      <trkpt lat="48.88127" lon="2.31645">
        <ele>51.400001525879</ele>
        <time>2015-10-12T19:14:51Z</time>
      </trkpt>
      <trkpt lat="48.88128" lon="2.31615">
        <ele>54.20000076294</ele>
        <time>2015-10-12T19:14:59Z</time>
      </trkpt>
      <trkpt lat="48.88124" lon="2.31586">
        <ele>52.599998474121</ele>
        <time>2015-10-12T19:15:05Z</time>
      </trkpt>
      <trkpt lat="48.88127" lon="2.31581">
        <ele>52.20000076294</ele>
        <time>2015-10-12T19:15:06Z</time>
      </trkpt>
      <trkpt lat="48.88125" lon="2.31554">
        <ele>49</ele>
        <time>2015-10-12T19:15:17Z</time>
      </trkpt>
      <trkpt lat="48.88106" lon="2.31543">
        <ele>43.79999923706</ele>
        <time>2015-10-12T19:15:25Z</time>
      </trkpt>
      <trkpt lat="48.881" lon="2.31544">
        <ele>43.400001525879</ele>
        <time>2015-10-12T19:15:27Z</time>
      </trkpt>
      <trkpt lat="48.88082" lon="2.31545">
        <ele>42.400001525879</ele>
        <time>2015-10-12T19:15:32Z</time>
      </trkpt>
      <trkpt lat="48.8806" lon="2.31546">
        <ele>41.599998474121</ele>
        <time>2015-10-12T19:15:37Z</time>
      </trkpt>
      <trkpt lat="48.8804" lon="2.31547">
        <ele>41.79999923706</ele>
        <time>2015-10-12T19:15:41Z</time>
      </trkpt>
      <trkpt lat="48.8802" lon="2.31549">
        <ele>42.20000076294</ele>
        <time>2015-10-12T19:15:45Z</time>
      </trkpt>
      <trkpt lat="48.87999" lon="2.31551">
        <ele>42</ele>
        <time>2015-10-12T19:15:50Z</time>
      </trkpt>
      <trkpt lat="48.87981" lon="2.3155">
        <ele>42</ele>
        <time>2015-10-12T19:15:54Z</time>
      </trkpt>
      <trkpt lat="48.87963" lon="2.31552">
        <ele>42</ele>
        <time>2015-10-12T19:15:58Z</time>
      </trkpt>
      <trkpt lat="48.87944" lon="2.31554">
        <ele>41.599998474121</ele>
        <time>2015-10-12T19:16:02Z</time>
      </trkpt>
      <trkpt lat="48.87924" lon="2.31559">
        <ele>40.79999923706</ele>
        <time>2015-10-12T19:16:06Z</time>
      </trkpt>
      <trkpt lat="48.87905" lon="2.31561">
        <ele>39.599998474121</ele>
        <time>2015-10-12T19:16:10Z</time>
      </trkpt>
      <trkpt lat="48.87886" lon="2.31563">
        <ele>39.599998474121</ele>
        <time>2015-10-12T19:16:14Z</time>
      </trkpt>
      <trkpt lat="48.87865" lon="2.31565">
        <ele>39.599998474121</ele>
        <time>2015-10-12T19:16:19Z</time>
      </trkpt>
      <trkpt lat="48.87857" lon="2.31565">
        <ele>38.20000076294</ele>
        <time>2015-10-12T19:16:22Z</time>
      </trkpt>
      <trkpt lat="48.87847" lon="2.31562">
        <ele>37.20000076294</ele>
        <time>2015-10-12T19:16:25Z</time>
      </trkpt>
      <trkpt lat="48.87834" lon="2.31563">
        <ele>36.20000076294</ele>
        <time>2015-10-12T19:16:29Z</time>
      </trkpt>
      <trkpt lat="48.87815" lon="2.31569">
        <ele>34.20000076294</ele>
        <time>2015-10-12T19:16:34Z</time>
      </trkpt>
      <trkpt lat="48.87795" lon="2.31581">
        <ele>31.799999237061</ele>
        <time>2015-10-12T19:16:39Z</time>
      </trkpt>
      <trkpt lat="48.87777" lon="2.31584">
        <ele>30</ele>
        <time>2015-10-12T19:16:44Z</time>
      </trkpt>
      <trkpt lat="48.87756" lon="2.31578">
        <ele>32</ele>
        <time>2015-10-12T19:16:49Z</time>
      </trkpt>
      <trkpt lat="48.87734" lon="2.31576">
        <ele>30</ele>
        <time>2015-10-12T19:16:54Z</time>
      </trkpt>
      <trkpt lat="48.87715" lon="2.31577">
        <ele>28</ele>
        <time>2015-10-12T19:16:58Z</time>
      </trkpt>
      <trkpt lat="48.87696" lon="2.31579">
        <ele>26.39999961853</ele>
        <time>2015-10-12T19:17:02Z</time>
      </trkpt>
      <trkpt lat="48.87676" lon="2.31582">
        <ele>25.200000762939</ele>
        <time>2015-10-12T19:17:06Z</time>
      </trkpt>
      <trkpt lat="48.87662" lon="2.31581">
        <ele>25</ele>
        <time>2015-10-12T19:17:09Z</time>
      </trkpt>
      <trkpt lat="48.87652" lon="2.31581">
        <ele>24.200000762939</ele>
        <time>2015-10-12T19:17:11Z</time>
      </trkpt>
      <trkpt lat="48.87632" lon="2.3158">
        <ele>22.39999961853</ele>
        <time>2015-10-12T19:17:15Z</time>
      </trkpt>
      <trkpt lat="48.87613" lon="2.31581">
        <ele>20.799999237061</ele>
        <time>2015-10-12T19:17:19Z</time>
      </trkpt>
      <trkpt lat="48.87593" lon="2.31583">
        <ele>18.799999237061</ele>
        <time>2015-10-12T19:17:23Z</time>
      </trkpt>
      <trkpt lat="48.87574" lon="2.31585">
        <ele>17</ele>
        <time>2015-10-12T19:17:27Z</time>
      </trkpt>
      <trkpt lat="48.87569" lon="2.31586">
        <ele>16.799999237061</ele>
        <time>2015-10-12T19:17:28Z</time>
      </trkpt>
      <trkpt lat="48.87556" lon="2.31588">
        <ele>14.199999809265</ele>
        <time>2015-10-12T19:17:32Z</time>
      </trkpt>
      <trkpt lat="48.87552" lon="2.31589">
        <ele>13.39999961853</ele>
        <time>2015-10-12T19:17:34Z</time>
      </trkpt>
      <trkpt lat="48.87543" lon="2.31588">
        <ele>14.199999809265</ele>
        <time>2015-10-12T19:17:38Z</time>
      </trkpt>
      <trkpt lat="48.87541" lon="2.31587">
        <ele>14.199999809265</ele>
        <time>2015-10-12T19:17:39Z</time>
      </trkpt>
      <trkpt lat="48.87537" lon="2.31588">
        <ele>14.39999961853</ele>
        <time>2015-10-12T19:17:42Z</time>
      </trkpt>
      <trkpt lat="48.87528" lon="2.31584">
        <ele>19.39999961853</ele>
        <time>2015-10-12T19:17:46Z</time>
      </trkpt>
      <trkpt lat="48.87507" lon="2.31584">
        <ele>18.799999237061</ele>
        <time>2015-10-12T19:17:54Z</time>
      </trkpt>
      <trkpt lat="48.87485" lon="2.31588">
        <ele>15.800000190735</ele>
        <time>2015-10-12T19:18:00Z</time>
      </trkpt>
      <trkpt lat="48.87464" lon="2.31595">
        <ele>13.39999961853</ele>
        <time>2015-10-12T19:18:05Z</time>
      </trkpt>
      <trkpt lat="48.87445" lon="2.31595">
        <ele>11.199999809265</ele>
        <time>2015-10-12T19:18:09Z</time>
      </trkpt>
      <trkpt lat="48.87426" lon="2.316">
        <ele>10.39999961853</ele>
        <time>2015-10-12T19:18:13Z</time>
      </trkpt>
      <trkpt lat="48.87407" lon="2.316">
        <ele>10.60000038147</ele>
        <time>2015-10-12T19:18:17Z</time>
      </trkpt>
      <trkpt lat="48.87397" lon="2.31603">
        <ele>9.3999996185303</ele>
        <time>2015-10-12T19:18:24Z</time>
      </trkpt>
      <trkpt lat="48.87378" lon="2.31601">
        <ele>8.6000003814697</ele>
        <time>2015-10-12T19:18:34Z</time>
      </trkpt>
      <trkpt lat="48.87358" lon="2.31606">
        <ele>5.5999999046326</ele>
        <time>2015-10-12T19:18:40Z</time>
      </trkpt>
      <trkpt lat="48.87339" lon="2.31606">
        <ele>3</ele>
        <time>2015-10-12T19:18:45Z</time>
      </trkpt>
      <trkpt lat="48.87316" lon="2.31609">
        <ele>0.60000002384186</ele>
        <time>2015-10-12T19:18:50Z</time>
      </trkpt>
      <trkpt lat="48.87297" lon="2.31612">
        <ele>-0.40000000596046</ele>
        <time>2015-10-12T19:18:54Z</time>
      </trkpt>
      <trkpt lat="48.87294" lon="2.31613">
        <ele>-0.40000000596046</ele>
        <time>2015-10-12T19:18:55Z</time>
      </trkpt>
      <trkpt lat="48.87295" lon="2.3164">
        <ele>-0.80000001192093</ele>
        <time>2015-10-12T19:19:00Z</time>
      </trkpt>
      <trkpt lat="48.87299" lon="2.31668">
        <ele>-1.2000000476837</ele>
        <time>2015-10-12T19:19:04Z</time>
      </trkpt>
      <trkpt lat="48.87303" lon="2.31698">
        <ele>-1.6000000238419</ele>
        <time>2015-10-12T19:19:08Z</time>
      </trkpt>
      <trkpt lat="48.87305" lon="2.3173">
        <ele>-1.3999999761581</ele>
        <time>2015-10-12T19:19:12Z</time>
      </trkpt>
      <trkpt lat="48.87311" lon="2.31763">
        <ele>-1.7999999523163</ele>
        <time>2015-10-12T19:19:16Z</time>
      </trkpt>
      <trkpt lat="48.87319" lon="2.31793">
        <ele>-1.3999999761581</ele>
        <time>2015-10-12T19:19:20Z</time>
      </trkpt>
      <trkpt lat="48.87319" lon="2.318">
        <ele>-1.6000000238419</ele>
        <time>2015-10-12T19:19:21Z</time>
      </trkpt>
      <trkpt lat="48.87323" lon="2.31833">
        <ele>-1.2000000476837</ele>
        <time>2015-10-12T19:19:26Z</time>
      </trkpt>
      <trkpt lat="48.87326" lon="2.31858">
        <ele>-1.3999999761581</ele>
        <time>2015-10-12T19:19:30Z</time>
      </trkpt>
      <trkpt lat="48.87328" lon="2.31884">
        <ele>-1.3999999761581</ele>
        <time>2015-10-12T19:19:34Z</time>
      </trkpt>
      <trkpt lat="48.87331" lon="2.31918">
        <ele>-2.2000000476837</ele>
        <time>2015-10-12T19:19:39Z</time>
      </trkpt>
      <trkpt lat="48.87333" lon="2.31951">
        <ele>-3</ele>
        <time>2015-10-12T19:19:44Z</time>
      </trkpt>
      <trkpt lat="48.87336" lon="2.31982">
        <ele>-3.7999999523163</ele>
        <time>2015-10-12T19:19:49Z</time>
      </trkpt>
      <trkpt lat="48.87337" lon="2.31994">
        <ele>-4</ele>
        <time>2015-10-12T19:19:51Z</time>
      </trkpt>
      <trkpt lat="48.87342" lon="2.32024">
        <ele>-3.4000000953674</ele>
        <time>2015-10-12T19:19:57Z</time>
      </trkpt>
      <trkpt lat="48.87344" lon="2.32038">
        <ele>-3.5999999046326</ele>
        <time>2015-10-12T19:20:00Z</time>
      </trkpt>
      <trkpt lat="48.87347" lon="2.32047">
        <ele>-3.4000000953674</ele>
        <time>2015-10-12T19:20:03Z</time>
      </trkpt>
      <trkpt lat="48.87352" lon="2.32052">
        <ele>1.3999999761581</ele>
        <time>2015-10-12T19:20:11Z</time>
      </trkpt>
      <trkpt lat="48.87356" lon="2.32053">
        <ele>3.5999999046326</ele>
        <time>2015-10-12T19:20:17Z</time>
      </trkpt>
      <trkpt lat="48.87355" lon="2.32077">
        <ele>9.1999998092651</ele>
        <time>2015-10-12T19:20:38Z</time>
      </trkpt>
      <trkpt lat="48.8735" lon="2.32107">
        <ele>12.800000190735</ele>
        <time>2015-10-12T19:20:45Z</time>
      </trkpt>
      <trkpt lat="48.87352" lon="2.32136">
        <ele>14.800000190735</ele>
        <time>2015-10-12T19:20:50Z</time>
      </trkpt>
      <trkpt lat="48.87354" lon="2.32167">
        <ele>16</ele>
        <time>2015-10-12T19:20:55Z</time>
      </trkpt>
      <trkpt lat="48.87355" lon="2.32201">
        <ele>17.60000038147</ele>
        <time>2015-10-12T19:21:00Z</time>
      </trkpt>
      <trkpt lat="48.87357" lon="2.32229">
        <ele>18.60000038147</ele>
        <time>2015-10-12T19:21:04Z</time>
      </trkpt>
      <trkpt lat="48.8736" lon="2.32259">
        <ele>22.60000038147</ele>
        <time>2015-10-12T19:21:09Z</time>
      </trkpt>
      <trkpt lat="48.87354" lon="2.32289">
        <ele>25.60000038147</ele>
        <time>2015-10-12T19:21:13Z</time>
      </trkpt>
      <trkpt lat="48.87352" lon="2.32317">
        <ele>28</ele>
        <time>2015-10-12T19:21:17Z</time>
      </trkpt>
      <trkpt lat="48.87354" lon="2.32348">
        <ele>30</ele>
        <time>2015-10-12T19:21:21Z</time>
      </trkpt>
      <trkpt lat="48.87355" lon="2.32367">
        <ele>31.39999961853</ele>
        <time>2015-10-12T19:21:24Z</time>
      </trkpt>
      <trkpt lat="48.87358" lon="2.32397">
        <ele>33.20000076294</ele>
        <time>2015-10-12T19:21:28Z</time>
      </trkpt>
      <trkpt lat="48.87357" lon="2.32427">
        <ele>34.599998474121</ele>
        <time>2015-10-12T19:21:33Z</time>
      </trkpt>
      <trkpt lat="48.87358" lon="2.3246">
        <ele>35.79999923706</ele>
        <time>2015-10-12T19:21:38Z</time>
      </trkpt>
      <trkpt lat="48.87359" lon="2.32491">
        <ele>37</ele>
        <time>2015-10-12T19:21:43Z</time>
      </trkpt>
      <trkpt lat="48.87351" lon="2.32516">
        <ele>38</ele>
        <time>2015-10-12T19:21:47Z</time>
      </trkpt>
      <trkpt lat="48.87334" lon="2.32515">
        <ele>40.400001525879</ele>
        <time>2015-10-12T19:21:54Z</time>
      </trkpt>
      <trkpt lat="48.87316" lon="2.32511">
        <ele>42.20000076294</ele>
        <time>2015-10-12T19:21:59Z</time>
      </trkpt>
      <trkpt lat="48.87298" lon="2.32507">
        <ele>43.79999923706</ele>
        <time>2015-10-12T19:22:03Z</time>
      </trkpt>
      <trkpt lat="48.87278" lon="2.32503">
        <ele>45.79999923706</ele>
        <time>2015-10-12T19:22:08Z</time>
      </trkpt>
      <trkpt lat="48.87257" lon="2.32498">
        <ele>46.599998474121</ele>
        <time>2015-10-12T19:22:14Z</time>
      </trkpt>
      <trkpt lat="48.87246" lon="2.32508">
        <ele>48</ele>
        <time>2015-10-12T19:22:21Z</time>
      </trkpt>
      <trkpt lat="48.87152" lon="2.3259">
        <ele>37.20000076294</ele>
        <time>2015-10-12T19:23:15Z</time>
      </trkpt>
      <trkpt lat="48.87133" lon="2.32582">
        <ele>29.799999237061</ele>
        <time>2015-10-12T19:23:35Z</time>
      </trkpt>
      <trkpt lat="48.87117" lon="2.32564">
        <ele>29.39999961853</ele>
        <time>2015-10-12T19:23:43Z</time>
      </trkpt>
      <trkpt lat="48.87102" lon="2.32549">
        <ele>30.200000762939</ele>
        <time>2015-10-12T19:23:54Z</time>
      </trkpt>
      <trkpt lat="48.87092" lon="2.3254">
        <ele>30.200000762939</ele>
        <time>2015-10-12T19:24:03Z</time>
      </trkpt>
      <trkpt lat="48.87078" lon="2.32516">
        <ele>34</ele>
        <time>2015-10-12T19:24:12Z</time>
      </trkpt>
      <trkpt lat="48.87074" lon="2.32517">
        <ele>34.400001525879</ele>
        <time>2015-10-12T19:24:14Z</time>
      </trkpt>
      <trkpt lat="48.87055" lon="2.32524">
        <ele>40</ele>
        <time>2015-10-12T19:24:24Z</time>
      </trkpt>
      <trkpt lat="48.87049" lon="2.32521">
        <ele>41</ele>
        <time>2015-10-12T19:24:27Z</time>
      </trkpt>
      <trkpt lat="48.87039" lon="2.32513">
        <ele>41</ele>
        <time>2015-10-12T19:24:31Z</time>
      </trkpt>
      <trkpt lat="48.8702" lon="2.32502">
        <ele>39.20000076294</ele>
        <time>2015-10-12T19:24:37Z</time>
      </trkpt>
      <trkpt lat="48.86999" lon="2.32493">
        <ele>36.20000076294</ele>
        <time>2015-10-12T19:24:43Z</time>
      </trkpt>
      <trkpt lat="48.86979" lon="2.32485">
        <ele>35.79999923706</ele>
        <time>2015-10-12T19:24:48Z</time>
      </trkpt>
      <trkpt lat="48.86959" lon="2.3248">
        <ele>33.20000076294</ele>
        <time>2015-10-12T19:24:53Z</time>
      </trkpt>
      <trkpt lat="48.86944" lon="2.32473">
        <ele>30.799999237061</ele>
        <time>2015-10-12T19:24:59Z</time>
      </trkpt>
      <trkpt lat="48.86943" lon="2.32477">
        <ele>29.60000038147</ele>
        <time>2015-10-12T19:25:03Z</time>
      </trkpt>
      <trkpt lat="48.86943" lon="2.32503">
        <ele>26</ele>
        <time>2015-10-12T19:25:16Z</time>
      </trkpt>
      <trkpt lat="48.86936" lon="2.32516">
        <ele>25.799999237061</ele>
        <time>2015-10-12T19:25:21Z</time>
      </trkpt>
      <trkpt lat="48.86918" lon="2.32528">
        <ele>24.799999237061</ele>
        <time>2015-10-12T19:25:27Z</time>
      </trkpt>
      <trkpt lat="48.86906" lon="2.32532">
        <ele>24.200000762939</ele>
        <time>2015-10-12T19:25:30Z</time>
      </trkpt>
      <trkpt lat="48.86886" lon="2.32542">
        <ele>23.39999961853</ele>
        <time>2015-10-12T19:25:37Z</time>
      </trkpt>
      <trkpt lat="48.86869" lon="2.32557">
        <ele>23.39999961853</ele>
        <time>2015-10-12T19:25:42Z</time>
      </trkpt>
      <trkpt lat="48.86849" lon="2.3257">
        <ele>23</ele>
        <time>2015-10-12T19:25:47Z</time>
      </trkpt>
      <trkpt lat="48.86832" lon="2.32578">
        <ele>22.39999961853</ele>
        <time>2015-10-12T19:25:51Z</time>
      </trkpt>
      <trkpt lat="48.86812" lon="2.32585">
        <ele>21.60000038147</ele>
        <time>2015-10-12T19:25:56Z</time>
      </trkpt>
      <trkpt lat="48.86794" lon="2.32589">
        <ele>20.799999237061</ele>
        <time>2015-10-12T19:26:00Z</time>
      </trkpt>
      <trkpt lat="48.86774" lon="2.32593">
        <ele>20</ele>
        <time>2015-10-12T19:26:04Z</time>
      </trkpt>
      <trkpt lat="48.86758" lon="2.32608">
        <ele>21</ele>
        <time>2015-10-12T19:26:08Z</time>
      </trkpt>
      <trkpt lat="48.86751" lon="2.32609">
        <ele>21.60000038147</ele>
        <time>2015-10-12T19:26:10Z</time>
      </trkpt>
      <trkpt lat="48.86734" lon="2.32594">
        <ele>22.799999237061</ele>
        <time>2015-10-12T19:26:15Z</time>
      </trkpt>
      <trkpt lat="48.86715" lon="2.32583">
        <ele>22.799999237061</ele>
        <time>2015-10-12T19:26:19Z</time>
      </trkpt>
      <trkpt lat="48.86696" lon="2.32574">
        <ele>22.39999961853</ele>
        <time>2015-10-12T19:26:23Z</time>
      </trkpt>
      <trkpt lat="48.86678" lon="2.3256">
        <ele>21.799999237061</ele>
        <time>2015-10-12T19:26:28Z</time>
      </trkpt>
      <trkpt lat="48.86682" lon="2.32538">
        <ele>21.60000038147</ele>
        <time>2015-10-12T19:26:32Z</time>
      </trkpt>
      <trkpt lat="48.86691" lon="2.32511">
        <ele>21.200000762939</ele>
        <time>2015-10-12T19:26:37Z</time>
      </trkpt>
      <trkpt lat="48.86699" lon="2.32484">
        <ele>20.799999237061</ele>
        <time>2015-10-12T19:26:42Z</time>
      </trkpt>
      <trkpt lat="48.867" lon="2.32471">
        <ele>20.39999961853</ele>
        <time>2015-10-12T19:26:44Z</time>
      </trkpt>
      <trkpt lat="48.86688" lon="2.32446">
        <ele>19.200000762939</ele>
        <time>2015-10-12T19:26:49Z</time>
      </trkpt>
      <trkpt lat="48.8667" lon="2.32437">
        <ele>18.200000762939</ele>
        <time>2015-10-12T19:26:54Z</time>
      </trkpt>
      <trkpt lat="48.86652" lon="2.32431">
        <ele>17.200000762939</ele>
        <time>2015-10-12T19:26:59Z</time>
      </trkpt>
      <trkpt lat="48.86644" lon="2.32421">
        <ele>16.60000038147</ele>
        <time>2015-10-12T19:27:02Z</time>
      </trkpt>
      <trkpt lat="48.86639" lon="2.3239">
        <ele>17.39999961853</ele>
        <time>2015-10-12T19:27:08Z</time>
      </trkpt>
      <trkpt lat="48.86637" lon="2.32358">
        <ele>19.39999961853</ele>
        <time>2015-10-12T19:27:14Z</time>
      </trkpt>
      <trkpt lat="48.86626" lon="2.32332">
        <ele>17.799999237061</ele>
        <time>2015-10-12T19:27:20Z</time>
      </trkpt>
      <trkpt lat="48.86608" lon="2.32313">
        <ele>16.60000038147</ele>
        <time>2015-10-12T19:27:26Z</time>
      </trkpt>
      <trkpt lat="48.86591" lon="2.323">
        <ele>18.60000038147</ele>
        <time>2015-10-12T19:27:31Z</time>
      </trkpt>
      <trkpt lat="48.86575" lon="2.32285">
        <ele>22</ele>
        <time>2015-10-12T19:27:36Z</time>
      </trkpt>
      <trkpt lat="48.86557" lon="2.32271">
        <ele>22.39999961853</ele>
        <time>2015-10-12T19:27:41Z</time>
      </trkpt>
      <trkpt lat="48.86539" lon="2.32257">
        <ele>23.200000762939</ele>
        <time>2015-10-12T19:27:46Z</time>
      </trkpt>
      <trkpt lat="48.8652" lon="2.32245">
        <ele>24.200000762939</ele>
        <time>2015-10-12T19:27:51Z</time>
      </trkpt>
      <trkpt lat="48.86503" lon="2.32234">
        <ele>24.200000762939</ele>
        <time>2015-10-12T19:27:56Z</time>
      </trkpt>
      <trkpt lat="48.86486" lon="2.32223">
        <ele>24.200000762939</ele>
        <time>2015-10-12T19:28:02Z</time>
      </trkpt>
      <trkpt lat="48.86469" lon="2.32211">
        <ele>24.39999961853</ele>
        <time>2015-10-12T19:28:07Z</time>
      </trkpt>
      <trkpt lat="48.86451" lon="2.32197">
        <ele>24.60000038147</ele>
        <time>2015-10-12T19:28:12Z</time>
      </trkpt>
      <trkpt lat="48.86433" lon="2.32181">
        <ele>25.200000762939</ele>
        <time>2015-10-12T19:28:17Z</time>
      </trkpt>
      <trkpt lat="48.86416" lon="2.32167">
        <ele>25</ele>
        <time>2015-10-12T19:28:22Z</time>
      </trkpt>
      <trkpt lat="48.86398" lon="2.32151">
        <ele>25.60000038147</ele>
        <time>2015-10-12T19:28:28Z</time>
      </trkpt>
      <trkpt lat="48.86392" lon="2.32147">
        <ele>27.39999961853</ele>
        <time>2015-10-12T19:28:31Z</time>
      </trkpt>
      <trkpt lat="48.86391" lon="2.3214">
        <ele>28.799999237061</ele>
        <time>2015-10-12T19:28:34Z</time>
      </trkpt>
      <trkpt lat="48.86398" lon="2.32125">
        <ele>28</ele>
        <time>2015-10-12T19:29:32Z</time>
      </trkpt>
      <trkpt lat="48.86405" lon="2.32096">
        <ele>29.799999237061</ele>
        <time>2015-10-12T19:29:40Z</time>
      </trkpt>
      <trkpt lat="48.86414" lon="2.32071">
        <ele>31.39999961853</ele>
        <time>2015-10-12T19:29:46Z</time>
      </trkpt>
      <trkpt lat="48.86419" lon="2.3205">
        <ele>32.599998474121</ele>
        <time>2015-10-12T19:29:51Z</time>
      </trkpt>
      <trkpt lat="48.86404" lon="2.32034">
        <ele>31.799999237061</ele>
        <time>2015-10-12T19:30:10Z</time>
      </trkpt>
      <trkpt lat="48.86389" lon="2.32015">
        <ele>31.39999961853</ele>
        <time>2015-10-12T19:30:20Z</time>
      </trkpt>
      <trkpt lat="48.8637" lon="2.32003">
        <ele>31.39999961853</ele>
        <time>2015-10-12T19:30:27Z</time>
      </trkpt>
      <trkpt lat="48.86353" lon="2.31991">
        <ele>31.39999961853</ele>
        <time>2015-10-12T19:30:33Z</time>
      </trkpt>
      <trkpt lat="48.86337" lon="2.31979">
        <ele>32.599998474121</ele>
        <time>2015-10-12T19:30:38Z</time>
      </trkpt>
      <trkpt lat="48.86319" lon="2.31967">
        <ele>31.799999237061</ele>
        <time>2015-10-12T19:30:43Z</time>
      </trkpt>
      <trkpt lat="48.86303" lon="2.31953">
        <ele>31.39999961853</ele>
        <time>2015-10-12T19:30:48Z</time>
      </trkpt>
      <trkpt lat="48.86285" lon="2.3194">
        <ele>30</ele>
        <time>2015-10-12T19:30:54Z</time>
      </trkpt>
      <trkpt lat="48.86268" lon="2.31929">
        <ele>28.799999237061</ele>
        <time>2015-10-12T19:31:00Z</time>
      </trkpt>
      <trkpt lat="48.8625" lon="2.31942">
        <ele>27.200000762939</ele>
        <time>2015-10-12T19:31:07Z</time>
      </trkpt>
      <trkpt lat="48.86249" lon="2.31944">
        <ele>27</ele>
        <time>2015-10-12T19:31:08Z</time>
      </trkpt>
      <trkpt lat="48.86247" lon="2.31945">
        <ele>26.799999237061</ele>
        <time>2015-10-12T19:31:09Z</time>
      </trkpt>
      <trkpt lat="48.86232" lon="2.31955">
        <ele>25.799999237061</ele>
        <time>2015-10-12T19:31:35Z</time>
      </trkpt>
      <trkpt lat="48.86214" lon="2.31951">
        <ele>25</ele>
        <time>2015-10-12T19:31:41Z</time>
      </trkpt>
      <trkpt lat="48.86195" lon="2.31944">
        <ele>24.200000762939</ele>
        <time>2015-10-12T19:31:46Z</time>
      </trkpt>
      <trkpt lat="48.86173" lon="2.31934">
        <ele>23.60000038147</ele>
        <time>2015-10-12T19:31:51Z</time>
      </trkpt>
      <trkpt lat="48.86154" lon="2.31927">
        <ele>22</ele>
        <time>2015-10-12T19:31:55Z</time>
      </trkpt>
      <trkpt lat="48.86136" lon="2.3192">
        <ele>19.799999237061</ele>
        <time>2015-10-12T19:31:59Z</time>
      </trkpt>
      <trkpt lat="48.86118" lon="2.31914">
        <ele>18</ele>
        <time>2015-10-12T19:32:03Z</time>
      </trkpt>
      <trkpt lat="48.86098" lon="2.31909">
        <ele>16.39999961853</ele>
        <time>2015-10-12T19:32:08Z</time>
      </trkpt>
      <trkpt lat="48.86083" lon="2.31904">
        <ele>14.800000190735</ele>
        <time>2015-10-12T19:32:12Z</time>
      </trkpt>
      <trkpt lat="48.86072" lon="2.319">
        <ele>13</ele>
        <time>2015-10-12T19:32:16Z</time>
      </trkpt>
      <trkpt lat="48.86059" lon="2.31888">
        <ele>11.39999961853</ele>
        <time>2015-10-12T19:32:23Z</time>
      </trkpt>
      <trkpt lat="48.86042" lon="2.31875">
        <ele>9.1999998092651</ele>
        <time>2015-10-12T19:32:31Z</time>
      </trkpt>
      <trkpt lat="48.86032" lon="2.31864">
        <ele>8.8000001907349</ele>
        <time>2015-10-12T19:32:35Z</time>
      </trkpt>
      <trkpt lat="48.86027" lon="2.3185">
        <ele>9</ele>
        <time>2015-10-12T19:32:39Z</time>
      </trkpt>
      <trkpt lat="48.86028" lon="2.31844">
        <ele>8.8000001907349</ele>
        <time>2015-10-12T19:32:41Z</time>
      </trkpt>
      <trkpt lat="48.8602" lon="2.3183">
        <ele>9.6000003814697</ele>
        <time>2015-10-12T19:32:48Z</time>
      </trkpt>
      <trkpt lat="48.86" lon="2.31827">
        <ele>11.800000190735</ele>
        <time>2015-10-12T19:32:54Z</time>
      </trkpt>
      <trkpt lat="48.85981" lon="2.31826">
        <ele>12</ele>
        <time>2015-10-12T19:33:02Z</time>
      </trkpt>
      <trkpt lat="48.85962" lon="2.31819">
        <ele>11.800000190735</ele>
        <time>2015-10-12T19:33:09Z</time>
      </trkpt>
      <trkpt lat="48.85941" lon="2.31815">
        <ele>10.800000190735</ele>
        <time>2015-10-12T19:33:15Z</time>
      </trkpt>
      <trkpt lat="48.85922" lon="2.31812">
        <ele>10.199999809265</ele>
        <time>2015-10-12T19:33:20Z</time>
      </trkpt>
      <trkpt lat="48.85901" lon="2.31804">
        <ele>9.3999996185303</ele>
        <time>2015-10-12T19:33:25Z</time>
      </trkpt>
      <trkpt lat="48.8588" lon="2.31799">
        <ele>8.8000001907349</ele>
        <time>2015-10-12T19:33:30Z</time>
      </trkpt>
      <trkpt lat="48.8586" lon="2.31798">
        <ele>8.6000003814697</ele>
        <time>2015-10-12T19:33:34Z</time>
      </trkpt>
      <trkpt lat="48.85842" lon="2.31793">
        <ele>8.1999998092651</ele>
        <time>2015-10-12T19:33:38Z</time>
      </trkpt>
      <trkpt lat="48.85822" lon="2.31791">
        <ele>7.8000001907349</ele>
        <time>2015-10-12T19:33:43Z</time>
      </trkpt>
      <trkpt lat="48.85802" lon="2.31785">
        <ele>6.8000001907349</ele>
        <time>2015-10-12T19:33:48Z</time>
      </trkpt>
      <trkpt lat="48.85784" lon="2.3178">
        <ele>6</ele>
        <time>2015-10-12T19:33:53Z</time>
      </trkpt>
      <trkpt lat="48.85764" lon="2.31777">
        <ele>5.1999998092651</ele>
        <time>2015-10-12T19:33:58Z</time>
      </trkpt>
      <trkpt lat="48.85744" lon="2.31775">
        <ele>4.8000001907349</ele>
        <time>2015-10-12T19:34:02Z</time>
      </trkpt>
      <trkpt lat="48.85724" lon="2.31771">
        <ele>4.1999998092651</ele>
        <time>2015-10-12T19:34:07Z</time>
      </trkpt>
      <trkpt lat="48.85703" lon="2.31765">
        <ele>4</ele>
        <time>2015-10-12T19:34:12Z</time>
      </trkpt>
      <trkpt lat="48.85683" lon="2.31756">
        <ele>2.7999999523163</ele>
        <time>2015-10-12T19:34:17Z</time>
      </trkpt>
      <trkpt lat="48.85664" lon="2.31747">
        <ele>1.7999999523163</ele>
        <time>2015-10-12T19:34:22Z</time>
      </trkpt>
      <trkpt lat="48.85643" lon="2.31738">
        <ele>1.2000000476837</ele>
        <time>2015-10-12T19:34:27Z</time>
      </trkpt>
      <trkpt lat="48.85622" lon="2.31732">
        <ele>0.40000000596046</ele>
        <time>2015-10-12T19:34:32Z</time>
      </trkpt>
      <trkpt lat="48.856" lon="2.31728">
        <ele>0.40000000596046</ele>
        <time>2015-10-12T19:34:38Z</time>
      </trkpt>
      <trkpt lat="48.85588" lon="2.31724">
        <ele>0.40000000596046</ele>
        <time>2015-10-12T19:34:42Z</time>
      </trkpt>
      <trkpt lat="48.85585" lon="2.31709">
        <ele>2</ele>
        <time>2015-10-12T19:34:46Z</time>
      </trkpt>
      <trkpt lat="48.85584" lon="2.31707">
        <ele>3</ele>
        <time>2015-10-12T19:34:48Z</time>
      </trkpt>
      <trkpt lat="48.85574" lon="2.31729">
        <ele>8.6000003814697</ele>
        <time>2015-10-12T19:35:01Z</time>
      </trkpt>
      <trkpt lat="48.85566" lon="2.3176">
        <ele>9.8000001907349</ele>
        <time>2015-10-12T19:35:06Z</time>
      </trkpt>
      <trkpt lat="48.85559" lon="2.31785">
        <ele>11</ele>
        <time>2015-10-12T19:35:10Z</time>
      </trkpt>
      <trkpt lat="48.85554" lon="2.31813">
        <ele>12.39999961853</ele>
        <time>2015-10-12T19:35:14Z</time>
      </trkpt>
      <trkpt lat="48.85542" lon="2.31841">
        <ele>14</ele>
        <time>2015-10-12T19:35:18Z</time>
      </trkpt>
      <trkpt lat="48.85533" lon="2.3187">
        <ele>15.199999809265</ele>
        <time>2015-10-12T19:35:22Z</time>
      </trkpt>
      <trkpt lat="48.85531" lon="2.3188">
        <ele>15.39999961853</ele>
        <time>2015-10-12T19:35:23Z</time>
      </trkpt>
      <trkpt lat="48.85523" lon="2.31909">
        <ele>17.799999237061</ele>
        <time>2015-10-12T19:35:27Z</time>
      </trkpt>
      <trkpt lat="48.85514" lon="2.31938">
        <ele>20.799999237061</ele>
        <time>2015-10-12T19:35:31Z</time>
      </trkpt>
      <trkpt lat="48.85503" lon="2.31966">
        <ele>25.200000762939</ele>
        <time>2015-10-12T19:35:36Z</time>
      </trkpt>
      <trkpt lat="48.85499" lon="2.31985">
        <ele>32.599998474121</ele>
        <time>2015-10-12T19:35:40Z</time>
      </trkpt>
      <trkpt lat="48.85511" lon="2.32003">
        <ele>39</ele>
        <time>2015-10-12T19:35:46Z</time>
      </trkpt>
      <trkpt lat="48.85525" lon="2.32008">
        <ele>41.599998474121</ele>
        <time>2015-10-12T19:35:50Z</time>
      </trkpt>
      <trkpt lat="48.85528" lon="2.32009">
        <ele>42.20000076294</ele>
        <time>2015-10-12T19:35:51Z</time>
      </trkpt>
      <trkpt lat="48.85544" lon="2.32024">
        <ele>44</ele>
        <time>2015-10-12T19:35:56Z</time>
      </trkpt>
      <trkpt lat="48.85564" lon="2.3204">
        <ele>46</ele>
        <time>2015-10-12T19:36:01Z</time>
      </trkpt>
      <trkpt lat="48.85582" lon="2.32061">
        <ele>47.599998474121</ele>
        <time>2015-10-12T19:36:05Z</time>
      </trkpt>
      <trkpt lat="48.85599" lon="2.32076">
        <ele>49</ele>
        <time>2015-10-12T19:36:09Z</time>
      </trkpt>
      <trkpt lat="48.85617" lon="2.32094">
        <ele>50.400001525879</ele>
        <time>2015-10-12T19:36:14Z</time>
      </trkpt>
      <trkpt lat="48.8564" lon="2.32099">
        <ele>51.20000076294</ele>
        <time>2015-10-12T19:36:19Z</time>
      </trkpt>
      <trkpt lat="48.85644" lon="2.32102">
        <ele>50.400001525879</ele>
        <time>2015-10-12T19:36:20Z</time>
      </trkpt>
      <trkpt lat="48.85641" lon="2.32126">
        <ele>49.400001525879</ele>
        <time>2015-10-12T19:36:24Z</time>
      </trkpt>
      <trkpt lat="48.85632" lon="2.32157">
        <ele>52.599998474121</ele>
        <time>2015-10-12T19:36:29Z</time>
      </trkpt>
      <trkpt lat="48.85624" lon="2.32183">
        <ele>56.20000076294</ele>
        <time>2015-10-12T19:36:33Z</time>
      </trkpt>
      <trkpt lat="48.85616" lon="2.32209">
        <ele>58.79999923706</ele>
        <time>2015-10-12T19:36:37Z</time>
      </trkpt>
      <trkpt lat="48.85609" lon="2.32238">
        <ele>59.20000076294</ele>
        <time>2015-10-12T19:36:41Z</time>
      </trkpt>
      <trkpt lat="48.85602" lon="2.32266">
        <ele>60</ele>
        <time>2015-10-12T19:36:45Z</time>
      </trkpt>
      <trkpt lat="48.85592" lon="2.3229">
        <ele>62</ele>
        <time>2015-10-12T19:36:49Z</time>
      </trkpt>
      <trkpt lat="48.85582" lon="2.32314">
        <ele>64.400001525879</ele>
        <time>2015-10-12T19:36:53Z</time>
      </trkpt>
      <trkpt lat="48.85571" lon="2.3234">
        <ele>65.800003051758</ele>
        <time>2015-10-12T19:36:57Z</time>
      </trkpt>
      <trkpt lat="48.85561" lon="2.32358">
        <ele>68.599998474121</ele>
        <time>2015-10-12T19:37:01Z</time>
      </trkpt>
      <trkpt lat="48.85547" lon="2.3238">
        <ele>72.599998474121</ele>
        <time>2015-10-12T19:37:06Z</time>
      </trkpt>
      <trkpt lat="48.85535" lon="2.32401">
        <ele>76</ele>
        <time>2015-10-12T19:37:10Z</time>
      </trkpt>
      <trkpt lat="48.85521" lon="2.32424">
        <ele>79.400001525879</ele>
        <time>2015-10-12T19:37:15Z</time>
      </trkpt>
      <trkpt lat="48.85519" lon="2.32429">
        <ele>80</ele>
        <time>2015-10-12T19:37:16Z</time>
      </trkpt>
      <trkpt lat="48.85504" lon="2.32438">
        <ele>63</ele>
        <time>2015-10-12T19:37:32Z</time>
      </trkpt>
      <trkpt lat="48.85486" lon="2.32435">
        <ele>58.599998474121</ele>
        <time>2015-10-12T19:37:38Z</time>
      </trkpt>
      <trkpt lat="48.85465" lon="2.3243">
        <ele>55.20000076294</ele>
        <time>2015-10-12T19:37:43Z</time>
      </trkpt>
      <trkpt lat="48.85446" lon="2.3242">
        <ele>53</ele>
        <time>2015-10-12T19:37:48Z</time>
      </trkpt>
      <trkpt lat="48.85428" lon="2.32413">
        <ele>52.20000076294</ele>
        <time>2015-10-12T19:37:53Z</time>
      </trkpt>
      <trkpt lat="48.85417" lon="2.32401">
        <ele>52.400001525879</ele>
        <time>2015-10-12T19:38:01Z</time>
      </trkpt>
      <trkpt lat="48.85401" lon="2.32393">
        <ele>53.599998474121</ele>
        <time>2015-10-12T19:38:16Z</time>
      </trkpt>
      <trkpt lat="48.8538" lon="2.3239">
        <ele>52.599998474121</ele>
        <time>2015-10-12T19:38:23Z</time>
      </trkpt>
      <trkpt lat="48.85359" lon="2.32386">
        <ele>51.79999923706</ele>
        <time>2015-10-12T19:38:29Z</time>
      </trkpt>
      <trkpt lat="48.85339" lon="2.3238">
        <ele>50.79999923706</ele>
        <time>2015-10-12T19:38:33Z</time>
      </trkpt>
      <trkpt lat="48.85317" lon="2.32377">
        <ele>50.20000076294</ele>
        <time>2015-10-12T19:38:38Z</time>
      </trkpt>
      <trkpt lat="48.85299" lon="2.32373">
        <ele>49.79999923706</ele>
        <time>2015-10-12T19:38:42Z</time>
      </trkpt>
      <trkpt lat="48.85277" lon="2.32367">
        <ele>49.400001525879</ele>
        <time>2015-10-12T19:38:45Z</time>
      </trkpt>
      <trkpt lat="48.85258" lon="2.32362">
        <ele>49.599998474121</ele>
        <time>2015-10-12T19:38:48Z</time>
      </trkpt>
      <trkpt lat="48.85235" lon="2.32365">
        <ele>49.79999923706</ele>
        <time>2015-10-12T19:38:52Z</time>
      </trkpt>
      <trkpt lat="48.85215" lon="2.32366">
        <ele>49</ele>
        <time>2015-10-12T19:38:56Z</time>
      </trkpt>
      <trkpt lat="48.85195" lon="2.32367">
        <ele>48</ele>
        <time>2015-10-12T19:39:00Z</time>
      </trkpt>
      <trkpt lat="48.85183" lon="2.32368">
        <ele>47.400001525879</ele>
        <time>2015-10-12T19:39:03Z</time>
      </trkpt>
      <trkpt lat="48.85161" lon="2.32377">
        <ele>46.20000076294</ele>
        <time>2015-10-12T19:39:08Z</time>
      </trkpt>
      <trkpt lat="48.85144" lon="2.32386">
        <ele>46.20000076294</ele>
        <time>2015-10-12T19:39:12Z</time>
      </trkpt>
      <trkpt lat="48.85123" lon="2.32397">
        <ele>46.20000076294</ele>
        <time>2015-10-12T19:39:17Z</time>
      </trkpt>
      <trkpt lat="48.85104" lon="2.32402">
        <ele>46.599998474121</ele>
        <time>2015-10-12T19:39:21Z</time>
      </trkpt>
      <trkpt lat="48.85084" lon="2.3241">
        <ele>47</ele>
        <time>2015-10-12T19:39:26Z</time>
      </trkpt>
      <trkpt lat="48.85063" lon="2.32414">
        <ele>47.79999923706</ele>
        <time>2015-10-12T19:39:32Z</time>
      </trkpt>
      <trkpt lat="48.85049" lon="2.32417">
        <ele>47.20000076294</ele>
        <time>2015-10-12T19:39:36Z</time>
      </trkpt>
      <trkpt lat="48.85031" lon="2.32415">
        <ele>47.79999923706</ele>
        <time>2015-10-12T19:39:41Z</time>
      </trkpt>
      <trkpt lat="48.85016" lon="2.32391">
        <ele>45.79999923706</ele>
        <time>2015-10-12T19:39:45Z</time>
      </trkpt>
      <trkpt lat="48.85013" lon="2.32385">
        <ele>45.599998474121</ele>
        <time>2015-10-12T19:39:46Z</time>
      </trkpt>
      <trkpt lat="48.85002" lon="2.32364">
        <ele>45.400001525879</ele>
        <time>2015-10-12T19:39:50Z</time>
      </trkpt>
      <trkpt lat="48.84988" lon="2.3234">
        <ele>46</ele>
        <time>2015-10-12T19:39:55Z</time>
      </trkpt>
      <trkpt lat="48.84975" lon="2.32314">
        <ele>45</ele>
        <time>2015-10-12T19:40:00Z</time>
      </trkpt>
      <trkpt lat="48.84963" lon="2.32291">
        <ele>44</ele>
        <time>2015-10-12T19:40:04Z</time>
      </trkpt>
      <trkpt lat="48.84952" lon="2.32267">
        <ele>42.79999923706</ele>
        <time>2015-10-12T19:40:08Z</time>
      </trkpt>
      <trkpt lat="48.84941" lon="2.32242">
        <ele>41.400001525879</ele>
        <time>2015-10-12T19:40:12Z</time>
      </trkpt>
      <trkpt lat="48.84936" lon="2.32229">
        <ele>40.79999923706</ele>
        <time>2015-10-12T19:40:14Z</time>
      </trkpt>
      <trkpt lat="48.84925" lon="2.32204">
        <ele>40.20000076294</ele>
        <time>2015-10-12T19:40:18Z</time>
      </trkpt>
      <trkpt lat="48.84913" lon="2.32181">
        <ele>38.400001525879</ele>
        <time>2015-10-12T19:40:22Z</time>
      </trkpt>
      <trkpt lat="48.84898" lon="2.32164">
        <ele>34.400001525879</ele>
        <time>2015-10-12T19:40:26Z</time>
      </trkpt>
      <trkpt lat="48.84884" lon="2.32145">
        <ele>32.599998474121</ele>
        <time>2015-10-12T19:40:30Z</time>
      </trkpt>
      <trkpt lat="48.8487" lon="2.32125">
        <ele>31.200000762939</ele>
        <time>2015-10-12T19:40:34Z</time>
      </trkpt>
      <trkpt lat="48.84855" lon="2.32108">
        <ele>29.60000038147</ele>
        <time>2015-10-12T19:40:38Z</time>
      </trkpt>
      <trkpt lat="48.84842" lon="2.32088">
        <ele>28.799999237061</ele>
        <time>2015-10-12T19:40:42Z</time>
      </trkpt>
      <trkpt lat="48.84827" lon="2.32067">
        <ele>28</ele>
        <time>2015-10-12T19:40:46Z</time>
      </trkpt>
      <trkpt lat="48.84813" lon="2.32046">
        <ele>26.39999961853</ele>
        <time>2015-10-12T19:40:50Z</time>
      </trkpt>
      <trkpt lat="48.84803" lon="2.32032">
        <ele>25.60000038147</ele>
        <time>2015-10-12T19:40:53Z</time>
      </trkpt>
      <trkpt lat="48.84793" lon="2.32006">
        <ele>25.200000762939</ele>
        <time>2015-10-12T19:40:57Z</time>
      </trkpt>
      <trkpt lat="48.84783" lon="2.31983">
        <ele>26</ele>
        <time>2015-10-12T19:41:01Z</time>
      </trkpt>
      <trkpt lat="48.84775" lon="2.31955">
        <ele>25.799999237061</ele>
        <time>2015-10-12T19:41:05Z</time>
      </trkpt>
      <trkpt lat="48.84766" lon="2.31929">
        <ele>25.799999237061</ele>
        <time>2015-10-12T19:41:09Z</time>
      </trkpt>
      <trkpt lat="48.84756" lon="2.31899">
        <ele>27</ele>
        <time>2015-10-12T19:41:14Z</time>
      </trkpt>
      <trkpt lat="48.84744" lon="2.31877">
        <ele>26</ele>
        <time>2015-10-12T19:41:17Z</time>
      </trkpt>
      <trkpt lat="48.84732" lon="2.31857">
        <ele>25.39999961853</ele>
        <time>2015-10-12T19:41:20Z</time>
      </trkpt>
      <trkpt lat="48.84718" lon="2.31831">
        <ele>25</ele>
        <time>2015-10-12T19:41:24Z</time>
      </trkpt>
      <trkpt lat="48.84707" lon="2.31803">
        <ele>25.799999237061</ele>
        <time>2015-10-12T19:41:28Z</time>
      </trkpt>
      <trkpt lat="48.84697" lon="2.31776">
        <ele>26.799999237061</ele>
        <time>2015-10-12T19:41:32Z</time>
      </trkpt>
      <trkpt lat="48.84694" lon="2.3176">
        <ele>28</ele>
        <time>2015-10-12T19:41:34Z</time>
      </trkpt>
      <trkpt lat="48.84684" lon="2.31733">
        <ele>29.799999237061</ele>
        <time>2015-10-12T19:41:38Z</time>
      </trkpt>
      <trkpt lat="48.84681" lon="2.31721">
        <ele>30.39999961853</ele>
        <time>2015-10-12T19:41:40Z</time>
      </trkpt>
      <trkpt lat="48.8468" lon="2.31704">
        <ele>30.60000038147</ele>
        <time>2015-10-12T19:41:42Z</time>
      </trkpt>
      <trkpt lat="48.84676" lon="2.31691">
        <ele>30.799999237061</ele>
        <time>2015-10-12T19:41:45Z</time>
      </trkpt>
      <trkpt lat="48.84665" lon="2.31666">
        <ele>32.599998474121</ele>
        <time>2015-10-12T19:41:51Z</time>
      </trkpt>
      <trkpt lat="48.84664" lon="2.31655">
        <ele>33.20000076294</ele>
        <time>2015-10-12T19:41:53Z</time>
      </trkpt>
      <trkpt lat="48.84658" lon="2.31641">
        <ele>33.599998474121</ele>
        <time>2015-10-12T19:41:56Z</time>
      </trkpt>
      <trkpt lat="48.84652" lon="2.31621">
        <ele>34.599998474121</ele>
        <time>2015-10-12T19:42:00Z</time>
      </trkpt>
      <trkpt lat="48.84646" lon="2.3159">
        <ele>38.400001525879</ele>
        <time>2015-10-12T19:42:05Z</time>
      </trkpt>
      <trkpt lat="48.84642" lon="2.31577">
        <ele>40</ele>
        <time>2015-10-12T19:42:07Z</time>
      </trkpt>
      <trkpt lat="48.8463" lon="2.31551">
        <ele>39.79999923706</ele>
        <time>2015-10-12T19:42:12Z</time>
      </trkpt>
      <trkpt lat="48.84626" lon="2.31546">
        <ele>38.79999923706</ele>
        <time>2015-10-12T19:42:13Z</time>
      </trkpt>
      <trkpt lat="48.84612" lon="2.31527">
        <ele>34</ele>
        <time>2015-10-12T19:42:17Z</time>
      </trkpt>
      <trkpt lat="48.84601" lon="2.315">
        <ele>31.60000038147</ele>
        <time>2015-10-12T19:42:21Z</time>
      </trkpt>
      <trkpt lat="48.84593" lon="2.31469">
        <ele>31</ele>
        <time>2015-10-12T19:42:25Z</time>
      </trkpt>
      <trkpt lat="48.84584" lon="2.31437">
        <ele>30.39999961853</ele>
        <time>2015-10-12T19:42:29Z</time>
      </trkpt>
      <trkpt lat="48.84585" lon="2.31402">
        <ele>32.20000076294</ele>
        <time>2015-10-12T19:42:32Z</time>
      </trkpt>
      <trkpt lat="48.84582" lon="2.31384">
        <ele>32.79999923706</ele>
        <time>2015-10-12T19:42:34Z</time>
      </trkpt>
      <trkpt lat="48.84575" lon="2.3135">
        <ele>32.79999923706</ele>
        <time>2015-10-12T19:42:38Z</time>
      </trkpt>
      <trkpt lat="48.84565" lon="2.31319">
        <ele>31.799999237061</ele>
        <time>2015-10-12T19:42:42Z</time>
      </trkpt>
      <trkpt lat="48.84556" lon="2.31289">
        <ele>31.39999961853</ele>
        <time>2015-10-12T19:42:46Z</time>
      </trkpt>
      <trkpt lat="48.84548" lon="2.3126">
        <ele>31.39999961853</ele>
        <time>2015-10-12T19:42:50Z</time>
      </trkpt>
      <trkpt lat="48.8454" lon="2.31231">
        <ele>31.60000038147</ele>
        <time>2015-10-12T19:42:54Z</time>
      </trkpt>
      <trkpt lat="48.84534" lon="2.31212">
        <ele>31.39999961853</ele>
        <time>2015-10-12T19:42:57Z</time>
      </trkpt>
      <trkpt lat="48.84531" lon="2.31184">
        <ele>31.39999961853</ele>
        <time>2015-10-12T19:43:01Z</time>
      </trkpt>
      <trkpt lat="48.84525" lon="2.31152">
        <ele>31.60000038147</ele>
        <time>2015-10-12T19:43:06Z</time>
      </trkpt>
      <trkpt lat="48.84523" lon="2.31135">
        <ele>32</ele>
        <time>2015-10-12T19:43:09Z</time>
      </trkpt>
      <trkpt lat="48.84522" lon="2.31124">
        <ele>31.60000038147</ele>
        <time>2015-10-12T19:43:12Z</time>
      </trkpt>
      <trkpt lat="48.8452" lon="2.31108">
        <ele>32.400001525879</ele>
        <time>2015-10-12T19:43:18Z</time>
      </trkpt>
      <trkpt lat="48.84518" lon="2.31101">
        <ele>32.599998474121</ele>
        <time>2015-10-12T19:43:20Z</time>
      </trkpt>
      <trkpt lat="48.84509" lon="2.31077">
        <ele>32.599998474121</ele>
        <time>2015-10-12T19:43:27Z</time>
      </trkpt>
      <trkpt lat="48.84506" lon="2.31071">
        <ele>32.79999923706</ele>
        <time>2015-10-12T19:43:29Z</time>
      </trkpt>
      <trkpt lat="48.84495" lon="2.31046">
        <ele>32</ele>
        <time>2015-10-12T19:43:35Z</time>
      </trkpt>
      <trkpt lat="48.84485" lon="2.31018">
        <ele>32</ele>
        <time>2015-10-12T19:43:40Z</time>
      </trkpt>
      <trkpt lat="48.84476" lon="2.30995">
        <ele>33</ele>
        <time>2015-10-12T19:43:44Z</time>
      </trkpt>
      <trkpt lat="48.84466" lon="2.30969">
        <ele>33.599998474121</ele>
        <time>2015-10-12T19:43:48Z</time>
      </trkpt>
      <trkpt lat="48.84455" lon="2.30944">
        <ele>34.599998474121</ele>
        <time>2015-10-12T19:43:52Z</time>
      </trkpt>
      <trkpt lat="48.84445" lon="2.3092">
        <ele>36.400001525879</ele>
        <time>2015-10-12T19:43:56Z</time>
      </trkpt>
      <trkpt lat="48.84435" lon="2.30893">
        <ele>38</ele>
        <time>2015-10-12T19:44:00Z</time>
      </trkpt>
      <trkpt lat="48.84432" lon="2.30887">
        <ele>38.20000076294</ele>
        <time>2015-10-12T19:44:01Z</time>
      </trkpt>
      <trkpt lat="48.84422" lon="2.30857">
        <ele>39.400001525879</ele>
        <time>2015-10-12T19:44:05Z</time>
      </trkpt>
      <trkpt lat="48.84412" lon="2.30827">
        <ele>40.599998474121</ele>
        <time>2015-10-12T19:44:09Z</time>
      </trkpt>
      <trkpt lat="48.84401" lon="2.30797">
        <ele>40.599998474121</ele>
        <time>2015-10-12T19:44:13Z</time>
      </trkpt>
      <trkpt lat="48.84392" lon="2.30767">
        <ele>41</ele>
        <time>2015-10-12T19:44:17Z</time>
      </trkpt>
      <trkpt lat="48.84384" lon="2.30737">
        <ele>42.599998474121</ele>
        <time>2015-10-12T19:44:21Z</time>
      </trkpt>
      <trkpt lat="48.84375" lon="2.3071">
        <ele>43.599998474121</ele>
        <time>2015-10-12T19:44:25Z</time>
      </trkpt>
      <trkpt lat="48.84372" lon="2.30705">
        <ele>43.79999923706</ele>
        <time>2015-10-12T19:44:26Z</time>
      </trkpt>
      <trkpt lat="48.84368" lon="2.30686">
        <ele>44.79999923706</ele>
        <time>2015-10-12T19:44:29Z</time>
      </trkpt>
      <trkpt lat="48.8436" lon="2.30659">
        <ele>46.79999923706</ele>
        <time>2015-10-12T19:44:33Z</time>
      </trkpt>
      <trkpt lat="48.84355" lon="2.30646">
        <ele>47.79999923706</ele>
        <time>2015-10-12T19:44:35Z</time>
      </trkpt>
      <trkpt lat="48.84349" lon="2.30619">
        <ele>48.599998474121</ele>
        <time>2015-10-12T19:44:38Z</time>
      </trkpt>
      <trkpt lat="48.8434" lon="2.30591">
        <ele>49.599998474121</ele>
        <time>2015-10-12T19:44:42Z</time>
      </trkpt>
      <trkpt lat="48.84337" lon="2.30585">
        <ele>49.79999923706</ele>
        <time>2015-10-12T19:44:43Z</time>
      </trkpt>
      <trkpt lat="48.84328" lon="2.30557">
        <ele>50.79999923706</ele>
        <time>2015-10-12T19:44:47Z</time>
      </trkpt>
      <trkpt lat="48.84317" lon="2.30528">
        <ele>51.79999923706</ele>
        <time>2015-10-12T19:44:51Z</time>
      </trkpt>
      <trkpt lat="48.84308" lon="2.30499">
        <ele>52</ele>
        <time>2015-10-12T19:44:55Z</time>
      </trkpt>
      <trkpt lat="48.84304" lon="2.30486">
        <ele>52.400001525879</ele>
        <time>2015-10-12T19:44:57Z</time>
      </trkpt>
      <trkpt lat="48.84297" lon="2.30457">
        <ele>53.20000076294</ele>
        <time>2015-10-12T19:45:01Z</time>
      </trkpt>
      <trkpt lat="48.84287" lon="2.30429">
        <ele>54.20000076294</ele>
        <time>2015-10-12T19:45:05Z</time>
      </trkpt>
      <trkpt lat="48.84277" lon="2.304">
        <ele>55.20000076294</ele>
        <time>2015-10-12T19:45:09Z</time>
      </trkpt>
      <trkpt lat="48.84272" lon="2.30387">
        <ele>55.599998474121</ele>
        <time>2015-10-12T19:45:11Z</time>
      </trkpt>
      <trkpt lat="48.84267" lon="2.30372">
        <ele>54.599998474121</ele>
        <time>2015-10-12T19:45:13Z</time>
      </trkpt>
      <trkpt lat="48.84257" lon="2.30341">
        <ele>50.599998474121</ele>
        <time>2015-10-12T19:45:17Z</time>
      </trkpt>
      <trkpt lat="48.84248" lon="2.3032">
        <ele>49.400001525879</ele>
        <time>2015-10-12T19:45:21Z</time>
      </trkpt>
      <trkpt lat="48.84242" lon="2.30297">
        <ele>49</ele>
        <time>2015-10-12T19:45:25Z</time>
      </trkpt>
      <trkpt lat="48.84234" lon="2.30271">
        <ele>49</ele>
        <time>2015-10-12T19:45:29Z</time>
      </trkpt>
      <trkpt lat="48.84228" lon="2.3024">
        <ele>49.79999923706</ele>
        <time>2015-10-12T19:45:33Z</time>
      </trkpt>
      <trkpt lat="48.84221" lon="2.30214">
        <ele>50</ele>
        <time>2015-10-12T19:45:37Z</time>
      </trkpt>
      <trkpt lat="48.84214" lon="2.30187">
        <ele>48</ele>
        <time>2015-10-12T19:45:41Z</time>
      </trkpt>
      <trkpt lat="48.8421" lon="2.30174">
        <ele>47.599998474121</ele>
        <time>2015-10-12T19:45:43Z</time>
      </trkpt>
      <trkpt lat="48.84204" lon="2.30144">
        <ele>46</ele>
        <time>2015-10-12T19:45:47Z</time>
      </trkpt>
      <trkpt lat="48.84197" lon="2.30115">
        <ele>46.400001525879</ele>
        <time>2015-10-12T19:45:51Z</time>
      </trkpt>
      <trkpt lat="48.84189" lon="2.30086">
        <ele>46.400001525879</ele>
        <time>2015-10-12T19:45:55Z</time>
      </trkpt>
      <trkpt lat="48.84184" lon="2.30065">
        <ele>47.400001525879</ele>
        <time>2015-10-12T19:45:58Z</time>
      </trkpt>
      <trkpt lat="48.84172" lon="2.30039">
        <ele>47</ele>
        <time>2015-10-12T19:46:02Z</time>
      </trkpt>
      <trkpt lat="48.84161" lon="2.3001">
        <ele>46.20000076294</ele>
        <time>2015-10-12T19:46:07Z</time>
      </trkpt>
      <trkpt lat="48.84155" lon="2.29982">
        <ele>45.400001525879</ele>
        <time>2015-10-12T19:46:12Z</time>
      </trkpt>
      <trkpt lat="48.84149" lon="2.29955">
        <ele>43.599998474121</ele>
        <time>2015-10-12T19:46:18Z</time>
      </trkpt>
      <trkpt lat="48.84157" lon="2.2993">
        <ele>44.79999923706</ele>
        <time>2015-10-12T19:46:22Z</time>
      </trkpt>
      <trkpt lat="48.8416" lon="2.29924">
        <ele>44.79999923706</ele>
        <time>2015-10-12T19:46:28Z</time>
      </trkpt>
      <trkpt lat="48.8416" lon="2.29924">
        <ele>45</ele>
        <time>2015-10-12T19:46:29Z</time>
      </trkpt>
      <trkpt lat="48.8416" lon="2.29916">
        <ele>46</ele>
        <time>2015-10-12T19:46:33Z</time>
      </trkpt>
      <trkpt lat="48.84153" lon="2.29888">
        <ele>45</ele>
        <time>2015-10-12T19:46:41Z</time>
      </trkpt>
      <trkpt lat="48.84143" lon="2.29858">
        <ele>40.400001525879</ele>
        <time>2015-10-12T19:46:47Z</time>
      </trkpt>
      <trkpt lat="48.84134" lon="2.29828">
        <ele>38.599998474121</ele>
        <time>2015-10-12T19:46:52Z</time>
      </trkpt>
      <trkpt lat="48.84123" lon="2.29804">
        <ele>38.400001525879</ele>
        <time>2015-10-12T19:46:56Z</time>
      </trkpt>
      <trkpt lat="48.84113" lon="2.29777">
        <ele>39.20000076294</ele>
        <time>2015-10-12T19:47:00Z</time>
      </trkpt>
      <trkpt lat="48.84099" lon="2.29749">
        <ele>40</ele>
        <time>2015-10-12T19:47:04Z</time>
      </trkpt>
      <trkpt lat="48.84089" lon="2.2972">
        <ele>40.79999923706</ele>
        <time>2015-10-12T19:47:08Z</time>
      </trkpt>
      <trkpt lat="48.84078" lon="2.29694">
        <ele>41.79999923706</ele>
        <time>2015-10-12T19:47:12Z</time>
      </trkpt>
      <trkpt lat="48.84068" lon="2.29669">
        <ele>43.20000076294</ele>
        <time>2015-10-12T19:47:16Z</time>
      </trkpt>
      <trkpt lat="48.84055" lon="2.29643">
        <ele>43.79999923706</ele>
        <time>2015-10-12T19:47:20Z</time>
      </trkpt>
      <trkpt lat="48.84043" lon="2.29614">
        <ele>43.79999923706</ele>
        <time>2015-10-12T19:47:24Z</time>
      </trkpt>
      <trkpt lat="48.84034" lon="2.29586">
        <ele>43.20000076294</ele>
        <time>2015-10-12T19:47:28Z</time>
      </trkpt>
      <trkpt lat="48.84021" lon="2.29558">
        <ele>40.20000076294</ele>
        <time>2015-10-12T19:47:32Z</time>
      </trkpt>
      <trkpt lat="48.84018" lon="2.29551">
        <ele>39.599998474121</ele>
        <time>2015-10-12T19:47:33Z</time>
      </trkpt>
      <trkpt lat="48.84008" lon="2.29522">
        <ele>38.79999923706</ele>
        <time>2015-10-12T19:47:37Z</time>
      </trkpt>
      <trkpt lat="48.84002" lon="2.29486">
        <ele>40.20000076294</ele>
        <time>2015-10-12T19:47:41Z</time>
      </trkpt>
      <trkpt lat="48.84" lon="2.29462">
        <ele>43.20000076294</ele>
        <time>2015-10-12T19:47:44Z</time>
      </trkpt>
      <trkpt lat="48.83993" lon="2.29434">
        <ele>44.79999923706</ele>
        <time>2015-10-12T19:47:48Z</time>
      </trkpt>
      <trkpt lat="48.83986" lon="2.29402">
        <ele>46</ele>
        <time>2015-10-12T19:47:52Z</time>
      </trkpt>
      <trkpt lat="48.83977" lon="2.29375">
        <ele>47.20000076294</ele>
        <time>2015-10-12T19:47:56Z</time>
      </trkpt>
      <trkpt lat="48.83975" lon="2.29368">
        <ele>47.79999923706</ele>
        <time>2015-10-12T19:47:57Z</time>
      </trkpt>
      <trkpt lat="48.83968" lon="2.29339">
        <ele>50.20000076294</ele>
        <time>2015-10-12T19:48:01Z</time>
      </trkpt>
      <trkpt lat="48.83958" lon="2.29316">
        <ele>51</ele>
        <time>2015-10-12T19:48:05Z</time>
      </trkpt>
      <trkpt lat="48.83951" lon="2.29303">
        <ele>48</ele>
        <time>2015-10-12T19:48:07Z</time>
      </trkpt>
      <trkpt lat="48.83938" lon="2.29279">
        <ele>44.400001525879</ele>
        <time>2015-10-12T19:48:11Z</time>
      </trkpt>
      <trkpt lat="48.83935" lon="2.29274">
        <ele>43.400001525879</ele>
        <time>2015-10-12T19:48:12Z</time>
      </trkpt>
      <trkpt lat="48.83924" lon="2.29248">
        <ele>41</ele>
        <time>2015-10-12T19:48:17Z</time>
      </trkpt>
      <trkpt lat="48.83918" lon="2.29239">
        <ele>39.599998474121</ele>
        <time>2015-10-12T19:48:20Z</time>
      </trkpt>
      <trkpt lat="48.83914" lon="2.29232">
        <ele>38.599998474121</ele>
        <time>2015-10-12T19:48:25Z</time>
      </trkpt>
      <trkpt lat="48.83915" lon="2.2923">
        <ele>38.79999923706</ele>
        <time>2015-10-12T19:48:27Z</time>
      </trkpt>
      <trkpt lat="48.83929" lon="2.292">
        <ele>37</ele>
        <time>2015-10-12T19:48:50Z</time>
      </trkpt>
      <trkpt lat="48.83923" lon="2.2918">
        <ele>30.799999237061</ele>
        <time>2015-10-12T19:49:56Z</time>
      </trkpt>
      <trkpt lat="48.83912" lon="2.29154">
        <ele>32.20000076294</ele>
        <time>2015-10-12T19:50:02Z</time>
      </trkpt>
      <trkpt lat="48.83897" lon="2.2913">
        <ele>31.799999237061</ele>
        <time>2015-10-12T19:50:07Z</time>
      </trkpt>
      <trkpt lat="48.83888" lon="2.29099">
        <ele>32</ele>
        <time>2015-10-12T19:50:12Z</time>
      </trkpt>
      <trkpt lat="48.8388" lon="2.29073">
        <ele>32.20000076294</ele>
        <time>2015-10-12T19:50:16Z</time>
      </trkpt>
      <trkpt lat="48.83871" lon="2.29049">
        <ele>32.599998474121</ele>
        <time>2015-10-12T19:50:20Z</time>
      </trkpt>
      <trkpt lat="48.83859" lon="2.29024">
        <ele>33.400001525879</ele>
        <time>2015-10-12T19:50:25Z</time>
      </trkpt>
      <trkpt lat="48.83846" lon="2.28993">
        <ele>32.599998474121</ele>
        <time>2015-10-12T19:50:30Z</time>
      </trkpt>
      <trkpt lat="48.83836" lon="2.28972">
        <ele>31.39999961853</ele>
        <time>2015-10-12T19:50:34Z</time>
      </trkpt>
      <trkpt lat="48.83829" lon="2.2894">
        <ele>30.799999237061</ele>
        <time>2015-10-12T19:50:39Z</time>
      </trkpt>
      <trkpt lat="48.83822" lon="2.28909">
        <ele>30.799999237061</ele>
        <time>2015-10-12T19:50:44Z</time>
      </trkpt>
      <trkpt lat="48.83816" lon="2.28877">
        <ele>31.200000762939</ele>
        <time>2015-10-12T19:50:49Z</time>
      </trkpt>
      <trkpt lat="48.83808" lon="2.2885">
        <ele>32</ele>
        <time>2015-10-12T19:50:53Z</time>
      </trkpt>
      <trkpt lat="48.83802" lon="2.28821">
        <ele>33.20000076294</ele>
        <time>2015-10-12T19:50:57Z</time>
      </trkpt>
      <trkpt lat="48.83795" lon="2.2879">
        <ele>33</ele>
        <time>2015-10-12T19:51:01Z</time>
      </trkpt>
      <trkpt lat="48.83787" lon="2.28759">
        <ele>33.79999923706</ele>
        <time>2015-10-12T19:51:05Z</time>
      </trkpt>
      <trkpt lat="48.83779" lon="2.2873">
        <ele>34</ele>
        <time>2015-10-12T19:51:09Z</time>
      </trkpt>
      <trkpt lat="48.83772" lon="2.287">
        <ele>34.599998474121</ele>
        <time>2015-10-12T19:51:13Z</time>
      </trkpt>
      <trkpt lat="48.83766" lon="2.28677">
        <ele>34.79999923706</ele>
        <time>2015-10-12T19:51:16Z</time>
      </trkpt>
      <trkpt lat="48.83757" lon="2.28645">
        <ele>34.599998474121</ele>
        <time>2015-10-12T19:51:20Z</time>
      </trkpt>
      <trkpt lat="48.8375" lon="2.2862">
        <ele>33</ele>
        <time>2015-10-12T19:51:23Z</time>
      </trkpt>
      <trkpt lat="48.83739" lon="2.2859">
        <ele>31</ele>
        <time>2015-10-12T19:51:27Z</time>
      </trkpt>
      <trkpt lat="48.83737" lon="2.28582">
        <ele>30.200000762939</ele>
        <time>2015-10-12T19:51:28Z</time>
      </trkpt>
      <trkpt lat="48.83728" lon="2.28555">
        <ele>28.39999961853</ele>
        <time>2015-10-12T19:51:32Z</time>
      </trkpt>
      <trkpt lat="48.8372" lon="2.28528">
        <ele>28.200000762939</ele>
        <time>2015-10-12T19:51:36Z</time>
      </trkpt>
      <trkpt lat="48.83719" lon="2.2852">
        <ele>28.200000762939</ele>
        <time>2015-10-12T19:51:37Z</time>
      </trkpt>
      <trkpt lat="48.8371" lon="2.28491">
        <ele>28.60000038147</ele>
        <time>2015-10-12T19:51:41Z</time>
      </trkpt>
      <trkpt lat="48.837" lon="2.28463">
        <ele>29.60000038147</ele>
        <time>2015-10-12T19:51:45Z</time>
      </trkpt>
      <trkpt lat="48.83689" lon="2.28435">
        <ele>29.39999961853</ele>
        <time>2015-10-12T19:51:49Z</time>
      </trkpt>
      <trkpt lat="48.8368" lon="2.28411">
        <ele>29.200000762939</ele>
        <time>2015-10-12T19:51:53Z</time>
      </trkpt>
      <trkpt lat="48.83673" lon="2.28386">
        <ele>30.200000762939</ele>
        <time>2015-10-12T19:51:57Z</time>
      </trkpt>
      <trkpt lat="48.83671" lon="2.2838">
        <ele>30.60000038147</ele>
        <time>2015-10-12T19:51:58Z</time>
      </trkpt>
      <trkpt lat="48.83668" lon="2.28361">
        <ele>31.799999237061</ele>
        <time>2015-10-12T19:52:01Z</time>
      </trkpt>
      <trkpt lat="48.83657" lon="2.28333">
        <ele>30.60000038147</ele>
        <time>2015-10-12T19:52:05Z</time>
      </trkpt>
      <trkpt lat="48.83648" lon="2.28315">
        <ele>31.39999961853</ele>
        <time>2015-10-12T19:52:08Z</time>
      </trkpt>
      <trkpt lat="48.83643" lon="2.2828">
        <ele>33.20000076294</ele>
        <time>2015-10-12T19:52:12Z</time>
      </trkpt>
      <trkpt lat="48.83641" lon="2.28274">
        <ele>33.599998474121</ele>
        <time>2015-10-12T19:52:13Z</time>
      </trkpt>
      <trkpt lat="48.83634" lon="2.28245">
        <ele>34.599998474121</ele>
        <time>2015-10-12T19:52:17Z</time>
      </trkpt>
      <trkpt lat="48.83623" lon="2.28221">
        <ele>34.599998474121</ele>
        <time>2015-10-12T19:52:21Z</time>
      </trkpt>
      <trkpt lat="48.83609" lon="2.28196">
        <ele>33.400001525879</ele>
        <time>2015-10-12T19:52:25Z</time>
      </trkpt>
      <trkpt lat="48.83598" lon="2.28173">
        <ele>33</ele>
        <time>2015-10-12T19:52:29Z</time>
      </trkpt>
      <trkpt lat="48.83592" lon="2.28162">
        <ele>32.79999923706</ele>
        <time>2015-10-12T19:52:32Z</time>
      </trkpt>
      <trkpt lat="48.83572" lon="2.28153">
        <ele>34.20000076294</ele>
        <time>2015-10-12T19:52:41Z</time>
      </trkpt>
      <trkpt lat="48.8357" lon="2.28151">
        <ele>34</ele>
        <time>2015-10-12T19:52:42Z</time>
      </trkpt>
      <trkpt lat="48.83568" lon="2.2815">
        <ele>34.20000076294</ele>
        <time>2015-10-12T19:52:43Z</time>
      </trkpt>
      <trkpt lat="48.83564" lon="2.28147">
        <ele>34.599998474121</ele>
        <time>2015-10-12T19:52:45Z</time>
      </trkpt>
      <trkpt lat="48.83556" lon="2.2813">
        <ele>36.20000076294</ele>
        <time>2015-10-12T19:52:53Z</time>
      </trkpt>
      <trkpt lat="48.83543" lon="2.2812">
        <ele>38.20000076294</ele>
        <time>2015-10-12T19:53:02Z</time>
      </trkpt>
      <trkpt lat="48.83533" lon="2.28143">
        <ele>44.20000076294</ele>
        <time>2015-10-12T19:53:13Z</time>
      </trkpt>
      <trkpt lat="48.83525" lon="2.28168">
        <ele>50</ele>
        <time>2015-10-12T19:53:20Z</time>
      </trkpt>
      <trkpt lat="48.83509" lon="2.28191">
        <ele>67.199996948242</ele>
        <time>2015-10-12T19:53:29Z</time>
      </trkpt>
      <trkpt lat="48.83501" lon="2.2822">
        <ele>77.400001525879</ele>
        <time>2015-10-12T19:53:35Z</time>
      </trkpt>
      <trkpt lat="48.83493" lon="2.28248">
        <ele>85.800003051758</ele>
        <time>2015-10-12T19:53:40Z</time>
      </trkpt>
      <trkpt lat="48.83482" lon="2.28274">
        <ele>93.199996948242</ele>
        <time>2015-10-12T19:53:46Z</time>
      </trkpt>
      <trkpt lat="48.83473" lon="2.283">
        <ele>102.40000152588</ele>
        <time>2015-10-12T19:53:51Z</time>
      </trkpt>
      <trkpt lat="48.83466" lon="2.28327">
        <ele>121.40000152588</ele>
        <time>2015-10-12T19:53:57Z</time>
      </trkpt>
      <trkpt lat="48.83462" lon="2.28356">
        <ele>130.80000305176</ele>
        <time>2015-10-12T19:54:02Z</time>
      </trkpt>
      <trkpt lat="48.8345" lon="2.28379">
        <ele>138.39999389648</ele>
        <time>2015-10-12T19:54:08Z</time>
      </trkpt>
      <trkpt lat="48.83438" lon="2.28403">
        <ele>146.19999694824</ele>
        <time>2015-10-12T19:54:14Z</time>
      </trkpt>
      <trkpt lat="48.83427" lon="2.28427">
        <ele>149.60000610352</ele>
        <time>2015-10-12T19:54:19Z</time>
      </trkpt>
      <trkpt lat="48.8342" lon="2.28455">
        <ele>151.19999694824</ele>
        <time>2015-10-12T19:54:23Z</time>
      </trkpt>
      <trkpt lat="48.8341" lon="2.28483">
        <ele>153.19999694824</ele>
        <time>2015-10-12T19:54:28Z</time>
      </trkpt>
      <trkpt lat="48.83401" lon="2.28509">
        <ele>155.39999389648</ele>
        <time>2015-10-12T19:54:34Z</time>
      </trkpt>
      <trkpt lat="48.83386" lon="2.28533">
        <ele>159.39999389648</ele>
        <time>2015-10-12T19:54:41Z</time>
      </trkpt>
      <trkpt lat="48.83372" lon="2.28556">
        <ele>163.80000305176</ele>
        <time>2015-10-12T19:54:47Z</time>
      </trkpt>
      <trkpt lat="48.83359" lon="2.28577">
        <ele>170.60000610352</ele>
        <time>2015-10-12T19:54:53Z</time>
      </trkpt>
      <trkpt lat="48.8335" lon="2.28605">
        <ele>177.80000305176</ele>
        <time>2015-10-12T19:55:01Z</time>
      </trkpt>
      <trkpt lat="48.83341" lon="2.2863">
        <ele>180.39999389648</ele>
        <time>2015-10-12T19:55:08Z</time>
      </trkpt>
      <trkpt lat="48.83329" lon="2.28651">
        <ele>183.19999694824</ele>
        <time>2015-10-12T19:55:14Z</time>
      </trkpt>
      <trkpt lat="48.83319" lon="2.28674">
        <ele>185.80000305176</ele>
        <time>2015-10-12T19:55:20Z</time>
      </trkpt>
      <trkpt lat="48.83304" lon="2.28695">
        <ele>191.80000305176</ele>
        <time>2015-10-12T19:55:27Z</time>
      </trkpt>
      <trkpt lat="48.83288" lon="2.28714">
        <ele>197.60000610352</ele>
        <time>2015-10-12T19:55:34Z</time>
      </trkpt>
      <trkpt lat="48.83279" lon="2.28739">
        <ele>200.80000305176</ele>
        <time>2015-10-12T19:55:41Z</time>
      </trkpt>
      <trkpt lat="48.83273" lon="2.28768">
        <ele>196.19999694824</ele>
        <time>2015-10-12T19:55:49Z</time>
      </trkpt>
      <trkpt lat="48.83277" lon="2.28815">
        <ele>170</ele>
        <time>2015-10-12T19:56:00Z</time>
      </trkpt>
      <trkpt lat="48.83278" lon="2.28822">
        <ele>162</ele>
        <time>2015-10-12T19:56:03Z</time>
      </trkpt>
      <trkpt lat="48.8328" lon="2.28828">
        <ele>137.19999694824</ele>
        <time>2015-10-12T19:56:42Z</time>
      </trkpt>
      <trkpt lat="48.83294" lon="2.2885">
        <ele>135</ele>
        <time>2015-10-12T19:56:48Z</time>
      </trkpt>
      <trkpt lat="48.83305" lon="2.28873">
        <ele>133</ele>
        <time>2015-10-12T19:56:54Z</time>
      </trkpt>
      <trkpt lat="48.8332" lon="2.28897">
        <ele>131.60000610352</ele>
        <time>2015-10-12T19:57:01Z</time>
      </trkpt>
      <trkpt lat="48.83332" lon="2.28923">
        <ele>128.39999389648</ele>
        <time>2015-10-12T19:57:07Z</time>
      </trkpt>
      <trkpt lat="48.83346" lon="2.28938">
        <ele>126.40000152588</ele>
        <time>2015-10-12T19:57:12Z</time>
      </trkpt>
      <trkpt lat="48.83363" lon="2.28955">
        <ele>124.80000305176</ele>
        <time>2015-10-12T19:57:18Z</time>
      </trkpt>
      <trkpt lat="48.83379" lon="2.28977">
        <ele>122</ele>
        <time>2015-10-12T19:57:24Z</time>
      </trkpt>
      <trkpt lat="48.83386" lon="2.29003">
        <ele>120.80000305176</ele>
        <time>2015-10-12T19:57:29Z</time>
      </trkpt>
      <trkpt lat="48.83393" lon="2.2903">
        <ele>119.59999847412</ele>
        <time>2015-10-12T19:57:34Z</time>
      </trkpt>
      <trkpt lat="48.83401" lon="2.29055">
        <ele>118</ele>
        <time>2015-10-12T19:57:39Z</time>
      </trkpt>
      <trkpt lat="48.83411" lon="2.29082">
        <ele>115.59999847412</ele>
        <time>2015-10-12T19:57:44Z</time>
      </trkpt>
      <trkpt lat="48.8343" lon="2.29098">
        <ele>112</ele>
        <time>2015-10-12T19:57:47Z</time>
      </trkpt>
      <trkpt lat="48.83445" lon="2.29119">
        <ele>109.59999847412</ele>
        <time>2015-10-12T19:57:51Z</time>
      </trkpt>
      <trkpt lat="48.83463" lon="2.29132">
        <ele>108.59999847412</ele>
        <time>2015-10-12T19:57:54Z</time>
      </trkpt>
      <trkpt lat="48.83472" lon="2.29143">
        <ele>107.40000152588</ele>
        <time>2015-10-12T19:57:56Z</time>
      </trkpt>
      <trkpt lat="48.83486" lon="2.2917">
        <ele>102.40000152588</ele>
        <time>2015-10-12T19:58:01Z</time>
      </trkpt>
      <trkpt lat="48.83497" lon="2.29189">
        <ele>97.800003051758</ele>
        <time>2015-10-12T19:58:04Z</time>
      </trkpt>
      <trkpt lat="48.83514" lon="2.29214">
        <ele>89.800003051758</ele>
        <time>2015-10-12T19:58:07Z</time>
      </trkpt>
      <trkpt lat="48.83528" lon="2.29237">
        <ele>85</ele>
        <time>2015-10-12T19:58:11Z</time>
      </trkpt>
      <trkpt lat="48.83542" lon="2.29256">
        <ele>81</ele>
        <time>2015-10-12T19:58:14Z</time>
      </trkpt>
      <trkpt lat="48.8355" lon="2.29269">
        <ele>79</ele>
        <time>2015-10-12T19:58:16Z</time>
      </trkpt>
      <trkpt lat="48.83564" lon="2.29296">
        <ele>75.800003051758</ele>
        <time>2015-10-12T19:58:20Z</time>
      </trkpt>
      <trkpt lat="48.83577" lon="2.29318">
        <ele>73</ele>
        <time>2015-10-12T19:58:24Z</time>
      </trkpt>
      <trkpt lat="48.83591" lon="2.2934">
        <ele>69.800003051758</ele>
        <time>2015-10-12T19:58:28Z</time>
      </trkpt>
      <trkpt lat="48.83594" lon="2.29347">
        <ele>69</ele>
        <time>2015-10-12T19:58:29Z</time>
      </trkpt>
      <trkpt lat="48.83602" lon="2.29363">
        <ele>67.800003051758</ele>
        <time>2015-10-12T19:58:32Z</time>
      </trkpt>
      <trkpt lat="48.83609" lon="2.29388">
        <ele>63.599998474121</ele>
        <time>2015-10-12T19:58:36Z</time>
      </trkpt>
      <trkpt lat="48.83619" lon="2.29413">
        <ele>59.599998474121</ele>
        <time>2015-10-12T19:58:40Z</time>
      </trkpt>
      <trkpt lat="48.83625" lon="2.2943">
        <ele>58.400001525879</ele>
        <time>2015-10-12T19:58:43Z</time>
      </trkpt>
      <trkpt lat="48.83636" lon="2.29458">
        <ele>57.400001525879</ele>
        <time>2015-10-12T19:58:47Z</time>
      </trkpt>
      <trkpt lat="48.8365" lon="2.29487">
        <ele>55.400001525879</ele>
        <time>2015-10-12T19:58:51Z</time>
      </trkpt>
      <trkpt lat="48.83663" lon="2.29513">
        <ele>53.20000076294</ele>
        <time>2015-10-12T19:58:55Z</time>
      </trkpt>
      <trkpt lat="48.83671" lon="2.29526">
        <ele>52.400001525879</ele>
        <time>2015-10-12T19:58:57Z</time>
      </trkpt>
      <trkpt lat="48.83683" lon="2.29554">
        <ele>51.400001525879</ele>
        <time>2015-10-12T19:59:01Z</time>
      </trkpt>
      <trkpt lat="48.8369" lon="2.29566">
        <ele>50.20000076294</ele>
        <time>2015-10-12T19:59:03Z</time>
      </trkpt>
      <trkpt lat="48.83701" lon="2.29591">
        <ele>48.400001525879</ele>
        <time>2015-10-12T19:59:07Z</time>
      </trkpt>
      <trkpt lat="48.83709" lon="2.29611">
        <ele>47.400001525879</ele>
        <time>2015-10-12T19:59:10Z</time>
      </trkpt>
      <trkpt lat="48.83707" lon="2.29623">
        <ele>46.400001525879</ele>
        <time>2015-10-12T19:59:12Z</time>
      </trkpt>
      <trkpt lat="48.83714" lon="2.29632">
        <ele>46</ele>
        <time>2015-10-12T19:59:16Z</time>
      </trkpt>
      <trkpt lat="48.83725" lon="2.29644">
        <ele>45.79999923706</ele>
        <time>2015-10-12T19:59:20Z</time>
      </trkpt>
      <trkpt lat="48.83727" lon="2.29649">
        <ele>46.20000076294</ele>
        <time>2015-10-12T19:59:21Z</time>
      </trkpt>
      <trkpt lat="48.83732" lon="2.29657">
        <ele>43.400001525879</ele>
        <time>2015-10-12T19:59:23Z</time>
      </trkpt>
      <trkpt lat="48.83737" lon="2.29669">
        <ele>41.20000076294</ele>
        <time>2015-10-12T19:59:26Z</time>
      </trkpt>
      <trkpt lat="48.83743" lon="2.29689">
        <ele>39.20000076294</ele>
        <time>2015-10-12T19:59:30Z</time>
      </trkpt>
      <trkpt lat="48.83747" lon="2.29696">
        <ele>38.400001525879</ele>
        <time>2015-10-12T19:59:32Z</time>
      </trkpt>
      <trkpt lat="48.8376" lon="2.29712">
        <ele>38.599998474121</ele>
        <time>2015-10-12T19:59:36Z</time>
      </trkpt>
      <trkpt lat="48.83765" lon="2.29721">
        <ele>38.400001525879</ele>
        <time>2015-10-12T19:59:38Z</time>
      </trkpt>
      <trkpt lat="48.83768" lon="2.29735">
        <ele>38</ele>
        <time>2015-10-12T19:59:41Z</time>
      </trkpt>
      <trkpt lat="48.83777" lon="2.29751">
        <ele>37</ele>
        <time>2015-10-12T19:59:45Z</time>
      </trkpt>
      <trkpt lat="48.83784" lon="2.29759">
        <ele>36.20000076294</ele>
        <time>2015-10-12T19:59:47Z</time>
      </trkpt>
      <trkpt lat="48.83791" lon="2.29783">
        <ele>34.20000076294</ele>
        <time>2015-10-12T19:59:52Z</time>
      </trkpt>
      <trkpt lat="48.83801" lon="2.29807">
        <ele>32.79999923706</ele>
        <time>2015-10-12T19:59:57Z</time>
      </trkpt>
      <trkpt lat="48.83819" lon="2.29824">
        <ele>31.799999237061</ele>
        <time>2015-10-12T20:00:01Z</time>
      </trkpt>
      <trkpt lat="48.8383" lon="2.29851">
        <ele>28.799999237061</ele>
        <time>2015-10-12T20:00:05Z</time>
      </trkpt>
      <trkpt lat="48.83842" lon="2.2988">
        <ele>27.200000762939</ele>
        <time>2015-10-12T20:00:09Z</time>
      </trkpt>
      <trkpt lat="48.83858" lon="2.29902">
        <ele>26</ele>
        <time>2015-10-12T20:00:13Z</time>
      </trkpt>
      <trkpt lat="48.83861" lon="2.29908">
        <ele>25.799999237061</ele>
        <time>2015-10-12T20:00:14Z</time>
      </trkpt>
      <trkpt lat="48.83876" lon="2.29931">
        <ele>24.200000762939</ele>
        <time>2015-10-12T20:00:18Z</time>
      </trkpt>
      <trkpt lat="48.83878" lon="2.29939">
        <ele>23.799999237061</ele>
        <time>2015-10-12T20:00:19Z</time>
      </trkpt>
      <trkpt lat="48.83888" lon="2.29963">
        <ele>22.60000038147</ele>
        <time>2015-10-12T20:00:23Z</time>
      </trkpt>
      <trkpt lat="48.83892" lon="2.29968">
        <ele>22.200000762939</ele>
        <time>2015-10-12T20:00:24Z</time>
      </trkpt>
      <trkpt lat="48.83904" lon="2.29984">
        <ele>21</ele>
        <time>2015-10-12T20:00:27Z</time>
      </trkpt>
      <trkpt lat="48.83916" lon="2.30008">
        <ele>19.60000038147</ele>
        <time>2015-10-12T20:00:31Z</time>
      </trkpt>
      <trkpt lat="48.83925" lon="2.30032">
        <ele>18.60000038147</ele>
        <time>2015-10-12T20:00:35Z</time>
      </trkpt>
      <trkpt lat="48.83933" lon="2.30049">
        <ele>18.39999961853</ele>
        <time>2015-10-12T20:00:38Z</time>
      </trkpt>
      <trkpt lat="48.83942" lon="2.30078">
        <ele>17.60000038147</ele>
        <time>2015-10-12T20:00:43Z</time>
      </trkpt>
      <trkpt lat="48.83947" lon="2.30094">
        <ele>17</ele>
        <time>2015-10-12T20:00:46Z</time>
      </trkpt>
      <trkpt lat="48.83954" lon="2.30119">
        <ele>16.60000038147</ele>
        <time>2015-10-12T20:00:50Z</time>
      </trkpt>
      <trkpt lat="48.83959" lon="2.30132">
        <ele>16.799999237061</ele>
        <time>2015-10-12T20:00:52Z</time>
      </trkpt>
      <trkpt lat="48.83968" lon="2.3016">
        <ele>15.60000038147</ele>
        <time>2015-10-12T20:00:56Z</time>
      </trkpt>
      <trkpt lat="48.83975" lon="2.30181">
        <ele>16</ele>
        <time>2015-10-12T20:00:59Z</time>
      </trkpt>
      <trkpt lat="48.83987" lon="2.30209">
        <ele>17</ele>
        <time>2015-10-12T20:01:03Z</time>
      </trkpt>
      <trkpt lat="48.83998" lon="2.30237">
        <ele>22.799999237061</ele>
        <time>2015-10-12T20:01:07Z</time>
      </trkpt>
      <trkpt lat="48.84001" lon="2.30244">
        <ele>23.799999237061</ele>
        <time>2015-10-12T20:01:08Z</time>
      </trkpt>
      <trkpt lat="48.84008" lon="2.30272">
        <ele>30.799999237061</ele>
        <time>2015-10-12T20:01:12Z</time>
      </trkpt>
      <trkpt lat="48.84015" lon="2.30302">
        <ele>34.599998474121</ele>
        <time>2015-10-12T20:01:16Z</time>
      </trkpt>
      <trkpt lat="48.84023" lon="2.30332">
        <ele>41.400001525879</ele>
        <time>2015-10-12T20:01:20Z</time>
      </trkpt>
      <trkpt lat="48.8403" lon="2.30359">
        <ele>46.20000076294</ele>
        <time>2015-10-12T20:01:24Z</time>
      </trkpt>
      <trkpt lat="48.84035" lon="2.3039">
        <ele>53.20000076294</ele>
        <time>2015-10-12T20:01:29Z</time>
      </trkpt>
      <trkpt lat="48.84036" lon="2.30394">
        <ele>54.599998474121</ele>
        <time>2015-10-12T20:01:30Z</time>
      </trkpt>
      <trkpt lat="48.84038" lon="2.30401">
        <ele>57.79999923706</ele>
        <time>2015-10-12T20:01:33Z</time>
      </trkpt>
      <trkpt lat="48.84038" lon="2.30403">
        <ele>60.79999923706</ele>
        <time>2015-10-12T20:01:35Z</time>
      </trkpt>
      <trkpt lat="48.84048" lon="2.30431">
        <ele>67.800003051758</ele>
        <time>2015-10-12T20:01:48Z</time>
      </trkpt>
      <trkpt lat="48.84055" lon="2.30461">
        <ele>71.800003051758</ele>
        <time>2015-10-12T20:01:53Z</time>
      </trkpt>
      <trkpt lat="48.84065" lon="2.30493">
        <ele>75</ele>
        <time>2015-10-12T20:01:58Z</time>
      </trkpt>
      <trkpt lat="48.84072" lon="2.3052">
        <ele>75.400001525879</ele>
        <time>2015-10-12T20:02:01Z</time>
      </trkpt>
      <trkpt lat="48.84079" lon="2.30545">
        <ele>77.199996948242</ele>
        <time>2015-10-12T20:02:04Z</time>
      </trkpt>
      <trkpt lat="48.84087" lon="2.30571">
        <ele>77.800003051758</ele>
        <time>2015-10-12T20:02:07Z</time>
      </trkpt>
      <trkpt lat="48.84095" lon="2.30604">
        <ele>78.400001525879</ele>
        <time>2015-10-12T20:02:11Z</time>
      </trkpt>
      <trkpt lat="48.84102" lon="2.30629">
        <ele>78.400001525879</ele>
        <time>2015-10-12T20:02:14Z</time>
      </trkpt>
      <trkpt lat="48.84106" lon="2.30645">
        <ele>77.800003051758</ele>
        <time>2015-10-12T20:02:17Z</time>
      </trkpt>
      <trkpt lat="48.84107" lon="2.30655">
        <ele>76.800003051758</ele>
        <time>2015-10-12T20:02:21Z</time>
      </trkpt>
      <trkpt lat="48.84116" lon="2.30684">
        <ele>73.599998474121</ele>
        <time>2015-10-12T20:02:27Z</time>
      </trkpt>
      <trkpt lat="48.84126" lon="2.30713">
        <ele>73.199996948242</ele>
        <time>2015-10-12T20:02:32Z</time>
      </trkpt>
      <trkpt lat="48.8413" lon="2.3072">
        <ele>73</ele>
        <time>2015-10-12T20:02:33Z</time>
      </trkpt>
      <trkpt lat="48.84134" lon="2.30733">
        <ele>73.199996948242</ele>
        <time>2015-10-12T20:02:35Z</time>
      </trkpt>
      <trkpt lat="48.84143" lon="2.30761">
        <ele>71.599998474121</ele>
        <time>2015-10-12T20:02:39Z</time>
      </trkpt>
      <trkpt lat="48.84151" lon="2.30776">
        <ele>71.199996948242</ele>
        <time>2015-10-12T20:02:42Z</time>
      </trkpt>
      <trkpt lat="48.84161" lon="2.308">
        <ele>70.199996948242</ele>
        <time>2015-10-12T20:02:46Z</time>
      </trkpt>
      <trkpt lat="48.84163" lon="2.30808">
        <ele>69.800003051758</ele>
        <time>2015-10-12T20:02:47Z</time>
      </trkpt>
      <trkpt lat="48.84172" lon="2.30837">
        <ele>68</ele>
        <time>2015-10-12T20:02:51Z</time>
      </trkpt>
      <trkpt lat="48.8418" lon="2.30868">
        <ele>65.800003051758</ele>
        <time>2015-10-12T20:02:55Z</time>
      </trkpt>
      <trkpt lat="48.84189" lon="2.30898">
        <ele>64</ele>
        <time>2015-10-12T20:02:59Z</time>
      </trkpt>
      <trkpt lat="48.84196" lon="2.30921">
        <ele>62.599998474121</ele>
        <time>2015-10-12T20:03:02Z</time>
      </trkpt>
      <trkpt lat="48.84203" lon="2.30948">
        <ele>60.400001525879</ele>
        <time>2015-10-12T20:03:06Z</time>
      </trkpt>
      <trkpt lat="48.84209" lon="2.30975">
        <ele>58</ele>
        <time>2015-10-12T20:03:10Z</time>
      </trkpt>
      <trkpt lat="48.84219" lon="2.31001">
        <ele>55</ele>
        <time>2015-10-12T20:03:14Z</time>
      </trkpt>
      <trkpt lat="48.84222" lon="2.31007">
        <ele>54.20000076294</ele>
        <time>2015-10-12T20:03:15Z</time>
      </trkpt>
      <trkpt lat="48.84229" lon="2.31026">
        <ele>53.20000076294</ele>
        <time>2015-10-12T20:03:18Z</time>
      </trkpt>
      <trkpt lat="48.84236" lon="2.31043">
        <ele>52</ele>
        <time>2015-10-12T20:03:21Z</time>
      </trkpt>
      <trkpt lat="48.84243" lon="2.31069">
        <ele>49</ele>
        <time>2015-10-12T20:03:25Z</time>
      </trkpt>
      <trkpt lat="48.84253" lon="2.31099">
        <ele>46.20000076294</ele>
        <time>2015-10-12T20:03:30Z</time>
      </trkpt>
      <trkpt lat="48.84255" lon="2.31111">
        <ele>44.599998474121</ele>
        <time>2015-10-12T20:03:32Z</time>
      </trkpt>
      <trkpt lat="48.84261" lon="2.31136">
        <ele>43.79999923706</ele>
        <time>2015-10-12T20:03:36Z</time>
      </trkpt>
      <trkpt lat="48.84268" lon="2.31167">
        <ele>42</ele>
        <time>2015-10-12T20:03:41Z</time>
      </trkpt>
      <trkpt lat="48.8427" lon="2.31173">
        <ele>41.79999923706</ele>
        <time>2015-10-12T20:03:42Z</time>
      </trkpt>
      <trkpt lat="48.84273" lon="2.31184">
        <ele>41.20000076294</ele>
        <time>2015-10-12T20:03:44Z</time>
      </trkpt>
      <trkpt lat="48.84276" lon="2.31201">
        <ele>40.20000076294</ele>
        <time>2015-10-12T20:03:47Z</time>
      </trkpt>
      <trkpt lat="48.8428" lon="2.31215">
        <ele>40.400001525879</ele>
        <time>2015-10-12T20:03:51Z</time>
      </trkpt>
      <trkpt lat="48.84283" lon="2.31225">
        <ele>40.400001525879</ele>
        <time>2015-10-12T20:03:54Z</time>
      </trkpt>
      <trkpt lat="48.84288" lon="2.31237">
        <ele>38</ele>
        <time>2015-10-12T20:03:57Z</time>
      </trkpt>
      <trkpt lat="48.84293" lon="2.31253">
        <ele>36.79999923706</ele>
        <time>2015-10-12T20:04:00Z</time>
      </trkpt>
      <trkpt lat="48.84301" lon="2.31277">
        <ele>36.20000076294</ele>
        <time>2015-10-12T20:04:04Z</time>
      </trkpt>
      <trkpt lat="48.84309" lon="2.31302">
        <ele>38.599998474121</ele>
        <time>2015-10-12T20:04:08Z</time>
      </trkpt>
      <trkpt lat="48.84316" lon="2.31328">
        <ele>37.20000076294</ele>
        <time>2015-10-12T20:04:12Z</time>
      </trkpt>
      <trkpt lat="48.84318" lon="2.31334">
        <ele>37</ele>
        <time>2015-10-12T20:04:13Z</time>
      </trkpt>
      <trkpt lat="48.84324" lon="2.3136">
        <ele>36.79999923706</ele>
        <time>2015-10-12T20:04:17Z</time>
      </trkpt>
      <trkpt lat="48.84332" lon="2.31388">
        <ele>36</ele>
        <time>2015-10-12T20:04:21Z</time>
      </trkpt>
      <trkpt lat="48.84342" lon="2.31407">
        <ele>36</ele>
        <time>2015-10-12T20:04:24Z</time>
      </trkpt>
      <trkpt lat="48.84351" lon="2.31434">
        <ele>36</ele>
        <time>2015-10-12T20:04:28Z</time>
      </trkpt>
      <trkpt lat="48.8436" lon="2.31462">
        <ele>43.599998474121</ele>
        <time>2015-10-12T20:04:33Z</time>
      </trkpt>
      <trkpt lat="48.84368" lon="2.31495">
        <ele>46</ele>
        <time>2015-10-12T20:04:38Z</time>
      </trkpt>
      <trkpt lat="48.84376" lon="2.31522">
        <ele>45.79999923706</ele>
        <time>2015-10-12T20:04:42Z</time>
      </trkpt>
      <trkpt lat="48.84384" lon="2.31548">
        <ele>46</ele>
        <time>2015-10-12T20:04:46Z</time>
      </trkpt>
      <trkpt lat="48.84388" lon="2.31561">
        <ele>45.79999923706</ele>
        <time>2015-10-12T20:04:48Z</time>
      </trkpt>
      <trkpt lat="48.84392" lon="2.31573">
        <ele>45.400001525879</ele>
        <time>2015-10-12T20:04:50Z</time>
      </trkpt>
      <trkpt lat="48.84401" lon="2.316">
        <ele>44.400001525879</ele>
        <time>2015-10-12T20:04:54Z</time>
      </trkpt>
      <trkpt lat="48.84409" lon="2.31626">
        <ele>44.20000076294</ele>
        <time>2015-10-12T20:04:58Z</time>
      </trkpt>
      <trkpt lat="48.84413" lon="2.31639">
        <ele>44.20000076294</ele>
        <time>2015-10-12T20:05:00Z</time>
      </trkpt>
      <trkpt lat="48.8442" lon="2.31667">
        <ele>44.20000076294</ele>
        <time>2015-10-12T20:05:04Z</time>
      </trkpt>
      <trkpt lat="48.84424" lon="2.3168">
        <ele>44.20000076294</ele>
        <time>2015-10-12T20:05:06Z</time>
      </trkpt>
      <trkpt lat="48.84433" lon="2.31708">
        <ele>44.400001525879</ele>
        <time>2015-10-12T20:05:10Z</time>
      </trkpt>
      <trkpt lat="48.84438" lon="2.3173">
        <ele>44.79999923706</ele>
        <time>2015-10-12T20:05:13Z</time>
      </trkpt>
      <trkpt lat="48.84443" lon="2.31758">
        <ele>45.599998474121</ele>
        <time>2015-10-12T20:05:17Z</time>
      </trkpt>
      <trkpt lat="48.84446" lon="2.31786">
        <ele>45.20000076294</ele>
        <time>2015-10-12T20:05:21Z</time>
      </trkpt>
      <trkpt lat="48.84447" lon="2.31794">
        <ele>45.20000076294</ele>
        <time>2015-10-12T20:05:22Z</time>
      </trkpt>
      <trkpt lat="48.84454" lon="2.31825">
        <ele>45.79999923706</ele>
        <time>2015-10-12T20:05:26Z</time>
      </trkpt>
      <trkpt lat="48.84461" lon="2.31857">
        <ele>45.400001525879</ele>
        <time>2015-10-12T20:05:30Z</time>
      </trkpt>
      <trkpt lat="48.8447" lon="2.31886">
        <ele>44.599998474121</ele>
        <time>2015-10-12T20:05:34Z</time>
      </trkpt>
      <trkpt lat="48.84478" lon="2.31916">
        <ele>44.20000076294</ele>
        <time>2015-10-12T20:05:38Z</time>
      </trkpt>
      <trkpt lat="48.84486" lon="2.31946">
        <ele>45.599998474121</ele>
        <time>2015-10-12T20:05:42Z</time>
      </trkpt>
      <trkpt lat="48.84492" lon="2.31974">
        <ele>46.400001525879</ele>
        <time>2015-10-12T20:05:46Z</time>
      </trkpt>
      <trkpt lat="48.84499" lon="2.31994">
        <ele>46.400001525879</ele>
        <time>2015-10-12T20:05:49Z</time>
      </trkpt>
      <trkpt lat="48.8451" lon="2.32017">
        <ele>46.599998474121</ele>
        <time>2015-10-12T20:05:53Z</time>
      </trkpt>
      <trkpt lat="48.84512" lon="2.32023">
        <ele>46.79999923706</ele>
        <time>2015-10-12T20:05:54Z</time>
      </trkpt>
      <trkpt lat="48.84522" lon="2.32048">
        <ele>48.20000076294</ele>
        <time>2015-10-12T20:05:58Z</time>
      </trkpt>
      <trkpt lat="48.8453" lon="2.32078">
        <ele>49.20000076294</ele>
        <time>2015-10-12T20:06:02Z</time>
      </trkpt>
      <trkpt lat="48.8454" lon="2.32109">
        <ele>49.20000076294</ele>
        <time>2015-10-12T20:06:06Z</time>
      </trkpt>
      <trkpt lat="48.84549" lon="2.3214">
        <ele>48.599998474121</ele>
        <time>2015-10-12T20:06:10Z</time>
      </trkpt>
      <trkpt lat="48.84557" lon="2.32172">
        <ele>48.400001525879</ele>
        <time>2015-10-12T20:06:14Z</time>
      </trkpt>
      <trkpt lat="48.84568" lon="2.32201">
        <ele>47.79999923706</ele>
        <time>2015-10-12T20:06:18Z</time>
      </trkpt>
      <trkpt lat="48.8458" lon="2.32228">
        <ele>47.599998474121</ele>
        <time>2015-10-12T20:06:22Z</time>
      </trkpt>
      <trkpt lat="48.8459" lon="2.32257">
        <ele>48.400001525879</ele>
        <time>2015-10-12T20:06:26Z</time>
      </trkpt>
      <trkpt lat="48.846" lon="2.32286">
        <ele>48.79999923706</ele>
        <time>2015-10-12T20:06:30Z</time>
      </trkpt>
      <trkpt lat="48.84608" lon="2.32315">
        <ele>49.79999923706</ele>
        <time>2015-10-12T20:06:34Z</time>
      </trkpt>
      <trkpt lat="48.84613" lon="2.32335">
        <ele>50.20000076294</ele>
        <time>2015-10-12T20:06:37Z</time>
      </trkpt>
      <trkpt lat="48.84618" lon="2.32363">
        <ele>49.400001525879</ele>
        <time>2015-10-12T20:06:41Z</time>
      </trkpt>
      <trkpt lat="48.84623" lon="2.32395">
        <ele>47.79999923706</ele>
        <time>2015-10-12T20:06:45Z</time>
      </trkpt>
      <trkpt lat="48.84626" lon="2.32411">
        <ele>47.400001525879</ele>
        <time>2015-10-12T20:06:47Z</time>
      </trkpt>
      <trkpt lat="48.84632" lon="2.32441">
        <ele>47.599998474121</ele>
        <time>2015-10-12T20:06:51Z</time>
      </trkpt>
      <trkpt lat="48.8464" lon="2.32471">
        <ele>46.400001525879</ele>
        <time>2015-10-12T20:06:55Z</time>
      </trkpt>
      <trkpt lat="48.84643" lon="2.32486">
        <ele>45.79999923706</ele>
        <time>2015-10-12T20:06:57Z</time>
      </trkpt>
      <trkpt lat="48.84651" lon="2.32516">
        <ele>43.599998474121</ele>
        <time>2015-10-12T20:07:01Z</time>
      </trkpt>
      <trkpt lat="48.84661" lon="2.32546">
        <ele>41.599998474121</ele>
        <time>2015-10-12T20:07:05Z</time>
      </trkpt>
      <trkpt lat="48.84673" lon="2.32577">
        <ele>42</ele>
        <time>2015-10-12T20:07:09Z</time>
      </trkpt>
      <trkpt lat="48.84684" lon="2.32607">
        <ele>42.20000076294</ele>
        <time>2015-10-12T20:07:13Z</time>
      </trkpt>
      <trkpt lat="48.84691" lon="2.32637">
        <ele>43.79999923706</ele>
        <time>2015-10-12T20:07:17Z</time>
      </trkpt>
      <trkpt lat="48.84693" lon="2.32643">
        <ele>44.20000076294</ele>
        <time>2015-10-12T20:07:18Z</time>
      </trkpt>
      <trkpt lat="48.847" lon="2.32668">
        <ele>45.20000076294</ele>
        <time>2015-10-12T20:07:23Z</time>
      </trkpt>
      <trkpt lat="48.847" lon="2.32691">
        <ele>43</ele>
        <time>2015-10-12T20:07:30Z</time>
      </trkpt>
      <trkpt lat="48.84704" lon="2.32696">
        <ele>42</ele>
        <time>2015-10-12T20:07:31Z</time>
      </trkpt>
      <trkpt lat="48.84708" lon="2.327">
        <ele>41.20000076294</ele>
        <time>2015-10-12T20:07:32Z</time>
      </trkpt>
      <trkpt lat="48.84722" lon="2.32726">
        <ele>38.79999923706</ele>
        <time>2015-10-12T20:07:37Z</time>
      </trkpt>
      <trkpt lat="48.84724" lon="2.32733">
        <ele>38.400001525879</ele>
        <time>2015-10-12T20:07:38Z</time>
      </trkpt>
      <trkpt lat="48.84731" lon="2.32763">
        <ele>38.599998474121</ele>
        <time>2015-10-12T20:07:43Z</time>
      </trkpt>
      <trkpt lat="48.84733" lon="2.32769">
        <ele>38.599998474121</ele>
        <time>2015-10-12T20:07:44Z</time>
      </trkpt>
      <trkpt lat="48.84739" lon="2.32794">
        <ele>40</ele>
        <time>2015-10-12T20:07:50Z</time>
      </trkpt>
      <trkpt lat="48.84745" lon="2.32823">
        <ele>40</ele>
        <time>2015-10-12T20:07:57Z</time>
      </trkpt>
      <trkpt lat="48.84749" lon="2.32836">
        <ele>40.79999923706</ele>
        <time>2015-10-12T20:07:59Z</time>
      </trkpt>
      <trkpt lat="48.84756" lon="2.32865">
        <ele>41</ele>
        <time>2015-10-12T20:08:03Z</time>
      </trkpt>
      <trkpt lat="48.84762" lon="2.32895">
        <ele>41</ele>
        <time>2015-10-12T20:08:07Z</time>
      </trkpt>
      <trkpt lat="48.8477" lon="2.32923">
        <ele>41.20000076294</ele>
        <time>2015-10-12T20:08:11Z</time>
      </trkpt>
      <trkpt lat="48.84781" lon="2.32946">
        <ele>41.599998474121</ele>
        <time>2015-10-12T20:08:15Z</time>
      </trkpt>
      <trkpt lat="48.84788" lon="2.32966">
        <ele>41.79999923706</ele>
        <time>2015-10-12T20:08:18Z</time>
      </trkpt>
      <trkpt lat="48.84796" lon="2.32994">
        <ele>42</ele>
        <time>2015-10-12T20:08:22Z</time>
      </trkpt>
      <trkpt lat="48.84806" lon="2.33024">
        <ele>42.599998474121</ele>
        <time>2015-10-12T20:08:26Z</time>
      </trkpt>
      <trkpt lat="48.84816" lon="2.33055">
        <ele>43.599998474121</ele>
        <time>2015-10-12T20:08:30Z</time>
      </trkpt>
      <trkpt lat="48.84824" lon="2.33086">
        <ele>43.400001525879</ele>
        <time>2015-10-12T20:08:34Z</time>
      </trkpt>
      <trkpt lat="48.84832" lon="2.33108">
        <ele>43.20000076294</ele>
        <time>2015-10-12T20:08:37Z</time>
      </trkpt>
      <trkpt lat="48.8484" lon="2.33139">
        <ele>42.79999923706</ele>
        <time>2015-10-12T20:08:41Z</time>
      </trkpt>
      <trkpt lat="48.84847" lon="2.33167">
        <ele>42.400001525879</ele>
        <time>2015-10-12T20:08:45Z</time>
      </trkpt>
      <trkpt lat="48.84852" lon="2.33194">
        <ele>42.599998474121</ele>
        <time>2015-10-12T20:08:49Z</time>
      </trkpt>
      <trkpt lat="48.8486" lon="2.33224">
        <ele>43</ele>
        <time>2015-10-12T20:08:55Z</time>
      </trkpt>
      <trkpt lat="48.84866" lon="2.33245">
        <ele>42.79999923706</ele>
        <time>2015-10-12T20:09:00Z</time>
      </trkpt>
      <trkpt lat="48.84872" lon="2.33275">
        <ele>42.599998474121</ele>
        <time>2015-10-12T20:09:05Z</time>
      </trkpt>
      <trkpt lat="48.84875" lon="2.33289">
        <ele>42.20000076294</ele>
        <time>2015-10-12T20:09:07Z</time>
      </trkpt>
      <trkpt lat="48.84881" lon="2.33318">
        <ele>41.599998474121</ele>
        <time>2015-10-12T20:09:11Z</time>
      </trkpt>
      <trkpt lat="48.84889" lon="2.3335">
        <ele>41.20000076294</ele>
        <time>2015-10-12T20:09:15Z</time>
      </trkpt>
      <trkpt lat="48.84896" lon="2.33382">
        <ele>41.599998474121</ele>
        <time>2015-10-12T20:09:19Z</time>
      </trkpt>
      <trkpt lat="48.84903" lon="2.33415">
        <ele>41.599998474121</ele>
        <time>2015-10-12T20:09:23Z</time>
      </trkpt>
      <trkpt lat="48.84907" lon="2.33448">
        <ele>41.400001525879</ele>
        <time>2015-10-12T20:09:27Z</time>
      </trkpt>
      <trkpt lat="48.84911" lon="2.33479">
        <ele>40.79999923706</ele>
        <time>2015-10-12T20:09:31Z</time>
      </trkpt>
      <trkpt lat="48.84916" lon="2.3351">
        <ele>40.400001525879</ele>
        <time>2015-10-12T20:09:35Z</time>
      </trkpt>
      <trkpt lat="48.84921" lon="2.33544">
        <ele>40.20000076294</ele>
        <time>2015-10-12T20:09:39Z</time>
      </trkpt>
      <trkpt lat="48.84925" lon="2.33577">
        <ele>40</ele>
        <time>2015-10-12T20:09:43Z</time>
      </trkpt>
      <trkpt lat="48.8493" lon="2.33608">
        <ele>40.20000076294</ele>
        <time>2015-10-12T20:09:47Z</time>
      </trkpt>
      <trkpt lat="48.84931" lon="2.33641">
        <ele>40.79999923706</ele>
        <time>2015-10-12T20:09:51Z</time>
      </trkpt>
      <trkpt lat="48.84931" lon="2.33673">
        <ele>40.79999923706</ele>
        <time>2015-10-12T20:09:55Z</time>
      </trkpt>
      <trkpt lat="48.84932" lon="2.33704">
        <ele>40.599998474121</ele>
        <time>2015-10-12T20:09:59Z</time>
      </trkpt>
      <trkpt lat="48.84931" lon="2.33734">
        <ele>41.599998474121</ele>
        <time>2015-10-12T20:10:03Z</time>
      </trkpt>
      <trkpt lat="48.8493" lon="2.33763">
        <ele>42.400001525879</ele>
        <time>2015-10-12T20:10:07Z</time>
      </trkpt>
      <trkpt lat="48.84927" lon="2.33788">
        <ele>42.20000076294</ele>
        <time>2015-10-12T20:10:11Z</time>
      </trkpt>
      <trkpt lat="48.84926" lon="2.33822">
        <ele>43</ele>
        <time>2015-10-12T20:10:16Z</time>
      </trkpt>
      <trkpt lat="48.8492" lon="2.33849">
        <ele>45.20000076294</ele>
        <time>2015-10-12T20:10:20Z</time>
      </trkpt>
      <trkpt lat="48.84919" lon="2.33856">
        <ele>45.599998474121</ele>
        <time>2015-10-12T20:10:21Z</time>
      </trkpt>
      <trkpt lat="48.84917" lon="2.33869">
        <ele>46</ele>
        <time>2015-10-12T20:10:23Z</time>
      </trkpt>
      <trkpt lat="48.84915" lon="2.3389">
        <ele>47.79999923706</ele>
        <time>2015-10-12T20:10:27Z</time>
      </trkpt>
      <trkpt lat="48.84915" lon="2.33898">
        <ele>48.79999923706</ele>
        <time>2015-10-12T20:10:29Z</time>
      </trkpt>
      <trkpt lat="48.84916" lon="2.33917">
        <ele>49.79999923706</ele>
        <time>2015-10-12T20:10:33Z</time>
      </trkpt>
      <trkpt lat="48.84916" lon="2.33923">
        <ele>50</ele>
        <time>2015-10-12T20:10:34Z</time>
      </trkpt>
      <trkpt lat="48.84912" lon="2.33952">
        <ele>51.79999923706</ele>
        <time>2015-10-12T20:10:39Z</time>
      </trkpt>
      <trkpt lat="48.8491" lon="2.33963">
        <ele>52.400001525879</ele>
        <time>2015-10-12T20:10:41Z</time>
      </trkpt>
      <trkpt lat="48.84903" lon="2.33991">
        <ele>54.20000076294</ele>
        <time>2015-10-12T20:10:46Z</time>
      </trkpt>
      <trkpt lat="48.84896" lon="2.34016">
        <ele>58</ele>
        <time>2015-10-12T20:10:51Z</time>
      </trkpt>
      <trkpt lat="48.84895" lon="2.34022">
        <ele>58.79999923706</ele>
        <time>2015-10-12T20:10:52Z</time>
      </trkpt>
      <trkpt lat="48.84895" lon="2.34038">
        <ele>60</ele>
        <time>2015-10-12T20:10:55Z</time>
      </trkpt>
      <trkpt lat="48.84894" lon="2.34071">
        <ele>61.599998474121</ele>
        <time>2015-10-12T20:11:00Z</time>
      </trkpt>
      <trkpt lat="48.84892" lon="2.34105">
        <ele>62.79999923706</ele>
        <time>2015-10-12T20:11:04Z</time>
      </trkpt>
      <trkpt lat="48.84891" lon="2.34135">
        <ele>63.20000076294</ele>
        <time>2015-10-12T20:11:08Z</time>
      </trkpt>
      <trkpt lat="48.84891" lon="2.34146">
        <ele>63</ele>
        <time>2015-10-12T20:11:10Z</time>
      </trkpt>
      <trkpt lat="48.84885" lon="2.34156">
        <ele>53.400001525879</ele>
        <time>2015-10-12T20:12:07Z</time>
      </trkpt>
      <trkpt lat="48.84883" lon="2.34151">
        <ele>52.400001525879</ele>
        <time>2015-10-12T20:13:35Z</time>
      </trkpt>
      <trkpt lat="48.84889" lon="2.34161">
        <ele>55.20000076294</ele>
        <time>2015-10-12T20:14:50Z</time>
      </trkpt>
      <trkpt lat="48.84904" lon="2.3418">
        <ele>54.79999923706</ele>
        <time>2015-10-12T20:14:59Z</time>
      </trkpt>
      <trkpt lat="48.84923" lon="2.34193">
        <ele>54.400001525879</ele>
        <time>2015-10-12T20:15:05Z</time>
      </trkpt>
      <trkpt lat="48.84939" lon="2.34204">
        <ele>52.400001525879</ele>
        <time>2015-10-12T20:15:09Z</time>
      </trkpt>
      <trkpt lat="48.84958" lon="2.34217">
        <ele>50.20000076294</ele>
        <time>2015-10-12T20:15:14Z</time>
      </trkpt>
      <trkpt lat="48.84976" lon="2.34225">
        <ele>49.20000076294</ele>
        <time>2015-10-12T20:15:18Z</time>
      </trkpt>
      <trkpt lat="48.84997" lon="2.34234">
        <ele>48.400001525879</ele>
        <time>2015-10-12T20:15:23Z</time>
      </trkpt>
      <trkpt lat="48.85016" lon="2.34243">
        <ele>48.400001525879</ele>
        <time>2015-10-12T20:15:27Z</time>
      </trkpt>
      <trkpt lat="48.85033" lon="2.34252">
        <ele>49.20000076294</ele>
        <time>2015-10-12T20:15:31Z</time>
      </trkpt>
      <trkpt lat="48.85053" lon="2.34259">
        <ele>50.20000076294</ele>
        <time>2015-10-12T20:15:35Z</time>
      </trkpt>
      <trkpt lat="48.85074" lon="2.34264">
        <ele>51.79999923706</ele>
        <time>2015-10-12T20:15:39Z</time>
      </trkpt>
      <trkpt lat="48.8508" lon="2.34266">
        <ele>52.599998474121</ele>
        <time>2015-10-12T20:15:40Z</time>
      </trkpt>
      <trkpt lat="48.851" lon="2.34273">
        <ele>55.20000076294</ele>
        <time>2015-10-12T20:15:44Z</time>
      </trkpt>
      <trkpt lat="48.85111" lon="2.34273">
        <ele>58.599998474121</ele>
        <time>2015-10-12T20:15:47Z</time>
      </trkpt>
      <trkpt lat="48.85115" lon="2.34273">
        <ele>61.599998474121</ele>
        <time>2015-10-12T20:15:49Z</time>
      </trkpt>
      <trkpt lat="48.85118" lon="2.34274">
        <ele>65.800003051758</ele>
        <time>2015-10-12T20:15:52Z</time>
      </trkpt>
      <trkpt lat="48.85119" lon="2.34281">
        <ele>65.800003051758</ele>
        <time>2015-10-12T20:15:57Z</time>
      </trkpt>
      <trkpt lat="48.85122" lon="2.34288">
        <ele>64.199996948242</ele>
        <time>2015-10-12T20:16:01Z</time>
      </trkpt>
      <trkpt lat="48.85123" lon="2.34293">
        <ele>62.400001525879</ele>
        <time>2015-10-12T20:16:02Z</time>
      </trkpt>
      <trkpt lat="48.85124" lon="2.34296">
        <ele>61.400001525879</ele>
        <time>2015-10-12T20:16:05Z</time>
      </trkpt>
      <trkpt lat="48.85141" lon="2.34306">
        <ele>57.400001525879</ele>
        <time>2015-10-12T20:16:17Z</time>
      </trkpt>
      <trkpt lat="48.85163" lon="2.34314">
        <ele>57.20000076294</ele>
        <time>2015-10-12T20:16:22Z</time>
      </trkpt>
      <trkpt lat="48.85181" lon="2.34322">
        <ele>57.79999923706</ele>
        <time>2015-10-12T20:16:26Z</time>
      </trkpt>
      <trkpt lat="48.85201" lon="2.34328">
        <ele>59.599998474121</ele>
        <time>2015-10-12T20:16:30Z</time>
      </trkpt>
      <trkpt lat="48.85219" lon="2.34335">
        <ele>62.400001525879</ele>
        <time>2015-10-12T20:16:34Z</time>
      </trkpt>
      <trkpt lat="48.85241" lon="2.3434">
        <ele>66.599998474121</ele>
        <time>2015-10-12T20:16:39Z</time>
      </trkpt>
      <trkpt lat="48.85265" lon="2.34352">
        <ele>53.20000076294</ele>
        <time>2015-10-12T20:16:44Z</time>
      </trkpt>
      <trkpt lat="48.85276" lon="2.34357">
        <ele>50.400001525879</ele>
        <time>2015-10-12T20:16:46Z</time>
      </trkpt>
      <trkpt lat="48.85296" lon="2.34366">
        <ele>48</ele>
        <time>2015-10-12T20:16:50Z</time>
      </trkpt>
      <trkpt lat="48.85317" lon="2.34375">
        <ele>46</ele>
        <time>2015-10-12T20:16:54Z</time>
      </trkpt>
      <trkpt lat="48.85337" lon="2.34388">
        <ele>45.400001525879</ele>
        <time>2015-10-12T20:16:58Z</time>
      </trkpt>
      <trkpt lat="48.85342" lon="2.34392">
        <ele>45.79999923706</ele>
        <time>2015-10-12T20:16:59Z</time>
      </trkpt>
      <trkpt lat="48.8536" lon="2.34404">
        <ele>45.79999923706</ele>
        <time>2015-10-12T20:17:03Z</time>
      </trkpt>
      <trkpt lat="48.85362" lon="2.34407">
        <ele>45.400001525879</ele>
        <time>2015-10-12T20:17:04Z</time>
      </trkpt>
      <trkpt lat="48.85367" lon="2.34414">
        <ele>44</ele>
        <time>2015-10-12T20:17:07Z</time>
      </trkpt>
      <trkpt lat="48.85375" lon="2.34437">
        <ele>33</ele>
        <time>2015-10-12T20:17:42Z</time>
      </trkpt>
      <trkpt lat="48.85394" lon="2.3445">
        <ele>33.20000076294</ele>
        <time>2015-10-12T20:17:49Z</time>
      </trkpt>
      <trkpt lat="48.85411" lon="2.34467">
        <ele>33.79999923706</ele>
        <time>2015-10-12T20:17:54Z</time>
      </trkpt>
      <trkpt lat="48.85427" lon="2.34482">
        <ele>35.20000076294</ele>
        <time>2015-10-12T20:17:58Z</time>
      </trkpt>
      <trkpt lat="48.85443" lon="2.34497">
        <ele>36.400001525879</ele>
        <time>2015-10-12T20:18:02Z</time>
      </trkpt>
      <trkpt lat="48.85458" lon="2.34513">
        <ele>37.79999923706</ele>
        <time>2015-10-12T20:18:06Z</time>
      </trkpt>
      <trkpt lat="48.85474" lon="2.34524">
        <ele>40.20000076294</ele>
        <time>2015-10-12T20:18:10Z</time>
      </trkpt>
      <trkpt lat="48.85493" lon="2.34536">
        <ele>43.400001525879</ele>
        <time>2015-10-12T20:18:15Z</time>
      </trkpt>
      <trkpt lat="48.85511" lon="2.34551">
        <ele>46.20000076294</ele>
        <time>2015-10-12T20:18:19Z</time>
      </trkpt>
      <trkpt lat="48.85527" lon="2.34568">
        <ele>46.79999923706</ele>
        <time>2015-10-12T20:18:22Z</time>
      </trkpt>
      <trkpt lat="48.85542" lon="2.34582">
        <ele>44</ele>
        <time>2015-10-12T20:18:24Z</time>
      </trkpt>
      <trkpt lat="48.85556" lon="2.34594">
        <ele>39.79999923706</ele>
        <time>2015-10-12T20:18:26Z</time>
      </trkpt>
      <trkpt lat="48.85566" lon="2.34603">
        <ele>40.400001525879</ele>
        <time>2015-10-12T20:18:28Z</time>
      </trkpt>
      <trkpt lat="48.85587" lon="2.34616">
        <ele>39.79999923706</ele>
        <time>2015-10-12T20:18:32Z</time>
      </trkpt>
      <trkpt lat="48.85608" lon="2.34627">
        <ele>38</ele>
        <time>2015-10-12T20:18:36Z</time>
      </trkpt>
      <trkpt lat="48.85617" lon="2.34632">
        <ele>37</ele>
        <time>2015-10-12T20:18:38Z</time>
      </trkpt>
      <trkpt lat="48.85639" lon="2.34634">
        <ele>36.20000076294</ele>
        <time>2015-10-12T20:18:43Z</time>
      </trkpt>
      <trkpt lat="48.85647" lon="2.34638">
        <ele>37.79999923706</ele>
        <time>2015-10-12T20:18:45Z</time>
      </trkpt>
      <trkpt lat="48.85666" lon="2.34648">
        <ele>39.79999923706</ele>
        <time>2015-10-12T20:18:50Z</time>
      </trkpt>
      <trkpt lat="48.85685" lon="2.34658">
        <ele>41.599998474121</ele>
        <time>2015-10-12T20:18:55Z</time>
      </trkpt>
      <trkpt lat="48.85704" lon="2.34667">
        <ele>43.599998474121</ele>
        <time>2015-10-12T20:19:00Z</time>
      </trkpt>
      <trkpt lat="48.85708" lon="2.34668">
        <ele>43.599998474121</ele>
        <time>2015-10-12T20:19:01Z</time>
      </trkpt>
      <trkpt lat="48.8572" lon="2.34668">
        <ele>44.400001525879</ele>
        <time>2015-10-12T20:19:05Z</time>
      </trkpt>
      <trkpt lat="48.8574" lon="2.34664">
        <ele>43.79999923706</ele>
        <time>2015-10-12T20:19:14Z</time>
      </trkpt>
      <trkpt lat="48.85752" lon="2.34676">
        <ele>44.79999923706</ele>
        <time>2015-10-12T20:19:18Z</time>
      </trkpt>
      <trkpt lat="48.8577" lon="2.34686">
        <ele>45.79999923706</ele>
        <time>2015-10-12T20:19:23Z</time>
      </trkpt>
      <trkpt lat="48.85789" lon="2.34696">
        <ele>47.79999923706</ele>
        <time>2015-10-12T20:19:28Z</time>
      </trkpt>
      <trkpt lat="48.85809" lon="2.34703">
        <ele>51</ele>
        <time>2015-10-12T20:19:33Z</time>
      </trkpt>
      <trkpt lat="48.85831" lon="2.34704">
        <ele>54.20000076294</ele>
        <time>2015-10-12T20:19:38Z</time>
      </trkpt>
      <trkpt lat="48.8585" lon="2.34707">
        <ele>57.599998474121</ele>
        <time>2015-10-12T20:19:42Z</time>
      </trkpt>
      <trkpt lat="48.85869" lon="2.34709">
        <ele>59.599998474121</ele>
        <time>2015-10-12T20:19:46Z</time>
      </trkpt>
      <trkpt lat="48.85891" lon="2.34703">
        <ele>64.400001525879</ele>
        <time>2015-10-12T20:19:51Z</time>
      </trkpt>
      <trkpt lat="48.85908" lon="2.34692">
        <ele>68.800003051758</ele>
        <time>2015-10-12T20:19:55Z</time>
      </trkpt>
      <trkpt lat="48.85929" lon="2.34681">
        <ele>73.199996948242</ele>
        <time>2015-10-12T20:20:00Z</time>
      </trkpt>
      <trkpt lat="48.85934" lon="2.34678">
        <ele>74.800003051758</ele>
        <time>2015-10-12T20:20:02Z</time>
      </trkpt>
      <trkpt lat="48.85944" lon="2.34682">
        <ele>81.199996948242</ele>
        <time>2015-10-12T20:20:08Z</time>
      </trkpt>
      <trkpt lat="48.85945" lon="2.34684">
        <ele>80.800003051758</ele>
        <time>2015-10-12T20:20:09Z</time>
      </trkpt>
      <trkpt lat="48.85953" lon="2.34698">
        <ele>87</ele>
        <time>2015-10-12T20:20:24Z</time>
      </trkpt>
    </trkseg>
  </trk>
</gpx>